<?xml version='1.0' encoding='UTF-8'?><gpx version="1.1" creator="JPX - https://github.com/jenetics/jpx" xmlns="http://www.topografix.com/GPX/1/1"><trk><trkseg><trkpt lat="43.77034608629716" lon="10.900441600420676"><ele>81.0</ele><time>2026-04-18T10:20:16.114Z</time></trkpt><trkpt lat="43.7703092625366" lon="10.900356964575161"><ele>81.0</ele><time>2026-04-18T10:20:18.114Z</time></trkpt><trkpt lat="43.77026597590362" lon="10.900271775224853"><ele>81.0</ele><time>2026-04-18T10:20:20.114Z</time></trkpt><trkpt lat="43.77023109494804" lon="10.900194005790226"><ele>81.0</ele><time>2026-04-18T10:20:22.114Z</time></trkpt><trkpt lat="43.770193972398346" lon="10.900120187518848"><ele>81.0</ele><time>2026-04-18T10:20:24.114Z</time></trkpt><trkpt lat="43.77015763855455" lon="10.900048929892632"><ele>81.0</ele><time>2026-04-18T10:20:26.114Z</time></trkpt><trkpt lat="43.770122865858745" lon="10.899960571042174"><ele>81.0</ele><time>2026-04-18T10:20:28.114Z</time></trkpt><trkpt lat="43.770087208236376" lon="10.899876294988434"><ele>81.71428571428572</ele><time>2026-04-18T10:20:30.114Z</time></trkpt><trkpt lat="43.770055138217565" lon="10.89979774613213"><ele>82.42857142857143</ele><time>2026-04-18T10:20:32.114Z</time></trkpt><trkpt lat="43.77001214904658" lon="10.899721674893621"><ele>83.14285714285714</ele><time>2026-04-18T10:20:34.114Z</time></trkpt><trkpt lat="43.76994581437753" lon="10.899618127421373"><ele>83.85714285714286</ele><time>2026-04-18T10:20:37.114Z</time></trkpt><trkpt lat="43.76990682120984" lon="10.899536298913262"><ele>84.57142857142857</ele><time>2026-04-18T10:20:39.114Z</time></trkpt><trkpt lat="43.76987198255301" lon="10.8994546342136"><ele>85.28571428571429</ele><time>2026-04-18T10:20:41.114Z</time></trkpt><trkpt lat="43.769838739020656" lon="10.899370304354443"><ele>86.0</ele><time>2026-04-18T10:20:43.114Z</time></trkpt><trkpt lat="43.76980442028799" lon="10.899281141015166"><ele>86.0</ele><time>2026-04-18T10:20:45.114Z</time></trkpt><trkpt lat="43.769774061906006" lon="10.89918797345722"><ele>86.0</ele><time>2026-04-18T10:20:47.114Z</time></trkpt><trkpt lat="43.76975594108251" lon="10.899081964621635"><ele>86.0</ele><time>2026-04-18T10:20:49.114Z</time></trkpt><trkpt lat="43.76974625001521" lon="10.898970378108183"><ele>86.0</ele><time>2026-04-18T10:20:51.114Z</time></trkpt><trkpt lat="43.76973493782971" lon="10.89884927726091"><ele>86.0</ele><time>2026-04-18T10:20:53.114Z</time></trkpt><trkpt lat="43.7697260605825" lon="10.89871562903321"><ele>86.0</ele><time>2026-04-18T10:20:55.114Z</time></trkpt><trkpt lat="43.769711299787005" lon="10.898581461748678"><ele>86.0</ele><time>2026-04-18T10:20:57.114Z</time></trkpt><trkpt lat="43.76969115108265" lon="10.89843690119317"><ele>86.0</ele><time>2026-04-18T10:20:59.114Z</time></trkpt><trkpt lat="43.769688357749914" lon="10.89829918544103"><ele>86.0</ele><time>2026-04-18T10:21:01.114Z</time></trkpt><trkpt lat="43.76967273790854" lon="10.898154378671006"><ele>86.0</ele><time>2026-04-18T10:21:03.114Z</time></trkpt><trkpt lat="43.769664360739725" lon="10.898009048725525"><ele>86.0</ele><time>2026-04-18T10:21:05.114Z</time></trkpt><trkpt lat="43.769663530907756" lon="10.897862783733386"><ele>85.8</ele><time>2026-04-18T10:21:07.114Z</time></trkpt><trkpt lat="43.769674454530396" lon="10.89772438986127"><ele>85.6</ele><time>2026-04-18T10:21:09.114Z</time></trkpt><trkpt lat="43.7696761932748" lon="10.89758343465159"><ele>85.4</ele><time>2026-04-18T10:21:11.114Z</time></trkpt><trkpt lat="43.769689357448016" lon="10.897445090682531"><ele>85.2</ele><time>2026-04-18T10:21:13.114Z</time></trkpt><trkpt lat="43.76970631526271" lon="10.897303145513614"><ele>85.0</ele><time>2026-04-18T10:21:15.114Z</time></trkpt><trkpt lat="43.76972491704747" lon="10.89715614142101"><ele>85.0</ele><time>2026-04-18T10:21:17.114Z</time></trkpt><trkpt lat="43.76974648619277" lon="10.897006958993412"><ele>85.0</ele><time>2026-04-18T10:21:19.114Z</time></trkpt><trkpt lat="43.76976630187591" lon="10.896917827715415"><ele>85.0</ele><time>2026-04-18T10:21:20.114Z</time></trkpt><trkpt lat="43.769789070408564" lon="10.896830894173357"><ele>85.0</ele><time>2026-04-18T10:21:21.114Z</time></trkpt><trkpt lat="43.76980998080568" lon="10.896744821819356"><ele>85.0</ele><time>2026-04-18T10:21:22.114Z</time></trkpt><trkpt lat="43.769851302993914" lon="10.896577652480401"><ele>85.0</ele><time>2026-04-18T10:21:24.114Z</time></trkpt><trkpt lat="43.769867946986565" lon="10.896487016749818"><ele>84.85714285714286</ele><time>2026-04-18T10:21:25.114Z</time></trkpt><trkpt lat="43.76988738223414" lon="10.8964023462621"><ele>84.71428571428571</ele><time>2026-04-18T10:21:26.114Z</time></trkpt><trkpt lat="43.76989954210964" lon="10.896313030374545"><ele>84.57142857142857</ele><time>2026-04-18T10:21:27.114Z</time></trkpt><trkpt lat="43.769902003390456" lon="10.896214513256316"><ele>84.42857142857143</ele><time>2026-04-18T10:21:28.114Z</time></trkpt><trkpt lat="43.76991080229281" lon="10.896117144003298"><ele>84.28571428571428</ele><time>2026-04-18T10:21:29.114Z</time></trkpt><trkpt lat="43.769922708519985" lon="10.89601926327099"><ele>84.14285714285714</ele><time>2026-04-18T10:21:30.114Z</time></trkpt><trkpt lat="43.76993231695674" lon="10.895920068415393"><ele>84.0</ele><time>2026-04-18T10:21:31.114Z</time></trkpt><trkpt lat="43.76994074609072" lon="10.895818332251839"><ele>83.85714285714286</ele><time>2026-04-18T10:21:32.114Z</time></trkpt><trkpt lat="43.76994948696472" lon="10.895717374435096"><ele>83.71428571428572</ele><time>2026-04-18T10:21:33.114Z</time></trkpt><trkpt lat="43.76995765278152" lon="10.895617590214904"><ele>83.57142857142857</ele><time>2026-04-18T10:21:34.114Z</time></trkpt><trkpt lat="43.769970376544364" lon="10.895515534038664"><ele>83.42857142857143</ele><time>2026-04-18T10:21:35.114Z</time></trkpt><trkpt lat="43.76998759971593" lon="10.895419542883447"><ele>83.28571428571429</ele><time>2026-04-18T10:21:36.114Z</time></trkpt><trkpt lat="43.77000256140129" lon="10.895317031220275"><ele>83.14285714285714</ele><time>2026-04-18T10:21:37.114Z</time></trkpt><trkpt lat="43.77001847925571" lon="10.895215532589834"><ele>83.0</ele><time>2026-04-18T10:21:38.114Z</time></trkpt><trkpt lat="43.770030001171435" lon="10.895117549702022"><ele>82.83333333333334</ele><time>2026-04-18T10:21:39.114Z</time></trkpt><trkpt lat="43.7700435439713" lon="10.895022488796112"><ele>82.66666666666667</ele><time>2026-04-18T10:21:40.114Z</time></trkpt><trkpt lat="43.770058487955396" lon="10.894932681165933"><ele>82.5</ele><time>2026-04-18T10:21:41.114Z</time></trkpt><trkpt lat="43.770071721229634" lon="10.894837186406624"><ele>82.33333333333333</ele><time>2026-04-18T10:21:42.114Z</time></trkpt><trkpt lat="43.77007946324341" lon="10.894746801429376"><ele>82.16666666666666</ele><time>2026-04-18T10:21:43.114Z</time></trkpt><trkpt lat="43.77009098168843" lon="10.894659690258745"><ele>82.0</ele><time>2026-04-18T10:21:44.114Z</time></trkpt><trkpt lat="43.7701150800312" lon="10.894490869831518"><ele>82.0</ele><time>2026-04-18T10:21:46.114Z</time></trkpt><trkpt lat="43.770140055645946" lon="10.894327560591435"><ele>82.0</ele><time>2026-04-18T10:21:48.114Z</time></trkpt><trkpt lat="43.77015837944517" lon="10.894166601625487"><ele>82.0</ele><time>2026-04-18T10:21:50.114Z</time></trkpt><trkpt lat="43.77018185072801" lon="10.894012108803121"><ele>82.0</ele><time>2026-04-18T10:21:52.114Z</time></trkpt><trkpt lat="43.770204226903445" lon="10.893866603651382"><ele>82.6</ele><time>2026-04-18T10:21:54.114Z</time></trkpt><trkpt lat="43.77022646589731" lon="10.89372402633216"><ele>83.19999999999999</ele><time>2026-04-18T10:21:56.114Z</time></trkpt><trkpt lat="43.77024579808477" lon="10.89359224165168"><ele>83.8</ele><time>2026-04-18T10:21:58.114Z</time></trkpt><trkpt lat="43.77026371262758" lon="10.893459708668775"><ele>84.4</ele><time>2026-04-18T10:22:00.114Z</time></trkpt><trkpt lat="43.77027310134154" lon="10.893335591506952"><ele>85.0</ele><time>2026-04-18T10:22:02.114Z</time></trkpt><trkpt lat="43.77028655127445" lon="10.893213160440386"><ele>85.66666666666666</ele><time>2026-04-18T10:22:04.114Z</time></trkpt><trkpt lat="43.77030385194639" lon="10.893095132891654"><ele>86.33333333333333</ele><time>2026-04-18T10:22:06.114Z</time></trkpt><trkpt lat="43.770319811994774" lon="10.892982002005967"><ele>87.0</ele><time>2026-04-18T10:22:08.114Z</time></trkpt><trkpt lat="43.77033557593223" lon="10.892864080243443"><ele>87.66666666666667</ele><time>2026-04-18T10:22:10.114Z</time></trkpt><trkpt lat="43.7703460510531" lon="10.892752378183703"><ele>88.33333333333334</ele><time>2026-04-18T10:22:12.114Z</time></trkpt><trkpt lat="43.77035286144684" lon="10.892631749849016"><ele>89.0</ele><time>2026-04-18T10:22:14.114Z</time></trkpt><trkpt lat="43.77034517929311" lon="10.892517262532975"><ele>89.0</ele><time>2026-04-18T10:22:16.112Z</time></trkpt><trkpt lat="43.77032948257379" lon="10.892402369010249"><ele>89.0</ele><time>2026-04-18T10:22:18.112Z</time></trkpt><trkpt lat="43.77030921776485" lon="10.892286148989502"><ele>89.0</ele><time>2026-04-18T10:22:20.112Z</time></trkpt><trkpt lat="43.77028292754495" lon="10.892175409528216"><ele>89.0</ele><time>2026-04-18T10:22:22.112Z</time></trkpt><trkpt lat="43.77024686546075" lon="10.892069248539048"><ele>89.0</ele><time>2026-04-18T10:22:24.112Z</time></trkpt><trkpt lat="43.7702049878397" lon="10.891962191762529"><ele>89.0</ele><time>2026-04-18T10:22:26.112Z</time></trkpt><trkpt lat="43.770160330584794" lon="10.891850745201236"><ele>88.6</ele><time>2026-04-18T10:22:28.112Z</time></trkpt><trkpt lat="43.770111765495145" lon="10.891739187889463"><ele>88.2</ele><time>2026-04-18T10:22:30.112Z</time></trkpt><trkpt lat="43.77006490945746" lon="10.891627607947985"><ele>87.8</ele><time>2026-04-18T10:22:32.112Z</time></trkpt><trkpt lat="43.77001804696442" lon="10.891514290268342"><ele>87.39999999999999</ele><time>2026-04-18T10:22:34.112Z</time></trkpt><trkpt lat="43.76996751823746" lon="10.891400532947959"><ele>87.0</ele><time>2026-04-18T10:22:36.112Z</time></trkpt><trkpt lat="43.76991953531457" lon="10.891285941277838"><ele>87.0</ele><time>2026-04-18T10:22:38.112Z</time></trkpt><trkpt lat="43.76986639785807" lon="10.891169504067415"><ele>87.0</ele><time>2026-04-18T10:22:40.112Z</time></trkpt><trkpt lat="43.76980807798846" lon="10.89105501753686"><ele>87.0</ele><time>2026-04-18T10:22:42.112Z</time></trkpt><trkpt lat="43.76974084975541" lon="10.890952053175564"><ele>87.0</ele><time>2026-04-18T10:22:44.112Z</time></trkpt><trkpt lat="43.76967504165789" lon="10.890853359382248"><ele>87.0</ele><time>2026-04-18T10:22:46.112Z</time></trkpt><trkpt lat="43.76962046550991" lon="10.89080781679265"><ele>87.19999999999999</ele><time>2026-04-18T10:22:47.112Z</time></trkpt><trkpt lat="43.76952993157557" lon="10.890707172772712"><ele>87.4</ele><time>2026-04-18T10:22:49.112Z</time></trkpt><trkpt lat="43.76942316207533" lon="10.890637101918461"><ele>87.6</ele><time>2026-04-18T10:22:51.112Z</time></trkpt><trkpt lat="43.76930989222921" lon="10.890572174428405"><ele>87.80000000000001</ele><time>2026-04-18T10:22:53.112Z</time></trkpt><trkpt lat="43.76924796735049" lon="10.890540946993523"><ele>88.0</ele><time>2026-04-18T10:22:54.112Z</time></trkpt><trkpt lat="43.76918760913073" lon="10.890513650829009"><ele>88.0</ele><time>2026-04-18T10:22:55.112Z</time></trkpt><trkpt lat="43.76912468729949" lon="10.890483976719155"><ele>88.0</ele><time>2026-04-18T10:22:56.112Z</time></trkpt><trkpt lat="43.76906312316381" lon="10.890457540476923"><ele>88.0</ele><time>2026-04-18T10:22:57.112Z</time></trkpt><trkpt lat="43.76900237748283" lon="10.890433190069173"><ele>88.0</ele><time>2026-04-18T10:22:58.112Z</time></trkpt><trkpt lat="43.768939111112104" lon="10.89040092251191"><ele>88.0</ele><time>2026-04-18T10:22:59.112Z</time></trkpt><trkpt lat="43.76887434063783" lon="10.890366388540263"><ele>88.0</ele><time>2026-04-18T10:23:00.112Z</time></trkpt><trkpt lat="43.768809205664475" lon="10.890333207142817"><ele>88.0</ele><time>2026-04-18T10:23:01.112Z</time></trkpt><trkpt lat="43.76874251892297" lon="10.890299809240972"><ele>88.0</ele><time>2026-04-18T10:23:02.112Z</time></trkpt><trkpt lat="43.76867629474481" lon="10.890265257519815"><ele>88.0</ele><time>2026-04-18T10:23:03.112Z</time></trkpt><trkpt lat="43.76860732127826" lon="10.890233668491046"><ele>88.0</ele><time>2026-04-18T10:23:04.112Z</time></trkpt><trkpt lat="43.76853910432025" lon="10.890201250841288"><ele>88.0</ele><time>2026-04-18T10:23:05.112Z</time></trkpt><trkpt lat="43.76847199885195" lon="10.890166891641377"><ele>88.0</ele><time>2026-04-18T10:23:06.112Z</time></trkpt><trkpt lat="43.76840419220638" lon="10.890134105128778"><ele>88.0</ele><time>2026-04-18T10:23:07.112Z</time></trkpt><trkpt lat="43.76833722091094" lon="10.890098719518027"><ele>88.0</ele><time>2026-04-18T10:23:08.112Z</time></trkpt><trkpt lat="43.768272230568115" lon="10.89006423018919"><ele>87.71428571428572</ele><time>2026-04-18T10:23:09.112Z</time></trkpt><trkpt lat="43.76820311776157" lon="10.890031869073125"><ele>87.42857142857143</ele><time>2026-04-18T10:23:10.112Z</time></trkpt><trkpt lat="43.768136273344396" lon="10.889995358046766"><ele>87.14285714285714</ele><time>2026-04-18T10:23:11.112Z</time></trkpt><trkpt lat="43.768074263263536" lon="10.889965519229573"><ele>86.85714285714286</ele><time>2026-04-18T10:23:12.112Z</time></trkpt><trkpt lat="43.76801110547409" lon="10.88994036351544"><ele>86.57142857142857</ele><time>2026-04-18T10:23:13.112Z</time></trkpt><trkpt lat="43.767949680647114" lon="10.88990603670427"><ele>86.28571428571429</ele><time>2026-04-18T10:23:14.112Z</time></trkpt><trkpt lat="43.7678870402863" lon="10.889871304890146"><ele>86.0</ele><time>2026-04-18T10:23:15.112Z</time></trkpt><trkpt lat="43.76782722856857" lon="10.889842167974662"><ele>86.0</ele><time>2026-04-18T10:23:16.112Z</time></trkpt><trkpt lat="43.76771000691262" lon="10.889784588158799"><ele>86.0</ele><time>2026-04-18T10:23:18.112Z</time></trkpt><trkpt lat="43.767594902562735" lon="10.889731024321904"><ele>86.0</ele><time>2026-04-18T10:23:20.112Z</time></trkpt><trkpt lat="43.767484028964915" lon="10.889677029836223"><ele>86.0</ele><time>2026-04-18T10:23:22.112Z</time></trkpt><trkpt lat="43.767371851888775" lon="10.889622315335252"><ele>87.25</ele><time>2026-04-18T10:23:24.112Z</time></trkpt><trkpt lat="43.767263173742535" lon="10.889569259910651"><ele>88.5</ele><time>2026-04-18T10:23:26.112Z</time></trkpt><trkpt lat="43.767155856799754" lon="10.889514997021816"><ele>89.75</ele><time>2026-04-18T10:23:28.112Z</time></trkpt><trkpt lat="43.767046860991705" lon="10.889461038910856"><ele>91.0</ele><time>2026-04-18T10:23:30.112Z</time></trkpt><trkpt lat="43.76693959734358" lon="10.889408496835951"><ele>91.5</ele><time>2026-04-18T10:23:32.112Z</time></trkpt><trkpt lat="43.76683252960907" lon="10.889359340076869"><ele>92.0</ele><time>2026-04-18T10:23:34.112Z</time></trkpt><trkpt lat="43.7667277908198" lon="10.88930467202359"><ele>92.5</ele><time>2026-04-18T10:23:36.112Z</time></trkpt><trkpt lat="43.766619671586994" lon="10.889249006498979"><ele>93.0</ele><time>2026-04-18T10:23:38.112Z</time></trkpt><trkpt lat="43.766513790713226" lon="10.889202676653456"><ele>93.0</ele><time>2026-04-18T10:23:40.112Z</time></trkpt><trkpt lat="43.76640322683717" lon="10.88914782148973"><ele>93.0</ele><time>2026-04-18T10:23:42.112Z</time></trkpt><trkpt lat="43.76629178045903" lon="10.889095605528626"><ele>93.0</ele><time>2026-04-18T10:23:44.112Z</time></trkpt><trkpt lat="43.76617886140214" lon="10.889037216489681"><ele>93.0</ele><time>2026-04-18T10:23:46.112Z</time></trkpt><trkpt lat="43.766067908423494" lon="10.888981740746077"><ele>93.0</ele><time>2026-04-18T10:23:48.112Z</time></trkpt><trkpt lat="43.765960950934" lon="10.888919879315191"><ele>93.0</ele><time>2026-04-18T10:23:50.112Z</time></trkpt><trkpt lat="43.76585618747547" lon="10.888851450069915"><ele>93.0</ele><time>2026-04-18T10:23:52.112Z</time></trkpt><trkpt lat="43.76575056661888" lon="10.888776298785658"><ele>93.0</ele><time>2026-04-18T10:23:54.112Z</time></trkpt><trkpt lat="43.76565031230725" lon="10.888694342084346"><ele>93.0</ele><time>2026-04-18T10:23:56.112Z</time></trkpt><trkpt lat="43.765553375481716" lon="10.888605147696682"><ele>93.0</ele><time>2026-04-18T10:23:58.112Z</time></trkpt><trkpt lat="43.765458955238586" lon="10.88850741676321"><ele>93.0</ele><time>2026-04-18T10:24:00.112Z</time></trkpt><trkpt lat="43.76536981498822" lon="10.888403531920455"><ele>93.0</ele><time>2026-04-18T10:24:02.112Z</time></trkpt><trkpt lat="43.765286420705365" lon="10.888293478323583"><ele>93.0</ele><time>2026-04-18T10:24:04.112Z</time></trkpt><trkpt lat="43.76520753617429" lon="10.888177136010073"><ele>93.0</ele><time>2026-04-18T10:24:06.112Z</time></trkpt><trkpt lat="43.76513732849367" lon="10.888055099164715"><ele>93.0</ele><time>2026-04-18T10:24:08.112Z</time></trkpt><trkpt lat="43.76507005186246" lon="10.8879234849429"><ele>93.0</ele><time>2026-04-18T10:24:10.112Z</time></trkpt><trkpt lat="43.7650107547316" lon="10.887788500922444"><ele>93.0</ele><time>2026-04-18T10:24:12.112Z</time></trkpt><trkpt lat="43.764950260397605" lon="10.887653264362864"><ele>93.0</ele><time>2026-04-18T10:24:14.112Z</time></trkpt><trkpt lat="43.76489004581239" lon="10.887513210811239"><ele>93.0</ele><time>2026-04-18T10:24:16.112Z</time></trkpt><trkpt lat="43.7648329476432" lon="10.887372106749844"><ele>93.0</ele><time>2026-04-18T10:24:18.112Z</time></trkpt><trkpt lat="43.764773196907036" lon="10.8872311533954"><ele>93.2</ele><time>2026-04-18T10:24:20.112Z</time></trkpt><trkpt lat="43.76471447466499" lon="10.887084381806208"><ele>93.4</ele><time>2026-04-18T10:24:22.11Z</time></trkpt><trkpt lat="43.76465701425253" lon="10.886937760502981"><ele>93.60000000000001</ele><time>2026-04-18T10:24:24.11Z</time></trkpt><trkpt lat="43.764591846824544" lon="10.886786597960334"><ele>93.80000000000001</ele><time>2026-04-18T10:24:26.11Z</time></trkpt><trkpt lat="43.764559708102944" lon="10.886711074597457"><ele>94.0</ele><time>2026-04-18T10:24:27.11Z</time></trkpt><trkpt lat="43.764525341852234" lon="10.88663612560813"><ele>93.57142857142857</ele><time>2026-04-18T10:24:28.11Z</time></trkpt><trkpt lat="43.76449244390265" lon="10.88656160973288"><ele>93.14285714285714</ele><time>2026-04-18T10:24:29.11Z</time></trkpt><trkpt lat="43.76446824374751" lon="10.886479988960911"><ele>92.71428571428572</ele><time>2026-04-18T10:24:30.11Z</time></trkpt><trkpt lat="43.764436101088535" lon="10.886400340672681"><ele>92.28571428571428</ele><time>2026-04-18T10:24:31.11Z</time></trkpt><trkpt lat="43.76440367142694" lon="10.88632205598289"><ele>91.85714285714286</ele><time>2026-04-18T10:24:32.11Z</time></trkpt><trkpt lat="43.764371380744834" lon="10.886243222424495"><ele>91.42857142857143</ele><time>2026-04-18T10:24:33.11Z</time></trkpt><trkpt lat="43.76433796533086" lon="10.886164046784275"><ele>91.0</ele><time>2026-04-18T10:24:34.11Z</time></trkpt><trkpt lat="43.76430479588703" lon="10.886084998114132"><ele>91.0</ele><time>2026-04-18T10:24:35.11Z</time></trkpt><trkpt lat="43.76427202687008" lon="10.88600480647803"><ele>91.0</ele><time>2026-04-18T10:24:36.11Z</time></trkpt><trkpt lat="43.764238467376565" lon="10.885925844358242"><ele>91.0</ele><time>2026-04-18T10:24:37.11Z</time></trkpt><trkpt lat="43.764202263223126" lon="10.88584821052133"><ele>91.0</ele><time>2026-04-18T10:24:38.11Z</time></trkpt><trkpt lat="43.764171124522576" lon="10.885769151625613"><ele>91.0</ele><time>2026-04-18T10:24:39.11Z</time></trkpt><trkpt lat="43.76413866636227" lon="10.88568911698832"><ele>91.0</ele><time>2026-04-18T10:24:40.11Z</time></trkpt><trkpt lat="43.76410544518833" lon="10.885609150475876"><ele>91.0</ele><time>2026-04-18T10:24:41.11Z</time></trkpt><trkpt lat="43.76407177184978" lon="10.885529340984949"><ele>91.14285714285714</ele><time>2026-04-18T10:24:42.11Z</time></trkpt><trkpt lat="43.76404028301276" lon="10.885448194564763"><ele>91.28571428571428</ele><time>2026-04-18T10:24:43.11Z</time></trkpt><trkpt lat="43.76400778239593" lon="10.885364722593739"><ele>91.42857142857143</ele><time>2026-04-18T10:24:44.11Z</time></trkpt><trkpt lat="43.763973321972294" lon="10.885283166419171"><ele>91.57142857142857</ele><time>2026-04-18T10:24:45.11Z</time></trkpt><trkpt lat="43.763939797992684" lon="10.88520392687746"><ele>91.71428571428571</ele><time>2026-04-18T10:24:46.11Z</time></trkpt><trkpt lat="43.76390718197283" lon="10.885124163003274"><ele>91.85714285714286</ele><time>2026-04-18T10:24:47.11Z</time></trkpt><trkpt lat="43.76387222139541" lon="10.885044639678796"><ele>92.0</ele><time>2026-04-18T10:24:48.11Z</time></trkpt><trkpt lat="43.763839690021285" lon="10.884965309723555"><ele>92.85714285714286</ele><time>2026-04-18T10:24:49.11Z</time></trkpt><trkpt lat="43.76380534052953" lon="10.88488628856411"><ele>93.71428571428571</ele><time>2026-04-18T10:24:50.11Z</time></trkpt><trkpt lat="43.763772121377286" lon="10.884805173735792"><ele>94.57142857142857</ele><time>2026-04-18T10:24:51.11Z</time></trkpt><trkpt lat="43.7637363931761" lon="10.884723971063254"><ele>95.42857142857143</ele><time>2026-04-18T10:24:52.11Z</time></trkpt><trkpt lat="43.76370328391309" lon="10.884642491225978"><ele>96.28571428571428</ele><time>2026-04-18T10:24:53.11Z</time></trkpt><trkpt lat="43.76366909365832" lon="10.884562911941607"><ele>97.14285714285714</ele><time>2026-04-18T10:24:54.11Z</time></trkpt><trkpt lat="43.763637344635804" lon="10.88448355194641"><ele>98.0</ele><time>2026-04-18T10:24:55.11Z</time></trkpt><trkpt lat="43.76360316180751" lon="10.88439968870743"><ele>97.99999999999999</ele><time>2026-04-18T10:24:56.11Z</time></trkpt><trkpt lat="43.76356599409942" lon="10.884323527895177"><ele>98.0</ele><time>2026-04-18T10:24:57.11Z</time></trkpt><trkpt lat="43.76353038189661" lon="10.884248080398018"><ele>98.0</ele><time>2026-04-18T10:24:58.11Z</time></trkpt><trkpt lat="43.763462271829106" lon="10.884089549904788"><ele>98.0</ele><time>2026-04-18T10:25:00.11Z</time></trkpt><trkpt lat="43.76341505046876" lon="10.884019952832821"><ele>97.99999999999999</ele><time>2026-04-18T10:25:01.11Z</time></trkpt><trkpt lat="43.76336982158296" lon="10.883949814989945"><ele>98.0</ele><time>2026-04-18T10:25:02.11Z</time></trkpt><trkpt lat="43.76332344511085" lon="10.883877921928633"><ele>97.28571428571429</ele><time>2026-04-18T10:25:03.11Z</time></trkpt><trkpt lat="43.76327682132369" lon="10.883806787835107"><ele>96.57142857142857</ele><time>2026-04-18T10:25:04.11Z</time></trkpt><trkpt lat="43.763227149926166" lon="10.883735539209813"><ele>95.85714285714286</ele><time>2026-04-18T10:25:05.11Z</time></trkpt><trkpt lat="43.76317329981854" lon="10.883662030677975"><ele>95.14285714285714</ele><time>2026-04-18T10:25:06.11Z</time></trkpt><trkpt lat="43.76312145778028" lon="10.883591685845039"><ele>94.42857142857143</ele><time>2026-04-18T10:25:07.11Z</time></trkpt><trkpt lat="43.763066034305815" lon="10.883519623024785"><ele>93.71428571428572</ele><time>2026-04-18T10:25:08.11Z</time></trkpt><trkpt lat="43.76300830648156" lon="10.883444960326914"><ele>93.0</ele><time>2026-04-18T10:25:09.11Z</time></trkpt><trkpt lat="43.762951534032" lon="10.883367357592151"><ele>92.5</ele><time>2026-04-18T10:25:10.11Z</time></trkpt><trkpt lat="43.7628955106425" lon="10.883292663344346"><ele>92.0</ele><time>2026-04-18T10:25:11.11Z</time></trkpt><trkpt lat="43.76283879266317" lon="10.88321937743917"><ele>91.5</ele><time>2026-04-18T10:25:12.11Z</time></trkpt><trkpt lat="43.7627800708035" lon="10.883140635224043"><ele>91.0</ele><time>2026-04-18T10:25:13.11Z</time></trkpt><trkpt lat="43.76271983659958" lon="10.883054805246697"><ele>90.5</ele><time>2026-04-18T10:25:14.11Z</time></trkpt><trkpt lat="43.76266103445663" lon="10.882980821896608"><ele>90.0</ele><time>2026-04-18T10:25:15.11Z</time></trkpt><trkpt lat="43.76259699018508" lon="10.882901822667144"><ele>90.0</ele><time>2026-04-18T10:25:16.11Z</time></trkpt><trkpt lat="43.762537690392065" lon="10.882826161603672"><ele>90.0</ele><time>2026-04-18T10:25:17.11Z</time></trkpt><trkpt lat="43.76247754272657" lon="10.882744902089799"><ele>90.0</ele><time>2026-04-18T10:25:18.11Z</time></trkpt><trkpt lat="43.76241974940311" lon="10.882667761047808"><ele>90.0</ele><time>2026-04-18T10:25:19.11Z</time></trkpt><trkpt lat="43.7623603918566" lon="10.882588690040373"><ele>90.0</ele><time>2026-04-18T10:25:20.11Z</time></trkpt><trkpt lat="43.76230195979619" lon="10.882513086801078"><ele>90.0</ele><time>2026-04-18T10:25:21.11Z</time></trkpt><trkpt lat="43.762239570959004" lon="10.88243229662083"><ele>90.0</ele><time>2026-04-18T10:25:22.11Z</time></trkpt><trkpt lat="43.762181019343814" lon="10.882357120433724"><ele>90.0</ele><time>2026-04-18T10:25:23.11Z</time></trkpt><trkpt lat="43.76212633155734" lon="10.882268057938441"><ele>90.0</ele><time>2026-04-18T10:25:24.11Z</time></trkpt><trkpt lat="43.76207011345223" lon="10.882188616124939"><ele>90.0</ele><time>2026-04-18T10:25:25.11Z</time></trkpt><trkpt lat="43.76201113304998" lon="10.882105471648249"><ele>90.0</ele><time>2026-04-18T10:25:26.11Z</time></trkpt><trkpt lat="43.76195508926109" lon="10.882030004388557"><ele>90.0</ele><time>2026-04-18T10:25:27.11Z</time></trkpt><trkpt lat="43.76189939252064" lon="10.881951385208287"><ele>89.5</ele><time>2026-04-18T10:25:28.11Z</time></trkpt><trkpt lat="43.761840979435135" lon="10.881870183453474"><ele>89.0</ele><time>2026-04-18T10:25:29.11Z</time></trkpt><trkpt lat="43.761784791550525" lon="10.881793527537598"><ele>88.5</ele><time>2026-04-18T10:25:30.11Z</time></trkpt><trkpt lat="43.76173073489012" lon="10.881718706704783"><ele>88.0</ele><time>2026-04-18T10:25:31.11Z</time></trkpt><trkpt lat="43.76167520669237" lon="10.881648946428653"><ele>87.5</ele><time>2026-04-18T10:25:32.11Z</time></trkpt><trkpt lat="43.76162372932441" lon="10.881575460825909"><ele>87.0</ele><time>2026-04-18T10:25:33.11Z</time></trkpt><trkpt lat="43.7615700916789" lon="10.881502171199486"><ele>87.0</ele><time>2026-04-18T10:25:34.11Z</time></trkpt><trkpt lat="43.761517728831116" lon="10.881435357498978"><ele>87.0</ele><time>2026-04-18T10:25:35.11Z</time></trkpt><trkpt lat="43.76146449942938" lon="10.881372128235308"><ele>87.0</ele><time>2026-04-18T10:25:36.11Z</time></trkpt><trkpt lat="43.76141542684605" lon="10.881313558713261"><ele>87.0</ele><time>2026-04-18T10:25:37.11Z</time></trkpt><trkpt lat="43.76136312398722" lon="10.881260345466547"><ele>87.0</ele><time>2026-04-18T10:25:38.11Z</time></trkpt><trkpt lat="43.761260536108296" lon="10.881158711059564"><ele>87.0</ele><time>2026-04-18T10:25:40.11Z</time></trkpt><trkpt lat="43.76120497250594" lon="10.881115993134342"><ele>87.0</ele><time>2026-04-18T10:25:41.11Z</time></trkpt><trkpt lat="43.761103746867896" lon="10.88103289846334"><ele>87.0</ele><time>2026-04-18T10:25:43.11Z</time></trkpt><trkpt lat="43.76100186918559" lon="10.880955432705704"><ele>87.0</ele><time>2026-04-18T10:25:45.11Z</time></trkpt><trkpt lat="43.7609039341754" lon="10.880878492211618"><ele>87.0</ele><time>2026-04-18T10:25:47.11Z</time></trkpt><trkpt lat="43.76080585858878" lon="10.88080711766182"><ele>88.19999999999999</ele><time>2026-04-18T10:25:49.11Z</time></trkpt><trkpt lat="43.7607083593919" lon="10.88073528517408"><ele>89.4</ele><time>2026-04-18T10:25:51.11Z</time></trkpt><trkpt lat="43.76061284416813" lon="10.880669744339967"><ele>90.6</ele><time>2026-04-18T10:25:53.11Z</time></trkpt><trkpt lat="43.76052545751102" lon="10.880603406823933"><ele>91.80000000000001</ele><time>2026-04-18T10:25:55.11Z</time></trkpt><trkpt lat="43.76044564633423" lon="10.880545316895459"><ele>93.0</ele><time>2026-04-18T10:25:57.11Z</time></trkpt><trkpt lat="43.76036886344362" lon="10.880494132773052"><ele>93.0</ele><time>2026-04-18T10:25:59.11Z</time></trkpt><trkpt lat="43.7602940899383" lon="10.880445950415753"><ele>93.0</ele><time>2026-04-18T10:26:01.11Z</time></trkpt><trkpt lat="43.76021365768455" lon="10.880393537097138"><ele>93.0</ele><time>2026-04-18T10:26:03.11Z</time></trkpt><trkpt lat="43.76014381057637" lon="10.880344534858578"><ele>93.0</ele><time>2026-04-18T10:26:05.11Z</time></trkpt><trkpt lat="43.76006629129197" lon="10.880300214113221"><ele>93.0</ele><time>2026-04-18T10:26:07.11Z</time></trkpt><trkpt lat="43.76000269376463" lon="10.880252498109316"><ele>93.0</ele><time>2026-04-18T10:26:09.11Z</time></trkpt><trkpt lat="43.75993936315574" lon="10.880219022645113"><ele>94.0</ele><time>2026-04-18T10:26:11.11Z</time></trkpt><trkpt lat="43.759866417450674" lon="10.88017590898659"><ele>95.0</ele><time>2026-04-18T10:26:14.11Z</time></trkpt><trkpt lat="43.759799082380084" lon="10.880133402239178"><ele>96.0</ele><time>2026-04-18T10:26:19.11Z</time></trkpt><trkpt lat="43.759734007339354" lon="10.880218740019114"><ele>97.0</ele><time>2026-04-18T10:26:21.11Z</time></trkpt><trkpt lat="43.75967885951162" lon="10.880294743633096"><ele>98.0</ele><time>2026-04-18T10:26:23.11Z</time></trkpt><trkpt lat="43.759611768454356" lon="10.880370277049261"><ele>99.0</ele><time>2026-04-18T10:26:25.11Z</time></trkpt><trkpt lat="43.75954338732518" lon="10.880442154273943"><ele>99.0</ele><time>2026-04-18T10:26:27.108Z</time></trkpt><trkpt lat="43.75947597004193" lon="10.880513251490681"><ele>99.0</ele><time>2026-04-18T10:26:29.108Z</time></trkpt><trkpt lat="43.75940883990454" lon="10.88058656197158"><ele>99.0</ele><time>2026-04-18T10:26:31.108Z</time></trkpt><trkpt lat="43.759341034407505" lon="10.880654575834779"><ele>99.0</ele><time>2026-04-18T10:26:33.108Z</time></trkpt><trkpt lat="43.75927718191187" lon="10.88072605715597"><ele>99.0</ele><time>2026-04-18T10:26:35.108Z</time></trkpt><trkpt lat="43.75921429029617" lon="10.88079369973662"><ele>99.0</ele><time>2026-04-18T10:26:37.108Z</time></trkpt><trkpt lat="43.75914613000573" lon="10.880855035744"><ele>99.5</ele><time>2026-04-18T10:26:39.108Z</time></trkpt><trkpt lat="43.75907928582547" lon="10.880922572471246"><ele>100.0</ele><time>2026-04-18T10:26:41.108Z</time></trkpt><trkpt lat="43.75900632021882" lon="10.88097886171368"><ele>100.5</ele><time>2026-04-18T10:26:43.108Z</time></trkpt><trkpt lat="43.75893481041319" lon="10.881025594468428"><ele>101.0</ele><time>2026-04-18T10:26:45.108Z</time></trkpt><trkpt lat="43.75886005006524" lon="10.881066265565055"><ele>101.5</ele><time>2026-04-18T10:26:47.108Z</time></trkpt><trkpt lat="43.75878554389367" lon="10.881109154461134"><ele>102.0</ele><time>2026-04-18T10:26:49.108Z</time></trkpt><trkpt lat="43.75871106824836" lon="10.881137516893954"><ele>102.0</ele><time>2026-04-18T10:26:51.108Z</time></trkpt><trkpt lat="43.75864352198289" lon="10.881178645641022"><ele>102.0</ele><time>2026-04-18T10:26:53.108Z</time></trkpt><trkpt lat="43.75857750324353" lon="10.88120720014551"><ele>102.0</ele><time>2026-04-18T10:26:55.108Z</time></trkpt><trkpt lat="43.758513148860914" lon="10.8812358920715"><ele>102.0</ele><time>2026-04-18T10:26:57.108Z</time></trkpt><trkpt lat="43.75842423945266" lon="10.88125244844916"><ele>102.0</ele><time>2026-04-18T10:27:00.108Z</time></trkpt><trkpt lat="43.75833694806865" lon="10.881264954773087"><ele>102.0</ele><time>2026-04-18T10:27:03.108Z</time></trkpt><trkpt lat="43.75825452104453" lon="10.88127771042984"><ele>103.16666666666667</ele><time>2026-04-18T10:27:06.108Z</time></trkpt><trkpt lat="43.758170583607075" lon="10.881271248467762"><ele>104.33333333333334</ele><time>2026-04-18T10:27:09.108Z</time></trkpt><trkpt lat="43.75814330089357" lon="10.881160590706745"><ele>105.5</ele><time>2026-04-18T10:27:12.108Z</time></trkpt><trkpt lat="43.75817054664979" lon="10.881079405213427"><ele>106.66666666666667</ele><time>2026-04-18T10:27:15.108Z</time></trkpt><trkpt lat="43.75822537322028" lon="10.881005960205698"><ele>107.83333333333334</ele><time>2026-04-18T10:27:19.108Z</time></trkpt><trkpt lat="43.75823799315745" lon="10.881096353793126"><ele>109.0</ele><time>2026-04-18T10:27:34.108Z</time></trkpt><trkpt lat="43.75815876589072" lon="10.881113932944869"><ele>109.00000000000001</ele><time>2026-04-18T10:27:38.108Z</time></trkpt><trkpt lat="43.75808676930949" lon="10.881153536225083"><ele>109.0</ele><time>2026-04-18T10:27:43.108Z</time></trkpt><trkpt lat="43.75804453326802" lon="10.88121826894588"><ele>109.0</ele><time>2026-04-18T10:27:46.108Z</time></trkpt><trkpt lat="43.75799231939266" lon="10.881267124267382"><ele>109.0</ele><time>2026-04-18T10:27:48.108Z</time></trkpt><trkpt lat="43.757930056713036" lon="10.881341086540417"><ele>109.00000000000001</ele><time>2026-04-18T10:27:50.108Z</time></trkpt><trkpt lat="43.75785332661762" lon="10.881436495407216"><ele>109.0</ele><time>2026-04-18T10:27:52.108Z</time></trkpt><trkpt lat="43.75776414848433" lon="10.881558867877569"><ele>109.00000000000001</ele><time>2026-04-18T10:27:54.108Z</time></trkpt><trkpt lat="43.75771024156536" lon="10.881622066651081"><ele>109.0</ele><time>2026-04-18T10:27:55.108Z</time></trkpt><trkpt lat="43.757652649553954" lon="10.881688698498735"><ele>109.0</ele><time>2026-04-18T10:27:56.108Z</time></trkpt><trkpt lat="43.757587761320025" lon="10.881751692773848"><ele>109.0</ele><time>2026-04-18T10:27:57.108Z</time></trkpt><trkpt lat="43.75751291529187" lon="10.8818070656556"><ele>109.00000000000001</ele><time>2026-04-18T10:27:58.108Z</time></trkpt><trkpt lat="43.75743633014666" lon="10.88187537403535"><ele>109.0</ele><time>2026-04-18T10:27:59.108Z</time></trkpt><trkpt lat="43.75736067954317" lon="10.881946506960425"><ele>108.4</ele><time>2026-04-18T10:28:00.108Z</time></trkpt><trkpt lat="43.75728174296743" lon="10.882017143310083"><ele>107.80000000000001</ele><time>2026-04-18T10:28:01.108Z</time></trkpt><trkpt lat="43.75719592477502" lon="10.88209180708401"><ele>107.19999999999999</ele><time>2026-04-18T10:28:02.108Z</time></trkpt><trkpt lat="43.757111477498086" lon="10.88216991946722"><ele>106.6</ele><time>2026-04-18T10:28:03.108Z</time></trkpt><trkpt lat="43.75702456439155" lon="10.88225068356393"><ele>106.0</ele><time>2026-04-18T10:28:04.108Z</time></trkpt><trkpt lat="43.75693495676405" lon="10.882328740033234"><ele>104.0</ele><time>2026-04-18T10:28:05.108Z</time></trkpt><trkpt lat="43.7568459365505" lon="10.882409096217318"><ele>102.0</ele><time>2026-04-18T10:28:06.108Z</time></trkpt><trkpt lat="43.75675552991111" lon="10.882487863361941"><ele>100.0</ele><time>2026-04-18T10:28:07.108Z</time></trkpt><trkpt lat="43.7566590061327" lon="10.882556017045731"><ele>98.0</ele><time>2026-04-18T10:28:08.108Z</time></trkpt><trkpt lat="43.75655809864326" lon="10.882611264750027"><ele>96.0</ele><time>2026-04-18T10:28:09.108Z</time></trkpt><trkpt lat="43.75645698551195" lon="10.882661141362597"><ele>95.0</ele><time>2026-04-18T10:28:10.108Z</time></trkpt><trkpt lat="43.75635513103081" lon="10.882704387231819"><ele>94.0</ele><time>2026-04-18T10:28:11.108Z</time></trkpt><trkpt lat="43.756252601751996" lon="10.882731557178712"><ele>93.0</ele><time>2026-04-18T10:28:12.108Z</time></trkpt><trkpt lat="43.75614871358195" lon="10.88275057900332"><ele>92.0</ele><time>2026-04-18T10:28:13.108Z</time></trkpt><trkpt lat="43.75604380525379" lon="10.882764775243702"><ele>91.0</ele><time>2026-04-18T10:28:14.108Z</time></trkpt><trkpt lat="43.75593685313709" lon="10.8827698231745"><ele>91.0</ele><time>2026-04-18T10:28:15.108Z</time></trkpt><trkpt lat="43.75583084407354" lon="10.882774377360553"><ele>91.0</ele><time>2026-04-18T10:28:16.108Z</time></trkpt><trkpt lat="43.75572048944674" lon="10.882779680900432"><ele>91.0</ele><time>2026-04-18T10:28:17.108Z</time></trkpt><trkpt lat="43.755608036875905" lon="10.882769486018363"><ele>91.0</ele><time>2026-04-18T10:28:18.108Z</time></trkpt><trkpt lat="43.75550109024769" lon="10.882732386466175"><ele>91.0</ele><time>2026-04-18T10:28:19.108Z</time></trkpt><trkpt lat="43.75539306241231" lon="10.882688514642842"><ele>91.0</ele><time>2026-04-18T10:28:20.108Z</time></trkpt><trkpt lat="43.75529068337495" lon="10.882632747592535"><ele>91.0</ele><time>2026-04-18T10:28:21.108Z</time></trkpt><trkpt lat="43.75518880333554" lon="10.882544492300477"><ele>91.0</ele><time>2026-04-18T10:28:22.108Z</time></trkpt><trkpt lat="43.755094131636646" lon="10.882455351308334"><ele>91.0</ele><time>2026-04-18T10:28:23.108Z</time></trkpt><trkpt lat="43.75500032051956" lon="10.88237376551306"><ele>90.0</ele><time>2026-04-18T10:28:24.108Z</time></trkpt><trkpt lat="43.754906231139664" lon="10.882296039329162"><ele>89.0</ele><time>2026-04-18T10:28:25.108Z</time></trkpt><trkpt lat="43.75481327434282" lon="10.882227222625804"><ele>88.0</ele><time>2026-04-18T10:28:26.108Z</time></trkpt><trkpt lat="43.75471857321721" lon="10.882171436099371"><ele>87.0</ele><time>2026-04-18T10:28:27.108Z</time></trkpt><trkpt lat="43.7546239258917" lon="10.8821216179907"><ele>86.0</ele><time>2026-04-18T10:28:28.108Z</time></trkpt><trkpt lat="43.75452969082649" lon="10.88208460648345"><ele>86.0</ele><time>2026-04-18T10:28:29.108Z</time></trkpt><trkpt lat="43.75443713811407" lon="10.882056126406741"><ele>86.0</ele><time>2026-04-18T10:28:30.108Z</time></trkpt><trkpt lat="43.75434750094341" lon="10.882035426928859"><ele>86.0</ele><time>2026-04-18T10:28:31.108Z</time></trkpt><trkpt lat="43.75425557141339" lon="10.882030698313965"><ele>86.0</ele><time>2026-04-18T10:28:32.108Z</time></trkpt><trkpt lat="43.75417201652328" lon="10.882027821136981"><ele>86.0</ele><time>2026-04-18T10:28:33.106Z</time></trkpt><trkpt lat="43.75409737627139" lon="10.88202772070916"><ele>86.0</ele><time>2026-04-18T10:28:34.106Z</time></trkpt><trkpt lat="43.75402120886861" lon="10.88202585126951"><ele>85.66666666666667</ele><time>2026-04-18T10:28:35.106Z</time></trkpt><trkpt lat="43.75394964720008" lon="10.882025432101011"><ele>85.33333333333334</ele><time>2026-04-18T10:28:36.106Z</time></trkpt><trkpt lat="43.75388474169274" lon="10.882020692279642"><ele>85.0</ele><time>2026-04-18T10:28:37.106Z</time></trkpt><trkpt lat="43.75382117354439" lon="10.882020416868915"><ele>84.66666666666667</ele><time>2026-04-18T10:28:38.106Z</time></trkpt><trkpt lat="43.7537006977951" lon="10.882019882174113"><ele>84.33333333333333</ele><time>2026-04-18T10:28:40.106Z</time></trkpt><trkpt lat="43.75358935526916" lon="10.882013501221698"><ele>84.0</ele><time>2026-04-18T10:28:42.106Z</time></trkpt><trkpt lat="43.7534871338775" lon="10.882005821041108"><ele>83.83333333333333</ele><time>2026-04-18T10:28:44.106Z</time></trkpt><trkpt lat="43.75338894759842" lon="10.882005638073316"><ele>83.66666666666667</ele><time>2026-04-18T10:28:46.106Z</time></trkpt><trkpt lat="43.753299129987006" lon="10.882006200879616"><ele>83.5</ele><time>2026-04-18T10:28:48.106Z</time></trkpt><trkpt lat="43.753213543487" lon="10.882003596204466"><ele>83.33333333333334</ele><time>2026-04-18T10:28:50.106Z</time></trkpt><trkpt lat="43.753130841983946" lon="10.882002641477943"><ele>83.16666666666667</ele><time>2026-04-18T10:28:52.106Z</time></trkpt><trkpt lat="43.75305004399397" lon="10.88200202344674"><ele>83.0</ele><time>2026-04-18T10:28:54.106Z</time></trkpt><trkpt lat="43.752971982154094" lon="10.881999564429638"><ele>83.0</ele><time>2026-04-18T10:28:56.106Z</time></trkpt><trkpt lat="43.75290801603471" lon="10.88200922623814"><ele>83.0</ele><time>2026-04-18T10:28:58.106Z</time></trkpt><trkpt lat="43.75284172713129" lon="10.8820011665515"><ele>83.0</ele><time>2026-04-18T10:29:00.106Z</time></trkpt><trkpt lat="43.752776414545366" lon="10.882006994695086"><ele>83.0</ele><time>2026-04-18T10:29:02.106Z</time></trkpt><trkpt lat="43.75271114521724" lon="10.88203572708995"><ele>83.0</ele><time>2026-04-18T10:29:04.106Z</time></trkpt><trkpt lat="43.75264154710353" lon="10.882024301843702"><ele>83.0</ele><time>2026-04-18T10:29:06.106Z</time></trkpt><trkpt lat="43.7525838308217" lon="10.88206081818651"><ele>83.0</ele><time>2026-04-18T10:29:08.106Z</time></trkpt><trkpt lat="43.75252568168869" lon="10.88209731707975"><ele>84.33333333333334</ele><time>2026-04-18T10:29:10.106Z</time></trkpt><trkpt lat="43.75246554709735" lon="10.882127254231122"><ele>85.66666666666667</ele><time>2026-04-18T10:29:12.106Z</time></trkpt><trkpt lat="43.752379475028945" lon="10.882153772406364"><ele>87.0</ele><time>2026-04-18T10:29:15.106Z</time></trkpt><trkpt lat="43.75229924516915" lon="10.882182883717372"><ele>88.33333333333333</ele><time>2026-04-18T10:29:18.106Z</time></trkpt><trkpt lat="43.752221247600815" lon="10.88221054522165"><ele>89.66666666666666</ele><time>2026-04-18T10:29:21.106Z</time></trkpt><trkpt lat="43.752151783958396" lon="10.882243128286959"><ele>91.0</ele><time>2026-04-18T10:29:24.106Z</time></trkpt><trkpt lat="43.75208938794169" lon="10.882275524734139"><ele>91.0</ele><time>2026-04-18T10:29:27.106Z</time></trkpt><trkpt lat="43.75202034752157" lon="10.882302828455854"><ele>91.0</ele><time>2026-04-18T10:29:30.106Z</time></trkpt><trkpt lat="43.75195503451444" lon="10.882324068730885"><ele>91.0</ele><time>2026-04-18T10:29:33.106Z</time></trkpt><trkpt lat="43.75188863355186" lon="10.882348024260345"><ele>91.0</ele><time>2026-04-18T10:29:36.106Z</time></trkpt><trkpt lat="43.75182324132254" lon="10.882363748518706"><ele>91.0</ele><time>2026-04-18T10:29:39.106Z</time></trkpt><trkpt lat="43.75175804146241" lon="10.882383906604641"><ele>91.0</ele><time>2026-04-18T10:29:42.106Z</time></trkpt><trkpt lat="43.75167504283138" lon="10.882415439619285"><ele>91.0</ele><time>2026-04-18T10:29:46.106Z</time></trkpt><trkpt lat="43.75159860662032" lon="10.88243630624477"><ele>92.66666666666666</ele><time>2026-04-18T10:29:50.106Z</time></trkpt><trkpt lat="43.75152093213381" lon="10.882459651857278"><ele>94.33333333333333</ele><time>2026-04-18T10:29:54.106Z</time></trkpt><trkpt lat="43.75143897829018" lon="10.882475824155604"><ele>96.0</ele><time>2026-04-18T10:29:58.106Z</time></trkpt><trkpt lat="43.751356980747964" lon="10.882499586817666"><ele>97.66666666666666</ele><time>2026-04-18T10:30:02.106Z</time></trkpt><trkpt lat="43.751294856474125" lon="10.882519356057369"><ele>99.33333333333333</ele><time>2026-04-18T10:30:05.106Z</time></trkpt><trkpt lat="43.75121726686491" lon="10.882538373896983"><ele>101.0</ele><time>2026-04-18T10:30:09.106Z</time></trkpt><trkpt lat="43.751155240051354" lon="10.882560321192853"><ele>100.99999999999999</ele><time>2026-04-18T10:30:12.106Z</time></trkpt><trkpt lat="43.75107564905031" lon="10.88258577930819"><ele>101.0</ele><time>2026-04-18T10:30:16.106Z</time></trkpt><trkpt lat="43.75099361036118" lon="10.882604331963849"><ele>101.0</ele><time>2026-04-18T10:30:20.106Z</time></trkpt><trkpt lat="43.7509143929952" lon="10.882628699558316"><ele>101.0</ele><time>2026-04-18T10:30:24.106Z</time></trkpt><trkpt lat="43.750843065625325" lon="10.882649553831548"><ele>100.99999999999999</ele><time>2026-04-18T10:30:28.106Z</time></trkpt><trkpt lat="43.750769406703" lon="10.882636261166333"><ele>101.0</ele><time>2026-04-18T10:30:33.106Z</time></trkpt><trkpt lat="43.750702877003704" lon="10.882594911047994"><ele>101.85714285714286</ele><time>2026-04-18T10:30:38.106Z</time></trkpt><trkpt lat="43.75068144523121" lon="10.882681736895446"><ele>102.71428571428571</ele><time>2026-04-18T10:30:41.104Z</time></trkpt><trkpt lat="43.75075609216394" lon="10.882717990253655"><ele>103.57142857142858</ele><time>2026-04-18T10:30:45.104Z</time></trkpt><trkpt lat="43.75081413857685" lon="10.882666942280483"><ele>104.42857142857143</ele><time>2026-04-18T10:30:52.104Z</time></trkpt><trkpt lat="43.7507457598351" lon="10.882613743122752"><ele>105.28571428571429</ele><time>2026-04-18T10:30:56.104Z</time></trkpt><trkpt lat="43.75067986299426" lon="10.882563846556488"><ele>106.14285714285715</ele><time>2026-04-18T10:30:59.104Z</time></trkpt><trkpt lat="43.75065136194564" lon="10.882465491497934"><ele>107.0</ele><time>2026-04-18T10:31:02.104Z</time></trkpt><trkpt lat="43.75059278848529" lon="10.882361640515553"><ele>107.0</ele><time>2026-04-18T10:31:05.104Z</time></trkpt><trkpt lat="43.75054787638499" lon="10.882246857003555"><ele>106.99999999999999</ele><time>2026-04-18T10:31:07.104Z</time></trkpt><trkpt lat="43.75048506255734" lon="10.88213391442879"><ele>106.99999999999999</ele><time>2026-04-18T10:31:09.104Z</time></trkpt><trkpt lat="43.750413230189885" lon="10.882006788528315"><ele>107.0</ele><time>2026-04-18T10:31:11.104Z</time></trkpt><trkpt lat="43.750338449512846" lon="10.88187071542948"><ele>107.0</ele><time>2026-04-18T10:31:13.104Z</time></trkpt><trkpt lat="43.75029476235828" lon="10.881802012371978"><ele>105.83333333333333</ele><time>2026-04-18T10:31:14.104Z</time></trkpt><trkpt lat="43.750248658522466" lon="10.88173602630495"><ele>104.66666666666666</ele><time>2026-04-18T10:31:15.104Z</time></trkpt><trkpt lat="43.750204540618306" lon="10.88167193744327"><ele>103.5</ele><time>2026-04-18T10:31:16.104Z</time></trkpt><trkpt lat="43.750126416047955" lon="10.881554164494823"><ele>102.33333333333334</ele><time>2026-04-18T10:31:18.104Z</time></trkpt><trkpt lat="43.750052043517" lon="10.881421376773389"><ele>101.16666666666667</ele><time>2026-04-18T10:31:20.104Z</time></trkpt><trkpt lat="43.750018758470006" lon="10.881345892473929"><ele>100.0</ele><time>2026-04-18T10:31:21.104Z</time></trkpt><trkpt lat="43.749965921447405" lon="10.881186714931838"><ele>100.00000000000001</ele><time>2026-04-18T10:31:23.104Z</time></trkpt><trkpt lat="43.749939379582585" lon="10.881098945730756"><ele>100.0</ele><time>2026-04-18T10:31:24.104Z</time></trkpt><trkpt lat="43.74992118398025" lon="10.881004924690597"><ele>100.0</ele><time>2026-04-18T10:31:25.104Z</time></trkpt><trkpt lat="43.749905583469165" lon="10.880908268347374"><ele>100.0</ele><time>2026-04-18T10:31:26.104Z</time></trkpt><trkpt lat="43.74988315618253" lon="10.88080673722183"><ele>100.0</ele><time>2026-04-18T10:31:27.104Z</time></trkpt><trkpt lat="43.7498555831822" lon="10.880710707427681"><ele>100.00000000000001</ele><time>2026-04-18T10:31:28.104Z</time></trkpt><trkpt lat="43.7498274858668" lon="10.880614509660118"><ele>100.0</ele><time>2026-04-18T10:31:29.104Z</time></trkpt><trkpt lat="43.749800340489315" lon="10.880519049679911"><ele>100.00000000000001</ele><time>2026-04-18T10:31:30.104Z</time></trkpt><trkpt lat="43.749768750013736" lon="10.88042977158932"><ele>100.0</ele><time>2026-04-18T10:31:31.104Z</time></trkpt><trkpt lat="43.74973922585921" lon="10.880334332486322"><ele>100.0</ele><time>2026-04-18T10:31:32.104Z</time></trkpt><trkpt lat="43.74971552081456" lon="10.880241615629918"><ele>100.0</ele><time>2026-04-18T10:31:33.104Z</time></trkpt><trkpt lat="43.749687524128205" lon="10.880151558276756"><ele>100.0</ele><time>2026-04-18T10:31:34.104Z</time></trkpt><trkpt lat="43.74966075179844" lon="10.880062389611252"><ele>100.00000000000001</ele><time>2026-04-18T10:31:35.104Z</time></trkpt><trkpt lat="43.74963222283578" lon="10.879977233549106"><ele>100.0</ele><time>2026-04-18T10:31:36.104Z</time></trkpt><trkpt lat="43.74960636837736" lon="10.879897240254317"><ele>100.00000000000001</ele><time>2026-04-18T10:31:37.104Z</time></trkpt><trkpt lat="43.749581411234054" lon="10.879815333986047"><ele>100.0</ele><time>2026-04-18T10:31:38.104Z</time></trkpt><trkpt lat="43.749534414387156" lon="10.87966055414565"><ele>100.0</ele><time>2026-04-18T10:31:40.104Z</time></trkpt><trkpt lat="43.74950558224247" lon="10.879579824204663"><ele>100.0</ele><time>2026-04-18T10:31:41.104Z</time></trkpt><trkpt lat="43.749483295161006" lon="10.879495231381133"><ele>100.00000000000001</ele><time>2026-04-18T10:31:42.104Z</time></trkpt><trkpt lat="43.74945884973052" lon="10.879413288606857"><ele>100.0</ele><time>2026-04-18T10:31:43.104Z</time></trkpt><trkpt lat="43.74939921665755" lon="10.879263172904698"><ele>99.75</ele><time>2026-04-18T10:31:45.104Z</time></trkpt><trkpt lat="43.74932199480066" lon="10.879122959632568"><ele>99.5</ele><time>2026-04-18T10:31:47.104Z</time></trkpt><trkpt lat="43.74924566073622" lon="10.879007133144317"><ele>99.25</ele><time>2026-04-18T10:31:49.104Z</time></trkpt><trkpt lat="43.74916210278738" lon="10.878900231201408"><ele>99.0</ele><time>2026-04-18T10:31:51.104Z</time></trkpt><trkpt lat="43.74907290182352" lon="10.878821768960403"><ele>99.0</ele><time>2026-04-18T10:31:53.104Z</time></trkpt><trkpt lat="43.74896849458356" lon="10.87877530211669"><ele>99.0</ele><time>2026-04-18T10:31:55.104Z</time></trkpt><trkpt lat="43.74886202990888" lon="10.878711678941478"><ele>99.0</ele><time>2026-04-18T10:31:57.104Z</time></trkpt><trkpt lat="43.748799556290685" lon="10.878685962951005"><ele>99.0</ele><time>2026-04-18T10:31:58.104Z</time></trkpt><trkpt lat="43.748732849862286" lon="10.87865983591162"><ele>99.0</ele><time>2026-04-18T10:31:59.104Z</time></trkpt><trkpt lat="43.748660165833606" lon="10.878631367627762"><ele>99.0</ele><time>2026-04-18T10:32:00.104Z</time></trkpt><trkpt lat="43.74859058942995" lon="10.878604116490598"><ele>98.0</ele><time>2026-04-18T10:32:01.104Z</time></trkpt><trkpt lat="43.74851234187325" lon="10.878573469103666"><ele>97.0</ele><time>2026-04-18T10:32:02.104Z</time></trkpt><trkpt lat="43.748443653835686" lon="10.878546565924422"><ele>96.0</ele><time>2026-04-18T10:32:03.104Z</time></trkpt><trkpt lat="43.74836714299909" lon="10.87851659877638"><ele>95.0</ele><time>2026-04-18T10:32:04.104Z</time></trkpt><trkpt lat="43.7482868772096" lon="10.878485160883208"><ele>94.0</ele><time>2026-04-18T10:32:05.104Z</time></trkpt><trkpt lat="43.74820196413398" lon="10.878451902818075"><ele>93.0</ele><time>2026-04-18T10:32:06.104Z</time></trkpt><trkpt lat="43.748117805622165" lon="10.878417981584914"><ele>93.0</ele><time>2026-04-18T10:32:07.104Z</time></trkpt><trkpt lat="43.74803258996906" lon="10.878383595240152"><ele>93.0</ele><time>2026-04-18T10:32:08.104Z</time></trkpt><trkpt lat="43.747944914500785" lon="10.878348216290133"><ele>93.0</ele><time>2026-04-18T10:32:09.104Z</time></trkpt><trkpt lat="43.7478621731733" lon="10.8783148283769"><ele>93.0</ele><time>2026-04-18T10:32:10.104Z</time></trkpt><trkpt lat="43.74777382680902" lon="10.878279149146202"><ele>93.0</ele><time>2026-04-18T10:32:11.104Z</time></trkpt><trkpt lat="43.74769348019295" lon="10.878246579728206"><ele>93.0</ele><time>2026-04-18T10:32:12.104Z</time></trkpt><trkpt lat="43.74761840697644" lon="10.878216147874873"><ele>92.33333333333333</ele><time>2026-04-18T10:32:13.104Z</time></trkpt><trkpt lat="43.74753651712515" lon="10.878203536705932"><ele>91.66666666666667</ele><time>2026-04-18T10:32:14.104Z</time></trkpt><trkpt lat="43.74745790466996" lon="10.878170965414315"><ele>91.0</ele><time>2026-04-18T10:32:15.104Z</time></trkpt><trkpt lat="43.747382491198934" lon="10.878138563480897"><ele>90.33333333333334</ele><time>2026-04-18T10:32:16.104Z</time></trkpt><trkpt lat="43.747308382801634" lon="10.878105917572944"><ele>89.66666666666667</ele><time>2026-04-18T10:32:17.104Z</time></trkpt><trkpt lat="43.74723476037426" lon="10.878074399951986"><ele>89.0</ele><time>2026-04-18T10:32:18.104Z</time></trkpt><trkpt lat="43.747161473845324" lon="10.878048117840976"><ele>89.0</ele><time>2026-04-18T10:32:19.104Z</time></trkpt><trkpt lat="43.74708533014042" lon="10.87799331403636"><ele>89.0</ele><time>2026-04-18T10:32:20.104Z</time></trkpt><trkpt lat="43.747012739025784" lon="10.877961885469064"><ele>89.0</ele><time>2026-04-18T10:32:21.104Z</time></trkpt><trkpt lat="43.746940347272584" lon="10.877955529185563"><ele>89.0</ele><time>2026-04-18T10:32:22.104Z</time></trkpt><trkpt lat="43.746867633986405" lon="10.877924282187484"><ele>89.0</ele><time>2026-04-18T10:32:23.104Z</time></trkpt><trkpt lat="43.74679608984666" lon="10.877891465948075"><ele>89.0</ele><time>2026-04-18T10:32:24.104Z</time></trkpt><trkpt lat="43.74673157366146" lon="10.877843931936575"><ele>88.42857142857142</ele><time>2026-04-18T10:32:25.104Z</time></trkpt><trkpt lat="43.746661180742336" lon="10.877814176887219"><ele>87.85714285714286</ele><time>2026-04-18T10:32:26.104Z</time></trkpt><trkpt lat="43.746591779066414" lon="10.877784840800913"><ele>87.28571428571428</ele><time>2026-04-18T10:32:27.104Z</time></trkpt><trkpt lat="43.74652474900608" lon="10.877756507339296"><ele>86.71428571428571</ele><time>2026-04-18T10:32:28.104Z</time></trkpt><trkpt lat="43.746457483630294" lon="10.877728074200647"><ele>86.14285714285714</ele><time>2026-04-18T10:32:29.104Z</time></trkpt><trkpt lat="43.746394905037846" lon="10.877701872987029"><ele>85.57142857142857</ele><time>2026-04-18T10:32:30.104Z</time></trkpt><trkpt lat="43.746332019749836" lon="10.877676387644284"><ele>85.0</ele><time>2026-04-18T10:32:31.104Z</time></trkpt><trkpt lat="43.74626798651614" lon="10.877650436852957"><ele>85.0</ele><time>2026-04-18T10:32:32.104Z</time></trkpt><trkpt lat="43.7461433017999" lon="10.877621936438866"><ele>85.0</ele><time>2026-04-18T10:32:34.104Z</time></trkpt><trkpt lat="43.74603597884442" lon="10.877579244714466"><ele>85.0</ele><time>2026-04-18T10:32:36.104Z</time></trkpt><trkpt lat="43.745937809137224" lon="10.877537840397121"><ele>85.0</ele><time>2026-04-18T10:32:38.104Z</time></trkpt><trkpt lat="43.7458340766701" lon="10.877471116897715"><ele>86.0</ele><time>2026-04-18T10:32:40.104Z</time></trkpt><trkpt lat="43.745710057587786" lon="10.877440751206699"><ele>87.0</ele><time>2026-04-18T10:32:42.104Z</time></trkpt><trkpt lat="43.74558990910929" lon="10.877377622550407"><ele>88.0</ele><time>2026-04-18T10:32:44.104Z</time></trkpt><trkpt lat="43.74552891474321" lon="10.877349107968739"><ele>89.0</ele><time>2026-04-18T10:32:45.102Z</time></trkpt><trkpt lat="43.74546738841265" lon="10.877325031931912"><ele>90.0</ele><time>2026-04-18T10:32:46.102Z</time></trkpt><trkpt lat="43.74540282702059" lon="10.87731052667961"><ele>91.0</ele><time>2026-04-18T10:32:47.102Z</time></trkpt><trkpt lat="43.745343538752515" lon="10.87726557098482"><ele>91.0</ele><time>2026-04-18T10:32:48.102Z</time></trkpt><trkpt lat="43.745280523823816" lon="10.877266594565832"><ele>91.0</ele><time>2026-04-18T10:32:49.102Z</time></trkpt><trkpt lat="43.745154609662066" lon="10.877230250415458"><ele>91.0</ele><time>2026-04-18T10:32:51.102Z</time></trkpt><trkpt lat="43.74509496347797" lon="10.877190369942172"><ele>91.0</ele><time>2026-04-18T10:32:52.102Z</time></trkpt><trkpt lat="43.74503119850337" lon="10.877161699860443"><ele>91.0</ele><time>2026-04-18T10:32:53.102Z</time></trkpt><trkpt lat="43.7449224935052" lon="10.877090736452272"><ele>91.0</ele><time>2026-04-18T10:32:55.102Z</time></trkpt><trkpt lat="43.744852874028716" lon="10.877014260878333"><ele>91.4</ele><time>2026-04-18T10:32:57.102Z</time></trkpt><trkpt lat="43.744748209486154" lon="10.87691471811828"><ele>91.8</ele><time>2026-04-18T10:32:59.102Z</time></trkpt><trkpt lat="43.74467834029413" lon="10.876848268230969"><ele>92.2</ele><time>2026-04-18T10:33:01.102Z</time></trkpt><trkpt lat="43.744592758270365" lon="10.876764789404568"><ele>92.60000000000001</ele><time>2026-04-18T10:33:03.102Z</time></trkpt><trkpt lat="43.74450180078022" lon="10.876673085363471"><ele>93.0</ele><time>2026-04-18T10:33:05.102Z</time></trkpt><trkpt lat="43.74440612390799" lon="10.87657629752473"><ele>91.2</ele><time>2026-04-18T10:33:07.102Z</time></trkpt><trkpt lat="43.74431050024876" lon="10.876483633453288"><ele>89.4</ele><time>2026-04-18T10:33:09.102Z</time></trkpt><trkpt lat="43.7442065573439" lon="10.87638275848264"><ele>87.60000000000001</ele><time>2026-04-18T10:33:11.102Z</time></trkpt><trkpt lat="43.74415003386604" lon="10.87632785507493"><ele>85.80000000000001</ele><time>2026-04-18T10:33:12.102Z</time></trkpt><trkpt lat="43.74409389923027" lon="10.876272767868333"><ele>84.0</ele><time>2026-04-18T10:33:13.102Z</time></trkpt><trkpt lat="43.74398234582383" lon="10.876168811179669"><ele>84.0</ele><time>2026-04-18T10:33:15.102Z</time></trkpt><trkpt lat="43.743924026962" lon="10.876114463861391"><ele>84.0</ele><time>2026-04-18T10:33:16.102Z</time></trkpt><trkpt lat="43.74386029373489" lon="10.876055071140508"><ele>84.0</ele><time>2026-04-18T10:33:19.102Z</time></trkpt><trkpt lat="43.74378832300746" lon="10.875988001697435"><ele>84.0</ele><time>2026-04-18T10:33:22.102Z</time></trkpt><trkpt lat="43.74370134508227" lon="10.875900229067023"><ele>84.0</ele><time>2026-04-18T10:33:24.102Z</time></trkpt><trkpt lat="43.743476903742966" lon="10.875778199959484"><ele>84.33333333333333</ele><time>2026-04-18T10:33:26.102Z</time></trkpt><trkpt lat="43.74338789536062" lon="10.875763644616047"><ele>84.66666666666667</ele><time>2026-04-18T10:33:29.102Z</time></trkpt><trkpt lat="43.74331217361065" lon="10.875749161338126"><ele>85.0</ele><time>2026-04-18T10:33:31.102Z</time></trkpt><trkpt lat="43.74324615808078" lon="10.875736207275015"><ele>85.33333333333334</ele><time>2026-04-18T10:33:33.102Z</time></trkpt><trkpt lat="43.74318281166345" lon="10.875716741232301"><ele>85.66666666666667</ele><time>2026-04-18T10:33:35.102Z</time></trkpt><trkpt lat="43.74309171514523" lon="10.87568103913417"><ele>86.0</ele><time>2026-04-18T10:33:37.102Z</time></trkpt><trkpt lat="43.74301806787231" lon="10.87564354446665"><ele>86.0</ele><time>2026-04-18T10:33:39.102Z</time></trkpt><trkpt lat="43.742941684773896" lon="10.875602654254367"><ele>86.0</ele><time>2026-04-18T10:33:41.102Z</time></trkpt><trkpt lat="43.74285508563986" lon="10.87555614253795"><ele>86.0</ele><time>2026-04-18T10:33:43.102Z</time></trkpt><trkpt lat="43.742799515910775" lon="10.875514802434603"><ele>86.0</ele><time>2026-04-18T10:33:45.102Z</time></trkpt><trkpt lat="43.74269553361033" lon="10.875448476208607"><ele>86.0</ele><time>2026-04-18T10:33:47.102Z</time></trkpt><trkpt lat="43.74259650289434" lon="10.875387792106455"><ele>84.8</ele><time>2026-04-18T10:33:49.102Z</time></trkpt><trkpt lat="43.742495017559655" lon="10.875325604100201"><ele>83.6</ele><time>2026-04-18T10:33:51.102Z</time></trkpt><trkpt lat="43.74243399933802" lon="10.875287796184699"><ele>82.4</ele><time>2026-04-18T10:33:52.102Z</time></trkpt><trkpt lat="43.7423309572295" lon="10.87522368301306"><ele>81.2</ele><time>2026-04-18T10:33:53.102Z</time></trkpt><trkpt lat="43.74224285117123" lon="10.875188639100385"><ele>80.0</ele><time>2026-04-18T10:33:54.102Z</time></trkpt><trkpt lat="43.742106719288095" lon="10.875146867880197"><ele>80.0</ele><time>2026-04-18T10:33:56.102Z</time></trkpt><trkpt lat="43.74197793600407" lon="10.87511162054377"><ele>80.0</ele><time>2026-04-18T10:33:58.102Z</time></trkpt><trkpt lat="43.741903088062415" lon="10.875094329899655"><ele>80.0</ele><time>2026-04-18T10:33:59.102Z</time></trkpt><trkpt lat="43.741800088614134" lon="10.875073231681371"><ele>80.0</ele><time>2026-04-18T10:34:01.102Z</time></trkpt><trkpt lat="43.74169525952683" lon="10.87504977280043"><ele>80.0</ele><time>2026-04-18T10:34:03.102Z</time></trkpt><trkpt lat="43.74158661098943" lon="10.875022730950112"><ele>79.4</ele><time>2026-04-18T10:34:05.102Z</time></trkpt><trkpt lat="43.74146777044927" lon="10.875042575730125"><ele>78.8</ele><time>2026-04-18T10:34:06.102Z</time></trkpt><trkpt lat="43.741351578337635" lon="10.875071310749904"><ele>78.2</ele><time>2026-04-18T10:34:07.102Z</time></trkpt><trkpt lat="43.74134466117356" lon="10.875161406223178"><ele>77.6</ele><time>2026-04-18T10:34:09.102Z</time></trkpt><trkpt lat="43.74128266397735" lon="10.875200277115821"><ele>77.0</ele><time>2026-04-18T10:34:10.102Z</time></trkpt><trkpt lat="43.741155029133395" lon="10.8752809647195"><ele>76.16666666666667</ele><time>2026-04-18T10:34:12.102Z</time></trkpt><trkpt lat="43.74109258907187" lon="10.875326950942744"><ele>75.33333333333334</ele><time>2026-04-18T10:34:13.102Z</time></trkpt><trkpt lat="43.74099483963756" lon="10.875366766256631"><ele>74.5</ele><time>2026-04-18T10:34:14.102Z</time></trkpt><trkpt lat="43.740913856938334" lon="10.875418845017132"><ele>73.66666666666667</ele><time>2026-04-18T10:34:15.102Z</time></trkpt><trkpt lat="43.74084893254232" lon="10.875478902402081"><ele>72.83333333333333</ele><time>2026-04-18T10:34:16.102Z</time></trkpt><trkpt lat="43.740786519773124" lon="10.875539750619861"><ele>72.0</ele><time>2026-04-18T10:34:17.102Z</time></trkpt><trkpt lat="43.74072463512018" lon="10.875594860668413"><ele>71.0</ele><time>2026-04-18T10:34:18.102Z</time></trkpt><trkpt lat="43.740657150138055" lon="10.875649314015046"><ele>70.0</ele><time>2026-04-18T10:34:19.102Z</time></trkpt><trkpt lat="43.740597830528614" lon="10.875712240030307"><ele>69.0</ele><time>2026-04-18T10:34:20.102Z</time></trkpt><trkpt lat="43.74053287009197" lon="10.87571406497556"><ele>68.0</ele><time>2026-04-18T10:34:21.102Z</time></trkpt><trkpt lat="43.74040512213507" lon="10.875732524495039"><ele>67.0</ele><time>2026-04-18T10:34:23.102Z</time></trkpt><trkpt lat="43.740347783953034" lon="10.876036445403434"><ele>65.0</ele><time>2026-04-18T10:34:24.102Z</time></trkpt><trkpt lat="43.74028474955792" lon="10.876044578500139"><ele>63.0</ele><time>2026-04-18T10:34:25.102Z</time></trkpt><trkpt lat="43.74016276510957" lon="10.876067737619003"><ele>61.0</ele><time>2026-04-18T10:34:27.102Z</time></trkpt><trkpt lat="43.74009363953702" lon="10.87608475542023"><ele>59.0</ele><time>2026-04-18T10:34:28.102Z</time></trkpt><trkpt lat="43.74002431403876" lon="10.876091604554652"><ele>56.99999999999999</ele><time>2026-04-18T10:34:29.102Z</time></trkpt><trkpt lat="43.739956521814456" lon="10.876087883066093"><ele>55.0</ele><time>2026-04-18T10:34:30.102Z</time></trkpt><trkpt lat="43.73989246546643" lon="10.876081274765298"><ele>54.14285714285714</ele><time>2026-04-18T10:34:31.102Z</time></trkpt><trkpt lat="43.7398166170617" lon="10.876093812627943"><ele>53.285714285714285</ele><time>2026-04-18T10:34:32.102Z</time></trkpt><trkpt lat="43.73974628415138" lon="10.87610008135298"><ele>52.42857142857143</ele><time>2026-04-18T10:34:33.102Z</time></trkpt><trkpt lat="43.73967595122001" lon="10.876108101762965"><ele>51.57142857142857</ele><time>2026-04-18T10:34:34.102Z</time></trkpt><trkpt lat="43.73960413800619" lon="10.876117651345671"><ele>50.714285714285715</ele><time>2026-04-18T10:34:35.102Z</time></trkpt><trkpt lat="43.7395340416649" lon="10.876129662698053"><ele>49.857142857142854</ele><time>2026-04-18T10:34:36.102Z</time></trkpt><trkpt lat="43.739461911387444" lon="10.87614672072747"><ele>49.0</ele><time>2026-04-18T10:34:37.102Z</time></trkpt><trkpt lat="43.73939268946188" lon="10.876149690505999"><ele>49.166666666666664</ele><time>2026-04-18T10:34:38.102Z</time></trkpt><trkpt lat="43.739328107356265" lon="10.876152105231357"><ele>49.33333333333333</ele><time>2026-04-18T10:34:39.102Z</time></trkpt><trkpt lat="43.73925577588907" lon="10.876159401367156"><ele>49.5</ele><time>2026-04-18T10:34:40.102Z</time></trkpt><trkpt lat="43.73918498059178" lon="10.876159013659521"><ele>49.66666666666667</ele><time>2026-04-18T10:34:41.102Z</time></trkpt><trkpt lat="43.739117809173784" lon="10.876169199986572"><ele>49.833333333333336</ele><time>2026-04-18T10:34:42.102Z</time></trkpt><trkpt lat="43.738990612296774" lon="10.876183144209051"><ele>50.0</ele><time>2026-04-18T10:34:44.102Z</time></trkpt><trkpt lat="43.7388626384148" lon="10.876205597747886"><ele>50.0</ele><time>2026-04-18T10:34:46.102Z</time></trkpt><trkpt lat="43.73879383279045" lon="10.876221740053525"><ele>50.0</ele><time>2026-04-18T10:34:47.102Z</time></trkpt><trkpt lat="43.73867795656975" lon="10.876228482820512"><ele>50.0</ele><time>2026-04-18T10:34:49.102Z</time></trkpt><trkpt lat="43.738558548320846" lon="10.876238243462808"><ele>50.0</ele><time>2026-04-18T10:34:51.1Z</time></trkpt><trkpt lat="43.73845183135113" lon="10.876244708393571"><ele>50.0</ele><time>2026-04-18T10:34:53.1Z</time></trkpt><trkpt lat="43.738328027152846" lon="10.876244990599433"><ele>49.0</ele><time>2026-04-18T10:34:55.1Z</time></trkpt><trkpt lat="43.73821056320164" lon="10.87624929558897"><ele>48.0</ele><time>2026-04-18T10:34:57.1Z</time></trkpt><trkpt lat="43.73808391131045" lon="10.876272547191013"><ele>47.0</ele><time>2026-04-18T10:34:59.1Z</time></trkpt><trkpt lat="43.7380186373148" lon="10.876276407304402"><ele>46.0</ele><time>2026-04-18T10:35:00.1Z</time></trkpt><trkpt lat="43.73789098062664" lon="10.876285671652566"><ele>45.0</ele><time>2026-04-18T10:35:02.1Z</time></trkpt><trkpt lat="43.737823110478175" lon="10.87629173525961"><ele>45.0</ele><time>2026-04-18T10:35:03.099Z</time></trkpt><trkpt lat="43.73767784251755" lon="10.876310968883033"><ele>45.0</ele><time>2026-04-18T10:35:05.099Z</time></trkpt><trkpt lat="43.737550616704496" lon="10.876342192474889"><ele>45.0</ele><time>2026-04-18T10:35:06.099Z</time></trkpt><trkpt lat="43.73740590617903" lon="10.876370628475364"><ele>45.0</ele><time>2026-04-18T10:35:07.099Z</time></trkpt><trkpt lat="43.737496998415246" lon="10.876363896012311"><ele>45.0</ele><time>2026-04-18T10:35:08.099Z</time></trkpt><trkpt lat="43.737432895099715" lon="10.87638123465671"><ele>45.0</ele><time>2026-04-18T10:35:09.099Z</time></trkpt><trkpt lat="43.737371477951974" lon="10.876404524498628"><ele>45.0</ele><time>2026-04-18T10:35:10.099Z</time></trkpt><trkpt lat="43.73730889883215" lon="10.876435696763952"><ele>45.0</ele><time>2026-04-18T10:35:11.099Z</time></trkpt><trkpt lat="43.737243337241225" lon="10.876463669516735"><ele>45.0</ele><time>2026-04-18T10:35:12.099Z</time></trkpt><trkpt lat="43.73718200828388" lon="10.876494016165966"><ele>45.0</ele><time>2026-04-18T10:35:13.099Z</time></trkpt><trkpt lat="43.737114995841104" lon="10.876510892681821"><ele>45.0</ele><time>2026-04-18T10:35:14.099Z</time></trkpt><trkpt lat="43.737049967828085" lon="10.876537258639727"><ele>45.0</ele><time>2026-04-18T10:35:15.099Z</time></trkpt><trkpt lat="43.73698130880557" lon="10.87656240487066"><ele>45.0</ele><time>2026-04-18T10:35:16.099Z</time></trkpt><trkpt lat="43.73691164654162" lon="10.876601272015538"><ele>45.0</ele><time>2026-04-18T10:35:17.099Z</time></trkpt><trkpt lat="43.73684267664049" lon="10.876645857918318"><ele>45.0</ele><time>2026-04-18T10:35:18.099Z</time></trkpt><trkpt lat="43.73677173896361" lon="10.876686330078787"><ele>45.0</ele><time>2026-04-18T10:35:19.099Z</time></trkpt><trkpt lat="43.73669853674024" lon="10.876731416546544"><ele>45.0</ele><time>2026-04-18T10:35:20.099Z</time></trkpt><trkpt lat="43.73663751678153" lon="10.876790027525082"><ele>43.57142857142857</ele><time>2026-04-18T10:35:21.099Z</time></trkpt><trkpt lat="43.736575143883464" lon="10.876853308595175"><ele>42.142857142857146</ele><time>2026-04-18T10:35:22.099Z</time></trkpt><trkpt lat="43.73651663785721" lon="10.876920217244253"><ele>40.714285714285715</ele><time>2026-04-18T10:35:23.099Z</time></trkpt><trkpt lat="43.73645567509194" lon="10.876978659909815"><ele>39.285714285714285</ele><time>2026-04-18T10:35:24.099Z</time></trkpt><trkpt lat="43.736394568857015" lon="10.877033818575345"><ele>37.85714285714286</ele><time>2026-04-18T10:35:25.099Z</time></trkpt><trkpt lat="43.73634215541194" lon="10.877090755509808"><ele>36.42857142857143</ele><time>2026-04-18T10:35:26.099Z</time></trkpt><trkpt lat="43.7362849847442" lon="10.877143360893182"><ele>35.0</ele><time>2026-04-18T10:35:27.099Z</time></trkpt><trkpt lat="43.73623204524689" lon="10.877199258772904"><ele>35.0</ele><time>2026-04-18T10:35:28.099Z</time></trkpt><trkpt lat="43.736178629437674" lon="10.877257706225318"><ele>35.0</ele><time>2026-04-18T10:35:29.099Z</time></trkpt><trkpt lat="43.73612531595641" lon="10.877322636046065"><ele>35.0</ele><time>2026-04-18T10:35:30.099Z</time></trkpt><trkpt lat="43.73606942860602" lon="10.877393158002707"><ele>35.0</ele><time>2026-04-18T10:35:31.099Z</time></trkpt><trkpt lat="43.73601222969645" lon="10.877453872467528"><ele>35.0</ele><time>2026-04-18T10:35:32.099Z</time></trkpt><trkpt lat="43.735958299506926" lon="10.877504992003134"><ele>35.0</ele><time>2026-04-18T10:35:33.099Z</time></trkpt><trkpt lat="43.735900233890106" lon="10.877556512384574"><ele>35.0</ele><time>2026-04-18T10:35:34.099Z</time></trkpt><trkpt lat="43.7358450660197" lon="10.87761106900824"><ele>34.57142857142857</ele><time>2026-04-18T10:35:35.099Z</time></trkpt><trkpt lat="43.73578308346817" lon="10.877663393938104"><ele>34.14285714285714</ele><time>2026-04-18T10:35:36.099Z</time></trkpt><trkpt lat="43.735720762229235" lon="10.877712931445934"><ele>33.714285714285715</ele><time>2026-04-18T10:35:37.099Z</time></trkpt><trkpt lat="43.73566397402633" lon="10.877757286353638"><ele>33.285714285714285</ele><time>2026-04-18T10:35:38.099Z</time></trkpt><trkpt lat="43.735604693494516" lon="10.877805167970235"><ele>32.857142857142854</ele><time>2026-04-18T10:35:39.099Z</time></trkpt><trkpt lat="43.73554980428228" lon="10.877848874151034"><ele>32.42857142857143</ele><time>2026-04-18T10:35:40.099Z</time></trkpt><trkpt lat="43.735489031707594" lon="10.877886773688822"><ele>32.0</ele><time>2026-04-18T10:35:41.099Z</time></trkpt><trkpt lat="43.73542607501314" lon="10.877918186098507"><ele>32.0</ele><time>2026-04-18T10:35:42.099Z</time></trkpt><trkpt lat="43.735319953113645" lon="10.877968382837942"><ele>32.0</ele><time>2026-04-18T10:35:44.099Z</time></trkpt><trkpt lat="43.735246030908144" lon="10.878014541847607"><ele>32.0</ele><time>2026-04-18T10:35:45.099Z</time></trkpt><trkpt lat="43.73514715175298" lon="10.878068298628214"><ele>32.0</ele><time>2026-04-18T10:35:46.099Z</time></trkpt><trkpt lat="43.73504357044214" lon="10.878126531938436"><ele>32.0</ele><time>2026-04-18T10:35:47.099Z</time></trkpt><trkpt lat="43.734956329803474" lon="10.878137736216956"><ele>32.0</ele><time>2026-04-18T10:35:50.099Z</time></trkpt><trkpt lat="43.734842920421855" lon="10.87817111867119"><ele>32.0</ele><time>2026-04-18T10:35:52.099Z</time></trkpt><trkpt lat="43.73472169701294" lon="10.878202635419397"><ele>32.0</ele><time>2026-04-18T10:35:54.099Z</time></trkpt><trkpt lat="43.73460062086308" lon="10.878226407430025"><ele>32.0</ele><time>2026-04-18T10:35:56.099Z</time></trkpt><trkpt lat="43.73453686724979" lon="10.878235244319262"><ele>32.0</ele><time>2026-04-18T10:35:57.099Z</time></trkpt><trkpt lat="43.73441719161765" lon="10.878247881387216"><ele>32.2</ele><time>2026-04-18T10:35:59.099Z</time></trkpt><trkpt lat="43.73429400545897" lon="10.8782779564599"><ele>32.400000000000006</ele><time>2026-04-18T10:36:01.099Z</time></trkpt><trkpt lat="43.73423081151051" lon="10.878271494751214"><ele>32.599999999999994</ele><time>2026-04-18T10:36:02.099Z</time></trkpt><trkpt lat="43.73411424854122" lon="10.878280680158891"><ele>32.8</ele><time>2026-04-18T10:36:04.099Z</time></trkpt><trkpt lat="43.733996339646836" lon="10.878246562818017"><ele>33.0</ele><time>2026-04-18T10:36:06.099Z</time></trkpt><trkpt lat="43.73388087990341" lon="10.878228227613638"><ele>33.0</ele><time>2026-04-18T10:36:08.099Z</time></trkpt><trkpt lat="43.733772074084065" lon="10.878203993383087"><ele>33.0</ele><time>2026-04-18T10:36:10.099Z</time></trkpt><trkpt lat="43.73366638953969" lon="10.878169121159871"><ele>33.0</ele><time>2026-04-18T10:36:12.099Z</time></trkpt><trkpt lat="43.733568131399515" lon="10.878131283908983"><ele>33.0</ele><time>2026-04-18T10:36:14.099Z</time></trkpt><trkpt lat="43.73346832158612" lon="10.878085888756491"><ele>33.0</ele><time>2026-04-18T10:36:16.099Z</time></trkpt><trkpt lat="43.73337020091433" lon="10.878037645192867"><ele>33.199999999999996</ele><time>2026-04-18T10:36:18.099Z</time></trkpt><trkpt lat="43.73326844124328" lon="10.877985031532424"><ele>33.4</ele><time>2026-04-18T10:36:20.099Z</time></trkpt><trkpt lat="43.73317634609298" lon="10.87793388228027"><ele>33.599999999999994</ele><time>2026-04-18T10:36:22.099Z</time></trkpt><trkpt lat="43.73307726660076" lon="10.877874990717375"><ele>33.8</ele><time>2026-04-18T10:36:24.099Z</time></trkpt><trkpt lat="43.73298063217021" lon="10.877814171746722"><ele>34.0</ele><time>2026-04-18T10:36:26.099Z</time></trkpt><trkpt lat="43.732902526492175" lon="10.877760889642316"><ele>34.0</ele><time>2026-04-18T10:36:28.099Z</time></trkpt><trkpt lat="43.73280832249214" lon="10.877695701730051"><ele>34.0</ele><time>2026-04-18T10:36:30.099Z</time></trkpt><trkpt lat="43.73272648285984" lon="10.877639069641816"><ele>34.0</ele><time>2026-04-18T10:36:32.099Z</time></trkpt><trkpt lat="43.7326381370347" lon="10.877577935691969"><ele>34.0</ele><time>2026-04-18T10:36:34.099Z</time></trkpt><trkpt lat="43.732543058888865" lon="10.877512142896524"><ele>34.0</ele><time>2026-04-18T10:36:36.099Z</time></trkpt><trkpt lat="43.73245979471084" lon="10.877455350759979"><ele>33.4</ele><time>2026-04-18T10:36:38.099Z</time></trkpt><trkpt lat="43.732376871491226" lon="10.87739933998988"><ele>32.8</ele><time>2026-04-18T10:36:40.099Z</time></trkpt><trkpt lat="43.73230068747322" lon="10.877347879813565"><ele>32.2</ele><time>2026-04-18T10:36:42.099Z</time></trkpt><trkpt lat="43.73221376639232" lon="10.87729295365353"><ele>31.6</ele><time>2026-04-18T10:36:44.099Z</time></trkpt><trkpt lat="43.73212177027479" lon="10.877252665834078"><ele>31.0</ele><time>2026-04-18T10:36:46.099Z</time></trkpt><trkpt lat="43.73204259571465" lon="10.87718361654843"><ele>31.0</ele><time>2026-04-18T10:36:48.099Z</time></trkpt><trkpt lat="43.73195980782601" lon="10.877144231310673"><ele>31.0</ele><time>2026-04-18T10:36:50.099Z</time></trkpt><trkpt lat="43.73190786460553" lon="10.877093184302064"><ele>31.0</ele><time>2026-04-18T10:36:51.099Z</time></trkpt><trkpt lat="43.7318110672977" lon="10.877052244101998"><ele>31.0</ele><time>2026-04-18T10:36:53.099Z</time></trkpt><trkpt lat="43.7317189096389" lon="10.876965568197956"><ele>31.0</ele><time>2026-04-18T10:36:55.099Z</time></trkpt><trkpt lat="43.73163017571096" lon="10.876905933875202"><ele>30.8</ele><time>2026-04-18T10:36:57.098Z</time></trkpt><trkpt lat="43.731528086072444" lon="10.87683825455076"><ele>30.6</ele><time>2026-04-18T10:36:59.098Z</time></trkpt><trkpt lat="43.73143601742774" lon="10.876777218522212"><ele>30.4</ele><time>2026-04-18T10:37:01.098Z</time></trkpt><trkpt lat="43.73133078806076" lon="10.876714341175566"><ele>30.2</ele><time>2026-04-18T10:37:03.098Z</time></trkpt><trkpt lat="43.731233281525746" lon="10.876657932093146"><ele>30.0</ele><time>2026-04-18T10:37:05.098Z</time></trkpt><trkpt lat="43.7311176625578" lon="10.876609475915485"><ele>30.4</ele><time>2026-04-18T10:37:07.097Z</time></trkpt><trkpt lat="43.73101499806646" lon="10.876566468724599"><ele>30.8</ele><time>2026-04-18T10:37:09.097Z</time></trkpt><trkpt lat="43.73090772473918" lon="10.876522504481668"><ele>31.200000000000003</ele><time>2026-04-18T10:37:11.097Z</time></trkpt><trkpt lat="43.73080179126203" lon="10.87646228637326"><ele>31.6</ele><time>2026-04-18T10:37:13.097Z</time></trkpt><trkpt lat="43.73069229575073" lon="10.876434798741014"><ele>32.0</ele><time>2026-04-18T10:37:15.097Z</time></trkpt><trkpt lat="43.73057540066423" lon="10.876414907012872"><ele>32.0</ele><time>2026-04-18T10:37:17.097Z</time></trkpt><trkpt lat="43.73045890119373" lon="10.87642258567288"><ele>32.0</ele><time>2026-04-18T10:37:19.097Z</time></trkpt><trkpt lat="43.73039842389285" lon="10.876398348868054"><ele>32.0</ele><time>2026-04-18T10:37:20.097Z</time></trkpt><trkpt lat="43.73028327868269" lon="10.876418270588113"><ele>32.0</ele><time>2026-04-18T10:37:22.097Z</time></trkpt><trkpt lat="43.73022050861144" lon="10.876398950842944"><ele>32.0</ele><time>2026-04-18T10:37:23.097Z</time></trkpt><trkpt lat="43.730106922256546" lon="10.876410057549121"><ele>31.8</ele><time>2026-04-18T10:37:25.097Z</time></trkpt><trkpt lat="43.72999750275635" lon="10.876427996698666"><ele>31.6</ele><time>2026-04-18T10:37:27.097Z</time></trkpt><trkpt lat="43.729889472816225" lon="10.87645290473735"><ele>31.400000000000002</ele><time>2026-04-18T10:37:29.097Z</time></trkpt><trkpt lat="43.7297773342392" lon="10.876485316405503"><ele>31.200000000000003</ele><time>2026-04-18T10:37:31.097Z</time></trkpt><trkpt lat="43.72966763167552" lon="10.876528608929547"><ele>31.0</ele><time>2026-04-18T10:37:33.097Z</time></trkpt><trkpt lat="43.7295607584498" lon="10.876580626938633"><ele>31.0</ele><time>2026-04-18T10:37:35.097Z</time></trkpt><trkpt lat="43.72945514287974" lon="10.876634202307459"><ele>31.0</ele><time>2026-04-18T10:37:37.097Z</time></trkpt><trkpt lat="43.72934834238237" lon="10.876691726436588"><ele>31.0</ele><time>2026-04-18T10:37:39.097Z</time></trkpt><trkpt lat="43.72924503601712" lon="10.87675278404473"><ele>31.0</ele><time>2026-04-18T10:37:41.097Z</time></trkpt><trkpt lat="43.729142833370325" lon="10.876818286147776"><ele>32.5</ele><time>2026-04-18T10:37:43.097Z</time></trkpt><trkpt lat="43.72903498585317" lon="10.8768874060546"><ele>34.0</ele><time>2026-04-18T10:37:45.097Z</time></trkpt><trkpt lat="43.72893271691732" lon="10.876951816606054"><ele>35.5</ele><time>2026-04-18T10:37:47.097Z</time></trkpt><trkpt lat="43.72883583755561" lon="10.877035581078879"><ele>37.0</ele><time>2026-04-18T10:37:49.097Z</time></trkpt><trkpt lat="43.72871869369611" lon="10.877083905415574"><ele>37.0</ele><time>2026-04-18T10:37:51.097Z</time></trkpt><trkpt lat="43.72861002201404" lon="10.877150458520111"><ele>37.0</ele><time>2026-04-18T10:37:53.097Z</time></trkpt><trkpt lat="43.728503845004546" lon="10.877221158215697"><ele>37.0</ele><time>2026-04-18T10:37:55.097Z</time></trkpt><trkpt lat="43.728391540888865" lon="10.87729683125075"><ele>37.0</ele><time>2026-04-18T10:37:57.097Z</time></trkpt><trkpt lat="43.728280996852" lon="10.877371318310733"><ele>36.800000000000004</ele><time>2026-04-18T10:37:59.097Z</time></trkpt><trkpt lat="43.72822385079452" lon="10.877409824427835"><ele>36.6</ele><time>2026-04-18T10:38:00.097Z</time></trkpt><trkpt lat="43.72811850521848" lon="10.877502144597498"><ele>36.400000000000006</ele><time>2026-04-18T10:38:02.097Z</time></trkpt><trkpt lat="43.7280534521824" lon="10.877527445549305"><ele>36.2</ele><time>2026-04-18T10:38:03.097Z</time></trkpt><trkpt lat="43.72794621217545" lon="10.877604511720158"><ele>36.0</ele><time>2026-04-18T10:38:05.097Z</time></trkpt><trkpt lat="43.727845703416115" lon="10.877702346350558"><ele>36.0</ele><time>2026-04-18T10:38:07.097Z</time></trkpt><trkpt lat="43.72778146281081" lon="10.87772290561599"><ele>36.0</ele><time>2026-04-18T10:38:08.097Z</time></trkpt><trkpt lat="43.727675211710824" lon="10.877799260965112"><ele>36.0</ele><time>2026-04-18T10:38:10.097Z</time></trkpt><trkpt lat="43.72756835561021" lon="10.877876051095331"><ele>36.0</ele><time>2026-04-18T10:38:12.097Z</time></trkpt><trkpt lat="43.72746119624404" lon="10.877959069472645"><ele>36.0</ele><time>2026-04-18T10:38:14.097Z</time></trkpt><trkpt lat="43.727354068252914" lon="10.878044560206643"><ele>35.42857142857143</ele><time>2026-04-18T10:38:16.097Z</time></trkpt><trkpt lat="43.72724814118608" lon="10.87812909254924"><ele>34.85714285714286</ele><time>2026-04-18T10:38:18.097Z</time></trkpt><trkpt lat="43.72719324450843" lon="10.878172901411073"><ele>34.285714285714285</ele><time>2026-04-18T10:38:19.097Z</time></trkpt><trkpt lat="43.727138626006756" lon="10.878216488280813"><ele>33.714285714285715</ele><time>2026-04-18T10:38:20.097Z</time></trkpt><trkpt lat="43.72708100470363" lon="10.878262469732045"><ele>33.14285714285714</ele><time>2026-04-18T10:38:21.097Z</time></trkpt><trkpt lat="43.72702437403227" lon="10.878309343449342"><ele>32.57142857142857</ele><time>2026-04-18T10:38:22.097Z</time></trkpt><trkpt lat="43.72696660921895" lon="10.878357155926176"><ele>32.0</ele><time>2026-04-18T10:38:23.097Z</time></trkpt><trkpt lat="43.72690916180547" lon="10.878404705697754"><ele>31.71428571428571</ele><time>2026-04-18T10:38:24.097Z</time></trkpt><trkpt lat="43.72684911455666" lon="10.878454407339104"><ele>31.428571428571423</ele><time>2026-04-18T10:38:25.097Z</time></trkpt><trkpt lat="43.72679157959431" lon="10.878502029484588"><ele>31.142857142857142</ele><time>2026-04-18T10:38:26.097Z</time></trkpt><trkpt lat="43.72673012540583" lon="10.878552895731737"><ele>30.857142857142854</ele><time>2026-04-18T10:38:27.097Z</time></trkpt><trkpt lat="43.72666854709618" lon="10.87860410729252"><ele>30.57142857142857</ele><time>2026-04-18T10:38:28.097Z</time></trkpt><trkpt lat="43.72660882422966" lon="10.878653843865797"><ele>30.285714285714285</ele><time>2026-04-18T10:38:29.097Z</time></trkpt><trkpt lat="43.72654468871227" lon="10.878707615871582"><ele>30.0</ele><time>2026-04-18T10:38:30.097Z</time></trkpt><trkpt lat="43.72648492662487" lon="10.878758554624135"><ele>30.0</ele><time>2026-04-18T10:38:31.097Z</time></trkpt><trkpt lat="43.726424429479145" lon="10.878810119903127"><ele>30.0</ele><time>2026-04-18T10:38:32.097Z</time></trkpt><trkpt lat="43.72636333364713" lon="10.87886219547079"><ele>30.0</ele><time>2026-04-18T10:38:33.097Z</time></trkpt><trkpt lat="43.72630219444538" lon="10.878914308003953"><ele>30.0</ele><time>2026-04-18T10:38:34.097Z</time></trkpt><trkpt lat="43.72624000668241" lon="10.878967314293714"><ele>30.0</ele><time>2026-04-18T10:38:35.097Z</time></trkpt><trkpt lat="43.726177466947554" lon="10.879020620591264"><ele>30.0</ele><time>2026-04-18T10:38:36.097Z</time></trkpt><trkpt lat="43.72611752617117" lon="10.879073089216302"><ele>30.0</ele><time>2026-04-18T10:38:37.097Z</time></trkpt><trkpt lat="43.726053499912" lon="10.879130093665879"><ele>29.42857142857143</ele><time>2026-04-18T10:38:38.097Z</time></trkpt><trkpt lat="43.72599270511253" lon="10.879184221058965"><ele>28.857142857142854</ele><time>2026-04-18T10:38:39.097Z</time></trkpt><trkpt lat="43.72592976826289" lon="10.879240255566925"><ele>28.285714285714285</ele><time>2026-04-18T10:38:40.097Z</time></trkpt><trkpt lat="43.72587088679558" lon="10.879292679462983"><ele>27.714285714285715</ele><time>2026-04-18T10:38:41.097Z</time></trkpt><trkpt lat="43.72580927452843" lon="10.879347534662438"><ele>27.142857142857146</ele><time>2026-04-18T10:38:42.097Z</time></trkpt><trkpt lat="43.725751726178196" lon="10.879398639542133"><ele>26.57142857142857</ele><time>2026-04-18T10:38:43.097Z</time></trkpt><trkpt lat="43.72569582092191" lon="10.879447959678746"><ele>26.0</ele><time>2026-04-18T10:38:44.097Z</time></trkpt><trkpt lat="43.725639224098" lon="10.879498137964942"><ele>26.0</ele><time>2026-04-18T10:38:45.097Z</time></trkpt><trkpt lat="43.72558290466472" lon="10.879550343240041"><ele>26.0</ele><time>2026-04-18T10:38:46.097Z</time></trkpt><trkpt lat="43.72552746473301" lon="10.879601733273025"><ele>26.0</ele><time>2026-04-18T10:38:47.097Z</time></trkpt><trkpt lat="43.72547192906116" lon="10.879653212036402"><ele>26.0</ele><time>2026-04-18T10:38:48.097Z</time></trkpt><trkpt lat="43.72541833582187" lon="10.879704335537106"><ele>26.0</ele><time>2026-04-18T10:38:49.097Z</time></trkpt><trkpt lat="43.725365310690826" lon="10.87975675285484"><ele>26.0</ele><time>2026-04-18T10:38:50.097Z</time></trkpt><trkpt lat="43.725313317508586" lon="10.879808150060036"><ele>26.0</ele><time>2026-04-18T10:38:51.097Z</time></trkpt><trkpt lat="43.72521265058455" lon="10.879919957964038"><ele>25.833333333333332</ele><time>2026-04-18T10:38:53.097Z</time></trkpt><trkpt lat="43.72517214619066" lon="10.879987750457412"><ele>25.666666666666664</ele><time>2026-04-18T10:38:54.097Z</time></trkpt><trkpt lat="43.72514471551734" lon="10.880066181202773"><ele>25.5</ele><time>2026-04-18T10:38:55.097Z</time></trkpt><trkpt lat="43.72514995905219" lon="10.880186638150528"><ele>25.333333333333336</ele><time>2026-04-18T10:38:56.097Z</time></trkpt><trkpt lat="43.725205986585465" lon="10.880282418028441"><ele>25.166666666666668</ele><time>2026-04-18T10:38:57.097Z</time></trkpt><trkpt lat="43.72525067978495" lon="10.88041126606568"><ele>25.0</ele><time>2026-04-18T10:38:59.097Z</time></trkpt><trkpt lat="43.7251276753381" lon="10.880538869499041"><ele>24.8</ele><time>2026-04-18T10:39:02.097Z</time></trkpt><trkpt lat="43.725028557039344" lon="10.880497424266144"><ele>24.6</ele><time>2026-04-18T10:39:04.096Z</time></trkpt><trkpt lat="43.724932740704226" lon="10.88045722948597"><ele>24.4</ele><time>2026-04-18T10:39:06.096Z</time></trkpt><trkpt lat="43.7248299728149" lon="10.88044233630696"><ele>24.2</ele><time>2026-04-18T10:39:08.096Z</time></trkpt><trkpt lat="43.72471437822862" lon="10.880465592586146"><ele>24.0</ele><time>2026-04-18T10:39:10.096Z</time></trkpt><trkpt lat="43.72460631124652" lon="10.88054016284494"><ele>24.0</ele><time>2026-04-18T10:39:12.095Z</time></trkpt><trkpt lat="43.72451017509311" lon="10.880646565256662"><ele>24.0</ele><time>2026-04-18T10:39:14.095Z</time></trkpt><trkpt lat="43.724413921269246" lon="10.880744328566891"><ele>24.0</ele><time>2026-04-18T10:39:16.095Z</time></trkpt><trkpt lat="43.724313266623405" lon="10.880831889369597"><ele>24.0</ele><time>2026-04-18T10:39:18.095Z</time></trkpt><trkpt lat="43.72421900759435" lon="10.880923867821364"><ele>24.25</ele><time>2026-04-18T10:39:20.095Z</time></trkpt><trkpt lat="43.724125864492535" lon="10.881024104726787"><ele>24.5</ele><time>2026-04-18T10:39:22.095Z</time></trkpt><trkpt lat="43.72403684262088" lon="10.881121062173913"><ele>24.75</ele><time>2026-04-18T10:39:24.095Z</time></trkpt><trkpt lat="43.72394586525646" lon="10.881217551120711"><ele>25.0</ele><time>2026-04-18T10:39:26.095Z</time></trkpt><trkpt lat="43.723854708780756" lon="10.881314845012433"><ele>25.0</ele><time>2026-04-18T10:39:28.095Z</time></trkpt><trkpt lat="43.72376673484659" lon="10.881413804022396"><ele>25.0</ele><time>2026-04-18T10:39:30.095Z</time></trkpt><trkpt lat="43.72368106044951" lon="10.881507645931054"><ele>25.0</ele><time>2026-04-18T10:39:32.095Z</time></trkpt><trkpt lat="43.72359089687093" lon="10.881595854136982"><ele>25.0</ele><time>2026-04-18T10:39:34.095Z</time></trkpt><trkpt lat="43.72354101325674" lon="10.88165146642472"><ele>25.0</ele><time>2026-04-18T10:39:35.095Z</time></trkpt><trkpt lat="43.72344640031598" lon="10.881751743630064"><ele>24.75</ele><time>2026-04-18T10:39:37.095Z</time></trkpt><trkpt lat="43.72334570428876" lon="10.881851976390584"><ele>24.5</ele><time>2026-04-18T10:39:39.095Z</time></trkpt><trkpt lat="43.72324785015131" lon="10.881957687934479"><ele>24.25</ele><time>2026-04-18T10:39:41.095Z</time></trkpt><trkpt lat="43.72315101154079" lon="10.882064580124934"><ele>24.0</ele><time>2026-04-18T10:39:43.095Z</time></trkpt><trkpt lat="43.72305650093129" lon="10.882167281381758"><ele>24.0</ele><time>2026-04-18T10:39:45.095Z</time></trkpt><trkpt lat="43.72296322484227" lon="10.88225907697281"><ele>24.0</ele><time>2026-04-18T10:39:47.095Z</time></trkpt><trkpt lat="43.72287601919041" lon="10.882356212890837"><ele>24.0</ele><time>2026-04-18T10:39:49.095Z</time></trkpt><trkpt lat="43.7227862617288" lon="10.88245480957036"><ele>24.0</ele><time>2026-04-18T10:39:51.095Z</time></trkpt><trkpt lat="43.72269077026446" lon="10.882530440309873"><ele>24.2</ele><time>2026-04-18T10:39:53.095Z</time></trkpt><trkpt lat="43.72264045235988" lon="10.882583151612735"><ele>24.4</ele><time>2026-04-18T10:39:54.095Z</time></trkpt><trkpt lat="43.72255085732627" lon="10.88267694799533"><ele>24.6</ele><time>2026-04-18T10:39:56.095Z</time></trkpt><trkpt lat="43.7224596352092" lon="10.882771718900248"><ele>24.8</ele><time>2026-04-18T10:39:58.095Z</time></trkpt><trkpt lat="43.72237448159164" lon="10.882860185191863"><ele>25.0</ele><time>2026-04-18T10:40:00.095Z</time></trkpt><trkpt lat="43.72228931322127" lon="10.88294866681277"><ele>24.6</ele><time>2026-04-18T10:40:02.095Z</time></trkpt><trkpt lat="43.722206097007835" lon="10.883035219273571"><ele>24.2</ele><time>2026-04-18T10:40:04.095Z</time></trkpt><trkpt lat="43.722127208377245" lon="10.883117299620753"><ele>23.799999999999997</ele><time>2026-04-18T10:40:06.095Z</time></trkpt><trkpt lat="43.72204462774561" lon="10.88320282947932"><ele>23.4</ele><time>2026-04-18T10:40:08.095Z</time></trkpt><trkpt lat="43.72196121446505" lon="10.883289191738523"><ele>23.0</ele><time>2026-04-18T10:40:10.095Z</time></trkpt><trkpt lat="43.72187546742825" lon="10.88337797023126"><ele>22.2</ele><time>2026-04-18T10:40:12.095Z</time></trkpt><trkpt lat="43.72179190830707" lon="10.883464483466144"><ele>21.4</ele><time>2026-04-18T10:40:14.095Z</time></trkpt><trkpt lat="43.72170863942264" lon="10.883550696191763"><ele>20.599999999999998</ele><time>2026-04-18T10:40:16.095Z</time></trkpt><trkpt lat="43.72162303357151" lon="10.883639099277344"><ele>19.799999999999997</ele><time>2026-04-18T10:40:18.095Z</time></trkpt><trkpt lat="43.721538308947956" lon="10.883726584006347"><ele>19.0</ele><time>2026-04-18T10:40:20.095Z</time></trkpt><trkpt lat="43.72145039192925" lon="10.883817365132728"><ele>19.0</ele><time>2026-04-18T10:40:22.095Z</time></trkpt><trkpt lat="43.72137535428536" lon="10.883895156055782"><ele>19.0</ele><time>2026-04-18T10:40:24.095Z</time></trkpt><trkpt lat="43.721297553794464" lon="10.883976894842286"><ele>19.0</ele><time>2026-04-18T10:40:26.095Z</time></trkpt><trkpt lat="43.72124037970895" lon="10.88403599324853"><ele>19.0</ele><time>2026-04-18T10:40:28.095Z</time></trkpt><trkpt lat="43.72134851918743" lon="10.884216055911834"><ele>19.0</ele><time>2026-04-18T10:40:31.095Z</time></trkpt><trkpt lat="43.721449526493835" lon="10.884287371620324"><ele>19.71428571428571</ele><time>2026-04-18T10:40:33.095Z</time></trkpt><trkpt lat="43.72150816626439" lon="10.884351894851232"><ele>20.42857142857143</ele><time>2026-04-18T10:40:34.095Z</time></trkpt><trkpt lat="43.72155295116823" lon="10.884421870871831"><ele>21.142857142857142</ele><time>2026-04-18T10:40:35.095Z</time></trkpt><trkpt lat="43.72159733424914" lon="10.884491352385675"><ele>21.857142857142854</ele><time>2026-04-18T10:40:36.095Z</time></trkpt><trkpt lat="43.721644541480025" lon="10.884556595113683"><ele>22.57142857142857</ele><time>2026-04-18T10:40:37.095Z</time></trkpt><trkpt lat="43.721690639608546" lon="10.884619835606816"><ele>23.285714285714285</ele><time>2026-04-18T10:40:38.095Z</time></trkpt><trkpt lat="43.72173340563516" lon="10.884684564443138"><ele>24.0</ele><time>2026-04-18T10:40:39.095Z</time></trkpt><trkpt lat="43.72177759448658" lon="10.884755883577055"><ele>24.0</ele><time>2026-04-18T10:40:40.095Z</time></trkpt><trkpt lat="43.72186012813396" lon="10.88487567069414"><ele>24.0</ele><time>2026-04-18T10:40:42.095Z</time></trkpt><trkpt lat="43.72190440316152" lon="10.884938334741848"><ele>24.0</ele><time>2026-04-18T10:40:43.095Z</time></trkpt><trkpt lat="43.72198065671285" lon="10.885052040816596"><ele>24.0</ele><time>2026-04-18T10:40:45.095Z</time></trkpt><trkpt lat="43.72202574647535" lon="10.885114906656867"><ele>24.0</ele><time>2026-04-18T10:40:46.095Z</time></trkpt><trkpt lat="43.72209837440955" lon="10.885230577104412"><ele>23.6</ele><time>2026-04-18T10:40:48.095Z</time></trkpt><trkpt lat="43.72217869944075" lon="10.885336866475868"><ele>23.2</ele><time>2026-04-18T10:40:50.095Z</time></trkpt><trkpt lat="43.722252520072445" lon="10.885449835597203"><ele>22.8</ele><time>2026-04-18T10:40:52.095Z</time></trkpt><trkpt lat="43.72233170132883" lon="10.885564985781171"><ele>22.400000000000002</ele><time>2026-04-18T10:40:54.095Z</time></trkpt><trkpt lat="43.722405918607926" lon="10.885676106942745"><ele>22.0</ele><time>2026-04-18T10:40:56.095Z</time></trkpt><trkpt lat="43.72247392214626" lon="10.885781771494546"><ele>22.0</ele><time>2026-04-18T10:40:58.095Z</time></trkpt><trkpt lat="43.72254405198653" lon="10.885889482351827"><ele>22.0</ele><time>2026-04-18T10:41:00.095Z</time></trkpt><trkpt lat="43.72261788978396" lon="10.886001275186013"><ele>22.0</ele><time>2026-04-18T10:41:02.095Z</time></trkpt><trkpt lat="43.722697245343184" lon="10.88611947635689"><ele>22.0</ele><time>2026-04-18T10:41:04.095Z</time></trkpt><trkpt lat="43.72277159701644" lon="10.886234196828372"><ele>22.0</ele><time>2026-04-18T10:41:06.095Z</time></trkpt><trkpt lat="43.72284158748518" lon="10.886334256173607"><ele>22.0</ele><time>2026-04-18T10:41:08.095Z</time></trkpt><trkpt lat="43.72290077785665" lon="10.886439853125543"><ele>22.0</ele><time>2026-04-18T10:41:10.094Z</time></trkpt><trkpt lat="43.7229497565006" lon="10.886539177734488"><ele>22.0</ele><time>2026-04-18T10:41:12.094Z</time></trkpt><trkpt lat="43.72299217618902" lon="10.886615548055294"><ele>22.0</ele><time>2026-04-18T10:41:14.094Z</time></trkpt><trkpt lat="43.72303908297158" lon="10.88668015045784"><ele>22.0</ele><time>2026-04-18T10:41:16.094Z</time></trkpt><trkpt lat="43.723111155909734" lon="10.886744748600638"><ele>22.0</ele><time>2026-04-18T10:41:18.093Z</time></trkpt><trkpt lat="43.72321322825124" lon="10.886801723544265"><ele>22.0</ele><time>2026-04-18T10:41:20.093Z</time></trkpt><trkpt lat="43.72326949428895" lon="10.886848793455119"><ele>22.0</ele><time>2026-04-18T10:41:21.093Z</time></trkpt><trkpt lat="43.72333335486983" lon="10.886913119109943"><ele>22.0</ele><time>2026-04-18T10:41:22.093Z</time></trkpt><trkpt lat="43.723392732892634" lon="10.886991151014499"><ele>22.0</ele><time>2026-04-18T10:41:23.093Z</time></trkpt><trkpt lat="43.72345151812206" lon="10.887072539139467"><ele>22.0</ele><time>2026-04-18T10:41:24.093Z</time></trkpt><trkpt lat="43.7234927619947" lon="10.887158730530407"><ele>22.0</ele><time>2026-04-18T10:41:25.093Z</time></trkpt><trkpt lat="43.723523074647154" lon="10.887238866503639"><ele>22.0</ele><time>2026-04-18T10:41:26.093Z</time></trkpt><trkpt lat="43.7235820906269" lon="10.887372097937073"><ele>22.0</ele><time>2026-04-18T10:41:28.093Z</time></trkpt><trkpt lat="43.723645877249226" lon="10.887477765664137"><ele>22.0</ele><time>2026-04-18T10:41:30.093Z</time></trkpt><trkpt lat="43.723717288974534" lon="10.88758798388887"><ele>22.0</ele><time>2026-04-18T10:41:32.093Z</time></trkpt><trkpt lat="43.72378058364032" lon="10.887685021686476"><ele>22.0</ele><time>2026-04-18T10:41:34.093Z</time></trkpt><trkpt lat="43.723848407155764" lon="10.887787939552654"><ele>22.0</ele><time>2026-04-18T10:41:36.093Z</time></trkpt><trkpt lat="43.72391487638989" lon="10.88788454082775"><ele>22.0</ele><time>2026-04-18T10:41:38.093Z</time></trkpt><trkpt lat="43.72398147449907" lon="10.88797756478958"><ele>22.0</ele><time>2026-04-18T10:41:40.093Z</time></trkpt><trkpt lat="43.72405582413481" lon="10.888072467432817"><ele>22.0</ele><time>2026-04-18T10:41:42.093Z</time></trkpt><trkpt lat="43.72413311286483" lon="10.888157939930704"><ele>22.0</ele><time>2026-04-18T10:41:44.093Z</time></trkpt><trkpt lat="43.72420801987993" lon="10.888250999548797"><ele>22.0</ele><time>2026-04-18T10:41:46.093Z</time></trkpt><trkpt lat="43.72428499086955" lon="10.888350849951424"><ele>22.0</ele><time>2026-04-18T10:41:48.093Z</time></trkpt><trkpt lat="43.72436635581456" lon="10.888436956611647"><ele>22.0</ele><time>2026-04-18T10:41:50.093Z</time></trkpt><trkpt lat="43.72444742290874" lon="10.888536525844268"><ele>22.0</ele><time>2026-04-18T10:41:52.093Z</time></trkpt><trkpt lat="43.72452937708607" lon="10.888635029694008"><ele>22.0</ele><time>2026-04-18T10:41:54.093Z</time></trkpt><trkpt lat="43.72460838471235" lon="10.8887279520579"><ele>22.200000000000003</ele><time>2026-04-18T10:41:56.093Z</time></trkpt><trkpt lat="43.72468679728" lon="10.888813868187773"><ele>22.4</ele><time>2026-04-18T10:41:58.093Z</time></trkpt><trkpt lat="43.72476247957662" lon="10.888904609943824"><ele>22.6</ele><time>2026-04-18T10:42:00.093Z</time></trkpt><trkpt lat="43.724841170470725" lon="10.889004654545753"><ele>22.799999999999997</ele><time>2026-04-18T10:42:02.093Z</time></trkpt><trkpt lat="43.724916842880035" lon="10.889088924414276"><ele>23.0</ele><time>2026-04-18T10:42:04.093Z</time></trkpt><trkpt lat="43.724990481442866" lon="10.889173211246883"><ele>23.0</ele><time>2026-04-18T10:42:06.093Z</time></trkpt><trkpt lat="43.72510967275667" lon="10.889302450692613"><ele>23.0</ele><time>2026-04-18T10:42:09.093Z</time></trkpt><trkpt lat="43.72518111053166" lon="10.889388247115445"><ele>23.0</ele><time>2026-04-18T10:42:11.093Z</time></trkpt><trkpt lat="43.72525958029089" lon="10.889471284563374"><ele>23.0</ele><time>2026-04-18T10:42:13.093Z</time></trkpt><trkpt lat="43.72520610845881" lon="10.889792295098948"><ele>23.0</ele><time>2026-04-18T10:42:14.093Z</time></trkpt><trkpt lat="43.72527325204789" lon="10.8898313220101"><ele>23.0</ele><time>2026-04-18T10:42:16.093Z</time></trkpt><trkpt lat="43.72534328422714" lon="10.88988593890701"><ele>23.0</ele><time>2026-04-18T10:42:18.093Z</time></trkpt><trkpt lat="43.72540949406206" lon="10.889948976749325"><ele>23.0</ele><time>2026-04-18T10:42:20.093Z</time></trkpt><trkpt lat="43.72548790583481" lon="10.890033201831866"><ele>23.0</ele><time>2026-04-18T10:42:22.093Z</time></trkpt><trkpt lat="43.72556725981577" lon="10.890118439105036"><ele>23.0</ele><time>2026-04-18T10:42:24.093Z</time></trkpt><trkpt lat="43.72564983129143" lon="10.89020658788885"><ele>23.4</ele><time>2026-04-18T10:42:26.093Z</time></trkpt><trkpt lat="43.7257290382767" lon="10.890290965243695"><ele>23.799999999999997</ele><time>2026-04-18T10:42:28.093Z</time></trkpt><trkpt lat="43.72580165978113" lon="10.890368327178743"><ele>24.2</ele><time>2026-04-18T10:42:30.093Z</time></trkpt><trkpt lat="43.72588157513395" lon="10.890453459161078"><ele>24.6</ele><time>2026-04-18T10:42:32.093Z</time></trkpt><trkpt lat="43.72596109891023" lon="10.890538173978332"><ele>25.0</ele><time>2026-04-18T10:42:34.093Z</time></trkpt><trkpt lat="43.72603662481204" lon="10.890618629941862"><ele>25.0</ele><time>2026-04-18T10:42:36.093Z</time></trkpt><trkpt lat="43.72611117233681" lon="10.8906980436711"><ele>25.0</ele><time>2026-04-18T10:42:38.093Z</time></trkpt><trkpt lat="43.72618976809645" lon="10.890777745012217"><ele>25.0</ele><time>2026-04-18T10:42:40.093Z</time></trkpt><trkpt lat="43.72628282544309" lon="10.890860048608356"><ele>25.0</ele><time>2026-04-18T10:42:42.093Z</time></trkpt><trkpt lat="43.72637933435149" lon="10.890929483612073"><ele>25.0</ele><time>2026-04-18T10:42:44.093Z</time></trkpt><trkpt lat="43.72646393255097" lon="10.8909907812746"><ele>25.0</ele><time>2026-04-18T10:42:46.093Z</time></trkpt><trkpt lat="43.72654200052025" lon="10.891050827275306"><ele>25.0</ele><time>2026-04-18T10:42:48.093Z</time></trkpt><trkpt lat="43.72666858933397" lon="10.890873545343524"><ele>25.0</ele><time>2026-04-18T10:42:49.093Z</time></trkpt><trkpt lat="43.72674949410583" lon="10.890940542062761"><ele>25.0</ele><time>2026-04-18T10:42:51.093Z</time></trkpt><trkpt lat="43.72681857741268" lon="10.891006760605586"><ele>25.0</ele><time>2026-04-18T10:42:53.093Z</time></trkpt><trkpt lat="43.726878845284865" lon="10.89105620324685"><ele>24.857142857142858</ele><time>2026-04-18T10:42:55.093Z</time></trkpt><trkpt lat="43.72696448541534" lon="10.891115246785823"><ele>24.714285714285715</ele><time>2026-04-18T10:42:58.093Z</time></trkpt><trkpt lat="43.72702446343793" lon="10.891155550274428"><ele>24.57142857142857</ele><time>2026-04-18T10:43:00.093Z</time></trkpt><trkpt lat="43.72708201921327" lon="10.891197912497667"><ele>24.42857142857143</ele><time>2026-04-18T10:43:02.093Z</time></trkpt><trkpt lat="43.72714429455238" lon="10.89124119641663"><ele>24.285714285714285</ele><time>2026-04-18T10:43:04.093Z</time></trkpt><trkpt lat="43.72720626706315" lon="10.891273311187414"><ele>24.142857142857142</ele><time>2026-04-18T10:43:06.093Z</time></trkpt><trkpt lat="43.727265694309956" lon="10.891329875319665"><ele>24.0</ele><time>2026-04-18T10:43:08.093Z</time></trkpt><trkpt lat="43.72732254064405" lon="10.891398613898598"><ele>24.0</ele><time>2026-04-18T10:43:10.093Z</time></trkpt><trkpt lat="43.72740357841485" lon="10.891470021681528"><ele>24.0</ele><time>2026-04-18T10:43:12.093Z</time></trkpt><trkpt lat="43.7274962854385" lon="10.891537196898582"><ele>24.0</ele><time>2026-04-18T10:43:14.093Z</time></trkpt><trkpt lat="43.72760391895966" lon="10.89160997185828"><ele>24.0</ele><time>2026-04-18T10:43:16.091Z</time></trkpt><trkpt lat="43.72771405264968" lon="10.891680502306528"><ele>24.0</ele><time>2026-04-18T10:43:18.091Z</time></trkpt><trkpt lat="43.72780929794112" lon="10.891746493926032"><ele>24.4</ele><time>2026-04-18T10:43:20.091Z</time></trkpt><trkpt lat="43.72790600603333" lon="10.891798242040318"><ele>24.799999999999997</ele><time>2026-04-18T10:43:22.091Z</time></trkpt><trkpt lat="43.72800413313509" lon="10.891854636307025"><ele>25.200000000000003</ele><time>2026-04-18T10:43:24.091Z</time></trkpt><trkpt lat="43.72810053202996" lon="10.891915888302538"><ele>25.6</ele><time>2026-04-18T10:43:26.091Z</time></trkpt><trkpt lat="43.728196314039" lon="10.891976682590789"><ele>26.0</ele><time>2026-04-18T10:43:28.091Z</time></trkpt><trkpt lat="43.728287598967974" lon="10.892032074670729"><ele>26.0</ele><time>2026-04-18T10:43:30.091Z</time></trkpt><trkpt lat="43.72837815819138" lon="10.892079868657843"><ele>26.0</ele><time>2026-04-18T10:43:33.091Z</time></trkpt><trkpt lat="43.7285235676727" lon="10.892161040163941"><ele>26.0</ele><time>2026-04-18T10:43:35.091Z</time></trkpt><trkpt lat="43.72860433139902" lon="10.892224452235723"><ele>26.0</ele><time>2026-04-18T10:43:37.091Z</time></trkpt><trkpt lat="43.7286799131938" lon="10.89228288893116"><ele>26.0</ele><time>2026-04-18T10:43:39.091Z</time></trkpt><trkpt lat="43.72875414133954" lon="10.892329645878256"><ele>25.499999999999996</ele><time>2026-04-18T10:43:41.091Z</time></trkpt><trkpt lat="43.72882102850464" lon="10.89237806240605"><ele>25.0</ele><time>2026-04-18T10:43:48.091Z</time></trkpt><trkpt lat="43.72889293685906" lon="10.892429651846289"><ele>24.5</ele><time>2026-04-18T10:43:50.091Z</time></trkpt><trkpt lat="43.72898230153692" lon="10.892498026133934"><ele>24.0</ele><time>2026-04-18T10:43:52.091Z</time></trkpt><trkpt lat="43.72905543420999" lon="10.892562897061872"><ele>23.5</ele><time>2026-04-18T10:43:54.091Z</time></trkpt><trkpt lat="43.729142759479416" lon="10.892634088951862"><ele>23.0</ele><time>2026-04-18T10:43:56.091Z</time></trkpt><trkpt lat="43.72924139352517" lon="10.892693678223221"><ele>23.0</ele><time>2026-04-18T10:43:58.091Z</time></trkpt><trkpt lat="43.729333202142556" lon="10.892753964154839"><ele>23.0</ele><time>2026-04-18T10:44:00.091Z</time></trkpt><trkpt lat="43.72942182015846" lon="10.89283277331998"><ele>23.0</ele><time>2026-04-18T10:44:02.091Z</time></trkpt><trkpt lat="43.72951636897569" lon="10.892902712917307"><ele>23.0</ele><time>2026-04-18T10:44:04.091Z</time></trkpt><trkpt lat="43.72961339181742" lon="10.89297558839906"><ele>23.0</ele><time>2026-04-18T10:44:06.091Z</time></trkpt><trkpt lat="43.72970523025532" lon="10.893045111233382"><ele>23.0</ele><time>2026-04-18T10:44:08.091Z</time></trkpt><trkpt lat="43.72978884772985" lon="10.893106824386733"><ele>23.0</ele><time>2026-04-18T10:44:10.091Z</time></trkpt><trkpt lat="43.72987304761616" lon="10.893173059927687"><ele>23.0</ele><time>2026-04-18T10:44:12.091Z</time></trkpt><trkpt lat="43.729953824340946" lon="10.893235330064856"><ele>23.0</ele><time>2026-04-18T10:44:14.091Z</time></trkpt><trkpt lat="43.73002685748137" lon="10.893316056001535"><ele>23.0</ele><time>2026-04-18T10:44:16.091Z</time></trkpt><trkpt lat="43.73010000088786" lon="10.893407834647377"><ele>23.0</ele><time>2026-04-18T10:44:18.091Z</time></trkpt><trkpt lat="43.73019803107097" lon="10.893487557010832"><ele>23.0</ele><time>2026-04-18T10:44:20.091Z</time></trkpt><trkpt lat="43.73031971248546" lon="10.893533647381972"><ele>23.0</ele><time>2026-04-18T10:44:22.091Z</time></trkpt><trkpt lat="43.73037853678866" lon="10.893565169676005"><ele>23.0</ele><time>2026-04-18T10:44:23.091Z</time></trkpt><trkpt lat="43.73049155159285" lon="10.893652220130681"><ele>23.0</ele><time>2026-04-18T10:44:25.091Z</time></trkpt><trkpt lat="43.730545162687" lon="10.89370063329434"><ele>23.25</ele><time>2026-04-18T10:44:26.091Z</time></trkpt><trkpt lat="43.73065428942156" lon="10.893787639348796"><ele>23.5</ele><time>2026-04-18T10:44:28.091Z</time></trkpt><trkpt lat="43.730759108869144" lon="10.893883533855286"><ele>23.75</ele><time>2026-04-18T10:44:30.091Z</time></trkpt><trkpt lat="43.730860727683364" lon="10.893967994165417"><ele>24.0</ele><time>2026-04-18T10:44:32.091Z</time></trkpt><trkpt lat="43.730947396528514" lon="10.894062068463853"><ele>24.0</ele><time>2026-04-18T10:44:34.091Z</time></trkpt><trkpt lat="43.731034221491996" lon="10.894148020709972"><ele>24.0</ele><time>2026-04-18T10:44:36.091Z</time></trkpt><trkpt lat="43.73111346215447" lon="10.894230004973977"><ele>24.0</ele><time>2026-04-18T10:44:38.091Z</time></trkpt><trkpt lat="43.731201054852356" lon="10.89432182065808"><ele>24.0</ele><time>2026-04-18T10:44:40.091Z</time></trkpt><trkpt lat="43.7312830649294" lon="10.894405655881533"><ele>24.0</ele><time>2026-04-18T10:44:42.091Z</time></trkpt><trkpt lat="43.73136971287889" lon="10.894494128372909"><ele>23.799999999999997</ele><time>2026-04-18T10:44:44.091Z</time></trkpt><trkpt lat="43.731469403990516" lon="10.894576342281264"><ele>23.599999999999998</ele><time>2026-04-18T10:44:46.091Z</time></trkpt><trkpt lat="43.731566226151415" lon="10.89461834555845"><ele>23.4</ele><time>2026-04-18T10:44:48.091Z</time></trkpt><trkpt lat="43.731647648910176" lon="10.894674501836336"><ele>23.2</ele><time>2026-04-18T10:44:51.091Z</time></trkpt><trkpt lat="43.73170371684597" lon="10.894745582526351"><ele>23.0</ele><time>2026-04-18T10:44:53.091Z</time></trkpt><trkpt lat="43.73176572757575" lon="10.894798635477876"><ele>23.0</ele><time>2026-04-18T10:44:55.091Z</time></trkpt><trkpt lat="43.73183196569081" lon="10.89480110163766"><ele>23.0</ele><time>2026-04-18T10:44:57.091Z</time></trkpt><trkpt lat="43.731887891733884" lon="10.894871341150454"><ele>23.0</ele><time>2026-04-18T10:44:59.091Z</time></trkpt><trkpt lat="43.7319547124179" lon="10.894937267913637"><ele>23.0</ele><time>2026-04-18T10:45:01.091Z</time></trkpt><trkpt lat="43.73201811493651" lon="10.89500109560578"><ele>23.0</ele><time>2026-04-18T10:45:03.091Z</time></trkpt><trkpt lat="43.73208338368427" lon="10.895060699653232"><ele>23.0</ele><time>2026-04-18T10:45:05.091Z</time></trkpt><trkpt lat="43.732163460808714" lon="10.895071818148711"><ele>23.0</ele><time>2026-04-18T10:45:07.091Z</time></trkpt><trkpt lat="43.732236186228704" lon="10.895148283406343"><ele>23.0</ele><time>2026-04-18T10:45:09.091Z</time></trkpt><trkpt lat="43.73230665172428" lon="10.895224320886323"><ele>23.0</ele><time>2026-04-18T10:45:11.091Z</time></trkpt><trkpt lat="43.73238142938291" lon="10.895292928274626"><ele>23.0</ele><time>2026-04-18T10:45:13.091Z</time></trkpt><trkpt lat="43.732457500990314" lon="10.895364448187115"><ele>23.0</ele><time>2026-04-18T10:45:15.091Z</time></trkpt><trkpt lat="43.732536311297096" lon="10.89545404689034"><ele>23.0</ele><time>2026-04-18T10:45:17.091Z</time></trkpt><trkpt lat="43.73262279274776" lon="10.895540232566068"><ele>23.0</ele><time>2026-04-18T10:45:19.091Z</time></trkpt><trkpt lat="43.73270705511983" lon="10.895626039896099"><ele>23.0</ele><time>2026-04-18T10:45:21.089Z</time></trkpt><trkpt lat="43.73279921517842" lon="10.895711205826887"><ele>23.0</ele><time>2026-04-18T10:45:23.089Z</time></trkpt><trkpt lat="43.73288755064894" lon="10.895805098376837"><ele>23.0</ele><time>2026-04-18T10:45:25.089Z</time></trkpt><trkpt lat="43.73297899727904" lon="10.895902317821504"><ele>22.75</ele><time>2026-04-18T10:45:27.089Z</time></trkpt><trkpt lat="43.73306082881516" lon="10.896010419376843"><ele>22.5</ele><time>2026-04-18T10:45:29.089Z</time></trkpt><trkpt lat="43.73313982172318" lon="10.896116298019704"><ele>22.25</ele><time>2026-04-18T10:45:31.089Z</time></trkpt><trkpt lat="43.73322010650782" lon="10.896227672720572"><ele>22.0</ele><time>2026-04-18T10:45:33.089Z</time></trkpt><trkpt lat="43.73330290257184" lon="10.896342035116227"><ele>22.0</ele><time>2026-04-18T10:45:35.089Z</time></trkpt><trkpt lat="43.73338128584678" lon="10.896458600684275"><ele>22.0</ele><time>2026-04-18T10:45:37.089Z</time></trkpt><trkpt lat="43.7334522135888" lon="10.896574134230761"><ele>22.0</ele><time>2026-04-18T10:45:39.089Z</time></trkpt><trkpt lat="43.73352276892633" lon="10.896691814249257"><ele>22.0</ele><time>2026-04-18T10:45:41.089Z</time></trkpt><trkpt lat="43.733589990181194" lon="10.896813160124731"><ele>22.0</ele><time>2026-04-18T10:45:43.089Z</time></trkpt><trkpt lat="43.733655734678266" lon="10.896934790973422"><ele>21.8</ele><time>2026-04-18T10:45:45.089Z</time></trkpt><trkpt lat="43.733718002889646" lon="10.897055188463996"><ele>21.6</ele><time>2026-04-18T10:45:47.089Z</time></trkpt><trkpt lat="43.733780883943666" lon="10.89718317747114"><ele>21.400000000000002</ele><time>2026-04-18T10:45:49.089Z</time></trkpt><trkpt lat="43.733829989508344" lon="10.897290476008434"><ele>21.200000000000003</ele><time>2026-04-18T10:45:51.089Z</time></trkpt><trkpt lat="43.73388692758085" lon="10.897413855495996"><ele>21.0</ele><time>2026-04-18T10:45:53.089Z</time></trkpt><trkpt lat="43.73394073942052" lon="10.897540191226362"><ele>21.4</ele><time>2026-04-18T10:45:55.089Z</time></trkpt><trkpt lat="43.7339962321485" lon="10.897666185987953"><ele>21.8</ele><time>2026-04-18T10:45:57.089Z</time></trkpt><trkpt lat="43.73404457639646" lon="10.897796519379435"><ele>22.2</ele><time>2026-04-18T10:45:59.089Z</time></trkpt><trkpt lat="43.734092435647874" lon="10.8979268719115"><ele>22.599999999999998</ele><time>2026-04-18T10:46:01.089Z</time></trkpt><trkpt lat="43.73414018202242" lon="10.89806284116101"><ele>23.0</ele><time>2026-04-18T10:46:03.089Z</time></trkpt><trkpt lat="43.73418902602775" lon="10.898201846676493"><ele>23.0</ele><time>2026-04-18T10:46:05.089Z</time></trkpt><trkpt lat="43.73422947380032" lon="10.898339311950185"><ele>23.0</ele><time>2026-04-18T10:46:07.089Z</time></trkpt><trkpt lat="43.73427226242291" lon="10.898475560335244"><ele>23.0</ele><time>2026-04-18T10:46:09.089Z</time></trkpt><trkpt lat="43.734301578516245" lon="10.898618581916153"><ele>23.0</ele><time>2026-04-18T10:46:11.089Z</time></trkpt><trkpt lat="43.734319168679384" lon="10.898765628540847"><ele>23.0</ele><time>2026-04-18T10:46:13.089Z</time></trkpt><trkpt lat="43.73432854130154" lon="10.898913055334503"><ele>23.0</ele><time>2026-04-18T10:46:15.089Z</time></trkpt><trkpt lat="43.7343367578748" lon="10.899054777579442"><ele>23.0</ele><time>2026-04-18T10:46:17.089Z</time></trkpt><trkpt lat="43.734346620692016" lon="10.899196686498485"><ele>23.0</ele><time>2026-04-18T10:46:19.089Z</time></trkpt><trkpt lat="43.73435347362751" lon="10.899330940156002"><ele>23.0</ele><time>2026-04-18T10:46:21.089Z</time></trkpt><trkpt lat="43.73436404659031" lon="10.899475743681275"><ele>23.0</ele><time>2026-04-18T10:46:23.089Z</time></trkpt><trkpt lat="43.73437216826351" lon="10.899622654516529"><ele>23.0</ele><time>2026-04-18T10:46:25.089Z</time></trkpt><trkpt lat="43.73436957845137" lon="10.899773253314361"><ele>23.0</ele><time>2026-04-18T10:46:27.089Z</time></trkpt><trkpt lat="43.734355764031726" lon="10.899934163911336"><ele>23.0</ele><time>2026-04-18T10:46:29.089Z</time></trkpt><trkpt lat="43.734314522970294" lon="10.900096114426622"><ele>23.0</ele><time>2026-04-18T10:46:31.089Z</time></trkpt><trkpt lat="43.73426257895633" lon="10.900239930388988"><ele>22.75</ele><time>2026-04-18T10:46:33.089Z</time></trkpt><trkpt lat="43.73420948901336" lon="10.900377723813296"><ele>22.5</ele><time>2026-04-18T10:46:35.089Z</time></trkpt><trkpt lat="43.73416036862721" lon="10.900517639253097"><ele>22.25</ele><time>2026-04-18T10:46:37.089Z</time></trkpt><trkpt lat="43.73411149506842" lon="10.900660979470532"><ele>22.0</ele><time>2026-04-18T10:46:39.089Z</time></trkpt><trkpt lat="43.73408195423138" lon="10.900807848627382"><ele>21.6</ele><time>2026-04-18T10:46:41.089Z</time></trkpt><trkpt lat="43.734042855461574" lon="10.900947204077108"><ele>21.200000000000003</ele><time>2026-04-18T10:46:43.089Z</time></trkpt><trkpt lat="43.73397593956657" lon="10.901077114288404"><ele>20.8</ele><time>2026-04-18T10:46:45.089Z</time></trkpt><trkpt lat="43.73390580562967" lon="10.90120779034315"><ele>20.4</ele><time>2026-04-18T10:46:47.089Z</time></trkpt><trkpt lat="43.7338602824509" lon="10.901340159090097"><ele>20.0</ele><time>2026-04-18T10:46:49.089Z</time></trkpt><trkpt lat="43.73381190187536" lon="10.9014738742852"><ele>20.0</ele><time>2026-04-18T10:46:51.089Z</time></trkpt><trkpt lat="43.733758962726014" lon="10.901616280265763"><ele>20.0</ele><time>2026-04-18T10:46:53.089Z</time></trkpt><trkpt lat="43.73371462878276" lon="10.901763311402746"><ele>20.0</ele><time>2026-04-18T10:46:55.089Z</time></trkpt><trkpt lat="43.733672760874654" lon="10.901898942716375"><ele>20.0</ele><time>2026-04-18T10:46:57.089Z</time></trkpt><trkpt lat="43.7336318004442" lon="10.902039607696931"><ele>20.0</ele><time>2026-04-18T10:46:59.089Z</time></trkpt><trkpt lat="43.73359428832564" lon="10.902185641724454"><ele>20.75</ele><time>2026-04-18T10:47:01.089Z</time></trkpt><trkpt lat="43.7335518492363" lon="10.902327942379998"><ele>21.5</ele><time>2026-04-18T10:47:03.089Z</time></trkpt><trkpt lat="43.73351290867045" lon="10.902463978306992"><ele>22.25</ele><time>2026-04-18T10:47:05.089Z</time></trkpt><trkpt lat="43.73347283778524" lon="10.902607356566698"><ele>23.0</ele><time>2026-04-18T10:47:07.089Z</time></trkpt><trkpt lat="43.73330106753738" lon="10.902682978459714"><ele>23.0</ele><time>2026-04-18T10:47:09.089Z</time></trkpt><trkpt lat="43.733261577625235" lon="10.902826052447296"><ele>23.0</ele><time>2026-04-18T10:47:11.089Z</time></trkpt><trkpt lat="43.73322206811636" lon="10.902965653497793"><ele>23.0</ele><time>2026-04-18T10:47:13.089Z</time></trkpt><trkpt lat="43.73318065018657" lon="10.903109853611287"><ele>23.0</ele><time>2026-04-18T10:47:15.089Z</time></trkpt><trkpt lat="43.73313896024402" lon="10.903253735977888"><ele>23.0</ele><time>2026-04-18T10:47:17.089Z</time></trkpt><trkpt lat="43.73309799031609" lon="10.903395263077599"><ele>22.799999999999997</ele><time>2026-04-18T10:47:19.089Z</time></trkpt><trkpt lat="43.733057695838504" lon="10.903535898886684"><ele>22.6</ele><time>2026-04-18T10:47:21.089Z</time></trkpt><trkpt lat="43.73301588317328" lon="10.90368208188974"><ele>22.4</ele><time>2026-04-18T10:47:23.089Z</time></trkpt><trkpt lat="43.732975136452225" lon="10.903825431074413"><ele>22.200000000000003</ele><time>2026-04-18T10:47:25.089Z</time></trkpt><trkpt lat="43.7329354332337" lon="10.903965109167581"><ele>22.0</ele><time>2026-04-18T10:47:27.087Z</time></trkpt><trkpt lat="43.732895094102155" lon="10.9041070244429"><ele>21.8</ele><time>2026-04-18T10:47:29.087Z</time></trkpt><trkpt lat="43.732854121740104" lon="10.904248360483466"><ele>21.6</ele><time>2026-04-18T10:47:31.087Z</time></trkpt><trkpt lat="43.73281084131127" lon="10.904391607215189"><ele>21.400000000000002</ele><time>2026-04-18T10:47:33.087Z</time></trkpt><trkpt lat="43.73276468382916" lon="10.904505933329396"><ele>21.200000000000003</ele><time>2026-04-18T10:47:35.087Z</time></trkpt><trkpt lat="43.73270510915404" lon="10.90461591717383"><ele>21.0</ele><time>2026-04-18T10:47:37.087Z</time></trkpt><trkpt lat="43.73263592950303" lon="10.904694025863456"><ele>21.666666666666668</ele><time>2026-04-18T10:47:39.087Z</time></trkpt><trkpt lat="43.73270849868041" lon="10.904996659921185"><ele>22.333333333333336</ele><time>2026-04-18T10:47:41.087Z</time></trkpt><trkpt lat="43.73265698294226" lon="10.905138512790382"><ele>23.0</ele><time>2026-04-18T10:47:43.087Z</time></trkpt><trkpt lat="43.732586866809065" lon="10.905262503062179"><ele>23.0</ele><time>2026-04-18T10:47:45.087Z</time></trkpt><trkpt lat="43.732508985572224" lon="10.905378877353463"><ele>23.0</ele><time>2026-04-18T10:47:47.087Z</time></trkpt><trkpt lat="43.732436868287294" lon="10.905496728504977"><ele>23.0</ele><time>2026-04-18T10:47:49.087Z</time></trkpt><trkpt lat="43.73237531758278" lon="10.905633183672578"><ele>23.0</ele><time>2026-04-18T10:47:51.087Z</time></trkpt><trkpt lat="43.73232343102" lon="10.905764672497787"><ele>23.0</ele><time>2026-04-18T10:47:53.087Z</time></trkpt><trkpt lat="43.73227793565268" lon="10.905899781693677"><ele>23.0</ele><time>2026-04-18T10:47:55.087Z</time></trkpt><trkpt lat="43.73223214906956" lon="10.906030107383334"><ele>23.0</ele><time>2026-04-18T10:47:57.087Z</time></trkpt><trkpt lat="43.732184500708826" lon="10.90616670411154"><ele>23.0</ele><time>2026-04-18T10:47:59.087Z</time></trkpt><trkpt lat="43.73214266248732" lon="10.90629517545725"><ele>23.0</ele><time>2026-04-18T10:48:01.087Z</time></trkpt><trkpt lat="43.73209518736227" lon="10.906429611735868"><ele>23.0</ele><time>2026-04-18T10:48:03.087Z</time></trkpt><trkpt lat="43.73204608182481" lon="10.906567494709448"><ele>23.0</ele><time>2026-04-18T10:48:05.087Z</time></trkpt><trkpt lat="43.73199896116174" lon="10.906708145672201"><ele>23.0</ele><time>2026-04-18T10:48:07.087Z</time></trkpt><trkpt lat="43.73195141705325" lon="10.90685143491245"><ele>23.0</ele><time>2026-04-18T10:48:09.087Z</time></trkpt><trkpt lat="43.731906578341594" lon="10.906984987666373"><ele>23.0</ele><time>2026-04-18T10:48:11.087Z</time></trkpt><trkpt lat="43.73185649213415" lon="10.907126387287795"><ele>23.0</ele><time>2026-04-18T10:48:13.087Z</time></trkpt><trkpt lat="43.73180855395106" lon="10.907269015550577"><ele>23.0</ele><time>2026-04-18T10:48:15.087Z</time></trkpt><trkpt lat="43.73176155649402" lon="10.907405998987104"><ele>23.0</ele><time>2026-04-18T10:48:17.087Z</time></trkpt><trkpt lat="43.731715158241606" lon="10.907548763830416"><ele>23.0</ele><time>2026-04-18T10:48:19.087Z</time></trkpt><trkpt lat="43.73166982722933" lon="10.907686561502022"><ele>23.0</ele><time>2026-04-18T10:48:21.087Z</time></trkpt><trkpt lat="43.73161855269308" lon="10.907826229944186"><ele>22.599999999999998</ele><time>2026-04-18T10:48:23.087Z</time></trkpt><trkpt lat="43.73157536243957" lon="10.907959320948073"><ele>22.2</ele><time>2026-04-18T10:48:25.087Z</time></trkpt><trkpt lat="43.73152887271227" lon="10.90809764682733"><ele>21.8</ele><time>2026-04-18T10:48:27.087Z</time></trkpt><trkpt lat="43.731481965805386" lon="10.908235951037904"><ele>21.4</ele><time>2026-04-18T10:48:29.087Z</time></trkpt><trkpt lat="43.73143788216833" lon="10.90837355321889"><ele>21.0</ele><time>2026-04-18T10:48:31.087Z</time></trkpt><trkpt lat="43.73139355943735" lon="10.908511276079283"><ele>20.8</ele><time>2026-04-18T10:48:33.087Z</time></trkpt><trkpt lat="43.731345578458075" lon="10.908643172858357"><ele>20.6</ele><time>2026-04-18T10:48:35.087Z</time></trkpt><trkpt lat="43.73130358416754" lon="10.908778353891467"><ele>20.4</ele><time>2026-04-18T10:48:37.087Z</time></trkpt><trkpt lat="43.73125856396084" lon="10.908920664420485"><ele>20.2</ele><time>2026-04-18T10:48:39.087Z</time></trkpt><trkpt lat="43.731219371585674" lon="10.909065730255945"><ele>20.0</ele><time>2026-04-18T10:48:41.087Z</time></trkpt><trkpt lat="43.731189532305386" lon="10.909209105211776"><ele>20.0</ele><time>2026-04-18T10:48:43.087Z</time></trkpt><trkpt lat="43.73115837522916" lon="10.909362329479958"><ele>20.0</ele><time>2026-04-18T10:48:45.087Z</time></trkpt><trkpt lat="43.73109392452227" lon="10.909498051015243"><ele>20.0</ele><time>2026-04-18T10:48:47.087Z</time></trkpt><trkpt lat="43.73102209173286" lon="10.909618242204997"><ele>20.0</ele><time>2026-04-18T10:48:49.087Z</time></trkpt><trkpt lat="43.73095924061506" lon="10.909731865028665"><ele>20.0</ele><time>2026-04-18T10:48:51.087Z</time></trkpt><trkpt lat="43.730894416392886" lon="10.909852163643004"><ele>19.8</ele><time>2026-04-18T10:48:53.087Z</time></trkpt><trkpt lat="43.73083290814811" lon="10.909960326683835"><ele>19.6</ele><time>2026-04-18T10:48:55.087Z</time></trkpt><trkpt lat="43.73077458719986" lon="10.910075601751325"><ele>19.4</ele><time>2026-04-18T10:48:57.087Z</time></trkpt><trkpt lat="43.73071297795179" lon="10.910200287115495"><ele>19.2</ele><time>2026-04-18T10:48:59.087Z</time></trkpt><trkpt lat="43.730649859778694" lon="10.910319493879227"><ele>19.0</ele><time>2026-04-18T10:49:01.087Z</time></trkpt><trkpt lat="43.73058937689442" lon="10.910445761312713"><ele>19.0</ele><time>2026-04-18T10:49:03.087Z</time></trkpt><trkpt lat="43.73052582798826" lon="10.910567779502516"><ele>19.0</ele><time>2026-04-18T10:49:05.087Z</time></trkpt><trkpt lat="43.73045802697003" lon="10.910691382618687"><ele>19.0</ele><time>2026-04-18T10:49:07.087Z</time></trkpt><trkpt lat="43.73039505837569" lon="10.910816015017442"><ele>19.0</ele><time>2026-04-18T10:49:09.087Z</time></trkpt><trkpt lat="43.73034000863583" lon="10.910947909652501"><ele>19.0</ele><time>2026-04-18T10:49:11.087Z</time></trkpt><trkpt lat="43.73028050923081" lon="10.911081082897745"><ele>20.0</ele><time>2026-04-18T10:49:13.087Z</time></trkpt><trkpt lat="43.73021097873314" lon="10.91120059528497"><ele>21.0</ele><time>2026-04-18T10:49:15.087Z</time></trkpt><trkpt lat="43.730146910068754" lon="10.911316869450692"><ele>22.0</ele><time>2026-04-18T10:49:17.087Z</time></trkpt><trkpt lat="43.730123886376994" lon="10.911402329269885"><ele>23.0</ele><time>2026-04-18T10:49:18.087Z</time></trkpt><trkpt lat="43.72997886854505" lon="10.911411711840751"><ele>24.0</ele><time>2026-04-18T10:49:19.087Z</time></trkpt><trkpt lat="43.72995450135549" lon="10.911566934396035"><ele>24.0</ele><time>2026-04-18T10:49:21.087Z</time></trkpt><trkpt lat="43.72993780117487" lon="10.911732425597423"><ele>24.0</ele><time>2026-04-18T10:49:23.087Z</time></trkpt><trkpt lat="43.72993383382948" lon="10.911821600291512"><ele>24.0</ele><time>2026-04-18T10:49:24.087Z</time></trkpt><trkpt lat="43.72993201102451" lon="10.911978946271576"><ele>24.0</ele><time>2026-04-18T10:49:26.087Z</time></trkpt><trkpt lat="43.72993267928443" lon="10.912133921709954"><ele>24.0</ele><time>2026-04-18T10:49:28.087Z</time></trkpt><trkpt lat="43.72993068287253" lon="10.912286658970975"><ele>24.2</ele><time>2026-04-18T10:49:30.087Z</time></trkpt><trkpt lat="43.7299172822434" lon="10.9124117348362"><ele>24.4</ele><time>2026-04-18T10:49:32.087Z</time></trkpt><trkpt lat="43.729890644663534" lon="10.912521105272726"><ele>24.6</ele><time>2026-04-18T10:49:34.085Z</time></trkpt><trkpt lat="43.72983686226948" lon="10.912592734940105"><ele>24.8</ele><time>2026-04-18T10:49:37.085Z</time></trkpt><trkpt lat="43.72967789061719" lon="10.912756910146529"><ele>25.0</ele><time>2026-04-18T10:49:45.085Z</time></trkpt><trkpt lat="43.72963844634144" lon="10.912849816708686"><ele>24.6</ele><time>2026-04-18T10:49:47.085Z</time></trkpt><trkpt lat="43.72975663503818" lon="10.913156379146194"><ele>24.2</ele><time>2026-04-18T10:49:48.085Z</time></trkpt><trkpt lat="43.72974988164493" lon="10.913244169174266"><ele>23.799999999999997</ele><time>2026-04-18T10:49:49.085Z</time></trkpt><trkpt lat="43.72973712178279" lon="10.91333716605169"><ele>23.4</ele><time>2026-04-18T10:49:50.085Z</time></trkpt><trkpt lat="43.729729125661244" lon="10.91342472014487"><ele>23.0</ele><time>2026-04-18T10:49:51.085Z</time></trkpt><trkpt lat="43.72972102195496" lon="10.913512595713945"><ele>23.0</ele><time>2026-04-18T10:49:52.085Z</time></trkpt><trkpt lat="43.72971335063888" lon="10.913600319923459"><ele>23.0</ele><time>2026-04-18T10:49:53.085Z</time></trkpt><trkpt lat="43.72969931035402" lon="10.913745606391997"><ele>23.0</ele><time>2026-04-18T10:49:55.085Z</time></trkpt><trkpt lat="43.72967784345635" lon="10.913876510523904"><ele>23.0</ele><time>2026-04-18T10:49:57.085Z</time></trkpt><trkpt lat="43.729665305849046" lon="10.914018175386866"><ele>23.0</ele><time>2026-04-18T10:49:59.085Z</time></trkpt><trkpt lat="43.72964764615179" lon="10.914162378827855"><ele>22.799999999999997</ele><time>2026-04-18T10:50:01.085Z</time></trkpt><trkpt lat="43.7296358131538" lon="10.914299175669308"><ele>22.6</ele><time>2026-04-18T10:50:03.085Z</time></trkpt><trkpt lat="43.729619389054406" lon="10.914451653665378"><ele>22.4</ele><time>2026-04-18T10:50:05.085Z</time></trkpt><trkpt lat="43.729603745576064" lon="10.914595696494292"><ele>22.200000000000003</ele><time>2026-04-18T10:50:07.085Z</time></trkpt><trkpt lat="43.72956784768916" lon="10.9147391287077"><ele>22.0</ele><time>2026-04-18T10:50:09.085Z</time></trkpt><trkpt lat="43.729496995438986" lon="10.914868886465017"><ele>22.0</ele><time>2026-04-18T10:50:11.085Z</time></trkpt><trkpt lat="43.72941511873495" lon="10.91498745257217"><ele>22.0</ele><time>2026-04-18T10:50:13.085Z</time></trkpt><trkpt lat="43.72933582607005" lon="10.915103715023108"><ele>22.0</ele><time>2026-04-18T10:50:15.085Z</time></trkpt><trkpt lat="43.72925926386024" lon="10.915218765129515"><ele>22.0</ele><time>2026-04-18T10:50:17.085Z</time></trkpt><trkpt lat="43.72918330227664" lon="10.915335305898358"><ele>22.400000000000002</ele><time>2026-04-18T10:50:19.085Z</time></trkpt><trkpt lat="43.72910746367554" lon="10.915451652905258"><ele>22.8</ele><time>2026-04-18T10:50:21.085Z</time></trkpt><trkpt lat="43.72904090289009" lon="10.915572210861594"><ele>23.2</ele><time>2026-04-18T10:50:23.085Z</time></trkpt><trkpt lat="43.72900302424969" lon="10.91571222754335"><ele>23.6</ele><time>2026-04-18T10:50:25.085Z</time></trkpt><trkpt lat="43.728984420190244" lon="10.915849636850181"><ele>24.0</ele><time>2026-04-18T10:50:27.085Z</time></trkpt><trkpt lat="43.72894597630882" lon="10.915931663972636"><ele>24.0</ele><time>2026-04-18T10:50:29.085Z</time></trkpt><trkpt lat="43.72890145869805" lon="10.916047851215696"><ele>24.0</ele><time>2026-04-18T10:50:31.085Z</time></trkpt><trkpt lat="43.72890890631065" lon="10.916202525114837"><ele>24.0</ele><time>2026-04-18T10:50:33.085Z</time></trkpt><trkpt lat="43.72889197542861" lon="10.916351491162908"><ele>24.0</ele><time>2026-04-18T10:50:35.085Z</time></trkpt><trkpt lat="43.72887036431589" lon="10.916492355431243"><ele>24.0</ele><time>2026-04-18T10:50:37.085Z</time></trkpt><trkpt lat="43.72884467471462" lon="10.91661713238627"><ele>23.799999999999997</ele><time>2026-04-18T10:50:39.085Z</time></trkpt><trkpt lat="43.72882510163622" lon="10.91674071144328"><ele>23.599999999999998</ele><time>2026-04-18T10:50:41.085Z</time></trkpt><trkpt lat="43.728796477416395" lon="10.916873690646124"><ele>23.4</ele><time>2026-04-18T10:50:43.085Z</time></trkpt><trkpt lat="43.728763328905266" lon="10.917011026623905"><ele>23.2</ele><time>2026-04-18T10:50:45.085Z</time></trkpt><trkpt lat="43.728732384763816" lon="10.917138888959684"><ele>23.0</ele><time>2026-04-18T10:50:47.085Z</time></trkpt><trkpt lat="43.72869215543193" lon="10.917274521409285"><ele>23.0</ele><time>2026-04-18T10:50:49.085Z</time></trkpt><trkpt lat="43.72865780151771" lon="10.917416843477522"><ele>23.0</ele><time>2026-04-18T10:50:51.085Z</time></trkpt><trkpt lat="43.72861981032967" lon="10.91756205491235"><ele>23.0</ele><time>2026-04-18T10:50:53.085Z</time></trkpt><trkpt lat="43.72857981944851" lon="10.917702323570422"><ele>23.0</ele><time>2026-04-18T10:50:55.085Z</time></trkpt><trkpt lat="43.72854425744929" lon="10.917847239155334"><ele>23.0</ele><time>2026-04-18T10:50:57.085Z</time></trkpt><trkpt lat="43.728508612083175" lon="10.91799573859585"><ele>23.2</ele><time>2026-04-18T10:50:59.085Z</time></trkpt><trkpt lat="43.72848064841615" lon="10.918133754236154"><ele>23.4</ele><time>2026-04-18T10:51:01.085Z</time></trkpt><trkpt lat="43.72845271847884" lon="10.918277990032415"><ele>23.599999999999998</ele><time>2026-04-18T10:51:03.085Z</time></trkpt><trkpt lat="43.72843080070717" lon="10.918416806880682"><ele>23.799999999999997</ele><time>2026-04-18T10:51:05.085Z</time></trkpt><trkpt lat="43.728403141499285" lon="10.918563755750752"><ele>24.0</ele><time>2026-04-18T10:51:07.085Z</time></trkpt><trkpt lat="43.72838107332431" lon="10.918704925320938"><ele>24.0</ele><time>2026-04-18T10:51:09.085Z</time></trkpt><trkpt lat="43.72835710124126" lon="10.918850803817495"><ele>24.0</ele><time>2026-04-18T10:51:11.085Z</time></trkpt><trkpt lat="43.728331077218876" lon="10.919000782506245"><ele>24.0</ele><time>2026-04-18T10:51:13.085Z</time></trkpt><trkpt lat="43.72830960351549" lon="10.919146614997763"><ele>24.0</ele><time>2026-04-18T10:51:15.085Z</time></trkpt><trkpt lat="43.72829193158131" lon="10.919292417866659"><ele>24.0</ele><time>2026-04-18T10:51:17.085Z</time></trkpt><trkpt lat="43.72827552772568" lon="10.919436566732044"><ele>23.799999999999997</ele><time>2026-04-18T10:51:19.085Z</time></trkpt><trkpt lat="43.72826147271499" lon="10.919579466775549"><ele>23.599999999999998</ele><time>2026-04-18T10:51:21.085Z</time></trkpt><trkpt lat="43.7282462570033" lon="10.919717963497698"><ele>23.4</ele><time>2026-04-18T10:51:23.085Z</time></trkpt><trkpt lat="43.72822617790466" lon="10.919845579408813"><ele>23.2</ele><time>2026-04-18T10:51:25.085Z</time></trkpt><trkpt lat="43.72821064482079" lon="10.919974319346533"><ele>23.0</ele><time>2026-04-18T10:51:27.085Z</time></trkpt><trkpt lat="43.72820706348629" lon="10.920091281742698"><ele>23.0</ele><time>2026-04-18T10:51:29.085Z</time></trkpt><trkpt lat="43.7282217605068" lon="10.920222123991213"><ele>23.0</ele><time>2026-04-18T10:51:31.085Z</time></trkpt><trkpt lat="43.72822518154023" lon="10.920357755055651"><ele>23.0</ele><time>2026-04-18T10:51:33.085Z</time></trkpt><trkpt lat="43.72822903542364" lon="10.920494429446968"><ele>23.0</ele><time>2026-04-18T10:51:35.085Z</time></trkpt><trkpt lat="43.72822317744454" lon="10.920636481001655"><ele>23.0</ele><time>2026-04-18T10:51:37.085Z</time></trkpt><trkpt lat="43.728219201574554" lon="10.920789800265933"><ele>23.4</ele><time>2026-04-18T10:51:39.083Z</time></trkpt><trkpt lat="43.72821237444844" lon="10.920941879630051"><ele>23.799999999999997</ele><time>2026-04-18T10:51:41.083Z</time></trkpt><trkpt lat="43.728208137983884" lon="10.921095430658458"><ele>24.2</ele><time>2026-04-18T10:51:43.083Z</time></trkpt><trkpt lat="43.728199654334865" lon="10.921249156657568"><ele>24.6</ele><time>2026-04-18T10:51:45.083Z</time></trkpt><trkpt lat="43.728193131029855" lon="10.921405478616528"><ele>25.0</ele><time>2026-04-18T10:51:47.083Z</time></trkpt><trkpt lat="43.72817671776507" lon="10.921551447032058"><ele>25.0</ele><time>2026-04-18T10:51:49.083Z</time></trkpt><trkpt lat="43.72815389038124" lon="10.921695421946664"><ele>25.0</ele><time>2026-04-18T10:51:51.083Z</time></trkpt><trkpt lat="43.72810782348661" lon="10.921839046617965"><ele>25.0</ele><time>2026-04-18T10:51:53.083Z</time></trkpt><trkpt lat="43.72807238859645" lon="10.921959371211544"><ele>25.0</ele><time>2026-04-18T10:51:55.083Z</time></trkpt><trkpt lat="43.72809673613476" lon="10.922052467495964"><ele>25.0</ele><time>2026-04-18T10:51:57.083Z</time></trkpt><trkpt lat="43.728180666373284" lon="10.922090681239323"><ele>24.25</ele><time>2026-04-18T10:52:00.083Z</time></trkpt><trkpt lat="43.728106611846655" lon="10.922360939367596"><ele>23.5</ele><time>2026-04-18T10:52:04.083Z</time></trkpt><trkpt lat="43.72807528474576" lon="10.922509375565934"><ele>22.75</ele><time>2026-04-18T10:52:06.083Z</time></trkpt><trkpt lat="43.728042830481165" lon="10.922661257914594"><ele>22.0</ele><time>2026-04-18T10:52:08.083Z</time></trkpt><trkpt lat="43.72800769971872" lon="10.922805455513947"><ele>21.400000000000002</ele><time>2026-04-18T10:52:10.083Z</time></trkpt><trkpt lat="43.72797618389622" lon="10.92294568996455"><ele>20.8</ele><time>2026-04-18T10:52:12.083Z</time></trkpt><trkpt lat="43.72794917334922" lon="10.923087820398148"><ele>20.2</ele><time>2026-04-18T10:52:14.083Z</time></trkpt><trkpt lat="43.72792212116463" lon="10.92323522852534"><ele>19.6</ele><time>2026-04-18T10:52:16.083Z</time></trkpt><trkpt lat="43.7278886994017" lon="10.923379531997973"><ele>19.0</ele><time>2026-04-18T10:52:18.083Z</time></trkpt><trkpt lat="43.72784300458212" lon="10.923516959014018"><ele>18.8</ele><time>2026-04-18T10:52:20.083Z</time></trkpt><trkpt lat="43.72780246981901" lon="10.923643590195082"><ele>18.599999999999998</ele><time>2026-04-18T10:52:22.083Z</time></trkpt><trkpt lat="43.72775885705129" lon="10.923779893213187"><ele>18.4</ele><time>2026-04-18T10:52:24.083Z</time></trkpt><trkpt lat="43.727710325052456" lon="10.923913265063444"><ele>18.2</ele><time>2026-04-18T10:52:26.083Z</time></trkpt><trkpt lat="43.72766093260293" lon="10.924051619280768"><ele>18.0</ele><time>2026-04-18T10:52:28.083Z</time></trkpt><trkpt lat="43.72761544669946" lon="10.924185193916188"><ele>19.0</ele><time>2026-04-18T10:52:30.083Z</time></trkpt><trkpt lat="43.72756676670196" lon="10.924314548651045"><ele>20.0</ele><time>2026-04-18T10:52:32.083Z</time></trkpt><trkpt lat="43.72751688591515" lon="10.924448503184001"><ele>21.0</ele><time>2026-04-18T10:52:34.083Z</time></trkpt><trkpt lat="43.727469389105636" lon="10.924582118211626"><ele>22.0</ele><time>2026-04-18T10:52:36.083Z</time></trkpt><trkpt lat="43.72742117275253" lon="10.92472112705313"><ele>23.0</ele><time>2026-04-18T10:52:38.083Z</time></trkpt><trkpt lat="43.727375711791375" lon="10.924852428161168"><ele>23.0</ele><time>2026-04-18T10:52:40.083Z</time></trkpt><trkpt lat="43.72731943883366" lon="10.924981808096527"><ele>23.0</ele><time>2026-04-18T10:52:42.083Z</time></trkpt><trkpt lat="43.72724857447945" lon="10.92509138654544"><ele>23.0</ele><time>2026-04-18T10:52:44.083Z</time></trkpt><trkpt lat="43.72717587841458" lon="10.92519644302852"><ele>23.0</ele><time>2026-04-18T10:52:46.083Z</time></trkpt><trkpt lat="43.72710748895466" lon="10.925310237417838"><ele>23.0</ele><time>2026-04-18T10:52:48.083Z</time></trkpt><trkpt lat="43.727038611268256" lon="10.925417605796547"><ele>23.0</ele><time>2026-04-18T10:52:50.083Z</time></trkpt><trkpt lat="43.72696802406103" lon="10.925532382714707"><ele>23.0</ele><time>2026-04-18T10:52:52.083Z</time></trkpt><trkpt lat="43.72689873144765" lon="10.925652516950338"><ele>23.0</ele><time>2026-04-18T10:52:54.083Z</time></trkpt><trkpt lat="43.72683405562482" lon="10.92577701890419"><ele>23.0</ele><time>2026-04-18T10:52:56.083Z</time></trkpt><trkpt lat="43.72676853985962" lon="10.925896415110834"><ele>23.0</ele><time>2026-04-18T10:52:58.083Z</time></trkpt><trkpt lat="43.72671160005306" lon="10.926019211694742"><ele>22.599999999999998</ele><time>2026-04-18T10:53:00.083Z</time></trkpt><trkpt lat="43.72664755102577" lon="10.926137303156596"><ele>22.2</ele><time>2026-04-18T10:53:02.083Z</time></trkpt><trkpt lat="43.7266002588888" lon="10.926265625389924"><ele>21.8</ele><time>2026-04-18T10:53:04.083Z</time></trkpt><trkpt lat="43.72658346132516" lon="10.926419199490244"><ele>21.4</ele><time>2026-04-18T10:53:06.083Z</time></trkpt><trkpt lat="43.72658370998543" lon="10.926508459313565"><ele>21.0</ele><time>2026-04-18T10:53:07.083Z</time></trkpt><trkpt lat="43.726563887001944" lon="10.926601471934681"><ele>21.0</ele><time>2026-04-18T10:53:08.083Z</time></trkpt><trkpt lat="43.726526541083125" lon="10.926680693037987"><ele>21.0</ele><time>2026-04-18T10:53:09.083Z</time></trkpt><trkpt lat="43.72646929888152" lon="10.926728234136409"><ele>21.0</ele><time>2026-04-18T10:53:10.083Z</time></trkpt><trkpt lat="43.72637976861579" lon="10.926799404569392"><ele>21.0</ele><time>2026-04-18T10:53:12.083Z</time></trkpt><trkpt lat="43.72632139329668" lon="10.92690684218075"><ele>21.0</ele><time>2026-04-18T10:53:14.083Z</time></trkpt><trkpt lat="43.72628414359214" lon="10.92704006982353"><ele>21.0</ele><time>2026-04-18T10:53:16.083Z</time></trkpt><trkpt lat="43.7262725873232" lon="10.927187710869667"><ele>21.0</ele><time>2026-04-18T10:53:18.083Z</time></trkpt><trkpt lat="43.72619463091044" lon="10.927295221081945"><ele>21.0</ele><time>2026-04-18T10:53:20.083Z</time></trkpt><trkpt lat="43.72611069737643" lon="10.927381014120378"><ele>21.0</ele><time>2026-04-18T10:53:22.083Z</time></trkpt><trkpt lat="43.72605889428628" lon="10.927511246785567"><ele>21.0</ele><time>2026-04-18T10:53:24.083Z</time></trkpt><trkpt lat="43.72600070613297" lon="10.927636681629497"><ele>21.0</ele><time>2026-04-18T10:53:26.083Z</time></trkpt><trkpt lat="43.72593703489712" lon="10.927748122307994"><ele>21.0</ele><time>2026-04-18T10:53:28.083Z</time></trkpt><trkpt lat="43.725880373150254" lon="10.927861599263798"><ele>21.0</ele><time>2026-04-18T10:53:30.083Z</time></trkpt><trkpt lat="43.72582592416707" lon="10.92797273595397"><ele>21.0</ele><time>2026-04-18T10:53:32.083Z</time></trkpt><trkpt lat="43.72576450461031" lon="10.928084668365539"><ele>21.0</ele><time>2026-04-18T10:53:34.083Z</time></trkpt><trkpt lat="43.725709648395025" lon="10.928197648464174"><ele>21.0</ele><time>2026-04-18T10:53:36.083Z</time></trkpt><trkpt lat="43.72564848388434" lon="10.92830974641732"><ele>20.8</ele><time>2026-04-18T10:53:38.083Z</time></trkpt><trkpt lat="43.72558723945647" lon="10.92842437511078"><ele>20.6</ele><time>2026-04-18T10:53:40.083Z</time></trkpt><trkpt lat="43.72552891536429" lon="10.928531469212036"><ele>20.4</ele><time>2026-04-18T10:53:42.083Z</time></trkpt><trkpt lat="43.725468125479935" lon="10.928630393236913"><ele>20.2</ele><time>2026-04-18T10:53:44.083Z</time></trkpt><trkpt lat="43.72542362217696" lon="10.928705349158248"><ele>20.0</ele><time>2026-04-18T10:53:47.081Z</time></trkpt><trkpt lat="43.72537207356086" lon="10.928811531347685"><ele>20.0</ele><time>2026-04-18T10:53:50.081Z</time></trkpt><trkpt lat="43.725320396684616" lon="10.928901600977284"><ele>20.0</ele><time>2026-04-18T10:53:52.081Z</time></trkpt><trkpt lat="43.7252629971196" lon="10.928989190279754"><ele>20.0</ele><time>2026-04-18T10:53:54.081Z</time></trkpt><trkpt lat="43.72521552498806" lon="10.929075094670607"><ele>20.0</ele><time>2026-04-18T10:53:56.081Z</time></trkpt><trkpt lat="43.725156421031194" lon="10.929128735911448"><ele>20.0</ele><time>2026-04-18T10:53:58.081Z</time></trkpt><trkpt lat="43.725107744054476" lon="10.929210146190952"><ele>20.0</ele><time>2026-04-18T10:54:00.081Z</time></trkpt><trkpt lat="43.72507181913723" lon="10.929318414394409"><ele>21.0</ele><time>2026-04-18T10:54:02.081Z</time></trkpt><trkpt lat="43.72508194091788" lon="10.929429141623524"><ele>22.0</ele><time>2026-04-18T10:54:04.081Z</time></trkpt><trkpt lat="43.72518361603296" lon="10.929524623789556"><ele>23.0</ele><time>2026-04-18T10:54:06.081Z</time></trkpt><trkpt lat="43.72521140436561" lon="10.929688812837837"><ele>24.0</ele><time>2026-04-18T10:54:08.081Z</time></trkpt><trkpt lat="43.72520518918629" lon="10.929776075012589"><ele>25.0</ele><time>2026-04-18T10:54:09.081Z</time></trkpt><trkpt lat="43.72518068900319" lon="10.929935588785138"><ele>24.25</ele><time>2026-04-18T10:54:11.081Z</time></trkpt><trkpt lat="43.72512204732921" lon="10.930078073503859"><ele>23.5</ele><time>2026-04-18T10:54:13.081Z</time></trkpt><trkpt lat="43.72505164118557" lon="10.930210272003485"><ele>22.75</ele><time>2026-04-18T10:54:15.081Z</time></trkpt><trkpt lat="43.72500701663675" lon="10.930352711030297"><ele>22.0</ele><time>2026-04-18T10:54:17.081Z</time></trkpt><trkpt lat="43.72496313281161" lon="10.930495724017476"><ele>22.0</ele><time>2026-04-18T10:54:19.081Z</time></trkpt><trkpt lat="43.72491450949482" lon="10.930645177058091"><ele>22.0</ele><time>2026-04-18T10:54:21.081Z</time></trkpt><trkpt lat="43.724872136938934" lon="10.930799075354406"><ele>22.0</ele><time>2026-04-18T10:54:23.081Z</time></trkpt><trkpt lat="43.724817145866275" lon="10.930941989223836"><ele>22.0</ele><time>2026-04-18T10:54:25.081Z</time></trkpt><trkpt lat="43.7247608074817" lon="10.931078068703282"><ele>22.0</ele><time>2026-04-18T10:54:27.081Z</time></trkpt><trkpt lat="43.72470589904151" lon="10.931219596219757"><ele>22.0</ele><time>2026-04-18T10:54:29.081Z</time></trkpt><trkpt lat="43.72465426524317" lon="10.931357920726736"><ele>22.0</ele><time>2026-04-18T10:54:31.081Z</time></trkpt><trkpt lat="43.72459588833366" lon="10.93149594237764"><ele>22.0</ele><time>2026-04-18T10:54:33.081Z</time></trkpt><trkpt lat="43.72453914132353" lon="10.931632601284882"><ele>22.0</ele><time>2026-04-18T10:54:35.081Z</time></trkpt><trkpt lat="43.72448026276305" lon="10.931771599042218"><ele>22.0</ele><time>2026-04-18T10:54:37.081Z</time></trkpt><trkpt lat="43.72442355687447" lon="10.931910006084966"><ele>22.0</ele><time>2026-04-18T10:54:39.081Z</time></trkpt><trkpt lat="43.724361188680895" lon="10.93204288119475"><ele>22.0</ele><time>2026-04-18T10:54:41.081Z</time></trkpt><trkpt lat="43.72430937371457" lon="10.932178358955692"><ele>22.0</ele><time>2026-04-18T10:54:43.081Z</time></trkpt><trkpt lat="43.72425729303444" lon="10.932311604060411"><ele>22.0</ele><time>2026-04-18T10:54:45.081Z</time></trkpt><trkpt lat="43.724204324352876" lon="10.932451932478884"><ele>22.0</ele><time>2026-04-18T10:54:47.081Z</time></trkpt><trkpt lat="43.724151178885016" lon="10.932587304062968"><ele>22.0</ele><time>2026-04-18T10:54:49.081Z</time></trkpt><trkpt lat="43.724098630790024" lon="10.932721244764094"><ele>22.0</ele><time>2026-04-18T10:54:51.081Z</time></trkpt><trkpt lat="43.724037969773065" lon="10.932846717612797"><ele>21.400000000000002</ele><time>2026-04-18T10:54:53.081Z</time></trkpt><trkpt lat="43.72398792165611" lon="10.932974299921113"><ele>20.8</ele><time>2026-04-18T10:54:55.081Z</time></trkpt><trkpt lat="43.72393242427681" lon="10.933098456573667"><ele>20.2</ele><time>2026-04-18T10:54:57.081Z</time></trkpt><trkpt lat="43.72387958259564" lon="10.933224705413389"><ele>19.6</ele><time>2026-04-18T10:54:59.081Z</time></trkpt><trkpt lat="43.723822784671995" lon="10.933346468464466"><ele>19.0</ele><time>2026-04-18T10:55:01.081Z</time></trkpt><trkpt lat="43.7237707097433" lon="10.933474117321682"><ele>19.0</ele><time>2026-04-18T10:55:03.081Z</time></trkpt><trkpt lat="43.72372018414514" lon="10.93359739268535"><ele>19.0</ele><time>2026-04-18T10:55:05.081Z</time></trkpt><trkpt lat="43.72366229260921" lon="10.933718073532592"><ele>19.0</ele><time>2026-04-18T10:55:07.081Z</time></trkpt><trkpt lat="43.723608709709" lon="10.933835605106385"><ele>19.0</ele><time>2026-04-18T10:55:09.081Z</time></trkpt><trkpt lat="43.723547707252685" lon="10.93394985332817"><ele>19.0</ele><time>2026-04-18T10:55:11.081Z</time></trkpt><trkpt lat="43.72333819288132" lon="10.933927052212786"><ele>19.2</ele><time>2026-04-18T10:55:13.081Z</time></trkpt><trkpt lat="43.72328004556514" lon="10.934050124539521"><ele>19.4</ele><time>2026-04-18T10:55:15.081Z</time></trkpt><trkpt lat="43.72321989216082" lon="10.934181866956926"><ele>19.6</ele><time>2026-04-18T10:55:17.081Z</time></trkpt><trkpt lat="43.72318867073367" lon="10.934259112665496"><ele>19.8</ele><time>2026-04-18T10:55:18.081Z</time></trkpt><trkpt lat="43.72313708285366" lon="10.934401312464523"><ele>20.0</ele><time>2026-04-18T10:55:20.081Z</time></trkpt><trkpt lat="43.72309375494518" lon="10.93452972748786"><ele>20.0</ele><time>2026-04-18T10:55:22.081Z</time></trkpt><trkpt lat="43.7230536832177" lon="10.934663103188754"><ele>20.0</ele><time>2026-04-18T10:55:24.081Z</time></trkpt><trkpt lat="43.7230140174548" lon="10.934803764688143"><ele>20.0</ele><time>2026-04-18T10:55:26.081Z</time></trkpt><trkpt lat="43.72297677188757" lon="10.934946977609371"><ele>20.0</ele><time>2026-04-18T10:55:28.081Z</time></trkpt><trkpt lat="43.72294372509637" lon="10.935085131462769"><ele>20.0</ele><time>2026-04-18T10:55:30.081Z</time></trkpt><trkpt lat="43.72291552781884" lon="10.935213107768694"><ele>19.2</ele><time>2026-04-18T10:55:32.081Z</time></trkpt><trkpt lat="43.72288756722802" lon="10.935348105814871"><ele>18.4</ele><time>2026-04-18T10:55:34.081Z</time></trkpt><trkpt lat="43.722863403174266" lon="10.935466828089154"><ele>17.6</ele><time>2026-04-18T10:55:36.081Z</time></trkpt><trkpt lat="43.72284222343901" lon="10.935601983069775"><ele>16.8</ele><time>2026-04-18T10:55:38.081Z</time></trkpt><trkpt lat="43.72284287851484" lon="10.93574366291401"><ele>16.0</ele><time>2026-04-18T10:55:40.081Z</time></trkpt><trkpt lat="43.72281898737992" lon="10.935878805968981"><ele>16.400000000000002</ele><time>2026-04-18T10:55:42.081Z</time></trkpt><trkpt lat="43.72279270286325" lon="10.936008324406478"><ele>16.8</ele><time>2026-04-18T10:55:44.081Z</time></trkpt><trkpt lat="43.72275357886151" lon="10.93613434239906"><ele>17.200000000000003</ele><time>2026-04-18T10:55:46.081Z</time></trkpt><trkpt lat="43.722726993064875" lon="10.93626208391589"><ele>17.6</ele><time>2026-04-18T10:55:48.081Z</time></trkpt><trkpt lat="43.72270022159682" lon="10.936396439381666"><ele>18.0</ele><time>2026-04-18T10:55:50.081Z</time></trkpt><trkpt lat="43.72267581390297" lon="10.936529385751427"><ele>18.8</ele><time>2026-04-18T10:55:52.079Z</time></trkpt><trkpt lat="43.72265253115864" lon="10.936667994816432"><ele>19.6</ele><time>2026-04-18T10:55:54.079Z</time></trkpt><trkpt lat="43.72263080275683" lon="10.936804952143959"><ele>20.400000000000002</ele><time>2026-04-18T10:55:56.079Z</time></trkpt><trkpt lat="43.72260965389261" lon="10.936942575949121"><ele>21.200000000000003</ele><time>2026-04-18T10:55:58.079Z</time></trkpt><trkpt lat="43.72259033967321" lon="10.937090152850008"><ele>22.0</ele><time>2026-04-18T10:56:00.079Z</time></trkpt><trkpt lat="43.72257171089626" lon="10.937228970287949"><ele>22.200000000000003</ele><time>2026-04-18T10:56:02.079Z</time></trkpt><trkpt lat="43.72255095271948" lon="10.937375607118371"><ele>22.4</ele><time>2026-04-18T10:56:04.079Z</time></trkpt><trkpt lat="43.72252828550783" lon="10.937518579003848"><ele>22.6</ele><time>2026-04-18T10:56:06.079Z</time></trkpt><trkpt lat="43.72250159753924" lon="10.93766327525768"><ele>22.799999999999997</ele><time>2026-04-18T10:56:08.079Z</time></trkpt><trkpt lat="43.72247507554756" lon="10.937803693385883"><ele>23.0</ele><time>2026-04-18T10:56:10.079Z</time></trkpt><trkpt lat="43.72245784981278" lon="10.93794456373374"><ele>23.0</ele><time>2026-04-18T10:56:12.079Z</time></trkpt><trkpt lat="43.722422930412264" lon="10.938076506617488"><ele>23.0</ele><time>2026-04-18T10:56:14.079Z</time></trkpt><trkpt lat="43.72237937313813" lon="10.93820406701735"><ele>23.0</ele><time>2026-04-18T10:56:16.079Z</time></trkpt><trkpt lat="43.7223272494506" lon="10.938324430173257"><ele>23.0</ele><time>2026-04-18T10:56:18.079Z</time></trkpt><trkpt lat="43.72226737463522" lon="10.938437661292152"><ele>23.0</ele><time>2026-04-18T10:56:20.079Z</time></trkpt><trkpt lat="43.72219023383808" lon="10.938534154600866"><ele>22.4</ele><time>2026-04-18T10:56:22.079Z</time></trkpt><trkpt lat="43.722128876476454" lon="10.938656594703676"><ele>21.799999999999997</ele><time>2026-04-18T10:56:24.079Z</time></trkpt><trkpt lat="43.722073032481795" lon="10.938785242347253"><ele>21.2</ele><time>2026-04-18T10:56:26.079Z</time></trkpt><trkpt lat="43.72201635209599" lon="10.938902060077332"><ele>20.6</ele><time>2026-04-18T10:56:28.079Z</time></trkpt><trkpt lat="43.72196952507212" lon="10.939020455231248"><ele>20.0</ele><time>2026-04-18T10:56:30.079Z</time></trkpt><trkpt lat="43.72189724802429" lon="10.93911594101802"><ele>21.0</ele><time>2026-04-18T10:56:32.079Z</time></trkpt><trkpt lat="43.72182801522996" lon="10.939266654666657"><ele>22.0</ele><time>2026-04-18T10:56:34.079Z</time></trkpt><trkpt lat="43.72180287970115" lon="10.939397789465044"><ele>23.0</ele><time>2026-04-18T10:56:36.079Z</time></trkpt><trkpt lat="43.72177296176051" lon="10.93952908979639"><ele>24.0</ele><time>2026-04-18T10:56:38.079Z</time></trkpt><trkpt lat="43.72173629797677" lon="10.939663738954769"><ele>25.0</ele><time>2026-04-18T10:56:40.079Z</time></trkpt><trkpt lat="43.721697653448764" lon="10.939801283015823"><ele>25.0</ele><time>2026-04-18T10:56:42.079Z</time></trkpt><trkpt lat="43.72166045568515" lon="10.939931633608687"><ele>25.0</ele><time>2026-04-18T10:56:44.079Z</time></trkpt><trkpt lat="43.72162772810055" lon="10.940068609766536"><ele>25.0</ele><time>2026-04-18T10:56:46.079Z</time></trkpt><trkpt lat="43.721600970924484" lon="10.940236221118964"><ele>25.0</ele><time>2026-04-18T10:56:48.079Z</time></trkpt><trkpt lat="43.72159481706866" lon="10.940324975594535"><ele>25.0</ele><time>2026-04-18T10:56:49.079Z</time></trkpt><trkpt lat="43.721594718980825" lon="10.940494736449791"><ele>24.833333333333336</ele><time>2026-04-18T10:56:51.079Z</time></trkpt><trkpt lat="43.72160153258718" lon="10.940583009304893"><ele>24.666666666666668</ele><time>2026-04-18T10:56:52.079Z</time></trkpt><trkpt lat="43.721614830927656" lon="10.940670489457714"><ele>24.5</ele><time>2026-04-18T10:56:53.079Z</time></trkpt><trkpt lat="43.721631941308324" lon="10.940754979896333"><ele>24.333333333333336</ele><time>2026-04-18T10:56:54.079Z</time></trkpt><trkpt lat="43.72166224119776" lon="10.94090786950323"><ele>24.166666666666668</ele><time>2026-04-18T10:56:56.079Z</time></trkpt><trkpt lat="43.72169288332798" lon="10.94105445943649"><ele>24.0</ele><time>2026-04-18T10:56:58.079Z</time></trkpt><trkpt lat="43.72172452670836" lon="10.941204474055603"><ele>24.4</ele><time>2026-04-18T10:57:00.079Z</time></trkpt><trkpt lat="43.72175420082036" lon="10.941346494734423"><ele>24.799999999999997</ele><time>2026-04-18T10:57:02.079Z</time></trkpt><trkpt lat="43.721784440394316" lon="10.941491914257165"><ele>25.200000000000003</ele><time>2026-04-18T10:57:04.079Z</time></trkpt><trkpt lat="43.721814742666815" lon="10.941637634738784"><ele>25.6</ele><time>2026-04-18T10:57:06.079Z</time></trkpt><trkpt lat="43.72184540316547" lon="10.941785078163868"><ele>26.0</ele><time>2026-04-18T10:57:08.079Z</time></trkpt><trkpt lat="43.7218738527148" lon="10.941921889313566"><ele>25.8</ele><time>2026-04-18T10:57:10.079Z</time></trkpt><trkpt lat="43.721905646115935" lon="10.942074780539704"><ele>25.6</ele><time>2026-04-18T10:57:12.079Z</time></trkpt><trkpt lat="43.72193683802718" lon="10.942219153272926"><ele>25.4</ele><time>2026-04-18T10:57:14.079Z</time></trkpt><trkpt lat="43.72197048735056" lon="10.942362789832416"><ele>25.2</ele><time>2026-04-18T10:57:16.079Z</time></trkpt><trkpt lat="43.72200856631043" lon="10.942512289098019"><ele>25.0</ele><time>2026-04-18T10:57:18.079Z</time></trkpt><trkpt lat="43.72204613154795" lon="10.942654213459265"><ele>25.0</ele><time>2026-04-18T10:57:20.079Z</time></trkpt><trkpt lat="43.72208183366348" lon="10.942786293921687"><ele>25.0</ele><time>2026-04-18T10:57:22.079Z</time></trkpt><trkpt lat="43.7221207951297" lon="10.942918343388186"><ele>25.0</ele><time>2026-04-18T10:57:24.079Z</time></trkpt><trkpt lat="43.72222614438554" lon="10.942918254201743"><ele>25.0</ele><time>2026-04-18T10:57:25.079Z</time></trkpt><trkpt lat="43.72225663636746" lon="10.94304092901656"><ele>25.0</ele><time>2026-04-18T10:57:27.079Z</time></trkpt><trkpt lat="43.722280524541986" lon="10.943163479570762"><ele>25.0</ele><time>2026-04-18T10:57:29.079Z</time></trkpt><trkpt lat="43.72222182110839" lon="10.943263137784834"><ele>25.0</ele><time>2026-04-18T10:57:30.079Z</time></trkpt><trkpt lat="43.72225827296448" lon="10.943387337631126"><ele>25.0</ele><time>2026-04-18T10:57:32.079Z</time></trkpt><trkpt lat="43.72229038009048" lon="10.943497534692927"><ele>25.0</ele><time>2026-04-18T10:57:34.079Z</time></trkpt><trkpt lat="43.722327093867875" lon="10.943623542527344"><ele>25.0</ele><time>2026-04-18T10:57:36.079Z</time></trkpt><trkpt lat="43.72235655358353" lon="10.943724653377503"><ele>25.666666666666668</ele><time>2026-04-18T10:57:38.079Z</time></trkpt><trkpt lat="43.72238518303185" lon="10.943821546507422"><ele>26.333333333333336</ele><time>2026-04-18T10:57:40.079Z</time></trkpt><trkpt lat="43.72241336934106" lon="10.94391312777703"><ele>27.0</ele><time>2026-04-18T10:57:42.079Z</time></trkpt><trkpt lat="43.7224440411876" lon="10.944010102001673"><ele>27.666666666666664</ele><time>2026-04-18T10:57:44.079Z</time></trkpt><trkpt lat="43.72247508382479" lon="10.944100468094604"><ele>28.333333333333332</ele><time>2026-04-18T10:57:47.079Z</time></trkpt><trkpt lat="43.72251309213693" lon="10.944208117461189"><ele>29.0</ele><time>2026-04-18T10:57:50.079Z</time></trkpt><trkpt lat="43.72254805448077" lon="10.94429985605278"><ele>29.499999999999996</ele><time>2026-04-18T10:57:52.079Z</time></trkpt><trkpt lat="43.722590981670784" lon="10.944400400978251"><ele>30.0</ele><time>2026-04-18T10:57:54.079Z</time></trkpt><trkpt lat="43.72263732187829" lon="10.944497632696558"><ele>30.5</ele><time>2026-04-18T10:57:56.079Z</time></trkpt><trkpt lat="43.72268559680726" lon="10.944593889024516"><ele>31.0</ele><time>2026-04-18T10:57:58.077Z</time></trkpt><trkpt lat="43.722742986936865" lon="10.944700070586594"><ele>31.499999999999996</ele><time>2026-04-18T10:58:00.077Z</time></trkpt><trkpt lat="43.72279966961846" lon="10.94480550524586"><ele>32.0</ele><time>2026-04-18T10:58:02.077Z</time></trkpt><trkpt lat="43.72286074958056" lon="10.944916324283495"><ele>31.400000000000002</ele><time>2026-04-18T10:58:04.077Z</time></trkpt><trkpt lat="43.72292109093404" lon="10.945025803180194"><ele>30.800000000000004</ele><time>2026-04-18T10:58:06.077Z</time></trkpt><trkpt lat="43.722979769661244" lon="10.945132264753193"><ele>30.2</ele><time>2026-04-18T10:58:08.077Z</time></trkpt><trkpt lat="43.72304015848457" lon="10.945241748902989"><ele>29.6</ele><time>2026-04-18T10:58:10.077Z</time></trkpt><trkpt lat="43.7230961497091" lon="10.945343274015316"><ele>29.0</ele><time>2026-04-18T10:58:12.077Z</time></trkpt><trkpt lat="43.72314930323979" lon="10.945439653866243"><ele>29.0</ele><time>2026-04-18T10:58:14.077Z</time></trkpt><trkpt lat="43.72320150714626" lon="10.9455343117156"><ele>29.0</ele><time>2026-04-18T10:58:16.077Z</time></trkpt><trkpt lat="43.72325757774248" lon="10.945636223275967"><ele>29.0</ele><time>2026-04-18T10:58:18.077Z</time></trkpt><trkpt lat="43.723313017468655" lon="10.945737953050642"><ele>29.0</ele><time>2026-04-18T10:58:20.077Z</time></trkpt><trkpt lat="43.7233663089592" lon="10.945836707193774"><ele>29.0</ele><time>2026-04-18T10:58:22.077Z</time></trkpt><trkpt lat="43.7234200189335" lon="10.945937125296135"><ele>29.333333333333332</ele><time>2026-04-18T10:58:24.077Z</time></trkpt><trkpt lat="43.723474933992605" lon="10.94603722119455"><ele>29.666666666666664</ele><time>2026-04-18T10:58:26.077Z</time></trkpt><trkpt lat="43.723530604954234" lon="10.946134073445737"><ele>30.0</ele><time>2026-04-18T10:58:28.077Z</time></trkpt><trkpt lat="43.723577281113194" lon="10.946215276859819"><ele>30.333333333333336</ele><time>2026-04-18T10:58:30.077Z</time></trkpt><trkpt lat="43.72361992578527" lon="10.946289464696807"><ele>30.666666666666668</ele><time>2026-04-18T10:58:33.077Z</time></trkpt><trkpt lat="43.72356884294235" lon="10.946415324658997"><ele>31.0</ele><time>2026-04-18T10:58:39.077Z</time></trkpt><trkpt lat="43.72354852651866" lon="10.946537906682428"><ele>31.0</ele><time>2026-04-18T10:58:41.077Z</time></trkpt><trkpt lat="43.72354891711466" lon="10.946670742792906"><ele>31.0</ele><time>2026-04-18T10:58:43.077Z</time></trkpt><trkpt lat="43.723607761054076" lon="10.946784418257735"><ele>31.0</ele><time>2026-04-18T10:58:45.077Z</time></trkpt><trkpt lat="43.7236991996602" lon="10.946846891420325"><ele>31.0</ele><time>2026-04-18T10:58:47.077Z</time></trkpt><trkpt lat="43.7237934420513" lon="10.946892200963273"><ele>31.0</ele><time>2026-04-18T10:58:49.077Z</time></trkpt><trkpt lat="43.723873599414716" lon="10.946964536222731"><ele>30.0</ele><time>2026-04-18T10:58:51.077Z</time></trkpt><trkpt lat="43.72395522397525" lon="10.947057192854205"><ele>29.0</ele><time>2026-04-18T10:58:53.077Z</time></trkpt><trkpt lat="43.724029701397264" lon="10.947159470793062"><ele>28.0</ele><time>2026-04-18T10:58:55.077Z</time></trkpt><trkpt lat="43.72408417780348" lon="10.947286646177913"><ele>27.0</ele><time>2026-04-18T10:58:57.077Z</time></trkpt><trkpt lat="43.72414835279745" lon="10.947403942490997"><ele>26.0</ele><time>2026-04-18T10:58:59.077Z</time></trkpt><trkpt lat="43.72420500520459" lon="10.947533496301208"><ele>26.0</ele><time>2026-04-18T10:59:01.077Z</time></trkpt><trkpt lat="43.72426527660347" lon="10.947663109357325"><ele>26.0</ele><time>2026-04-18T10:59:03.077Z</time></trkpt><trkpt lat="43.724327715499264" lon="10.947795514303419"><ele>26.0</ele><time>2026-04-18T10:59:05.077Z</time></trkpt><trkpt lat="43.724387647435734" lon="10.94793085361273"><ele>26.0</ele><time>2026-04-18T10:59:07.077Z</time></trkpt><trkpt lat="43.72445197627266" lon="10.948067431974943"><ele>26.25</ele><time>2026-04-18T10:59:09.077Z</time></trkpt><trkpt lat="43.724520340402336" lon="10.94820979366721"><ele>26.5</ele><time>2026-04-18T10:59:11.077Z</time></trkpt><trkpt lat="43.72457714226966" lon="10.9483569231152"><ele>26.75</ele><time>2026-04-18T10:59:13.077Z</time></trkpt><trkpt lat="43.72461591994961" lon="10.948512055860332"><ele>27.0</ele><time>2026-04-18T10:59:15.077Z</time></trkpt><trkpt lat="43.72464657329933" lon="10.94867920472891"><ele>27.0</ele><time>2026-04-18T10:59:17.077Z</time></trkpt><trkpt lat="43.724660648107395" lon="10.948848791341037"><ele>27.000000000000004</ele><time>2026-04-18T10:59:19.077Z</time></trkpt><trkpt lat="43.72466643899984" lon="10.948935884645577"><ele>27.000000000000004</ele><time>2026-04-18T10:59:20.077Z</time></trkpt><trkpt lat="43.72467186620277" lon="10.949104443462717"><ele>27.0</ele><time>2026-04-18T10:59:22.077Z</time></trkpt><trkpt lat="43.72464339056183" lon="10.949260689166703"><ele>27.0</ele><time>2026-04-18T10:59:24.077Z</time></trkpt><trkpt lat="43.72462360770718" lon="10.949405090373931"><ele>27.5</ele><time>2026-04-18T10:59:26.077Z</time></trkpt><trkpt lat="43.72459268352875" lon="10.949547164854275"><ele>28.0</ele><time>2026-04-18T10:59:28.077Z</time></trkpt><trkpt lat="43.72456046501901" lon="10.949681850963811"><ele>28.5</ele><time>2026-04-18T10:59:30.077Z</time></trkpt><trkpt lat="43.724726319401235" lon="10.949838601941156"><ele>29.0</ele><time>2026-04-18T10:59:32.077Z</time></trkpt><trkpt lat="43.724826582643615" lon="10.949924204531449"><ele>29.0</ele><time>2026-04-18T10:59:34.077Z</time></trkpt><trkpt lat="43.72492915011926" lon="10.950009073855965"><ele>29.0</ele><time>2026-04-18T10:59:36.077Z</time></trkpt><trkpt lat="43.725029884069066" lon="10.950092425987025"><ele>29.0</ele><time>2026-04-18T10:59:38.077Z</time></trkpt><trkpt lat="43.72512968177961" lon="10.950175002355335"><ele>29.0</ele><time>2026-04-18T10:59:40.077Z</time></trkpt><trkpt lat="43.72523060466986" lon="10.950258508418706"><ele>28.75</ele><time>2026-04-18T10:59:42.077Z</time></trkpt><trkpt lat="43.725350214280695" lon="10.950307822482111"><ele>28.5</ele><time>2026-04-18T10:59:44.077Z</time></trkpt><trkpt lat="43.725440294132156" lon="10.950393468674426"><ele>28.25</ele><time>2026-04-18T10:59:46.077Z</time></trkpt><trkpt lat="43.72554212263015" lon="10.950482809305326"><ele>28.0</ele><time>2026-04-18T10:59:48.077Z</time></trkpt><trkpt lat="43.725637100644256" lon="10.950566939347562"><ele>28.0</ele><time>2026-04-18T10:59:50.077Z</time></trkpt><trkpt lat="43.72573164556651" lon="10.950655122465747"><ele>28.0</ele><time>2026-04-18T10:59:52.077Z</time></trkpt><trkpt lat="43.725829087883774" lon="10.950741280147545"><ele>28.0</ele><time>2026-04-18T10:59:54.077Z</time></trkpt><trkpt lat="43.72592588732626" lon="10.950818643218106"><ele>28.0</ele><time>2026-04-18T10:59:56.077Z</time></trkpt><trkpt lat="43.72602293112779" lon="10.950892572423635"><ele>26.599999999999998</ele><time>2026-04-18T10:59:58.077Z</time></trkpt><trkpt lat="43.72611576013453" lon="10.950975404476958"><ele>25.199999999999996</ele><time>2026-04-18T11:00:00.077Z</time></trkpt><trkpt lat="43.726199056961185" lon="10.951053718729977"><ele>23.8</ele><time>2026-04-18T11:00:02.077Z</time></trkpt><trkpt lat="43.7262676390082" lon="10.951098140328405"><ele>22.4</ele><time>2026-04-18T11:00:04.075Z</time></trkpt><trkpt lat="43.72637607165672" lon="10.95120644096856"><ele>21.0</ele><time>2026-04-18T11:00:06.075Z</time></trkpt><trkpt lat="43.72646494725944" lon="10.951309023055686"><ele>21.0</ele><time>2026-04-18T11:00:08.075Z</time></trkpt><trkpt lat="43.72655202941995" lon="10.95139628959785"><ele>21.0</ele><time>2026-04-18T11:00:10.075Z</time></trkpt><trkpt lat="43.726630203657095" lon="10.951490491405567"><ele>21.0</ele><time>2026-04-18T11:00:12.075Z</time></trkpt><trkpt lat="43.72668724889579" lon="10.951547156648129"><ele>21.0</ele><time>2026-04-18T11:00:13.075Z</time></trkpt><trkpt lat="43.726744610610695" lon="10.95160556498643"><ele>21.0</ele><time>2026-04-18T11:00:14.075Z</time></trkpt><trkpt lat="43.72681352522967" lon="10.951682561896575"><ele>21.0</ele><time>2026-04-18T11:00:16.075Z</time></trkpt><trkpt lat="43.72689662455577" lon="10.951778736777628"><ele>22.0</ele><time>2026-04-18T11:00:18.075Z</time></trkpt><trkpt lat="43.72699238482211" lon="10.9518562758678"><ele>23.0</ele><time>2026-04-18T11:00:20.075Z</time></trkpt><trkpt lat="43.72708974102088" lon="10.951926221927376"><ele>24.0</ele><time>2026-04-18T11:00:22.075Z</time></trkpt><trkpt lat="43.727187805076774" lon="10.952018583134768"><ele>25.0</ele><time>2026-04-18T11:00:24.075Z</time></trkpt><trkpt lat="43.72728457678349" lon="10.952097764198024"><ele>25.0</ele><time>2026-04-18T11:00:26.075Z</time></trkpt><trkpt lat="43.727379532839194" lon="10.952186830727818"><ele>25.0</ele><time>2026-04-18T11:00:28.075Z</time></trkpt><trkpt lat="43.72746791090146" lon="10.952273160260415"><ele>25.0</ele><time>2026-04-18T11:00:30.075Z</time></trkpt><trkpt lat="43.72755590408335" lon="10.952374122573158"><ele>25.0</ele><time>2026-04-18T11:00:32.075Z</time></trkpt><trkpt lat="43.72763505360122" lon="10.952453632101145"><ele>25.0</ele><time>2026-04-18T11:00:34.075Z</time></trkpt><trkpt lat="43.7277251288464" lon="10.952529392817612"><ele>24.75</ele><time>2026-04-18T11:00:36.075Z</time></trkpt><trkpt lat="43.72776774406242" lon="10.952688573717381"><ele>24.5</ele><time>2026-04-18T11:00:38.075Z</time></trkpt><trkpt lat="43.72785779185306" lon="10.95277211109996"><ele>24.25</ele><time>2026-04-18T11:00:40.075Z</time></trkpt><trkpt lat="43.727954868245206" lon="10.952856857404749"><ele>24.0</ele><time>2026-04-18T11:00:42.075Z</time></trkpt><trkpt lat="43.728044454900115" lon="10.952934345127547"><ele>24.0</ele><time>2026-04-18T11:00:44.075Z</time></trkpt><trkpt lat="43.72813930339035" lon="10.953016383968873"><ele>24.0</ele><time>2026-04-18T11:00:46.075Z</time></trkpt><trkpt lat="43.72822389745682" lon="10.953098141737664"><ele>24.0</ele><time>2026-04-18T11:00:48.075Z</time></trkpt><trkpt lat="43.728315067217984" lon="10.953185967095779"><ele>24.0</ele><time>2026-04-18T11:00:50.075Z</time></trkpt><trkpt lat="43.72840594238166" lon="10.953273507388024"><ele>24.0</ele><time>2026-04-18T11:00:52.075Z</time></trkpt><trkpt lat="43.72849494512429" lon="10.9533592439706"><ele>24.25</ele><time>2026-04-18T11:00:54.075Z</time></trkpt><trkpt lat="43.728597488700544" lon="10.953288629031482"><ele>24.5</ele><time>2026-04-18T11:00:55.075Z</time></trkpt><trkpt lat="43.72868982120193" lon="10.953374805945506"><ele>24.75</ele><time>2026-04-18T11:00:57.075Z</time></trkpt><trkpt lat="43.72878270951436" lon="10.953460003841679"><ele>25.0</ele><time>2026-04-18T11:00:59.075Z</time></trkpt><trkpt lat="43.72887733689568" lon="10.953552711373437"><ele>25.0</ele><time>2026-04-18T11:01:01.075Z</time></trkpt><trkpt lat="43.72896340792106" lon="10.95364301440104"><ele>25.0</ele><time>2026-04-18T11:01:03.075Z</time></trkpt><trkpt lat="43.7290365579083" lon="10.953767087697955"><ele>25.0</ele><time>2026-04-18T11:01:05.075Z</time></trkpt><trkpt lat="43.72911733865981" lon="10.953883923806742"><ele>25.0</ele><time>2026-04-18T11:01:07.075Z</time></trkpt><trkpt lat="43.72920177457159" lon="10.95400037674134"><ele>25.0</ele><time>2026-04-18T11:01:09.075Z</time></trkpt><trkpt lat="43.72928080731456" lon="10.95411918478316"><ele>25.0</ele><time>2026-04-18T11:01:11.075Z</time></trkpt><trkpt lat="43.72936386823456" lon="10.95423398588369"><ele>25.0</ele><time>2026-04-18T11:01:13.075Z</time></trkpt><trkpt lat="43.72944817697309" lon="10.954340274074674"><ele>25.0</ele><time>2026-04-18T11:01:15.075Z</time></trkpt><trkpt lat="43.729523450063986" lon="10.954455664925598"><ele>25.0</ele><time>2026-04-18T11:01:17.075Z</time></trkpt><trkpt lat="43.729604744006245" lon="10.954568204788933"><ele>25.0</ele><time>2026-04-18T11:01:19.075Z</time></trkpt><trkpt lat="43.729684999071765" lon="10.954678701830623"><ele>25.0</ele><time>2026-04-18T11:01:21.075Z</time></trkpt><trkpt lat="43.729766621683865" lon="10.954789524184529"><ele>25.0</ele><time>2026-04-18T11:01:23.075Z</time></trkpt><trkpt lat="43.72972113605212" lon="10.95515391406499"><ele>25.2</ele><time>2026-04-18T11:01:25.075Z</time></trkpt><trkpt lat="43.72981049380223" lon="10.955238912119574"><ele>25.4</ele><time>2026-04-18T11:01:27.075Z</time></trkpt><trkpt lat="43.72990436089355" lon="10.955327134387984"><ele>25.6</ele><time>2026-04-18T11:01:29.075Z</time></trkpt><trkpt lat="43.72998944178632" lon="10.955403960077016"><ele>25.8</ele><time>2026-04-18T11:01:31.075Z</time></trkpt><trkpt lat="43.730072890383724" lon="10.955489012237097"><ele>26.0</ele><time>2026-04-18T11:01:33.075Z</time></trkpt><trkpt lat="43.73013843527217" lon="10.95557584522605"><ele>26.0</ele><time>2026-04-18T11:01:35.075Z</time></trkpt><trkpt lat="43.730199468937315" lon="10.95569653254299"><ele>26.0</ele><time>2026-04-18T11:01:37.075Z</time></trkpt><trkpt lat="43.73020708841164" lon="10.955813113364414"><ele>26.0</ele><time>2026-04-18T11:01:38.075Z</time></trkpt><trkpt lat="43.73028286570921" lon="10.955929313161713"><ele>26.0</ele><time>2026-04-18T11:01:40.075Z</time></trkpt><trkpt lat="43.730358262564536" lon="10.9560449276703"><ele>26.0</ele><time>2026-04-18T11:01:42.075Z</time></trkpt><trkpt lat="43.73052873535178" lon="10.956053346393784"><ele>25.5</ele><time>2026-04-18T11:01:44.075Z</time></trkpt><trkpt lat="43.73059853367336" lon="10.956182919219009"><ele>25.0</ele><time>2026-04-18T11:01:46.075Z</time></trkpt><trkpt lat="43.730667652060994" lon="10.95631513642134"><ele>24.5</ele><time>2026-04-18T11:01:48.075Z</time></trkpt><trkpt lat="43.73073583411937" lon="10.956446163469945"><ele>24.0</ele><time>2026-04-18T11:01:50.075Z</time></trkpt><trkpt lat="43.73080505126937" lon="10.956579499304924"><ele>24.2</ele><time>2026-04-18T11:01:52.075Z</time></trkpt><trkpt lat="43.7308675504491" lon="10.956711260178844"><ele>24.4</ele><time>2026-04-18T11:01:54.075Z</time></trkpt><trkpt lat="43.73092566050628" lon="10.956837750731141"><ele>24.6</ele><time>2026-04-18T11:01:56.075Z</time></trkpt><trkpt lat="43.73098744207761" lon="10.956967733467053"><ele>24.8</ele><time>2026-04-18T11:01:58.075Z</time></trkpt><trkpt lat="43.73104975192047" lon="10.957098655229359"><ele>25.0</ele><time>2026-04-18T11:02:00.075Z</time></trkpt><trkpt lat="43.73111233766385" lon="10.957228729671966"><ele>25.0</ele><time>2026-04-18T11:02:02.075Z</time></trkpt><trkpt lat="43.7311762049726" lon="10.957359458764532"><ele>25.0</ele><time>2026-04-18T11:02:04.075Z</time></trkpt><trkpt lat="43.731236493525174" lon="10.95748503415862"><ele>25.0</ele><time>2026-04-18T11:02:06.075Z</time></trkpt><trkpt lat="43.73129410380948" lon="10.957616094484829"><ele>25.0</ele><time>2026-04-18T11:02:08.075Z</time></trkpt><trkpt lat="43.73134439864182" lon="10.957747314064758"><ele>25.0</ele><time>2026-04-18T11:02:10.073Z</time></trkpt><trkpt lat="43.73136210969968" lon="10.95792469558601"><ele>25.2</ele><time>2026-04-18T11:02:12.073Z</time></trkpt><trkpt lat="43.73120969111043" lon="10.958055273907664"><ele>25.4</ele><time>2026-04-18T11:02:13.073Z</time></trkpt><trkpt lat="43.731226605851994" lon="10.958146586393854"><ele>25.6</ele><time>2026-04-18T11:02:16.073Z</time></trkpt><trkpt lat="43.73118418416949" lon="10.958245561550218"><ele>25.8</ele><time>2026-04-18T11:02:18.073Z</time></trkpt><trkpt lat="43.73112498080147" lon="10.958354980681024"><ele>26.0</ele><time>2026-04-18T11:02:20.073Z</time></trkpt><trkpt lat="43.731063570924945" lon="10.958473034736132"><ele>26.4</ele><time>2026-04-18T11:02:22.073Z</time></trkpt><trkpt lat="43.7310756227746" lon="10.958572388356199"><ele>26.8</ele><time>2026-04-18T11:02:23.073Z</time></trkpt><trkpt lat="43.7310172824205" lon="10.958694524897455"><ele>27.199999999999996</ele><time>2026-04-18T11:02:25.073Z</time></trkpt><trkpt lat="43.73095281705331" lon="10.95881126034346"><ele>27.599999999999998</ele><time>2026-04-18T11:02:27.073Z</time></trkpt><trkpt lat="43.73089463012076" lon="10.95893961119675"><ele>28.0</ele><time>2026-04-18T11:02:29.073Z</time></trkpt><trkpt lat="43.73077932178495" lon="10.958996412517322"><ele>28.25</ele><time>2026-04-18T11:02:31.073Z</time></trkpt><trkpt lat="43.73081042345416" lon="10.959251772118254"><ele>28.5</ele><time>2026-04-18T11:02:33.073Z</time></trkpt><trkpt lat="43.7308257026844" lon="10.959393961900252"><ele>28.75</ele><time>2026-04-18T11:02:35.073Z</time></trkpt><trkpt lat="43.73084050444895" lon="10.959531709141476"><ele>29.0</ele><time>2026-04-18T11:02:37.073Z</time></trkpt><trkpt lat="43.730853487057985" lon="10.959672187148623"><ele>29.0</ele><time>2026-04-18T11:02:39.073Z</time></trkpt><trkpt lat="43.73086689133209" lon="10.959815069059003"><ele>29.0</ele><time>2026-04-18T11:02:41.073Z</time></trkpt><trkpt lat="43.730882463568996" lon="10.959956825989408"><ele>29.0</ele><time>2026-04-18T11:02:43.073Z</time></trkpt><trkpt lat="43.7308959929762" lon="10.96009659304718"><ele>29.0</ele><time>2026-04-18T11:02:45.073Z</time></trkpt><trkpt lat="43.730895266656134" lon="10.960231184083728"><ele>29.0</ele><time>2026-04-18T11:02:47.073Z</time></trkpt><trkpt lat="43.73087927364049" lon="10.960360346533788"><ele>28.5</ele><time>2026-04-18T11:02:49.073Z</time></trkpt><trkpt lat="43.73085092804038" lon="10.96046708096604"><ele>28.0</ele><time>2026-04-18T11:02:51.073Z</time></trkpt><trkpt lat="43.73083170234772" lon="10.960579483363924"><ele>27.5</ele><time>2026-04-18T11:02:53.073Z</time></trkpt><trkpt lat="43.73079341694847" lon="10.96048647028904"><ele>27.0</ele><time>2026-04-18T11:02:54.073Z</time></trkpt><trkpt lat="43.73105101912572" lon="10.960730113073542"><ele>27.166666666666668</ele><time>2026-04-18T11:02:56.073Z</time></trkpt><trkpt lat="43.73111471025836" lon="10.960789299976648"><ele>27.333333333333336</ele><time>2026-04-18T11:02:58.073Z</time></trkpt><trkpt lat="43.73118068382961" lon="10.960850612518785"><ele>27.5</ele><time>2026-04-18T11:03:00.073Z</time></trkpt><trkpt lat="43.73125497708078" lon="10.960919656929901"><ele>27.666666666666668</ele><time>2026-04-18T11:03:02.073Z</time></trkpt><trkpt lat="43.731334808881996" lon="10.960993848569931"><ele>27.833333333333336</ele><time>2026-04-18T11:03:04.073Z</time></trkpt><trkpt lat="43.731418728747336" lon="10.961074984502616"><ele>28.0</ele><time>2026-04-18T11:03:06.073Z</time></trkpt><trkpt lat="43.731497556215054" lon="10.961159637560371"><ele>28.0</ele><time>2026-04-18T11:03:08.073Z</time></trkpt><trkpt lat="43.73157702746218" lon="10.96124913752641"><ele>27.999999999999996</ele><time>2026-04-18T11:03:10.073Z</time></trkpt><trkpt lat="43.73165190713037" lon="10.96135507754401"><ele>27.999999999999996</ele><time>2026-04-18T11:03:12.073Z</time></trkpt><trkpt lat="43.731718021876674" lon="10.96146262550391"><ele>28.0</ele><time>2026-04-18T11:03:14.073Z</time></trkpt><trkpt lat="43.73176625708153" lon="10.96158688684456"><ele>28.0</ele><time>2026-04-18T11:03:16.073Z</time></trkpt><trkpt lat="43.73180948637765" lon="10.961710617690319"><ele>27.599999999999998</ele><time>2026-04-18T11:03:18.073Z</time></trkpt><trkpt lat="43.7318392005304" lon="10.961847918009694"><ele>27.199999999999996</ele><time>2026-04-18T11:03:20.073Z</time></trkpt><trkpt lat="43.731865946778974" lon="10.961982459462154"><ele>26.8</ele><time>2026-04-18T11:03:22.073Z</time></trkpt><trkpt lat="43.73187511409907" lon="10.962126097974984"><ele>26.4</ele><time>2026-04-18T11:03:24.073Z</time></trkpt><trkpt lat="43.73187800329181" lon="10.962267997360003"><ele>26.0</ele><time>2026-04-18T11:03:26.073Z</time></trkpt><trkpt lat="43.73188822947877" lon="10.962415153269225"><ele>26.0</ele><time>2026-04-18T11:03:28.073Z</time></trkpt><trkpt lat="43.73189133066345" lon="10.962563247767104"><ele>26.0</ele><time>2026-04-18T11:03:30.073Z</time></trkpt><trkpt lat="43.73190072748537" lon="10.962703920584355"><ele>26.0</ele><time>2026-04-18T11:03:32.073Z</time></trkpt><trkpt lat="43.73190090046744" lon="10.96284810937542"><ele>26.0</ele><time>2026-04-18T11:03:34.073Z</time></trkpt><trkpt lat="43.73189954459145" lon="10.962988398197608"><ele>26.0</ele><time>2026-04-18T11:03:36.073Z</time></trkpt><trkpt lat="43.73188546890709" lon="10.963132144886998"><ele>26.0</ele><time>2026-04-18T11:03:38.073Z</time></trkpt><trkpt lat="43.731874607319384" lon="10.96327338070937"><ele>26.0</ele><time>2026-04-18T11:03:40.073Z</time></trkpt><trkpt lat="43.73184477311311" lon="10.963414432365795"><ele>26.0</ele><time>2026-04-18T11:03:42.073Z</time></trkpt><trkpt lat="43.73180914124916" lon="10.963558065258889"><ele>26.0</ele><time>2026-04-18T11:03:44.073Z</time></trkpt><trkpt lat="43.73177956312743" lon="10.963686107589265"><ele>26.0</ele><time>2026-04-18T11:03:46.073Z</time></trkpt><trkpt lat="43.73177570741383" lon="10.963812486813657"><ele>26.0</ele><time>2026-04-18T11:03:48.073Z</time></trkpt><trkpt lat="43.731735595801645" lon="10.963896367488601"><ele>26.0</ele><time>2026-04-18T11:03:49.073Z</time></trkpt><trkpt lat="43.7316996366497" lon="10.964038467427057"><ele>26.0</ele><time>2026-04-18T11:03:51.073Z</time></trkpt><trkpt lat="43.73166473765173" lon="10.96417615005217"><ele>26.0</ele><time>2026-04-18T11:03:53.073Z</time></trkpt><trkpt lat="43.73162452113596" lon="10.964312018346247"><ele>26.0</ele><time>2026-04-18T11:03:55.073Z</time></trkpt><trkpt lat="43.731590856144116" lon="10.964447718790861"><ele>26.4</ele><time>2026-04-18T11:03:57.073Z</time></trkpt><trkpt lat="43.73155367644412" lon="10.964583130044966"><ele>26.8</ele><time>2026-04-18T11:03:59.073Z</time></trkpt><trkpt lat="43.731520538155806" lon="10.964726616007088"><ele>27.199999999999996</ele><time>2026-04-18T11:04:01.073Z</time></trkpt><trkpt lat="43.73146947851171" lon="10.964865685869203"><ele>27.599999999999998</ele><time>2026-04-18T11:04:03.073Z</time></trkpt><trkpt lat="43.73141379323204" lon="10.964999288501847"><ele>28.0</ele><time>2026-04-18T11:04:05.073Z</time></trkpt><trkpt lat="43.73135659192439" lon="10.965134749048051"><ele>27.2</ele><time>2026-04-18T11:04:07.073Z</time></trkpt><trkpt lat="43.7313020775915" lon="10.96526503045616"><ele>26.4</ele><time>2026-04-18T11:04:09.073Z</time></trkpt><trkpt lat="43.73124404816789" lon="10.965394387942448"><ele>25.599999999999998</ele><time>2026-04-18T11:04:11.073Z</time></trkpt><trkpt lat="43.731188663061566" lon="10.965525356998452"><ele>24.799999999999997</ele><time>2026-04-18T11:04:13.073Z</time></trkpt><trkpt lat="43.731132022690296" lon="10.965651293512055"><ele>24.0</ele><time>2026-04-18T11:04:15.071Z</time></trkpt><trkpt lat="43.73107708816021" lon="10.965775802082927"><ele>24.2</ele><time>2026-04-18T11:04:17.071Z</time></trkpt><trkpt lat="43.73101745646568" lon="10.965896900839354"><ele>24.4</ele><time>2026-04-18T11:04:19.071Z</time></trkpt><trkpt lat="43.73095790728565" lon="10.966014902976703"><ele>24.6</ele><time>2026-04-18T11:04:21.071Z</time></trkpt><trkpt lat="43.73088146169759" lon="10.966127836287605"><ele>24.8</ele><time>2026-04-18T11:04:23.071Z</time></trkpt><trkpt lat="43.73085417533556" lon="10.966206361986613"><ele>25.0</ele><time>2026-04-18T11:04:24.071Z</time></trkpt><trkpt lat="43.73084320685028" lon="10.966294932852012"><ele>25.0</ele><time>2026-04-18T11:04:25.071Z</time></trkpt><trkpt lat="43.7308256032034" lon="10.966454182381227"><ele>25.0</ele><time>2026-04-18T11:04:27.071Z</time></trkpt><trkpt lat="43.73081178920665" lon="10.966611092413174"><ele>25.0</ele><time>2026-04-18T11:04:29.071Z</time></trkpt><trkpt lat="43.73079965609139" lon="10.966766258449764"><ele>25.0</ele><time>2026-04-18T11:04:31.071Z</time></trkpt><trkpt lat="43.73078523419083" lon="10.96691524998562"><ele>24.5</ele><time>2026-04-18T11:04:33.071Z</time></trkpt><trkpt lat="43.73076688674788" lon="10.967066181630758"><ele>24.0</ele><time>2026-04-18T11:04:35.071Z</time></trkpt><trkpt lat="43.73074531636226" lon="10.967220639322939"><ele>23.5</ele><time>2026-04-18T11:04:37.071Z</time></trkpt><trkpt lat="43.730737654607026" lon="10.967376901589565"><ele>23.0</ele><time>2026-04-18T11:04:39.071Z</time></trkpt><trkpt lat="43.730711126569894" lon="10.967530962639577"><ele>23.0</ele><time>2026-04-18T11:04:41.071Z</time></trkpt><trkpt lat="43.7306715715976" lon="10.967666913756629"><ele>23.0</ele><time>2026-04-18T11:04:43.071Z</time></trkpt><trkpt lat="43.73064994883532" lon="10.967814697067434"><ele>23.0</ele><time>2026-04-18T11:04:45.071Z</time></trkpt><trkpt lat="43.73060091412116" lon="10.967949202678358"><ele>23.0</ele><time>2026-04-18T11:04:47.071Z</time></trkpt><trkpt lat="43.73055163619256" lon="10.968089723068989"><ele>23.0</ele><time>2026-04-18T11:04:49.071Z</time></trkpt><trkpt lat="43.730492557575694" lon="10.968218424531527"><ele>23.0</ele><time>2026-04-18T11:04:51.071Z</time></trkpt><trkpt lat="43.730422544282995" lon="10.968333716762741"><ele>23.0</ele><time>2026-04-18T11:04:53.071Z</time></trkpt><trkpt lat="43.73030847955875" lon="10.968389905493478"><ele>23.0</ele><time>2026-04-18T11:04:55.071Z</time></trkpt><trkpt lat="43.730194078361926" lon="10.968354224899203"><ele>23.0</ele><time>2026-04-18T11:04:57.071Z</time></trkpt><trkpt lat="43.73009067393468" lon="10.968281654098762"><ele>23.0</ele><time>2026-04-18T11:04:59.071Z</time></trkpt><trkpt lat="43.729981287386344" lon="10.968219508573712"><ele>23.0</ele><time>2026-04-18T11:05:01.071Z</time></trkpt><trkpt lat="43.729870290754484" lon="10.968253444545951"><ele>23.0</ele><time>2026-04-18T11:05:03.071Z</time></trkpt><trkpt lat="43.729812998077314" lon="10.96829608906483"><ele>23.0</ele><time>2026-04-18T11:05:04.071Z</time></trkpt><trkpt lat="43.729795695359385" lon="10.968386551207153"><ele>23.0</ele><time>2026-04-18T11:05:05.071Z</time></trkpt><trkpt lat="43.729733910010395" lon="10.968515519885473"><ele>23.0</ele><time>2026-04-18T11:05:07.071Z</time></trkpt><trkpt lat="43.729694321364796" lon="10.968658320198985"><ele>23.0</ele><time>2026-04-18T11:05:09.071Z</time></trkpt><trkpt lat="43.72964402138661" lon="10.96879153838918"><ele>23.0</ele><time>2026-04-18T11:05:11.071Z</time></trkpt><trkpt lat="43.72959151623692" lon="10.968924493500944"><ele>23.0</ele><time>2026-04-18T11:05:13.071Z</time></trkpt><trkpt lat="43.72953920054549" lon="10.969053621790561"><ele>23.0</ele><time>2026-04-18T11:05:15.071Z</time></trkpt><trkpt lat="43.729476871123246" lon="10.96917221873941"><ele>23.0</ele><time>2026-04-18T11:05:17.071Z</time></trkpt><trkpt lat="43.72942814618607" lon="10.969294538128109"><ele>23.0</ele><time>2026-04-18T11:05:19.071Z</time></trkpt><trkpt lat="43.72937720513367" lon="10.969422127201861"><ele>23.0</ele><time>2026-04-18T11:05:21.071Z</time></trkpt><trkpt lat="43.72933763802476" lon="10.969554781773414"><ele>23.0</ele><time>2026-04-18T11:05:23.071Z</time></trkpt><trkpt lat="43.729278105948524" lon="10.969676202236103"><ele>23.0</ele><time>2026-04-18T11:05:25.071Z</time></trkpt><trkpt lat="43.72921275348534" lon="10.969798405157636"><ele>23.4</ele><time>2026-04-18T11:05:27.071Z</time></trkpt><trkpt lat="43.72916402038354" lon="10.969928933840139"><ele>23.799999999999997</ele><time>2026-04-18T11:05:29.071Z</time></trkpt><trkpt lat="43.72910766049919" lon="10.970058585005049"><ele>24.2</ele><time>2026-04-18T11:05:31.071Z</time></trkpt><trkpt lat="43.72904985912522" lon="10.970184633787078"><ele>24.6</ele><time>2026-04-18T11:05:33.071Z</time></trkpt><trkpt lat="43.7289909948929" lon="10.970308991799131"><ele>25.0</ele><time>2026-04-18T11:05:35.071Z</time></trkpt><trkpt lat="43.7289305471469" lon="10.970439996965837"><ele>25.0</ele><time>2026-04-18T11:05:37.071Z</time></trkpt><trkpt lat="43.72886671485557" lon="10.970562914332689"><ele>25.0</ele><time>2026-04-18T11:05:39.071Z</time></trkpt><trkpt lat="43.72880757311485" lon="10.970694919858172"><ele>25.0</ele><time>2026-04-18T11:05:41.071Z</time></trkpt><trkpt lat="43.72874391444985" lon="10.970823238462229"><ele>25.0</ele><time>2026-04-18T11:05:43.071Z</time></trkpt><trkpt lat="43.7286779720338" lon="10.970953866475632"><ele>25.0</ele><time>2026-04-18T11:05:45.071Z</time></trkpt><trkpt lat="43.728613692313886" lon="10.97108086285018"><ele>25.0</ele><time>2026-04-18T11:05:47.071Z</time></trkpt><trkpt lat="43.72853991582602" lon="10.971198914834257"><ele>25.0</ele><time>2026-04-18T11:05:49.071Z</time></trkpt><trkpt lat="43.728493241317985" lon="10.971328828712847"><ele>25.0</ele><time>2026-04-18T11:05:51.071Z</time></trkpt><trkpt lat="43.728432292284374" lon="10.971429791315266"><ele>25.0</ele><time>2026-04-18T11:05:53.071Z</time></trkpt><trkpt lat="43.72836866369078" lon="10.971551199912396"><ele>25.0</ele><time>2026-04-18T11:05:55.071Z</time></trkpt><trkpt lat="43.72831709046729" lon="10.971678740824771"><ele>24.8</ele><time>2026-04-18T11:05:57.071Z</time></trkpt><trkpt lat="43.728269764422514" lon="10.97180730342502"><ele>24.6</ele><time>2026-04-18T11:05:59.071Z</time></trkpt><trkpt lat="43.72822311659228" lon="10.971935762521978"><ele>24.4</ele><time>2026-04-18T11:06:01.071Z</time></trkpt><trkpt lat="43.728173683471795" lon="10.972070666535343"><ele>24.2</ele><time>2026-04-18T11:06:03.071Z</time></trkpt><trkpt lat="43.72812830517303" lon="10.972201133045377"><ele>24.0</ele><time>2026-04-18T11:06:05.071Z</time></trkpt><trkpt lat="43.72809025012326" lon="10.972337088978778"><ele>24.0</ele><time>2026-04-18T11:06:07.071Z</time></trkpt><trkpt lat="43.72805119982079" lon="10.972463786461221"><ele>24.0</ele><time>2026-04-18T11:06:09.071Z</time></trkpt><trkpt lat="43.72799841830914" lon="10.972566177811085"><ele>24.0</ele><time>2026-04-18T11:06:11.071Z</time></trkpt><trkpt lat="43.72793415007433" lon="10.972634369461005"><ele>24.0</ele><time>2026-04-18T11:06:16.071Z</time></trkpt><trkpt lat="43.72795918089918" lon="10.972772666088355"><ele>24.0</ele><time>2026-04-18T11:06:18.071Z</time></trkpt><trkpt lat="43.72797733944349" lon="10.97287447418309"><ele>24.166666666666668</ele><time>2026-04-18T11:06:20.071Z</time></trkpt><trkpt lat="43.72799308820936" lon="10.972968734833048"><ele>24.333333333333336</ele><time>2026-04-18T11:06:22.069Z</time></trkpt><trkpt lat="43.72800776235728" lon="10.973056563471731"><ele>24.5</ele><time>2026-04-18T11:06:24.069Z</time></trkpt><trkpt lat="43.72787171893269" lon="10.973119544086664"><ele>24.666666666666668</ele><time>2026-04-18T11:06:30.069Z</time></trkpt><trkpt lat="43.72780145939087" lon="10.973118302368912"><ele>24.833333333333336</ele><time>2026-04-18T11:06:32.069Z</time></trkpt><trkpt lat="43.727718468485925" lon="10.973121767820846"><ele>25.0</ele><time>2026-04-18T11:06:34.069Z</time></trkpt><trkpt lat="43.72763501703731" lon="10.973120034013396"><ele>25.2</ele><time>2026-04-18T11:06:36.069Z</time></trkpt><trkpt lat="43.7275459471851" lon="10.973113751380572"><ele>25.4</ele><time>2026-04-18T11:06:38.069Z</time></trkpt><trkpt lat="43.72745273205298" lon="10.973107079858234"><ele>25.6</ele><time>2026-04-18T11:06:40.069Z</time></trkpt><trkpt lat="43.72735975400895" lon="10.973104320322784"><ele>25.8</ele><time>2026-04-18T11:06:42.069Z</time></trkpt><trkpt lat="43.727272795409036" lon="10.973095055236119"><ele>26.0</ele><time>2026-04-18T11:06:44.069Z</time></trkpt><trkpt lat="43.72717136742971" lon="10.973093802710464"><ele>26.0</ele><time>2026-04-18T11:06:46.069Z</time></trkpt><trkpt lat="43.72707704725759" lon="10.973095345687227"><ele>26.0</ele><time>2026-04-18T11:06:48.069Z</time></trkpt><trkpt lat="43.72699286700407" lon="10.973080320001692"><ele>26.0</ele><time>2026-04-18T11:06:50.069Z</time></trkpt><trkpt lat="43.72689394107057" lon="10.973084751507006"><ele>26.0</ele><time>2026-04-18T11:06:52.069Z</time></trkpt><trkpt lat="43.726809154981225" lon="10.973064483339257"><ele>26.0</ele><time>2026-04-18T11:06:54.069Z</time></trkpt><trkpt lat="43.72671977084366" lon="10.973071220953791"><ele>26.0</ele><time>2026-04-18T11:06:56.069Z</time></trkpt><trkpt lat="43.726636693650654" lon="10.973078548442892"><ele>26.0</ele><time>2026-04-18T11:06:58.069Z</time></trkpt><trkpt lat="43.72658289960528" lon="10.973007150516283"><ele>26.0</ele><time>2026-04-18T11:06:59.069Z</time></trkpt><trkpt lat="43.7265217423971" lon="10.973029033391295"><ele>26.0</ele><time>2026-04-18T11:07:07.069Z</time></trkpt><trkpt lat="43.7264581284341" lon="10.973062833801523"><ele>26.0</ele><time>2026-04-18T11:07:23.069Z</time></trkpt><trkpt lat="43.726378026461944" lon="10.97306580103554"><ele>26.0</ele><time>2026-04-18T11:07:28.069Z</time></trkpt><trkpt lat="43.72630794493509" lon="10.97309040173708"><ele>26.0</ele><time>2026-04-18T11:07:32.069Z</time></trkpt><trkpt lat="43.72623559136131" lon="10.973106714770697"><ele>25.999999999999996</ele><time>2026-04-18T11:07:36.069Z</time></trkpt><trkpt lat="43.7261667300007" lon="10.973123102602969"><ele>26.0</ele><time>2026-04-18T11:07:39.069Z</time></trkpt><trkpt lat="43.726088852021924" lon="10.973145130065111"><ele>26.0</ele><time>2026-04-18T11:07:42.069Z</time></trkpt><trkpt lat="43.726003290159376" lon="10.973177027093165"><ele>26.0</ele><time>2026-04-18T11:07:45.069Z</time></trkpt><trkpt lat="43.72593955515462" lon="10.973207149212303"><ele>25.999999999999996</ele><time>2026-04-18T11:07:47.069Z</time></trkpt><trkpt lat="43.72586532431037" lon="10.973231426235419"><ele>26.0</ele><time>2026-04-18T11:07:49.069Z</time></trkpt><trkpt lat="43.725786921814596" lon="10.973264216159315"><ele>25.999999999999996</ele><time>2026-04-18T11:07:51.069Z</time></trkpt><trkpt lat="43.725707880344785" lon="10.973293136100159"><ele>26.0</ele><time>2026-04-18T11:07:53.069Z</time></trkpt><trkpt lat="43.72563931006829" lon="10.973333507397301"><ele>26.0</ele><time>2026-04-18T11:07:55.069Z</time></trkpt><trkpt lat="43.72556305627661" lon="10.973356868869805"><ele>26.0</ele><time>2026-04-18T11:07:57.069Z</time></trkpt><trkpt lat="43.725485957765514" lon="10.973380533604496"><ele>25.999999999999996</ele><time>2026-04-18T11:07:59.069Z</time></trkpt><trkpt lat="43.725404690336624" lon="10.973420608662614"><ele>26.0</ele><time>2026-04-18T11:08:01.069Z</time></trkpt><trkpt lat="43.72532245050312" lon="10.973450192242918"><ele>25.999999999999996</ele><time>2026-04-18T11:08:03.069Z</time></trkpt><trkpt lat="43.725242749794745" lon="10.973484614778243"><ele>26.0</ele><time>2026-04-18T11:08:05.069Z</time></trkpt><trkpt lat="43.72515852163348" lon="10.973517981714833"><ele>26.0</ele><time>2026-04-18T11:08:07.069Z</time></trkpt><trkpt lat="43.72507402617307" lon="10.973546654946983"><ele>26.0</ele><time>2026-04-18T11:08:09.069Z</time></trkpt><trkpt lat="43.72498461853418" lon="10.973588016462832"><ele>25.999999999999996</ele><time>2026-04-18T11:08:11.069Z</time></trkpt><trkpt lat="43.72489346188618" lon="10.973626359327344"><ele>26.0</ele><time>2026-04-18T11:08:13.069Z</time></trkpt><trkpt lat="43.72480324941853" lon="10.973660865783488"><ele>25.999999999999996</ele><time>2026-04-18T11:08:15.069Z</time></trkpt><trkpt lat="43.724713766094936" lon="10.973694522050796"><ele>26.0</ele><time>2026-04-18T11:08:17.069Z</time></trkpt><trkpt lat="43.72463136850275" lon="10.973723953703459"><ele>26.0</ele><time>2026-04-18T11:08:19.069Z</time></trkpt><trkpt lat="43.72455255442019" lon="10.973756694734588"><ele>26.0</ele><time>2026-04-18T11:08:21.069Z</time></trkpt><trkpt lat="43.72447456337285" lon="10.973772453683802"><ele>25.999999999999996</ele><time>2026-04-18T11:08:23.069Z</time></trkpt><trkpt lat="43.724384753882944" lon="10.973808006752254"><ele>26.0</ele><time>2026-04-18T11:08:25.069Z</time></trkpt><trkpt lat="43.724295164186586" lon="10.973844275765021"><ele>26.0</ele><time>2026-04-18T11:08:27.067Z</time></trkpt><trkpt lat="43.724207373269124" lon="10.973885966156992"><ele>26.0</ele><time>2026-04-18T11:08:29.067Z</time></trkpt><trkpt lat="43.724100622227866" lon="10.973912124209107"><ele>26.0</ele><time>2026-04-18T11:08:31.067Z</time></trkpt><trkpt lat="43.72400208213703" lon="10.97394050613959"><ele>26.0</ele><time>2026-04-18T11:08:33.067Z</time></trkpt><trkpt lat="43.72390530553177" lon="10.973976408730556"><ele>26.0</ele><time>2026-04-18T11:08:35.067Z</time></trkpt><trkpt lat="43.72380585683256" lon="10.974012454071133"><ele>26.0</ele><time>2026-04-18T11:08:37.067Z</time></trkpt><trkpt lat="43.72370676413171" lon="10.974054997628867"><ele>26.0</ele><time>2026-04-18T11:08:39.067Z</time></trkpt><trkpt lat="43.7236088162551" lon="10.974084827583171"><ele>26.0</ele><time>2026-04-18T11:08:41.067Z</time></trkpt><trkpt lat="43.723514826359036" lon="10.974122549232781"><ele>26.0</ele><time>2026-04-18T11:08:43.067Z</time></trkpt><trkpt lat="43.723421171227756" lon="10.97415826924167"><ele>26.0</ele><time>2026-04-18T11:08:45.067Z</time></trkpt><trkpt lat="43.723333519444864" lon="10.9741694507228"><ele>25.833333333333332</ele><time>2026-04-18T11:08:47.067Z</time></trkpt><trkpt lat="43.72324846292838" lon="10.97418502233498"><ele>25.666666666666664</ele><time>2026-04-18T11:08:49.067Z</time></trkpt><trkpt lat="43.72316161881262" lon="10.974232689349263"><ele>25.5</ele><time>2026-04-18T11:08:51.067Z</time></trkpt><trkpt lat="43.7230986748742" lon="10.974287871377387"><ele>25.333333333333336</ele><time>2026-04-18T11:08:53.067Z</time></trkpt><trkpt lat="43.723034850771604" lon="10.974343369753031"><ele>25.166666666666668</ele><time>2026-04-18T11:08:55.067Z</time></trkpt><trkpt lat="43.722979003939" lon="10.974411541058346"><ele>25.0</ele><time>2026-04-18T11:08:57.067Z</time></trkpt><trkpt lat="43.72290696508847" lon="10.974462033555815"><ele>25.0</ele><time>2026-04-18T11:08:59.067Z</time></trkpt><trkpt lat="43.72282819825509" lon="10.974524225001634"><ele>25.0</ele><time>2026-04-18T11:09:01.067Z</time></trkpt><trkpt lat="43.72275686616027" lon="10.974615020620671"><ele>25.0</ele><time>2026-04-18T11:09:03.067Z</time></trkpt><trkpt lat="43.72267389097512" lon="10.974690374989642"><ele>25.0</ele><time>2026-04-18T11:09:05.067Z</time></trkpt><trkpt lat="43.722593728896264" lon="10.974762444627173"><ele>25.0</ele><time>2026-04-18T11:09:07.067Z</time></trkpt><trkpt lat="43.72249694907993" lon="10.974777004985407"><ele>25.2</ele><time>2026-04-18T11:09:09.067Z</time></trkpt><trkpt lat="43.722400405685704" lon="10.974740639801935"><ele>25.4</ele><time>2026-04-18T11:09:11.067Z</time></trkpt><trkpt lat="43.72230570839967" lon="10.97470251194827"><ele>25.6</ele><time>2026-04-18T11:09:13.067Z</time></trkpt><trkpt lat="43.72220612297388" lon="10.97467295117919"><ele>25.8</ele><time>2026-04-18T11:09:15.067Z</time></trkpt><trkpt lat="43.722103238769996" lon="10.974633230793039"><ele>26.0</ele><time>2026-04-18T11:09:17.067Z</time></trkpt><trkpt lat="43.722004735751725" lon="10.97459772825366"><ele>26.0</ele><time>2026-04-18T11:09:19.067Z</time></trkpt><trkpt lat="43.72191386305949" lon="10.974534218813"><ele>26.0</ele><time>2026-04-18T11:09:21.067Z</time></trkpt><trkpt lat="43.72182639752122" lon="10.97447280059272"><ele>26.0</ele><time>2026-04-18T11:09:23.067Z</time></trkpt><trkpt lat="43.72180726492351" lon="10.974388518585414"><ele>26.0</ele><time>2026-04-18T11:09:24.067Z</time></trkpt><trkpt lat="43.721753431883286" lon="10.974263144010278"><ele>26.0</ele><time>2026-04-18T11:09:26.067Z</time></trkpt><trkpt lat="43.72176562046105" lon="10.97410453464828"><ele>26.0</ele><time>2026-04-18T11:09:28.067Z</time></trkpt><trkpt lat="43.721745079460256" lon="10.973966298330708"><ele>26.0</ele><time>2026-04-18T11:09:30.067Z</time></trkpt><trkpt lat="43.72178829464503" lon="10.973825384628483"><ele>26.0</ele><time>2026-04-18T11:09:32.067Z</time></trkpt><trkpt lat="43.72180808445302" lon="10.973686574532033"><ele>26.0</ele><time>2026-04-18T11:09:34.067Z</time></trkpt><trkpt lat="43.721820777456365" lon="10.973542327697428"><ele>26.0</ele><time>2026-04-18T11:09:36.067Z</time></trkpt><trkpt lat="43.721827313601" lon="10.97339815903136"><ele>25.8</ele><time>2026-04-18T11:09:38.067Z</time></trkpt><trkpt lat="43.72183478859379" lon="10.973253274759138"><ele>25.6</ele><time>2026-04-18T11:09:40.067Z</time></trkpt><trkpt lat="43.721833236282954" lon="10.973108927332664"><ele>25.4</ele><time>2026-04-18T11:09:42.067Z</time></trkpt><trkpt lat="43.72182901160863" lon="10.972967407152495"><ele>25.2</ele><time>2026-04-18T11:09:44.067Z</time></trkpt><trkpt lat="43.72181984954416" lon="10.972820536530417"><ele>25.0</ele><time>2026-04-18T11:09:46.067Z</time></trkpt><trkpt lat="43.72180800265081" lon="10.972670641730499"><ele>25.0</ele><time>2026-04-18T11:09:48.067Z</time></trkpt><trkpt lat="43.72179571463361" lon="10.97251999094181"><ele>25.0</ele><time>2026-04-18T11:09:50.067Z</time></trkpt><trkpt lat="43.7217815334613" lon="10.972363149939387"><ele>25.0</ele><time>2026-04-18T11:09:52.067Z</time></trkpt><trkpt lat="43.721765322032596" lon="10.972207606651555"><ele>25.0</ele><time>2026-04-18T11:09:54.067Z</time></trkpt><trkpt lat="43.7217525018738" lon="10.97204922113507"><ele>25.0</ele><time>2026-04-18T11:09:56.067Z</time></trkpt><trkpt lat="43.72174317383614" lon="10.97189046579865"><ele>25.0</ele><time>2026-04-18T11:09:58.067Z</time></trkpt><trkpt lat="43.72173892893419" lon="10.971733979105139"><ele>25.0</ele><time>2026-04-18T11:10:00.067Z</time></trkpt><trkpt lat="43.721743161559466" lon="10.971571558977281"><ele>25.0</ele><time>2026-04-18T11:10:02.067Z</time></trkpt><trkpt lat="43.721760456202745" lon="10.971417890535276"><ele>25.0</ele><time>2026-04-18T11:10:04.067Z</time></trkpt><trkpt lat="43.72178898295079" lon="10.971268276463451"><ele>25.0</ele><time>2026-04-18T11:10:06.067Z</time></trkpt><trkpt lat="43.72181552640234" lon="10.971128998588156"><ele>25.0</ele><time>2026-04-18T11:10:08.067Z</time></trkpt><trkpt lat="43.7217998677007" lon="10.970982497461627"><ele>25.0</ele><time>2026-04-18T11:10:10.067Z</time></trkpt><trkpt lat="43.72175211949515" lon="10.970847787693787"><ele>25.0</ele><time>2026-04-18T11:10:12.067Z</time></trkpt><trkpt lat="43.721686296176976" lon="10.970727409762087"><ele>25.0</ele><time>2026-04-18T11:10:14.067Z</time></trkpt><trkpt lat="43.721637144259034" lon="10.970585353130913"><ele>25.0</ele><time>2026-04-18T11:10:16.067Z</time></trkpt><trkpt lat="43.72161558404257" lon="10.970436142500782"><ele>25.0</ele><time>2026-04-18T11:10:18.067Z</time></trkpt><trkpt lat="43.72160020869628" lon="10.970285850385904"><ele>25.0</ele><time>2026-04-18T11:10:20.067Z</time></trkpt><trkpt lat="43.72158539780051" lon="10.970134022530075"><ele>25.0</ele><time>2026-04-18T11:10:22.067Z</time></trkpt><trkpt lat="43.72156807318195" lon="10.969984981040614"><ele>25.0</ele><time>2026-04-18T11:10:24.067Z</time></trkpt><trkpt lat="43.721551093082965" lon="10.96983684309289"><ele>25.0</ele><time>2026-04-18T11:10:26.067Z</time></trkpt><trkpt lat="43.72154072470301" lon="10.969681646778264"><ele>25.0</ele><time>2026-04-18T11:10:28.067Z</time></trkpt><trkpt lat="43.72152862722091" lon="10.969528774867149"><ele>25.0</ele><time>2026-04-18T11:10:30.067Z</time></trkpt><trkpt lat="43.721510699070656" lon="10.96937464810335"><ele>25.0</ele><time>2026-04-18T11:10:32.067Z</time></trkpt><trkpt lat="43.72149559968001" lon="10.969225944525919"><ele>25.2</ele><time>2026-04-18T11:10:34.065Z</time></trkpt><trkpt lat="43.72147964574607" lon="10.969073268573588"><ele>25.4</ele><time>2026-04-18T11:10:36.065Z</time></trkpt><trkpt lat="43.72146225550753" lon="10.968925348257413"><ele>25.6</ele><time>2026-04-18T11:10:38.065Z</time></trkpt><trkpt lat="43.7214456065506" lon="10.968777871739261"><ele>25.8</ele><time>2026-04-18T11:10:40.065Z</time></trkpt><trkpt lat="43.72142889710781" lon="10.968626473403017"><ele>26.0</ele><time>2026-04-18T11:10:42.065Z</time></trkpt><trkpt lat="43.721414745191126" lon="10.968473539330736"><ele>26.0</ele><time>2026-04-18T11:10:44.065Z</time></trkpt><trkpt lat="43.72139454238333" lon="10.968319725098205"><ele>26.0</ele><time>2026-04-18T11:10:46.065Z</time></trkpt><trkpt lat="43.72137700246194" lon="10.96816784796853"><ele>26.0</ele><time>2026-04-18T11:10:48.065Z</time></trkpt><trkpt lat="43.72135951821023" lon="10.968022443018816"><ele>26.0</ele><time>2026-04-18T11:10:50.065Z</time></trkpt><trkpt lat="43.72134207675306" lon="10.967870208751705"><ele>26.0</ele><time>2026-04-18T11:10:52.065Z</time></trkpt><trkpt lat="43.72131693955089" lon="10.967719270284634"><ele>26.0</ele><time>2026-04-18T11:10:54.065Z</time></trkpt><trkpt lat="43.72127830503185" lon="10.967579541304259"><ele>26.0</ele><time>2026-04-18T11:10:56.065Z</time></trkpt><trkpt lat="43.72125853260869" lon="10.96742962123826"><ele>26.0</ele><time>2026-04-18T11:10:58.065Z</time></trkpt><trkpt lat="43.72126153107062" lon="10.967273717854718"><ele>26.0</ele><time>2026-04-18T11:11:00.065Z</time></trkpt><trkpt lat="43.72124815982356" lon="10.967119774118276"><ele>26.0</ele><time>2026-04-18T11:11:02.065Z</time></trkpt><trkpt lat="43.72122594341925" lon="10.96696843349076"><ele>26.0</ele><time>2026-04-18T11:11:04.065Z</time></trkpt><trkpt lat="43.72119834432279" lon="10.966831696294053"><ele>26.0</ele><time>2026-04-18T11:11:06.065Z</time></trkpt><trkpt lat="43.721138285948946" lon="10.96669693435101"><ele>26.0</ele><time>2026-04-18T11:11:08.065Z</time></trkpt><trkpt lat="43.721110691013585" lon="10.966557120290062"><ele>26.0</ele><time>2026-04-18T11:11:10.065Z</time></trkpt><trkpt lat="43.72111513012699" lon="10.96640782778651"><ele>26.0</ele><time>2026-04-18T11:11:12.065Z</time></trkpt><trkpt lat="43.72110511478766" lon="10.96627008200382"><ele>26.200000000000003</ele><time>2026-04-18T11:11:14.065Z</time></trkpt><trkpt lat="43.72106085267604" lon="10.966144979251618"><ele>26.400000000000002</ele><time>2026-04-18T11:11:16.065Z</time></trkpt><trkpt lat="43.72094655073092" lon="10.966101203234562"><ele>26.6</ele><time>2026-04-18T11:11:18.065Z</time></trkpt><trkpt lat="43.72085291989323" lon="10.966107784269395"><ele>26.8</ele><time>2026-04-18T11:11:20.065Z</time></trkpt><trkpt lat="43.720733456509016" lon="10.966031423106669"><ele>27.0</ele><time>2026-04-18T11:11:22.065Z</time></trkpt><trkpt lat="43.72062990028728" lon="10.965965072548158"><ele>27.0</ele><time>2026-04-18T11:11:24.065Z</time></trkpt><trkpt lat="43.72054576266038" lon="10.965857532913423"><ele>27.0</ele><time>2026-04-18T11:11:26.065Z</time></trkpt><trkpt lat="43.7204674013263" lon="10.965746390670779"><ele>27.0</ele><time>2026-04-18T11:11:28.065Z</time></trkpt><trkpt lat="43.72039106861094" lon="10.965625885949052"><ele>27.0</ele><time>2026-04-18T11:11:30.065Z</time></trkpt><trkpt lat="43.720313095493665" lon="10.965513278538065"><ele>27.0</ele><time>2026-04-18T11:11:32.065Z</time></trkpt><trkpt lat="43.7202358495937" lon="10.96539845222063"><ele>27.000000000000004</ele><time>2026-04-18T11:11:34.065Z</time></trkpt><trkpt lat="43.72015534713012" lon="10.965288675945022"><ele>27.000000000000004</ele><time>2026-04-18T11:11:36.065Z</time></trkpt><trkpt lat="43.72008096581227" lon="10.965174915639219"><ele>27.0</ele><time>2026-04-18T11:11:38.065Z</time></trkpt><trkpt lat="43.72000617360934" lon="10.96506169361358"><ele>27.0</ele><time>2026-04-18T11:11:40.065Z</time></trkpt><trkpt lat="43.71993038790199" lon="10.964950449104927"><ele>27.400000000000002</ele><time>2026-04-18T11:11:42.065Z</time></trkpt><trkpt lat="43.71985768103992" lon="10.964835940369081"><ele>27.800000000000004</ele><time>2026-04-18T11:11:44.065Z</time></trkpt><trkpt lat="43.71977900440468" lon="10.964730106334246"><ele>28.2</ele><time>2026-04-18T11:11:46.065Z</time></trkpt><trkpt lat="43.71970508341589" lon="10.964614064040653"><ele>28.6</ele><time>2026-04-18T11:11:48.065Z</time></trkpt><trkpt lat="43.71963092469063" lon="10.9645064613897"><ele>29.0</ele><time>2026-04-18T11:11:50.065Z</time></trkpt><trkpt lat="43.719565298913565" lon="10.96440782811302"><ele>29.0</ele><time>2026-04-18T11:11:52.065Z</time></trkpt><trkpt lat="43.71948519545316" lon="10.964288772146595"><ele>29.0</ele><time>2026-04-18T11:11:54.065Z</time></trkpt><trkpt lat="43.719407088296954" lon="10.964177308907036"><ele>29.0</ele><time>2026-04-18T11:11:56.065Z</time></trkpt><trkpt lat="43.719329577543895" lon="10.964068543326336"><ele>29.0</ele><time>2026-04-18T11:11:58.065Z</time></trkpt><trkpt lat="43.719252061069646" lon="10.963962437973139"><ele>29.0</ele><time>2026-04-18T11:12:00.065Z</time></trkpt><trkpt lat="43.719176223150114" lon="10.963859774345678"><ele>28.833333333333332</ele><time>2026-04-18T11:12:02.065Z</time></trkpt><trkpt lat="43.71910733531379" lon="10.963749208938458"><ele>28.666666666666664</ele><time>2026-04-18T11:12:04.065Z</time></trkpt><trkpt lat="43.71904256892598" lon="10.9636510863218"><ele>28.5</ele><time>2026-04-18T11:12:06.065Z</time></trkpt><trkpt lat="43.7189832756629" lon="10.963562683528204"><ele>28.333333333333336</ele><time>2026-04-18T11:12:08.065Z</time></trkpt><trkpt lat="43.718930257442786" lon="10.963488516721206"><ele>28.166666666666668</ele><time>2026-04-18T11:12:10.065Z</time></trkpt><trkpt lat="43.71888171436044" lon="10.963425475908553"><ele>28.0</ele><time>2026-04-18T11:12:12.065Z</time></trkpt><trkpt lat="43.718829261166974" lon="10.96332996869366"><ele>28.000000000000004</ele><time>2026-04-18T11:12:15.065Z</time></trkpt><trkpt lat="43.718796560506" lon="10.963225144408945"><ele>28.0</ele><time>2026-04-18T11:12:18.065Z</time></trkpt><trkpt lat="43.71877434890655" lon="10.963116514835662"><ele>28.0</ele><time>2026-04-18T11:12:21.065Z</time></trkpt><trkpt lat="43.71872925366632" lon="10.96303754459113"><ele>28.0</ele><time>2026-04-18T11:12:24.065Z</time></trkpt><trkpt lat="43.71866465478849" lon="10.962987892155311"><ele>28.000000000000004</ele><time>2026-04-18T11:12:26.065Z</time></trkpt><trkpt lat="43.71862667923306" lon="10.962881971052177"><ele>28.0</ele><time>2026-04-18T11:12:28.065Z</time></trkpt><trkpt lat="43.71858394833485" lon="10.962777046235031"><ele>28.2</ele><time>2026-04-18T11:12:30.065Z</time></trkpt><trkpt lat="43.718543002542326" lon="10.962662135065374"><ele>28.4</ele><time>2026-04-18T11:12:32.065Z</time></trkpt><trkpt lat="43.71850329847884" lon="10.962547609832901"><ele>28.599999999999998</ele><time>2026-04-18T11:12:34.065Z</time></trkpt><trkpt lat="43.718467745989166" lon="10.96242887054452"><ele>28.799999999999997</ele><time>2026-04-18T11:12:36.065Z</time></trkpt><trkpt lat="43.71843299493177" lon="10.962312292046109"><ele>29.0</ele><time>2026-04-18T11:12:38.065Z</time></trkpt><trkpt lat="43.718403086892266" lon="10.962187066309758"><ele>29.0</ele><time>2026-04-18T11:12:40.063Z</time></trkpt><trkpt lat="43.718371691313564" lon="10.962066627005804"><ele>29.0</ele><time>2026-04-18T11:12:42.063Z</time></trkpt><trkpt lat="43.71835212692509" lon="10.961937994841804"><ele>29.0</ele><time>2026-04-18T11:12:44.063Z</time></trkpt><trkpt lat="43.71833918023625" lon="10.961803527960177"><ele>29.0</ele><time>2026-04-18T11:12:46.063Z</time></trkpt><trkpt lat="43.718321354534915" lon="10.961673503858066"><ele>29.0</ele><time>2026-04-18T11:12:48.063Z</time></trkpt><trkpt lat="43.718310413389524" lon="10.961539605442525"><ele>29.2</ele><time>2026-04-18T11:12:50.063Z</time></trkpt><trkpt lat="43.7183110930032" lon="10.961413781018704"><ele>29.4</ele><time>2026-04-18T11:12:52.062Z</time></trkpt><trkpt lat="43.71827621503588" lon="10.961284212632547"><ele>29.6</ele><time>2026-04-18T11:12:54.062Z</time></trkpt><trkpt lat="43.71828671308267" lon="10.961160215915607"><ele>29.8</ele><time>2026-04-18T11:12:56.062Z</time></trkpt><trkpt lat="43.71827210035896" lon="10.961036157403132"><ele>30.0</ele><time>2026-04-18T11:12:58.062Z</time></trkpt><trkpt lat="43.718277583043296" lon="10.960911029161556"><ele>29.4</ele><time>2026-04-18T11:13:00.062Z</time></trkpt><trkpt lat="43.71817774864927" lon="10.960796903252284"><ele>28.8</ele><time>2026-04-18T11:13:02.062Z</time></trkpt><trkpt lat="43.71816352351537" lon="10.960677918630205"><ele>28.200000000000003</ele><time>2026-04-18T11:13:04.062Z</time></trkpt><trkpt lat="43.7181220912706" lon="10.96056006838846"><ele>27.6</ele><time>2026-04-18T11:13:06.062Z</time></trkpt><trkpt lat="43.71802047051495" lon="10.960530323254401"><ele>27.0</ele><time>2026-04-18T11:13:08.062Z</time></trkpt><trkpt lat="43.71791631039057" lon="10.960543587305537"><ele>27.0</ele><time>2026-04-18T11:13:10.062Z</time></trkpt><trkpt lat="43.71781567930166" lon="10.960537692392515"><ele>27.000000000000004</ele><time>2026-04-18T11:13:12.062Z</time></trkpt><trkpt lat="43.7177128766495" lon="10.960538708027299"><ele>27.000000000000004</ele><time>2026-04-18T11:13:14.062Z</time></trkpt><trkpt lat="43.71761376343752" lon="10.96053583962036"><ele>27.0</ele><time>2026-04-18T11:13:16.062Z</time></trkpt><trkpt lat="43.7175170494867" lon="10.960534832633822"><ele>27.0</ele><time>2026-04-18T11:13:18.062Z</time></trkpt><trkpt lat="43.71742258897697" lon="10.960530583933343"><ele>27.166666666666668</ele><time>2026-04-18T11:13:20.062Z</time></trkpt><trkpt lat="43.71733259654973" lon="10.960526784748769"><ele>27.333333333333336</ele><time>2026-04-18T11:13:22.062Z</time></trkpt><trkpt lat="43.717246440745626" lon="10.960466466328825"><ele>27.5</ele><time>2026-04-18T11:13:24.062Z</time></trkpt><trkpt lat="43.717151720394874" lon="10.96046070411216"><ele>27.666666666666668</ele><time>2026-04-18T11:13:26.062Z</time></trkpt><trkpt lat="43.71706419924388" lon="10.960461804963003"><ele>27.833333333333336</ele><time>2026-04-18T11:13:28.062Z</time></trkpt><trkpt lat="43.71698735303578" lon="10.960475478475464"><ele>28.0</ele><time>2026-04-18T11:13:30.062Z</time></trkpt><trkpt lat="43.716908534505606" lon="10.96049016387288"><ele>27.599999999999998</ele><time>2026-04-18T11:13:32.062Z</time></trkpt><trkpt lat="43.716818492892074" lon="10.960499117237813"><ele>27.199999999999996</ele><time>2026-04-18T11:13:35.062Z</time></trkpt><trkpt lat="43.716805450057315" lon="10.960775819867653"><ele>26.8</ele><time>2026-04-18T11:13:38.062Z</time></trkpt><trkpt lat="43.71681181767933" lon="10.960892161875295"><ele>26.4</ele><time>2026-04-18T11:13:41.062Z</time></trkpt><trkpt lat="43.71674579282681" lon="10.960871605565314"><ele>26.0</ele><time>2026-04-18T11:13:43.062Z</time></trkpt><trkpt lat="43.71675541550756" lon="10.960780613612302"><ele>25.833333333333332</ele><time>2026-04-18T11:13:45.062Z</time></trkpt><trkpt lat="43.71680072295565" lon="10.960712834640034"><ele>25.666666666666664</ele><time>2026-04-18T11:36:22.037Z</time></trkpt><trkpt lat="43.71681611799458" lon="10.96059512564302"><ele>25.5</ele><time>2026-04-18T11:36:25.037Z</time></trkpt><trkpt lat="43.71676140277711" lon="10.960499606965037"><ele>25.333333333333336</ele><time>2026-04-18T11:36:28.037Z</time></trkpt><trkpt lat="43.71668423969974" lon="10.960513801399655"><ele>25.166666666666668</ele><time>2026-04-18T11:36:30.037Z</time></trkpt><trkpt lat="43.71660922923958" lon="10.96050228268366"><ele>25.0</ele><time>2026-04-18T11:36:32.037Z</time></trkpt><trkpt lat="43.716531184728396" lon="10.960517152661025"><ele>25.000000000000004</ele><time>2026-04-18T11:36:34.037Z</time></trkpt><trkpt lat="43.716452179897274" lon="10.960514482589463"><ele>25.0</ele><time>2026-04-18T11:36:36.037Z</time></trkpt><trkpt lat="43.716371986973115" lon="10.96050696048013"><ele>25.0</ele><time>2026-04-18T11:36:38.037Z</time></trkpt><trkpt lat="43.716306389029945" lon="10.96049873203675"><ele>25.0</ele><time>2026-04-18T11:36:40.037Z</time></trkpt><trkpt lat="43.71624114239744" lon="10.960494354495399"><ele>25.0</ele><time>2026-04-18T11:36:42.037Z</time></trkpt><trkpt lat="43.71615377752285" lon="10.960481770021612"><ele>25.000000000000004</ele><time>2026-04-18T11:36:45.037Z</time></trkpt><trkpt lat="43.7160901480203" lon="10.9604801055442"><ele>25.0</ele><time>2026-04-18T11:36:47.037Z</time></trkpt><trkpt lat="43.71602349297662" lon="10.96047157373619"><ele>25.28571428571429</ele><time>2026-04-18T11:36:49.037Z</time></trkpt><trkpt lat="43.715954325561775" lon="10.960463659842096"><ele>25.571428571428573</ele><time>2026-04-18T11:36:51.037Z</time></trkpt><trkpt lat="43.71588295831742" lon="10.960452733946305"><ele>25.857142857142858</ele><time>2026-04-18T11:36:53.037Z</time></trkpt><trkpt lat="43.71581590811762" lon="10.960431425144852"><ele>26.142857142857146</ele><time>2026-04-18T11:36:55.037Z</time></trkpt><trkpt lat="43.71575215302625" lon="10.960410299844918"><ele>26.428571428571427</ele><time>2026-04-18T11:36:57.037Z</time></trkpt><trkpt lat="43.71568599913093" lon="10.960380650230398"><ele>26.714285714285715</ele><time>2026-04-18T11:36:59.037Z</time></trkpt><trkpt lat="43.71562006210174" lon="10.960342590655445"><ele>27.0</ele><time>2026-04-18T11:37:01.037Z</time></trkpt><trkpt lat="43.71554726487595" lon="10.960311789581013"><ele>27.0</ele><time>2026-04-18T11:37:03.037Z</time></trkpt><trkpt lat="43.715475020267625" lon="10.960281678062463"><ele>27.0</ele><time>2026-04-18T11:37:05.037Z</time></trkpt><trkpt lat="43.71540939655825" lon="10.960249848184286"><ele>27.0</ele><time>2026-04-18T11:37:07.037Z</time></trkpt><trkpt lat="43.71534575170043" lon="10.960244229278258"><ele>27.0</ele><time>2026-04-18T11:37:09.037Z</time></trkpt><trkpt lat="43.71526282190685" lon="10.960210414031337"><ele>27.0</ele><time>2026-04-18T11:37:12.037Z</time></trkpt><trkpt lat="43.71517403772047" lon="10.960179662078886"><ele>27.0</ele><time>2026-04-18T11:37:15.037Z</time></trkpt><trkpt lat="43.715085500792185" lon="10.960146698542491"><ele>27.0</ele><time>2026-04-18T11:37:18.037Z</time></trkpt><trkpt lat="43.715007517750514" lon="10.960124743684792"><ele>27.0</ele><time>2026-04-18T11:37:21.037Z</time></trkpt><trkpt lat="43.71492934717622" lon="10.960089750619282"><ele>27.0</ele><time>2026-04-18T11:37:24.037Z</time></trkpt><trkpt lat="43.71485615410207" lon="10.96005128864392"><ele>27.0</ele><time>2026-04-18T11:37:27.037Z</time></trkpt><trkpt lat="43.71477806289553" lon="10.960022072350641"><ele>27.0</ele><time>2026-04-18T11:37:30.037Z</time></trkpt><trkpt lat="43.71470979065537" lon="10.959996549908432"><ele>27.0</ele><time>2026-04-18T11:37:33.037Z</time></trkpt><trkpt lat="43.71464487063962" lon="10.959967356385242"><ele>27.0</ele><time>2026-04-18T11:37:36.037Z</time></trkpt><trkpt lat="43.71457891249424" lon="10.95994187417856"><ele>27.0</ele><time>2026-04-18T11:37:39.037Z</time></trkpt><trkpt lat="43.71450111621503" lon="10.959999719466675"><ele>27.0</ele><time>2026-04-18T11:37:43.037Z</time></trkpt><trkpt lat="43.71449060367866" lon="10.960093411738354"><ele>27.0</ele><time>2026-04-18T11:37:45.037Z</time></trkpt><trkpt lat="43.71447341401758" lon="10.960204216024954"><ele>27.0</ele><time>2026-04-18T11:37:48.037Z</time></trkpt><trkpt lat="43.714439926655515" lon="10.960303139128666"><ele>27.0</ele><time>2026-04-18T11:37:51.036Z</time></trkpt><trkpt lat="43.714389058758606" lon="10.960386738565571"><ele>27.333333333333332</ele><time>2026-04-18T11:37:54.036Z</time></trkpt><trkpt lat="43.71432339716503" lon="10.960393158445344"><ele>27.666666666666664</ele><time>2026-04-18T11:37:56.036Z</time></trkpt><trkpt lat="43.71425583607842" lon="10.960370885703385"><ele>28.0</ele><time>2026-04-18T11:37:58.035Z</time></trkpt><trkpt lat="43.71419597614281" lon="10.960339003348283"><ele>28.333333333333332</ele><time>2026-04-18T11:38:00.035Z</time></trkpt><trkpt lat="43.714109441103666" lon="10.960299214492602"><ele>28.666666666666664</ele><time>2026-04-18T11:38:03.035Z</time></trkpt><trkpt lat="43.714020174955245" lon="10.960255514466933"><ele>29.0</ele><time>2026-04-18T11:38:06.035Z</time></trkpt><trkpt lat="43.71396388538604" lon="10.960206173887805"><ele>28.999999999999996</ele><time>2026-04-18T11:38:08.035Z</time></trkpt><trkpt lat="43.71389481865594" lon="10.960131040655378"><ele>29.0</ele><time>2026-04-18T11:38:11.035Z</time></trkpt><trkpt lat="43.713832352756945" lon="10.960065428059625"><ele>29.0</ele><time>2026-04-18T11:38:14.035Z</time></trkpt><trkpt lat="43.71375812390521" lon="10.960019129429003"><ele>29.0</ele><time>2026-04-18T11:38:17.035Z</time></trkpt><trkpt lat="43.71369086523443" lon="10.959991361637945"><ele>28.999999999999996</ele><time>2026-04-18T11:38:19.035Z</time></trkpt><trkpt lat="43.713624889629706" lon="10.959965032244757"><ele>29.0</ele><time>2026-04-18T11:38:21.035Z</time></trkpt><trkpt lat="43.71355275439781" lon="10.959962610865126"><ele>28.85714285714286</ele><time>2026-04-18T11:38:23.035Z</time></trkpt><trkpt lat="43.71348497947991" lon="10.959968981683122"><ele>28.714285714285715</ele><time>2026-04-18T11:38:25.035Z</time></trkpt><trkpt lat="43.713416405445955" lon="10.959977157995521"><ele>28.571428571428573</ele><time>2026-04-18T11:38:27.035Z</time></trkpt><trkpt lat="43.71334223128036" lon="10.959993661360627"><ele>28.42857142857143</ele><time>2026-04-18T11:38:29.035Z</time></trkpt><trkpt lat="43.7132778914937" lon="10.960004103245057"><ele>28.285714285714285</ele><time>2026-04-18T11:38:31.035Z</time></trkpt><trkpt lat="43.71319422262582" lon="10.960020235374602"><ele>28.142857142857142</ele><time>2026-04-18T11:38:34.035Z</time></trkpt><trkpt lat="43.71312248578651" lon="10.96003268919165"><ele>28.0</ele><time>2026-04-18T11:38:36.035Z</time></trkpt><trkpt lat="43.71302994807282" lon="10.960048252330928"><ele>27.857142857142858</ele><time>2026-04-18T11:38:39.035Z</time></trkpt><trkpt lat="43.7129654909901" lon="10.96006972180611"><ele>27.714285714285715</ele><time>2026-04-18T11:38:41.035Z</time></trkpt><trkpt lat="43.71288068003472" lon="10.960083366292416"><ele>27.57142857142857</ele><time>2026-04-18T11:38:44.035Z</time></trkpt><trkpt lat="43.71281326889355" lon="10.96009669983789"><ele>27.42857142857143</ele><time>2026-04-18T11:38:46.035Z</time></trkpt><trkpt lat="43.712744516697235" lon="10.960121418322736"><ele>27.285714285714285</ele><time>2026-04-18T11:38:48.035Z</time></trkpt><trkpt lat="43.71267534467636" lon="10.960148432202077"><ele>27.142857142857142</ele><time>2026-04-18T11:38:50.035Z</time></trkpt><trkpt lat="43.71258906719249" lon="10.960154003857603"><ele>27.0</ele><time>2026-04-18T11:38:53.035Z</time></trkpt><trkpt lat="43.71252479523201" lon="10.960157432781319"><ele>26.857142857142858</ele><time>2026-04-18T11:38:55.035Z</time></trkpt><trkpt lat="43.71245851084375" lon="10.960154422279775"><ele>26.714285714285715</ele><time>2026-04-18T11:38:57.035Z</time></trkpt><trkpt lat="43.71238606765331" lon="10.96015559949808"><ele>26.57142857142857</ele><time>2026-04-18T11:38:59.035Z</time></trkpt><trkpt lat="43.71231811075529" lon="10.960144918532091"><ele>26.42857142857143</ele><time>2026-04-18T11:39:01.035Z</time></trkpt><trkpt lat="43.7122515384259" lon="10.96013894318288"><ele>26.28571428571429</ele><time>2026-04-18T11:39:03.035Z</time></trkpt><trkpt lat="43.71217766354237" lon="10.960123062975525"><ele>26.142857142857142</ele><time>2026-04-18T11:39:05.035Z</time></trkpt><trkpt lat="43.712096751192725" lon="10.960129151618734"><ele>26.0</ele><time>2026-04-18T11:39:08.035Z</time></trkpt><trkpt lat="43.71201337409624" lon="10.960100917123864"><ele>25.999999999999996</ele><time>2026-04-18T11:39:10.035Z</time></trkpt><trkpt lat="43.711914488564624" lon="10.960090162519483"><ele>26.0</ele><time>2026-04-18T11:39:13.035Z</time></trkpt><trkpt lat="43.71184349171376" lon="10.96007604391367"><ele>26.0</ele><time>2026-04-18T11:39:15.035Z</time></trkpt><trkpt lat="43.711767519608614" lon="10.960061998752883"><ele>26.0</ele><time>2026-04-18T11:39:17.035Z</time></trkpt><trkpt lat="43.71169483505326" lon="10.960040386285627"><ele>25.999999999999996</ele><time>2026-04-18T11:39:19.035Z</time></trkpt><trkpt lat="43.71162904032451" lon="10.96001776211706"><ele>26.0</ele><time>2026-04-18T11:39:21.035Z</time></trkpt><trkpt lat="43.71156413408945" lon="10.959985364630105"><ele>26.285714285714285</ele><time>2026-04-18T11:39:23.035Z</time></trkpt><trkpt lat="43.71149724357939" lon="10.959959613562047"><ele>26.571428571428573</ele><time>2026-04-18T11:39:25.035Z</time></trkpt><trkpt lat="43.711427657120126" lon="10.959933826603693"><ele>26.857142857142858</ele><time>2026-04-18T11:39:27.035Z</time></trkpt><trkpt lat="43.711358320196474" lon="10.959915584118091"><ele>27.142857142857142</ele><time>2026-04-18T11:39:29.035Z</time></trkpt><trkpt lat="43.71129014673236" lon="10.959894238308834"><ele>27.42857142857143</ele><time>2026-04-18T11:39:31.035Z</time></trkpt><trkpt lat="43.71122114322163" lon="10.959898910986084"><ele>27.714285714285715</ele><time>2026-04-18T11:39:33.035Z</time></trkpt><trkpt lat="43.71116263329823" lon="10.959939984812813"><ele>28.0</ele><time>2026-04-18T11:39:35.035Z</time></trkpt><trkpt lat="43.71112708094075" lon="10.960032029757441"><ele>27.857142857142858</ele><time>2026-04-18T11:39:37.035Z</time></trkpt><trkpt lat="43.711102451237686" lon="10.960120713871609"><ele>27.714285714285715</ele><time>2026-04-18T11:39:39.035Z</time></trkpt><trkpt lat="43.71106819970709" lon="10.960240466469326"><ele>27.57142857142857</ele><time>2026-04-18T11:39:42.035Z</time></trkpt><trkpt lat="43.7110431814005" lon="10.96032291007314"><ele>27.42857142857143</ele><time>2026-04-18T11:39:44.035Z</time></trkpt><trkpt lat="43.71102138013293" lon="10.960409768467047"><ele>27.285714285714285</ele><time>2026-04-18T11:39:46.035Z</time></trkpt><trkpt lat="43.7109939565058" lon="10.960502818604795"><ele>27.142857142857142</ele><time>2026-04-18T11:39:48.035Z</time></trkpt><trkpt lat="43.71096735781792" lon="10.960596591731276"><ele>27.0</ele><time>2026-04-18T11:39:50.035Z</time></trkpt><trkpt lat="43.71095265562416" lon="10.960685036565243"><ele>26.857142857142858</ele><time>2026-04-18T11:39:52.035Z</time></trkpt><trkpt lat="43.71091344868358" lon="10.96076632230302"><ele>26.714285714285715</ele><time>2026-04-18T11:39:54.035Z</time></trkpt><trkpt lat="43.71084527018484" lon="10.960796354695368"><ele>26.57142857142857</ele><time>2026-04-18T11:39:56.035Z</time></trkpt><trkpt lat="43.71077782177344" lon="10.960754361153612"><ele>26.42857142857143</ele><time>2026-04-18T11:39:58.033Z</time></trkpt><trkpt lat="43.71071424720312" lon="10.960723702583588"><ele>26.28571428571429</ele><time>2026-04-18T11:40:00.033Z</time></trkpt><trkpt lat="43.71065158631784" lon="10.96068168750626"><ele>26.142857142857142</ele><time>2026-04-18T11:40:02.033Z</time></trkpt><trkpt lat="43.71058953649925" lon="10.960653622050595"><ele>26.0</ele><time>2026-04-18T11:40:04.033Z</time></trkpt><trkpt lat="43.71051935876246" lon="10.960611815940856"><ele>25.999999999999996</ele><time>2026-04-18T11:40:06.033Z</time></trkpt><trkpt lat="43.71045510251343" lon="10.960577476991617"><ele>26.0</ele><time>2026-04-18T11:40:08.033Z</time></trkpt><trkpt lat="43.7103775453205" lon="10.960571367073138"><ele>26.0</ele><time>2026-04-18T11:40:10.033Z</time></trkpt><trkpt lat="43.71031343075604" lon="10.960615191531245"><ele>26.0</ele><time>2026-04-18T11:40:12.033Z</time></trkpt><trkpt lat="43.71027329940411" lon="10.960708845805142"><ele>25.999999999999996</ele><time>2026-04-18T11:40:14.033Z</time></trkpt><trkpt lat="43.71025377598512" lon="10.960805798467614"><ele>26.0</ele><time>2026-04-18T11:40:16.033Z</time></trkpt><trkpt lat="43.71022961359314" lon="10.96091725471225"><ele>26.166666666666664</ele><time>2026-04-18T11:40:18.033Z</time></trkpt><trkpt lat="43.710170587028344" lon="10.961002441860575"><ele>26.333333333333332</ele><time>2026-04-18T11:40:20.033Z</time></trkpt><trkpt lat="43.71008349281574" lon="10.961009524776022"><ele>26.5</ele><time>2026-04-18T11:40:22.033Z</time></trkpt><trkpt lat="43.71000911737911" lon="10.960951267557126"><ele>26.666666666666664</ele><time>2026-04-18T11:40:24.033Z</time></trkpt><trkpt lat="43.709937804510304" lon="10.960909647294594"><ele>26.833333333333332</ele><time>2026-04-18T11:40:26.033Z</time></trkpt><trkpt lat="43.7098703770522" lon="10.96086885144466"><ele>27.0</ele><time>2026-04-18T11:40:28.033Z</time></trkpt><trkpt lat="43.70980120111859" lon="10.960840806996615"><ele>27.142857142857142</ele><time>2026-04-18T11:40:30.033Z</time></trkpt><trkpt lat="43.709733471400654" lon="10.960807185978364"><ele>27.285714285714285</ele><time>2026-04-18T11:40:32.033Z</time></trkpt><trkpt lat="43.709684753487046" lon="10.96072410984478"><ele>27.42857142857143</ele><time>2026-04-18T11:40:35.033Z</time></trkpt><trkpt lat="43.70970283423425" lon="10.960630473075431"><ele>27.57142857142857</ele><time>2026-04-18T11:40:37.033Z</time></trkpt><trkpt lat="43.70972076532462" lon="10.960536370424615"><ele>27.714285714285715</ele><time>2026-04-18T11:40:39.033Z</time></trkpt><trkpt lat="43.70973558402976" lon="10.960447776720606"><ele>27.857142857142858</ele><time>2026-04-18T11:40:41.033Z</time></trkpt><trkpt lat="43.709721939344995" lon="10.960345713934219"><ele>28.0</ele><time>2026-04-18T11:40:43.033Z</time></trkpt><trkpt lat="43.70973558336063" lon="10.960246617278184"><ele>28.000000000000004</ele><time>2026-04-18T11:40:45.033Z</time></trkpt><trkpt lat="43.7097567094955" lon="10.960159624303072"><ele>28.0</ele><time>2026-04-18T11:40:47.033Z</time></trkpt><trkpt lat="43.709776127641355" lon="10.960053277148344"><ele>28.0</ele><time>2026-04-18T11:40:49.033Z</time></trkpt><trkpt lat="43.70980014964482" lon="10.959955629633843"><ele>28.0</ele><time>2026-04-18T11:40:51.033Z</time></trkpt><trkpt lat="43.70983159983784" lon="10.959854162810503"><ele>28.000000000000004</ele><time>2026-04-18T11:40:53.033Z</time></trkpt><trkpt lat="43.70985519669785" lon="10.959748975239062"><ele>28.0</ele><time>2026-04-18T11:40:55.033Z</time></trkpt><trkpt lat="43.70989721532144" lon="10.959653280941456"><ele>28.166666666666668</ele><time>2026-04-18T11:40:57.033Z</time></trkpt><trkpt lat="43.70993156330037" lon="10.959548289060955"><ele>28.333333333333336</ele><time>2026-04-18T11:40:59.033Z</time></trkpt><trkpt lat="43.70997765176027" lon="10.959465726675738"><ele>28.5</ele><time>2026-04-18T11:41:01.033Z</time></trkpt><trkpt lat="43.71002680876756" lon="10.959392278608016"><ele>28.666666666666664</ele><time>2026-04-18T11:41:03.033Z</time></trkpt><trkpt lat="43.71006612194349" lon="10.959279794488907"><ele>28.833333333333332</ele><time>2026-04-18T11:41:06.033Z</time></trkpt><trkpt lat="43.71009630445486" lon="10.959200090846776"><ele>29.0</ele><time>2026-04-18T11:41:08.033Z</time></trkpt><trkpt lat="43.71011854986474" lon="10.9591180111695"><ele>29.0</ele><time>2026-04-18T11:41:10.033Z</time></trkpt><trkpt lat="43.71015207408237" lon="10.959041490069747"><ele>29.0</ele><time>2026-04-18T11:41:12.033Z</time></trkpt><trkpt lat="43.71020510621058" lon="10.958918832057998"><ele>29.0</ele><time>2026-04-18T11:41:15.033Z</time></trkpt><trkpt lat="43.71027414159085" lon="10.95882388305001"><ele>29.0</ele><time>2026-04-18T11:41:17.033Z</time></trkpt><trkpt lat="43.710335525699655" lon="10.958681188525803"><ele>29.0</ele><time>2026-04-18T11:41:19.033Z</time></trkpt><trkpt lat="43.7103754054798" lon="10.958575461315473"><ele>29.0</ele><time>2026-04-18T11:41:21.033Z</time></trkpt><trkpt lat="43.71028829155325" lon="10.958463306968605"><ele>29.0</ele><time>2026-04-18T11:41:24.033Z</time></trkpt><trkpt lat="43.7102200779805" lon="10.958375858253339"><ele>29.0</ele><time>2026-04-18T11:41:26.033Z</time></trkpt><trkpt lat="43.71016186224294" lon="10.958266516921077"><ele>29.0</ele><time>2026-04-18T11:41:28.033Z</time></trkpt><trkpt lat="43.71012786933745" lon="10.958136593070819"><ele>29.0</ele><time>2026-04-18T11:41:30.033Z</time></trkpt><trkpt lat="43.71010473863105" lon="10.957995584827872"><ele>29.0</ele><time>2026-04-18T11:41:32.033Z</time></trkpt><trkpt lat="43.71006173259687" lon="10.957884140166943"><ele>29.0</ele><time>2026-04-18T11:41:34.033Z</time></trkpt><trkpt lat="43.70999896225735" lon="10.957759519656772"><ele>29.0</ele><time>2026-04-18T11:41:36.033Z</time></trkpt><trkpt lat="43.70992083584146" lon="10.957652451047434"><ele>29.0</ele><time>2026-04-18T11:41:38.033Z</time></trkpt><trkpt lat="43.70983926769258" lon="10.957569482726958"><ele>29.0</ele><time>2026-04-18T11:41:40.033Z</time></trkpt><trkpt lat="43.709739283649114" lon="10.957511652024479"><ele>29.0</ele><time>2026-04-18T11:41:42.033Z</time></trkpt><trkpt lat="43.709623170345274" lon="10.957480268030888"><ele>29.0</ele><time>2026-04-18T11:41:44.033Z</time></trkpt><trkpt lat="43.709519238486465" lon="10.957463569021925"><ele>29.0</ele><time>2026-04-18T11:41:46.033Z</time></trkpt><trkpt lat="43.70941424583115" lon="10.957451763815142"><ele>29.0</ele><time>2026-04-18T11:41:48.033Z</time></trkpt><trkpt lat="43.709321776783206" lon="10.957439353816882"><ele>29.0</ele><time>2026-04-18T11:41:50.033Z</time></trkpt><trkpt lat="43.709219669824584" lon="10.957425269488178"><ele>29.0</ele><time>2026-04-18T11:41:52.033Z</time></trkpt><trkpt lat="43.70912863531657" lon="10.95741274878543"><ele>29.0</ele><time>2026-04-18T11:41:54.033Z</time></trkpt><trkpt lat="43.709038105609785" lon="10.95739951427851"><ele>29.0</ele><time>2026-04-18T11:41:56.033Z</time></trkpt><trkpt lat="43.708939646225346" lon="10.95738534964496"><ele>29.0</ele><time>2026-04-18T11:41:58.033Z</time></trkpt><trkpt lat="43.708846573342434" lon="10.957374783186134"><ele>29.0</ele><time>2026-04-18T11:42:00.033Z</time></trkpt><trkpt lat="43.70875329479447" lon="10.957367089541435"><ele>29.0</ele><time>2026-04-18T11:42:02.033Z</time></trkpt><trkpt lat="43.708646101877015" lon="10.957358477261767"><ele>29.0</ele><time>2026-04-18T11:42:04.031Z</time></trkpt><trkpt lat="43.708562170958814" lon="10.957352027192183"><ele>29.0</ele><time>2026-04-18T11:42:06.031Z</time></trkpt><trkpt lat="43.70846830719769" lon="10.957347125374149"><ele>29.0</ele><time>2026-04-18T11:42:08.03Z</time></trkpt><trkpt lat="43.7083670947424" lon="10.957341839787324"><ele>29.0</ele><time>2026-04-18T11:42:10.03Z</time></trkpt><trkpt lat="43.7082782231411" lon="10.957341385696425"><ele>29.0</ele><time>2026-04-18T11:42:12.03Z</time></trkpt><trkpt lat="43.7081705941439" lon="10.95735341482863"><ele>29.0</ele><time>2026-04-18T11:42:14.03Z</time></trkpt><trkpt lat="43.70807667890278" lon="10.957391136009392"><ele>29.0</ele><time>2026-04-18T11:42:16.03Z</time></trkpt><trkpt lat="43.70798934117618" lon="10.957431927741972"><ele>29.0</ele><time>2026-04-18T11:42:18.03Z</time></trkpt><trkpt lat="43.70789043824369" lon="10.957500750072121"><ele>29.0</ele><time>2026-04-18T11:42:20.03Z</time></trkpt><trkpt lat="43.70781384327446" lon="10.95755757262049"><ele>29.166666666666664</ele><time>2026-04-18T11:42:22.03Z</time></trkpt><trkpt lat="43.70773890695981" lon="10.95761007531267"><ele>29.333333333333332</ele><time>2026-04-18T11:42:24.03Z</time></trkpt><trkpt lat="43.70766210893308" lon="10.957663882448676"><ele>29.5</ele><time>2026-04-18T11:42:26.03Z</time></trkpt><trkpt lat="43.707595634957805" lon="10.957710456221141"><ele>29.666666666666664</ele><time>2026-04-18T11:42:28.03Z</time></trkpt><trkpt lat="43.70753475620115" lon="10.957772247543978"><ele>29.833333333333332</ele><time>2026-04-18T11:42:30.03Z</time></trkpt><trkpt lat="43.707461096816125" lon="10.957811225056762"><ele>30.0</ele><time>2026-04-18T11:42:32.03Z</time></trkpt><trkpt lat="43.70739120030865" lon="10.957834788136694"><ele>30.0</ele><time>2026-04-18T11:42:34.03Z</time></trkpt><trkpt lat="43.7073224002438" lon="10.957797923602229"><ele>30.0</ele><time>2026-04-18T11:42:36.03Z</time></trkpt><trkpt lat="43.70727247030202" lon="10.957713346869108"><ele>30.0</ele><time>2026-04-18T11:42:38.03Z</time></trkpt><trkpt lat="43.70724515202167" lon="10.957607467972725"><ele>30.0</ele><time>2026-04-18T11:42:40.03Z</time></trkpt><trkpt lat="43.70719903824595" lon="10.957513632688734"><ele>30.0</ele><time>2026-04-18T11:42:42.03Z</time></trkpt><trkpt lat="43.70712319199431" lon="10.957439018183942"><ele>30.0</ele><time>2026-04-18T11:42:44.03Z</time></trkpt><trkpt lat="43.7070486184255" lon="10.957369299884382"><ele>30.0</ele><time>2026-04-18T11:42:46.03Z</time></trkpt><trkpt lat="43.706972083809696" lon="10.957297748298735"><ele>30.0</ele><time>2026-04-18T11:42:48.03Z</time></trkpt><trkpt lat="43.70689057195331" lon="10.95722527813537"><ele>30.0</ele><time>2026-04-18T11:42:50.03Z</time></trkpt><trkpt lat="43.70682481787591" lon="10.957161859518239"><ele>30.0</ele><time>2026-04-18T11:42:52.03Z</time></trkpt><trkpt lat="43.70676598692941" lon="10.95708922134712"><ele>30.0</ele><time>2026-04-18T11:42:54.03Z</time></trkpt><trkpt lat="43.70676634075552" lon="10.956969415727722"><ele>30.0</ele><time>2026-04-18T11:42:56.03Z</time></trkpt><trkpt lat="43.706778788797685" lon="10.956843510538423"><ele>30.0</ele><time>2026-04-18T11:42:58.03Z</time></trkpt><trkpt lat="43.706795517337326" lon="10.956716294980877"><ele>30.0</ele><time>2026-04-18T11:43:00.03Z</time></trkpt><trkpt lat="43.706812558402724" lon="10.956590825484364"><ele>30.0</ele><time>2026-04-18T11:43:02.03Z</time></trkpt><trkpt lat="43.7068283852616" lon="10.956483598287855"><ele>30.0</ele><time>2026-04-18T11:43:04.03Z</time></trkpt><trkpt lat="43.70684036872298" lon="10.956380596634824"><ele>30.0</ele><time>2026-04-18T11:43:06.03Z</time></trkpt><trkpt lat="43.70683794664181" lon="10.95626739568641"><ele>30.0</ele><time>2026-04-18T11:43:08.03Z</time></trkpt><trkpt lat="43.7067310642367" lon="10.95621330034042"><ele>30.0</ele><time>2026-04-18T11:43:10.03Z</time></trkpt><trkpt lat="43.70664218076839" lon="10.956199353502175"><ele>30.0</ele><time>2026-04-18T11:43:12.03Z</time></trkpt><trkpt lat="43.70655334397568" lon="10.956184536228392"><ele>30.0</ele><time>2026-04-18T11:43:14.03Z</time></trkpt><trkpt lat="43.70646754267065" lon="10.956170225243582"><ele>30.0</ele><time>2026-04-18T11:43:16.03Z</time></trkpt><trkpt lat="43.70637985488727" lon="10.9561540633087"><ele>30.0</ele><time>2026-04-18T11:43:18.03Z</time></trkpt><trkpt lat="43.70629532741171" lon="10.956134281634212"><ele>30.0</ele><time>2026-04-18T11:43:20.03Z</time></trkpt><trkpt lat="43.706209630452996" lon="10.95610598540783"><ele>30.0</ele><time>2026-04-18T11:43:22.03Z</time></trkpt><trkpt lat="43.70612606751425" lon="10.956074229370685"><ele>30.0</ele><time>2026-04-18T11:43:24.03Z</time></trkpt><trkpt lat="43.70604082525611" lon="10.956041061812769"><ele>30.0</ele><time>2026-04-18T11:43:26.03Z</time></trkpt><trkpt lat="43.70595473701518" lon="10.956007565047251"><ele>30.0</ele><time>2026-04-18T11:43:28.03Z</time></trkpt><trkpt lat="43.705870023955114" lon="10.955974603395372"><ele>30.0</ele><time>2026-04-18T11:43:30.03Z</time></trkpt><trkpt lat="43.705785329853654" lon="10.955941648811079"><ele>30.0</ele><time>2026-04-18T11:43:32.03Z</time></trkpt><trkpt lat="43.70569867813725" lon="10.95591124027277"><ele>30.0</ele><time>2026-04-18T11:43:34.03Z</time></trkpt><trkpt lat="43.70560782761505" lon="10.95588252245709"><ele>30.0</ele><time>2026-04-18T11:43:36.03Z</time></trkpt><trkpt lat="43.70551613833227" lon="10.955877453249995"><ele>30.0</ele><time>2026-04-18T11:43:38.03Z</time></trkpt><trkpt lat="43.70543327584437" lon="10.955831311888208"><ele>30.0</ele><time>2026-04-18T11:43:40.03Z</time></trkpt><trkpt lat="43.705349494195126" lon="10.955807610193428"><ele>30.0</ele><time>2026-04-18T11:43:42.03Z</time></trkpt><trkpt lat="43.70526388435915" lon="10.955785167274565"><ele>30.0</ele><time>2026-04-18T11:43:44.03Z</time></trkpt><trkpt lat="43.70517915120853" lon="10.955762954174489"><ele>29.833333333333332</ele><time>2026-04-18T11:43:46.03Z</time></trkpt><trkpt lat="43.70509373989138" lon="10.955740086857938"><ele>29.666666666666664</ele><time>2026-04-18T11:43:48.03Z</time></trkpt><trkpt lat="43.70500578352972" lon="10.955716135817932"><ele>29.5</ele><time>2026-04-18T11:43:50.03Z</time></trkpt><trkpt lat="43.70491632473241" lon="10.955692163023283"><ele>29.333333333333332</ele><time>2026-04-18T11:43:52.03Z</time></trkpt><trkpt lat="43.70483484574028" lon="10.955670585573856"><ele>29.166666666666664</ele><time>2026-04-18T11:43:54.03Z</time></trkpt><trkpt lat="43.70475165151713" lon="10.95564855390437"><ele>29.0</ele><time>2026-04-18T11:43:56.03Z</time></trkpt><trkpt lat="43.70466725181057" lon="10.955624698133827"><ele>28.999999999999996</ele><time>2026-04-18T11:43:58.03Z</time></trkpt><trkpt lat="43.704581772216265" lon="10.955599379584948"><ele>29.0</ele><time>2026-04-18T11:44:00.03Z</time></trkpt><trkpt lat="43.70449827936361" lon="10.955574649252503"><ele>29.0</ele><time>2026-04-18T11:44:02.03Z</time></trkpt><trkpt lat="43.70441426134496" lon="10.955546209588618"><ele>29.0</ele><time>2026-04-18T11:44:04.03Z</time></trkpt><trkpt lat="43.70433024764123" lon="10.955513994124646"><ele>28.999999999999996</ele><time>2026-04-18T11:44:06.03Z</time></trkpt><trkpt lat="43.70425105580329" lon="10.955479799577786"><ele>29.0</ele><time>2026-04-18T11:44:08.03Z</time></trkpt><trkpt lat="43.704168548607356" lon="10.955459184725886"><ele>29.166666666666664</ele><time>2026-04-18T11:44:10.028Z</time></trkpt><trkpt lat="43.70408342576263" lon="10.955402854544978"><ele>29.333333333333332</ele><time>2026-04-18T11:44:12.028Z</time></trkpt><trkpt lat="43.70399907077677" lon="10.955364847266791"><ele>29.5</ele><time>2026-04-18T11:44:14.028Z</time></trkpt><trkpt lat="43.70391400778875" lon="10.955328930137894"><ele>29.666666666666664</ele><time>2026-04-18T11:44:16.028Z</time></trkpt><trkpt lat="43.703828500000434" lon="10.955293798111756"><ele>29.833333333333332</ele><time>2026-04-18T11:44:18.028Z</time></trkpt><trkpt lat="43.70374388933514" lon="10.955260666856924"><ele>30.0</ele><time>2026-04-18T11:44:20.028Z</time></trkpt><trkpt lat="43.70366684239391" lon="10.955231209080527"><ele>30.0</ele><time>2026-04-18T11:44:22.028Z</time></trkpt><trkpt lat="43.703579578164785" lon="10.955195072780773"><ele>30.0</ele><time>2026-04-18T11:44:24.028Z</time></trkpt><trkpt lat="43.703494692834035" lon="10.955157524191947"><ele>30.0</ele><time>2026-04-18T11:44:26.028Z</time></trkpt><trkpt lat="43.70341417197221" lon="10.95512190624279"><ele>30.0</ele><time>2026-04-18T11:44:28.028Z</time></trkpt><trkpt lat="43.70332929453431" lon="10.955084361163781"><ele>30.0</ele><time>2026-04-18T11:44:30.028Z</time></trkpt><trkpt lat="43.703250260082946" lon="10.955049749695819"><ele>30.0</ele><time>2026-04-18T11:44:32.028Z</time></trkpt><trkpt lat="43.70316682722158" lon="10.955013301458747"><ele>29.8</ele><time>2026-04-18T11:44:34.028Z</time></trkpt><trkpt lat="43.70307462374447" lon="10.9549730216637"><ele>29.6</ele><time>2026-04-18T11:44:36.028Z</time></trkpt><trkpt lat="43.70298915438687" lon="10.954935683808678"><ele>29.4</ele><time>2026-04-18T11:44:38.028Z</time></trkpt><trkpt lat="43.702890119865685" lon="10.95489524711804"><ele>29.2</ele><time>2026-04-18T11:44:40.028Z</time></trkpt><trkpt lat="43.70281471335142" lon="10.954871804539948"><ele>29.0</ele><time>2026-04-18T11:44:42.028Z</time></trkpt><trkpt lat="43.70272135645197" lon="10.954847377379028"><ele>28.999999999999996</ele><time>2026-04-18T11:44:44.028Z</time></trkpt><trkpt lat="43.70263613167143" lon="10.954828513299724"><ele>29.0</ele><time>2026-04-18T11:44:46.028Z</time></trkpt><trkpt lat="43.70255877998679" lon="10.954815215825585"><ele>29.0</ele><time>2026-04-18T11:44:48.028Z</time></trkpt><trkpt lat="43.7024709553722" lon="10.954800117958492"><ele>29.0</ele><time>2026-04-18T11:44:50.028Z</time></trkpt><trkpt lat="43.70238250791107" lon="10.95478491302085"><ele>28.999999999999996</ele><time>2026-04-18T11:44:52.028Z</time></trkpt><trkpt lat="43.70229513895973" lon="10.95476851860393"><ele>29.0</ele><time>2026-04-18T11:44:54.028Z</time></trkpt><trkpt lat="43.70221455988743" lon="10.954751199840922"><ele>28.999999999999996</ele><time>2026-04-18T11:44:56.028Z</time></trkpt><trkpt lat="43.70213155336068" lon="10.954732137801418"><ele>29.0</ele><time>2026-04-18T11:44:58.028Z</time></trkpt><trkpt lat="43.70205602572639" lon="10.954714793242974"><ele>29.0</ele><time>2026-04-18T11:45:00.028Z</time></trkpt><trkpt lat="43.70197161119838" lon="10.954710449357236"><ele>29.0</ele><time>2026-04-18T11:45:03.028Z</time></trkpt><trkpt lat="43.70191190324002" lon="10.95466576275906"><ele>28.999999999999996</ele><time>2026-04-18T11:45:07.028Z</time></trkpt><trkpt lat="43.701833904314846" lon="10.954612148722038"><ele>29.0</ele><time>2026-04-18T11:45:10.028Z</time></trkpt><trkpt lat="43.70177052670856" lon="10.954588210790838"><ele>29.0</ele><time>2026-04-18T11:45:12.028Z</time></trkpt><trkpt lat="43.701716852449394" lon="10.954363111710007"><ele>29.0</ele><time>2026-04-18T11:45:15.028Z</time></trkpt><trkpt lat="43.70165596342727" lon="10.954278725855769"><ele>29.0</ele><time>2026-04-18T11:45:17.028Z</time></trkpt><trkpt lat="43.701589549730954" lon="10.954202501322193"><ele>29.0</ele><time>2026-04-18T11:45:19.028Z</time></trkpt><trkpt lat="43.701509966801005" lon="10.954161215899013"><ele>29.0</ele><time>2026-04-18T11:45:21.028Z</time></trkpt><trkpt lat="43.701429941674554" lon="10.954165168783979"><ele>28.999999999999996</ele><time>2026-04-18T11:45:23.028Z</time></trkpt><trkpt lat="43.7013573284727" lon="10.954216531305011"><ele>29.0</ele><time>2026-04-18T11:45:25.028Z</time></trkpt><trkpt lat="43.701286021384526" lon="10.95426010523898"><ele>29.0</ele><time>2026-04-18T11:45:27.028Z</time></trkpt><trkpt lat="43.70121222307901" lon="10.954248779987218"><ele>29.0</ele><time>2026-04-18T11:45:29.028Z</time></trkpt><trkpt lat="43.70113902280599" lon="10.954228673106526"><ele>28.999999999999996</ele><time>2026-04-18T11:45:31.028Z</time></trkpt><trkpt lat="43.701063742588616" lon="10.95420285967015"><ele>29.0</ele><time>2026-04-18T11:45:33.028Z</time></trkpt><trkpt lat="43.70098182200919" lon="10.954172861464206"><ele>29.333333333333332</ele><time>2026-04-18T11:45:35.028Z</time></trkpt><trkpt lat="43.70089694854126" lon="10.954140735183156"><ele>29.666666666666664</ele><time>2026-04-18T11:45:37.028Z</time></trkpt><trkpt lat="43.70081278237238" lon="10.9541085340975"><ele>30.0</ele><time>2026-04-18T11:45:39.028Z</time></trkpt><trkpt lat="43.700728962544474" lon="10.954076465489615"><ele>30.333333333333336</ele><time>2026-04-18T11:45:41.028Z</time></trkpt><trkpt lat="43.70064590187158" lon="10.95404597115803"><ele>30.666666666666668</ele><time>2026-04-18T11:45:43.028Z</time></trkpt><trkpt lat="43.70056003219039" lon="10.954015782170579"><ele>31.0</ele><time>2026-04-18T11:45:45.028Z</time></trkpt><trkpt lat="43.700473706533614" lon="10.95398493893963"><ele>31.000000000000004</ele><time>2026-04-18T11:45:47.028Z</time></trkpt><trkpt lat="43.70039555665185" lon="10.95395626352335"><ele>31.0</ele><time>2026-04-18T11:45:49.028Z</time></trkpt><trkpt lat="43.700319538003676" lon="10.953927092552949"><ele>31.0</ele><time>2026-04-18T11:45:51.028Z</time></trkpt><trkpt lat="43.700243789991696" lon="10.953895974641666"><ele>31.0</ele><time>2026-04-18T11:45:53.028Z</time></trkpt><trkpt lat="43.700176851390815" lon="10.953868440866549"><ele>31.000000000000004</ele><time>2026-04-18T11:45:55.028Z</time></trkpt><trkpt lat="43.70011465482486" lon="10.953842857625395"><ele>31.0</ele><time>2026-04-18T11:45:57.028Z</time></trkpt><trkpt lat="43.700033848643905" lon="10.953809619769931"><ele>31.333333333333336</ele><time>2026-04-18T11:46:00.028Z</time></trkpt><trkpt lat="43.699971895530794" lon="10.953784136726437"><ele>31.666666666666668</ele><time>2026-04-18T11:46:02.028Z</time></trkpt><trkpt lat="43.69989250294652" lon="10.95375148002279"><ele>32.0</ele><time>2026-04-18T11:46:04.028Z</time></trkpt><trkpt lat="43.69982701966628" lon="10.953771783230156"><ele>32.333333333333336</ele><time>2026-04-18T11:46:05.028Z</time></trkpt><trkpt lat="43.699749889050885" lon="10.953778611077595"><ele>32.666666666666664</ele><time>2026-04-18T11:46:07.028Z</time></trkpt><trkpt lat="43.699675692782094" lon="10.953799848833112"><ele>33.0</ele><time>2026-04-18T11:46:09.028Z</time></trkpt><trkpt lat="43.6995828658375" lon="10.953801738645115"><ele>33.0</ele><time>2026-04-18T11:46:11.028Z</time></trkpt><trkpt lat="43.69951103812433" lon="10.953831856252634"><ele>33.0</ele><time>2026-04-18T11:46:13.028Z</time></trkpt><trkpt lat="43.699427209638316" lon="10.953851169935994"><ele>33.0</ele><time>2026-04-18T11:46:15.025Z</time></trkpt><trkpt lat="43.699354009584354" lon="10.953873857002872"><ele>33.0</ele><time>2026-04-18T11:46:17.025Z</time></trkpt><trkpt lat="43.699280436589156" lon="10.953885382793779"><ele>33.0</ele><time>2026-04-18T11:46:19.025Z</time></trkpt><trkpt lat="43.69920759325059" lon="10.953906432674493"><ele>33.0</ele><time>2026-04-18T11:46:21.025Z</time></trkpt><trkpt lat="43.69913641836729" lon="10.95393518744002"><ele>33.0</ele><time>2026-04-18T11:46:23.025Z</time></trkpt><trkpt lat="43.69905590270587" lon="10.953932576925403"><ele>33.0</ele><time>2026-04-18T11:46:25.025Z</time></trkpt><trkpt lat="43.698974927950545" lon="10.953951853724503"><ele>33.0</ele><time>2026-04-18T11:46:27.025Z</time></trkpt><trkpt lat="43.69889807177605" lon="10.953990829255025"><ele>33.0</ele><time>2026-04-18T11:46:29.025Z</time></trkpt><trkpt lat="43.69882106219178" lon="10.954000607834868"><ele>33.0</ele><time>2026-04-18T11:46:31.025Z</time></trkpt><trkpt lat="43.69874289915218" lon="10.95402509343815"><ele>33.0</ele><time>2026-04-18T11:46:33.025Z</time></trkpt><trkpt lat="43.69866483258814" lon="10.954061199959154"><ele>33.0</ele><time>2026-04-18T11:46:35.025Z</time></trkpt><trkpt lat="43.698589006409776" lon="10.954087890394177"><ele>33.0</ele><time>2026-04-18T11:46:37.025Z</time></trkpt><trkpt lat="43.6985159579185" lon="10.954117439346836"><ele>33.0</ele><time>2026-04-18T11:46:39.025Z</time></trkpt><trkpt lat="43.69844262835995" lon="10.9541639617336"><ele>33.0</ele><time>2026-04-18T11:46:41.025Z</time></trkpt><trkpt lat="43.69836409935949" lon="10.954193351758304"><ele>33.0</ele><time>2026-04-18T11:46:43.025Z</time></trkpt><trkpt lat="43.698285866710556" lon="10.954225096069242"><ele>33.0</ele><time>2026-04-18T11:46:45.025Z</time></trkpt><trkpt lat="43.698217415018675" lon="10.954274471143398"><ele>33.0</ele><time>2026-04-18T11:46:47.025Z</time></trkpt><trkpt lat="43.69815854039961" lon="10.954326366380586"><ele>33.0</ele><time>2026-04-18T11:46:49.025Z</time></trkpt><trkpt lat="43.69807939009054" lon="10.95435655857695"><ele>33.0</ele><time>2026-04-18T11:46:51.025Z</time></trkpt><trkpt lat="43.69800888080085" lon="10.954396297173487"><ele>33.0</ele><time>2026-04-18T11:46:53.025Z</time></trkpt><trkpt lat="43.697943597258245" lon="10.95444705169806"><ele>33.0</ele><time>2026-04-18T11:46:55.025Z</time></trkpt><trkpt lat="43.69786507730242" lon="10.954480839820672"><ele>33.0</ele><time>2026-04-18T11:46:57.025Z</time></trkpt><trkpt lat="43.69778467956815" lon="10.954513129390078"><ele>33.166666666666664</ele><time>2026-04-18T11:46:59.025Z</time></trkpt><trkpt lat="43.69771690035734" lon="10.954578624711274"><ele>33.333333333333336</ele><time>2026-04-18T11:47:01.025Z</time></trkpt><trkpt lat="43.697642697738004" lon="10.954613978416639"><ele>33.5</ele><time>2026-04-18T11:47:03.025Z</time></trkpt><trkpt lat="43.69756233017864" lon="10.954650493145285"><ele>33.66666666666667</ele><time>2026-04-18T11:47:05.025Z</time></trkpt><trkpt lat="43.697489235033395" lon="10.954694961503455"><ele>33.833333333333336</ele><time>2026-04-18T11:47:07.025Z</time></trkpt><trkpt lat="43.697412350931884" lon="10.954747641845454"><ele>34.0</ele><time>2026-04-18T11:47:09.025Z</time></trkpt><trkpt lat="43.6973328136601" lon="10.954788201482843"><ele>34.0</ele><time>2026-04-18T11:47:11.025Z</time></trkpt><trkpt lat="43.69725738843874" lon="10.954834931640741"><ele>34.0</ele><time>2026-04-18T11:47:13.025Z</time></trkpt><trkpt lat="43.697187918878136" lon="10.954893480839514"><ele>34.0</ele><time>2026-04-18T11:47:15.025Z</time></trkpt><trkpt lat="43.69710767839442" lon="10.954934595887792"><ele>34.0</ele><time>2026-04-18T11:47:17.025Z</time></trkpt><trkpt lat="43.69703866440649" lon="10.954992466089614"><ele>34.0</ele><time>2026-04-18T11:47:19.025Z</time></trkpt><trkpt lat="43.69696538662434" lon="10.95504741098123"><ele>34.0</ele><time>2026-04-18T11:47:21.025Z</time></trkpt><trkpt lat="43.696884006009604" lon="10.955096302695226"><ele>33.833333333333336</ele><time>2026-04-18T11:47:23.025Z</time></trkpt><trkpt lat="43.696814413361565" lon="10.955152376859596"><ele>33.66666666666667</ele><time>2026-04-18T11:47:25.025Z</time></trkpt><trkpt lat="43.696750605042986" lon="10.955212827829095"><ele>33.5</ele><time>2026-04-18T11:47:27.025Z</time></trkpt><trkpt lat="43.6966838145546" lon="10.955274629468688"><ele>33.333333333333336</ele><time>2026-04-18T11:47:29.025Z</time></trkpt><trkpt lat="43.69661809420827" lon="10.95534101911536"><ele>33.166666666666664</ele><time>2026-04-18T11:47:31.025Z</time></trkpt><trkpt lat="43.69654879240085" lon="10.955396064628394"><ele>33.0</ele><time>2026-04-18T11:47:33.025Z</time></trkpt><trkpt lat="43.69648112193923" lon="10.955454181882502"><ele>33.0</ele><time>2026-04-18T11:47:35.025Z</time></trkpt><trkpt lat="43.696417733301" lon="10.955520950782862"><ele>33.0</ele><time>2026-04-18T11:47:37.025Z</time></trkpt><trkpt lat="43.696353281262795" lon="10.95558104656025"><ele>33.0</ele><time>2026-04-18T11:47:39.025Z</time></trkpt><trkpt lat="43.69627391500762" lon="10.95562617391746"><ele>33.0</ele><time>2026-04-18T11:47:41.025Z</time></trkpt><trkpt lat="43.696211142065316" lon="10.955702446974401"><ele>33.0</ele><time>2026-04-18T11:47:43.025Z</time></trkpt><trkpt lat="43.696146257923395" lon="10.955763664932856"><ele>33.0</ele><time>2026-04-18T11:47:45.025Z</time></trkpt><trkpt lat="43.696079335363734" lon="10.955821761602678"><ele>33.333333333333336</ele><time>2026-04-18T11:47:47.025Z</time></trkpt><trkpt lat="43.696014868037295" lon="10.955887806086032"><ele>33.666666666666664</ele><time>2026-04-18T11:47:49.025Z</time></trkpt><trkpt lat="43.6959420787618" lon="10.955946039999299"><ele>34.0</ele><time>2026-04-18T11:47:51.025Z</time></trkpt><trkpt lat="43.6958710882741" lon="10.956002804917194"><ele>34.33333333333333</ele><time>2026-04-18T11:47:53.025Z</time></trkpt><trkpt lat="43.695806117928264" lon="10.956061014874605"><ele>34.666666666666664</ele><time>2026-04-18T11:47:55.025Z</time></trkpt><trkpt lat="43.69573678480245" lon="10.956124386530217"><ele>35.0</ele><time>2026-04-18T11:47:57.025Z</time></trkpt><trkpt lat="43.695670520615295" lon="10.95618406975219"><ele>35.0</ele><time>2026-04-18T11:47:59.025Z</time></trkpt><trkpt lat="43.69560398745973" lon="10.956252355766132"><ele>35.0</ele><time>2026-04-18T11:48:01.025Z</time></trkpt><trkpt lat="43.69553739193637" lon="10.956316147663491"><ele>35.0</ele><time>2026-04-18T11:48:03.025Z</time></trkpt><trkpt lat="43.69546990963066" lon="10.956371724198108"><ele>35.0</ele><time>2026-04-18T11:48:05.025Z</time></trkpt><trkpt lat="43.69540330837263" lon="10.956432797157225"><ele>35.0</ele><time>2026-04-18T11:48:07.025Z</time></trkpt><trkpt lat="43.695338475535486" lon="10.956495665333353"><ele>35.0</ele><time>2026-04-18T11:48:09.025Z</time></trkpt><trkpt lat="43.695270809277254" lon="10.956547495581258"><ele>35.0</ele><time>2026-04-18T11:48:11.025Z</time></trkpt><trkpt lat="43.6952017539409" lon="10.956604394315647"><ele>35.0</ele><time>2026-04-18T11:48:13.025Z</time></trkpt><trkpt lat="43.69513993548796" lon="10.956661687748163"><ele>35.0</ele><time>2026-04-18T11:48:15.025Z</time></trkpt><trkpt lat="43.69506938586599" lon="10.956716412619592"><ele>35.0</ele><time>2026-04-18T11:48:17.025Z</time></trkpt><trkpt lat="43.69500689642488" lon="10.956768999316363"><ele>35.0</ele><time>2026-04-18T11:48:19.025Z</time></trkpt><trkpt lat="43.69493925532912" lon="10.956826735165599"><ele>35.0</ele><time>2026-04-18T11:48:21.023Z</time></trkpt><trkpt lat="43.694870376138475" lon="10.956880119923023"><ele>35.0</ele><time>2026-04-18T11:48:23.023Z</time></trkpt><trkpt lat="43.694805390512336" lon="10.956944905661668"><ele>35.0</ele><time>2026-04-18T11:48:25.023Z</time></trkpt><trkpt lat="43.694735646788956" lon="10.957009047425402"><ele>35.0</ele><time>2026-04-18T11:48:27.022Z</time></trkpt><trkpt lat="43.69466173441631" lon="10.957068577693132"><ele>35.0</ele><time>2026-04-18T11:48:29.022Z</time></trkpt><trkpt lat="43.694597371590056" lon="10.957119773030504"><ele>35.0</ele><time>2026-04-18T11:48:31.022Z</time></trkpt><trkpt lat="43.69452469248246" lon="10.95718124719919"><ele>35.0</ele><time>2026-04-18T11:48:33.022Z</time></trkpt><trkpt lat="43.69445899510787" lon="10.957224854573097"><ele>35.5</ele><time>2026-04-18T11:48:35.022Z</time></trkpt><trkpt lat="43.69438702215924" lon="10.957281570682332"><ele>36.0</ele><time>2026-04-18T11:48:37.022Z</time></trkpt><trkpt lat="43.69431532558558" lon="10.957325703921324"><ele>36.5</ele><time>2026-04-18T11:48:39.022Z</time></trkpt><trkpt lat="43.69424508880538" lon="10.957380070885327"><ele>37.0</ele><time>2026-04-18T11:48:41.022Z</time></trkpt><trkpt lat="43.69418069158884" lon="10.95742487376149"><ele>37.5</ele><time>2026-04-18T11:48:43.022Z</time></trkpt><trkpt lat="43.694115374913224" lon="10.957477578632956"><ele>38.0</ele><time>2026-04-18T11:48:45.022Z</time></trkpt><trkpt lat="43.69404509485345" lon="10.957534713319628"><ele>37.5</ele><time>2026-04-18T11:48:47.022Z</time></trkpt><trkpt lat="43.69398189251082" lon="10.957584591060598"><ele>37.0</ele><time>2026-04-18T11:48:49.022Z</time></trkpt><trkpt lat="43.693908264727625" lon="10.957630570728954"><ele>36.5</ele><time>2026-04-18T11:48:51.022Z</time></trkpt><trkpt lat="43.693839159997964" lon="10.95768696592886"><ele>36.0</ele><time>2026-04-18T11:48:53.022Z</time></trkpt><trkpt lat="43.69376706140878" lon="10.957739364022203"><ele>35.5</ele><time>2026-04-18T11:48:55.022Z</time></trkpt><trkpt lat="43.69369231066487" lon="10.957791681007707"><ele>35.0</ele><time>2026-04-18T11:48:57.022Z</time></trkpt><trkpt lat="43.69362063807187" lon="10.95784429683367"><ele>35.5</ele><time>2026-04-18T11:48:59.022Z</time></trkpt><trkpt lat="43.69355948751241" lon="10.957895820754336"><ele>36.0</ele><time>2026-04-18T11:49:01.022Z</time></trkpt><trkpt lat="43.693483029386464" lon="10.957962212919666"><ele>36.5</ele><time>2026-04-18T11:49:03.022Z</time></trkpt><trkpt lat="43.693404344479895" lon="10.95801063939156"><ele>37.0</ele><time>2026-04-18T11:49:05.022Z</time></trkpt><trkpt lat="43.69333551070809" lon="10.958059278619801"><ele>37.5</ele><time>2026-04-18T11:49:07.022Z</time></trkpt><trkpt lat="43.69326513727603" lon="10.958110759442459"><ele>38.0</ele><time>2026-04-18T11:49:09.022Z</time></trkpt><trkpt lat="43.693200701583535" lon="10.958162717626829"><ele>38.0</ele><time>2026-04-18T11:49:11.022Z</time></trkpt><trkpt lat="43.69315637464352" lon="10.958234899521877"><ele>38.0</ele><time>2026-04-18T11:49:13.022Z</time></trkpt><trkpt lat="43.693101024082814" lon="10.958298847148628"><ele>38.0</ele><time>2026-04-18T11:49:15.022Z</time></trkpt><trkpt lat="43.6930070593549" lon="10.958285092188419"><ele>38.0</ele><time>2026-04-18T11:49:17.022Z</time></trkpt><trkpt lat="43.69295641473653" lon="10.958354409559211"><ele>38.0</ele><time>2026-04-18T11:49:19.022Z</time></trkpt><trkpt lat="43.69289041542932" lon="10.958401435317306"><ele>38.0</ele><time>2026-04-18T11:49:21.022Z</time></trkpt><trkpt lat="43.69282180057843" lon="10.958448104619157"><ele>38.0</ele><time>2026-04-18T11:49:23.022Z</time></trkpt><trkpt lat="43.69274569944137" lon="10.958488247817893"><ele>38.0</ele><time>2026-04-18T11:49:25.022Z</time></trkpt><trkpt lat="43.69265946940692" lon="10.958476244668761"><ele>38.0</ele><time>2026-04-18T11:49:27.022Z</time></trkpt><trkpt lat="43.69257717466788" lon="10.958472930708377"><ele>38.0</ele><time>2026-04-18T11:49:29.022Z</time></trkpt><trkpt lat="43.692514010643364" lon="10.958445651993415"><ele>38.0</ele><time>2026-04-18T11:49:31.022Z</time></trkpt><trkpt lat="43.69241983238398" lon="10.958472784890434"><ele>38.0</ele><time>2026-04-18T11:49:34.022Z</time></trkpt><trkpt lat="43.692322391190885" lon="10.958460002157782"><ele>38.0</ele><time>2026-04-18T11:49:37.022Z</time></trkpt><trkpt lat="43.692247761287156" lon="10.958469324937159"><ele>38.0</ele><time>2026-04-18T11:49:39.022Z</time></trkpt><trkpt lat="43.692173383997634" lon="10.95848386763116"><ele>38.0</ele><time>2026-04-18T11:49:41.022Z</time></trkpt><trkpt lat="43.69210325711822" lon="10.958504604216152"><ele>38.0</ele><time>2026-04-18T11:49:43.022Z</time></trkpt><trkpt lat="43.69203232712038" lon="10.958531760552475"><ele>38.0</ele><time>2026-04-18T11:49:45.022Z</time></trkpt><trkpt lat="43.691962881162816" lon="10.958561738855634"><ele>38.0</ele><time>2026-04-18T11:49:47.022Z</time></trkpt><trkpt lat="43.69188755258176" lon="10.958594877741875"><ele>38.0</ele><time>2026-04-18T11:49:49.022Z</time></trkpt><trkpt lat="43.69181052792719" lon="10.958628762751324"><ele>38.166666666666664</ele><time>2026-04-18T11:49:51.022Z</time></trkpt><trkpt lat="43.691738508623885" lon="10.958660445791969"><ele>38.33333333333333</ele><time>2026-04-18T11:49:53.022Z</time></trkpt><trkpt lat="43.69166973576892" lon="10.958698721486718"><ele>38.5</ele><time>2026-04-18T11:49:55.022Z</time></trkpt><trkpt lat="43.69161329422429" lon="10.958758178559352"><ele>38.666666666666664</ele><time>2026-04-18T11:49:57.022Z</time></trkpt><trkpt lat="43.69155022501144" lon="10.958799873976231"><ele>38.833333333333336</ele><time>2026-04-18T11:49:59.022Z</time></trkpt><trkpt lat="43.691463994167506" lon="10.958863106050623"><ele>39.0</ele><time>2026-04-18T11:50:02.022Z</time></trkpt><trkpt lat="43.69140297663281" lon="10.958915911060423"><ele>39.0</ele><time>2026-04-18T11:50:04.022Z</time></trkpt><trkpt lat="43.691350218852115" lon="10.958985484656534"><ele>39.0</ele><time>2026-04-18T11:50:06.022Z</time></trkpt><trkpt lat="43.69128623005626" lon="10.959016944435335"><ele>39.0</ele><time>2026-04-18T11:50:08.022Z</time></trkpt><trkpt lat="43.69123182886163" lon="10.95908220229138"><ele>39.0</ele><time>2026-04-18T11:50:10.022Z</time></trkpt><trkpt lat="43.69117593581062" lon="10.959123060332612"><ele>39.0</ele><time>2026-04-18T11:50:12.022Z</time></trkpt><trkpt lat="43.69111710989193" lon="10.959170293741174"><ele>39.0</ele><time>2026-04-18T11:50:14.022Z</time></trkpt><trkpt lat="43.691045721905056" lon="10.959187298648446"><ele>39.0</ele><time>2026-04-18T11:50:16.022Z</time></trkpt><trkpt lat="43.69097885720308" lon="10.959206419818633"><ele>39.0</ele><time>2026-04-18T11:50:18.022Z</time></trkpt><trkpt lat="43.690904955003795" lon="10.95923338801166"><ele>39.0</ele><time>2026-04-18T11:50:20.022Z</time></trkpt><trkpt lat="43.69082447821242" lon="10.95920709239063"><ele>39.0</ele><time>2026-04-18T11:50:22.022Z</time></trkpt><trkpt lat="43.69075413822683" lon="10.959145184887177"><ele>39.0</ele><time>2026-04-18T11:50:24.022Z</time></trkpt><trkpt lat="43.69068371606647" lon="10.959111733301167"><ele>39.0</ele><time>2026-04-18T11:50:26.022Z</time></trkpt><trkpt lat="43.69061538225292" lon="10.959078659564609"><ele>39.0</ele><time>2026-04-18T11:50:28.02Z</time></trkpt><trkpt lat="43.690548986686004" lon="10.959044546557141"><ele>39.0</ele><time>2026-04-18T11:50:30.02Z</time></trkpt><trkpt lat="43.690477207606136" lon="10.959042023520844"><ele>39.0</ele><time>2026-04-18T11:50:32.02Z</time></trkpt><trkpt lat="43.69041763868769" lon="10.95900990396646"><ele>39.0</ele><time>2026-04-18T11:50:34.02Z</time></trkpt><trkpt lat="43.69034795475937" lon="10.958977086248312"><ele>39.0</ele><time>2026-04-18T11:50:36.02Z</time></trkpt><trkpt lat="43.69028344367199" lon="10.958935629395077"><ele>39.0</ele><time>2026-04-18T11:50:38.02Z</time></trkpt><trkpt lat="43.690220588297976" lon="10.95891026271552"><ele>39.0</ele><time>2026-04-18T11:50:40.02Z</time></trkpt><trkpt lat="43.690152874770355" lon="10.958880367707433"><ele>39.0</ele><time>2026-04-18T11:50:42.02Z</time></trkpt><trkpt lat="43.690085188095345" lon="10.958846969226288"><ele>39.166666666666664</ele><time>2026-04-18T11:50:44.02Z</time></trkpt><trkpt lat="43.69001112070318" lon="10.958816257245795"><ele>39.333333333333336</ele><time>2026-04-18T11:50:46.02Z</time></trkpt><trkpt lat="43.68993865907067" lon="10.9587801329883"><ele>39.5</ele><time>2026-04-18T11:50:48.02Z</time></trkpt><trkpt lat="43.68986139961564" lon="10.958745489907969"><ele>39.66666666666667</ele><time>2026-04-18T11:50:50.02Z</time></trkpt><trkpt lat="43.68978974405202" lon="10.958711248926567"><ele>39.833333333333336</ele><time>2026-04-18T11:50:52.02Z</time></trkpt><trkpt lat="43.68971923658447" lon="10.958674859420974"><ele>40.0</ele><time>2026-04-18T11:50:54.02Z</time></trkpt><trkpt lat="43.68964279601255" lon="10.95864614399601"><ele>40.0</ele><time>2026-04-18T11:50:56.02Z</time></trkpt><trkpt lat="43.68956805956398" lon="10.958604637352018"><ele>40.0</ele><time>2026-04-18T11:50:58.02Z</time></trkpt><trkpt lat="43.68949217905905" lon="10.958571674550727"><ele>40.0</ele><time>2026-04-18T11:51:00.02Z</time></trkpt><trkpt lat="43.689420157448104" lon="10.958537599683716"><ele>40.0</ele><time>2026-04-18T11:51:02.02Z</time></trkpt><trkpt lat="43.68935323372313" lon="10.958497542970306"><ele>40.0</ele><time>2026-04-18T11:51:04.02Z</time></trkpt><trkpt lat="43.68928790771425" lon="10.958461677767973"><ele>40.0</ele><time>2026-04-18T11:51:06.02Z</time></trkpt><trkpt lat="43.68922182554116" lon="10.958428511317946"><ele>40.0</ele><time>2026-04-18T11:51:08.02Z</time></trkpt><trkpt lat="43.689155084205694" lon="10.958401490903604"><ele>40.0</ele><time>2026-04-18T11:51:10.02Z</time></trkpt><trkpt lat="43.68909079626658" lon="10.958369148444241"><ele>40.0</ele><time>2026-04-18T11:51:12.02Z</time></trkpt><trkpt lat="43.68902163117439" lon="10.958336017575133"><ele>40.0</ele><time>2026-04-18T11:51:14.02Z</time></trkpt><trkpt lat="43.68895330215851" lon="10.958297927375781"><ele>40.0</ele><time>2026-04-18T11:51:16.02Z</time></trkpt><trkpt lat="43.688884321622126" lon="10.958259681903348"><ele>40.0</ele><time>2026-04-18T11:51:18.02Z</time></trkpt><trkpt lat="43.6888176019233" lon="10.958225328014954"><ele>40.0</ele><time>2026-04-18T11:51:20.02Z</time></trkpt><trkpt lat="43.68874799549773" lon="10.95819608116985"><ele>39.833333333333336</ele><time>2026-04-18T11:51:22.02Z</time></trkpt><trkpt lat="43.68867451184855" lon="10.958165533068726"><ele>39.66666666666667</ele><time>2026-04-18T11:51:24.02Z</time></trkpt><trkpt lat="43.68859909184501" lon="10.958137407226545"><ele>39.5</ele><time>2026-04-18T11:51:26.02Z</time></trkpt><trkpt lat="43.68851947047791" lon="10.958113832994634"><ele>39.333333333333336</ele><time>2026-04-18T11:51:28.02Z</time></trkpt><trkpt lat="43.68843980858586" lon="10.958100713296067"><ele>39.166666666666664</ele><time>2026-04-18T11:51:30.02Z</time></trkpt><trkpt lat="43.6883611762787" lon="10.958095782976436"><ele>39.0</ele><time>2026-04-18T11:51:32.02Z</time></trkpt><trkpt lat="43.68828984359247" lon="10.95810468921248"><ele>39.0</ele><time>2026-04-18T11:51:34.02Z</time></trkpt><trkpt lat="43.68820826303467" lon="10.958114084708079"><ele>39.0</ele><time>2026-04-18T11:51:36.02Z</time></trkpt><trkpt lat="43.68812873395284" lon="10.958110983883525"><ele>39.0</ele><time>2026-04-18T11:51:38.02Z</time></trkpt><trkpt lat="43.68804671575816" lon="10.958108137445405"><ele>39.0</ele><time>2026-04-18T11:51:40.02Z</time></trkpt><trkpt lat="43.687964350436026" lon="10.958104910361396"><ele>39.0</ele><time>2026-04-18T11:51:42.02Z</time></trkpt><trkpt lat="43.68788001434668" lon="10.958110077130556"><ele>39.0</ele><time>2026-04-18T11:51:44.02Z</time></trkpt><trkpt lat="43.687794490397515" lon="10.95810698272719"><ele>39.333333333333336</ele><time>2026-04-18T11:51:46.02Z</time></trkpt><trkpt lat="43.68771235010749" lon="10.958103248729952"><ele>39.666666666666664</ele><time>2026-04-18T11:51:48.02Z</time></trkpt><trkpt lat="43.68763012337008" lon="10.958104765747386"><ele>40.0</ele><time>2026-04-18T11:51:50.02Z</time></trkpt><trkpt lat="43.687545971201544" lon="10.958121139742934"><ele>40.33333333333333</ele><time>2026-04-18T11:51:52.02Z</time></trkpt><trkpt lat="43.68746469587071" lon="10.958146005996241"><ele>40.666666666666664</ele><time>2026-04-18T11:51:54.02Z</time></trkpt><trkpt lat="43.68738500238723" lon="10.958189035815762"><ele>41.0</ele><time>2026-04-18T11:51:56.02Z</time></trkpt><trkpt lat="43.68731400971779" lon="10.958224413817918"><ele>41.0</ele><time>2026-04-18T11:51:58.02Z</time></trkpt><trkpt lat="43.687242876359456" lon="10.958265887899266"><ele>41.0</ele><time>2026-04-18T11:52:00.02Z</time></trkpt><trkpt lat="43.687170952691176" lon="10.958308530308376"><ele>41.0</ele><time>2026-04-18T11:52:02.02Z</time></trkpt><trkpt lat="43.68709679592764" lon="10.958347780611904"><ele>41.0</ele><time>2026-04-18T11:52:04.02Z</time></trkpt><trkpt lat="43.68702430233116" lon="10.958395040704707"><ele>41.0</ele><time>2026-04-18T11:52:06.02Z</time></trkpt><trkpt lat="43.686953502783396" lon="10.958435900544805"><ele>41.0</ele><time>2026-04-18T11:52:08.02Z</time></trkpt><trkpt lat="43.686883342334944" lon="10.958446391441823"><ele>40.99999999999999</ele><time>2026-04-18T11:52:10.02Z</time></trkpt><trkpt lat="43.68686484808505" lon="10.958350805154902"><ele>41.0</ele><time>2026-04-18T11:52:12.02Z</time></trkpt><trkpt lat="43.686920615409434" lon="10.958266951479896"><ele>41.0</ele><time>2026-04-18T11:52:15.02Z</time></trkpt><trkpt lat="43.686953600555356" lon="10.958192302627648"><ele>41.0</ele><time>2026-04-18T11:52:18.02Z</time></trkpt><trkpt lat="43.686997264417556" lon="10.958106903654391"><ele>41.0</ele><time>2026-04-18T11:52:22.02Z</time></trkpt><trkpt lat="43.68702182410744" lon="10.958014863704877"><ele>40.99999999999999</ele><time>2026-04-18T11:52:26.02Z</time></trkpt><trkpt lat="43.68703304529829" lon="10.957914054523492"><ele>41.0</ele><time>2026-04-18T11:52:30.02Z</time></trkpt><trkpt lat="43.68703413833998" lon="10.957811501802986"><ele>41.0</ele><time>2026-04-18T11:52:34.017Z</time></trkpt><trkpt lat="43.68702771568193" lon="10.957712363090216"><ele>41.0</ele><time>2026-04-18T11:52:38.017Z</time></trkpt><trkpt lat="43.687015297483136" lon="10.957610031223215"><ele>41.0</ele><time>2026-04-18T11:52:42.017Z</time></trkpt><trkpt lat="43.68699523966852" lon="10.957507972023878"><ele>41.0</ele><time>2026-04-18T11:52:46.017Z</time></trkpt><trkpt lat="43.68697404578678" lon="10.957405675170174"><ele>41.0</ele><time>2026-04-18T11:52:50.017Z</time></trkpt><trkpt lat="43.68694748507478" lon="10.957307633935853"><ele>41.0</ele><time>2026-04-18T11:52:54.017Z</time></trkpt><trkpt lat="43.68691865605474" lon="10.95720433975772"><ele>43.166666666666664</ele><time>2026-04-18T11:52:58.017Z</time></trkpt><trkpt lat="43.686887510377915" lon="10.95710420855058"><ele>45.33333333333333</ele><time>2026-04-18T11:53:02.017Z</time></trkpt><trkpt lat="43.68685894784959" lon="10.957005092257544"><ele>47.5</ele><time>2026-04-18T11:53:06.017Z</time></trkpt><trkpt lat="43.68682855448631" lon="10.956904201437284"><ele>49.666666666666664</ele><time>2026-04-18T11:53:10.017Z</time></trkpt><trkpt lat="43.68679406986832" lon="10.956803501438884"><ele>51.833333333333336</ele><time>2026-04-18T11:53:14.017Z</time></trkpt><trkpt lat="43.686762851642115" lon="10.956705221878924"><ele>54.0</ele><time>2026-04-18T11:53:18.017Z</time></trkpt><trkpt lat="43.686732072544096" lon="10.95660702167604"><ele>55.0</ele><time>2026-04-18T11:53:22.017Z</time></trkpt><trkpt lat="43.68669931689668" lon="10.956516721737726"><ele>56.0</ele><time>2026-04-18T11:53:26.017Z</time></trkpt><trkpt lat="43.68666975045062" lon="10.956422103142206"><ele>57.0</ele><time>2026-04-18T11:53:30.017Z</time></trkpt><trkpt lat="43.68663971376414" lon="10.956330886890424"><ele>58.0</ele><time>2026-04-18T11:53:34.017Z</time></trkpt><trkpt lat="43.68660659913962" lon="10.956239051510032"><ele>59.0</ele><time>2026-04-18T11:53:38.017Z</time></trkpt><trkpt lat="43.686570747865794" lon="10.956145914752579"><ele>59.99999999999999</ele><time>2026-04-18T11:53:42.017Z</time></trkpt><trkpt lat="43.68652691553222" lon="10.956057746511558"><ele>60.99999999999999</ele><time>2026-04-18T11:53:46.017Z</time></trkpt><trkpt lat="43.68646879828531" lon="10.955986285344403"><ele>60.99999999999999</ele><time>2026-04-18T11:53:50.017Z</time></trkpt><trkpt lat="43.68640788258791" lon="10.955934028530345"><ele>61.0</ele><time>2026-04-18T11:53:54.017Z</time></trkpt><trkpt lat="43.68633667062162" lon="10.955899814389548"><ele>60.99999999999999</ele><time>2026-04-18T11:53:58.017Z</time></trkpt><trkpt lat="43.68626342835286" lon="10.955874270327255"><ele>60.99999999999999</ele><time>2026-04-18T11:54:02.017Z</time></trkpt><trkpt lat="43.686192810001465" lon="10.9558504009155"><ele>61.0</ele><time>2026-04-18T11:54:06.017Z</time></trkpt><trkpt lat="43.68612392317157" lon="10.955830205737968"><ele>60.99999999999999</ele><time>2026-04-18T11:54:10.017Z</time></trkpt><trkpt lat="43.68605315426897" lon="10.955817227727259"><ele>60.99999999999999</ele><time>2026-04-18T11:54:14.017Z</time></trkpt><trkpt lat="43.685984227245804" lon="10.955799524964624"><ele>62.99999999999999</ele><time>2026-04-18T11:54:18.017Z</time></trkpt><trkpt lat="43.685918043886005" lon="10.955785353490585"><ele>65.0</ele><time>2026-04-18T11:54:22.017Z</time></trkpt><trkpt lat="43.685836373562196" lon="10.955772766803905"><ele>67.0</ele><time>2026-04-18T11:54:26.017Z</time></trkpt><trkpt lat="43.68576478569465" lon="10.955763050468333"><ele>69.0</ele><time>2026-04-18T11:54:30.017Z</time></trkpt><trkpt lat="43.685695089811816" lon="10.955752737323136"><ele>71.0</ele><time>2026-04-18T11:54:34.017Z</time></trkpt><trkpt lat="43.68562442739697" lon="10.955732898216274"><ele>72.99999999999999</ele><time>2026-04-18T11:54:38.017Z</time></trkpt><trkpt lat="43.68555339686687" lon="10.955716156902387"><ele>75.0</ele><time>2026-04-18T11:54:42.014Z</time></trkpt><trkpt lat="43.685475815402306" lon="10.95569006825388"><ele>74.99999999999999</ele><time>2026-04-18T11:54:47.014Z</time></trkpt><trkpt lat="43.68540086701412" lon="10.955673643728478"><ele>75.0</ele><time>2026-04-18T11:54:51.014Z</time></trkpt><trkpt lat="43.685325188239446" lon="10.955643097381435"><ele>75.0</ele><time>2026-04-18T11:54:55.014Z</time></trkpt><trkpt lat="43.6852639155398" lon="10.955614883044337"><ele>75.0</ele><time>2026-04-18T11:54:58.014Z</time></trkpt><trkpt lat="43.68519802093411" lon="10.955551219834682"><ele>75.0</ele><time>2026-04-18T11:55:02.014Z</time></trkpt><trkpt lat="43.685146477352255" lon="10.955494248008666"><ele>74.99999999999999</ele><time>2026-04-18T11:55:06.014Z</time></trkpt><trkpt lat="43.685103274837964" lon="10.955420460499228"><ele>75.0</ele><time>2026-04-18T11:55:10.014Z</time></trkpt><trkpt lat="43.6850560450197" lon="10.95533536217779"><ele>76.0</ele><time>2026-04-18T11:55:14.014Z</time></trkpt><trkpt lat="43.68499776489646" lon="10.955262166525566"><ele>77.0</ele><time>2026-04-18T11:55:18.014Z</time></trkpt><trkpt lat="43.684941358317516" lon="10.95518502642893"><ele>78.0</ele><time>2026-04-18T11:55:22.014Z</time></trkpt><trkpt lat="43.68488627799414" lon="10.955105333736658"><ele>79.0</ele><time>2026-04-18T11:55:26.014Z</time></trkpt><trkpt lat="43.684840396892604" lon="10.955044541604407"><ele>80.0</ele><time>2026-04-18T11:55:29.014Z</time></trkpt><trkpt lat="43.684778467561635" lon="10.95496381598596"><ele>81.0</ele><time>2026-04-18T11:55:33.014Z</time></trkpt><trkpt lat="43.68473111528427" lon="10.954904345054961"><ele>81.14285714285714</ele><time>2026-04-18T11:55:36.014Z</time></trkpt><trkpt lat="43.68466776931008" lon="10.954828213976882"><ele>81.28571428571428</ele><time>2026-04-18T11:55:40.014Z</time></trkpt><trkpt lat="43.6846198137613" lon="10.954762493130936"><ele>81.42857142857142</ele><time>2026-04-18T11:55:43.014Z</time></trkpt><trkpt lat="43.684574573411915" lon="10.954699449875111"><ele>81.57142857142857</ele><time>2026-04-18T11:55:46.014Z</time></trkpt><trkpt lat="43.684526994673334" lon="10.95463247666609"><ele>81.71428571428571</ele><time>2026-04-18T11:55:49.014Z</time></trkpt><trkpt lat="43.6844814516048" lon="10.954558775547753"><ele>81.85714285714285</ele><time>2026-04-18T11:55:52.014Z</time></trkpt><trkpt lat="43.68443350837225" lon="10.954485886320043"><ele>82.0</ele><time>2026-04-18T11:55:55.014Z</time></trkpt><trkpt lat="43.68439235111346" lon="10.954412520532234"><ele>81.99999999999999</ele><time>2026-04-18T11:55:58.014Z</time></trkpt><trkpt lat="43.684350362871115" lon="10.954339354946411"><ele>82.0</ele><time>2026-04-18T11:56:01.014Z</time></trkpt><trkpt lat="43.684304482223496" lon="10.954270218495397"><ele>82.0</ele><time>2026-04-18T11:56:04.014Z</time></trkpt><trkpt lat="43.6842500801274" lon="10.954190719709624"><ele>82.0</ele><time>2026-04-18T11:56:07.014Z</time></trkpt><trkpt lat="43.68423186684461" lon="10.954091094916244"><ele>82.0</ele><time>2026-04-18T11:56:10.014Z</time></trkpt><trkpt lat="43.68419107817212" lon="10.954020522988678"><ele>81.99999999999999</ele><time>2026-04-18T11:56:13.014Z</time></trkpt><trkpt lat="43.684147323057154" lon="10.953924340370053"><ele>82.0</ele><time>2026-04-18T11:56:17.014Z</time></trkpt><trkpt lat="43.68411862831285" lon="10.953845226559315"><ele>83.14285714285714</ele><time>2026-04-18T11:56:20.014Z</time></trkpt><trkpt lat="43.684095355764576" lon="10.95373414506611"><ele>84.28571428571428</ele><time>2026-04-18T11:56:24.014Z</time></trkpt><trkpt lat="43.6840753005815" lon="10.953634655064674"><ele>85.42857142857142</ele><time>2026-04-18T11:56:27.014Z</time></trkpt><trkpt lat="43.684053140994074" lon="10.95352160584066"><ele>86.57142857142857</ele><time>2026-04-18T11:56:31.014Z</time></trkpt><trkpt lat="43.684035953338864" lon="10.953433921362292"><ele>87.71428571428572</ele><time>2026-04-18T11:56:34.014Z</time></trkpt><trkpt lat="43.68401831726149" lon="10.95334370575842"><ele>88.85714285714285</ele><time>2026-04-18T11:56:37.014Z</time></trkpt><trkpt lat="43.684000648589404" lon="10.953252423714526"><ele>90.0</ele><time>2026-04-18T11:56:40.014Z</time></trkpt><trkpt lat="43.683981305778886" lon="10.953152492695603"><ele>90.71428571428571</ele><time>2026-04-18T11:56:43.014Z</time></trkpt><trkpt lat="43.683959979286165" lon="10.953049218637249"><ele>91.42857142857143</ele><time>2026-04-18T11:56:46.011Z</time></trkpt><trkpt lat="43.68393965844214" lon="10.952953875543306"><ele>92.14285714285714</ele><time>2026-04-18T11:56:49.011Z</time></trkpt><trkpt lat="43.68391959159685" lon="10.9528597241715"><ele>92.85714285714286</ele><time>2026-04-18T11:56:52.011Z</time></trkpt><trkpt lat="43.683899608845024" lon="10.952765967336383"><ele>93.57142857142858</ele><time>2026-04-18T11:56:55.011Z</time></trkpt><trkpt lat="43.68387917249634" lon="10.952668518328164"><ele>94.28571428571429</ele><time>2026-04-18T11:56:58.011Z</time></trkpt><trkpt lat="43.68386025903285" lon="10.952572651321626"><ele>95.0</ele><time>2026-04-18T11:57:01.011Z</time></trkpt><trkpt lat="43.68384222449195" lon="10.952481239341381"><ele>95.28571428571429</ele><time>2026-04-18T11:57:04.011Z</time></trkpt><trkpt lat="43.68382202610143" lon="10.95238316665636"><ele>95.57142857142858</ele><time>2026-04-18T11:57:07.011Z</time></trkpt><trkpt lat="43.68379851547445" lon="10.952292100763437"><ele>95.85714285714286</ele><time>2026-04-18T11:57:10.011Z</time></trkpt><trkpt lat="43.68377448682884" lon="10.95220580868218"><ele>96.14285714285714</ele><time>2026-04-18T11:57:14.011Z</time></trkpt><trkpt lat="43.68376107233068" lon="10.952098150112441"><ele>96.42857142857143</ele><time>2026-04-18T11:58:11.011Z</time></trkpt><trkpt lat="43.683722651572204" lon="10.952015175361499"><ele>96.71428571428571</ele><time>2026-04-18T11:58:14.011Z</time></trkpt><trkpt lat="43.683775455668645" lon="10.951961726195186"><ele>97.0</ele><time>2026-04-18T11:58:16.011Z</time></trkpt><trkpt lat="43.683739230921994" lon="10.951881616624933"><ele>97.00000000000001</ele><time>2026-04-18T11:58:18.011Z</time></trkpt><trkpt lat="43.683754284520106" lon="10.95176223333132"><ele>97.0</ele><time>2026-04-18T11:58:21.011Z</time></trkpt><trkpt lat="43.683772842885546" lon="10.951637804667127"><ele>97.0</ele><time>2026-04-18T11:58:24.011Z</time></trkpt><trkpt lat="43.68378741241208" lon="10.95151109187049"><ele>97.0</ele><time>2026-04-18T11:58:27.011Z</time></trkpt><trkpt lat="43.68379905417897" lon="10.951384696630713"><ele>97.00000000000001</ele><time>2026-04-18T11:58:30.011Z</time></trkpt><trkpt lat="43.683806279000045" lon="10.951296250026308"><ele>97.0</ele><time>2026-04-18T11:58:33.011Z</time></trkpt><trkpt lat="43.68381566598933" lon="10.951192138991457"><ele>97.00000000000001</ele><time>2026-04-18T11:58:40.011Z</time></trkpt><trkpt lat="43.683833312196995" lon="10.95107712259766"><ele>97.0</ele><time>2026-04-18T11:58:43.011Z</time></trkpt><trkpt lat="43.683831890940546" lon="10.950956931340322"><ele>97.0</ele><time>2026-04-18T11:58:46.011Z</time></trkpt><trkpt lat="43.68384702528293" lon="10.950830166601914"><ele>97.0</ele><time>2026-04-18T11:58:49.011Z</time></trkpt><trkpt lat="43.68385610921103" lon="10.950741037460102"><ele>97.00000000000001</ele><time>2026-04-18T11:58:51.009Z</time></trkpt><trkpt lat="43.68386090089317" lon="10.950612254600065"><ele>97.0</ele><time>2026-04-18T11:58:54.009Z</time></trkpt><trkpt lat="43.683870998329745" lon="10.950500037802335"><ele>97.0</ele><time>2026-04-18T11:58:57.008Z</time></trkpt><trkpt lat="43.68388169526773" lon="10.950405085649525"><ele>97.0</ele><time>2026-04-18T11:59:00.008Z</time></trkpt><trkpt lat="43.6838918445731" lon="10.95030564367883"><ele>97.0</ele><time>2026-04-18T11:59:03.008Z</time></trkpt><trkpt lat="43.683901715610034" lon="10.950203837543498"><ele>97.0</ele><time>2026-04-18T11:59:06.008Z</time></trkpt><trkpt lat="43.683909504046895" lon="10.950105021201031"><ele>97.0</ele><time>2026-04-18T11:59:09.008Z</time></trkpt><trkpt lat="43.6839169305523" lon="10.950005611376326"><ele>97.0</ele><time>2026-04-18T11:59:12.008Z</time></trkpt><trkpt lat="43.68392696477424" lon="10.949913919531458"><ele>97.0</ele><time>2026-04-18T11:59:15.008Z</time></trkpt><trkpt lat="43.68393572680418" lon="10.949823527247347"><ele>97.57142857142857</ele><time>2026-04-18T11:59:18.008Z</time></trkpt><trkpt lat="43.68394591764198" lon="10.94973398601766"><ele>98.14285714285715</ele><time>2026-04-18T11:59:21.008Z</time></trkpt><trkpt lat="43.68395915789078" lon="10.949627000972232"><ele>98.71428571428572</ele><time>2026-04-18T11:59:25.008Z</time></trkpt><trkpt lat="43.68396610627014" lon="10.94952858317422"><ele>99.28571428571428</ele><time>2026-04-18T11:59:29.008Z</time></trkpt><trkpt lat="43.68397490468071" lon="10.94944012221152"><ele>99.85714285714286</ele><time>2026-04-18T11:59:32.008Z</time></trkpt><trkpt lat="43.68398954271359" lon="10.949338041065905"><ele>100.42857142857143</ele><time>2026-04-18T11:59:37.008Z</time></trkpt><trkpt lat="43.68399708039823" lon="10.949233741752899"><ele>101.0</ele><time>2026-04-18T11:59:42.008Z</time></trkpt><trkpt lat="43.68400466501526" lon="10.949129495738566"><ele>102.28571428571428</ele><time>2026-04-18T11:59:47.008Z</time></trkpt><trkpt lat="43.68401333241406" lon="10.949034697095447"><ele>103.57142857142857</ele><time>2026-04-18T11:59:52.008Z</time></trkpt><trkpt lat="43.684024954955625" lon="10.948942054408851"><ele>104.85714285714286</ele><time>2026-04-18T11:59:57.008Z</time></trkpt><trkpt lat="43.68405292880595" lon="10.948854530998808"><ele>106.14285714285714</ele><time>2026-04-18T12:00:02.008Z</time></trkpt><trkpt lat="43.68408681462112" lon="10.948773178350395"><ele>107.42857142857143</ele><time>2026-04-18T12:00:07.008Z</time></trkpt><trkpt lat="43.684121515119244" lon="10.948688670041042"><ele>108.71428571428571</ele><time>2026-04-18T12:00:12.008Z</time></trkpt><trkpt lat="43.6841498517975" lon="10.948600750009055"><ele>110.0</ele><time>2026-04-18T12:00:17.008Z</time></trkpt><trkpt lat="43.68417479752221" lon="10.948504181203422"><ele>109.99999999999999</ele><time>2026-04-18T12:00:22.008Z</time></trkpt><trkpt lat="43.68417911830336" lon="10.948411365842775"><ele>110.0</ele><time>2026-04-18T12:00:27.008Z</time></trkpt><trkpt lat="43.68417998443239" lon="10.948305875459681"><ele>110.0</ele><time>2026-04-18T12:00:32.008Z</time></trkpt><trkpt lat="43.684189457129904" lon="10.948211228003213"><ele>110.0</ele><time>2026-04-18T12:00:36.008Z</time></trkpt><trkpt lat="43.68421750577767" lon="10.948126649633672"><ele>110.0</ele><time>2026-04-18T12:00:40.008Z</time></trkpt><trkpt lat="43.684251869143885" lon="10.948047411302568"><ele>109.99999999999999</ele><time>2026-04-18T12:00:44.008Z</time></trkpt><trkpt lat="43.68427709250867" lon="10.947961958348948"><ele>110.0</ele><time>2026-04-18T12:00:48.008Z</time></trkpt><trkpt lat="43.68430258386627" lon="10.947864842737626"><ele>111.16666666666666</ele><time>2026-04-18T12:00:52.008Z</time></trkpt><trkpt lat="43.68432084288102" lon="10.947760420501638"><ele>112.33333333333333</ele><time>2026-04-18T12:00:56.006Z</time></trkpt><trkpt lat="43.68433304443463" lon="10.947642779401589"><ele>113.5</ele><time>2026-04-18T12:01:00.006Z</time></trkpt><trkpt lat="43.68434333903368" lon="10.947550569996404"><ele>114.66666666666666</ele><time>2026-04-18T12:01:03.006Z</time></trkpt><trkpt lat="43.68434896228074" lon="10.947451411973633"><ele>115.83333333333333</ele><time>2026-04-18T12:01:06.006Z</time></trkpt><trkpt lat="43.684357831167" lon="10.947345051531718"><ele>117.0</ele><time>2026-04-18T12:01:09.006Z</time></trkpt><trkpt lat="43.68435892562866" lon="10.947242969473525"><ele>117.0</ele><time>2026-04-18T12:01:12.006Z</time></trkpt><trkpt lat="43.684369473028376" lon="10.947145828157625"><ele>117.00000000000001</ele><time>2026-04-18T12:01:15.006Z</time></trkpt><trkpt lat="43.68437457846763" lon="10.947057586138783"><ele>117.0</ele><time>2026-04-18T12:01:18.006Z</time></trkpt><trkpt lat="43.68438073265046" lon="10.946964395152202"><ele>117.0</ele><time>2026-04-18T12:01:21.006Z</time></trkpt><trkpt lat="43.68438675063413" lon="10.94687428750756"><ele>117.00000000000001</ele><time>2026-04-18T12:01:24.006Z</time></trkpt><trkpt lat="43.68439279313362" lon="10.946785171161018"><ele>117.0</ele><time>2026-04-18T12:01:27.006Z</time></trkpt><trkpt lat="43.68440163605998" lon="10.946681186802385"><ele>117.0</ele><time>2026-04-18T12:01:31.006Z</time></trkpt><trkpt lat="43.684403550984655" lon="10.946580408493928"><ele>117.83333333333333</ele><time>2026-04-18T12:01:35.006Z</time></trkpt><trkpt lat="43.684367894131874" lon="10.946498844473338"><ele>118.66666666666666</ele><time>2026-04-18T12:01:38.006Z</time></trkpt><trkpt lat="43.68432604795706" lon="10.946401410414989"><ele>119.5</ele><time>2026-04-18T12:01:43.006Z</time></trkpt><trkpt lat="43.68428242400148" lon="10.946315110408024"><ele>120.33333333333333</ele><time>2026-04-18T12:01:47.006Z</time></trkpt><trkpt lat="43.68424689022006" lon="10.946220982051013"><ele>121.16666666666666</ele><time>2026-04-18T12:01:50.006Z</time></trkpt><trkpt lat="43.68419321780445" lon="10.946126829824294"><ele>122.0</ele><time>2026-04-18T12:01:53.006Z</time></trkpt><trkpt lat="43.6841377894593" lon="10.946041280072574"><ele>121.99999999999999</ele><time>2026-04-18T12:01:56.006Z</time></trkpt><trkpt lat="43.68408465796722" lon="10.945958563730922"><ele>122.0</ele><time>2026-04-18T12:01:59.006Z</time></trkpt><trkpt lat="43.68403680190075" lon="10.945876231631189"><ele>122.0</ele><time>2026-04-18T12:02:02.006Z</time></trkpt><trkpt lat="43.683978318620554" lon="10.94579327796647"><ele>122.0</ele><time>2026-04-18T12:02:05.006Z</time></trkpt><trkpt lat="43.683921588485376" lon="10.945697176707087"><ele>121.99999999999999</ele><time>2026-04-18T12:02:08.006Z</time></trkpt><trkpt lat="43.683874251931" lon="10.945622915224055"><ele>122.0</ele><time>2026-04-18T12:02:10.006Z</time></trkpt><trkpt lat="43.68382643887853" lon="10.945531895386392"><ele>122.0</ele><time>2026-04-18T12:02:12.006Z</time></trkpt><trkpt lat="43.68376983195453" lon="10.945430214202444"><ele>121.99999999999999</ele><time>2026-04-18T12:02:14.006Z</time></trkpt><trkpt lat="43.6837145385399" lon="10.945320826993175"><ele>121.99999999999999</ele><time>2026-04-18T12:02:16.006Z</time></trkpt><trkpt lat="43.683642902394624" lon="10.945205708984815"><ele>122.0</ele><time>2026-04-18T12:02:18.006Z</time></trkpt><trkpt lat="43.683563640872414" lon="10.945085766344778"><ele>122.0</ele><time>2026-04-18T12:02:20.006Z</time></trkpt><trkpt lat="43.68351898534144" lon="10.945020703498429"><ele>122.99999999999999</ele><time>2026-04-18T12:02:21.006Z</time></trkpt><trkpt lat="43.683477261288324" lon="10.944953501054789"><ele>124.0</ele><time>2026-04-18T12:02:22.006Z</time></trkpt><trkpt lat="43.683438184255635" lon="10.944881439517467"><ele>125.0</ele><time>2026-04-18T12:02:23.006Z</time></trkpt><trkpt lat="43.68341024600956" lon="10.944791420156228"><ele>126.0</ele><time>2026-04-18T12:02:24.006Z</time></trkpt><trkpt lat="43.683319984924964" lon="10.944660651205476"><ele>126.99999999999999</ele><time>2026-04-18T12:02:26.006Z</time></trkpt><trkpt lat="43.68327177377732" lon="10.944595246499347"><ele>128.0</ele><time>2026-04-18T12:02:27.006Z</time></trkpt><trkpt lat="43.68322673170769" lon="10.944533792661183"><ele>128.0</ele><time>2026-04-18T12:02:28.006Z</time></trkpt><trkpt lat="43.68313974950744" lon="10.944414445434091"><ele>128.0</ele><time>2026-04-18T12:02:30.006Z</time></trkpt><trkpt lat="43.6830679264491" lon="10.94431306108669"><ele>128.0</ele><time>2026-04-18T12:02:32.006Z</time></trkpt><trkpt lat="43.68300152788756" lon="10.944220474886546"><ele>128.0</ele><time>2026-04-18T12:02:34.006Z</time></trkpt><trkpt lat="43.68294247045958" lon="10.944144610403173"><ele>128.0</ele><time>2026-04-18T12:02:36.006Z</time></trkpt><trkpt lat="43.68288729532393" lon="10.944079577468418"><ele>127.49999999999999</ele><time>2026-04-18T12:02:38.006Z</time></trkpt><trkpt lat="43.68282350495199" lon="10.944011029295403"><ele>127.0</ele><time>2026-04-18T12:02:40.006Z</time></trkpt><trkpt lat="43.682761206182896" lon="10.943945923393311"><ele>126.5</ele><time>2026-04-18T12:02:42.006Z</time></trkpt><trkpt lat="43.682706084771056" lon="10.943890333865566"><ele>126.0</ele><time>2026-04-18T12:02:44.006Z</time></trkpt><trkpt lat="43.68262639439496" lon="10.943820481108952"><ele>125.49999999999999</ele><time>2026-04-18T12:02:47.006Z</time></trkpt><trkpt lat="43.68254485717484" lon="10.943758764421899"><ele>125.0</ele><time>2026-04-18T12:02:50.006Z</time></trkpt><trkpt lat="43.682487379719184" lon="10.943716862921757"><ele>125.0</ele><time>2026-04-18T12:02:52.006Z</time></trkpt><trkpt lat="43.682428633171156" lon="10.943673079454237"><ele>125.0</ele><time>2026-04-18T12:02:54.006Z</time></trkpt><trkpt lat="43.68237169083078" lon="10.9436270901024"><ele>125.0</ele><time>2026-04-18T12:02:56.006Z</time></trkpt><trkpt lat="43.68231200775235" lon="10.943577187106282"><ele>125.0</ele><time>2026-04-18T12:02:58.006Z</time></trkpt><trkpt lat="43.682251342216006" lon="10.94352594145632"><ele>125.0</ele><time>2026-04-18T12:03:00.006Z</time></trkpt><trkpt lat="43.682187451716416" lon="10.94347169575501"><ele>125.0</ele><time>2026-04-18T12:03:02.003Z</time></trkpt><trkpt lat="43.68212031621159" lon="10.943410274447881"><ele>125.0</ele><time>2026-04-18T12:03:04.003Z</time></trkpt><trkpt lat="43.68204440569963" lon="10.943338755960076"><ele>125.4</ele><time>2026-04-18T12:03:06.003Z</time></trkpt><trkpt lat="43.68196954686756" lon="10.943264243375348"><ele>125.8</ele><time>2026-04-18T12:03:08.003Z</time></trkpt><trkpt lat="43.68188461914537" lon="10.943178319171944"><ele>126.19999999999999</ele><time>2026-04-18T12:03:10.003Z</time></trkpt><trkpt lat="43.681790593381" lon="10.943096269133658"><ele>126.6</ele><time>2026-04-18T12:03:12.003Z</time></trkpt><trkpt lat="43.68169403531014" lon="10.943025577269465"><ele>127.0</ele><time>2026-04-18T12:03:14.003Z</time></trkpt><trkpt lat="43.6815665235567" lon="10.942980169194024"><ele>126.16666666666667</ele><time>2026-04-18T12:03:16.003Z</time></trkpt><trkpt lat="43.681502370267374" lon="10.94297671145756"><ele>125.33333333333334</ele><time>2026-04-18T12:03:17.003Z</time></trkpt><trkpt lat="43.681377208395816" lon="10.943029798751668"><ele>124.5</ele><time>2026-04-18T12:03:19.003Z</time></trkpt><trkpt lat="43.681302859687015" lon="10.943114130937984"><ele>123.66666666666666</ele><time>2026-04-18T12:03:21.003Z</time></trkpt><trkpt lat="43.68124713353764" lon="10.943154975490701"><ele>122.83333333333333</ele><time>2026-04-18T12:03:23.003Z</time></trkpt><trkpt lat="43.681198928774954" lon="10.943049538205539"><ele>122.0</ele><time>2026-04-18T12:03:25.003Z</time></trkpt><trkpt lat="43.68113470678385" lon="10.943023361666484"><ele>121.99999999999999</ele><time>2026-04-18T12:03:27.003Z</time></trkpt><trkpt lat="43.68107253991334" lon="10.942998022773917"><ele>122.0</ele><time>2026-04-18T12:03:29.003Z</time></trkpt><trkpt lat="43.680987157231044" lon="10.942963221206563"><ele>122.0</ele><time>2026-04-18T12:03:32.003Z</time></trkpt><trkpt lat="43.6809067295712" lon="10.942935191491491"><ele>122.0</ele><time>2026-04-18T12:03:34.003Z</time></trkpt><trkpt lat="43.68082682849236" lon="10.94292142852805"><ele>121.99999999999999</ele><time>2026-04-18T12:03:36.003Z</time></trkpt><trkpt lat="43.68074177272583" lon="10.94295628391358"><ele>122.0</ele><time>2026-04-18T12:03:39.003Z</time></trkpt><trkpt lat="43.68065336057755" lon="10.943058942793765"><ele>122.0</ele><time>2026-04-18T12:03:41.003Z</time></trkpt><trkpt lat="43.68058313407323" lon="10.943099909995032"><ele>121.99999999999999</ele><time>2026-04-18T12:03:43.003Z</time></trkpt><trkpt lat="43.680487366301364" lon="10.943117382017487"><ele>121.99999999999999</ele><time>2026-04-18T12:03:45.003Z</time></trkpt><trkpt lat="43.680407402414744" lon="10.943086856760104"><ele>122.0</ele><time>2026-04-18T12:03:47.003Z</time></trkpt><trkpt lat="43.680355485507064" lon="10.942984539867016"><ele>122.0</ele><time>2026-04-18T12:03:49.003Z</time></trkpt><trkpt lat="43.68029258841013" lon="10.943173806193961"><ele>122.25</ele><time>2026-04-18T12:03:50.003Z</time></trkpt><trkpt lat="43.68020040518581" lon="10.943149619476948"><ele>122.5</ele><time>2026-04-18T12:03:52.003Z</time></trkpt><trkpt lat="43.68008381632097" lon="10.94308440856326"><ele>122.75</ele><time>2026-04-18T12:03:54.003Z</time></trkpt><trkpt lat="43.68001090623415" lon="10.943039787289756"><ele>123.0</ele><time>2026-04-18T12:03:56.003Z</time></trkpt><trkpt lat="43.67984966438984" lon="10.943182718742367"><ele>123.00000000000001</ele><time>2026-04-18T12:03:58.003Z</time></trkpt><trkpt lat="43.6797773476756" lon="10.943116449316387"><ele>123.0</ele><time>2026-04-18T12:04:01.003Z</time></trkpt><trkpt lat="43.67971523451951" lon="10.94306412392528"><ele>123.00000000000001</ele><time>2026-04-18T12:04:04.003Z</time></trkpt><trkpt lat="43.67965495655375" lon="10.943014996346498"><ele>123.00000000000001</ele><time>2026-04-18T12:04:07.003Z</time></trkpt><trkpt lat="43.679595669904316" lon="10.94296667704819"><ele>123.0</ele><time>2026-04-18T12:04:12.003Z</time></trkpt><trkpt lat="43.679582115122" lon="10.943057050784319"><ele>123.00000000000001</ele><time>2026-04-18T12:04:20.003Z</time></trkpt><trkpt lat="43.67953777767286" lon="10.943152773054424"><ele>123.00000000000001</ele><time>2026-04-18T12:04:24.003Z</time></trkpt><trkpt lat="43.6794819496805" lon="10.943216894102873"><ele>123.85714285714288</ele><time>2026-04-18T12:04:27.003Z</time></trkpt><trkpt lat="43.67942085974797" lon="10.943179298823548"><ele>124.71428571428572</ele><time>2026-04-18T12:04:31.003Z</time></trkpt><trkpt lat="43.67935998794674" lon="10.943120878075415"><ele>125.57142857142857</ele><time>2026-04-18T12:04:35.003Z</time></trkpt><trkpt lat="43.679293061727634" lon="10.943062123460711"><ele>126.42857142857143</ele><time>2026-04-18T12:04:39.003Z</time></trkpt><trkpt lat="43.67921743345277" lon="10.943009678413848"><ele>127.28571428571428</ele><time>2026-04-18T12:04:43.003Z</time></trkpt><trkpt lat="43.67914744610549" lon="10.943014296331917"><ele>128.14285714285714</ele><time>2026-04-18T12:04:46.003Z</time></trkpt><trkpt lat="43.67907504821555" lon="10.943013412632725"><ele>129.0</ele><time>2026-04-18T12:04:49.003Z</time></trkpt><trkpt lat="43.678991267529995" lon="10.943029139540087"><ele>128.99999999999997</ele><time>2026-04-18T12:04:52.003Z</time></trkpt><trkpt lat="43.67892472479778" lon="10.943050052795607"><ele>129.0</ele><time>2026-04-18T12:04:54.003Z</time></trkpt><trkpt lat="43.67885379574403" lon="10.943082709656574"><ele>129.0</ele><time>2026-04-18T12:04:58.003Z</time></trkpt><trkpt lat="43.67879031778841" lon="10.943103932305196"><ele>129.0</ele><time>2026-04-18T12:05:01.003Z</time></trkpt><trkpt lat="43.67872772497679" lon="10.943058191756338"><ele>129.0</ele><time>2026-04-18T12:05:04.003Z</time></trkpt><trkpt lat="43.67876106382158" lon="10.942951217844294"><ele>128.99999999999997</ele><time>2026-04-18T12:05:08.001Z</time></trkpt><trkpt lat="43.678780418383276" lon="10.942840862296016"><ele>129.0</ele><time>2026-04-18T12:05:12.001Z</time></trkpt><trkpt lat="43.678802013477195" lon="10.942749389646126"><ele>129.0</ele><time>2026-04-18T12:05:16.001Z</time></trkpt><trkpt lat="43.67881596179091" lon="10.942652383179714"><ele>129.0</ele><time>2026-04-18T12:05:21Z</time></trkpt><trkpt lat="43.678783768846586" lon="10.94256930392283"><ele>129.0</ele><time>2026-04-18T12:05:24Z</time></trkpt><trkpt lat="43.67872979376467" lon="10.94247027251013"><ele>129.0</ele><time>2026-04-18T12:05:28Z</time></trkpt><trkpt lat="43.67867551109016" lon="10.942401840556617"><ele>129.0</ele><time>2026-04-18T12:05:30Z</time></trkpt><trkpt lat="43.67862531798792" lon="10.942320857694245"><ele>129.0</ele><time>2026-04-18T12:05:32Z</time></trkpt><trkpt lat="43.678576988811685" lon="10.9422280659324"><ele>130.5</ele><time>2026-04-18T12:05:34Z</time></trkpt><trkpt lat="43.67851510935984" lon="10.942151743357966"><ele>132.0</ele><time>2026-04-18T12:05:36Z</time></trkpt><trkpt lat="43.67846521346967" lon="10.942060824283946"><ele>133.5</ele><time>2026-04-18T12:05:38Z</time></trkpt><trkpt lat="43.678416026466934" lon="10.941997582986893"><ele>135.0</ele><time>2026-04-18T12:05:40Z</time></trkpt><trkpt lat="43.67835400042131" lon="10.941903240747163"><ele>136.5</ele><time>2026-04-18T12:05:43Z</time></trkpt><trkpt lat="43.67829293595506" lon="10.941845608522586"><ele>138.0</ele><time>2026-04-18T12:05:45Z</time></trkpt><trkpt lat="43.67826181365428" lon="10.941768565285708"><ele>136.57142857142858</ele><time>2026-04-18T12:05:48Z</time></trkpt><trkpt lat="43.67819112498997" lon="10.941671869192668"><ele>135.14285714285717</ele><time>2026-04-18T12:05:52Z</time></trkpt><trkpt lat="43.678131508484896" lon="10.941621739100915"><ele>133.71428571428572</ele><time>2026-04-18T12:05:54Z</time></trkpt><trkpt lat="43.67808165430646" lon="10.94156345405943"><ele>132.28571428571428</ele><time>2026-04-18T12:05:56Z</time></trkpt><trkpt lat="43.678025802817196" lon="10.941512312095892"><ele>130.85714285714283</ele><time>2026-04-18T12:05:58Z</time></trkpt><trkpt lat="43.6779656134269" lon="10.94146318212677"><ele>129.42857142857142</ele><time>2026-04-18T12:06:00Z</time></trkpt><trkpt lat="43.67790707107726" lon="10.941422474263351"><ele>128.0</ele><time>2026-04-18T12:06:02Z</time></trkpt><trkpt lat="43.67783952961838" lon="10.941386166467566"><ele>127.99999999999999</ele><time>2026-04-18T12:06:04Z</time></trkpt><trkpt lat="43.67777198679403" lon="10.941317366711862"><ele>128.0</ele><time>2026-04-18T12:06:06Z</time></trkpt><trkpt lat="43.677700435252255" lon="10.941260876228986"><ele>128.0</ele><time>2026-04-18T12:06:08Z</time></trkpt><trkpt lat="43.677623788044336" lon="10.941212511228674"><ele>128.0</ele><time>2026-04-18T12:06:10Z</time></trkpt><trkpt lat="43.677559827048746" lon="10.941164368265225"><ele>127.99999999999999</ele><time>2026-04-18T12:06:12Z</time></trkpt><trkpt lat="43.67748653685172" lon="10.941150279572101"><ele>128.0</ele><time>2026-04-18T12:06:14Z</time></trkpt><trkpt lat="43.6774121201683" lon="10.941119107246138"><ele>127.99999999999999</ele><time>2026-04-18T12:06:16Z</time></trkpt><trkpt lat="43.67734708045439" lon="10.94109282189434"><ele>128.0</ele><time>2026-04-18T12:06:18Z</time></trkpt><trkpt lat="43.677283152363856" lon="10.94107477966199"><ele>128.0</ele><time>2026-04-18T12:06:21Z</time></trkpt><trkpt lat="43.67725104348966" lon="10.940957262699095"><ele>128.0</ele><time>2026-04-18T12:06:25Z</time></trkpt><trkpt lat="43.67727045043128" lon="10.940866348699998"><ele>127.99999999999999</ele><time>2026-04-18T12:06:27Z</time></trkpt><trkpt lat="43.677224005095695" lon="10.940761760765191"><ele>128.0</ele><time>2026-04-18T12:06:29Z</time></trkpt><trkpt lat="43.677204648671555" lon="10.940666432760318"><ele>128.0</ele><time>2026-04-18T12:06:31Z</time></trkpt><trkpt lat="43.6771751946292" lon="10.94058033101556"><ele>128.0</ele><time>2026-04-18T12:06:33Z</time></trkpt><trkpt lat="43.67699703377986" lon="10.940657511807112"><ele>128.0</ele><time>2026-04-18T12:06:39Z</time></trkpt><trkpt lat="43.67693301184805" lon="10.940709239396663"><ele>128.0</ele><time>2026-04-18T12:06:44Z</time></trkpt><trkpt lat="43.676862581850095" lon="10.940673543602658"><ele>128.0</ele><time>2026-04-18T12:06:48Z</time></trkpt><trkpt lat="43.676810187347954" lon="10.940607267914059"><ele>127.57142857142857</ele><time>2026-04-18T12:06:50Z</time></trkpt><trkpt lat="43.67675421078916" lon="10.940545384944269"><ele>127.14285714285714</ele><time>2026-04-18T12:06:52Z</time></trkpt><trkpt lat="43.676700545781785" lon="10.94047230132992"><ele>126.71428571428571</ele><time>2026-04-18T12:06:54Z</time></trkpt><trkpt lat="43.67664922669377" lon="10.94040018562219"><ele>126.28571428571428</ele><time>2026-04-18T12:06:56Z</time></trkpt><trkpt lat="43.676603314710434" lon="10.940324558268768"><ele>125.85714285714286</ele><time>2026-04-18T12:06:58Z</time></trkpt><trkpt lat="43.676558892556315" lon="10.940219649505979"><ele>125.42857142857142</ele><time>2026-04-18T12:07:01Z</time></trkpt><trkpt lat="43.67653241542059" lon="10.940135527351083"><ele>125.0</ele><time>2026-04-18T12:07:03Z</time></trkpt><trkpt lat="43.67647464494036" lon="10.940068206143168"><ele>125.28571428571428</ele><time>2026-04-18T12:07:05Z</time></trkpt><trkpt lat="43.676440729436145" lon="10.93994978404027"><ele>125.57142857142858</ele><time>2026-04-18T12:07:08Z</time></trkpt><trkpt lat="43.67641011653909" lon="10.939870943905632"><ele>125.85714285714286</ele><time>2026-04-18T12:07:10Z</time></trkpt><trkpt lat="43.676393130272395" lon="10.939776114446971"><ele>126.14285714285714</ele><time>2026-04-18T12:07:12Z</time></trkpt><trkpt lat="43.67632792419924" lon="10.93976046266596"><ele>126.42857142857142</ele><time>2026-04-18T12:07:13.998Z</time></trkpt><trkpt lat="43.676256037829326" lon="10.939713979731932"><ele>126.71428571428572</ele><time>2026-04-18T12:07:15.998Z</time></trkpt><trkpt lat="43.67620792620748" lon="10.9396401147671"><ele>127.0</ele><time>2026-04-18T12:07:17.998Z</time></trkpt><trkpt lat="43.6761533924183" lon="10.93958102394952"><ele>125.00000000000001</ele><time>2026-04-18T12:07:19.998Z</time></trkpt><trkpt lat="43.67608815764973" lon="10.939517062201583"><ele>123.0</ele><time>2026-04-18T12:07:21.998Z</time></trkpt><trkpt lat="43.676039090327045" lon="10.939459398582775"><ele>121.0</ele><time>2026-04-18T12:07:23.998Z</time></trkpt><trkpt lat="43.67595831566428" lon="10.9394388110755"><ele>119.0</ele><time>2026-04-18T12:07:30.998Z</time></trkpt><trkpt lat="43.67589393253779" lon="10.939505596052905"><ele>117.00000000000001</ele><time>2026-04-18T12:07:33.998Z</time></trkpt><trkpt lat="43.67582231013487" lon="10.939562610014537"><ele>115.0</ele><time>2026-04-18T12:07:36.998Z</time></trkpt><trkpt lat="43.67575923893686" lon="10.939628325927384"><ele>115.0</ele><time>2026-04-18T12:07:39.998Z</time></trkpt><trkpt lat="43.67569041547465" lon="10.939689524166141"><ele>115.0</ele><time>2026-04-18T12:07:42.998Z</time></trkpt><trkpt lat="43.675581643373114" lon="10.93977065709375"><ele>115.0</ele><time>2026-04-18T12:07:45.998Z</time></trkpt><trkpt lat="43.67551451265635" lon="10.939719434577997"><ele>115.0</ele><time>2026-04-18T12:07:47.998Z</time></trkpt><trkpt lat="43.67544359305009" lon="10.939686226943325"><ele>115.0</ele><time>2026-04-18T12:07:49.998Z</time></trkpt><trkpt lat="43.675355878063876" lon="10.939638011409656"><ele>115.0</ele><time>2026-04-18T12:07:51.998Z</time></trkpt><trkpt lat="43.67527512917198" lon="10.939592858183902"><ele>115.0</ele><time>2026-04-18T12:07:53.998Z</time></trkpt><trkpt lat="43.675199778360316" lon="10.939553358400023"><ele>115.0</ele><time>2026-04-18T12:07:55.998Z</time></trkpt><trkpt lat="43.67511128177221" lon="10.939506967461842"><ele>115.0</ele><time>2026-04-18T12:07:57.998Z</time></trkpt><trkpt lat="43.67501071037173" lon="10.93945129562682"><ele>115.0</ele><time>2026-04-18T12:07:59.998Z</time></trkpt><trkpt lat="43.67490569445243" lon="10.93938834490837"><ele>114.50000000000001</ele><time>2026-04-18T12:08:01.998Z</time></trkpt><trkpt lat="43.67479395209457" lon="10.939316474452676"><ele>114.0</ele><time>2026-04-18T12:08:03.998Z</time></trkpt><trkpt lat="43.67468760550001" lon="10.939245713495811"><ele>113.5</ele><time>2026-04-18T12:08:05.998Z</time></trkpt><trkpt lat="43.674630162003524" lon="10.939209881508463"><ele>113.0</ele><time>2026-04-18T12:08:06.998Z</time></trkpt><trkpt lat="43.67457099864255" lon="10.93917675639392"><ele>112.50000000000001</ele><time>2026-04-18T12:08:07.998Z</time></trkpt><trkpt lat="43.67451105385512" lon="10.939147491983254"><ele>112.0</ele><time>2026-04-18T12:08:08.998Z</time></trkpt><trkpt lat="43.67444993633922" lon="10.939119284076241"><ele>110.66666666666667</ele><time>2026-04-18T12:08:09.998Z</time></trkpt><trkpt lat="43.67438306026196" lon="10.939097327202271"><ele>109.33333333333334</ele><time>2026-04-18T12:08:10.998Z</time></trkpt><trkpt lat="43.67432074718112" lon="10.939070414752521"><ele>108.0</ele><time>2026-04-18T12:08:11.998Z</time></trkpt><trkpt lat="43.674255673055214" lon="10.939035495589431"><ele>106.66666666666666</ele><time>2026-04-18T12:08:12.998Z</time></trkpt><trkpt lat="43.674194946789065" lon="10.938997160560138"><ele>105.33333333333333</ele><time>2026-04-18T12:08:13.998Z</time></trkpt><trkpt lat="43.674134576151246" lon="10.938957733389564"><ele>104.0</ele><time>2026-04-18T12:08:14.998Z</time></trkpt><trkpt lat="43.674030277422766" lon="10.938885003404687"><ele>104.0</ele><time>2026-04-18T12:08:16.998Z</time></trkpt><trkpt lat="43.673925973257106" lon="10.938810489785565"><ele>104.0</ele><time>2026-04-18T12:08:18.998Z</time></trkpt><trkpt lat="43.67383747731094" lon="10.938737388720815"><ele>104.0</ele><time>2026-04-18T12:08:20.998Z</time></trkpt><trkpt lat="43.673749902021015" lon="10.93863930109563"><ele>104.0</ele><time>2026-04-18T12:08:22.998Z</time></trkpt><trkpt lat="43.67368758797461" lon="10.938505013101835"><ele>104.0</ele><time>2026-04-18T12:08:24.998Z</time></trkpt><trkpt lat="43.67366560005561" lon="10.938414833147311"><ele>103.49999999999999</ele><time>2026-04-18T12:08:25.998Z</time></trkpt><trkpt lat="43.67364847868607" lon="10.938327280305366"><ele>103.0</ele><time>2026-04-18T12:08:26.998Z</time></trkpt><trkpt lat="43.67363437683701" lon="10.938222396572565"><ele>102.5</ele><time>2026-04-18T12:08:27.998Z</time></trkpt><trkpt lat="43.6736461505206" lon="10.938106250451414"><ele>102.0</ele><time>2026-04-18T12:08:28.998Z</time></trkpt><trkpt lat="43.67363665519444" lon="10.937991552422345"><ele>101.49999999999999</ele><time>2026-04-18T12:08:29.998Z</time></trkpt><trkpt lat="43.6736161513155" lon="10.937872991229032"><ele>101.0</ele><time>2026-04-18T12:08:30.998Z</time></trkpt><trkpt lat="43.67355147529812" lon="10.937770683432866"><ele>100.99999999999999</ele><time>2026-04-18T12:08:31.998Z</time></trkpt><trkpt lat="43.673499056390035" lon="10.937682084123477"><ele>101.0</ele><time>2026-04-18T12:08:32.998Z</time></trkpt><trkpt lat="43.67344587463768" lon="10.937594973402312"><ele>101.0</ele><time>2026-04-18T12:08:33.998Z</time></trkpt><trkpt lat="43.673390917533574" lon="10.93750267651415"><ele>101.0</ele><time>2026-04-18T12:08:34.998Z</time></trkpt><trkpt lat="43.673335791138214" lon="10.937406008362133"><ele>100.99999999999999</ele><time>2026-04-18T12:08:35.998Z</time></trkpt><trkpt lat="43.67327992042372" lon="10.93730584598741"><ele>101.0</ele><time>2026-04-18T12:08:36.998Z</time></trkpt><trkpt lat="43.6732229826875" lon="10.937199633121798"><ele>99.49999999999999</ele><time>2026-04-18T12:08:37.998Z</time></trkpt><trkpt lat="43.67317028658215" lon="10.937097023972793"><ele>98.0</ele><time>2026-04-18T12:08:38.998Z</time></trkpt><trkpt lat="43.67312076749505" lon="10.936993696263848"><ele>96.5</ele><time>2026-04-18T12:08:39.998Z</time></trkpt><trkpt lat="43.673071461368274" lon="10.936884097788445"><ele>95.0</ele><time>2026-04-18T12:08:40.998Z</time></trkpt><trkpt lat="43.67303126454942" lon="10.936791604878207"><ele>93.5</ele><time>2026-04-18T12:08:41.998Z</time></trkpt><trkpt lat="43.67298823883099" lon="10.936680389645476"><ele>92.0</ele><time>2026-04-18T12:08:42.998Z</time></trkpt><trkpt lat="43.67295077177547" lon="10.936554624032919"><ele>89.8</ele><time>2026-04-18T12:08:43.998Z</time></trkpt><trkpt lat="43.672916295115265" lon="10.936436919668536"><ele>87.6</ele><time>2026-04-18T12:08:44.998Z</time></trkpt><trkpt lat="43.672874346579995" lon="10.936317178589738"><ele>85.39999999999999</ele><time>2026-04-18T12:08:45.998Z</time></trkpt><trkpt lat="43.672808148332116" lon="10.936195931883827"><ele>83.19999999999999</ele><time>2026-04-18T12:08:46.998Z</time></trkpt><trkpt lat="43.67273995804176" lon="10.936096964716903"><ele>81.0</ele><time>2026-04-18T12:08:47.998Z</time></trkpt><trkpt lat="43.67267016082984" lon="10.935993594999935"><ele>80.39999999999999</ele><time>2026-04-18T12:08:48.998Z</time></trkpt><trkpt lat="43.67260319743386" lon="10.93589608260673"><ele>79.8</ele><time>2026-04-18T12:08:49.998Z</time></trkpt><trkpt lat="43.672526343844645" lon="10.935780201952964"><ele>79.19999999999999</ele><time>2026-04-18T12:08:50.998Z</time></trkpt><trkpt lat="43.67243711480847" lon="10.935668720810135"><ele>78.6</ele><time>2026-04-18T12:08:51.998Z</time></trkpt><trkpt lat="43.67234153693966" lon="10.935578069670722"><ele>78.0</ele><time>2026-04-18T12:08:52.998Z</time></trkpt><trkpt lat="43.672248936878496" lon="10.935487686261926"><ele>76.8</ele><time>2026-04-18T12:08:53.998Z</time></trkpt><trkpt lat="43.67216781599348" lon="10.935394064200025"><ele>75.6</ele><time>2026-04-18T12:08:54.998Z</time></trkpt><trkpt lat="43.6720774606377" lon="10.935295486747478"><ele>74.4</ele><time>2026-04-18T12:08:55.998Z</time></trkpt><trkpt lat="43.6719959986639" lon="10.935230701601268"><ele>73.2</ele><time>2026-04-18T12:08:56.998Z</time></trkpt><trkpt lat="43.67190906951624" lon="10.935177282347432"><ele>72.0</ele><time>2026-04-18T12:08:57.998Z</time></trkpt><trkpt lat="43.67182654027103" lon="10.935131095790762"><ele>72.16666666666667</ele><time>2026-04-18T12:08:58.998Z</time></trkpt><trkpt lat="43.67174638102177" lon="10.93508623557418"><ele>72.33333333333333</ele><time>2026-04-18T12:08:59.998Z</time></trkpt><trkpt lat="43.67167121733721" lon="10.935044171076331"><ele>72.5</ele><time>2026-04-18T12:09:00.998Z</time></trkpt><trkpt lat="43.67160238249272" lon="10.935005384979938"><ele>72.66666666666666</ele><time>2026-04-18T12:09:01.998Z</time></trkpt><trkpt lat="43.67154313069234" lon="10.934969516855894"><ele>72.83333333333333</ele><time>2026-04-18T12:09:02.998Z</time></trkpt><trkpt lat="43.671447704199096" lon="10.934897522301373"><ele>73.0</ele><time>2026-04-18T12:09:04.998Z</time></trkpt><trkpt lat="43.67139271419482" lon="10.934835591547504"><ele>73.0</ele><time>2026-04-18T12:09:06.998Z</time></trkpt><trkpt lat="43.67133971613506" lon="10.93476307520528"><ele>73.0</ele><time>2026-04-18T12:09:08.998Z</time></trkpt><trkpt lat="43.6712862369309" lon="10.934678218426983"><ele>73.0</ele><time>2026-04-18T12:09:10.998Z</time></trkpt><trkpt lat="43.67124196049735" lon="10.934602394264164"><ele>73.0</ele><time>2026-04-18T12:09:12.998Z</time></trkpt><trkpt lat="43.67127389959197" lon="10.934509105370728"><ele>73.0</ele><time>2026-04-18T12:09:16.998Z</time></trkpt><trkpt lat="43.671316971626" lon="10.934435260079518"><ele>73.0</ele><time>2026-04-18T12:09:23.995Z</time></trkpt><trkpt lat="43.671310335831265" lon="10.934340078296641"><ele>73.0</ele><time>2026-04-18T12:09:25.995Z</time></trkpt><trkpt lat="43.67128192228635" lon="10.934230052222365"><ele>73.33333333333333</ele><time>2026-04-18T12:09:27.995Z</time></trkpt><trkpt lat="43.671249668772575" lon="10.934138546490203"><ele>73.66666666666666</ele><time>2026-04-18T12:09:29.995Z</time></trkpt><trkpt lat="43.67121276352252" lon="10.934031246426633"><ele>74.0</ele><time>2026-04-18T12:09:31.995Z</time></trkpt><trkpt lat="43.67117301081626" lon="10.933912880382033"><ele>74.33333333333333</ele><time>2026-04-18T12:09:33.995Z</time></trkpt><trkpt lat="43.671141958865014" lon="10.933814064882494"><ele>74.66666666666667</ele><time>2026-04-18T12:09:35.995Z</time></trkpt><trkpt lat="43.671117356279105" lon="10.933699536643942"><ele>75.0</ele><time>2026-04-18T12:09:37.995Z</time></trkpt><trkpt lat="43.671093378013914" lon="10.933612188623684"><ele>75.0</ele><time>2026-04-18T12:09:39.995Z</time></trkpt><trkpt lat="43.67111356523709" lon="10.933487437676744"><ele>75.0</ele><time>2026-04-18T12:09:41.995Z</time></trkpt><trkpt lat="43.67110351660523" lon="10.933395754516358"><ele>75.0</ele><time>2026-04-18T12:09:43.995Z</time></trkpt><trkpt lat="43.67108052057624" lon="10.933298206459213"><ele>75.0</ele><time>2026-04-18T12:09:45.995Z</time></trkpt><trkpt lat="43.67102157380933" lon="10.93320676305252"><ele>75.0</ele><time>2026-04-18T12:09:47.995Z</time></trkpt><trkpt lat="43.67099265086565" lon="10.933121767736333"><ele>75.0</ele><time>2026-04-18T12:09:49.995Z</time></trkpt><trkpt lat="43.6709894688263" lon="10.933013316720489"><ele>74.85714285714285</ele><time>2026-04-18T12:09:52.995Z</time></trkpt><trkpt lat="43.67092718082177" lon="10.932961579025655"><ele>74.71428571428571</ele><time>2026-04-18T12:09:54.995Z</time></trkpt><trkpt lat="43.67086529156981" lon="10.932881881964745"><ele>74.57142857142857</ele><time>2026-04-18T12:09:57.995Z</time></trkpt><trkpt lat="43.67083167745259" lon="10.932797055809859"><ele>74.42857142857142</ele><time>2026-04-18T12:09:59.995Z</time></trkpt><trkpt lat="43.67080451555732" lon="10.932709329893095"><ele>74.28571428571428</ele><time>2026-04-18T12:10:01.995Z</time></trkpt><trkpt lat="43.67078201858743" lon="10.932627563842237"><ele>74.14285714285714</ele><time>2026-04-18T12:10:03.995Z</time></trkpt><trkpt lat="43.67075401256367" lon="10.932510844127684"><ele>74.0</ele><time>2026-04-18T12:10:05.995Z</time></trkpt><trkpt lat="43.67073238521278" lon="10.932415218291005"><ele>72.0</ele><time>2026-04-18T12:10:07.995Z</time></trkpt><trkpt lat="43.67069981866489" lon="10.932283273192969"><ele>70.0</ele><time>2026-04-18T12:10:09.995Z</time></trkpt><trkpt lat="43.67065989915297" lon="10.93215335048772"><ele>68.0</ele><time>2026-04-18T12:10:11.995Z</time></trkpt><trkpt lat="43.670627829060535" lon="10.932045712839008"><ele>66.0</ele><time>2026-04-18T12:10:13.995Z</time></trkpt><trkpt lat="43.67060203949052" lon="10.931936183362204"><ele>64.0</ele><time>2026-04-18T12:10:16.995Z</time></trkpt><trkpt lat="43.670675005044295" lon="10.931886067199281"><ele>64.0</ele><time>2026-04-18T12:10:19.995Z</time></trkpt><trkpt lat="43.6707827579444" lon="10.931875718748017"><ele>64.0</ele><time>2026-04-18T12:10:21.995Z</time></trkpt><trkpt lat="43.67089130914936" lon="10.931878510302573"><ele>64.0</ele><time>2026-04-18T12:10:23.995Z</time></trkpt><trkpt lat="43.671000125256604" lon="10.931866981818624"><ele>64.0</ele><time>2026-04-18T12:10:25.995Z</time></trkpt><trkpt lat="43.67106566407419" lon="10.931857476331418"><ele>64.0</ele><time>2026-04-18T12:10:27.995Z</time></trkpt><trkpt lat="43.671123117410865" lon="10.931816516577289"><ele>62.83333333333333</ele><time>2026-04-18T12:10:29.995Z</time></trkpt><trkpt lat="43.67118879840355" lon="10.931765846964895"><ele>61.666666666666664</ele><time>2026-04-18T12:10:31.995Z</time></trkpt><trkpt lat="43.671227763779314" lon="10.931629165119242"><ele>60.5</ele><time>2026-04-18T12:10:33.995Z</time></trkpt><trkpt lat="43.67122908034524" lon="10.931496165620532"><ele>59.33333333333333</ele><time>2026-04-18T12:10:35.995Z</time></trkpt><trkpt lat="43.67118875281844" lon="10.931396740893055"><ele>58.166666666666664</ele><time>2026-04-18T12:10:36.995Z</time></trkpt><trkpt lat="43.671145504248805" lon="10.931326563662916"><ele>57.0</ele><time>2026-04-18T12:10:37.995Z</time></trkpt><trkpt lat="43.67107940877154" lon="10.93120812196686"><ele>56.400000000000006</ele><time>2026-04-18T12:10:39.995Z</time></trkpt><trkpt lat="43.671009994237" lon="10.931088781503783"><ele>55.800000000000004</ele><time>2026-04-18T12:10:41.995Z</time></trkpt><trkpt lat="43.670954355660186" lon="10.930994437836208"><ele>55.2</ele><time>2026-04-18T12:10:43.995Z</time></trkpt><trkpt lat="43.67089823364281" lon="10.930903657105402"><ele>54.6</ele><time>2026-04-18T12:10:45.995Z</time></trkpt><trkpt lat="43.670847002656494" lon="10.930823747517351"><ele>54.0</ele><time>2026-04-18T12:10:47.995Z</time></trkpt><trkpt lat="43.6707777926968" lon="10.930722300834375"><ele>52.400000000000006</ele><time>2026-04-18T12:10:49.995Z</time></trkpt><trkpt lat="43.670720790595446" lon="10.930638748647969"><ele>50.800000000000004</ele><time>2026-04-18T12:10:51.995Z</time></trkpt><trkpt lat="43.67066164698094" lon="10.930556312312262"><ele>49.2</ele><time>2026-04-18T12:10:53.995Z</time></trkpt><trkpt lat="43.6706083392714" lon="10.930469078531186"><ele>47.599999999999994</ele><time>2026-04-18T12:10:55.995Z</time></trkpt><trkpt lat="43.6705589891223" lon="10.93034665123404"><ele>46.0</ele><time>2026-04-18T12:10:57.995Z</time></trkpt><trkpt lat="43.6705318057575" lon="10.930206066546805"><ele>46.0</ele><time>2026-04-18T12:10:59.995Z</time></trkpt><trkpt lat="43.670523733855845" lon="10.93010017034077"><ele>46.0</ele><time>2026-04-18T12:11:01.995Z</time></trkpt><trkpt lat="43.670512800256354" lon="10.92997022899603"><ele>46.0</ele><time>2026-04-18T12:11:03.995Z</time></trkpt><trkpt lat="43.67049655383255" lon="10.929871161484407"><ele>46.0</ele><time>2026-04-18T12:11:05.995Z</time></trkpt><trkpt lat="43.67047060117723" lon="10.929780414030198"><ele>46.0</ele><time>2026-04-18T12:11:08.995Z</time></trkpt><trkpt lat="43.67053624709393" lon="10.929768421453419"><ele>46.0</ele><time>2026-04-18T12:11:10.995Z</time></trkpt><trkpt lat="43.6706128089288" lon="10.929769834527763"><ele>45.16666666666667</ele><time>2026-04-18T12:11:12.995Z</time></trkpt><trkpt lat="43.67067584098608" lon="10.929756253477759"><ele>44.333333333333336</ele><time>2026-04-18T12:11:14.995Z</time></trkpt><trkpt lat="43.67075732572034" lon="10.929760248999202"><ele>43.5</ele><time>2026-04-18T12:11:17.995Z</time></trkpt><trkpt lat="43.67084108569151" lon="10.929769222869497"><ele>42.666666666666664</ele><time>2026-04-18T12:11:20.995Z</time></trkpt><trkpt lat="43.670918887695834" lon="10.929829117473483"><ele>41.83333333333333</ele><time>2026-04-18T12:11:23.995Z</time></trkpt><trkpt lat="43.6709566566016" lon="10.929935570348444"><ele>41.0</ele><time>2026-04-18T12:11:26.993Z</time></trkpt><trkpt lat="43.670964117016936" lon="10.930043479443722"><ele>41.33333333333333</ele><time>2026-04-18T12:11:29.993Z</time></trkpt><trkpt lat="43.6709743069387" lon="10.930150030241688"><ele>41.666666666666664</ele><time>2026-04-18T12:11:32.993Z</time></trkpt><trkpt lat="43.670981368126505" lon="10.930260416972493"><ele>42.0</ele><time>2026-04-18T12:11:35.993Z</time></trkpt><trkpt lat="43.67099295559143" lon="10.930367964414536"><ele>42.333333333333336</ele><time>2026-04-18T12:11:38.993Z</time></trkpt><trkpt lat="43.67103364468305" lon="10.930469418923094"><ele>42.66666666666667</ele><time>2026-04-18T12:11:41.993Z</time></trkpt><trkpt lat="43.67109818390464" lon="10.930505967830763"><ele>43.0</ele><time>2026-04-18T12:11:43.993Z</time></trkpt><trkpt lat="43.67117292498556" lon="10.930498858363471"><ele>43.00000000000001</ele><time>2026-04-18T12:11:45.993Z</time></trkpt><trkpt lat="43.67123939743353" lon="10.930494919867796"><ele>43.0</ele><time>2026-04-18T12:11:47.993Z</time></trkpt><trkpt lat="43.67130961401945" lon="10.930479976858917"><ele>43.0</ele><time>2026-04-18T12:11:49.993Z</time></trkpt><trkpt lat="43.67138138873801" lon="10.930482467110277"><ele>43.0</ele><time>2026-04-18T12:11:51.993Z</time></trkpt><trkpt lat="43.67145875080817" lon="10.930458425476097"><ele>43.0</ele><time>2026-04-18T12:11:53.993Z</time></trkpt><trkpt lat="43.67153421726148" lon="10.930424558979785"><ele>43.00000000000001</ele><time>2026-04-18T12:11:55.993Z</time></trkpt><trkpt lat="43.67160599182968" lon="10.930385109895246"><ele>43.0</ele><time>2026-04-18T12:11:57.993Z</time></trkpt><trkpt lat="43.67167890175394" lon="10.930337609236155"><ele>43.00000000000001</ele><time>2026-04-18T12:11:59.993Z</time></trkpt><trkpt lat="43.67174699048784" lon="10.930290472371864"><ele>43.0</ele><time>2026-04-18T12:12:01.993Z</time></trkpt><trkpt lat="43.67182013275584" lon="10.930239908336414"><ele>43.0</ele><time>2026-04-18T12:12:03.993Z</time></trkpt><trkpt lat="43.67188816145361" lon="10.930192879363311"><ele>43.0</ele><time>2026-04-18T12:12:05.993Z</time></trkpt><trkpt lat="43.67195816291995" lon="10.93014448659684"><ele>43.0</ele><time>2026-04-18T12:12:07.993Z</time></trkpt><trkpt lat="43.672015466666345" lon="10.93010483206794"><ele>43.00000000000001</ele><time>2026-04-18T12:12:09.993Z</time></trkpt><trkpt lat="43.67207699748685" lon="10.930064234416799"><ele>43.0</ele><time>2026-04-18T12:12:11.993Z</time></trkpt><trkpt lat="43.67215507342008" lon="10.930013258853576"><ele>42.42857142857143</ele><time>2026-04-18T12:12:14.993Z</time></trkpt><trkpt lat="43.67221416573236" lon="10.929976076739248"><ele>41.85714285714286</ele><time>2026-04-18T12:12:16.993Z</time></trkpt><trkpt lat="43.67227939059255" lon="10.929940414280743"><ele>41.28571428571429</ele><time>2026-04-18T12:12:18.993Z</time></trkpt><trkpt lat="43.67233440041816" lon="10.929889186446529"><ele>40.714285714285715</ele><time>2026-04-18T12:12:20.993Z</time></trkpt><trkpt lat="43.672429226166365" lon="10.929870443717117"><ele>40.14285714285714</ele><time>2026-04-18T12:12:23.993Z</time></trkpt><trkpt lat="43.67250424504224" lon="10.929876222634432"><ele>39.57142857142858</ele><time>2026-04-18T12:12:25.993Z</time></trkpt><trkpt lat="43.67257969978667" lon="10.929885455594729"><ele>39.0</ele><time>2026-04-18T12:12:27.993Z</time></trkpt><trkpt lat="43.67265580632752" lon="10.929901613036296"><ele>39.0</ele><time>2026-04-18T12:12:29.993Z</time></trkpt><trkpt lat="43.67272805880675" lon="10.929911640546514"><ele>39.0</ele><time>2026-04-18T12:12:31.993Z</time></trkpt><trkpt lat="43.672796128249544" lon="10.929917407974202"><ele>39.0</ele><time>2026-04-18T12:12:33.993Z</time></trkpt><trkpt lat="43.672862406795765" lon="10.929924619703026"><ele>39.0</ele><time>2026-04-18T12:12:35.993Z</time></trkpt><trkpt lat="43.67292822918978" lon="10.929924563781157"><ele>39.0</ele><time>2026-04-18T12:12:37.993Z</time></trkpt><trkpt lat="43.672994703555176" lon="10.929939911419108"><ele>39.0</ele><time>2026-04-18T12:12:39.993Z</time></trkpt><trkpt lat="43.673063041973116" lon="10.929945070440308"><ele>39.0</ele><time>2026-04-18T12:12:41.993Z</time></trkpt><trkpt lat="43.673155920261735" lon="10.92995150353233"><ele>39.285714285714285</ele><time>2026-04-18T12:12:44.993Z</time></trkpt><trkpt lat="43.673223186668146" lon="10.929952424737955"><ele>39.57142857142857</ele><time>2026-04-18T12:12:46.993Z</time></trkpt><trkpt lat="43.67328611983996" lon="10.929954713948126"><ele>39.857142857142854</ele><time>2026-04-18T12:12:48.993Z</time></trkpt><trkpt lat="43.67335661378044" lon="10.929954774961061"><ele>40.14285714285714</ele><time>2026-04-18T12:12:50.993Z</time></trkpt><trkpt lat="43.6734200981825" lon="10.929957452298193"><ele>40.42857142857143</ele><time>2026-04-18T12:12:52.993Z</time></trkpt><trkpt lat="43.673506757350836" lon="10.929949613753282"><ele>40.71428571428571</ele><time>2026-04-18T12:12:55.993Z</time></trkpt><trkpt lat="43.67358459838174" lon="10.929939923183687"><ele>41.0</ele><time>2026-04-18T12:12:58.993Z</time></trkpt><trkpt lat="43.67366888614583" lon="10.929939828560176"><ele>41.166666666666664</ele><time>2026-04-18T12:13:01.993Z</time></trkpt><trkpt lat="43.673764192306805" lon="10.929904748724406"><ele>41.33333333333333</ele><time>2026-04-18T12:13:04.993Z</time></trkpt><trkpt lat="43.67384600342138" lon="10.929865592423766"><ele>41.5</ele><time>2026-04-18T12:13:07.993Z</time></trkpt><trkpt lat="43.67392305788906" lon="10.929825181875252"><ele>41.666666666666664</ele><time>2026-04-18T12:13:10.993Z</time></trkpt><trkpt lat="43.67400853358305" lon="10.929766847382883"><ele>41.833333333333336</ele><time>2026-04-18T12:13:13.993Z</time></trkpt><trkpt lat="43.67407581343706" lon="10.929724148052472"><ele>42.0</ele><time>2026-04-18T12:13:15.993Z</time></trkpt><trkpt lat="43.674154572256235" lon="10.929694830082665"><ele>42.0</ele><time>2026-04-18T12:13:17.993Z</time></trkpt><trkpt lat="43.67423033026834" lon="10.92964588988661"><ele>42.0</ele><time>2026-04-18T12:13:19.993Z</time></trkpt><trkpt lat="43.67430366845176" lon="10.929593767860842"><ele>42.0</ele><time>2026-04-18T12:13:21.993Z</time></trkpt><trkpt lat="43.67437584987039" lon="10.92953822952071"><ele>42.0</ele><time>2026-04-18T12:13:23.993Z</time></trkpt><trkpt lat="43.67443321948275" lon="10.929491793796103"><ele>42.0</ele><time>2026-04-18T12:13:25.993Z</time></trkpt><trkpt lat="43.67450460677239" lon="10.929434011969164"><ele>42.0</ele><time>2026-04-18T12:13:27.993Z</time></trkpt><trkpt lat="43.674564810673715" lon="10.929385282131099"><ele>42.0</ele><time>2026-04-18T12:13:29.993Z</time></trkpt><trkpt lat="43.67462249769137" lon="10.929338589486937"><ele>42.0</ele><time>2026-04-18T12:13:31.99Z</time></trkpt><trkpt lat="43.674681336364735" lon="10.92929073360937"><ele>42.0</ele><time>2026-04-18T12:13:33.99Z</time></trkpt><trkpt lat="43.6747573740888" lon="10.929227936131777"><ele>42.0</ele><time>2026-04-18T12:13:36.99Z</time></trkpt><trkpt lat="43.674822945867916" lon="10.929173782193718"><ele>42.0</ele><time>2026-04-18T12:13:38.99Z</time></trkpt><trkpt lat="43.67489245879032" lon="10.929116373367279"><ele>42.0</ele><time>2026-04-18T12:13:40.99Z</time></trkpt><trkpt lat="43.67496950305233" lon="10.929046550754846"><ele>42.0</ele><time>2026-04-18T12:13:42.99Z</time></trkpt><trkpt lat="43.675032105890956" lon="10.9289809841193"><ele>42.0</ele><time>2026-04-18T12:13:44.99Z</time></trkpt><trkpt lat="43.67510909985566" lon="10.92885261400612"><ele>42.0</ele><time>2026-04-18T12:13:46.99Z</time></trkpt><trkpt lat="43.67514757349025" lon="10.92877163105767"><ele>42.0</ele><time>2026-04-18T12:13:49.99Z</time></trkpt><trkpt lat="43.67520510536205" lon="10.928676432182133"><ele>42.0</ele><time>2026-04-18T12:13:52.99Z</time></trkpt><trkpt lat="43.67525261273533" lon="10.928617730528604"><ele>42.0</ele><time>2026-04-18T12:13:54.99Z</time></trkpt><trkpt lat="43.67533353057859" lon="10.928552955750218"><ele>41.714285714285715</ele><time>2026-04-18T12:13:57.99Z</time></trkpt><trkpt lat="43.67539721014289" lon="10.928503968143865"><ele>41.42857142857143</ele><time>2026-04-18T12:13:59.99Z</time></trkpt><trkpt lat="43.675454175125175" lon="10.928460301460959"><ele>41.14285714285714</ele><time>2026-04-18T12:14:01.99Z</time></trkpt><trkpt lat="43.67551390587601" lon="10.928415617050515"><ele>40.85714285714286</ele><time>2026-04-18T12:14:03.99Z</time></trkpt><trkpt lat="43.67557514249811" lon="10.928370132598623"><ele>40.57142857142857</ele><time>2026-04-18T12:14:05.99Z</time></trkpt><trkpt lat="43.675636086539036" lon="10.928326486106933"><ele>40.285714285714285</ele><time>2026-04-18T12:14:07.99Z</time></trkpt><trkpt lat="43.675708268071006" lon="10.928274791624135"><ele>40.0</ele><time>2026-04-18T12:14:09.99Z</time></trkpt><trkpt lat="43.6757689065487" lon="10.92823136404009"><ele>39.857142857142854</ele><time>2026-04-18T12:14:11.99Z</time></trkpt><trkpt lat="43.6758289257154" lon="10.928183306447998"><ele>39.714285714285715</ele><time>2026-04-18T12:14:13.99Z</time></trkpt><trkpt lat="43.67588260426256" lon="10.928133960321269"><ele>39.57142857142857</ele><time>2026-04-18T12:14:15.99Z</time></trkpt><trkpt lat="43.67593821807271" lon="10.928073368657909"><ele>39.42857142857143</ele><time>2026-04-18T12:14:17.99Z</time></trkpt><trkpt lat="43.67599299245773" lon="10.928010965518324"><ele>39.285714285714285</ele><time>2026-04-18T12:14:19.99Z</time></trkpt><trkpt lat="43.67604702690285" lon="10.927950035439046"><ele>39.142857142857146</ele><time>2026-04-18T12:14:21.99Z</time></trkpt><trkpt lat="43.67610161550968" lon="10.927888552343592"><ele>39.0</ele><time>2026-04-18T12:14:23.99Z</time></trkpt><trkpt lat="43.676156819821415" lon="10.927823340736317"><ele>39.0</ele><time>2026-04-18T12:14:25.99Z</time></trkpt><trkpt lat="43.67620599845543" lon="10.927763432220898"><ele>39.0</ele><time>2026-04-18T12:14:27.99Z</time></trkpt><trkpt lat="43.67625252172664" lon="10.92770085796698"><ele>39.0</ele><time>2026-04-18T12:14:29.99Z</time></trkpt><trkpt lat="43.67630031650305" lon="10.927634962306445"><ele>39.0</ele><time>2026-04-18T12:14:31.99Z</time></trkpt><trkpt lat="43.67634770588294" lon="10.92756729992467"><ele>39.0</ele><time>2026-04-18T12:14:33.99Z</time></trkpt><trkpt lat="43.676393510226724" lon="10.927499527156595"><ele>39.0</ele><time>2026-04-18T12:14:35.99Z</time></trkpt><trkpt lat="43.67643714976867" lon="10.927428332083817"><ele>39.0</ele><time>2026-04-18T12:14:37.99Z</time></trkpt><trkpt lat="43.676487399506975" lon="10.927345435570684"><ele>39.0</ele><time>2026-04-18T12:14:39.99Z</time></trkpt><trkpt lat="43.67654109847551" lon="10.927258055848027"><ele>39.0</ele><time>2026-04-18T12:14:42.99Z</time></trkpt><trkpt lat="43.67659653294863" lon="10.927169270311573"><ele>39.0</ele><time>2026-04-18T12:14:45.99Z</time></trkpt><trkpt lat="43.676638704325555" lon="10.927101727326082"><ele>39.0</ele><time>2026-04-18T12:14:47.99Z</time></trkpt><trkpt lat="43.67668049286904" lon="10.927034253637043"><ele>39.0</ele><time>2026-04-18T12:14:49.99Z</time></trkpt><trkpt lat="43.67672813002536" lon="10.926962530367755"><ele>39.0</ele><time>2026-04-18T12:14:51.99Z</time></trkpt><trkpt lat="43.676780049259584" lon="10.926887219342666"><ele>39.0</ele><time>2026-04-18T12:14:53.99Z</time></trkpt><trkpt lat="43.67683375324983" lon="10.926810125659227"><ele>39.0</ele><time>2026-04-18T12:14:55.99Z</time></trkpt><trkpt lat="43.676884676940276" lon="10.926729887190403"><ele>39.0</ele><time>2026-04-18T12:14:57.99Z</time></trkpt><trkpt lat="43.6769286369402" lon="10.926644136682212"><ele>39.0</ele><time>2026-04-18T12:14:59.99Z</time></trkpt><trkpt lat="43.67696870718508" lon="10.926560953896672"><ele>39.0</ele><time>2026-04-18T12:15:01.99Z</time></trkpt><trkpt lat="43.67700787028309" lon="10.926484517003324"><ele>39.0</ele><time>2026-04-18T12:15:03.99Z</time></trkpt><trkpt lat="43.677061629285255" lon="10.926379592448695"><ele>39.0</ele><time>2026-04-18T12:15:06.99Z</time></trkpt><trkpt lat="43.677098477898305" lon="10.92630761452462"><ele>39.333333333333336</ele><time>2026-04-18T12:15:08.99Z</time></trkpt><trkpt lat="43.67713509870833" lon="10.926235990912742"><ele>39.666666666666664</ele><time>2026-04-18T12:15:10.99Z</time></trkpt><trkpt lat="43.67718883424059" lon="10.926136234637172"><ele>40.0</ele><time>2026-04-18T12:15:13.99Z</time></trkpt><trkpt lat="43.67724444276408" lon="10.926034599134656"><ele>40.33333333333333</ele><time>2026-04-18T12:15:16.99Z</time></trkpt><trkpt lat="43.67729476765888" lon="10.925925609927702"><ele>40.666666666666664</ele><time>2026-04-18T12:15:19.99Z</time></trkpt><trkpt lat="43.67732414426353" lon="10.925837893805548"><ele>41.0</ele><time>2026-04-18T12:15:21.99Z</time></trkpt><trkpt lat="43.67735172326282" lon="10.925751413286735"><ele>41.166666666666664</ele><time>2026-04-18T12:15:23.99Z</time></trkpt><trkpt lat="43.677379370994004" lon="10.925640333358006"><ele>41.33333333333333</ele><time>2026-04-18T12:15:26.99Z</time></trkpt><trkpt lat="43.67740372972312" lon="10.925521143428123"><ele>41.5</ele><time>2026-04-18T12:15:29.99Z</time></trkpt><trkpt lat="43.67741983504122" lon="10.92543661491891"><ele>41.666666666666664</ele><time>2026-04-18T12:15:31.99Z</time></trkpt><trkpt lat="43.67744377132337" lon="10.925310985684707"><ele>41.833333333333336</ele><time>2026-04-18T12:15:34.99Z</time></trkpt><trkpt lat="43.67746140777492" lon="10.925218421035229"><ele>42.0</ele><time>2026-04-18T12:15:36.99Z</time></trkpt><trkpt lat="43.67747892812058" lon="10.925126465772992"><ele>41.857142857142854</ele><time>2026-04-18T12:15:38.987Z</time></trkpt><trkpt lat="43.67749592091485" lon="10.925037279329741"><ele>41.714285714285715</ele><time>2026-04-18T12:15:40.987Z</time></trkpt><trkpt lat="43.67751242430638" lon="10.924946619919519"><ele>41.57142857142857</ele><time>2026-04-18T12:15:42.987Z</time></trkpt><trkpt lat="43.6775282125794" lon="10.92485640119273"><ele>41.42857142857143</ele><time>2026-04-18T12:15:44.987Z</time></trkpt><trkpt lat="43.6775446504711" lon="10.92476058814328"><ele>41.285714285714285</ele><time>2026-04-18T12:15:46.987Z</time></trkpt><trkpt lat="43.67755914544211" lon="10.924668724503393"><ele>41.14285714285714</ele><time>2026-04-18T12:15:48.987Z</time></trkpt><trkpt lat="43.67757389648552" lon="10.924575238054024"><ele>41.0</ele><time>2026-04-18T12:15:50.987Z</time></trkpt><trkpt lat="43.677595161991206" lon="10.924454713905096"><ele>41.0</ele><time>2026-04-18T12:15:53.987Z</time></trkpt><trkpt lat="43.67761770578293" lon="10.92432615954203"><ele>41.0</ele><time>2026-04-18T12:15:56.987Z</time></trkpt><trkpt lat="43.677633341187686" lon="10.92423941850036"><ele>41.0</ele><time>2026-04-18T12:15:58.987Z</time></trkpt><trkpt lat="43.67764878141614" lon="10.924154684396738"><ele>41.0</ele><time>2026-04-18T12:16:00.987Z</time></trkpt><trkpt lat="43.677671614194395" lon="10.924038068229734"><ele>41.0</ele><time>2026-04-18T12:16:03.987Z</time></trkpt><trkpt lat="43.67768855251213" lon="10.923953969313557"><ele>41.0</ele><time>2026-04-18T12:16:05.987Z</time></trkpt><trkpt lat="43.67771358780111" lon="10.923828997642607"><ele>41.166666666666664</ele><time>2026-04-18T12:16:08.987Z</time></trkpt><trkpt lat="43.677735178257734" lon="10.923716605062582"><ele>41.33333333333333</ele><time>2026-04-18T12:16:10.987Z</time></trkpt><trkpt lat="43.67775638102836" lon="10.923592582506641"><ele>41.5</ele><time>2026-04-18T12:16:12.987Z</time></trkpt><trkpt lat="43.6777796006261" lon="10.923456762855166"><ele>41.666666666666664</ele><time>2026-04-18T12:16:14.987Z</time></trkpt><trkpt lat="43.67780397454533" lon="10.92331419111074"><ele>41.833333333333336</ele><time>2026-04-18T12:16:16.987Z</time></trkpt><trkpt lat="43.67781865000068" lon="10.9232283491729"><ele>42.0</ele><time>2026-04-18T12:16:18.987Z</time></trkpt><trkpt lat="43.677839150219086" lon="10.923114172382979"><ele>42.666666666666664</ele><time>2026-04-18T12:16:19.987Z</time></trkpt><trkpt lat="43.677865866508135" lon="10.922993487480223"><ele>43.333333333333336</ele><time>2026-04-18T12:16:21.987Z</time></trkpt><trkpt lat="43.67789914025532" lon="10.922896354289872"><ele>44.0</ele><time>2026-04-18T12:16:23.987Z</time></trkpt><trkpt lat="43.677934920753835" lon="10.922801202109028"><ele>44.66666666666667</ele><time>2026-04-18T12:16:25.987Z</time></trkpt><trkpt lat="43.67797202594523" lon="10.922708711167823"><ele>45.333333333333336</ele><time>2026-04-18T12:16:27.987Z</time></trkpt><trkpt lat="43.67801444471419" lon="10.922608213143716"><ele>46.0</ele><time>2026-04-18T12:16:29.987Z</time></trkpt><trkpt lat="43.67805357386096" lon="10.922516463824607"><ele>46.0</ele><time>2026-04-18T12:16:31.987Z</time></trkpt><trkpt lat="43.67809747041824" lon="10.922416161898887"><ele>46.0</ele><time>2026-04-18T12:16:33.987Z</time></trkpt><trkpt lat="43.6781385326328" lon="10.922322336001889"><ele>46.0</ele><time>2026-04-18T12:16:35.987Z</time></trkpt><trkpt lat="43.678182120765214" lon="10.922218053659975"><ele>46.0</ele><time>2026-04-18T12:16:37.987Z</time></trkpt><trkpt lat="43.67821971384334" lon="10.922128221292017"><ele>46.0</ele><time>2026-04-18T12:16:39.987Z</time></trkpt><trkpt lat="43.6782595488425" lon="10.922032156568168"><ele>46.0</ele><time>2026-04-18T12:16:41.987Z</time></trkpt><trkpt lat="43.67830070885368" lon="10.921926122868046"><ele>46.0</ele><time>2026-04-18T12:16:43.987Z</time></trkpt><trkpt lat="43.67834222567627" lon="10.921810856134865"><ele>46.0</ele><time>2026-04-18T12:16:45.987Z</time></trkpt><trkpt lat="43.67838014184732" lon="10.92169595881703"><ele>46.0</ele><time>2026-04-18T12:16:47.987Z</time></trkpt><trkpt lat="43.678418896815764" lon="10.921580379551997"><ele>46.0</ele><time>2026-04-18T12:16:49.987Z</time></trkpt><trkpt lat="43.67845611954695" lon="10.921469369933353"><ele>46.0</ele><time>2026-04-18T12:16:51.987Z</time></trkpt><trkpt lat="43.67852349785674" lon="10.9214276330825"><ele>46.0</ele><time>2026-04-18T12:16:53.987Z</time></trkpt><trkpt lat="43.67858031485986" lon="10.921361090630278"><ele>45.833333333333336</ele><time>2026-04-18T12:16:55.987Z</time></trkpt><trkpt lat="43.678629772856155" lon="10.921300408451236"><ele>45.66666666666667</ele><time>2026-04-18T12:16:57.987Z</time></trkpt><trkpt lat="43.678704475307306" lon="10.92123187065932"><ele>45.5</ele><time>2026-04-18T12:17:00.987Z</time></trkpt><trkpt lat="43.67877497080438" lon="10.9212165128724"><ele>45.333333333333336</ele><time>2026-04-18T12:17:05.987Z</time></trkpt><trkpt lat="43.67885076836466" lon="10.921143051713152"><ele>45.166666666666664</ele><time>2026-04-18T12:17:08.987Z</time></trkpt><trkpt lat="43.678894385936026" lon="10.921058545110393"><ele>45.0</ele><time>2026-04-18T12:17:09.987Z</time></trkpt><trkpt lat="43.678986196842004" lon="10.920994368665687"><ele>45.0</ele><time>2026-04-18T12:17:11.987Z</time></trkpt><trkpt lat="43.67903202362929" lon="10.921054844701471"><ele>45.0</ele><time>2026-04-18T12:17:12.987Z</time></trkpt><trkpt lat="43.679026638564295" lon="10.920572386992676"><ele>45.0</ele><time>2026-04-18T12:17:14.987Z</time></trkpt><trkpt lat="43.679068660905806" lon="10.9204971449563"><ele>43.833333333333336</ele><time>2026-04-18T12:17:15.987Z</time></trkpt><trkpt lat="43.679113766765674" lon="10.920413923100785"><ele>42.666666666666664</ele><time>2026-04-18T12:17:16.987Z</time></trkpt><trkpt lat="43.67915687222128" lon="10.920339529905622"><ele>41.5</ele><time>2026-04-18T12:17:17.987Z</time></trkpt><trkpt lat="43.679200235691546" lon="10.920257435740906"><ele>40.33333333333333</ele><time>2026-04-18T12:17:18.987Z</time></trkpt><trkpt lat="43.67923933813947" lon="10.920185341908885"><ele>39.166666666666664</ele><time>2026-04-18T12:17:19.987Z</time></trkpt><trkpt lat="43.679315788148436" lon="10.920042807863789"><ele>38.0</ele><time>2026-04-18T12:17:21.987Z</time></trkpt><trkpt lat="43.67938587847396" lon="10.919910566682564"><ele>37.666666666666664</ele><time>2026-04-18T12:17:23.987Z</time></trkpt><trkpt lat="43.67944739017185" lon="10.919786468224107"><ele>37.33333333333333</ele><time>2026-04-18T12:17:25.987Z</time></trkpt><trkpt lat="43.67948773813439" lon="10.919718735325727"><ele>37.0</ele><time>2026-04-18T12:17:26.987Z</time></trkpt><trkpt lat="43.67953733316841" lon="10.919616173890498"><ele>36.666666666666664</ele><time>2026-04-18T12:17:28.987Z</time></trkpt><trkpt lat="43.679588026340866" lon="10.919564514030334"><ele>36.333333333333336</ele><time>2026-04-18T12:17:31.987Z</time></trkpt><trkpt lat="43.67966776002122" lon="10.91956072701927"><ele>36.0</ele><time>2026-04-18T12:17:35.987Z</time></trkpt><trkpt lat="43.67974793715818" lon="10.919497722018379"><ele>36.0</ele><time>2026-04-18T12:17:38.987Z</time></trkpt><trkpt lat="43.67983015900148" lon="10.919512198750704"><ele>36.0</ele><time>2026-04-18T12:17:40.987Z</time></trkpt><trkpt lat="43.67989731516016" lon="10.919507104413562"><ele>36.0</ele><time>2026-04-18T12:17:42.987Z</time></trkpt><trkpt lat="43.67997299213065" lon="10.919502106035862"><ele>36.0</ele><time>2026-04-18T12:17:44.984Z</time></trkpt><trkpt lat="43.68004323136154" lon="10.919506005892865"><ele>36.0</ele><time>2026-04-18T12:17:46.984Z</time></trkpt><trkpt lat="43.68011882729552" lon="10.919493566883634"><ele>36.0</ele><time>2026-04-18T12:17:48.984Z</time></trkpt><trkpt lat="43.680198056908466" lon="10.919478861835728"><ele>35.666666666666664</ele><time>2026-04-18T12:17:50.984Z</time></trkpt><trkpt lat="43.68027160348615" lon="10.919469654574783"><ele>35.333333333333336</ele><time>2026-04-18T12:17:52.984Z</time></trkpt><trkpt lat="43.68034106855789" lon="10.919454934694691"><ele>35.0</ele><time>2026-04-18T12:17:54.984Z</time></trkpt><trkpt lat="43.68041530033006" lon="10.919440819380743"><ele>34.66666666666667</ele><time>2026-04-18T12:17:56.984Z</time></trkpt><trkpt lat="43.680492338239844" lon="10.919425024113847"><ele>34.333333333333336</ele><time>2026-04-18T12:17:58.984Z</time></trkpt><trkpt lat="43.6805725698141" lon="10.919405818292509"><ele>34.0</ele><time>2026-04-18T12:18:00.984Z</time></trkpt><trkpt lat="43.68064244521628" lon="10.919382070436853"><ele>34.0</ele><time>2026-04-18T12:18:02.984Z</time></trkpt><trkpt lat="43.68071880395247" lon="10.91936130094967"><ele>34.0</ele><time>2026-04-18T12:18:04.984Z</time></trkpt><trkpt lat="43.68079510521678" lon="10.919335727077105"><ele>34.0</ele><time>2026-04-18T12:18:06.984Z</time></trkpt><trkpt lat="43.68088186204665" lon="10.919323595883675"><ele>34.0</ele><time>2026-04-18T12:18:08.984Z</time></trkpt><trkpt lat="43.68096221564288" lon="10.919299215070643"><ele>34.0</ele><time>2026-04-18T12:18:10.984Z</time></trkpt><trkpt lat="43.681041669663735" lon="10.919277625028068"><ele>34.0</ele><time>2026-04-18T12:18:12.984Z</time></trkpt><trkpt lat="43.68113150913931" lon="10.919251359912781"><ele>34.0</ele><time>2026-04-18T12:18:14.984Z</time></trkpt><trkpt lat="43.68120276320877" lon="10.919205426883241"><ele>34.0</ele><time>2026-04-18T12:18:16.984Z</time></trkpt><trkpt lat="43.68127606506288" lon="10.919161184737227"><ele>34.0</ele><time>2026-04-18T12:18:18.984Z</time></trkpt><trkpt lat="43.68135165328286" lon="10.919105925064299"><ele>34.0</ele><time>2026-04-18T12:18:20.984Z</time></trkpt><trkpt lat="43.68141425364065" lon="10.919026423463018"><ele>34.0</ele><time>2026-04-18T12:18:22.984Z</time></trkpt><trkpt lat="43.68146966844188" lon="10.918936709804301"><ele>34.0</ele><time>2026-04-18T12:18:24.984Z</time></trkpt><trkpt lat="43.68152297347736" lon="10.918837249187549"><ele>34.0</ele><time>2026-04-18T12:18:26.984Z</time></trkpt><trkpt lat="43.68157426796796" lon="10.918742836664793"><ele>34.0</ele><time>2026-04-18T12:18:28.984Z</time></trkpt><trkpt lat="43.68163544389628" lon="10.91865778065356"><ele>34.0</ele><time>2026-04-18T12:18:30.984Z</time></trkpt><trkpt lat="43.68170410467893" lon="10.918594782027187"><ele>34.0</ele><time>2026-04-18T12:18:32.984Z</time></trkpt><trkpt lat="43.681776163984914" lon="10.918538452481508"><ele>34.0</ele><time>2026-04-18T12:18:34.984Z</time></trkpt><trkpt lat="43.68184487897384" lon="10.918471721522735"><ele>34.0</ele><time>2026-04-18T12:18:36.984Z</time></trkpt><trkpt lat="43.681913643158424" lon="10.91840746427946"><ele>34.16666666666667</ele><time>2026-04-18T12:18:38.984Z</time></trkpt><trkpt lat="43.68197469017468" lon="10.918345338566079"><ele>34.333333333333336</ele><time>2026-04-18T12:18:40.984Z</time></trkpt><trkpt lat="43.68204196593162" lon="10.918385103803685"><ele>34.5</ele><time>2026-04-18T12:18:41.984Z</time></trkpt><trkpt lat="43.68209388765441" lon="10.918329823271206"><ele>34.666666666666664</ele><time>2026-04-18T12:18:43.984Z</time></trkpt><trkpt lat="43.68216316204524" lon="10.91823643596832"><ele>34.83333333333333</ele><time>2026-04-18T12:18:46.984Z</time></trkpt><trkpt lat="43.682226982521" lon="10.918174639791546"><ele>35.0</ele><time>2026-04-18T12:18:48.984Z</time></trkpt><trkpt lat="43.68229436253478" lon="10.918119413594026"><ele>35.0</ele><time>2026-04-18T12:18:50.984Z</time></trkpt><trkpt lat="43.682372174490276" lon="10.918069924173052"><ele>35.0</ele><time>2026-04-18T12:18:52.984Z</time></trkpt><trkpt lat="43.68243438988533" lon="10.917996366115558"><ele>35.0</ele><time>2026-04-18T12:18:54.984Z</time></trkpt><trkpt lat="43.68249215973638" lon="10.917915065057748"><ele>35.0</ele><time>2026-04-18T12:18:56.984Z</time></trkpt><trkpt lat="43.68254310165632" lon="10.91783681868355"><ele>35.0</ele><time>2026-04-18T12:18:58.984Z</time></trkpt><trkpt lat="43.682595433446" lon="10.917754999203016"><ele>35.0</ele><time>2026-04-18T12:19:00.984Z</time></trkpt><trkpt lat="43.68264686620318" lon="10.917674585422484"><ele>35.0</ele><time>2026-04-18T12:19:02.984Z</time></trkpt><trkpt lat="43.68269994157014" lon="10.91759160379643"><ele>35.0</ele><time>2026-04-18T12:19:04.984Z</time></trkpt><trkpt lat="43.68275371028601" lon="10.91750753763306"><ele>35.0</ele><time>2026-04-18T12:19:06.984Z</time></trkpt><trkpt lat="43.682807489139435" lon="10.917424340241144"><ele>35.0</ele><time>2026-04-18T12:19:08.984Z</time></trkpt><trkpt lat="43.68286433839974" lon="10.917340833081985"><ele>35.0</ele><time>2026-04-18T12:19:10.984Z</time></trkpt><trkpt lat="43.68292601143373" lon="10.917262178064416"><ele>35.0</ele><time>2026-04-18T12:19:12.984Z</time></trkpt><trkpt lat="43.6829959009844" lon="10.917184690539107"><ele>34.83333333333333</ele><time>2026-04-18T12:19:14.984Z</time></trkpt><trkpt lat="43.683064028733426" lon="10.917100301060044"><ele>34.666666666666664</ele><time>2026-04-18T12:19:16.984Z</time></trkpt><trkpt lat="43.68312627524239" lon="10.917016861578734"><ele>34.5</ele><time>2026-04-18T12:19:18.984Z</time></trkpt><trkpt lat="43.683182091798145" lon="10.916935687478142"><ele>34.333333333333336</ele><time>2026-04-18T12:19:20.984Z</time></trkpt><trkpt lat="43.68323666780729" lon="10.916856257520042"><ele>34.16666666666667</ele><time>2026-04-18T12:19:22.984Z</time></trkpt><trkpt lat="43.68328788175753" lon="10.91677918188946"><ele>34.0</ele><time>2026-04-18T12:19:24.984Z</time></trkpt><trkpt lat="43.68333906094065" lon="10.91670215814871"><ele>34.0</ele><time>2026-04-18T12:19:26.984Z</time></trkpt><trkpt lat="43.68338987577646" lon="10.91662436764844"><ele>34.0</ele><time>2026-04-18T12:19:28.984Z</time></trkpt><trkpt lat="43.683455044782136" lon="10.916530710707335"><ele>34.0</ele><time>2026-04-18T12:19:31.984Z</time></trkpt><trkpt lat="43.6835248595923" lon="10.916456105798478"><ele>34.0</ele><time>2026-04-18T12:19:34.984Z</time></trkpt><trkpt lat="43.68357383510206" lon="10.916583951258499"><ele>34.0</ele><time>2026-04-18T12:19:38.984Z</time></trkpt><trkpt lat="43.68360015391671" lon="10.916667468356854"><ele>34.0</ele><time>2026-04-18T12:19:40.984Z</time></trkpt><trkpt lat="43.683636096298436" lon="10.916760426336003"><ele>33.857142857142854</ele><time>2026-04-18T12:19:42.984Z</time></trkpt><trkpt lat="43.68368016301267" lon="10.916846615421035"><ele>33.714285714285715</ele><time>2026-04-18T12:19:44.984Z</time></trkpt><trkpt lat="43.68371453441614" lon="10.91693555545211"><ele>33.57142857142857</ele><time>2026-04-18T12:19:46.984Z</time></trkpt><trkpt lat="43.68374899637881" lon="10.917028266588005"><ele>33.42857142857143</ele><time>2026-04-18T12:19:48.984Z</time></trkpt><trkpt lat="43.6837871695628" lon="10.917113732542482"><ele>33.285714285714285</ele><time>2026-04-18T12:19:50.981Z</time></trkpt><trkpt lat="43.68382431881825" lon="10.917196638647294"><ele>33.14285714285714</ele><time>2026-04-18T12:19:52.981Z</time></trkpt><trkpt lat="43.68385648946501" lon="10.917279795625994"><ele>33.0</ele><time>2026-04-18T12:19:54.981Z</time></trkpt><trkpt lat="43.683894890174294" lon="10.917368393133128"><ele>33.0</ele><time>2026-04-18T12:19:56.981Z</time></trkpt><trkpt lat="43.68393065446466" lon="10.917458037231796"><ele>33.0</ele><time>2026-04-18T12:19:58.981Z</time></trkpt><trkpt lat="43.6839659404715" lon="10.917550473705882"><ele>33.0</ele><time>2026-04-18T12:20:00.981Z</time></trkpt><trkpt lat="43.68399979793586" lon="10.917637680699482"><ele>33.0</ele><time>2026-04-18T12:20:02.981Z</time></trkpt><trkpt lat="43.68403405142184" lon="10.917725830208388"><ele>33.0</ele><time>2026-04-18T12:20:04.981Z</time></trkpt><trkpt lat="43.68407630656131" lon="10.917808038672781"><ele>33.0</ele><time>2026-04-18T12:20:06.981Z</time></trkpt><trkpt lat="43.684119741773934" lon="10.91789995350542"><ele>33.0</ele><time>2026-04-18T12:20:09.981Z</time></trkpt><trkpt lat="43.684259251688836" lon="10.917815679910591"><ele>33.666666666666664</ele><time>2026-04-18T12:20:11.981Z</time></trkpt><trkpt lat="43.684322693586246" lon="10.917739838998981"><ele>34.333333333333336</ele><time>2026-04-18T12:20:13.981Z</time></trkpt><trkpt lat="43.68438750616477" lon="10.917663036480032"><ele>35.0</ele><time>2026-04-18T12:20:15.981Z</time></trkpt><trkpt lat="43.684457782173695" lon="10.91759113606895"><ele>35.66666666666667</ele><time>2026-04-18T12:20:17.981Z</time></trkpt><trkpt lat="43.68452578483258" lon="10.917520446147824"><ele>36.333333333333336</ele><time>2026-04-18T12:20:19.981Z</time></trkpt><trkpt lat="43.68460534835268" lon="10.917476202544233"><ele>37.0</ele><time>2026-04-18T12:20:21.981Z</time></trkpt><trkpt lat="43.6846726649312" lon="10.917414969556273"><ele>37.0</ele><time>2026-04-18T12:20:23.981Z</time></trkpt><trkpt lat="43.68474368084056" lon="10.917350125002613"><ele>37.0</ele><time>2026-04-18T12:20:25.981Z</time></trkpt><trkpt lat="43.684821513704435" lon="10.917279012519861"><ele>37.0</ele><time>2026-04-18T12:20:27.981Z</time></trkpt><trkpt lat="43.68489482449295" lon="10.917212031644892"><ele>37.0</ele><time>2026-04-18T12:20:29.981Z</time></trkpt><trkpt lat="43.68495844548927" lon="10.917128705327253"><ele>37.0</ele><time>2026-04-18T12:20:31.981Z</time></trkpt><trkpt lat="43.68502914291933" lon="10.917063975930287"><ele>37.0</ele><time>2026-04-18T12:20:33.981Z</time></trkpt><trkpt lat="43.68510055000178" lon="10.917001743732946"><ele>37.0</ele><time>2026-04-18T12:20:35.981Z</time></trkpt><trkpt lat="43.68517358589007" lon="10.916941968537847"><ele>37.0</ele><time>2026-04-18T12:20:37.981Z</time></trkpt><trkpt lat="43.68524478567363" lon="10.91690177428499"><ele>37.0</ele><time>2026-04-18T12:20:39.981Z</time></trkpt><trkpt lat="43.685308786048815" lon="10.916824813087729"><ele>37.0</ele><time>2026-04-18T12:20:41.981Z</time></trkpt><trkpt lat="43.685388574648854" lon="10.91678024459371"><ele>37.0</ele><time>2026-04-18T12:20:43.981Z</time></trkpt><trkpt lat="43.6854600158987" lon="10.916718511243804"><ele>37.0</ele><time>2026-04-18T12:20:45.981Z</time></trkpt><trkpt lat="43.68553153517219" lon="10.916654965204117"><ele>36.66666666666667</ele><time>2026-04-18T12:20:47.981Z</time></trkpt><trkpt lat="43.6855978608474" lon="10.916584025298986"><ele>36.333333333333336</ele><time>2026-04-18T12:20:49.981Z</time></trkpt><trkpt lat="43.685676084181665" lon="10.916544785890673"><ele>36.0</ele><time>2026-04-18T12:20:51.981Z</time></trkpt><trkpt lat="43.68575664341985" lon="10.91651409155543"><ele>35.666666666666664</ele><time>2026-04-18T12:20:53.981Z</time></trkpt><trkpt lat="43.685845612917106" lon="10.916489939843636"><ele>35.33333333333333</ele><time>2026-04-18T12:20:55.981Z</time></trkpt><trkpt lat="43.68593575276028" lon="10.916466592054668"><ele>35.0</ele><time>2026-04-18T12:20:57.981Z</time></trkpt><trkpt lat="43.6860255261187" lon="10.91641723463066"><ele>35.0</ele><time>2026-04-18T12:20:59.981Z</time></trkpt><trkpt lat="43.686108879832254" lon="10.916364554576406"><ele>35.0</ele><time>2026-04-18T12:21:01.981Z</time></trkpt><trkpt lat="43.68619348807784" lon="10.916314184246165"><ele>35.0</ele><time>2026-04-18T12:21:03.981Z</time></trkpt><trkpt lat="43.686277793385415" lon="10.916268408651863"><ele>35.0</ele><time>2026-04-18T12:21:05.981Z</time></trkpt><trkpt lat="43.68635728944957" lon="10.916225106683035"><ele>35.0</ele><time>2026-04-18T12:21:07.981Z</time></trkpt><trkpt lat="43.68636713764333" lon="10.916064714956203"><ele>35.0</ele><time>2026-04-18T12:21:09.981Z</time></trkpt><trkpt lat="43.686416987777925" lon="10.91598098874839"><ele>35.0</ele><time>2026-04-18T12:21:11.981Z</time></trkpt><trkpt lat="43.68646170126722" lon="10.915905890008858"><ele>35.0</ele><time>2026-04-18T12:21:13.981Z</time></trkpt><trkpt lat="43.68663822379846" lon="10.916056069517502"><ele>35.0</ele><time>2026-04-18T12:21:17.981Z</time></trkpt><trkpt lat="43.686665057413244" lon="10.916160572646579"><ele>35.0</ele><time>2026-04-18T12:21:19.981Z</time></trkpt><trkpt lat="43.68656439319131" lon="10.916270931709633"><ele>35.0</ele><time>2026-04-18T12:21:20.981Z</time></trkpt><trkpt lat="43.68659380813638" lon="10.916362978976586"><ele>35.0</ele><time>2026-04-18T12:21:22.981Z</time></trkpt><trkpt lat="43.68661570645067" lon="10.91647115413307"><ele>35.0</ele><time>2026-04-18T12:21:25.981Z</time></trkpt><trkpt lat="43.68663073377207" lon="10.916559004590743"><ele>35.0</ele><time>2026-04-18T12:21:27.981Z</time></trkpt><trkpt lat="43.68659536527763" lon="10.916677970382962"><ele>35.0</ele><time>2026-04-18T12:21:31.981Z</time></trkpt><trkpt lat="43.686587986158955" lon="10.916797306427176"><ele>35.0</ele><time>2026-04-18T12:21:34.981Z</time></trkpt><trkpt lat="43.686571825546814" lon="10.916626736721193"><ele>35.0</ele><time>2026-04-18T12:21:38.981Z</time></trkpt><trkpt lat="43.68732620007835" lon="10.916187198087584"><ele>35.0</ele><time>2026-04-18T12:23:18.978Z</time></trkpt><trkpt lat="43.687377961573276" lon="10.916236929313804"><ele>35.0</ele><time>2026-04-18T12:23:20.978Z</time></trkpt><trkpt lat="43.687456183601164" lon="10.916272841177474"><ele>35.0</ele><time>2026-04-18T12:23:23.978Z</time></trkpt><trkpt lat="43.68753802255597" lon="10.916332450779096"><ele>35.0</ele><time>2026-04-18T12:23:26.978Z</time></trkpt><trkpt lat="43.68759385055376" lon="10.916373747358804"><ele>35.0</ele><time>2026-04-18T12:23:28.978Z</time></trkpt><trkpt lat="43.687653940289444" lon="10.916409749954235"><ele>35.0</ele><time>2026-04-18T12:23:31.978Z</time></trkpt><trkpt lat="43.68772143798378" lon="10.91645087717641"><ele>35.0</ele><time>2026-04-18T12:23:34.978Z</time></trkpt><trkpt lat="43.687781434926016" lon="10.916494876761867"><ele>35.166666666666664</ele><time>2026-04-18T12:23:37.978Z</time></trkpt><trkpt lat="43.687841900858984" lon="10.916529315957463"><ele>35.33333333333333</ele><time>2026-04-18T12:23:40.978Z</time></trkpt><trkpt lat="43.687909015968415" lon="10.916575211268459"><ele>35.5</ele><time>2026-04-18T12:23:43.978Z</time></trkpt><trkpt lat="43.68797573402245" lon="10.916619580575503"><ele>35.666666666666664</ele><time>2026-04-18T12:23:46.978Z</time></trkpt><trkpt lat="43.688037264775296" lon="10.916672865117647"><ele>35.833333333333336</ele><time>2026-04-18T12:23:49.978Z</time></trkpt><trkpt lat="43.68811007874696" lon="10.916723208289145"><ele>36.0</ele><time>2026-04-18T12:23:52.978Z</time></trkpt><trkpt lat="43.68818868037897" lon="10.91677048672524"><ele>36.5</ele><time>2026-04-18T12:23:55.978Z</time></trkpt><trkpt lat="43.68826388540758" lon="10.916822903511239"><ele>37.0</ele><time>2026-04-18T12:23:58.978Z</time></trkpt><trkpt lat="43.6883429662386" lon="10.916877357389282"><ele>37.5</ele><time>2026-04-18T12:24:01.976Z</time></trkpt><trkpt lat="43.68842515286297" lon="10.91692842007935"><ele>38.0</ele><time>2026-04-18T12:24:04.976Z</time></trkpt><trkpt lat="43.688500218869734" lon="10.916979241314012"><ele>38.5</ele><time>2026-04-18T12:24:07.976Z</time></trkpt><trkpt lat="43.68857993474039" lon="10.917024201626077"><ele>39.0</ele><time>2026-04-18T12:24:10.976Z</time></trkpt><trkpt lat="43.688657529355666" lon="10.917086505903121"><ele>41.0</ele><time>2026-04-18T12:24:13.976Z</time></trkpt><trkpt lat="43.68868069888253" lon="10.91719933949922"><ele>43.0</ele><time>2026-04-18T12:24:16.976Z</time></trkpt><trkpt lat="43.688668540676694" lon="10.91733013790289"><ele>45.0</ele><time>2026-04-18T12:24:19.976Z</time></trkpt><trkpt lat="43.68867031530266" lon="10.917433461537463"><ele>47.0</ele><time>2026-04-18T12:24:22.976Z</time></trkpt><trkpt lat="43.68867521300492" lon="10.917539722991906"><ele>49.0</ele><time>2026-04-18T12:24:25.976Z</time></trkpt><trkpt lat="43.688675226396974" lon="10.917654747504853"><ele>51.0</ele><time>2026-04-18T12:24:28.976Z</time></trkpt><trkpt lat="43.688664010728836" lon="10.917776839330958"><ele>51.333333333333336</ele><time>2026-04-18T12:24:31.976Z</time></trkpt><trkpt lat="43.688663876050335" lon="10.917891734382293"><ele>51.66666666666667</ele><time>2026-04-18T12:24:34.976Z</time></trkpt><trkpt lat="43.68866258285171" lon="10.918007243170715"><ele>52.0</ele><time>2026-04-18T12:24:37.976Z</time></trkpt><trkpt lat="43.68866113400229" lon="10.918106419936892"><ele>52.333333333333336</ele><time>2026-04-18T12:24:40.976Z</time></trkpt><trkpt lat="43.688649526503895" lon="10.918197438902865"><ele>52.66666666666667</ele><time>2026-04-18T12:24:42.976Z</time></trkpt><trkpt lat="43.68864388481471" lon="10.918302409475709"><ele>53.0</ele><time>2026-04-18T12:24:45.976Z</time></trkpt><trkpt lat="43.688650228151744" lon="10.918418651900126"><ele>53.714285714285715</ele><time>2026-04-18T12:24:48.976Z</time></trkpt><trkpt lat="43.688657986685726" lon="10.918526227159512"><ele>54.42857142857143</ele><time>2026-04-18T12:24:51.976Z</time></trkpt><trkpt lat="43.688656933856976" lon="10.918629167059288"><ele>55.142857142857146</ele><time>2026-04-18T12:24:54.976Z</time></trkpt><trkpt lat="43.68865873123717" lon="10.918721216437438"><ele>55.85714285714286</ele><time>2026-04-18T12:24:57.976Z</time></trkpt><trkpt lat="43.688664276126765" lon="10.918808089094723"><ele>56.57142857142857</ele><time>2026-04-18T12:25:00.976Z</time></trkpt><trkpt lat="43.68866149649819" lon="10.91891578046098"><ele>57.28571428571429</ele><time>2026-04-18T12:25:03.976Z</time></trkpt><trkpt lat="43.68866213526057" lon="10.919008674749861"><ele>58.00000000000001</ele><time>2026-04-18T12:25:06.976Z</time></trkpt><trkpt lat="43.688658390030014" lon="10.919106032565036"><ele>57.99999999999999</ele><time>2026-04-18T12:25:09.976Z</time></trkpt><trkpt lat="43.68867905842968" lon="10.919200611545039"><ele>58.0</ele><time>2026-04-18T12:25:12.976Z</time></trkpt><trkpt lat="43.6886889098518" lon="10.91931300585673"><ele>58.0</ele><time>2026-04-18T12:25:15.976Z</time></trkpt><trkpt lat="43.68869633079238" lon="10.919437778547245"><ele>58.0</ele><time>2026-04-18T12:25:18.976Z</time></trkpt><trkpt lat="43.688693895493074" lon="10.919528591513082"><ele>57.99999999999999</ele><time>2026-04-18T12:25:20.976Z</time></trkpt><trkpt lat="43.68869671854904" lon="10.919658662427414"><ele>58.0</ele><time>2026-04-18T12:25:23.976Z</time></trkpt><trkpt lat="43.68869806120166" lon="10.919750079359819"><ele>58.49999999999999</ele><time>2026-04-18T12:25:25.976Z</time></trkpt><trkpt lat="43.68870023097168" lon="10.919869313107473"><ele>59.0</ele><time>2026-04-18T12:25:28.976Z</time></trkpt><trkpt lat="43.688699212746826" lon="10.919991679592293"><ele>59.5</ele><time>2026-04-18T12:25:31.976Z</time></trkpt><trkpt lat="43.68870154347736" lon="10.920108218613914"><ele>60.0</ele><time>2026-04-18T12:25:34.976Z</time></trkpt><trkpt lat="43.68870887387246" lon="10.920223349159963"><ele>60.49999999999999</ele><time>2026-04-18T12:25:37.976Z</time></trkpt><trkpt lat="43.68870337686051" lon="10.920339226839216"><ele>61.0</ele><time>2026-04-18T12:25:40.976Z</time></trkpt><trkpt lat="43.68870292515272" lon="10.92046029274519"><ele>61.666666666666664</ele><time>2026-04-18T12:25:43.976Z</time></trkpt><trkpt lat="43.68870540228845" lon="10.92057676297639"><ele>62.33333333333333</ele><time>2026-04-18T12:25:46.976Z</time></trkpt><trkpt lat="43.688708256278076" lon="10.920670739773943"><ele>63.0</ele><time>2026-04-18T12:25:48.976Z</time></trkpt><trkpt lat="43.688739586908696" lon="10.920776360468395"><ele>63.66666666666667</ele><time>2026-04-18T12:25:51.976Z</time></trkpt><trkpt lat="43.688709210943664" lon="10.920863991822005"><ele>64.33333333333334</ele><time>2026-04-18T12:25:54.976Z</time></trkpt><trkpt lat="43.6886957734587" lon="10.920977975552193"><ele>65.0</ele><time>2026-04-18T12:25:57.976Z</time></trkpt><trkpt lat="43.6886718707723" lon="10.921099757005047"><ele>65.5</ele><time>2026-04-18T12:26:00.976Z</time></trkpt><trkpt lat="43.68865781429703" lon="10.921211743163585"><ele>66.0</ele><time>2026-04-18T12:26:03.976Z</time></trkpt><trkpt lat="43.68864337216003" lon="10.921331605717663"><ele>66.5</ele><time>2026-04-18T12:26:06.976Z</time></trkpt><trkpt lat="43.68862985540475" lon="10.921428632699088"><ele>67.0</ele><time>2026-04-18T12:26:09.974Z</time></trkpt><trkpt lat="43.68861869012447" lon="10.921540078817818"><ele>67.5</ele><time>2026-04-18T12:26:12.974Z</time></trkpt><trkpt lat="43.688601868880376" lon="10.92165836461076"><ele>68.0</ele><time>2026-04-18T12:26:15.974Z</time></trkpt><trkpt lat="43.688599239335815" lon="10.921788807799606"><ele>67.99999999999999</ele><time>2026-04-18T12:26:18.974Z</time></trkpt><trkpt lat="43.688585087772395" lon="10.921898133230243"><ele>68.0</ele><time>2026-04-18T12:26:21.974Z</time></trkpt><trkpt lat="43.68852819997313" lon="10.921971335312152"><ele>68.0</ele><time>2026-04-18T12:26:24.974Z</time></trkpt><trkpt lat="43.68858664720863" lon="10.921926681827962"><ele>68.0</ele><time>2026-04-18T12:27:04.974Z</time></trkpt><trkpt lat="43.68859696603915" lon="10.9218142061439"><ele>68.0</ele><time>2026-04-18T12:27:15.974Z</time></trkpt><trkpt lat="43.68860301235956" lon="10.92172162964361"><ele>67.99999999999999</ele><time>2026-04-18T12:27:28.974Z</time></trkpt><trkpt lat="43.68861777974415" lon="10.921623164627567"><ele>68.0</ele><time>2026-04-18T12:27:34.974Z</time></trkpt><trkpt lat="43.6886337072848" lon="10.921529533349432"><ele>68.14285714285714</ele><time>2026-04-18T12:27:37.974Z</time></trkpt><trkpt lat="43.688645485663024" lon="10.921434535808926"><ele>68.28571428571428</ele><time>2026-04-18T12:27:39.974Z</time></trkpt><trkpt lat="43.68865645420475" lon="10.921327425645872"><ele>68.42857142857143</ele><time>2026-04-18T12:27:41.974Z</time></trkpt><trkpt lat="43.68867821121821" lon="10.921227236425574"><ele>68.57142857142857</ele><time>2026-04-18T12:27:43.974Z</time></trkpt><trkpt lat="43.688687802420546" lon="10.921120205640417"><ele>68.71428571428572</ele><time>2026-04-18T12:27:45.974Z</time></trkpt><trkpt lat="43.68870774078824" lon="10.921034563354656"><ele>68.85714285714286</ele><time>2026-04-18T12:27:47.974Z</time></trkpt><trkpt lat="43.68871833458885" lon="10.920945173940964"><ele>69.0</ele><time>2026-04-18T12:27:50.974Z</time></trkpt><trkpt lat="43.68875721058576" lon="10.9208615951251"><ele>69.0</ele><time>2026-04-18T12:27:54.974Z</time></trkpt><trkpt lat="43.68883361681056" lon="10.920866939511825"><ele>69.0</ele><time>2026-04-18T12:27:59.974Z</time></trkpt><trkpt lat="43.68889756579268" lon="10.920931937859583"><ele>69.0</ele><time>2026-04-18T12:28:05.974Z</time></trkpt><trkpt lat="43.68893911841623" lon="10.921013310986691"><ele>69.0</ele><time>2026-04-18T12:28:16.972Z</time></trkpt><trkpt lat="43.68897417491646" lon="10.921099971714302"><ele>69.0</ele><time>2026-04-18T12:28:26.972Z</time></trkpt><trkpt lat="43.68899418521784" lon="10.92118621291696"><ele>69.0</ele><time>2026-04-18T12:28:36.972Z</time></trkpt><trkpt lat="43.6890144562615" lon="10.921275388162705"><ele>69.0</ele><time>2026-04-18T12:28:46.972Z</time></trkpt><trkpt lat="43.68900045325849" lon="10.921370311261347"><ele>69.0</ele><time>2026-04-18T12:28:56.972Z</time></trkpt><trkpt lat="43.688990985928946" lon="10.921496734672075"><ele>69.0</ele><time>2026-04-18T12:29:09.972Z</time></trkpt><trkpt lat="43.6890125233291" lon="10.921586017179118"><ele>69.0</ele><time>2026-04-18T12:29:30.972Z</time></trkpt><trkpt lat="43.689010726390414" lon="10.92167629384099"><ele>69.0</ele><time>2026-04-18T12:29:43.972Z</time></trkpt><trkpt lat="43.689004436169746" lon="10.921765168045843"><ele>69.0</ele><time>2026-04-18T12:30:01.972Z</time></trkpt><trkpt lat="43.68899480545561" lon="10.921866113256295"><ele>69.0</ele><time>2026-04-18T12:30:10.972Z</time></trkpt><trkpt lat="43.688999336476854" lon="10.921957791606397"><ele>69.0</ele><time>2026-04-18T12:30:18.972Z</time></trkpt><trkpt lat="43.689012294579115" lon="10.922049071131703"><ele>68.85714285714286</ele><time>2026-04-18T12:30:26.97Z</time></trkpt><trkpt lat="43.68905059663042" lon="10.922122066456799"><ele>68.71428571428572</ele><time>2026-04-18T12:30:32.97Z</time></trkpt><trkpt lat="43.689114491715436" lon="10.922184899949695"><ele>68.57142857142857</ele><time>2026-04-18T12:30:40.97Z</time></trkpt><trkpt lat="43.689175452860226" lon="10.922236182422672"><ele>68.42857142857143</ele><time>2026-04-18T12:30:48.97Z</time></trkpt><trkpt lat="43.68924552099787" lon="10.922253422147785"><ele>68.28571428571428</ele><time>2026-04-18T12:30:59.97Z</time></trkpt><trkpt lat="43.689320347343674" lon="10.922266784915607"><ele>68.14285714285714</ele><time>2026-04-18T12:31:11.97Z</time></trkpt><trkpt lat="43.689385475435714" lon="10.922271491748747"><ele>68.0</ele><time>2026-04-18T12:31:22.97Z</time></trkpt><trkpt lat="43.68944960852557" lon="10.922293106766933"><ele>70.85714285714285</ele><time>2026-04-18T12:31:30.97Z</time></trkpt><trkpt lat="43.68951916772302" lon="10.922321691463551"><ele>73.71428571428571</ele><time>2026-04-18T12:31:39.97Z</time></trkpt><trkpt lat="43.68958274341812" lon="10.922327452119424"><ele>76.57142857142857</ele><time>2026-04-18T12:31:48.97Z</time></trkpt><trkpt lat="43.689649829271154" lon="10.922335663156158"><ele>79.42857142857142</ele><time>2026-04-18T12:31:55.97Z</time></trkpt><trkpt lat="43.68971717009649" lon="10.922327276596624"><ele>82.28571428571428</ele><time>2026-04-18T12:32:02.97Z</time></trkpt><trkpt lat="43.68978058308212" lon="10.922310197183718"><ele>85.14285714285714</ele><time>2026-04-18T12:32:10.97Z</time></trkpt><trkpt lat="43.68984467014329" lon="10.9223274095559"><ele>88.0</ele><time>2026-04-18T12:32:19.97Z</time></trkpt><trkpt lat="43.68990442198581" lon="10.922375229769424"><ele>88.0</ele><time>2026-04-18T12:36:02.966Z</time></trkpt><trkpt lat="43.68996654566118" lon="10.92243150563437"><ele>88.0</ele><time>2026-04-18T12:36:10.966Z</time></trkpt><trkpt lat="43.69002293507175" lon="10.922488596761863"><ele>88.0</ele><time>2026-04-18T12:36:15.966Z</time></trkpt><trkpt lat="43.6900808077384" lon="10.922546612943389"><ele>88.0</ele><time>2026-04-18T12:36:19.966Z</time></trkpt><trkpt lat="43.69014535879527" lon="10.922594814491937"><ele>88.0</ele><time>2026-04-18T12:36:23.966Z</time></trkpt><trkpt lat="43.69018762262422" lon="10.922671689641401"><ele>88.0</ele><time>2026-04-18T12:36:27.966Z</time></trkpt><trkpt lat="43.69022086607294" lon="10.92274820681977"><ele>88.0</ele><time>2026-04-18T12:36:30.966Z</time></trkpt><trkpt lat="43.69026429851775" lon="10.922812865373162"><ele>88.83333333333333</ele><time>2026-04-18T12:36:32.966Z</time></trkpt><trkpt lat="43.69030953408598" lon="10.922919031135466"><ele>89.66666666666666</ele><time>2026-04-18T12:36:35.966Z</time></trkpt><trkpt lat="43.690362373294555" lon="10.923003227150735"><ele>90.5</ele><time>2026-04-18T12:36:39.965Z</time></trkpt><trkpt lat="43.690448002700684" lon="10.923000693340446"><ele>91.33333333333333</ele><time>2026-04-18T12:36:43.965Z</time></trkpt><trkpt lat="43.690525202178755" lon="10.922974831854036"><ele>92.16666666666667</ele><time>2026-04-18T12:36:47.964Z</time></trkpt><trkpt lat="43.6906038127937" lon="10.922964976325755"><ele>93.0</ele><time>2026-04-18T12:36:51.964Z</time></trkpt><trkpt lat="43.690656332155484" lon="10.923019000797751"><ele>93.0</ele><time>2026-04-18T12:36:53.964Z</time></trkpt><trkpt lat="43.69067333354912" lon="10.923183917106124"><ele>93.0</ele><time>2026-04-18T12:37:01.964Z</time></trkpt><trkpt lat="43.69067251166972" lon="10.923299543097912"><ele>93.0</ele><time>2026-04-18T12:37:05.964Z</time></trkpt><trkpt lat="43.690665190243" lon="10.923387547607536"><ele>93.0</ele><time>2026-04-18T12:37:08.964Z</time></trkpt><trkpt lat="43.69066399793824" lon="10.923478798174992"><ele>93.0</ele><time>2026-04-18T12:37:11.964Z</time></trkpt><trkpt lat="43.6906600229401" lon="10.923590636508857"><ele>93.0</ele><time>2026-04-18T12:37:15.964Z</time></trkpt><trkpt lat="43.6906553868117" lon="10.92369021134996"><ele>93.28571428571429</ele><time>2026-04-18T12:37:18.964Z</time></trkpt><trkpt lat="43.6906493404111" lon="10.923793078018385"><ele>93.57142857142857</ele><time>2026-04-18T12:37:21.964Z</time></trkpt><trkpt lat="43.69064322949721" lon="10.923885793560805"><ele>93.85714285714286</ele><time>2026-04-18T12:37:24.964Z</time></trkpt><trkpt lat="43.690641874157784" lon="10.923979678520979"><ele>94.14285714285714</ele><time>2026-04-18T12:37:27.964Z</time></trkpt><trkpt lat="43.690640803492535" lon="10.924085568029763"><ele>94.42857142857143</ele><time>2026-04-18T12:37:30.964Z</time></trkpt><trkpt lat="43.69063719499595" lon="10.924189432876645"><ele>94.71428571428572</ele><time>2026-04-18T12:37:33.964Z</time></trkpt><trkpt lat="43.690631481867946" lon="10.92430014435742"><ele>95.0</ele><time>2026-04-18T12:37:36.964Z</time></trkpt><trkpt lat="43.69062583563618" lon="10.92441153142804"><ele>95.33333333333334</ele><time>2026-04-18T12:37:39.964Z</time></trkpt><trkpt lat="43.690615996451164" lon="10.924525587138998"><ele>95.66666666666667</ele><time>2026-04-18T12:37:42.964Z</time></trkpt><trkpt lat="43.69061898540822" lon="10.924640446192841"><ele>96.0</ele><time>2026-04-18T12:37:45.964Z</time></trkpt><trkpt lat="43.690599513120716" lon="10.924746990708476"><ele>96.33333333333334</ele><time>2026-04-18T12:37:48.964Z</time></trkpt><trkpt lat="43.69059436862445" lon="10.924851048752263"><ele>96.66666666666667</ele><time>2026-04-18T12:37:51.964Z</time></trkpt><trkpt lat="43.690588672907204" lon="10.924955688254892"><ele>97.0</ele><time>2026-04-18T12:37:54.964Z</time></trkpt><trkpt lat="43.69058423340641" lon="10.925056925558259"><ele>98.14285714285714</ele><time>2026-04-18T12:37:57.964Z</time></trkpt><trkpt lat="43.69057951051671" lon="10.925162862682539"><ele>99.28571428571429</ele><time>2026-04-18T12:38:00.964Z</time></trkpt><trkpt lat="43.69057739980396" lon="10.925267550892027"><ele>100.42857142857143</ele><time>2026-04-18T12:38:03.964Z</time></trkpt><trkpt lat="43.69057681577669" lon="10.925374745102413"><ele>101.57142857142857</ele><time>2026-04-18T12:38:06.964Z</time></trkpt><trkpt lat="43.69056950827483" lon="10.925478130788091"><ele>102.71428571428572</ele><time>2026-04-18T12:38:09.964Z</time></trkpt><trkpt lat="43.69056971494081" lon="10.92557619095874"><ele>103.85714285714286</ele><time>2026-04-18T12:38:12.964Z</time></trkpt><trkpt lat="43.69057083217483" lon="10.925673852682507"><ele>105.0</ele><time>2026-04-18T12:38:15.964Z</time></trkpt><trkpt lat="43.6905767821646" lon="10.925765516594389"><ele>105.0</ele><time>2026-04-18T12:38:18.964Z</time></trkpt><trkpt lat="43.69058725095084" lon="10.925869273393888"><ele>105.0</ele><time>2026-04-18T12:38:21.964Z</time></trkpt><trkpt lat="43.69059098603318" lon="10.925974950050652"><ele>105.0</ele><time>2026-04-18T12:38:24.964Z</time></trkpt><trkpt lat="43.690600129368974" lon="10.926085857197783"><ele>105.0</ele><time>2026-04-18T12:38:27.964Z</time></trkpt><trkpt lat="43.69061591320028" lon="10.9261834710306"><ele>105.0</ele><time>2026-04-18T12:38:30.964Z</time></trkpt><trkpt lat="43.69062608125369" lon="10.926288580919053"><ele>105.0</ele><time>2026-04-18T12:38:33.964Z</time></trkpt><trkpt lat="43.69063240814458" lon="10.926388103803912"><ele>105.33333333333333</ele><time>2026-04-18T12:38:36.964Z</time></trkpt><trkpt lat="43.69063775750866" lon="10.926494268653334"><ele>105.66666666666666</ele><time>2026-04-18T12:38:39.964Z</time></trkpt><trkpt lat="43.690637931540984" lon="10.926601490206574"><ele>106.0</ele><time>2026-04-18T12:38:42.964Z</time></trkpt><trkpt lat="43.69064540075581" lon="10.926721821517225"><ele>106.33333333333333</ele><time>2026-04-18T12:38:45.962Z</time></trkpt><trkpt lat="43.69065559414842" lon="10.92684579591619"><ele>106.66666666666666</ele><time>2026-04-18T12:38:48.962Z</time></trkpt><trkpt lat="43.69066116073363" lon="10.92696753852659"><ele>107.0</ele><time>2026-04-18T12:38:51.962Z</time></trkpt><trkpt lat="43.69065400861205" lon="10.927087054661209"><ele>107.33333333333333</ele><time>2026-04-18T12:38:54.962Z</time></trkpt><trkpt lat="43.69064945260559" lon="10.927199449875616"><ele>107.66666666666666</ele><time>2026-04-18T12:38:57.962Z</time></trkpt><trkpt lat="43.690652462372796" lon="10.92731719253792"><ele>108.0</ele><time>2026-04-18T12:39:00.962Z</time></trkpt><trkpt lat="43.690635651928666" lon="10.927402742406128"><ele>108.33333333333334</ele><time>2026-04-18T12:39:02.962Z</time></trkpt><trkpt lat="43.69063829086357" lon="10.927538184997566"><ele>108.66666666666667</ele><time>2026-04-18T12:39:05.962Z</time></trkpt><trkpt lat="43.69062835606607" lon="10.927641064235164"><ele>109.0</ele><time>2026-04-18T12:39:07.962Z</time></trkpt><trkpt lat="43.690621944728704" lon="10.927736206231707"><ele>109.2</ele><time>2026-04-18T12:39:09.962Z</time></trkpt><trkpt lat="43.69060588997085" lon="10.927827487856144"><ele>109.4</ele><time>2026-04-18T12:39:11.962Z</time></trkpt><trkpt lat="43.69060013106033" lon="10.927914841885848"><ele>109.6</ele><time>2026-04-18T12:39:14.962Z</time></trkpt><trkpt lat="43.69078295719448" lon="10.927899331707282"><ele>109.8</ele><time>2026-04-18T12:39:17.962Z</time></trkpt><trkpt lat="43.690846743035316" lon="10.927911762121447"><ele>110.0</ele><time>2026-04-18T12:39:19.962Z</time></trkpt><trkpt lat="43.69091722867786" lon="10.927870882170065"><ele>109.99999999999999</ele><time>2026-04-18T12:39:22.962Z</time></trkpt><trkpt lat="43.69098111271551" lon="10.927847939941936"><ele>110.0</ele><time>2026-04-18T12:39:24.962Z</time></trkpt><trkpt lat="43.69105588199829" lon="10.927810631032946"><ele>110.0</ele><time>2026-04-18T12:39:26.962Z</time></trkpt><trkpt lat="43.69114301101504" lon="10.927772531936467"><ele>110.0</ele><time>2026-04-18T12:39:28.962Z</time></trkpt><trkpt lat="43.69122383576462" lon="10.927709723561868"><ele>109.99999999999999</ele><time>2026-04-18T12:39:30.962Z</time></trkpt><trkpt lat="43.6913250081515" lon="10.92766863413968"><ele>110.0</ele><time>2026-04-18T12:39:32.962Z</time></trkpt><trkpt lat="43.69142434456674" lon="10.92761583262778"><ele>109.8</ele><time>2026-04-18T12:39:34.962Z</time></trkpt><trkpt lat="43.69151865774147" lon="10.927565076916643"><ele>109.6</ele><time>2026-04-18T12:39:36.962Z</time></trkpt><trkpt lat="43.69159612557204" lon="10.927529406793836"><ele>109.4</ele><time>2026-04-18T12:39:38.962Z</time></trkpt><trkpt lat="43.691701377984096" lon="10.927561098395458"><ele>109.2</ele><time>2026-04-18T12:39:40.962Z</time></trkpt><trkpt lat="43.691809611921684" lon="10.927608929124647"><ele>109.0</ele><time>2026-04-18T12:39:42.962Z</time></trkpt><trkpt lat="43.69191799323162" lon="10.927620546630246"><ele>107.33333333333334</ele><time>2026-04-18T12:39:44.962Z</time></trkpt><trkpt lat="43.69200424826082" lon="10.927634629723633"><ele>105.66666666666667</ele><time>2026-04-18T12:39:46.962Z</time></trkpt><trkpt lat="43.69206596610799" lon="10.92768181500372"><ele>104.0</ele><time>2026-04-18T12:39:49.962Z</time></trkpt><trkpt lat="43.69214000333581" lon="10.927755917180388"><ele>102.33333333333334</ele><time>2026-04-18T12:39:51.962Z</time></trkpt><trkpt lat="43.69219018734561" lon="10.927859498074785"><ele>100.66666666666667</ele><time>2026-04-18T12:39:54.962Z</time></trkpt><trkpt lat="43.692220644116205" lon="10.927941582551588"><ele>99.0</ele><time>2026-04-18T12:39:56.962Z</time></trkpt><trkpt lat="43.69224315241651" lon="10.92807138941588"><ele>99.0</ele><time>2026-04-18T12:39:59.962Z</time></trkpt><trkpt lat="43.69229179000309" lon="10.928150158226195"><ele>99.0</ele><time>2026-04-18T12:40:03.962Z</time></trkpt><trkpt lat="43.6923695064726" lon="10.928162616861936"><ele>99.0</ele><time>2026-04-18T12:40:07.962Z</time></trkpt><trkpt lat="43.692439926055805" lon="10.92818774611636"><ele>99.0</ele><time>2026-04-18T12:40:10.962Z</time></trkpt><trkpt lat="43.69251599215913" lon="10.928234440469652"><ele>99.0</ele><time>2026-04-18T12:40:12.962Z</time></trkpt><trkpt lat="43.69259084341997" lon="10.928272703175608"><ele>99.0</ele><time>2026-04-18T12:40:14.962Z</time></trkpt><trkpt lat="43.69267997958005" lon="10.9283112890936"><ele>97.16666666666667</ele><time>2026-04-18T12:40:18.962Z</time></trkpt><trkpt lat="43.69276391837819" lon="10.928332547251195"><ele>95.33333333333333</ele><time>2026-04-18T12:40:20.962Z</time></trkpt><trkpt lat="43.69285551905233" lon="10.928334009215716"><ele>93.5</ele><time>2026-04-18T12:40:23.962Z</time></trkpt><trkpt lat="43.69293549367704" lon="10.928383718055048"><ele>91.66666666666666</ele><time>2026-04-18T12:40:25.962Z</time></trkpt><trkpt lat="43.692986211627385" lon="10.9284580849625"><ele>89.83333333333333</ele><time>2026-04-18T12:40:27.962Z</time></trkpt><trkpt lat="43.69303767015019" lon="10.92853128259164"><ele>88.0</ele><time>2026-04-18T12:40:29.962Z</time></trkpt><trkpt lat="43.69310763723627" lon="10.928587366004201"><ele>87.66666666666666</ele><time>2026-04-18T12:40:31.962Z</time></trkpt><trkpt lat="43.6931699552311" lon="10.928621642252617"><ele>87.33333333333333</ele><time>2026-04-18T12:40:33.962Z</time></trkpt><trkpt lat="43.693258784495335" lon="10.928654937906083"><ele>87.0</ele><time>2026-04-18T12:40:35.962Z</time></trkpt><trkpt lat="43.69332895769736" lon="10.928677151830355"><ele>86.66666666666667</ele><time>2026-04-18T12:40:38.962Z</time></trkpt><trkpt lat="43.69341754858124" lon="10.928647991620394"><ele>86.33333333333334</ele><time>2026-04-18T12:40:41.962Z</time></trkpt><trkpt lat="43.69347484008921" lon="10.928699592130348"><ele>86.0</ele><time>2026-04-18T12:40:43.962Z</time></trkpt><trkpt lat="43.693526280959475" lon="10.928753822005605"><ele>86.0</ele><time>2026-04-18T12:40:45.962Z</time></trkpt><trkpt lat="43.69351195762909" lon="10.928864299608298"><ele>86.0</ele><time>2026-04-18T12:40:48.962Z</time></trkpt><trkpt lat="43.693504540216814" lon="10.928966988115757"><ele>86.0</ele><time>2026-04-18T12:40:51.961Z</time></trkpt><trkpt lat="43.693451347361375" lon="10.929039905194411"><ele>86.0</ele><time>2026-04-18T12:40:54.96Z</time></trkpt><trkpt lat="43.69337883418816" lon="10.929039802888212"><ele>86.0</ele><time>2026-04-18T12:40:56.96Z</time></trkpt><trkpt lat="43.693284470821595" lon="10.929043431765553"><ele>86.0</ele><time>2026-04-18T12:40:59.96Z</time></trkpt><trkpt lat="43.693209415906786" lon="10.929065761296611"><ele>86.0</ele><time>2026-04-18T12:41:01.96Z</time></trkpt><trkpt lat="43.693124066361435" lon="10.929080831546331"><ele>86.0</ele><time>2026-04-18T12:41:03.96Z</time></trkpt><trkpt lat="43.69305760320084" lon="10.929099463786006"><ele>86.0</ele><time>2026-04-18T12:41:05.96Z</time></trkpt><trkpt lat="43.69298588469325" lon="10.9291688357071"><ele>86.0</ele><time>2026-04-18T12:41:08.96Z</time></trkpt><trkpt lat="43.69298365583213" lon="10.929299410129236"><ele>86.0</ele><time>2026-04-18T12:41:11.96Z</time></trkpt><trkpt lat="43.6930241898686" lon="10.929368947288893"><ele>86.0</ele><time>2026-04-18T12:41:13.96Z</time></trkpt><trkpt lat="43.693079758694026" lon="10.929444237848259"><ele>85.83333333333334</ele><time>2026-04-18T12:41:15.96Z</time></trkpt><trkpt lat="43.69312816724324" lon="10.929510017202547"><ele>85.66666666666667</ele><time>2026-04-18T12:41:17.96Z</time></trkpt><trkpt lat="43.69318889144272" lon="10.929597594667381"><ele>85.5</ele><time>2026-04-18T12:41:20.96Z</time></trkpt><trkpt lat="43.693209359338404" lon="10.929684166248776"><ele>85.33333333333333</ele><time>2026-04-18T12:41:22.96Z</time></trkpt><trkpt lat="43.693243906576754" lon="10.929792111966915"><ele>85.16666666666666</ele><time>2026-04-18T12:41:25.96Z</time></trkpt><trkpt lat="43.6932948270655" lon="10.929883699907393"><ele>85.0</ele><time>2026-04-18T12:41:28.96Z</time></trkpt><trkpt lat="43.693340873926694" lon="10.929945265525049"><ele>85.0</ele><time>2026-04-18T12:41:30.96Z</time></trkpt><trkpt lat="43.69338893275786" lon="10.930043580190109"><ele>85.0</ele><time>2026-04-18T12:41:33.96Z</time></trkpt><trkpt lat="43.693476808587796" lon="10.93007357628821"><ele>85.0</ele><time>2026-04-18T12:41:35.96Z</time></trkpt><trkpt lat="43.69355690929708" lon="10.93012737589028"><ele>85.0</ele><time>2026-04-18T12:41:37.96Z</time></trkpt><trkpt lat="43.69362432714137" lon="10.930215448960324"><ele>85.0</ele><time>2026-04-18T12:41:39.96Z</time></trkpt><trkpt lat="43.693686262352706" lon="10.930291287902476"><ele>85.0</ele><time>2026-04-18T12:41:41.96Z</time></trkpt><trkpt lat="43.69369210476695" lon="10.93040927995573"><ele>84.0</ele><time>2026-04-18T12:41:43.96Z</time></trkpt><trkpt lat="43.693654235894314" lon="10.930514940673593"><ele>83.0</ele><time>2026-04-18T12:41:45.96Z</time></trkpt><trkpt lat="43.693651439577025" lon="10.930623523086005"><ele>82.0</ele><time>2026-04-18T12:41:47.96Z</time></trkpt><trkpt lat="43.69368315422168" lon="10.93072914454354"><ele>81.0</ele><time>2026-04-18T12:41:49.96Z</time></trkpt><trkpt lat="43.69372216101243" lon="10.93080830192444"><ele>80.0</ele><time>2026-04-18T12:41:51.96Z</time></trkpt><trkpt lat="43.69378739987448" lon="10.930844888364154"><ele>79.0</ele><time>2026-04-18T12:41:53.96Z</time></trkpt><trkpt lat="43.693856616707734" lon="10.930871664147459"><ele>78.5</ele><time>2026-04-18T12:41:55.96Z</time></trkpt><trkpt lat="43.69387801621987" lon="10.930963504518342"><ele>78.0</ele><time>2026-04-18T12:41:58.96Z</time></trkpt><trkpt lat="43.69381288354901" lon="10.931044253009125"><ele>77.5</ele><time>2026-04-18T12:42:01.96Z</time></trkpt><trkpt lat="43.69376914792511" lon="10.931131913926084"><ele>77.0</ele><time>2026-04-18T12:42:03.96Z</time></trkpt><trkpt lat="43.693720806032296" lon="10.931192785442914"><ele>76.5</ele><time>2026-04-18T12:42:05.96Z</time></trkpt><trkpt lat="43.69366149049425" lon="10.931284940914999"><ele>76.0</ele><time>2026-04-18T12:42:08.96Z</time></trkpt><trkpt lat="43.69363876572763" lon="10.931371202995063"><ele>76.0</ele><time>2026-04-18T12:42:10.96Z</time></trkpt><trkpt lat="43.69361604024144" lon="10.931479047020016"><ele>76.0</ele><time>2026-04-18T12:42:12.96Z</time></trkpt><trkpt lat="43.69358231647175" lon="10.931606247416926"><ele>76.0</ele><time>2026-04-18T12:42:14.96Z</time></trkpt><trkpt lat="43.69359446013412" lon="10.93174070627262"><ele>76.0</ele><time>2026-04-18T12:42:16.96Z</time></trkpt><trkpt lat="43.69356845855587" lon="10.931826849718906"><ele>76.0</ele><time>2026-04-18T12:42:17.96Z</time></trkpt><trkpt lat="43.6935110813016" lon="10.931927708108107"><ele>76.0</ele><time>2026-04-18T12:42:19.96Z</time></trkpt><trkpt lat="43.6934587328296" lon="10.932025605191855"><ele>76.33333333333333</ele><time>2026-04-18T12:42:21.96Z</time></trkpt><trkpt lat="43.69339289847266" lon="10.932092551938226"><ele>76.66666666666666</ele><time>2026-04-18T12:42:23.96Z</time></trkpt><trkpt lat="43.693311015715246" lon="10.932161814472394"><ele>77.0</ele><time>2026-04-18T12:42:25.96Z</time></trkpt><trkpt lat="43.69324936104774" lon="10.932262189924407"><ele>77.33333333333333</ele><time>2026-04-18T12:42:27.96Z</time></trkpt><trkpt lat="43.69317714786613" lon="10.93232748867319"><ele>77.66666666666667</ele><time>2026-04-18T12:42:29.96Z</time></trkpt><trkpt lat="43.69313056746182" lon="10.932398973263535"><ele>78.0</ele><time>2026-04-18T12:42:31.96Z</time></trkpt><trkpt lat="43.693082682301565" lon="10.932508032841438"><ele>77.83333333333333</ele><time>2026-04-18T12:42:34.96Z</time></trkpt><trkpt lat="43.693056810842194" lon="10.932615195604562"><ele>77.66666666666667</ele><time>2026-04-18T12:42:36.96Z</time></trkpt><trkpt lat="43.693041912680094" lon="10.932713337450613"><ele>77.5</ele><time>2026-04-18T12:42:38.96Z</time></trkpt><trkpt lat="43.69305047230683" lon="10.932814186696781"><ele>77.33333333333334</ele><time>2026-04-18T12:42:40.96Z</time></trkpt><trkpt lat="43.69308116745633" lon="10.932910354995515"><ele>77.16666666666667</ele><time>2026-04-18T12:42:42.96Z</time></trkpt><trkpt lat="43.693121417931785" lon="10.932999454613661"><ele>77.0</ele><time>2026-04-18T12:42:44.96Z</time></trkpt><trkpt lat="43.69315279556418" lon="10.93308664884643"><ele>77.0</ele><time>2026-04-18T12:42:46.96Z</time></trkpt><trkpt lat="43.69318683030303" lon="10.93318149034671"><ele>77.0</ele><time>2026-04-18T12:42:48.96Z</time></trkpt><trkpt lat="43.69321857067163" lon="10.933278815059985"><ele>77.0</ele><time>2026-04-18T12:42:50.96Z</time></trkpt><trkpt lat="43.69322148287534" lon="10.93336614323396"><ele>77.0</ele><time>2026-04-18T12:42:52.96Z</time></trkpt><trkpt lat="43.693199846565385" lon="10.933466521459813"><ele>77.0</ele><time>2026-04-18T12:42:54.96Z</time></trkpt><trkpt lat="43.69319002460185" lon="10.933553349984756"><ele>77.0</ele><time>2026-04-18T12:42:56.959Z</time></trkpt><trkpt lat="43.69317428109893" lon="10.933638667971517"><ele>77.0</ele><time>2026-04-18T12:42:58.959Z</time></trkpt><trkpt lat="43.69315953333198" lon="10.933739584757731"><ele>76.5</ele><time>2026-04-18T12:43:00.959Z</time></trkpt><trkpt lat="43.693158855288736" lon="10.933852240264736"><ele>76.0</ele><time>2026-04-18T12:43:02.959Z</time></trkpt><trkpt lat="43.69316960933049" lon="10.933959512677962"><ele>75.5</ele><time>2026-04-18T12:43:04.959Z</time></trkpt><trkpt lat="43.6931970523144" lon="10.934050865233933"><ele>75.0</ele><time>2026-04-18T12:43:06.959Z</time></trkpt><trkpt lat="43.69322404328109" lon="10.934133691695333"><ele>74.5</ele><time>2026-04-18T12:43:08.959Z</time></trkpt><trkpt lat="43.693256137159075" lon="10.934225824728268"><ele>74.0</ele><time>2026-04-18T12:43:11.959Z</time></trkpt><trkpt lat="43.69326850901823" lon="10.934347540528528"><ele>74.0</ele><time>2026-04-18T12:43:15.959Z</time></trkpt><trkpt lat="43.69320370441457" lon="10.934367022852292"><ele>74.0</ele><time>2026-04-18T12:44:22.959Z</time></trkpt><trkpt lat="43.69313384978935" lon="10.934325130548107"><ele>74.0</ele><time>2026-04-18T12:44:26.959Z</time></trkpt><trkpt lat="43.693065576339066" lon="10.934288082738588"><ele>74.0</ele><time>2026-04-18T12:44:30.959Z</time></trkpt><trkpt lat="43.69299135190986" lon="10.934252572046137"><ele>74.0</ele><time>2026-04-18T12:44:34.959Z</time></trkpt><trkpt lat="43.69293184664373" lon="10.934221770122038"><ele>74.0</ele><time>2026-04-18T12:44:37.959Z</time></trkpt><trkpt lat="43.69287116088296" lon="10.934184029947131"><ele>74.0</ele><time>2026-04-18T12:44:40.959Z</time></trkpt><trkpt lat="43.69280858310911" lon="10.934142867139826"><ele>73.83333333333334</ele><time>2026-04-18T12:44:43.959Z</time></trkpt><trkpt lat="43.69274180384255" lon="10.934094496732335"><ele>73.66666666666667</ele><time>2026-04-18T12:44:46.959Z</time></trkpt><trkpt lat="43.69267204973863" lon="10.934048862962584"><ele>73.5</ele><time>2026-04-18T12:44:49.959Z</time></trkpt><trkpt lat="43.692605043734225" lon="10.933999307559075"><ele>73.33333333333333</ele><time>2026-04-18T12:44:52.959Z</time></trkpt><trkpt lat="43.69254382185743" lon="10.933957499388743"><ele>73.16666666666666</ele><time>2026-04-18T12:44:55.959Z</time></trkpt><trkpt lat="43.69247629732472" lon="10.933910372052955"><ele>73.0</ele><time>2026-04-18T12:44:58.959Z</time></trkpt><trkpt lat="43.69239374932411" lon="10.93384383936737"><ele>73.0</ele><time>2026-04-18T12:45:01.957Z</time></trkpt><trkpt lat="43.6923280218609" lon="10.93379053102909"><ele>73.0</ele><time>2026-04-18T12:45:04.957Z</time></trkpt><trkpt lat="43.692277991244296" lon="10.93369579105725"><ele>73.0</ele><time>2026-04-18T12:45:07.957Z</time></trkpt><trkpt lat="43.69221028703241" lon="10.933637054811976"><ele>73.0</ele><time>2026-04-18T12:45:10.957Z</time></trkpt><trkpt lat="43.69214792754351" lon="10.933578544671983"><ele>73.0</ele><time>2026-04-18T12:45:13.957Z</time></trkpt><trkpt lat="43.692078600161835" lon="10.933511115135435"><ele>73.0</ele><time>2026-04-18T12:45:16.957Z</time></trkpt><trkpt lat="43.69200915122499" lon="10.933439823770536"><ele>73.16666666666666</ele><time>2026-04-18T12:45:19.957Z</time></trkpt><trkpt lat="43.691942326739856" lon="10.933367298065253"><ele>73.33333333333333</ele><time>2026-04-18T12:45:22.957Z</time></trkpt><trkpt lat="43.691883124912096" lon="10.933293706023449"><ele>73.5</ele><time>2026-04-18T12:45:25.957Z</time></trkpt><trkpt lat="43.69183728725647" lon="10.933212727414292"><ele>73.66666666666667</ele><time>2026-04-18T12:45:28.957Z</time></trkpt><trkpt lat="43.69180439922426" lon="10.933125015399064"><ele>73.83333333333334</ele><time>2026-04-18T12:45:31.957Z</time></trkpt><trkpt lat="43.69177127122765" lon="10.933026736152415"><ele>74.0</ele><time>2026-04-18T12:45:34.957Z</time></trkpt><trkpt lat="43.691728609477686" lon="10.932937650956276"><ele>74.0</ele><time>2026-04-18T12:45:37.957Z</time></trkpt><trkpt lat="43.691688189282694" lon="10.932863381949096"><ele>74.0</ele><time>2026-04-18T12:45:40.957Z</time></trkpt><trkpt lat="43.691641266631805" lon="10.932772738956993"><ele>74.0</ele><time>2026-04-18T12:45:44.957Z</time></trkpt><trkpt lat="43.6916026125799" lon="10.93269114941355"><ele>74.0</ele><time>2026-04-18T12:45:48.957Z</time></trkpt><trkpt lat="43.69156737513702" lon="10.93261130968428"><ele>74.0</ele><time>2026-04-18T12:45:52.957Z</time></trkpt><trkpt lat="43.69152971306453" lon="10.93252086640195"><ele>74.0</ele><time>2026-04-18T12:45:56.957Z</time></trkpt><trkpt lat="43.691472051592626" lon="10.932478286976243"><ele>74.0</ele><time>2026-04-18T12:45:59.957Z</time></trkpt><trkpt lat="43.69143597794482" lon="10.932389121876927"><ele>75.71428571428572</ele><time>2026-04-18T12:46:03.957Z</time></trkpt><trkpt lat="43.69140393741591" lon="10.932296734272615"><ele>77.42857142857143</ele><time>2026-04-18T12:46:07.957Z</time></trkpt><trkpt lat="43.69136577493271" lon="10.932207899676463"><ele>79.14285714285714</ele><time>2026-04-18T12:46:11.957Z</time></trkpt><trkpt lat="43.69133329861126" lon="10.932116856524567"><ele>80.85714285714286</ele><time>2026-04-18T12:46:15.957Z</time></trkpt><trkpt lat="43.691296735781414" lon="10.932032255436797"><ele>82.57142857142857</ele><time>2026-04-18T12:46:19.957Z</time></trkpt><trkpt lat="43.6912563521893" lon="10.931947431569553"><ele>84.28571428571429</ele><time>2026-04-18T12:46:23.957Z</time></trkpt><trkpt lat="43.69121931995578" lon="10.93185127648029"><ele>86.0</ele><time>2026-04-18T12:46:27.957Z</time></trkpt><trkpt lat="43.69118672647154" lon="10.931758038398973"><ele>86.66666666666667</ele><time>2026-04-18T12:46:31.957Z</time></trkpt><trkpt lat="43.69114668042343" lon="10.931656500455603"><ele>87.33333333333334</ele><time>2026-04-18T12:46:35.957Z</time></trkpt><trkpt lat="43.691119817961145" lon="10.931576284928937"><ele>88.0</ele><time>2026-04-18T12:46:38.957Z</time></trkpt><trkpt lat="43.691080712636975" lon="10.93147515448816"><ele>88.66666666666667</ele><time>2026-04-18T12:46:42.957Z</time></trkpt><trkpt lat="43.691053016383755" lon="10.931374266571725"><ele>89.33333333333333</ele><time>2026-04-18T12:46:46.957Z</time></trkpt><trkpt lat="43.691025215318106" lon="10.931277471196736"><ele>90.0</ele><time>2026-04-18T12:46:50.957Z</time></trkpt><trkpt lat="43.690997161411445" lon="10.931179722512825"><ele>90.0</ele><time>2026-04-18T12:46:54.957Z</time></trkpt><trkpt lat="43.69095795267412" lon="10.931111339125703"><ele>90.0</ele><time>2026-04-18T12:46:57.957Z</time></trkpt><trkpt lat="43.69090574112101" lon="10.931034392665643"><ele>90.0</ele><time>2026-04-18T12:47:01.957Z</time></trkpt><trkpt lat="43.69084848401365" lon="10.930960436025128"><ele>90.0</ele><time>2026-04-18T12:47:05.957Z</time></trkpt><trkpt lat="43.69079680155901" lon="10.930872261584568"><ele>90.0</ele><time>2026-04-18T12:47:09.955Z</time></trkpt><trkpt lat="43.69075575721249" lon="10.930780043131888"><ele>90.0</ele><time>2026-04-18T12:47:13.955Z</time></trkpt><trkpt lat="43.6907279339733" lon="10.930690900469227"><ele>90.0</ele><time>2026-04-18T12:47:16.955Z</time></trkpt><trkpt lat="43.69069211843969" lon="10.930595754706067"><ele>91.8</ele><time>2026-04-18T12:47:19.955Z</time></trkpt><trkpt lat="43.690644619193264" lon="10.930494055533856"><ele>93.6</ele><time>2026-04-18T12:47:23.955Z</time></trkpt><trkpt lat="43.69059179925909" lon="10.930413676138206"><ele>95.4</ele><time>2026-04-18T12:47:26.955Z</time></trkpt><trkpt lat="43.69053073269471" lon="10.930365409816773"><ele>97.2</ele><time>2026-04-18T12:47:28.955Z</time></trkpt><trkpt lat="43.690430141431314" lon="10.930342440534988"><ele>99.0</ele><time>2026-04-18T12:47:30.955Z</time></trkpt><trkpt lat="43.69031612047781" lon="10.930422575409924"><ele>99.0</ele><time>2026-04-18T12:47:32.955Z</time></trkpt><trkpt lat="43.69025907256694" lon="10.930491081712514"><ele>99.0</ele><time>2026-04-18T12:47:33.955Z</time></trkpt><trkpt lat="43.69020439293923" lon="10.93056368121649"><ele>99.0</ele><time>2026-04-18T12:47:34.955Z</time></trkpt><trkpt lat="43.69014736437921" lon="10.930645464222714"><ele>99.0</ele><time>2026-04-18T12:47:35.955Z</time></trkpt><trkpt lat="43.69009405066607" lon="10.930715078735089"><ele>99.0</ele><time>2026-04-18T12:47:36.955Z</time></trkpt><trkpt lat="43.69003587330775" lon="10.930785348076938"><ele>99.0</ele><time>2026-04-18T12:47:37.955Z</time></trkpt><trkpt lat="43.68998122294064" lon="10.930854407271"><ele>98.0</ele><time>2026-04-18T12:47:38.955Z</time></trkpt><trkpt lat="43.689929019107986" lon="10.93091943319498"><ele>97.0</ele><time>2026-04-18T12:47:39.955Z</time></trkpt><trkpt lat="43.68988018796639" lon="10.9309825665896"><ele>96.0</ele><time>2026-04-18T12:47:40.955Z</time></trkpt><trkpt lat="43.6897868368606" lon="10.931093435512485"><ele>95.0</ele><time>2026-04-18T12:47:42.955Z</time></trkpt><trkpt lat="43.68971016707439" lon="10.931186317560732"><ele>94.0</ele><time>2026-04-18T12:47:44.955Z</time></trkpt><trkpt lat="43.6896408048993" lon="10.931267296163055"><ele>94.0</ele><time>2026-04-18T12:47:46.955Z</time></trkpt><trkpt lat="43.689570219749704" lon="10.931351793909982"><ele>94.0</ele><time>2026-04-18T12:47:49.955Z</time></trkpt><trkpt lat="43.689505716329066" lon="10.93143562003347"><ele>94.0</ele><time>2026-04-18T12:47:52.955Z</time></trkpt><trkpt lat="43.68943696973529" lon="10.931516547751283"><ele>94.0</ele><time>2026-04-18T12:47:55.955Z</time></trkpt><trkpt lat="43.689374172765156" lon="10.931593673937162"><ele>94.0</ele><time>2026-04-18T12:47:58.955Z</time></trkpt><trkpt lat="43.68929933642285" lon="10.93166060521807"><ele>94.0</ele><time>2026-04-18T12:48:01.955Z</time></trkpt><trkpt lat="43.689220472105745" lon="10.931714530983403"><ele>93.83333333333333</ele><time>2026-04-18T12:48:04.955Z</time></trkpt><trkpt lat="43.6891320290437" lon="10.931748709957546"><ele>93.66666666666666</ele><time>2026-04-18T12:48:07.955Z</time></trkpt><trkpt lat="43.689043075546834" lon="10.931785971401176"><ele>93.5</ele><time>2026-04-18T12:48:10.955Z</time></trkpt><trkpt lat="43.68896220052682" lon="10.931819319007701"><ele>93.33333333333333</ele><time>2026-04-18T12:48:13.955Z</time></trkpt><trkpt lat="43.68890061996463" lon="10.931845336395032"><ele>93.16666666666667</ele><time>2026-04-18T12:48:15.955Z</time></trkpt><trkpt lat="43.688811007532834" lon="10.93187505256105"><ele>93.0</ele><time>2026-04-18T12:48:18.955Z</time></trkpt><trkpt lat="43.688724052358" lon="10.93191308468499"><ele>93.0</ele><time>2026-04-18T12:48:21.955Z</time></trkpt><trkpt lat="43.688638323683" lon="10.931949910000052"><ele>93.0</ele><time>2026-04-18T12:48:24.955Z</time></trkpt><trkpt lat="43.68855776120888" lon="10.931983854483109"><ele>93.0</ele><time>2026-04-18T12:48:27.955Z</time></trkpt><trkpt lat="43.68847230159058" lon="10.932019986081807"><ele>93.0</ele><time>2026-04-18T12:48:30.955Z</time></trkpt><trkpt lat="43.688392543275995" lon="10.932057612850043"><ele>93.0</ele><time>2026-04-18T12:48:33.955Z</time></trkpt><trkpt lat="43.68830575476349" lon="10.932091688046476"><ele>93.0</ele><time>2026-04-18T12:48:36.955Z</time></trkpt><trkpt lat="43.68822179492618" lon="10.932128080806779"><ele>94.57142857142858</ele><time>2026-04-18T12:48:39.955Z</time></trkpt><trkpt lat="43.688146806692004" lon="10.932157843940926"><ele>96.14285714285714</ele><time>2026-04-18T12:48:42.955Z</time></trkpt><trkpt lat="43.688077534562396" lon="10.932188954527293"><ele>97.71428571428572</ele><time>2026-04-18T12:48:45.955Z</time></trkpt><trkpt lat="43.688004632186406" lon="10.93221479675612"><ele>99.28571428571429</ele><time>2026-04-18T12:48:48.955Z</time></trkpt><trkpt lat="43.68793297928012" lon="10.932238412181146"><ele>100.85714285714286</ele><time>2026-04-18T12:48:51.955Z</time></trkpt><trkpt lat="43.6878646458545" lon="10.93226683953823"><ele>102.42857142857143</ele><time>2026-04-18T12:48:54.955Z</time></trkpt><trkpt lat="43.68778735885506" lon="10.932276704020124"><ele>104.0</ele><time>2026-04-18T12:48:57.955Z</time></trkpt><trkpt lat="43.68772766286134" lon="10.932322218479312"><ele>104.14285714285714</ele><time>2026-04-18T12:49:00.955Z</time></trkpt><trkpt lat="43.687654924982816" lon="10.932331780617787"><ele>104.28571428571429</ele><time>2026-04-18T12:49:03.955Z</time></trkpt><trkpt lat="43.687587426165194" lon="10.9323622464331"><ele>104.42857142857143</ele><time>2026-04-18T12:49:06.955Z</time></trkpt><trkpt lat="43.68752561039333" lon="10.932410698599247"><ele>104.57142857142857</ele><time>2026-04-18T12:49:09.955Z</time></trkpt><trkpt lat="43.68745435730977" lon="10.932436517663342"><ele>104.71428571428572</ele><time>2026-04-18T12:49:12.954Z</time></trkpt><trkpt lat="43.687392104818024" lon="10.932454468392667"><ele>104.85714285714286</ele><time>2026-04-18T12:49:14.954Z</time></trkpt><trkpt lat="43.68732062690484" lon="10.93247354058052"><ele>105.0</ele><time>2026-04-18T12:49:16.954Z</time></trkpt><trkpt lat="43.68724572099609" lon="10.932491589025611"><ele>105.0</ele><time>2026-04-18T12:49:18.954Z</time></trkpt><trkpt lat="43.68716757777015" lon="10.93248497506897"><ele>105.0</ele><time>2026-04-18T12:49:20.954Z</time></trkpt><trkpt lat="43.687098859859404" lon="10.932488889311381"><ele>105.0</ele><time>2026-04-18T12:49:22.953Z</time></trkpt><trkpt lat="43.68703372885613" lon="10.93251131055113"><ele>105.0</ele><time>2026-04-18T12:49:24.953Z</time></trkpt><trkpt lat="43.68696678889021" lon="10.932488253811675"><ele>105.0</ele><time>2026-04-18T12:49:26.953Z</time></trkpt><trkpt lat="43.68690108115143" lon="10.932482290808764"><ele>105.0</ele><time>2026-04-18T12:49:28.953Z</time></trkpt><trkpt lat="43.68680708569014" lon="10.932458612954502"><ele>105.0</ele><time>2026-04-18T12:49:31.953Z</time></trkpt><trkpt lat="43.68674547981048" lon="10.932419351260796"><ele>104.85714285714286</ele><time>2026-04-18T12:49:33.953Z</time></trkpt><trkpt lat="43.68669312514632" lon="10.932357704401642"><ele>104.71428571428572</ele><time>2026-04-18T12:49:35.953Z</time></trkpt><trkpt lat="43.68663960297785" lon="10.932286629472848"><ele>104.57142857142857</ele><time>2026-04-18T12:49:37.953Z</time></trkpt><trkpt lat="43.686586387070435" lon="10.93221877382592"><ele>104.42857142857143</ele><time>2026-04-18T12:49:39.953Z</time></trkpt><trkpt lat="43.68653368190518" lon="10.932151569461707"><ele>104.28571428571429</ele><time>2026-04-18T12:49:41.953Z</time></trkpt><trkpt lat="43.686481993680296" lon="10.932084798908809"><ele>104.14285714285714</ele><time>2026-04-18T12:49:43.953Z</time></trkpt><trkpt lat="43.686427372786184" lon="10.932013531284404"><ele>104.0</ele><time>2026-04-18T12:49:45.953Z</time></trkpt><trkpt lat="43.68637318347109" lon="10.931942826812318"><ele>104.0</ele><time>2026-04-18T12:49:47.953Z</time></trkpt><trkpt lat="43.686318411753284" lon="10.931871362440507"><ele>104.0</ele><time>2026-04-18T12:49:49.953Z</time></trkpt><trkpt lat="43.68626476872648" lon="10.931801370734485"><ele>104.0</ele><time>2026-04-18T12:49:51.953Z</time></trkpt><trkpt lat="43.68621380380984" lon="10.931734873338005"><ele>104.0</ele><time>2026-04-18T12:49:53.953Z</time></trkpt><trkpt lat="43.686164583935465" lon="10.93167217330274"><ele>104.0</ele><time>2026-04-18T12:49:55.953Z</time></trkpt><trkpt lat="43.68611311814028" lon="10.931607192232226"><ele>104.0</ele><time>2026-04-18T12:49:57.953Z</time></trkpt><trkpt lat="43.68606395593507" lon="10.931545119673828"><ele>104.0</ele><time>2026-04-18T12:49:59.953Z</time></trkpt><trkpt lat="43.68601477441053" lon="10.931483022730642"><ele>104.99999999999999</ele><time>2026-04-18T12:50:01.953Z</time></trkpt><trkpt lat="43.68594502081084" lon="10.931394951322979"><ele>106.0</ele><time>2026-04-18T12:50:04.953Z</time></trkpt><trkpt lat="43.68588552282141" lon="10.931317332846952"><ele>107.0</ele><time>2026-04-18T12:50:07.953Z</time></trkpt><trkpt lat="43.685821188936266" lon="10.931340961120043"><ele>108.0</ele><time>2026-04-18T12:50:08.953Z</time></trkpt><trkpt lat="43.68573894500258" lon="10.931333488318707"><ele>108.99999999999999</ele><time>2026-04-18T12:50:11.953Z</time></trkpt><trkpt lat="43.68566965631087" lon="10.9312822556844"><ele>110.0</ele><time>2026-04-18T12:50:14.953Z</time></trkpt><trkpt lat="43.6855929623894" lon="10.931251623724053"><ele>109.99999999999999</ele><time>2026-04-18T12:50:17.953Z</time></trkpt><trkpt lat="43.6855132755044" lon="10.931229349160375"><ele>110.0</ele><time>2026-04-18T12:50:20.953Z</time></trkpt><trkpt lat="43.68545008956" lon="10.931245785779353"><ele>110.0</ele><time>2026-04-18T12:50:22.953Z</time></trkpt><trkpt lat="43.68541307441852" lon="10.931331511256923"><ele>110.0</ele><time>2026-04-18T12:50:24.953Z</time></trkpt><trkpt lat="43.685367936456586" lon="10.931437507359949"><ele>109.99999999999999</ele><time>2026-04-18T12:50:27.953Z</time></trkpt><trkpt lat="43.68533261003391" lon="10.93153089847565"><ele>110.0</ele><time>2026-04-18T12:50:30.953Z</time></trkpt><trkpt lat="43.68529966411229" lon="10.931622086617507"><ele>109.99999999999999</ele><time>2026-04-18T12:50:33.953Z</time></trkpt><trkpt lat="43.68527386270789" lon="10.931709828200727"><ele>110.0</ele><time>2026-04-18T12:50:36.953Z</time></trkpt><trkpt lat="43.68524302252607" lon="10.931798000649998"><ele>110.0</ele><time>2026-04-18T12:50:39.953Z</time></trkpt><trkpt lat="43.68521061278683" lon="10.931884551465677"><ele>110.0</ele><time>2026-04-18T12:50:42.953Z</time></trkpt><trkpt lat="43.68517934502129" lon="10.931970835680271"><ele>110.0</ele><time>2026-04-18T12:50:45.953Z</time></trkpt><trkpt lat="43.68514915740963" lon="10.932057328069355"><ele>109.99999999999999</ele><time>2026-04-18T12:50:48.953Z</time></trkpt><trkpt lat="43.685114198386444" lon="10.932133072203532"><ele>110.0</ele><time>2026-04-18T12:50:51.953Z</time></trkpt><trkpt lat="43.68509054525134" lon="10.932215545228969"><ele>112.99999999999999</ele><time>2026-04-18T12:50:54.953Z</time></trkpt><trkpt lat="43.68509578455927" lon="10.932304487421556"><ele>116.0</ele><time>2026-04-18T12:50:57.953Z</time></trkpt><trkpt lat="43.685110254294145" lon="10.932399004627365"><ele>119.0</ele><time>2026-04-18T12:51:00.953Z</time></trkpt><trkpt lat="43.68512366809746" lon="10.932501543257812"><ele>122.0</ele><time>2026-04-18T12:51:03.953Z</time></trkpt><trkpt lat="43.68514964612992" lon="10.932620028630488"><ele>124.99999999999999</ele><time>2026-04-18T12:51:06.953Z</time></trkpt><trkpt lat="43.68517094935142" lon="10.932735137736056"><ele>128.0</ele><time>2026-04-18T12:51:09.953Z</time></trkpt><trkpt lat="43.6851955704894" lon="10.932857033284623"><ele>128.5</ele><time>2026-04-18T12:51:12.953Z</time></trkpt><trkpt lat="43.6852144905832" lon="10.932952223665687"><ele>129.0</ele><time>2026-04-18T12:51:15.953Z</time></trkpt><trkpt lat="43.6852377684229" lon="10.933047272108647"><ele>129.5</ele><time>2026-04-18T12:51:18.952Z</time></trkpt><trkpt lat="43.68525845776518" lon="10.933151086404921"><ele>130.0</ele><time>2026-04-18T12:51:21.952Z</time></trkpt><trkpt lat="43.68527999910883" lon="10.933262683773536"><ele>130.5</ele><time>2026-04-18T12:51:24.952Z</time></trkpt><trkpt lat="43.685299703521785" lon="10.93337906153078"><ele>131.0</ele><time>2026-04-18T12:51:27.952Z</time></trkpt><trkpt lat="43.68531513255234" lon="10.933466843220458"><ele>128.33333333333331</ele><time>2026-04-18T12:51:29.952Z</time></trkpt><trkpt lat="43.685334620648206" lon="10.933574806800637"><ele>125.66666666666666</ele><time>2026-04-18T12:51:31.952Z</time></trkpt><trkpt lat="43.68535022581034" lon="10.933684553782273"><ele>123.0</ele><time>2026-04-18T12:51:33.952Z</time></trkpt><trkpt lat="43.685375597943384" lon="10.933807857820872"><ele>120.33333333333334</ele><time>2026-04-18T12:51:35.952Z</time></trkpt><trkpt lat="43.68540191466486" lon="10.933930344584631"><ele>117.66666666666667</ele><time>2026-04-18T12:51:37.952Z</time></trkpt><trkpt lat="43.68542340808258" lon="10.934037435531748"><ele>115.0</ele><time>2026-04-18T12:51:39.952Z</time></trkpt><trkpt lat="43.68542540353305" lon="10.934148241553748"><ele>115.0</ele><time>2026-04-18T12:51:41.952Z</time></trkpt><trkpt lat="43.68537952090197" lon="10.934251713510648"><ele>115.0</ele><time>2026-04-18T12:51:43.952Z</time></trkpt><trkpt lat="43.68530775642009" lon="10.934341049361823"><ele>115.0</ele><time>2026-04-18T12:51:45.952Z</time></trkpt><trkpt lat="43.6852330974236" lon="10.934432665190327"><ele>115.0</ele><time>2026-04-18T12:51:47.952Z</time></trkpt><trkpt lat="43.68516409281838" lon="10.934529386273677"><ele>115.0</ele><time>2026-04-18T12:51:49.952Z</time></trkpt><trkpt lat="43.685089229083815" lon="10.93461514451628"><ele>115.0</ele><time>2026-04-18T12:51:51.952Z</time></trkpt><trkpt lat="43.685029021951735" lon="10.934703653828718"><ele>115.0</ele><time>2026-04-18T12:51:53.952Z</time></trkpt><trkpt lat="43.684968118127856" lon="10.934780612481882"><ele>115.0</ele><time>2026-04-18T12:51:55.952Z</time></trkpt><trkpt lat="43.684902708087215" lon="10.93487586323067"><ele>115.0</ele><time>2026-04-18T12:51:57.952Z</time></trkpt><trkpt lat="43.684825336424176" lon="10.934979692210419"><ele>115.0</ele><time>2026-04-18T12:51:59.952Z</time></trkpt><trkpt lat="43.68474667248319" lon="10.935079278266542"><ele>114.0</ele><time>2026-04-18T12:52:01.952Z</time></trkpt><trkpt lat="43.68469375376597" lon="10.935126841166367"><ele>113.0</ele><time>2026-04-18T12:52:02.952Z</time></trkpt><trkpt lat="43.68461684472689" lon="10.935258173639856"><ele>112.0</ele><time>2026-04-18T12:52:04.952Z</time></trkpt><trkpt lat="43.68452772227125" lon="10.935376696798581"><ele>111.0</ele><time>2026-04-18T12:52:06.952Z</time></trkpt><trkpt lat="43.684446478558975" lon="10.935488687710915"><ele>110.0</ele><time>2026-04-18T12:52:08.952Z</time></trkpt><trkpt lat="43.68436821493009" lon="10.93558765161381"><ele>109.99999999999999</ele><time>2026-04-18T12:52:10.952Z</time></trkpt><trkpt lat="43.68429646424541" lon="10.935681919657368"><ele>110.0</ele><time>2026-04-18T12:52:12.952Z</time></trkpt><trkpt lat="43.684226265851805" lon="10.935779870514923"><ele>110.0</ele><time>2026-04-18T12:52:14.952Z</time></trkpt><trkpt lat="43.684156966419174" lon="10.935889818049999"><ele>110.0</ele><time>2026-04-18T12:52:16.952Z</time></trkpt><trkpt lat="43.684111718582244" lon="10.935959464254442"><ele>109.99999999999999</ele><time>2026-04-18T12:52:17.952Z</time></trkpt><trkpt lat="43.68406568221105" lon="10.93602292217381"><ele>110.0</ele><time>2026-04-18T12:52:18.952Z</time></trkpt><trkpt lat="43.68402338542745" lon="10.936095479962441"><ele>109.99999999999999</ele><time>2026-04-18T12:52:19.952Z</time></trkpt><trkpt lat="43.68397434225356" lon="10.936166590961525"><ele>110.0</ele><time>2026-04-18T12:52:20.952Z</time></trkpt><trkpt lat="43.68392229086859" lon="10.936236421004002"><ele>110.0</ele><time>2026-04-18T12:52:21.952Z</time></trkpt><trkpt lat="43.68387070281531" lon="10.936307525271307"><ele>110.0</ele><time>2026-04-18T12:52:22.952Z</time></trkpt><trkpt lat="43.68382082229726" lon="10.93638385171124"><ele>110.0</ele><time>2026-04-18T12:52:23.952Z</time></trkpt><trkpt lat="43.68376980513377" lon="10.936458851512782"><ele>109.99999999999999</ele><time>2026-04-18T12:52:24.952Z</time></trkpt><trkpt lat="43.68371767855774" lon="10.936536532408216"><ele>110.0</ele><time>2026-04-18T12:52:25.952Z</time></trkpt><trkpt lat="43.683663270041414" lon="10.936615284324983"><ele>109.99999999999999</ele><time>2026-04-18T12:52:26.952Z</time></trkpt><trkpt lat="43.68360895691115" lon="10.936691892457034"><ele>110.0</ele><time>2026-04-18T12:52:27.952Z</time></trkpt><trkpt lat="43.68355520282314" lon="10.936766319813973"><ele>110.0</ele><time>2026-04-18T12:52:28.952Z</time></trkpt><trkpt lat="43.68349879569115" lon="10.936839895930618"><ele>110.0</ele><time>2026-04-18T12:52:29.952Z</time></trkpt><trkpt lat="43.68344604854443" lon="10.9369152923654"><ele>109.99999999999999</ele><time>2026-04-18T12:52:30.952Z</time></trkpt><trkpt lat="43.68338906566128" lon="10.93698536050651"><ele>110.0</ele><time>2026-04-18T12:52:31.952Z</time></trkpt><trkpt lat="43.68333556718493" lon="10.937057117951788"><ele>109.42857142857142</ele><time>2026-04-18T12:52:32.952Z</time></trkpt><trkpt lat="43.68328246164599" lon="10.937125994743063"><ele>108.85714285714286</ele><time>2026-04-18T12:52:33.952Z</time></trkpt><trkpt lat="43.683227002845925" lon="10.937191886220335"><ele>108.28571428571428</ele><time>2026-04-18T12:52:34.952Z</time></trkpt><trkpt lat="43.68317399174675" lon="10.937255230792877"><ele>107.71428571428571</ele><time>2026-04-18T12:52:35.952Z</time></trkpt><trkpt lat="43.683123819847665" lon="10.937321657085423"><ele>107.14285714285714</ele><time>2026-04-18T12:52:36.952Z</time></trkpt><trkpt lat="43.683074389950725" lon="10.937389779678975"><ele>106.57142857142857</ele><time>2026-04-18T12:52:37.952Z</time></trkpt><trkpt lat="43.683022245663" lon="10.937450962630207"><ele>106.0</ele><time>2026-04-18T12:52:38.952Z</time></trkpt><trkpt lat="43.68297028304655" lon="10.937510769449984"><ele>105.66666666666667</ele><time>2026-04-18T12:52:39.952Z</time></trkpt><trkpt lat="43.68291772688562" lon="10.937569093170016"><ele>105.33333333333334</ele><time>2026-04-18T12:52:40.952Z</time></trkpt><trkpt lat="43.68285897567241" lon="10.937613733101932"><ele>105.0</ele><time>2026-04-18T12:52:41.952Z</time></trkpt><trkpt lat="43.68280455109272" lon="10.937664608217647"><ele>104.66666666666666</ele><time>2026-04-18T12:52:42.952Z</time></trkpt><trkpt lat="43.68274908619972" lon="10.937710731663653"><ele>104.33333333333333</ele><time>2026-04-18T12:52:43.952Z</time></trkpt><trkpt lat="43.68264511467058" lon="10.937800460487326"><ele>104.0</ele><time>2026-04-18T12:52:45.952Z</time></trkpt><trkpt lat="43.68254832248618" lon="10.93787972650682"><ele>104.0</ele><time>2026-04-18T12:52:47.952Z</time></trkpt><trkpt lat="43.6824649890987" lon="10.937961969955976"><ele>104.0</ele><time>2026-04-18T12:52:49.952Z</time></trkpt><trkpt lat="43.6823898668032" lon="10.938035740970054"><ele>104.0</ele><time>2026-04-18T12:52:51.952Z</time></trkpt><trkpt lat="43.68232042768844" lon="10.938117466096664"><ele>104.0</ele><time>2026-04-18T12:52:53.952Z</time></trkpt><trkpt lat="43.68225101825044" lon="10.938203709656172"><ele>104.0</ele><time>2026-04-18T12:52:55.952Z</time></trkpt><trkpt lat="43.68217833600905" lon="10.93828588238972"><ele>104.0</ele><time>2026-04-18T12:52:57.952Z</time></trkpt><trkpt lat="43.68210728328566" lon="10.938372608669605"><ele>104.0</ele><time>2026-04-18T12:52:59.952Z</time></trkpt><trkpt lat="43.68203443653889" lon="10.938455810691496"><ele>104.0</ele><time>2026-04-18T12:53:01.952Z</time></trkpt><trkpt lat="43.68196622972329" lon="10.938548291395422"><ele>104.0</ele><time>2026-04-18T12:53:03.952Z</time></trkpt><trkpt lat="43.68190152727446" lon="10.938633355853003"><ele>104.0</ele><time>2026-04-18T12:53:05.952Z</time></trkpt><trkpt lat="43.68183863923866" lon="10.938718044471909"><ele>104.33333333333333</ele><time>2026-04-18T12:53:07.952Z</time></trkpt><trkpt lat="43.6817775203337" lon="10.938797273917466"><ele>104.66666666666666</ele><time>2026-04-18T12:53:09.952Z</time></trkpt><trkpt lat="43.68172140656397" lon="10.938880267472605"><ele>105.0</ele><time>2026-04-18T12:53:11.952Z</time></trkpt><trkpt lat="43.681669185999155" lon="10.93896344332084"><ele>105.33333333333334</ele><time>2026-04-18T12:53:13.952Z</time></trkpt><trkpt lat="43.68162217565366" lon="10.939063827344032"><ele>105.66666666666667</ele><time>2026-04-18T12:53:15.952Z</time></trkpt><trkpt lat="43.681574351723356" lon="10.939166794491126"><ele>106.0</ele><time>2026-04-18T12:53:17.952Z</time></trkpt><trkpt lat="43.68152305825174" lon="10.9392653543587"><ele>107.00000000000001</ele><time>2026-04-18T12:53:19.952Z</time></trkpt><trkpt lat="43.681479871339135" lon="10.93936870661521"><ele>108.0</ele><time>2026-04-18T12:53:21.952Z</time></trkpt><trkpt lat="43.68145503328566" lon="10.939482255850894"><ele>109.0</ele><time>2026-04-18T12:53:23.952Z</time></trkpt><trkpt lat="43.68143775386192" lon="10.939593022645498"><ele>110.0</ele><time>2026-04-18T12:53:25.95Z</time></trkpt><trkpt lat="43.681435763764476" lon="10.939704850073994"><ele>111.00000000000001</ele><time>2026-04-18T12:53:27.95Z</time></trkpt><trkpt lat="43.68145134254686" lon="10.939807388810838"><ele>112.0</ele><time>2026-04-18T12:53:29.95Z</time></trkpt><trkpt lat="43.68146398032925" lon="10.939905174950603"><ele>112.0</ele><time>2026-04-18T12:53:31.95Z</time></trkpt><trkpt lat="43.68148741664033" lon="10.939994965462104"><ele>112.0</ele><time>2026-04-18T12:53:33.95Z</time></trkpt><trkpt lat="43.68151146806655" lon="10.94008075682505"><ele>112.0</ele><time>2026-04-18T12:53:35.95Z</time></trkpt><trkpt lat="43.681535865878644" lon="10.940174213739315"><ele>112.0</ele><time>2026-04-18T12:53:38.95Z</time></trkpt><trkpt lat="43.68155542109631" lon="10.940272362757915"><ele>112.0</ele><time>2026-04-18T12:53:42.95Z</time></trkpt><trkpt lat="43.68157811422049" lon="10.940366135328052"><ele>112.0</ele><time>2026-04-18T12:53:46.95Z</time></trkpt><trkpt lat="43.68161811877091" lon="10.940464714326701"><ele>112.0</ele><time>2026-04-18T12:53:50.95Z</time></trkpt><trkpt lat="43.68163717757431" lon="10.940563530655105"><ele>112.85714285714286</ele><time>2026-04-18T12:53:54.95Z</time></trkpt><trkpt lat="43.68167833302197" lon="10.94064305455181"><ele>113.71428571428572</ele><time>2026-04-18T12:54:22.95Z</time></trkpt><trkpt lat="43.681719812253796" lon="10.940718408248589"><ele>114.57142857142857</ele><time>2026-04-18T12:54:25.95Z</time></trkpt><trkpt lat="43.68174450106996" lon="10.940808607844387"><ele>115.42857142857143</ele><time>2026-04-18T12:54:28.95Z</time></trkpt><trkpt lat="43.68175863014627" lon="10.940895958776936"><ele>116.28571428571429</ele><time>2026-04-18T12:54:31.95Z</time></trkpt><trkpt lat="43.6817826041455" lon="10.940986803164952"><ele>117.14285714285714</ele><time>2026-04-18T12:54:34.95Z</time></trkpt><trkpt lat="43.681803150266454" lon="10.941090792379558"><ele>118.0</ele><time>2026-04-18T12:54:37.95Z</time></trkpt><trkpt lat="43.68183283218557" lon="10.941198673054396"><ele>118.33333333333334</ele><time>2026-04-18T12:54:40.95Z</time></trkpt><trkpt lat="43.681857440504594" lon="10.941311760092864"><ele>118.66666666666667</ele><time>2026-04-18T12:54:43.95Z</time></trkpt><trkpt lat="43.68188864430538" lon="10.94141469331852"><ele>119.0</ele><time>2026-04-18T12:54:46.95Z</time></trkpt><trkpt lat="43.68192133118859" lon="10.941509306070337"><ele>119.33333333333334</ele><time>2026-04-18T12:54:49.95Z</time></trkpt><trkpt lat="43.68196788760658" lon="10.941601586119754"><ele>119.66666666666667</ele><time>2026-04-18T12:54:52.95Z</time></trkpt><trkpt lat="43.6820299366342" lon="10.941659501292778"><ele>120.0</ele><time>2026-04-18T12:54:55.95Z</time></trkpt><trkpt lat="43.68209758671887" lon="10.941671187864776"><ele>120.42857142857143</ele><time>2026-04-18T12:54:58.95Z</time></trkpt><trkpt lat="43.68216227629856" lon="10.941661956798741"><ele>120.85714285714286</ele><time>2026-04-18T12:55:01.95Z</time></trkpt><trkpt lat="43.682224626958224" lon="10.941631093142256"><ele>121.28571428571429</ele><time>2026-04-18T12:55:05.95Z</time></trkpt><trkpt lat="43.682149630147904" lon="10.941648103301192"><ele>121.71428571428572</ele><time>2026-04-18T12:56:59.948Z</time></trkpt><trkpt lat="43.6822084675667" lon="10.941691865911027"><ele>122.14285714285714</ele><time>2026-04-18T12:57:05.948Z</time></trkpt><trkpt lat="43.68226540057166" lon="10.941639459146966"><ele>122.57142857142858</ele><time>2026-04-18T12:57:09.948Z</time></trkpt><trkpt lat="43.68234459254608" lon="10.941657297398063"><ele>123.00000000000001</ele><time>2026-04-18T12:57:13.948Z</time></trkpt><trkpt lat="43.68242690835488" lon="10.941656176841212"><ele>123.0</ele><time>2026-04-18T12:57:17.948Z</time></trkpt><trkpt lat="43.68250699948395" lon="10.941645492942731"><ele>123.0</ele><time>2026-04-18T12:57:21.948Z</time></trkpt><trkpt lat="43.682583642236864" lon="10.94166173763044"><ele>123.0</ele><time>2026-04-18T12:57:25.948Z</time></trkpt><trkpt lat="43.68264706375876" lon="10.941677647011744"><ele>123.0</ele><time>2026-04-18T12:57:28.948Z</time></trkpt><trkpt lat="43.682704855222894" lon="10.941737743270327"><ele>123.0</ele><time>2026-04-18T12:57:31.948Z</time></trkpt><trkpt lat="43.68275962114148" lon="10.941824546895337"><ele>123.0</ele><time>2026-04-18T12:57:34.948Z</time></trkpt><trkpt lat="43.682807032294264" lon="10.941932267867033"><ele>121.83333333333333</ele><time>2026-04-18T12:57:37.947Z</time></trkpt><trkpt lat="43.682826721527086" lon="10.94204292643534"><ele>120.66666666666666</ele><time>2026-04-18T12:57:40.947Z</time></trkpt><trkpt lat="43.682842697574856" lon="10.942152922904638"><ele>119.5</ele><time>2026-04-18T12:57:43.947Z</time></trkpt><trkpt lat="43.68286915835754" lon="10.942258367393107"><ele>118.33333333333333</ele><time>2026-04-18T12:57:46.947Z</time></trkpt><trkpt lat="43.68289296964542" lon="10.942367140311253"><ele>117.16666666666666</ele><time>2026-04-18T12:57:49.947Z</time></trkpt><trkpt lat="43.6829051754306" lon="10.942480680851387"><ele>116.0</ele><time>2026-04-18T12:57:52.947Z</time></trkpt><trkpt lat="43.68291478951379" lon="10.942588632018593"><ele>115.99999999999999</ele><time>2026-04-18T12:57:55.947Z</time></trkpt><trkpt lat="43.6829066230478" lon="10.94269123723555"><ele>116.0</ele><time>2026-04-18T12:57:58.947Z</time></trkpt><trkpt lat="43.682871118410866" lon="10.942796489739248"><ele>116.0</ele><time>2026-04-18T12:58:01.947Z</time></trkpt><trkpt lat="43.68282265984932" lon="10.942896178329136"><ele>116.0</ele><time>2026-04-18T12:58:04.947Z</time></trkpt><trkpt lat="43.6827827598411" lon="10.942995947252832"><ele>115.99999999999999</ele><time>2026-04-18T12:58:07.947Z</time></trkpt><trkpt lat="43.682743969666404" lon="10.943099473019247"><ele>116.0</ele><time>2026-04-18T12:58:10.947Z</time></trkpt><trkpt lat="43.68270549508522" lon="10.943203776653162"><ele>117.2857142857143</ele><time>2026-04-18T12:58:13.947Z</time></trkpt><trkpt lat="43.68266470117827" lon="10.943303602136806"><ele>118.57142857142858</ele><time>2026-04-18T12:58:16.947Z</time></trkpt><trkpt lat="43.6826297679285" lon="10.943390614677904"><ele>119.85714285714286</ele><time>2026-04-18T12:58:19.947Z</time></trkpt><trkpt lat="43.68259407935487" lon="10.943473111741618"><ele>121.14285714285715</ele><time>2026-04-18T12:58:22.947Z</time></trkpt><trkpt lat="43.68256760512539" lon="10.943555266514112"><ele>122.42857142857144</ele><time>2026-04-18T12:58:25.947Z</time></trkpt><trkpt lat="43.68255443583385" lon="10.943654021398515"><ele>123.71428571428571</ele><time>2026-04-18T12:58:28.947Z</time></trkpt><trkpt lat="43.68254287486797" lon="10.943751483956815"><ele>125.0</ele><time>2026-04-18T12:58:31.947Z</time></trkpt><trkpt lat="43.68258717109508" lon="10.943830056885034"><ele>124.99999999999999</ele><time>2026-04-18T12:58:34.947Z</time></trkpt><trkpt lat="43.6826672423417" lon="10.943897253060438"><ele>125.0</ele><time>2026-04-18T12:58:37.947Z</time></trkpt><trkpt lat="43.68273445818243" lon="10.943948231466223"><ele>125.0</ele><time>2026-04-18T12:58:39.947Z</time></trkpt><trkpt lat="43.68278704833353" lon="10.944016901318143"><ele>125.0</ele><time>2026-04-18T12:58:41.947Z</time></trkpt><trkpt lat="43.68285435588856" lon="10.944079324097432"><ele>124.99999999999999</ele><time>2026-04-18T12:58:43.947Z</time></trkpt><trkpt lat="43.682919258533154" lon="10.944171269423073"><ele>125.0</ele><time>2026-04-18T12:58:45.947Z</time></trkpt><trkpt lat="43.6829979207788" lon="10.944257619707999"><ele>125.6</ele><time>2026-04-18T12:58:47.947Z</time></trkpt><trkpt lat="43.68306804676446" lon="10.944361127865966"><ele>126.2</ele><time>2026-04-18T12:58:49.947Z</time></trkpt><trkpt lat="43.68313896306939" lon="10.94445528627912"><ele>126.80000000000001</ele><time>2026-04-18T12:58:51.947Z</time></trkpt><trkpt lat="43.683206607448355" lon="10.944553128956958"><ele>127.4</ele><time>2026-04-18T12:58:53.947Z</time></trkpt><trkpt lat="43.683271651943365" lon="10.944642904104178"><ele>128.0</ele><time>2026-04-18T12:58:55.947Z</time></trkpt><trkpt lat="43.68333720807365" lon="10.944743072359731"><ele>128.0</ele><time>2026-04-18T12:58:57.947Z</time></trkpt><trkpt lat="43.68339887193555" lon="10.944839573758799"><ele>128.0</ele><time>2026-04-18T12:58:59.947Z</time></trkpt><trkpt lat="43.68345820648972" lon="10.944933320916832"><ele>128.0</ele><time>2026-04-18T12:59:01.947Z</time></trkpt><trkpt lat="43.68352017679823" lon="10.945026065303384"><ele>128.0</ele><time>2026-04-18T12:59:03.947Z</time></trkpt><trkpt lat="43.683581044482274" lon="10.945119707462196"><ele>128.0</ele><time>2026-04-18T12:59:05.947Z</time></trkpt><trkpt lat="43.68363523953984" lon="10.945210278639772"><ele>128.16666666666666</ele><time>2026-04-18T12:59:07.947Z</time></trkpt><trkpt lat="43.68368921615355" lon="10.945299119629766"><ele>128.33333333333331</ele><time>2026-04-18T12:59:09.947Z</time></trkpt><trkpt lat="43.6837370525115" lon="10.945388803137593"><ele>128.5</ele><time>2026-04-18T12:59:11.947Z</time></trkpt><trkpt lat="43.68377977015289" lon="10.945472546232732"><ele>128.66666666666666</ele><time>2026-04-18T12:59:13.947Z</time></trkpt><trkpt lat="43.68382294728444" lon="10.945558801900887"><ele>128.83333333333334</ele><time>2026-04-18T12:59:15.947Z</time></trkpt><trkpt lat="43.683866125288645" lon="10.945636050121768"><ele>129.0</ele><time>2026-04-18T12:59:17.947Z</time></trkpt><trkpt lat="43.68390802939256" lon="10.945711697983514"><ele>128.99999999999997</ele><time>2026-04-18T12:59:19.947Z</time></trkpt><trkpt lat="43.68395174346435" lon="10.945786980653232"><ele>129.0</ele><time>2026-04-18T12:59:21.947Z</time></trkpt><trkpt lat="43.683994928063065" lon="10.94586573735411"><ele>129.0</ele><time>2026-04-18T12:59:23.947Z</time></trkpt><trkpt lat="43.68404607525509" lon="10.945937463970218"><ele>129.0</ele><time>2026-04-18T12:59:25.947Z</time></trkpt><trkpt lat="43.68410192191583" lon="10.946012804032527"><ele>129.0</ele><time>2026-04-18T12:59:27.947Z</time></trkpt><trkpt lat="43.68415161266786" lon="10.94609370474938"><ele>128.99999999999997</ele><time>2026-04-18T12:59:29.947Z</time></trkpt><trkpt lat="43.684205513043324" lon="10.946168442059934"><ele>129.0</ele><time>2026-04-18T12:59:31.947Z</time></trkpt><trkpt lat="43.68426164713315" lon="10.946237515005366"><ele>128.33333333333334</ele><time>2026-04-18T12:59:33.947Z</time></trkpt><trkpt lat="43.684318462439705" lon="10.946304045772115"><ele>127.66666666666666</ele><time>2026-04-18T12:59:35.947Z</time></trkpt><trkpt lat="43.68437929820252" lon="10.946371116658103"><ele>127.0</ele><time>2026-04-18T12:59:37.947Z</time></trkpt><trkpt lat="43.684446393860455" lon="10.946434499158133"><ele>126.33333333333333</ele><time>2026-04-18T12:59:39.947Z</time></trkpt><trkpt lat="43.68452208635921" lon="10.946495105005539"><ele>125.66666666666666</ele><time>2026-04-18T12:59:41.947Z</time></trkpt><trkpt lat="43.684616622256094" lon="10.94654659711638"><ele>125.0</ele><time>2026-04-18T12:59:43.945Z</time></trkpt><trkpt lat="43.68473533576562" lon="10.946572063274143"><ele>125.0</ele><time>2026-04-18T12:59:45.945Z</time></trkpt><trkpt lat="43.68479951519474" lon="10.946583065547603"><ele>125.0</ele><time>2026-04-18T12:59:46.945Z</time></trkpt><trkpt lat="43.68486613190104" lon="10.94658122182579"><ele>125.0</ele><time>2026-04-18T12:59:47.945Z</time></trkpt><trkpt lat="43.68493626837792" lon="10.94655506822006"><ele>125.0</ele><time>2026-04-18T12:59:48.945Z</time></trkpt><trkpt lat="43.68499759083434" lon="10.946514579498187"><ele>125.0</ele><time>2026-04-18T12:59:49.945Z</time></trkpt><trkpt lat="43.68505826062818" lon="10.946472260173037"><ele>125.0</ele><time>2026-04-18T12:59:50.945Z</time></trkpt><trkpt lat="43.68511251047701" lon="10.94641543665005"><ele>125.0</ele><time>2026-04-18T12:59:51.945Z</time></trkpt><trkpt lat="43.68516739820461" lon="10.946356297684607"><ele>125.0</ele><time>2026-04-18T12:59:52.945Z</time></trkpt><trkpt lat="43.685222695401656" lon="10.946307625878612"><ele>125.0</ele><time>2026-04-18T12:59:53.945Z</time></trkpt><trkpt lat="43.685278184124996" lon="10.946252741012346"><ele>125.0</ele><time>2026-04-18T12:59:54.945Z</time></trkpt><trkpt lat="43.68533212275127" lon="10.946191980613017"><ele>125.0</ele><time>2026-04-18T12:59:55.945Z</time></trkpt><trkpt lat="43.68538718157283" lon="10.946131064998767"><ele>125.0</ele><time>2026-04-18T12:59:56.945Z</time></trkpt><trkpt lat="43.68543558060757" lon="10.946064163691954"><ele>125.0</ele><time>2026-04-18T12:59:57.945Z</time></trkpt><trkpt lat="43.68547082341727" lon="10.945984918974593"><ele>125.0</ele><time>2026-04-18T12:59:58.945Z</time></trkpt><trkpt lat="43.685529784688434" lon="10.9458282159272"><ele>125.2</ele><time>2026-04-18T13:00:00.945Z</time></trkpt><trkpt lat="43.68557627895794" lon="10.945674326763184"><ele>125.4</ele><time>2026-04-18T13:00:02.945Z</time></trkpt><trkpt lat="43.68562307125657" lon="10.945521194242023"><ele>125.6</ele><time>2026-04-18T13:00:04.945Z</time></trkpt><trkpt lat="43.685665091975814" lon="10.945384188927203"><ele>125.8</ele><time>2026-04-18T13:00:06.945Z</time></trkpt><trkpt lat="43.68570805221731" lon="10.94526352639989"><ele>126.0</ele><time>2026-04-18T13:00:08.945Z</time></trkpt><trkpt lat="43.685749568829365" lon="10.94518893299164"><ele>126.0</ele><time>2026-04-18T13:00:10.945Z</time></trkpt><trkpt lat="43.68579962772759" lon="10.94513613422436"><ele>126.0</ele><time>2026-04-18T13:00:13.945Z</time></trkpt><trkpt lat="43.68581737718178" lon="10.94462236015616"><ele>126.0</ele><time>2026-04-18T13:00:26.945Z</time></trkpt><trkpt lat="43.68584330858743" lon="10.944502615269368"><ele>124.8</ele><time>2026-04-18T13:00:28.945Z</time></trkpt><trkpt lat="43.68586347141648" lon="10.944383265473917"><ele>123.6</ele><time>2026-04-18T13:00:30.945Z</time></trkpt><trkpt lat="43.68588639895883" lon="10.944246677542441"><ele>122.4</ele><time>2026-04-18T13:00:32.945Z</time></trkpt><trkpt lat="43.68591441158416" lon="10.944115745154793"><ele>121.2</ele><time>2026-04-18T13:00:34.945Z</time></trkpt><trkpt lat="43.68594355294158" lon="10.943960017720462"><ele>120.0</ele><time>2026-04-18T13:00:36.945Z</time></trkpt><trkpt lat="43.685973040279116" lon="10.943781825561938"><ele>119.57142857142858</ele><time>2026-04-18T13:00:38.945Z</time></trkpt><trkpt lat="43.685992240630355" lon="10.943695782754391"><ele>119.14285714285714</ele><time>2026-04-18T13:00:39.945Z</time></trkpt><trkpt lat="43.68601268559767" lon="10.943600571551038"><ele>118.71428571428572</ele><time>2026-04-18T13:00:40.945Z</time></trkpt><trkpt lat="43.68603345872282" lon="10.943496795219634"><ele>118.28571428571429</ele><time>2026-04-18T13:00:41.945Z</time></trkpt><trkpt lat="43.68605094257154" lon="10.943400010963824"><ele>117.85714285714286</ele><time>2026-04-18T13:00:42.945Z</time></trkpt><trkpt lat="43.68606990749195" lon="10.94330221805155"><ele>117.42857142857143</ele><time>2026-04-18T13:00:43.945Z</time></trkpt><trkpt lat="43.686079693892935" lon="10.943202422620628"><ele>117.0</ele><time>2026-04-18T13:00:44.945Z</time></trkpt><trkpt lat="43.6860867251536" lon="10.943102788734382"><ele>115.39999999999999</ele><time>2026-04-18T13:00:45.945Z</time></trkpt><trkpt lat="43.68613313036805" lon="10.942935105245974"><ele>113.79999999999998</ele><time>2026-04-18T13:00:47.945Z</time></trkpt><trkpt lat="43.68616619897358" lon="10.942832842262224"><ele>112.2</ele><time>2026-04-18T13:00:48.945Z</time></trkpt><trkpt lat="43.68620517634929" lon="10.94272126412687"><ele>110.6</ele><time>2026-04-18T13:00:50.945Z</time></trkpt><trkpt lat="43.68624713236188" lon="10.942625984975137"><ele>109.0</ele><time>2026-04-18T13:00:52.945Z</time></trkpt><trkpt lat="43.686294321484546" lon="10.942510410890748"><ele>108.33333333333334</ele><time>2026-04-18T13:00:54.945Z</time></trkpt><trkpt lat="43.686310164620245" lon="10.942393212076134"><ele>107.66666666666667</ele><time>2026-04-18T13:00:56.945Z</time></trkpt><trkpt lat="43.68632828817914" lon="10.942266728565766"><ele>107.0</ele><time>2026-04-18T13:00:58.945Z</time></trkpt><trkpt lat="43.68634442026294" lon="10.942162334585976"><ele>106.33333333333334</ele><time>2026-04-18T13:01:00.945Z</time></trkpt><trkpt lat="43.68636590873994" lon="10.942044735855845"><ele>105.66666666666667</ele><time>2026-04-18T13:01:02.945Z</time></trkpt><trkpt lat="43.68638381760214" lon="10.941925732301756"><ele>105.0</ele><time>2026-04-18T13:01:04.945Z</time></trkpt><trkpt lat="43.68640263534121" lon="10.941827984103536"><ele>105.0</ele><time>2026-04-18T13:01:06.945Z</time></trkpt><trkpt lat="43.68662226798167" lon="10.941856378721187"><ele>105.0</ele><time>2026-04-18T13:01:09.945Z</time></trkpt><trkpt lat="43.68670241050321" lon="10.94193062889234"><ele>105.0</ele><time>2026-04-18T13:01:11.945Z</time></trkpt><trkpt lat="43.68680929683957" lon="10.941930411746755"><ele>105.0</ele><time>2026-04-18T13:01:13.945Z</time></trkpt><trkpt lat="43.686866753963656" lon="10.941886789792962"><ele>105.0</ele><time>2026-04-18T13:01:14.945Z</time></trkpt><trkpt lat="43.686922230710266" lon="10.941840376101277"><ele>105.0</ele><time>2026-04-18T13:01:15.945Z</time></trkpt><trkpt lat="43.687026030089655" lon="10.941756796351077"><ele>105.0</ele><time>2026-04-18T13:01:17.945Z</time></trkpt><trkpt lat="43.6871200198873" lon="10.941680457413051"><ele>105.0</ele><time>2026-04-18T13:01:19.945Z</time></trkpt><trkpt lat="43.68721102618952" lon="10.941626336059938"><ele>105.0</ele><time>2026-04-18T13:01:21.945Z</time></trkpt><trkpt lat="43.6873043521795" lon="10.941563932613336"><ele>104.2</ele><time>2026-04-18T13:01:23.945Z</time></trkpt><trkpt lat="43.68737930807306" lon="10.941506106251635"><ele>103.4</ele><time>2026-04-18T13:01:25.945Z</time></trkpt><trkpt lat="43.68744140388975" lon="10.941397868408698"><ele>102.6</ele><time>2026-04-18T13:01:27.945Z</time></trkpt><trkpt lat="43.687487911579524" lon="10.941274465583072"><ele>101.8</ele><time>2026-04-18T13:01:29.945Z</time></trkpt><trkpt lat="43.687549305258244" lon="10.94118918762032"><ele>101.0</ele><time>2026-04-18T13:01:31.945Z</time></trkpt><trkpt lat="43.687602475827376" lon="10.941089852765465"><ele>100.99999999999999</ele><time>2026-04-18T13:01:33.945Z</time></trkpt><trkpt lat="43.68762228192359" lon="10.940983867625492"><ele>101.0</ele><time>2026-04-18T13:01:35.945Z</time></trkpt><trkpt lat="43.68766614804327" lon="10.940880399878164"><ele>101.0</ele><time>2026-04-18T13:01:37.945Z</time></trkpt><trkpt lat="43.687726400512574" lon="10.940808203588901"><ele>101.0</ele><time>2026-04-18T13:01:39.945Z</time></trkpt><trkpt lat="43.68778063934341" lon="10.940718417197603"><ele>100.99999999999999</ele><time>2026-04-18T13:01:41.945Z</time></trkpt><trkpt lat="43.68784844865153" lon="10.940615642810625"><ele>101.0</ele><time>2026-04-18T13:01:43.945Z</time></trkpt><trkpt lat="43.68791003966098" lon="10.940504950773146"><ele>100.49999999999999</ele><time>2026-04-18T13:01:45.945Z</time></trkpt><trkpt lat="43.68796338781467" lon="10.940406622564618"><ele>100.0</ele><time>2026-04-18T13:01:47.945Z</time></trkpt><trkpt lat="43.68803791979938" lon="10.940275647259519"><ele>99.5</ele><time>2026-04-18T13:01:50.944Z</time></trkpt><trkpt lat="43.688097272976904" lon="10.940215465420472"><ele>99.0</ele><time>2026-04-18T13:01:52.944Z</time></trkpt><trkpt lat="43.688120583966125" lon="10.940132451600821"><ele>98.49999999999999</ele><time>2026-04-18T13:01:54.944Z</time></trkpt><trkpt lat="43.68817159614409" lon="10.940048494287087"><ele>98.0</ele><time>2026-04-18T13:01:57.944Z</time></trkpt><trkpt lat="43.68821608441932" lon="10.939947732599126"><ele>97.99999999999999</ele><time>2026-04-18T13:02:00.944Z</time></trkpt><trkpt lat="43.688256219386496" lon="10.939855328297993"><ele>98.0</ele><time>2026-04-18T13:02:13.944Z</time></trkpt><trkpt lat="43.68830959904641" lon="10.939782508712652"><ele>98.0</ele><time>2026-04-18T13:02:16.944Z</time></trkpt><trkpt lat="43.68833809353364" lon="10.939701675052389"><ele>98.0</ele><time>2026-04-18T13:02:18.944Z</time></trkpt><trkpt lat="43.688378557911676" lon="10.939594156845772"><ele>97.99999999999999</ele><time>2026-04-18T13:02:21.944Z</time></trkpt><trkpt lat="43.68842720534966" lon="10.939481113304149"><ele>98.0</ele><time>2026-04-18T13:02:24.944Z</time></trkpt><trkpt lat="43.68845095950487" lon="10.939386926201724"><ele>98.0</ele><time>2026-04-18T13:02:26.944Z</time></trkpt><trkpt lat="43.688497240986536" lon="10.939272728228199"><ele>98.0</ele><time>2026-04-18T13:02:28.944Z</time></trkpt><trkpt lat="43.68851682248138" lon="10.939152085724874"><ele>98.0</ele><time>2026-04-18T13:02:30.944Z</time></trkpt><trkpt lat="43.68851961093436" lon="10.939029140618453"><ele>98.0</ele><time>2026-04-18T13:02:32.944Z</time></trkpt><trkpt lat="43.688578704828664" lon="10.93893218747326"><ele>98.0</ele><time>2026-04-18T13:02:34.944Z</time></trkpt><trkpt lat="43.68864803475551" lon="10.93881828282854"><ele>97.33333333333333</ele><time>2026-04-18T13:02:36.944Z</time></trkpt><trkpt lat="43.68873157857665" lon="10.938725379990833"><ele>96.66666666666666</ele><time>2026-04-18T13:02:38.944Z</time></trkpt><trkpt lat="43.68878852971637" lon="10.938658489293127"><ele>96.0</ele><time>2026-04-18T13:03:07.944Z</time></trkpt><trkpt lat="43.68885178838833" lon="10.9386046048877"><ele>95.33333333333333</ele><time>2026-04-18T13:03:13.944Z</time></trkpt><trkpt lat="43.68893092104808" lon="10.938545173786725"><ele>94.66666666666666</ele><time>2026-04-18T13:03:16.944Z</time></trkpt><trkpt lat="43.688997459003645" lon="10.938512093811537"><ele>94.0</ele><time>2026-04-18T13:03:18.944Z</time></trkpt><trkpt lat="43.68905886249747" lon="10.938475858014517"><ele>94.0</ele><time>2026-04-18T13:03:20.944Z</time></trkpt><trkpt lat="43.689129581854694" lon="10.938431553325547"><ele>94.0</ele><time>2026-04-18T13:03:22.944Z</time></trkpt><trkpt lat="43.68920795582024" lon="10.938385075993363"><ele>94.0</ele><time>2026-04-18T13:03:24.944Z</time></trkpt><trkpt lat="43.6892731743244" lon="10.93831722332135"><ele>94.0</ele><time>2026-04-18T13:03:26.944Z</time></trkpt><trkpt lat="43.68933443901548" lon="10.938239158221789"><ele>94.0</ele><time>2026-04-18T13:03:28.944Z</time></trkpt><trkpt lat="43.68938388685106" lon="10.938150607729433"><ele>94.0</ele><time>2026-04-18T13:03:30.944Z</time></trkpt><trkpt lat="43.689460052698465" lon="10.938072742229902"><ele>93.80000000000001</ele><time>2026-04-18T13:03:32.944Z</time></trkpt><trkpt lat="43.68952627118843" lon="10.937969388150398"><ele>93.60000000000001</ele><time>2026-04-18T13:03:34.944Z</time></trkpt><trkpt lat="43.68961084615916" lon="10.937904346388047"><ele>93.4</ele><time>2026-04-18T13:03:36.944Z</time></trkpt><trkpt lat="43.68967503249628" lon="10.937798440361025"><ele>93.2</ele><time>2026-04-18T13:03:38.944Z</time></trkpt><trkpt lat="43.68972006205738" lon="10.937693872539809"><ele>93.0</ele><time>2026-04-18T13:03:40.944Z</time></trkpt><trkpt lat="43.68977486866319" lon="10.937584505076984"><ele>92.16666666666667</ele><time>2026-04-18T13:03:42.944Z</time></trkpt><trkpt lat="43.689818451111236" lon="10.937502546951576"><ele>91.33333333333333</ele><time>2026-04-18T13:03:44.944Z</time></trkpt><trkpt lat="43.689878400624316" lon="10.9374207924846"><ele>90.5</ele><time>2026-04-18T13:03:46.944Z</time></trkpt><trkpt lat="43.68991500825914" lon="10.937336467646478"><ele>89.66666666666666</ele><time>2026-04-18T13:03:48.944Z</time></trkpt><trkpt lat="43.68995841185181" lon="10.93724379592017"><ele>88.83333333333333</ele><time>2026-04-18T13:03:50.944Z</time></trkpt><trkpt lat="43.690008339051694" lon="10.937154625399778"><ele>88.0</ele><time>2026-04-18T13:03:52.944Z</time></trkpt><trkpt lat="43.690044996433215" lon="10.937060874168239"><ele>88.0</ele><time>2026-04-18T13:03:54.942Z</time></trkpt><trkpt lat="43.690084721861346" lon="10.93698774712091"><ele>88.0</ele><time>2026-04-18T13:03:56.942Z</time></trkpt><trkpt lat="43.69013714473709" lon="10.936921391521658"><ele>88.0</ele><time>2026-04-18T13:03:59.942Z</time></trkpt><trkpt lat="43.69017283570936" lon="10.936827514094487"><ele>88.0</ele><time>2026-04-18T13:04:46.942Z</time></trkpt><trkpt lat="43.69023962086027" lon="10.936760491731821"><ele>88.0</ele><time>2026-04-18T13:04:48.942Z</time></trkpt><trkpt lat="43.69031273167755" lon="10.936760892314954"><ele>88.0</ele><time>2026-04-18T13:04:50.942Z</time></trkpt><trkpt lat="43.69037418012363" lon="10.9367389651722"><ele>88.0</ele><time>2026-04-18T13:04:52.942Z</time></trkpt><trkpt lat="43.69047045886767" lon="10.936711923729131"><ele>86.16666666666666</ele><time>2026-04-18T13:04:54.942Z</time></trkpt><trkpt lat="43.69056043683341" lon="10.936699466995636"><ele>84.33333333333333</ele><time>2026-04-18T13:04:56.942Z</time></trkpt><trkpt lat="43.6906255137314" lon="10.936679023753229"><ele>82.5</ele><time>2026-04-18T13:04:58.942Z</time></trkpt><trkpt lat="43.69069364471225" lon="10.936642127690925"><ele>80.66666666666667</ele><time>2026-04-18T13:05:00.942Z</time></trkpt><trkpt lat="43.69078701494416" lon="10.936597820903435"><ele>78.83333333333334</ele><time>2026-04-18T13:05:02.942Z</time></trkpt><trkpt lat="43.69086633867756" lon="10.936587034100578"><ele>77.0</ele><time>2026-04-18T13:05:04.942Z</time></trkpt><trkpt lat="43.690966349936275" lon="10.936572502550634"><ele>77.0</ele><time>2026-04-18T13:05:06.942Z</time></trkpt><trkpt lat="43.69104125479438" lon="10.936570239800252"><ele>77.0</ele><time>2026-04-18T13:05:08.942Z</time></trkpt><trkpt lat="43.691100957448434" lon="10.936539084487102"><ele>77.0</ele><time>2026-04-18T13:05:11.942Z</time></trkpt><trkpt lat="43.69114378915533" lon="10.936604982882267"><ele>77.0</ele><time>2026-04-18T13:05:30.942Z</time></trkpt><trkpt lat="43.691157384730616" lon="10.9367046774062"><ele>77.0</ele><time>2026-04-18T13:05:36.942Z</time></trkpt><trkpt lat="43.69115562899348" lon="10.936614782826679"><ele>77.0</ele><time>2026-04-18T13:06:56.94Z</time></trkpt><trkpt lat="43.69111438361357" lon="10.936547702299386"><ele>77.0</ele><time>2026-04-18T13:07:05.94Z</time></trkpt><trkpt lat="43.691026995528965" lon="10.936544874775175"><ele>77.0</ele><time>2026-04-18T13:07:12.94Z</time></trkpt><trkpt lat="43.6909515798531" lon="10.936546640933098"><ele>77.0</ele><time>2026-04-18T13:07:15.94Z</time></trkpt><trkpt lat="43.69088451221239" lon="10.936547748056906"><ele>77.0</ele><time>2026-04-18T13:07:18.94Z</time></trkpt><trkpt lat="43.69080815304347" lon="10.936555854430022"><ele>77.0</ele><time>2026-04-18T13:07:22.94Z</time></trkpt><trkpt lat="43.690736271037636" lon="10.93656587676183"><ele>77.0</ele><time>2026-04-18T13:07:25.94Z</time></trkpt><trkpt lat="43.69069240897883" lon="10.936628981623244"><ele>77.0</ele><time>2026-04-18T13:07:28.94Z</time></trkpt><trkpt lat="43.69070592120639" lon="10.936740725907198"><ele>77.0</ele><time>2026-04-18T13:07:32.94Z</time></trkpt><trkpt lat="43.690755479724395" lon="10.936832330840957"><ele>78.0</ele><time>2026-04-18T13:07:36.94Z</time></trkpt><trkpt lat="43.69078915728333" lon="10.936911671482463"><ele>79.0</ele><time>2026-04-18T13:07:40.94Z</time></trkpt><trkpt lat="43.690776762027866" lon="10.937004854137934"><ele>80.0</ele><time>2026-04-18T13:07:44.94Z</time></trkpt><trkpt lat="43.690727544129366" lon="10.937063296068708"><ele>81.0</ele><time>2026-04-18T13:07:48.94Z</time></trkpt><trkpt lat="43.69066774015163" lon="10.93709786909836"><ele>82.0</ele><time>2026-04-18T13:07:52.94Z</time></trkpt><trkpt lat="43.69060934350322" lon="10.937142237278318"><ele>83.0</ele><time>2026-04-18T13:07:56.94Z</time></trkpt><trkpt lat="43.690542992567096" lon="10.937171732519896"><ele>84.0</ele><time>2026-04-18T13:08:00.94Z</time></trkpt><trkpt lat="43.69047994306741" lon="10.937215488036436"><ele>84.0</ele><time>2026-04-18T13:08:04.94Z</time></trkpt><trkpt lat="43.69042684885352" lon="10.937265666521963"><ele>84.0</ele><time>2026-04-18T13:08:08.938Z</time></trkpt><trkpt lat="43.69041059753035" lon="10.937362638631422"><ele>84.0</ele><time>2026-04-18T13:08:28.938Z</time></trkpt><trkpt lat="43.690425954408084" lon="10.937454486880974"><ele>84.0</ele><time>2026-04-18T13:08:36.938Z</time></trkpt><trkpt lat="43.69045867544553" lon="10.937546473271222"><ele>84.0</ele><time>2026-04-18T13:08:43.938Z</time></trkpt><trkpt lat="43.690513408785854" lon="10.937608012091204"><ele>84.0</ele><time>2026-04-18T13:08:50.938Z</time></trkpt><trkpt lat="43.690499212727104" lon="10.93769372132433"><ele>84.0</ele><time>2026-04-18T13:09:40.938Z</time></trkpt><trkpt lat="43.69046803972085" lon="10.937772497670986"><ele>83.42857142857143</ele><time>2026-04-18T13:09:48.938Z</time></trkpt><trkpt lat="43.690463071889134" lon="10.937871777977438"><ele>82.85714285714286</ele><time>2026-04-18T13:09:55.938Z</time></trkpt><trkpt lat="43.69043669699905" lon="10.937951422498326"><ele>82.28571428571428</ele><time>2026-04-18T13:10:01.938Z</time></trkpt><trkpt lat="43.690494831094966" lon="10.937986399197651"><ele>81.71428571428572</ele><time>2026-04-18T13:10:33.936Z</time></trkpt><trkpt lat="43.69054794006102" lon="10.938044717839851"><ele>81.14285714285714</ele><time>2026-04-18T13:10:41.936Z</time></trkpt><trkpt lat="43.69061319675192" lon="10.938037913625358"><ele>80.57142857142857</ele><time>2026-04-18T13:10:47.936Z</time></trkpt><trkpt lat="43.690635078514774" lon="10.93794794444991"><ele>80.0</ele><time>2026-04-18T13:10:55.936Z</time></trkpt><trkpt lat="43.690683579239845" lon="10.937877963556902"><ele>80.0</ele><time>2026-04-18T13:11:02.936Z</time></trkpt><trkpt lat="43.69074137508157" lon="10.937918956442028"><ele>80.0</ele><time>2026-04-18T13:11:15.936Z</time></trkpt><trkpt lat="43.690739775623236" lon="10.938041797707518"><ele>80.0</ele><time>2026-04-18T13:11:19.936Z</time></trkpt><trkpt lat="43.690765579090396" lon="10.938135353114635"><ele>80.0</ele><time>2026-04-18T13:11:23.936Z</time></trkpt><trkpt lat="43.69083839542546" lon="10.938169874829507"><ele>80.0</ele><time>2026-04-18T13:11:26.936Z</time></trkpt><trkpt lat="43.690923604675106" lon="10.938071797247714"><ele>80.0</ele><time>2026-04-18T13:11:30.936Z</time></trkpt><trkpt lat="43.69100352702916" lon="10.938025559326093"><ele>80.0</ele><time>2026-04-18T13:11:33.936Z</time></trkpt><trkpt lat="43.691071089208975" lon="10.938001211182158"><ele>80.0</ele><time>2026-04-18T13:11:35.936Z</time></trkpt><trkpt lat="43.691156030236186" lon="10.937993214114442"><ele>80.0</ele><time>2026-04-18T13:11:38.936Z</time></trkpt><trkpt lat="43.691207596568326" lon="10.937930553343586"><ele>80.0</ele><time>2026-04-18T13:11:40.936Z</time></trkpt><trkpt lat="43.69130177699849" lon="10.93786606987238"><ele>80.0</ele><time>2026-04-18T13:11:42.936Z</time></trkpt><trkpt lat="43.69137226383994" lon="10.93783509253836"><ele>80.0</ele><time>2026-04-18T13:11:44.936Z</time></trkpt><trkpt lat="43.691459471827294" lon="10.93778877666056"><ele>77.71428571428571</ele><time>2026-04-18T13:11:47.936Z</time></trkpt><trkpt lat="43.691512940089574" lon="10.93772146874016"><ele>75.42857142857143</ele><time>2026-04-18T13:11:49.936Z</time></trkpt><trkpt lat="43.69158179640566" lon="10.937697934694453"><ele>73.14285714285714</ele><time>2026-04-18T13:11:52.936Z</time></trkpt><trkpt lat="43.69162201628871" lon="10.937774291654518"><ele>70.85714285714286</ele><time>2026-04-18T13:12:12.936Z</time></trkpt><trkpt lat="43.691650757375356" lon="10.937854443179386"><ele>68.57142857142857</ele><time>2026-04-18T13:12:18.934Z</time></trkpt><trkpt lat="43.691652526206084" lon="10.937944062923815"><ele>66.28571428571428</ele><time>2026-04-18T13:12:25.934Z</time></trkpt><trkpt lat="43.691654074855066" lon="10.93804317685532"><ele>64.0</ele><time>2026-04-18T13:12:35.933Z</time></trkpt><trkpt lat="43.69164697355443" lon="10.938133532808205"><ele>64.0</ele><time>2026-04-18T13:12:44.933Z</time></trkpt><trkpt lat="43.69171403058603" lon="10.938146890479475"><ele>63.99999999999999</ele><time>2026-04-18T13:12:53.933Z</time></trkpt><trkpt lat="43.69177971637429" lon="10.938119424655689"><ele>64.0</ele><time>2026-04-18T13:13:10.933Z</time></trkpt><trkpt lat="43.6918300980728" lon="10.938065687881062"><ele>64.0</ele><time>2026-04-18T13:13:19.933Z</time></trkpt><trkpt lat="43.69188181417127" lon="10.938015237187221"><ele>63.99999999999999</ele><time>2026-04-18T13:13:34.933Z</time></trkpt><trkpt lat="43.691949573022924" lon="10.937993754393318"><ele>64.0</ele><time>2026-04-18T13:13:45.933Z</time></trkpt><trkpt lat="43.69200335773296" lon="10.937937546376002"><ele>64.0</ele><time>2026-04-18T13:13:59.933Z</time></trkpt><trkpt lat="43.69206763910063" lon="10.937899104545744"><ele>63.14285714285714</ele><time>2026-04-18T13:14:08.933Z</time></trkpt><trkpt lat="43.69211423266398" lon="10.937835757297542"><ele>62.28571428571428</ele><time>2026-04-18T13:14:18.933Z</time></trkpt><trkpt lat="43.6921705708073" lon="10.93776059871717"><ele>61.42857142857143</ele><time>2026-04-18T13:14:27.932Z</time></trkpt><trkpt lat="43.69222632570084" lon="10.937702091046758"><ele>60.57142857142857</ele><time>2026-04-18T13:14:35.931Z</time></trkpt><trkpt lat="43.69227029549128" lon="10.93763763976964"><ele>59.714285714285715</ele><time>2026-04-18T13:14:42.931Z</time></trkpt><trkpt lat="43.69233262787721" lon="10.937599003627783"><ele>58.85714285714286</ele><time>2026-04-18T13:14:54.931Z</time></trkpt><trkpt lat="43.69241557814559" lon="10.937540946768415"><ele>58.00000000000001</ele><time>2026-04-18T13:15:17.931Z</time></trkpt><trkpt lat="43.69247396978396" lon="10.93750312686922"><ele>57.99999999999999</ele><time>2026-04-18T13:15:26.931Z</time></trkpt><trkpt lat="43.692535467934654" lon="10.93745512446477"><ele>58.0</ele><time>2026-04-18T13:15:33.931Z</time></trkpt><trkpt lat="43.692628968908146" lon="10.937436704806297"><ele>58.0</ele><time>2026-04-18T13:16:50.929Z</time></trkpt><trkpt lat="43.69269702907675" lon="10.937403093886566"><ele>58.0</ele><time>2026-04-18T13:16:53.929Z</time></trkpt><trkpt lat="43.69276573391626" lon="10.937375535015631"><ele>57.99999999999999</ele><time>2026-04-18T13:16:56.929Z</time></trkpt><trkpt lat="43.692833467941064" lon="10.937359420914442"><ele>58.0</ele><time>2026-04-18T13:16:59.929Z</time></trkpt><trkpt lat="43.69290902090246" lon="10.937363823073092"><ele>57.166666666666664</ele><time>2026-04-18T13:17:02.929Z</time></trkpt><trkpt lat="43.69298603229504" lon="10.937378182098168"><ele>56.33333333333333</ele><time>2026-04-18T13:17:05.929Z</time></trkpt><trkpt lat="43.69306836112436" lon="10.937361454971924"><ele>55.5</ele><time>2026-04-18T13:17:09.929Z</time></trkpt><trkpt lat="43.69314973577118" lon="10.937362928933846"><ele>54.66666666666667</ele><time>2026-04-18T13:17:13.929Z</time></trkpt><trkpt lat="43.69322118385741" lon="10.937362483442145"><ele>53.833333333333336</ele><time>2026-04-18T13:17:17.929Z</time></trkpt><trkpt lat="43.69325100220253" lon="10.937454485376605"><ele>53.0</ele><time>2026-04-18T13:17:20.929Z</time></trkpt><trkpt lat="43.69331296925004" lon="10.93749176391936"><ele>53.00000000000001</ele><time>2026-04-18T13:17:24.929Z</time></trkpt><trkpt lat="43.693365593772114" lon="10.937392199494797"><ele>53.0</ele><time>2026-04-18T13:17:27.929Z</time></trkpt><trkpt lat="43.69343902373488" lon="10.937332128554912"><ele>53.0</ele><time>2026-04-18T13:17:30.929Z</time></trkpt><trkpt lat="43.69352528776015" lon="10.937327066650814"><ele>53.0</ele><time>2026-04-18T13:17:33.929Z</time></trkpt><trkpt lat="43.69359993878791" lon="10.937321041110952"><ele>53.00000000000001</ele><time>2026-04-18T13:17:36.929Z</time></trkpt><trkpt lat="43.693640421677856" lon="10.937220781315522"><ele>53.0</ele><time>2026-04-18T13:17:41.929Z</time></trkpt><trkpt lat="43.69367492336788" lon="10.937134707454293"><ele>53.333333333333336</ele><time>2026-04-18T13:17:44.929Z</time></trkpt><trkpt lat="43.69372467033031" lon="10.93707294758127"><ele>53.66666666666667</ele><time>2026-04-18T13:17:52.929Z</time></trkpt><trkpt lat="43.6937393398941" lon="10.936972849368324"><ele>54.0</ele><time>2026-04-18T13:17:59.929Z</time></trkpt><trkpt lat="43.693771559718904" lon="10.936892441616777"><ele>54.33333333333333</ele><time>2026-04-18T13:18:04.929Z</time></trkpt><trkpt lat="43.693824330789475" lon="10.93681892186431"><ele>54.666666666666664</ele><time>2026-04-18T13:19:22.927Z</time></trkpt><trkpt lat="43.693912250268454" lon="10.936858152642081"><ele>55.0</ele><time>2026-04-18T13:19:26.927Z</time></trkpt><trkpt lat="43.69398860026597" lon="10.93688932380816"><ele>54.99999999999999</ele><time>2026-04-18T13:19:28.927Z</time></trkpt><trkpt lat="43.694067634404114" lon="10.936911381905515"><ele>55.0</ele><time>2026-04-18T13:19:30.927Z</time></trkpt><trkpt lat="43.69417713312862" lon="10.93691710570394"><ele>55.0</ele><time>2026-04-18T13:19:32.927Z</time></trkpt><trkpt lat="43.69426485415866" lon="10.936893878776852"><ele>55.0</ele><time>2026-04-18T13:19:34.927Z</time></trkpt><trkpt lat="43.69434959279737" lon="10.936887426063233"><ele>54.99999999999999</ele><time>2026-04-18T13:19:37.927Z</time></trkpt><trkpt lat="43.694412036117846" lon="10.93690551925251"><ele>55.0</ele><time>2026-04-18T13:19:40.927Z</time></trkpt><trkpt lat="43.69449711828475" lon="10.93692246081515"><ele>53.99999999999999</ele><time>2026-04-18T13:19:43.927Z</time></trkpt><trkpt lat="43.694596853827754" lon="10.936943437786724"><ele>53.0</ele><time>2026-04-18T13:19:46.927Z</time></trkpt><trkpt lat="43.69467163321275" lon="10.936940347759847"><ele>52.0</ele><time>2026-04-18T13:19:48.927Z</time></trkpt><trkpt lat="43.69473528767124" lon="10.936947852142517"><ele>51.0</ele><time>2026-04-18T13:19:50.927Z</time></trkpt><trkpt lat="43.6948041578751" lon="10.93695481322221"><ele>49.99999999999999</ele><time>2026-04-18T13:19:52.927Z</time></trkpt><trkpt lat="43.69490111240154" lon="10.936975446057165"><ele>49.0</ele><time>2026-04-18T13:19:55.927Z</time></trkpt><trkpt lat="43.694972953665186" lon="10.936979469391764"><ele>48.99999999999999</ele><time>2026-04-18T13:19:57.927Z</time></trkpt><trkpt lat="43.695058265702386" lon="10.936987816439396"><ele>49.0</ele><time>2026-04-18T13:19:59.927Z</time></trkpt><trkpt lat="43.695146998903624" lon="10.936980759863262"><ele>49.0</ele><time>2026-04-18T13:20:01.927Z</time></trkpt><trkpt lat="43.69521132130673" lon="10.936975523767426"><ele>49.0</ele><time>2026-04-18T13:20:04.927Z</time></trkpt><trkpt lat="43.695227642009925" lon="10.937081716864398"><ele>48.99999999999999</ele><time>2026-04-18T13:20:08.927Z</time></trkpt><trkpt lat="43.69519825566836" lon="10.93716852178233"><ele>49.0</ele><time>2026-04-18T13:20:10.927Z</time></trkpt><trkpt lat="43.695172295112556" lon="10.937258709176714"><ele>49.0</ele><time>2026-04-18T13:20:12.927Z</time></trkpt><trkpt lat="43.6951857145904" lon="10.937353213904496"><ele>49.0</ele><time>2026-04-18T13:20:17.927Z</time></trkpt><trkpt lat="43.69524925497602" lon="10.937366369183254"><ele>49.0</ele><time>2026-04-18T13:20:20.927Z</time></trkpt><trkpt lat="43.69533371831715" lon="10.937352594306104"><ele>49.0</ele><time>2026-04-18T13:20:23.927Z</time></trkpt><trkpt lat="43.695395814659896" lon="10.937389431440723"><ele>49.0</ele><time>2026-04-18T13:20:25.927Z</time></trkpt><trkpt lat="43.69545981555931" lon="10.937424589905891"><ele>49.0</ele><time>2026-04-18T13:20:27.927Z</time></trkpt><trkpt lat="43.69552279591392" lon="10.93745534042493"><ele>49.0</ele><time>2026-04-18T13:20:29.927Z</time></trkpt><trkpt lat="43.69558751023618" lon="10.93748688449399"><ele>48.166666666666664</ele><time>2026-04-18T13:20:31.927Z</time></trkpt><trkpt lat="43.69566005418823" lon="10.937527686516678"><ele>47.33333333333333</ele><time>2026-04-18T13:20:33.927Z</time></trkpt><trkpt lat="43.69572679211105" lon="10.937560890569321"><ele>46.5</ele><time>2026-04-18T13:20:35.927Z</time></trkpt><trkpt lat="43.69580672351275" lon="10.937602807378045"><ele>45.666666666666664</ele><time>2026-04-18T13:20:37.927Z</time></trkpt><trkpt lat="43.69588243570315" lon="10.937641940013881"><ele>44.83333333333333</ele><time>2026-04-18T13:20:39.927Z</time></trkpt><trkpt lat="43.69595976111781" lon="10.937678918362726"><ele>44.0</ele><time>2026-04-18T13:20:41.927Z</time></trkpt><trkpt lat="43.69603607363535" lon="10.937724631196645"><ele>43.33333333333333</ele><time>2026-04-18T13:20:43.925Z</time></trkpt><trkpt lat="43.69611586379517" lon="10.937767472439015"><ele>42.666666666666664</ele><time>2026-04-18T13:20:45.925Z</time></trkpt><trkpt lat="43.69619420229669" lon="10.937804969634644"><ele>42.0</ele><time>2026-04-18T13:20:47.925Z</time></trkpt><trkpt lat="43.69627017482301" lon="10.937847977493758"><ele>41.333333333333336</ele><time>2026-04-18T13:20:49.925Z</time></trkpt><trkpt lat="43.69635229199667" lon="10.937888450004813"><ele>40.66666666666667</ele><time>2026-04-18T13:20:51.925Z</time></trkpt><trkpt lat="43.69643585382688" lon="10.937936052965796"><ele>40.0</ele><time>2026-04-18T13:20:53.925Z</time></trkpt><trkpt lat="43.69651767211192" lon="10.937980227921418"><ele>40.0</ele><time>2026-04-18T13:20:55.925Z</time></trkpt><trkpt lat="43.696607192181915" lon="10.938031175731561"><ele>40.0</ele><time>2026-04-18T13:20:57.925Z</time></trkpt><trkpt lat="43.696685112570094" lon="10.938073406659935"><ele>40.0</ele><time>2026-04-18T13:20:59.925Z</time></trkpt><trkpt lat="43.69676873077282" lon="10.938120850744061"><ele>40.0</ele><time>2026-04-18T13:21:01.925Z</time></trkpt><trkpt lat="43.69684816476471" lon="10.938164198874011"><ele>40.0</ele><time>2026-04-18T13:21:03.925Z</time></trkpt><trkpt lat="43.69692610955899" lon="10.938210590420358"><ele>40.0</ele><time>2026-04-18T13:21:05.925Z</time></trkpt><trkpt lat="43.69700567341974" lon="10.938251628892628"><ele>39.833333333333336</ele><time>2026-04-18T13:21:07.925Z</time></trkpt><trkpt lat="43.6970842776863" lon="10.938297163202066"><ele>39.66666666666667</ele><time>2026-04-18T13:21:09.925Z</time></trkpt><trkpt lat="43.69716966451994" lon="10.938340306350852"><ele>39.5</ele><time>2026-04-18T13:21:11.925Z</time></trkpt><trkpt lat="43.69724954268759" lon="10.938388079919223"><ele>39.333333333333336</ele><time>2026-04-18T13:21:13.925Z</time></trkpt><trkpt lat="43.69733322595321" lon="10.93843105058463"><ele>39.166666666666664</ele><time>2026-04-18T13:21:15.925Z</time></trkpt><trkpt lat="43.69741060925124" lon="10.938470822382003"><ele>39.0</ele><time>2026-04-18T13:21:17.925Z</time></trkpt><trkpt lat="43.697485040204235" lon="10.938501990761822"><ele>38.833333333333336</ele><time>2026-04-18T13:21:19.925Z</time></trkpt><trkpt lat="43.69756179849877" lon="10.938523133488248"><ele>38.666666666666664</ele><time>2026-04-18T13:21:21.925Z</time></trkpt><trkpt lat="43.69762977060412" lon="10.938544384451667"><ele>38.5</ele><time>2026-04-18T13:21:23.925Z</time></trkpt><trkpt lat="43.697658401649285" lon="10.938638643092172"><ele>38.33333333333333</ele><time>2026-04-18T13:21:25.925Z</time></trkpt><trkpt lat="43.69766944326322" lon="10.938747526467676"><ele>38.166666666666664</ele><time>2026-04-18T13:21:27.925Z</time></trkpt><trkpt lat="43.6977392976293" lon="10.938825889466115"><ele>38.0</ele><time>2026-04-18T13:21:29.925Z</time></trkpt><trkpt lat="43.69782649798963" lon="10.938828175793162"><ele>38.0</ele><time>2026-04-18T13:21:31.925Z</time></trkpt><trkpt lat="43.69791759445428" lon="10.938857454072586"><ele>38.0</ele><time>2026-04-18T13:21:33.925Z</time></trkpt><trkpt lat="43.698000625456466" lon="10.938880594681772"><ele>38.0</ele><time>2026-04-18T13:21:35.925Z</time></trkpt><trkpt lat="43.69807466035132" lon="10.938915544564345"><ele>38.0</ele><time>2026-04-18T13:21:37.925Z</time></trkpt><trkpt lat="43.69814707409676" lon="10.938960230328503"><ele>38.0</ele><time>2026-04-18T13:21:39.925Z</time></trkpt><trkpt lat="43.69822623160426" lon="10.939005005324166"><ele>38.0</ele><time>2026-04-18T13:21:41.925Z</time></trkpt><trkpt lat="43.69830436969302" lon="10.939043354350446"><ele>38.0</ele><time>2026-04-18T13:21:43.925Z</time></trkpt><trkpt lat="43.698396351968384" lon="10.939080777550545"><ele>38.0</ele><time>2026-04-18T13:21:45.925Z</time></trkpt><trkpt lat="43.698492473243064" lon="10.939115521025498"><ele>38.0</ele><time>2026-04-18T13:21:47.925Z</time></trkpt><trkpt lat="43.69859806067256" lon="10.939137401856073"><ele>38.0</ele><time>2026-04-18T13:21:49.925Z</time></trkpt><trkpt lat="43.69870300774007" lon="10.939155588905233"><ele>38.0</ele><time>2026-04-18T13:21:51.925Z</time></trkpt><trkpt lat="43.698817974221654" lon="10.939167092120146"><ele>37.6</ele><time>2026-04-18T13:21:53.925Z</time></trkpt><trkpt lat="43.69890202905281" lon="10.939194575632005"><ele>37.199999999999996</ele><time>2026-04-18T13:21:55.925Z</time></trkpt><trkpt lat="43.69900282998384" lon="10.939195646412262"><ele>36.8</ele><time>2026-04-18T13:21:57.925Z</time></trkpt><trkpt lat="43.69911409140192" lon="10.939169806671467"><ele>36.4</ele><time>2026-04-18T13:21:59.925Z</time></trkpt><trkpt lat="43.69922294416932" lon="10.939171386356705"><ele>36.0</ele><time>2026-04-18T13:22:01.925Z</time></trkpt><trkpt lat="43.699333632433756" lon="10.939133298594925"><ele>35.6</ele><time>2026-04-18T13:22:03.925Z</time></trkpt><trkpt lat="43.699436039074435" lon="10.939083090701143"><ele>35.2</ele><time>2026-04-18T13:22:05.925Z</time></trkpt><trkpt lat="43.69953761835917" lon="10.939018828061824"><ele>34.8</ele><time>2026-04-18T13:22:07.925Z</time></trkpt><trkpt lat="43.69962853790791" lon="10.938959821293984"><ele>34.4</ele><time>2026-04-18T13:22:09.925Z</time></trkpt><trkpt lat="43.6997283977034" lon="10.938914249659394"><ele>34.0</ele><time>2026-04-18T13:22:11.925Z</time></trkpt><trkpt lat="43.69981994243674" lon="10.938857293734547"><ele>34.0</ele><time>2026-04-18T13:22:13.925Z</time></trkpt><trkpt lat="43.69990559632755" lon="10.938808927212918"><ele>34.0</ele><time>2026-04-18T13:22:15.925Z</time></trkpt><trkpt lat="43.69997019849776" lon="10.938776580730115"><ele>34.0</ele><time>2026-04-18T13:22:17.925Z</time></trkpt><trkpt lat="43.700036215486485" lon="10.938874124299124"><ele>34.0</ele><time>2026-04-18T13:22:20.925Z</time></trkpt><trkpt lat="43.70010728584531" lon="10.93895235378958"><ele>34.0</ele><time>2026-04-18T13:22:22.925Z</time></trkpt><trkpt lat="43.70017702554748" lon="10.939052133699114"><ele>34.0</ele><time>2026-04-18T13:22:24.925Z</time></trkpt><trkpt lat="43.70024190096068" lon="10.939166319944665"><ele>33.5</ele><time>2026-04-18T13:22:26.925Z</time></trkpt><trkpt lat="43.70033042263961" lon="10.939262516393335"><ele>33.0</ele><time>2026-04-18T13:22:28.925Z</time></trkpt><trkpt lat="43.70041365250522" lon="10.939365438865092"><ele>32.5</ele><time>2026-04-18T13:22:30.925Z</time></trkpt><trkpt lat="43.700501499553305" lon="10.939467708875377"><ele>32.0</ele><time>2026-04-18T13:22:32.925Z</time></trkpt><trkpt lat="43.70059680907207" lon="10.939547927933607"><ele>32.0</ele><time>2026-04-18T13:22:34.925Z</time></trkpt><trkpt lat="43.70069169292202" lon="10.939607752114826"><ele>32.0</ele><time>2026-04-18T13:22:36.925Z</time></trkpt><trkpt lat="43.700787623406974" lon="10.939680498595365"><ele>32.0</ele><time>2026-04-18T13:22:38.925Z</time></trkpt><trkpt lat="43.70087853762392" lon="10.93973837026128"><ele>32.0</ele><time>2026-04-18T13:22:40.925Z</time></trkpt><trkpt lat="43.70097535429945" lon="10.939804776641422"><ele>32.0</ele><time>2026-04-18T13:22:42.925Z</time></trkpt><trkpt lat="43.70106544769573" lon="10.939870441200826"><ele>31.666666666666664</ele><time>2026-04-18T13:22:44.925Z</time></trkpt><trkpt lat="43.70114805107219" lon="10.939947827540351"><ele>31.333333333333332</ele><time>2026-04-18T13:22:46.925Z</time></trkpt><trkpt lat="43.70123239426431" lon="10.939985986285649"><ele>31.0</ele><time>2026-04-18T13:22:48.922Z</time></trkpt><trkpt lat="43.70130348090364" lon="10.940054716324969"><ele>30.666666666666664</ele><time>2026-04-18T13:22:50.922Z</time></trkpt><trkpt lat="43.70137322293337" lon="10.940110383209587"><ele>30.333333333333332</ele><time>2026-04-18T13:22:52.922Z</time></trkpt><trkpt lat="43.70144851422643" lon="10.94015393502898"><ele>30.0</ele><time>2026-04-18T13:22:54.922Z</time></trkpt><trkpt lat="43.7015173399563" lon="10.940206413520402"><ele>30.0</ele><time>2026-04-18T13:22:56.922Z</time></trkpt><trkpt lat="43.70158651644138" lon="10.940267106856998"><ele>30.0</ele><time>2026-04-18T13:22:58.922Z</time></trkpt><trkpt lat="43.70165622297332" lon="10.940316016766518"><ele>30.0</ele><time>2026-04-18T13:23:00.922Z</time></trkpt><trkpt lat="43.701718946196685" lon="10.94035387536653"><ele>30.0</ele><time>2026-04-18T13:23:02.922Z</time></trkpt><trkpt lat="43.70177840623252" lon="10.940411155950107"><ele>30.0</ele><time>2026-04-18T13:23:04.922Z</time></trkpt><trkpt lat="43.701843987478675" lon="10.940451848589817"><ele>30.0</ele><time>2026-04-18T13:23:06.922Z</time></trkpt><trkpt lat="43.7019039363891" lon="10.94050569275856"><ele>30.0</ele><time>2026-04-18T13:23:08.922Z</time></trkpt><trkpt lat="43.70196376874499" lon="10.940558725297631"><ele>30.0</ele><time>2026-04-18T13:23:10.922Z</time></trkpt><trkpt lat="43.702020062133705" lon="10.9406166171514"><ele>30.0</ele><time>2026-04-18T13:23:12.922Z</time></trkpt><trkpt lat="43.70207819611639" lon="10.940667902166417"><ele>30.0</ele><time>2026-04-18T13:23:14.922Z</time></trkpt><trkpt lat="43.702138096296224" lon="10.940716682432784"><ele>30.0</ele><time>2026-04-18T13:23:16.922Z</time></trkpt><trkpt lat="43.702189398772774" lon="10.940769783185917"><ele>30.0</ele><time>2026-04-18T13:23:18.922Z</time></trkpt><trkpt lat="43.70224363969935" lon="10.940828740607584"><ele>30.0</ele><time>2026-04-18T13:23:20.922Z</time></trkpt><trkpt lat="43.70229462485449" lon="10.940887388419359"><ele>30.0</ele><time>2026-04-18T13:23:22.922Z</time></trkpt><trkpt lat="43.702361578795404" lon="10.940974382139771"><ele>30.0</ele><time>2026-04-18T13:23:25.922Z</time></trkpt><trkpt lat="43.702253962351826" lon="10.941045935871468"><ele>30.0</ele><time>2026-04-18T13:23:29.922Z</time></trkpt><trkpt lat="43.7021836730115" lon="10.94106230219327"><ele>30.0</ele><time>2026-04-18T13:23:31.922Z</time></trkpt><trkpt lat="43.70211274861655" lon="10.941076755065351"><ele>30.0</ele><time>2026-04-18T13:23:33.922Z</time></trkpt><trkpt lat="43.702037253907875" lon="10.941096545827381"><ele>30.0</ele><time>2026-04-18T13:23:35.922Z</time></trkpt><trkpt lat="43.7019650490064" lon="10.941115895948757"><ele>30.0</ele><time>2026-04-18T13:23:37.922Z</time></trkpt><trkpt lat="43.70189190583634" lon="10.941136393407472"><ele>30.0</ele><time>2026-04-18T13:23:39.922Z</time></trkpt><trkpt lat="43.70182026785409" lon="10.941153378487078"><ele>30.0</ele><time>2026-04-18T13:23:41.922Z</time></trkpt><trkpt lat="43.70175496492276" lon="10.94116848417439"><ele>30.0</ele><time>2026-04-18T13:23:43.922Z</time></trkpt><trkpt lat="43.70167842507851" lon="10.941198096768137"><ele>30.0</ele><time>2026-04-18T13:23:45.922Z</time></trkpt><trkpt lat="43.701605112003854" lon="10.941219606627387"><ele>30.0</ele><time>2026-04-18T13:23:47.922Z</time></trkpt><trkpt lat="43.70153207473674" lon="10.941234857792514"><ele>30.0</ele><time>2026-04-18T13:23:49.922Z</time></trkpt><trkpt lat="43.70145525961402" lon="10.94124739734652"><ele>30.0</ele><time>2026-04-18T13:23:51.922Z</time></trkpt><trkpt lat="43.70138556109477" lon="10.941275832854013"><ele>30.0</ele><time>2026-04-18T13:23:53.922Z</time></trkpt><trkpt lat="43.70131617895906" lon="10.941298057497164"><ele>30.0</ele><time>2026-04-18T13:23:55.922Z</time></trkpt><trkpt lat="43.70124681169821" lon="10.941319872818735"><ele>30.0</ele><time>2026-04-18T13:23:57.922Z</time></trkpt><trkpt lat="43.70117909280198" lon="10.94134443974379"><ele>30.0</ele><time>2026-04-18T13:23:59.922Z</time></trkpt><trkpt lat="43.701112800410684" lon="10.941367651808147"><ele>30.0</ele><time>2026-04-18T13:24:01.922Z</time></trkpt><trkpt lat="43.701027393280974" lon="10.941399821096535"><ele>30.0</ele><time>2026-04-18T13:24:04.922Z</time></trkpt><trkpt lat="43.70096487533561" lon="10.941426963385352"><ele>30.0</ele><time>2026-04-18T13:24:06.922Z</time></trkpt><trkpt lat="43.70088589454834" lon="10.941430581190026"><ele>30.166666666666668</ele><time>2026-04-18T13:24:08.922Z</time></trkpt><trkpt lat="43.70082234173491" lon="10.941470567830697"><ele>30.333333333333336</ele><time>2026-04-18T13:24:10.922Z</time></trkpt><trkpt lat="43.70074869942585" lon="10.941486265235234"><ele>30.5</ele><time>2026-04-18T13:24:12.922Z</time></trkpt><trkpt lat="43.7006698832005" lon="10.94148733773734"><ele>30.666666666666668</ele><time>2026-04-18T13:24:14.922Z</time></trkpt><trkpt lat="43.70059371526012" lon="10.941506320775233"><ele>30.833333333333336</ele><time>2026-04-18T13:24:16.922Z</time></trkpt><trkpt lat="43.700515207596204" lon="10.941525886920564"><ele>31.0</ele><time>2026-04-18T13:24:18.922Z</time></trkpt><trkpt lat="43.700438406712344" lon="10.941547229946522"><ele>31.0</ele><time>2026-04-18T13:24:20.922Z</time></trkpt><trkpt lat="43.70036250191996" lon="10.941568932461688"><ele>31.0</ele><time>2026-04-18T13:24:22.922Z</time></trkpt><trkpt lat="43.70028782222119" lon="10.941585006471763"><ele>31.0</ele><time>2026-04-18T13:24:24.922Z</time></trkpt><trkpt lat="43.700214998889585" lon="10.941610935817309"><ele>31.0</ele><time>2026-04-18T13:24:27.922Z</time></trkpt><trkpt lat="43.70023540265626" lon="10.94181426186999"><ele>31.0</ele><time>2026-04-18T13:24:28.922Z</time></trkpt><trkpt lat="43.7002224226343" lon="10.941931070105722"><ele>31.000000000000004</ele><time>2026-04-18T13:24:30.922Z</time></trkpt><trkpt lat="43.70022957223604" lon="10.942051022995292"><ele>31.0</ele><time>2026-04-18T13:24:32.922Z</time></trkpt><trkpt lat="43.70023990080807" lon="10.942169493058971"><ele>31.0</ele><time>2026-04-18T13:24:34.922Z</time></trkpt><trkpt lat="43.700250904489565" lon="10.942291275958691"><ele>31.0</ele><time>2026-04-18T13:24:36.922Z</time></trkpt><trkpt lat="43.70026184410193" lon="10.942412345995919"><ele>31.000000000000004</ele><time>2026-04-18T13:24:38.922Z</time></trkpt><trkpt lat="43.700258049379315" lon="10.942531559551206"><ele>31.0</ele><time>2026-04-18T13:24:40.922Z</time></trkpt><trkpt lat="43.70025170468058" lon="10.942653097749453"><ele>30.8</ele><time>2026-04-18T13:24:42.922Z</time></trkpt><trkpt lat="43.70023676425035" lon="10.94277335173836"><ele>30.6</ele><time>2026-04-18T13:24:44.922Z</time></trkpt><trkpt lat="43.700216208315126" lon="10.942899003451618"><ele>30.4</ele><time>2026-04-18T13:24:46.922Z</time></trkpt><trkpt lat="43.70018022926663" lon="10.943010509060416"><ele>30.2</ele><time>2026-04-18T13:24:48.922Z</time></trkpt><trkpt lat="43.70012467722472" lon="10.943107063357969"><ele>30.0</ele><time>2026-04-18T13:24:50.922Z</time></trkpt><trkpt lat="43.70005554434768" lon="10.943190711723018"><ele>30.0</ele><time>2026-04-18T13:24:52.922Z</time></trkpt><trkpt lat="43.699995172737964" lon="10.94328790489946"><ele>30.0</ele><time>2026-04-18T13:24:54.92Z</time></trkpt><trkpt lat="43.69991185461205" lon="10.943348287428922"><ele>30.0</ele><time>2026-04-18T13:24:56.92Z</time></trkpt><trkpt lat="43.69984352036422" lon="10.943448897992653"><ele>30.0</ele><time>2026-04-18T13:24:58.92Z</time></trkpt><trkpt lat="43.69976734479778" lon="10.943536471721202"><ele>30.0</ele><time>2026-04-18T13:25:00.92Z</time></trkpt><trkpt lat="43.69970019594644" lon="10.943636896529465"><ele>30.2</ele><time>2026-04-18T13:25:02.92Z</time></trkpt><trkpt lat="43.69962334981149" lon="10.943732105905077"><ele>30.4</ele><time>2026-04-18T13:25:04.92Z</time></trkpt><trkpt lat="43.699599028469294" lon="10.943877192554963"><ele>30.6</ele><time>2026-04-18T13:25:06.92Z</time></trkpt><trkpt lat="43.69956155404057" lon="10.944006316850022"><ele>30.8</ele><time>2026-04-18T13:25:08.92Z</time></trkpt><trkpt lat="43.69952045666913" lon="10.944144821561826"><ele>31.0</ele><time>2026-04-18T13:25:10.92Z</time></trkpt><trkpt lat="43.699488353177095" lon="10.944277387458579"><ele>31.0</ele><time>2026-04-18T13:25:12.92Z</time></trkpt><trkpt lat="43.69946975494766" lon="10.944424123627472"><ele>31.0</ele><time>2026-04-18T13:25:14.92Z</time></trkpt><trkpt lat="43.69945654952963" lon="10.944567290668205"><ele>31.0</ele><time>2026-04-18T13:25:16.92Z</time></trkpt><trkpt lat="43.699439503195514" lon="10.944707609004006"><ele>31.0</ele><time>2026-04-18T13:25:18.92Z</time></trkpt><trkpt lat="43.699413970966106" lon="10.94484320613468"><ele>31.0</ele><time>2026-04-18T13:25:20.92Z</time></trkpt><trkpt lat="43.699383098607264" lon="10.944980345100873"><ele>31.8</ele><time>2026-04-18T13:25:22.92Z</time></trkpt><trkpt lat="43.699340016912934" lon="10.94511109183535"><ele>32.6</ele><time>2026-04-18T13:25:24.92Z</time></trkpt><trkpt lat="43.69928927847792" lon="10.945244986043173"><ele>33.4</ele><time>2026-04-18T13:25:26.92Z</time></trkpt><trkpt lat="43.699244190581624" lon="10.945382030674992"><ele>34.2</ele><time>2026-04-18T13:25:28.92Z</time></trkpt><trkpt lat="43.69921000883519" lon="10.945530568893256"><ele>35.0</ele><time>2026-04-18T13:25:30.92Z</time></trkpt><trkpt lat="43.69916394866646" lon="10.945665489496292"><ele>35.0</ele><time>2026-04-18T13:25:32.92Z</time></trkpt><trkpt lat="43.699154013728815" lon="10.945809206425444"><ele>35.0</ele><time>2026-04-18T13:25:34.92Z</time></trkpt><trkpt lat="43.699112590400226" lon="10.94594028861897"><ele>35.0</ele><time>2026-04-18T13:25:36.92Z</time></trkpt><trkpt lat="43.699086861756975" lon="10.946077990691979"><ele>35.0</ele><time>2026-04-18T13:25:38.92Z</time></trkpt><trkpt lat="43.699062412336716" lon="10.946212735940739"><ele>35.0</ele><time>2026-04-18T13:25:40.92Z</time></trkpt><trkpt lat="43.699038202663225" lon="10.946349196016605"><ele>35.0</ele><time>2026-04-18T13:25:42.92Z</time></trkpt><trkpt lat="43.69902698259491" lon="10.94649134485657"><ele>35.0</ele><time>2026-04-18T13:25:44.92Z</time></trkpt><trkpt lat="43.698986852974315" lon="10.946624148778271"><ele>35.0</ele><time>2026-04-18T13:25:46.92Z</time></trkpt><trkpt lat="43.69892416848042" lon="10.946741851693272"><ele>35.0</ele><time>2026-04-18T13:25:48.92Z</time></trkpt><trkpt lat="43.6988823423368" lon="10.946867529084033"><ele>35.0</ele><time>2026-04-18T13:25:50.92Z</time></trkpt><trkpt lat="43.698797590785865" lon="10.946962734184213"><ele>35.0</ele><time>2026-04-18T13:25:52.92Z</time></trkpt><trkpt lat="43.6987244000043" lon="10.947069674766391"><ele>35.0</ele><time>2026-04-18T13:25:54.92Z</time></trkpt><trkpt lat="43.69866984071033" lon="10.947195829478764"><ele>35.0</ele><time>2026-04-18T13:25:56.92Z</time></trkpt><trkpt lat="43.69861634710124" lon="10.947316177454054"><ele>35.0</ele><time>2026-04-18T13:25:58.92Z</time></trkpt><trkpt lat="43.69857224119228" lon="10.947443934779743"><ele>35.0</ele><time>2026-04-18T13:26:00.92Z</time></trkpt><trkpt lat="43.69852352249523" lon="10.947569266118489"><ele>35.0</ele><time>2026-04-18T13:26:02.92Z</time></trkpt><trkpt lat="43.69850979084544" lon="10.947722736224934"><ele>35.0</ele><time>2026-04-18T13:26:04.92Z</time></trkpt><trkpt lat="43.69847850474771" lon="10.947873524565995"><ele>35.0</ele><time>2026-04-18T13:26:06.92Z</time></trkpt><trkpt lat="43.698476136869346" lon="10.948029509147982"><ele>35.0</ele><time>2026-04-18T13:26:08.92Z</time></trkpt><trkpt lat="43.69848405306089" lon="10.948179877155654"><ele>35.0</ele><time>2026-04-18T13:26:10.92Z</time></trkpt><trkpt lat="43.69849107376064" lon="10.948326789846062"><ele>34.5</ele><time>2026-04-18T13:26:12.92Z</time></trkpt><trkpt lat="43.69849671188828" lon="10.948471904438929"><ele>34.0</ele><time>2026-04-18T13:26:14.92Z</time></trkpt><trkpt lat="43.698498227436836" lon="10.948627726396127"><ele>33.5</ele><time>2026-04-18T13:26:16.92Z</time></trkpt><trkpt lat="43.6984798015907" lon="10.94878161715365"><ele>33.0</ele><time>2026-04-18T13:26:18.92Z</time></trkpt><trkpt lat="43.69844946562407" lon="10.948941244432389"><ele>33.0</ele><time>2026-04-18T13:26:20.92Z</time></trkpt><trkpt lat="43.698412440089264" lon="10.949102763120935"><ele>33.0</ele><time>2026-04-18T13:26:22.92Z</time></trkpt><trkpt lat="43.69839228124925" lon="10.94918650260942"><ele>33.0</ele><time>2026-04-18T13:26:23.92Z</time></trkpt><trkpt lat="43.69838685656137" lon="10.949278613753687"><ele>33.0</ele><time>2026-04-18T13:26:24.92Z</time></trkpt><trkpt lat="43.69835060370881" lon="10.949355774643118"><ele>33.0</ele><time>2026-04-18T13:26:25.92Z</time></trkpt><trkpt lat="43.69832973601484" lon="10.94943831792297"><ele>33.0</ele><time>2026-04-18T13:26:26.92Z</time></trkpt><trkpt lat="43.69829421731863" lon="10.949605138406259"><ele>32.8</ele><time>2026-04-18T13:26:28.92Z</time></trkpt><trkpt lat="43.698279553730075" lon="10.949693970668855"><ele>32.599999999999994</ele><time>2026-04-18T13:26:29.92Z</time></trkpt><trkpt lat="43.698271601111" lon="10.949784491405909"><ele>32.400000000000006</ele><time>2026-04-18T13:26:30.92Z</time></trkpt><trkpt lat="43.698278003452415" lon="10.949949042062087"><ele>32.2</ele><time>2026-04-18T13:26:32.92Z</time></trkpt><trkpt lat="43.69829547256165" lon="10.950084150015954"><ele>32.0</ele><time>2026-04-18T13:26:34.92Z</time></trkpt><trkpt lat="43.69818336980302" lon="10.950147518921789"><ele>32.0</ele><time>2026-04-18T13:26:35.92Z</time></trkpt><trkpt lat="43.69814020463985" lon="10.950274327943214"><ele>32.0</ele><time>2026-04-18T13:26:37.92Z</time></trkpt><trkpt lat="43.69810305079341" lon="10.950395836486388"><ele>32.0</ele><time>2026-04-18T13:26:39.92Z</time></trkpt><trkpt lat="43.698046219378966" lon="10.950487425842049"><ele>32.0</ele><time>2026-04-18T13:26:41.92Z</time></trkpt><trkpt lat="43.69799812413181" lon="10.950589409505838"><ele>32.0</ele><time>2026-04-18T13:26:43.92Z</time></trkpt><trkpt lat="43.69795416959482" lon="10.950708207562704"><ele>32.0</ele><time>2026-04-18T13:26:45.92Z</time></trkpt><trkpt lat="43.69790824971899" lon="10.950813071705532"><ele>32.0</ele><time>2026-04-18T13:26:47.92Z</time></trkpt><trkpt lat="43.69785705540632" lon="10.950927764902328"><ele>32.0</ele><time>2026-04-18T13:26:49.92Z</time></trkpt><trkpt lat="43.69781183517492" lon="10.951051810003552"><ele>32.0</ele><time>2026-04-18T13:26:51.92Z</time></trkpt><trkpt lat="43.69777772103293" lon="10.951182563823199"><ele>32.0</ele><time>2026-04-18T13:26:53.92Z</time></trkpt><trkpt lat="43.697748297392685" lon="10.951310270188165"><ele>31.999999999999996</ele><time>2026-04-18T13:26:55.92Z</time></trkpt><trkpt lat="43.69771308822576" lon="10.95142157142604"><ele>32.0</ele><time>2026-04-18T13:26:57.92Z</time></trkpt><trkpt lat="43.697688144398676" lon="10.951550536585643"><ele>32.0</ele><time>2026-04-18T13:26:59.92Z</time></trkpt><trkpt lat="43.69767640666981" lon="10.951672924076115"><ele>32.0</ele><time>2026-04-18T13:27:01.918Z</time></trkpt><trkpt lat="43.69764761563761" lon="10.951760548363929"><ele>31.999999999999996</ele><time>2026-04-18T13:27:03.918Z</time></trkpt><trkpt lat="43.697647472010395" lon="10.951859353385439"><ele>32.0</ele><time>2026-04-18T13:27:04.918Z</time></trkpt><trkpt lat="43.69763960974702" lon="10.951976719588524"><ele>32.4</ele><time>2026-04-18T13:27:06.918Z</time></trkpt><trkpt lat="43.69763351677707" lon="10.952114114807936"><ele>32.800000000000004</ele><time>2026-04-18T13:27:08.918Z</time></trkpt><trkpt lat="43.69763214937837" lon="10.952234822241566"><ele>33.2</ele><time>2026-04-18T13:27:10.918Z</time></trkpt><trkpt lat="43.697632622420045" lon="10.952358698247153"><ele>33.6</ele><time>2026-04-18T13:27:12.918Z</time></trkpt><trkpt lat="43.69763656934774" lon="10.952482700209893"><ele>34.0</ele><time>2026-04-18T13:27:14.918Z</time></trkpt><trkpt lat="43.697645130580355" lon="10.952614775600974"><ele>34.0</ele><time>2026-04-18T13:27:16.918Z</time></trkpt><trkpt lat="43.69766387861862" lon="10.952744005961442"><ele>34.0</ele><time>2026-04-18T13:27:18.918Z</time></trkpt><trkpt lat="43.697694616748045" lon="10.952866107381876"><ele>34.0</ele><time>2026-04-18T13:27:20.918Z</time></trkpt><trkpt lat="43.697717232995906" lon="10.952988870893813"><ele>34.0</ele><time>2026-04-18T13:27:22.918Z</time></trkpt><trkpt lat="43.6977524667208" lon="10.953102272606348"><ele>34.0</ele><time>2026-04-18T13:27:24.918Z</time></trkpt><trkpt lat="43.69775532442992" lon="10.953220700140797"><ele>33.99999999999999</ele><time>2026-04-18T13:27:26.918Z</time></trkpt><trkpt lat="43.697768885985795" lon="10.953315334931167"><ele>34.0</ele><time>2026-04-18T13:27:28.918Z</time></trkpt><trkpt lat="43.69777867849383" lon="10.953408183197386"><ele>34.0</ele><time>2026-04-18T13:27:30.918Z</time></trkpt><trkpt lat="43.6977863293824" lon="10.95349709802713"><ele>34.0</ele><time>2026-04-18T13:27:32.918Z</time></trkpt><trkpt lat="43.697775914929274" lon="10.953630616960156"><ele>34.0</ele><time>2026-04-18T13:27:35.918Z</time></trkpt><trkpt lat="43.69775797241783" lon="10.953727752995853"><ele>33.99999999999999</ele><time>2026-04-18T13:27:37.918Z</time></trkpt><trkpt lat="43.69773579282107" lon="10.953810712249975"><ele>34.0</ele><time>2026-04-18T13:27:39.918Z</time></trkpt><trkpt lat="43.69779097771418" lon="10.953960481888679"><ele>34.0</ele><time>2026-04-18T13:27:43.918Z</time></trkpt><trkpt lat="43.697879972237935" lon="10.953996188941916"><ele>34.0</ele><time>2026-04-18T13:27:46.918Z</time></trkpt><trkpt lat="43.697963473333395" lon="10.954058725224261"><ele>34.0</ele><time>2026-04-18T13:27:49.918Z</time></trkpt><trkpt lat="43.698027694542084" lon="10.954081763815159"><ele>34.0</ele><time>2026-04-18T13:27:51.918Z</time></trkpt><trkpt lat="43.698089523742965" lon="10.954111565249233"><ele>34.0</ele><time>2026-04-18T13:27:53.918Z</time></trkpt><trkpt lat="43.698147780225035" lon="10.954153595834754"><ele>34.0</ele><time>2026-04-18T13:27:55.918Z</time></trkpt><trkpt lat="43.698207986092136" lon="10.95418713599887"><ele>34.0</ele><time>2026-04-18T13:27:57.918Z</time></trkpt><trkpt lat="43.69826380251827" lon="10.954228859503583"><ele>34.0</ele><time>2026-04-18T13:27:59.918Z</time></trkpt><trkpt lat="43.69835446092831" lon="10.95424050992203"><ele>34.0</ele><time>2026-04-18T13:28:02.918Z</time></trkpt><trkpt lat="43.69842704590334" lon="10.954203929415733"><ele>34.0</ele><time>2026-04-18T13:28:04.918Z</time></trkpt><trkpt lat="43.698503749018265" lon="10.954174912896821"><ele>34.0</ele><time>2026-04-18T13:28:06.918Z</time></trkpt><trkpt lat="43.69857905236335" lon="10.954129375763076"><ele>34.0</ele><time>2026-04-18T13:28:08.918Z</time></trkpt><trkpt lat="43.69866571047572" lon="10.954098862824093"><ele>33.8</ele><time>2026-04-18T13:28:10.918Z</time></trkpt><trkpt lat="43.69875596542885" lon="10.954076258263587"><ele>33.599999999999994</ele><time>2026-04-18T13:28:12.918Z</time></trkpt><trkpt lat="43.69884782283212" lon="10.954052017987825"><ele>33.4</ele><time>2026-04-18T13:28:14.918Z</time></trkpt><trkpt lat="43.69893142794808" lon="10.954025497404935"><ele>33.199999999999996</ele><time>2026-04-18T13:28:16.918Z</time></trkpt><trkpt lat="43.69902355207531" lon="10.953996542966587"><ele>33.0</ele><time>2026-04-18T13:28:18.918Z</time></trkpt><trkpt lat="43.69911191097492" lon="10.953977002136615"><ele>33.0</ele><time>2026-04-18T13:28:20.918Z</time></trkpt><trkpt lat="43.699204340798104" lon="10.95395396942977"><ele>33.0</ele><time>2026-04-18T13:28:22.918Z</time></trkpt><trkpt lat="43.69928729845433" lon="10.95392509705347"><ele>33.0</ele><time>2026-04-18T13:28:24.918Z</time></trkpt><trkpt lat="43.699371370266554" lon="10.95393467993136"><ele>33.0</ele><time>2026-04-18T13:28:26.918Z</time></trkpt><trkpt lat="43.69940487082005" lon="10.954114966583338"><ele>33.0</ele><time>2026-04-18T13:28:30.918Z</time></trkpt><trkpt lat="43.69940520594551" lon="10.95422349243438"><ele>32.8</ele><time>2026-04-18T13:28:32.918Z</time></trkpt><trkpt lat="43.699400226078886" lon="10.954341204178373"><ele>32.599999999999994</ele><time>2026-04-18T13:28:34.918Z</time></trkpt><trkpt lat="43.69939437410586" lon="10.954462411170512"><ele>32.400000000000006</ele><time>2026-04-18T13:28:36.918Z</time></trkpt><trkpt lat="43.69939227613379" lon="10.954589530663192"><ele>32.2</ele><time>2026-04-18T13:28:38.918Z</time></trkpt><trkpt lat="43.699385477787864" lon="10.954725659569183"><ele>32.0</ele><time>2026-04-18T13:28:40.918Z</time></trkpt><trkpt lat="43.69937314563204" lon="10.954858173514689"><ele>32.0</ele><time>2026-04-18T13:28:42.918Z</time></trkpt><trkpt lat="43.69936246407261" lon="10.954994340373808"><ele>32.0</ele><time>2026-04-18T13:28:44.918Z</time></trkpt><trkpt lat="43.699354172545334" lon="10.955133794812037"><ele>32.0</ele><time>2026-04-18T13:28:46.918Z</time></trkpt><trkpt lat="43.69935016946161" lon="10.955265373322732"><ele>32.0</ele><time>2026-04-18T13:28:48.918Z</time></trkpt><trkpt lat="43.699346956306826" lon="10.955403137917497"><ele>32.0</ele><time>2026-04-18T13:28:50.918Z</time></trkpt><trkpt lat="43.69934757479436" lon="10.955525034485083"><ele>32.0</ele><time>2026-04-18T13:28:52.918Z</time></trkpt><trkpt lat="43.69935517133658" lon="10.955657385439878"><ele>32.0</ele><time>2026-04-18T13:28:54.918Z</time></trkpt><trkpt lat="43.699366421615125" lon="10.955789313283656"><ele>32.0</ele><time>2026-04-18T13:28:56.918Z</time></trkpt><trkpt lat="43.69937974346656" lon="10.955919314133414"><ele>32.0</ele><time>2026-04-18T13:28:58.918Z</time></trkpt><trkpt lat="43.69939207547421" lon="10.95605039753349"><ele>32.0</ele><time>2026-04-18T13:29:00.918Z</time></trkpt><trkpt lat="43.699400286580975" lon="10.956181282623335"><ele>32.166666666666664</ele><time>2026-04-18T13:29:02.918Z</time></trkpt><trkpt lat="43.699407689406065" lon="10.956306015508902"><ele>32.33333333333333</ele><time>2026-04-18T13:29:04.918Z</time></trkpt><trkpt lat="43.699416906396706" lon="10.956417889347236"><ele>32.5</ele><time>2026-04-18T13:29:06.916Z</time></trkpt><trkpt lat="43.69942291668885" lon="10.956521937819645"><ele>32.666666666666664</ele><time>2026-04-18T13:29:08.916Z</time></trkpt><trkpt lat="43.699422998822925" lon="10.956638959284785"><ele>32.833333333333336</ele><time>2026-04-18T13:29:10.916Z</time></trkpt><trkpt lat="43.69941456365667" lon="10.956754631505548"><ele>33.0</ele><time>2026-04-18T13:29:12.916Z</time></trkpt><trkpt lat="43.69941162600588" lon="10.956869025466117"><ele>33.166666666666664</ele><time>2026-04-18T13:29:14.916Z</time></trkpt><trkpt lat="43.69941095314832" lon="10.956974680500108"><ele>33.333333333333336</ele><time>2026-04-18T13:29:16.916Z</time></trkpt><trkpt lat="43.69940588285511" lon="10.95709408782094"><ele>33.5</ele><time>2026-04-18T13:29:18.916Z</time></trkpt><trkpt lat="43.69940647254366" lon="10.957219919026606"><ele>33.66666666666667</ele><time>2026-04-18T13:29:20.916Z</time></trkpt><trkpt lat="43.69941276397616" lon="10.957341790844717"><ele>33.833333333333336</ele><time>2026-04-18T13:29:22.916Z</time></trkpt><trkpt lat="43.69942449433358" lon="10.957453561559499"><ele>34.0</ele><time>2026-04-18T13:29:24.916Z</time></trkpt><trkpt lat="43.69940930177259" lon="10.95758252384195"><ele>33.8</ele><time>2026-04-18T13:29:26.916Z</time></trkpt><trkpt lat="43.69942033970562" lon="10.957718264980574"><ele>33.599999999999994</ele><time>2026-04-18T13:29:28.916Z</time></trkpt><trkpt lat="43.6994298334454" lon="10.957847991232025"><ele>33.4</ele><time>2026-04-18T13:29:30.916Z</time></trkpt><trkpt lat="43.69943714250957" lon="10.957970843144246"><ele>33.199999999999996</ele><time>2026-04-18T13:29:32.916Z</time></trkpt><trkpt lat="43.69944449973859" lon="10.958094291458838"><ele>33.0</ele><time>2026-04-18T13:29:34.916Z</time></trkpt><trkpt lat="43.69946315900202" lon="10.958206960463796"><ele>33.0</ele><time>2026-04-18T13:29:36.916Z</time></trkpt><trkpt lat="43.69945224938414" lon="10.958314421246076"><ele>33.0</ele><time>2026-04-18T13:29:38.916Z</time></trkpt><trkpt lat="43.699452249383896" lon="10.958422223910137"><ele>33.0</ele><time>2026-04-18T13:29:40.916Z</time></trkpt><trkpt lat="43.69944755232668" lon="10.95852785305693"><ele>33.0</ele><time>2026-04-18T13:29:42.916Z</time></trkpt><trkpt lat="43.69943990953244" lon="10.958640902606547"><ele>33.0</ele><time>2026-04-18T13:29:44.916Z</time></trkpt><trkpt lat="43.699452739800584" lon="10.9587810431436"><ele>33.0</ele><time>2026-04-18T13:29:46.916Z</time></trkpt><trkpt lat="43.699427085786205" lon="10.958938623440767"><ele>32.8</ele><time>2026-04-18T13:29:48.916Z</time></trkpt><trkpt lat="43.699408404205236" lon="10.959097501351012"><ele>32.599999999999994</ele><time>2026-04-18T13:29:50.916Z</time></trkpt><trkpt lat="43.69939428237177" lon="10.959272032762765"><ele>32.400000000000006</ele><time>2026-04-18T13:29:52.916Z</time></trkpt><trkpt lat="43.69938246747819" lon="10.959366462638119"><ele>32.2</ele><time>2026-04-18T13:29:53.916Z</time></trkpt><trkpt lat="43.69936932265636" lon="10.959464205850646"><ele>32.0</ele><time>2026-04-18T13:29:54.916Z</time></trkpt><trkpt lat="43.69935764731086" lon="10.959563219815033"><ele>32.0</ele><time>2026-04-18T13:29:55.916Z</time></trkpt><trkpt lat="43.69934552037549" lon="10.959660779544915"><ele>31.999999999999996</ele><time>2026-04-18T13:29:56.916Z</time></trkpt><trkpt lat="43.69933423698092" lon="10.959761118520563"><ele>32.0</ele><time>2026-04-18T13:29:57.916Z</time></trkpt><trkpt lat="43.69932252005465" lon="10.959854569167701"><ele>32.0</ele><time>2026-04-18T13:29:58.916Z</time></trkpt><trkpt lat="43.6992976958559" lon="10.959949419001669"><ele>31.999999999999996</ele><time>2026-04-18T13:29:59.916Z</time></trkpt><trkpt lat="43.69928675796126" lon="10.96004386466907"><ele>32.0</ele><time>2026-04-18T13:30:00.916Z</time></trkpt><trkpt lat="43.699276137089406" lon="10.960134085232712"><ele>32.0</ele><time>2026-04-18T13:30:01.916Z</time></trkpt><trkpt lat="43.69926502655299" lon="10.960223976160743"><ele>32.0</ele><time>2026-04-18T13:30:02.916Z</time></trkpt><trkpt lat="43.699254086811536" lon="10.960312485538696"><ele>32.0</ele><time>2026-04-18T13:30:03.916Z</time></trkpt><trkpt lat="43.69924325110717" lon="10.960398611012383"><ele>32.0</ele><time>2026-04-18T13:30:04.916Z</time></trkpt><trkpt lat="43.69922141973749" lon="10.960566010426566"><ele>32.0</ele><time>2026-04-18T13:30:06.916Z</time></trkpt><trkpt lat="43.69920019277831" lon="10.960728775075319"><ele>32.0</ele><time>2026-04-18T13:30:08.916Z</time></trkpt><trkpt lat="43.699194200049504" lon="10.960887857810343"><ele>32.5</ele><time>2026-04-18T13:30:10.916Z</time></trkpt><trkpt lat="43.69917113003546" lon="10.961044326054305"><ele>33.0</ele><time>2026-04-18T13:30:12.916Z</time></trkpt><trkpt lat="43.699153019606165" lon="10.961204057247127"><ele>33.5</ele><time>2026-04-18T13:30:14.916Z</time></trkpt><trkpt lat="43.699137737112714" lon="10.961369364818259"><ele>34.0</ele><time>2026-04-18T13:30:16.916Z</time></trkpt><trkpt lat="43.699102591363676" lon="10.961518109286805"><ele>34.0</ele><time>2026-04-18T13:30:18.916Z</time></trkpt><trkpt lat="43.6990851476037" lon="10.961664445268225"><ele>34.0</ele><time>2026-04-18T13:30:20.916Z</time></trkpt><trkpt lat="43.699068029330945" lon="10.961808727193693"><ele>34.0</ele><time>2026-04-18T13:30:22.916Z</time></trkpt><trkpt lat="43.69905262367993" lon="10.961953449766591"><ele>34.0</ele><time>2026-04-18T13:30:24.916Z</time></trkpt><trkpt lat="43.69904055538345" lon="10.962095970549395"><ele>34.0</ele><time>2026-04-18T13:30:26.916Z</time></trkpt><trkpt lat="43.69903675406501" lon="10.962229103909177"><ele>34.0</ele><time>2026-04-18T13:30:28.916Z</time></trkpt><trkpt lat="43.69903459956174" lon="10.962356427159847"><ele>34.0</ele><time>2026-04-18T13:30:30.916Z</time></trkpt><trkpt lat="43.6990495709708" lon="10.96245566595216"><ele>34.0</ele><time>2026-04-18T13:30:32.916Z</time></trkpt><trkpt lat="43.69906066941019" lon="10.96255960378686"><ele>34.0</ele><time>2026-04-18T13:30:35.916Z</time></trkpt><trkpt lat="43.699073671680644" lon="10.962664362595953"><ele>34.0</ele><time>2026-04-18T13:30:37.916Z</time></trkpt><trkpt lat="43.69908910413683" lon="10.962774032768067"><ele>34.0</ele><time>2026-04-18T13:30:39.916Z</time></trkpt><trkpt lat="43.69910604428817" lon="10.962892504710428"><ele>34.0</ele><time>2026-04-18T13:30:41.916Z</time></trkpt><trkpt lat="43.69912357050445" lon="10.963018154205557"><ele>34.0</ele><time>2026-04-18T13:30:43.916Z</time></trkpt><trkpt lat="43.699137373822374" lon="10.963140120080041"><ele>34.0</ele><time>2026-04-18T13:30:45.916Z</time></trkpt><trkpt lat="43.699150848969126" lon="10.963259186079943"><ele>34.0</ele><time>2026-04-18T13:30:47.916Z</time></trkpt><trkpt lat="43.699164703448055" lon="10.963377963796546"><ele>34.0</ele><time>2026-04-18T13:30:49.916Z</time></trkpt><trkpt lat="43.69917932243122" lon="10.963496573565095"><ele>34.0</ele><time>2026-04-18T13:30:51.916Z</time></trkpt><trkpt lat="43.69921066170557" lon="10.963613488119945"><ele>34.333333333333336</ele><time>2026-04-18T13:30:53.916Z</time></trkpt><trkpt lat="43.69922338701126" lon="10.963732710201153"><ele>34.66666666666667</ele><time>2026-04-18T13:30:55.916Z</time></trkpt><trkpt lat="43.6992246577264" lon="10.963850174741102"><ele>35.0</ele><time>2026-04-18T13:30:57.916Z</time></trkpt><trkpt lat="43.69913240246941" lon="10.96390219892705"><ele>35.333333333333336</ele><time>2026-04-18T13:31:00.916Z</time></trkpt><trkpt lat="43.69906149990409" lon="10.9639107029147"><ele>35.666666666666664</ele><time>2026-04-18T13:31:03.916Z</time></trkpt><trkpt lat="43.69898871068312" lon="10.963912925105998"><ele>36.0</ele><time>2026-04-18T13:31:06.916Z</time></trkpt><trkpt lat="43.69891971749173" lon="10.963913626006956"><ele>36.00000000000001</ele><time>2026-04-18T13:31:09.916Z</time></trkpt><trkpt lat="43.69885654603762" lon="10.963914970463362"><ele>36.0</ele><time>2026-04-18T13:31:12.914Z</time></trkpt><trkpt lat="43.69877823777832" lon="10.96392698965277"><ele>36.0</ele><time>2026-04-18T13:31:16.914Z</time></trkpt><trkpt lat="43.69870180329687" lon="10.963928901267987"><ele>36.0</ele><time>2026-04-18T13:31:20.914Z</time></trkpt><trkpt lat="43.69863685363878" lon="10.963942083544932"><ele>36.0</ele><time>2026-04-18T13:31:23.914Z</time></trkpt><trkpt lat="43.69856022255312" lon="10.963942919813965"><ele>36.00000000000001</ele><time>2026-04-18T13:31:27.914Z</time></trkpt><trkpt lat="43.69848435830107" lon="10.963932614043877"><ele>36.0</ele><time>2026-04-18T13:31:31.914Z</time></trkpt><trkpt lat="43.698412460420755" lon="10.963956655743887"><ele>37.333333333333336</ele><time>2026-04-18T13:31:35.914Z</time></trkpt><trkpt lat="43.69833491811408" lon="10.963947981934684"><ele>38.666666666666664</ele><time>2026-04-18T13:31:39.914Z</time></trkpt><trkpt lat="43.698264363782926" lon="10.963955966523173"><ele>40.0</ele><time>2026-04-18T13:31:43.914Z</time></trkpt><trkpt lat="43.69819192804729" lon="10.96397969618912"><ele>41.33333333333333</ele><time>2026-04-18T13:31:47.914Z</time></trkpt><trkpt lat="43.69811631574086" lon="10.963995396488128"><ele>42.666666666666664</ele><time>2026-04-18T13:31:51.914Z</time></trkpt><trkpt lat="43.698041215326406" lon="10.964000361941329"><ele>44.0</ele><time>2026-04-18T13:31:55.914Z</time></trkpt><trkpt lat="43.69795732543534" lon="10.964004953306242"><ele>44.0</ele><time>2026-04-18T13:31:59.914Z</time></trkpt><trkpt lat="43.697879460614345" lon="10.96400550991367"><ele>44.0</ele><time>2026-04-18T13:32:03.914Z</time></trkpt><trkpt lat="43.69780936982377" lon="10.963998227622243"><ele>44.0</ele><time>2026-04-18T13:32:07.914Z</time></trkpt><trkpt lat="43.697741557573266" lon="10.963999189293203"><ele>44.0</ele><time>2026-04-18T13:32:10.914Z</time></trkpt><trkpt lat="43.697669487607605" lon="10.964043625600477"><ele>44.0</ele><time>2026-04-18T13:32:14.914Z</time></trkpt><trkpt lat="43.69769281682988" lon="10.964213857383466"><ele>44.0</ele><time>2026-04-18T13:32:17.914Z</time></trkpt><trkpt lat="43.697709552360124" lon="10.964308931631583"><ele>46.666666666666664</ele><time>2026-04-18T13:32:20.914Z</time></trkpt><trkpt lat="43.697706324408415" lon="10.964416381553194"><ele>49.33333333333333</ele><time>2026-04-18T13:32:23.914Z</time></trkpt><trkpt lat="43.69771458181393" lon="10.964507720972145"><ele>52.0</ele><time>2026-04-18T13:32:25.914Z</time></trkpt><trkpt lat="43.69771495586015" lon="10.964601697364998"><ele>54.666666666666664</ele><time>2026-04-18T13:32:28.914Z</time></trkpt><trkpt lat="43.6977156135038" lon="10.96471124640759"><ele>57.333333333333336</ele><time>2026-04-18T13:32:31.914Z</time></trkpt><trkpt lat="43.697716300338925" lon="10.96482565876348"><ele>60.0</ele><time>2026-04-18T13:32:34.914Z</time></trkpt><trkpt lat="43.697717582006746" lon="10.964938717759503"><ele>60.42857142857143</ele><time>2026-04-18T13:32:37.914Z</time></trkpt><trkpt lat="43.69771927464484" lon="10.965044153733427"><ele>60.857142857142854</ele><time>2026-04-18T13:32:40.914Z</time></trkpt><trkpt lat="43.697721596071645" lon="10.96515051394433"><ele>61.285714285714285</ele><time>2026-04-18T13:32:43.914Z</time></trkpt><trkpt lat="43.69774036342589" lon="10.96525016939342"><ele>61.714285714285715</ele><time>2026-04-18T13:32:46.914Z</time></trkpt><trkpt lat="43.697726023250475" lon="10.965353352898886"><ele>62.14285714285714</ele><time>2026-04-18T13:32:49.914Z</time></trkpt><trkpt lat="43.69774196352474" lon="10.965442904007455"><ele>62.57142857142857</ele><time>2026-04-18T13:32:52.914Z</time></trkpt><trkpt lat="43.697743787787424" lon="10.965540281926504"><ele>63.0</ele><time>2026-04-18T13:32:55.914Z</time></trkpt><trkpt lat="43.69774664451497" lon="10.96563185577631"><ele>63.0</ele><time>2026-04-18T13:32:58.914Z</time></trkpt><trkpt lat="43.69775015166163" lon="10.965726907286594"><ele>63.0</ele><time>2026-04-18T13:33:01.914Z</time></trkpt><trkpt lat="43.69774996544697" lon="10.965820522899104"><ele>63.0</ele><time>2026-04-18T13:33:04.914Z</time></trkpt><trkpt lat="43.697747692685766" lon="10.965909988177234"><ele>63.0</ele><time>2026-04-18T13:33:07.914Z</time></trkpt><trkpt lat="43.697749951326756" lon="10.966004175044006"><ele>63.0</ele><time>2026-04-18T13:33:10.914Z</time></trkpt><trkpt lat="43.69775164420802" lon="10.966097918987748"><ele>63.0</ele><time>2026-04-18T13:33:13.914Z</time></trkpt><trkpt lat="43.697753514775265" lon="10.966193482029986"><ele>63.0</ele><time>2026-04-18T13:33:16.914Z</time></trkpt><trkpt lat="43.69775296945002" lon="10.966291265513496"><ele>63.285714285714285</ele><time>2026-04-18T13:33:19.911Z</time></trkpt><trkpt lat="43.69775092431169" lon="10.966384386398735"><ele>63.57142857142857</ele><time>2026-04-18T13:33:22.911Z</time></trkpt><trkpt lat="43.69775442949444" lon="10.966478772027253"><ele>63.85714285714286</ele><time>2026-04-18T13:33:25.911Z</time></trkpt><trkpt lat="43.697757664046534" lon="10.966574224408308"><ele>64.14285714285714</ele><time>2026-04-18T13:33:28.911Z</time></trkpt><trkpt lat="43.69776014653928" lon="10.966688446946133"><ele>64.42857142857143</ele><time>2026-04-18T13:33:32.911Z</time></trkpt><trkpt lat="43.6977492756016" lon="10.966784620050683"><ele>64.71428571428572</ele><time>2026-04-18T13:33:35.911Z</time></trkpt><trkpt lat="43.697752408405506" lon="10.966876978630212"><ele>65.0</ele><time>2026-04-18T13:33:38.911Z</time></trkpt><trkpt lat="43.697764102904785" lon="10.96697725808259"><ele>64.71428571428572</ele><time>2026-04-18T13:33:42.911Z</time></trkpt><trkpt lat="43.69775637410843" lon="10.967070464216837"><ele>64.42857142857143</ele><time>2026-04-18T13:33:46.911Z</time></trkpt><trkpt lat="43.69775748517691" lon="10.967179236160037"><ele>64.14285714285714</ele><time>2026-04-18T13:33:51.911Z</time></trkpt><trkpt lat="43.69775843472468" lon="10.967272191687554"><ele>63.85714285714286</ele><time>2026-04-18T13:33:55.911Z</time></trkpt><trkpt lat="43.697757249466136" lon="10.96737224724467"><ele>63.57142857142857</ele><time>2026-04-18T13:33:58.911Z</time></trkpt><trkpt lat="43.6977646140634" lon="10.96746248898276"><ele>63.285714285714285</ele><time>2026-04-18T13:34:01.911Z</time></trkpt><trkpt lat="43.697757249465496" lon="10.967557271052337"><ele>63.0</ele><time>2026-04-18T13:35:24.908Z</time></trkpt><trkpt lat="43.6977572494654" lon="10.967654863308024"><ele>63.0</ele><time>2026-04-18T13:36:30.908Z</time></trkpt><trkpt lat="43.697757249464416" lon="10.9677617764054"><ele>63.0</ele><time>2026-04-18T13:36:34.908Z</time></trkpt><trkpt lat="43.69775706713424" lon="10.967849543915863"><ele>63.0</ele><time>2026-04-18T13:36:37.908Z</time></trkpt><trkpt lat="43.697756376006744" lon="10.967956987543044"><ele>63.0</ele><time>2026-04-18T13:36:40.908Z</time></trkpt><trkpt lat="43.697755618821795" lon="10.968074700644305"><ele>63.0</ele><time>2026-04-18T13:36:43.908Z</time></trkpt><trkpt lat="43.69775484226838" lon="10.968195424805636"><ele>63.0</ele><time>2026-04-18T13:36:46.908Z</time></trkpt><trkpt lat="43.69775413436589" lon="10.968305476303302"><ele>63.0</ele><time>2026-04-18T13:36:49.908Z</time></trkpt><trkpt lat="43.69775348579389" lon="10.9684063043878"><ele>63.0</ele><time>2026-04-18T13:36:52.908Z</time></trkpt><trkpt lat="43.69775160242619" lon="10.968517175971918"><ele>63.0</ele><time>2026-04-18T13:36:55.908Z</time></trkpt><trkpt lat="43.69774949573142" lon="10.968625563307432"><ele>63.0</ele><time>2026-04-18T13:36:58.908Z</time></trkpt><trkpt lat="43.69774710857488" lon="10.968734600981444"><ele>63.0</ele><time>2026-04-18T13:37:01.908Z</time></trkpt><trkpt lat="43.6977448785557" lon="10.968826543884248"><ele>63.0</ele><time>2026-04-18T13:37:04.908Z</time></trkpt><trkpt lat="43.69774238055455" lon="10.96892953551466"><ele>63.57142857142857</ele><time>2026-04-18T13:37:07.908Z</time></trkpt><trkpt lat="43.6977400343941" lon="10.969026266930324"><ele>64.14285714285714</ele><time>2026-04-18T13:37:10.908Z</time></trkpt><trkpt lat="43.697748670637615" lon="10.969113284161764"><ele>64.71428571428572</ele><time>2026-04-18T13:37:13.908Z</time></trkpt><trkpt lat="43.697746084132525" lon="10.9692003126953"><ele>65.28571428571428</ele><time>2026-04-18T13:37:16.908Z</time></trkpt><trkpt lat="43.69774937104299" lon="10.969320070686239"><ele>65.85714285714286</ele><time>2026-04-18T13:37:20.908Z</time></trkpt><trkpt lat="43.69774113275759" lon="10.96942430609399"><ele>66.42857142857143</ele><time>2026-04-18T13:37:23.908Z</time></trkpt><trkpt lat="43.697743097902595" lon="10.96951601757487"><ele>67.0</ele><time>2026-04-18T13:37:26.908Z</time></trkpt><trkpt lat="43.69772692387697" lon="10.96963808726497"><ele>67.33333333333333</ele><time>2026-04-18T13:37:29.908Z</time></trkpt><trkpt lat="43.69772483719847" lon="10.969742635179387"><ele>67.66666666666666</ele><time>2026-04-18T13:37:32.905Z</time></trkpt><trkpt lat="43.69773706226445" lon="10.969847245000409"><ele>68.0</ele><time>2026-04-18T13:37:35.905Z</time></trkpt><trkpt lat="43.697735123078715" lon="10.969959669694012"><ele>68.33333333333333</ele><time>2026-04-18T13:37:38.905Z</time></trkpt><trkpt lat="43.69773382921499" lon="10.970066223698263"><ele>68.66666666666667</ele><time>2026-04-18T13:37:41.904Z</time></trkpt><trkpt lat="43.69773158533732" lon="10.97017681006326"><ele>69.0</ele><time>2026-04-18T13:37:44.904Z</time></trkpt><trkpt lat="43.6977297208183" lon="10.970284482256602"><ele>69.16666666666667</ele><time>2026-04-18T13:37:47.904Z</time></trkpt><trkpt lat="43.69772757747427" lon="10.97039246244251"><ele>69.33333333333333</ele><time>2026-04-18T13:37:50.904Z</time></trkpt><trkpt lat="43.69772711980029" lon="10.970496316667035"><ele>69.5</ele><time>2026-04-18T13:37:53.904Z</time></trkpt><trkpt lat="43.6977273984889" lon="10.97060590122584"><ele>69.66666666666666</ele><time>2026-04-18T13:37:56.904Z</time></trkpt><trkpt lat="43.69772501882476" lon="10.97071800336179"><ele>69.83333333333333</ele><time>2026-04-18T13:37:59.904Z</time></trkpt><trkpt lat="43.69772400213397" lon="10.970824200123136"><ele>70.0</ele><time>2026-04-18T13:38:02.904Z</time></trkpt><trkpt lat="43.69772253784582" lon="10.970937090397031"><ele>70.33333333333333</ele><time>2026-04-18T13:38:05.904Z</time></trkpt><trkpt lat="43.69772183058643" lon="10.971045554525949"><ele>70.66666666666666</ele><time>2026-04-18T13:38:08.904Z</time></trkpt><trkpt lat="43.69772177262395" lon="10.971154336626867"><ele>71.0</ele><time>2026-04-18T13:38:11.904Z</time></trkpt><trkpt lat="43.69771879196291" lon="10.9712637843493"><ele>71.33333333333333</ele><time>2026-04-18T13:38:14.904Z</time></trkpt><trkpt lat="43.69771888682738" lon="10.97137303465234"><ele>71.66666666666667</ele><time>2026-04-18T13:38:17.904Z</time></trkpt><trkpt lat="43.697716392312515" lon="10.971480292380717"><ele>72.0</ele><time>2026-04-18T13:38:20.904Z</time></trkpt><trkpt lat="43.69770082996065" lon="10.971585552908605"><ele>72.0</ele><time>2026-04-18T13:38:23.904Z</time></trkpt><trkpt lat="43.697715097190695" lon="10.971694818019724"><ele>72.0</ele><time>2026-04-18T13:38:26.904Z</time></trkpt><trkpt lat="43.69769871377307" lon="10.971792177005657"><ele>72.0</ele><time>2026-04-18T13:38:29.904Z</time></trkpt><trkpt lat="43.69769730534517" lon="10.971893869931499"><ele>72.0</ele><time>2026-04-18T13:38:32.904Z</time></trkpt><trkpt lat="43.69769509137032" lon="10.972003917539684"><ele>72.0</ele><time>2026-04-18T13:38:35.904Z</time></trkpt><trkpt lat="43.697692874603895" lon="10.97211410379493"><ele>72.0</ele><time>2026-04-18T13:38:38.904Z</time></trkpt><trkpt lat="43.69770261669795" lon="10.97223583582045"><ele>72.0</ele><time>2026-04-18T13:38:41.904Z</time></trkpt><trkpt lat="43.69768967357015" lon="10.972358515515296"><ele>72.0</ele><time>2026-04-18T13:38:44.904Z</time></trkpt><trkpt lat="43.69768479576766" lon="10.97246539591334"><ele>72.0</ele><time>2026-04-18T13:38:47.904Z</time></trkpt><trkpt lat="43.69770422234217" lon="10.972580370676171"><ele>72.0</ele><time>2026-04-18T13:38:49.904Z</time></trkpt><trkpt lat="43.69768111434626" lon="10.972687326560628"><ele>72.0</ele><time>2026-04-18T13:38:51.904Z</time></trkpt><trkpt lat="43.69768597803095" lon="10.972786003748732"><ele>72.0</ele><time>2026-04-18T13:38:53.904Z</time></trkpt><trkpt lat="43.69765744629685" lon="10.972882595647633"><ele>71.5</ele><time>2026-04-18T13:38:55.904Z</time></trkpt><trkpt lat="43.697640132893106" lon="10.972973638591926"><ele>71.0</ele><time>2026-04-18T13:38:58.904Z</time></trkpt><trkpt lat="43.69756490829963" lon="10.972959944542296"><ele>70.5</ele><time>2026-04-18T13:38:59.904Z</time></trkpt><trkpt lat="43.69749148849197" lon="10.9729946380788"><ele>70.0</ele><time>2026-04-18T13:39:02.904Z</time></trkpt><trkpt lat="43.697419382723254" lon="10.973038160140861"><ele>69.5</ele><time>2026-04-18T13:39:05.904Z</time></trkpt><trkpt lat="43.69734873274469" lon="10.973083127515467"><ele>69.0</ele><time>2026-04-18T13:39:08.904Z</time></trkpt><trkpt lat="43.69726885591543" lon="10.973068433571816"><ele>69.0</ele><time>2026-04-18T13:39:11.904Z</time></trkpt><trkpt lat="43.69719116799996" lon="10.973172214753655"><ele>69.0</ele><time>2026-04-18T13:39:15.904Z</time></trkpt><trkpt lat="43.697176631061396" lon="10.973293266921155"><ele>69.0</ele><time>2026-04-18T13:39:18.904Z</time></trkpt><trkpt lat="43.69717415139617" lon="10.973404907281639"><ele>69.0</ele><time>2026-04-18T13:39:21.904Z</time></trkpt><trkpt lat="43.69718066972969" lon="10.973515641991298"><ele>69.0</ele><time>2026-04-18T13:39:24.904Z</time></trkpt><trkpt lat="43.69718189454576" lon="10.973606608424884"><ele>69.0</ele><time>2026-04-18T13:39:27.904Z</time></trkpt><trkpt lat="43.697180782982926" lon="10.973701048775212"><ele>68.71428571428572</ele><time>2026-04-18T13:39:30.904Z</time></trkpt><trkpt lat="43.697170775556074" lon="10.973798811933655"><ele>68.42857142857143</ele><time>2026-04-18T13:39:33.904Z</time></trkpt><trkpt lat="43.69713862582281" lon="10.973878390276045"><ele>68.14285714285714</ele><time>2026-04-18T13:39:36.901Z</time></trkpt><trkpt lat="43.69709393599178" lon="10.973957200975152"><ele>67.85714285714286</ele><time>2026-04-18T13:39:39.901Z</time></trkpt><trkpt lat="43.69702488787858" lon="10.973996100675189"><ele>67.57142857142857</ele><time>2026-04-18T13:39:42.901Z</time></trkpt><trkpt lat="43.69695499938917" lon="10.973982798774342"><ele>67.28571428571429</ele><time>2026-04-18T13:39:45.901Z</time></trkpt><trkpt lat="43.69687576252516" lon="10.973967269964426"><ele>67.0</ele><time>2026-04-18T13:39:49.901Z</time></trkpt><trkpt lat="43.69679561940397" lon="10.973985986932322"><ele>67.0</ele><time>2026-04-18T13:39:52.901Z</time></trkpt><trkpt lat="43.696749773650275" lon="10.974054303272284"><ele>67.0</ele><time>2026-04-18T13:39:54.901Z</time></trkpt><trkpt lat="43.69673894948957" lon="10.974187773280882"><ele>67.0</ele><time>2026-04-18T13:39:56.901Z</time></trkpt><trkpt lat="43.6967441024671" lon="10.974318711643594"><ele>67.0</ele><time>2026-04-18T13:39:58.901Z</time></trkpt><trkpt lat="43.69677152439262" lon="10.974406205917699"><ele>67.0</ele><time>2026-04-18T13:39:59.901Z</time></trkpt><trkpt lat="43.69680875530699" lon="10.974481325876367"><ele>67.0</ele><time>2026-04-18T13:40:00.901Z</time></trkpt><trkpt lat="43.6968395847244" lon="10.97456885248998"><ele>67.0</ele><time>2026-04-18T13:40:01.901Z</time></trkpt><trkpt lat="43.696875471051705" lon="10.974666012807239"><ele>67.0</ele><time>2026-04-18T13:40:02.901Z</time></trkpt><trkpt lat="43.696907379878745" lon="10.974748320844663"><ele>67.0</ele><time>2026-04-18T13:40:03.901Z</time></trkpt><trkpt lat="43.696945481624525" lon="10.974842630603868"><ele>67.0</ele><time>2026-04-18T13:40:04.901Z</time></trkpt><trkpt lat="43.696984459004284" lon="10.974934969940529"><ele>67.0</ele><time>2026-04-18T13:40:05.901Z</time></trkpt><trkpt lat="43.69702329102966" lon="10.97502696487268"><ele>67.0</ele><time>2026-04-18T13:40:06.901Z</time></trkpt><trkpt lat="43.697056904441006" lon="10.975106597277893"><ele>67.0</ele><time>2026-04-18T13:40:07.901Z</time></trkpt><trkpt lat="43.69717106508149" lon="10.97513990180705"><ele>67.42857142857143</ele><time>2026-04-18T13:40:08.901Z</time></trkpt><trkpt lat="43.697234442636095" lon="10.975195614246896"><ele>67.85714285714286</ele><time>2026-04-18T13:40:09.901Z</time></trkpt><trkpt lat="43.69730949993185" lon="10.975250475731682"><ele>68.28571428571428</ele><time>2026-04-18T13:40:10.901Z</time></trkpt><trkpt lat="43.69735830655965" lon="10.975308135110511"><ele>68.71428571428572</ele><time>2026-04-18T13:40:11.901Z</time></trkpt><trkpt lat="43.69741495254865" lon="10.975375085599131"><ele>69.14285714285714</ele><time>2026-04-18T13:40:13.901Z</time></trkpt><trkpt lat="43.69745614014377" lon="10.975449021488581"><ele>69.57142857142857</ele><time>2026-04-18T13:40:16.901Z</time></trkpt><trkpt lat="43.697495383963556" lon="10.975517939138914"><ele>70.0</ele><time>2026-04-18T13:40:22.901Z</time></trkpt><trkpt lat="43.6975637019296" lon="10.975607603229545"><ele>70.0</ele><time>2026-04-18T13:40:25.901Z</time></trkpt><trkpt lat="43.69758862108044" lon="10.97571368901173"><ele>70.0</ele><time>2026-04-18T13:40:27.901Z</time></trkpt><trkpt lat="43.69759107918161" lon="10.975842658179147"><ele>70.0</ele><time>2026-04-18T13:40:29.901Z</time></trkpt><trkpt lat="43.69764155442868" lon="10.97592805296717"><ele>70.0</ele><time>2026-04-18T13:40:31.901Z</time></trkpt><trkpt lat="43.697665418932516" lon="10.976023869356611"><ele>70.0</ele><time>2026-04-18T13:40:33.901Z</time></trkpt><trkpt lat="43.69767334844732" lon="10.976129809593445"><ele>70.0</ele><time>2026-04-18T13:40:35.901Z</time></trkpt><trkpt lat="43.69771356584929" lon="10.976256569367314"><ele>69.42857142857143</ele><time>2026-04-18T13:40:38.901Z</time></trkpt><trkpt lat="43.69776153416425" lon="10.97634975754796"><ele>68.85714285714286</ele><time>2026-04-18T13:40:40.901Z</time></trkpt><trkpt lat="43.69777756177681" lon="10.976448122692533"><ele>68.28571428571428</ele><time>2026-04-18T13:40:42.901Z</time></trkpt><trkpt lat="43.697805639807264" lon="10.976530706642803"><ele>67.71428571428572</ele><time>2026-04-18T13:40:44.901Z</time></trkpt><trkpt lat="43.69784542814928" lon="10.976603111931789"><ele>67.14285714285714</ele><time>2026-04-18T13:40:46.901Z</time></trkpt><trkpt lat="43.69787791389946" lon="10.976692913635826"><ele>66.57142857142857</ele><time>2026-04-18T13:40:48.901Z</time></trkpt><trkpt lat="43.69789726242442" lon="10.976791613870914"><ele>66.0</ele><time>2026-04-18T13:40:50.901Z</time></trkpt><trkpt lat="43.69792822417084" lon="10.976876833428731"><ele>66.0</ele><time>2026-04-18T13:40:52.901Z</time></trkpt><trkpt lat="43.69795827734534" lon="10.976959552089205"><ele>66.0</ele><time>2026-04-18T13:40:54.901Z</time></trkpt><trkpt lat="43.697987013130785" lon="10.977038644625143"><ele>66.0</ele><time>2026-04-18T13:40:56.901Z</time></trkpt><trkpt lat="43.698018061230776" lon="10.977124102913555"><ele>66.0</ele><time>2026-04-18T13:40:58.901Z</time></trkpt><trkpt lat="43.698057997774804" lon="10.977203973311871"><ele>66.0</ele><time>2026-04-18T13:41:00.901Z</time></trkpt><trkpt lat="43.69810349271193" lon="10.977290610739363"><ele>66.0</ele><time>2026-04-18T13:41:02.901Z</time></trkpt><trkpt lat="43.6981654077137" lon="10.977392636034113"><ele>66.0</ele><time>2026-04-18T13:41:04.901Z</time></trkpt><trkpt lat="43.69824941940755" lon="10.977480039575532"><ele>66.6</ele><time>2026-04-18T13:41:06.901Z</time></trkpt><trkpt lat="43.69830298649145" lon="10.977598162405567"><ele>67.19999999999999</ele><time>2026-04-18T13:41:08.901Z</time></trkpt><trkpt lat="43.698365261178054" lon="10.97771188545016"><ele>67.80000000000001</ele><time>2026-04-18T13:41:10.901Z</time></trkpt><trkpt lat="43.69843287375769" lon="10.97782303063517"><ele>68.4</ele><time>2026-04-18T13:41:12.901Z</time></trkpt><trkpt lat="43.69850237570694" lon="10.977929823720688"><ele>69.0</ele><time>2026-04-18T13:41:14.901Z</time></trkpt><trkpt lat="43.69854481574989" lon="10.97799503481329"><ele>66.0</ele><time>2026-04-18T13:41:15.901Z</time></trkpt><trkpt lat="43.698616190764305" lon="10.978106151275405"><ele>63.00000000000001</ele><time>2026-04-18T13:41:17.901Z</time></trkpt><trkpt lat="43.69866692451668" lon="10.978191369700514"><ele>60.00000000000001</ele><time>2026-04-18T13:41:19.901Z</time></trkpt><trkpt lat="43.69872498145033" lon="10.9782956701943"><ele>57.0</ele><time>2026-04-18T13:41:21.901Z</time></trkpt><trkpt lat="43.6987943255215" lon="10.978433811343136"><ele>54.0</ele><time>2026-04-18T13:41:23.901Z</time></trkpt><trkpt lat="43.69884584106769" lon="10.978507907111053"><ele>54.0</ele><time>2026-04-18T13:41:24.901Z</time></trkpt><trkpt lat="43.69889596622757" lon="10.97857301843614"><ele>54.0</ele><time>2026-04-18T13:41:28.901Z</time></trkpt><trkpt lat="43.69894981323192" lon="10.978636345871719"><ele>54.0</ele><time>2026-04-18T13:41:30.901Z</time></trkpt><trkpt lat="43.699001957937185" lon="10.978695601304441"><ele>54.0</ele><time>2026-04-18T13:41:32.901Z</time></trkpt><trkpt lat="43.69906418013699" lon="10.978756819020663"><ele>54.0</ele><time>2026-04-18T13:41:34.901Z</time></trkpt><trkpt lat="43.699125795699096" lon="10.97881067043315"><ele>54.0</ele><time>2026-04-18T13:41:36.901Z</time></trkpt><trkpt lat="43.699187992642074" lon="10.978861814903913"><ele>54.0</ele><time>2026-04-18T13:41:38.901Z</time></trkpt><trkpt lat="43.69924218649051" lon="10.978906378581328"><ele>54.0</ele><time>2026-04-18T13:41:40.901Z</time></trkpt><trkpt lat="43.69931491069687" lon="10.97896795908825"><ele>54.0</ele><time>2026-04-18T13:41:43.897Z</time></trkpt><trkpt lat="43.699373380113535" lon="10.97902494647789"><ele>54.0</ele><time>2026-04-18T13:41:45.897Z</time></trkpt><trkpt lat="43.69946378869319" lon="10.97911350595303"><ele>54.0</ele><time>2026-04-18T13:41:47.897Z</time></trkpt><trkpt lat="43.6995297294309" lon="10.979164521396203"><ele>54.0</ele><time>2026-04-18T13:41:49.897Z</time></trkpt><trkpt lat="43.69961365981831" lon="10.979208966228235"><ele>54.0</ele><time>2026-04-18T13:41:51.897Z</time></trkpt><trkpt lat="43.699666206541394" lon="10.979265769510166"><ele>52.0</ele><time>2026-04-18T13:41:53.897Z</time></trkpt><trkpt lat="43.699735596837655" lon="10.979311443167825"><ele>50.00000000000001</ele><time>2026-04-18T13:41:54.897Z</time></trkpt><trkpt lat="43.699794447290785" lon="10.979366608602602"><ele>48.0</ele><time>2026-04-18T13:41:55.897Z</time></trkpt><trkpt lat="43.699867336549254" lon="10.97940082467007"><ele>46.0</ele><time>2026-04-18T13:41:57.897Z</time></trkpt><trkpt lat="43.69997772440776" lon="10.979527818789416"><ele>44.0</ele><time>2026-04-18T13:42:00.897Z</time></trkpt><trkpt lat="43.700016936781374" lon="10.979645045677287"><ele>44.0</ele><time>2026-04-18T13:42:02.897Z</time></trkpt><trkpt lat="43.70007002910954" lon="10.97975468044762"><ele>44.0</ele><time>2026-04-18T13:42:04.897Z</time></trkpt><trkpt lat="43.70010573815985" lon="10.979872110719313"><ele>44.0</ele><time>2026-04-18T13:42:06.897Z</time></trkpt><trkpt lat="43.70013415891007" lon="10.980010418265286"><ele>44.0</ele><time>2026-04-18T13:42:08.897Z</time></trkpt><trkpt lat="43.700166796063776" lon="10.980118165354448"><ele>44.0</ele><time>2026-04-18T13:42:10.897Z</time></trkpt><trkpt lat="43.700195038382724" lon="10.980218135757594"><ele>44.285714285714285</ele><time>2026-04-18T13:42:12.897Z</time></trkpt><trkpt lat="43.70021961150097" lon="10.980318370495551"><ele>44.57142857142857</ele><time>2026-04-18T13:42:14.897Z</time></trkpt><trkpt lat="43.700242767844486" lon="10.98041282597192"><ele>44.85714285714286</ele><time>2026-04-18T13:42:16.897Z</time></trkpt><trkpt lat="43.70026798327958" lon="10.980508629446954"><ele>45.14285714285714</ele><time>2026-04-18T13:42:18.897Z</time></trkpt><trkpt lat="43.70030013235116" lon="10.980602277430322"><ele>45.42857142857142</ele><time>2026-04-18T13:42:20.897Z</time></trkpt><trkpt lat="43.700346582462856" lon="10.98068440740859"><ele>45.714285714285715</ele><time>2026-04-18T13:42:22.897Z</time></trkpt><trkpt lat="43.700387958291394" lon="10.980758858524108"><ele>46.0</ele><time>2026-04-18T13:42:24.897Z</time></trkpt><trkpt lat="43.70042983299887" lon="10.980829937950096"><ele>45.333333333333336</ele><time>2026-04-18T13:42:26.897Z</time></trkpt><trkpt lat="43.70050223990363" lon="10.980908314069524"><ele>44.66666666666667</ele><time>2026-04-18T13:42:28.897Z</time></trkpt><trkpt lat="43.70056472611467" lon="10.981010622509114"><ele>44.0</ele><time>2026-04-18T13:42:31.897Z</time></trkpt><trkpt lat="43.700612853883555" lon="10.98108429238923"><ele>43.333333333333336</ele><time>2026-04-18T13:42:33.897Z</time></trkpt><trkpt lat="43.70067416822559" lon="10.981174592119892"><ele>42.666666666666664</ele><time>2026-04-18T13:42:35.897Z</time></trkpt><trkpt lat="43.70074206819812" lon="10.981266919375122"><ele>42.0</ele><time>2026-04-18T13:42:37.897Z</time></trkpt><trkpt lat="43.70079323342503" lon="10.981379072153052"><ele>42.0</ele><time>2026-04-18T13:42:39.897Z</time></trkpt><trkpt lat="43.70087952790933" lon="10.981454569601539"><ele>42.0</ele><time>2026-04-18T13:42:41.897Z</time></trkpt><trkpt lat="43.70092581377305" lon="10.981537223620675"><ele>42.0</ele><time>2026-04-18T13:42:43.897Z</time></trkpt><trkpt lat="43.700944332148026" lon="10.981622671460059"><ele>42.0</ele><time>2026-04-18T13:42:45.897Z</time></trkpt><trkpt lat="43.70092624939719" lon="10.981738281678458"><ele>42.0</ele><time>2026-04-18T13:42:48.897Z</time></trkpt><trkpt lat="43.700931580496956" lon="10.98186711518412"><ele>42.0</ele><time>2026-04-18T13:42:51.897Z</time></trkpt><trkpt lat="43.70094216760595" lon="10.98196249859266"><ele>42.166666666666664</ele><time>2026-04-18T13:42:53.897Z</time></trkpt><trkpt lat="43.70096350021324" lon="10.982100049213063"><ele>42.333333333333336</ele><time>2026-04-18T13:42:56.897Z</time></trkpt><trkpt lat="43.70098128457255" lon="10.982199491807343"><ele>42.5</ele><time>2026-04-18T13:42:58.897Z</time></trkpt><trkpt lat="43.701001438395224" lon="10.982302569898543"><ele>42.66666666666667</ele><time>2026-04-18T13:43:00.897Z</time></trkpt><trkpt lat="43.70102016995259" lon="10.982398373662067"><ele>42.833333333333336</ele><time>2026-04-18T13:43:02.897Z</time></trkpt><trkpt lat="43.70103937280761" lon="10.982499567575086"><ele>43.0</ele><time>2026-04-18T13:43:04.897Z</time></trkpt><trkpt lat="43.70105659323456" lon="10.982597890710434"><ele>43.16666666666667</ele><time>2026-04-18T13:43:06.897Z</time></trkpt><trkpt lat="43.701078063134986" lon="10.982714232406803"><ele>43.333333333333336</ele><time>2026-04-18T13:43:08.897Z</time></trkpt><trkpt lat="43.70110059180757" lon="10.982818068190152"><ele>43.5</ele><time>2026-04-18T13:43:10.897Z</time></trkpt><trkpt lat="43.701131067441445" lon="10.982910106367568"><ele>43.666666666666664</ele><time>2026-04-18T13:43:12.897Z</time></trkpt><trkpt lat="43.701203630326006" lon="10.983005112684765"><ele>43.83333333333333</ele><time>2026-04-18T13:43:14.897Z</time></trkpt><trkpt lat="43.70126316878581" lon="10.983127477960569"><ele>44.0</ele><time>2026-04-18T13:43:16.897Z</time></trkpt><trkpt lat="43.70132978223949" lon="10.983252644732469"><ele>43.400000000000006</ele><time>2026-04-18T13:43:18.897Z</time></trkpt><trkpt lat="43.70139070561776" lon="10.983380140870464"><ele>42.8</ele><time>2026-04-18T13:43:20.897Z</time></trkpt><trkpt lat="43.70145612309901" lon="10.98349742679774"><ele>42.2</ele><time>2026-04-18T13:43:22.897Z</time></trkpt><trkpt lat="43.70151731151299" lon="10.983615469027939"><ele>41.599999999999994</ele><time>2026-04-18T13:43:24.897Z</time></trkpt><trkpt lat="43.701577101195866" lon="10.983731630908325"><ele>41.0</ele><time>2026-04-18T13:43:26.897Z</time></trkpt><trkpt lat="43.701636098742064" lon="10.983842573027038"><ele>41.0</ele><time>2026-04-18T13:43:28.897Z</time></trkpt><trkpt lat="43.701695844652406" lon="10.983962121330883"><ele>41.0</ele><time>2026-04-18T13:43:30.897Z</time></trkpt><trkpt lat="43.70175877046655" lon="10.984084611097755"><ele>41.0</ele><time>2026-04-18T13:43:32.897Z</time></trkpt><trkpt lat="43.70181746552567" lon="10.984208265380145"><ele>41.0</ele><time>2026-04-18T13:43:34.897Z</time></trkpt><trkpt lat="43.701866348724494" lon="10.984347224252282"><ele>41.0</ele><time>2026-04-18T13:43:36.897Z</time></trkpt><trkpt lat="43.70193702159798" lon="10.984466011737226"><ele>41.4</ele><time>2026-04-18T13:43:38.897Z</time></trkpt><trkpt lat="43.70199934563786" lon="10.984592639136885"><ele>41.8</ele><time>2026-04-18T13:43:40.897Z</time></trkpt><trkpt lat="43.70206752032795" lon="10.984716957319637"><ele>42.199999999999996</ele><time>2026-04-18T13:43:42.897Z</time></trkpt><trkpt lat="43.70213836285235" lon="10.984836487451936"><ele>42.599999999999994</ele><time>2026-04-18T13:43:44.897Z</time></trkpt><trkpt lat="43.70220844506585" lon="10.984952643282206"><ele>43.0</ele><time>2026-04-18T13:43:46.897Z</time></trkpt><trkpt lat="43.70227730914014" lon="10.985059525864923"><ele>43.599999999999994</ele><time>2026-04-18T13:43:48.894Z</time></trkpt><trkpt lat="43.702346100653266" lon="10.985176833380674"><ele>44.199999999999996</ele><time>2026-04-18T13:43:50.894Z</time></trkpt><trkpt lat="43.702417274544196" lon="10.985283629844654"><ele>44.8</ele><time>2026-04-18T13:43:52.894Z</time></trkpt><trkpt lat="43.702498522280756" lon="10.985383154391476"><ele>45.4</ele><time>2026-04-18T13:43:54.894Z</time></trkpt><trkpt lat="43.70257684178773" lon="10.985481878373244"><ele>46.0</ele><time>2026-04-18T13:43:56.894Z</time></trkpt><trkpt lat="43.702655555745004" lon="10.985575412037138"><ele>46.0</ele><time>2026-04-18T13:43:58.894Z</time></trkpt><trkpt lat="43.70273038747471" lon="10.985669944759628"><ele>46.0</ele><time>2026-04-18T13:44:00.894Z</time></trkpt><trkpt lat="43.702803130375045" lon="10.985750726372572"><ele>46.0</ele><time>2026-04-18T13:44:02.894Z</time></trkpt><trkpt lat="43.702870474063744" lon="10.985824449553448"><ele>46.0</ele><time>2026-04-18T13:44:04.894Z</time></trkpt><trkpt lat="43.70293543532189" lon="10.98589877494467"><ele>46.0</ele><time>2026-04-18T13:44:06.894Z</time></trkpt><trkpt lat="43.70300574824246" lon="10.985972426268635"><ele>45.599999999999994</ele><time>2026-04-18T13:44:08.894Z</time></trkpt><trkpt lat="43.70308334286346" lon="10.986056470151617"><ele>45.2</ele><time>2026-04-18T13:44:10.894Z</time></trkpt><trkpt lat="43.7031586527663" lon="10.986154179522485"><ele>44.8</ele><time>2026-04-18T13:44:12.894Z</time></trkpt><trkpt lat="43.70323455685829" lon="10.986246473716204"><ele>44.400000000000006</ele><time>2026-04-18T13:44:14.894Z</time></trkpt><trkpt lat="43.703305576045935" lon="10.986339327488908"><ele>44.0</ele><time>2026-04-18T13:44:16.894Z</time></trkpt><trkpt lat="43.703378405358066" lon="10.986426605413573"><ele>44.0</ele><time>2026-04-18T13:44:18.894Z</time></trkpt><trkpt lat="43.70345188184662" lon="10.98652187662461"><ele>44.0</ele><time>2026-04-18T13:44:20.894Z</time></trkpt><trkpt lat="43.70352317773012" lon="10.9866133449711"><ele>44.0</ele><time>2026-04-18T13:44:22.894Z</time></trkpt><trkpt lat="43.70358625017627" lon="10.986706348394302"><ele>44.0</ele><time>2026-04-18T13:44:24.894Z</time></trkpt><trkpt lat="43.70364849770371" lon="10.98680784499804"><ele>44.0</ele><time>2026-04-18T13:44:26.894Z</time></trkpt><trkpt lat="43.703708651339845" lon="10.986910053146671"><ele>43.800000000000004</ele><time>2026-04-18T13:44:28.894Z</time></trkpt><trkpt lat="43.703761247715235" lon="10.98701388617568"><ele>43.6</ele><time>2026-04-18T13:44:30.894Z</time></trkpt><trkpt lat="43.70381458861078" lon="10.987109253713072"><ele>43.4</ele><time>2026-04-18T13:44:32.894Z</time></trkpt><trkpt lat="43.703850641199814" lon="10.987218661309637"><ele>43.2</ele><time>2026-04-18T13:44:34.894Z</time></trkpt><trkpt lat="43.70389390108774" lon="10.987301429666246"><ele>43.0</ele><time>2026-04-18T13:44:36.894Z</time></trkpt><trkpt lat="43.704014843336644" lon="10.98714434749582"><ele>43.0</ele><time>2026-04-18T13:44:39.894Z</time></trkpt><trkpt lat="43.70400637973264" lon="10.987009776429495"><ele>43.0</ele><time>2026-04-18T13:44:41.894Z</time></trkpt><trkpt lat="43.70401516954358" lon="10.98686977278998"><ele>43.0</ele><time>2026-04-18T13:44:43.894Z</time></trkpt><trkpt lat="43.704010711454885" lon="10.986732776545262"><ele>43.0</ele><time>2026-04-18T13:44:45.894Z</time></trkpt><trkpt lat="43.704017724927894" lon="10.98657434690467"><ele>43.0</ele><time>2026-04-18T13:44:47.894Z</time></trkpt><trkpt lat="43.704012858369154" lon="10.986457859775513"><ele>42.66666666666667</ele><time>2026-04-18T13:44:49.894Z</time></trkpt><trkpt lat="43.704006835719106" lon="10.98636806613372"><ele>42.333333333333336</ele><time>2026-04-18T13:44:50.894Z</time></trkpt><trkpt lat="43.7040150485798" lon="10.98623885777307"><ele>42.0</ele><time>2026-04-18T13:44:52.894Z</time></trkpt><trkpt lat="43.70404108063493" lon="10.986059725831433"><ele>41.666666666666664</ele><time>2026-04-18T13:44:54.894Z</time></trkpt><trkpt lat="43.704068015549154" lon="10.985971772285268"><ele>41.33333333333333</ele><time>2026-04-18T13:44:55.894Z</time></trkpt><trkpt lat="43.704097456083154" lon="10.985893128587115"><ele>41.0</ele><time>2026-04-18T13:44:56.894Z</time></trkpt><trkpt lat="43.704125996052106" lon="10.985800433199655"><ele>40.857142857142854</ele><time>2026-04-18T13:44:57.894Z</time></trkpt><trkpt lat="43.70415868502797" lon="10.98571794083139"><ele>40.714285714285715</ele><time>2026-04-18T13:44:58.894Z</time></trkpt><trkpt lat="43.70419106988751" lon="10.98562818301836"><ele>40.57142857142857</ele><time>2026-04-18T13:44:59.894Z</time></trkpt><trkpt lat="43.704231321513795" lon="10.985551505970689"><ele>40.42857142857143</ele><time>2026-04-18T13:45:00.894Z</time></trkpt><trkpt lat="43.70427096628829" lon="10.985474092091218"><ele>40.285714285714285</ele><time>2026-04-18T13:45:01.894Z</time></trkpt><trkpt lat="43.70431142838985" lon="10.985380329571692"><ele>40.14285714285714</ele><time>2026-04-18T13:45:02.894Z</time></trkpt><trkpt lat="43.70434911317835" lon="10.985303803489161"><ele>40.0</ele><time>2026-04-18T13:45:03.894Z</time></trkpt><trkpt lat="43.70438348982906" lon="10.985223289274073"><ele>39.714285714285715</ele><time>2026-04-18T13:45:04.894Z</time></trkpt><trkpt lat="43.704419569559434" lon="10.98512357006121"><ele>39.42857142857143</ele><time>2026-04-18T13:45:05.894Z</time></trkpt><trkpt lat="43.7044498832381" lon="10.98503834011269"><ele>39.14285714285714</ele><time>2026-04-18T13:45:06.894Z</time></trkpt><trkpt lat="43.70447924998497" lon="10.98494589985051"><ele>38.85714285714286</ele><time>2026-04-18T13:45:07.894Z</time></trkpt><trkpt lat="43.70451008062109" lon="10.984868758084922"><ele>38.57142857142858</ele><time>2026-04-18T13:45:08.894Z</time></trkpt><trkpt lat="43.704545683014814" lon="10.984784505652064"><ele>38.285714285714285</ele><time>2026-04-18T13:45:09.894Z</time></trkpt><trkpt lat="43.70457507797187" lon="10.984694726262143"><ele>38.0</ele><time>2026-04-18T13:45:10.894Z</time></trkpt><trkpt lat="43.704617113786426" lon="10.984613512875672"><ele>37.83333333333333</ele><time>2026-04-18T13:45:11.894Z</time></trkpt><trkpt lat="43.704675897643014" lon="10.984463255072166"><ele>37.666666666666664</ele><time>2026-04-18T13:45:13.894Z</time></trkpt><trkpt lat="43.704711494299104" lon="10.98437226629783"><ele>37.5</ele><time>2026-04-18T13:45:14.894Z</time></trkpt><trkpt lat="43.70476008349427" lon="10.984243817045934"><ele>37.333333333333336</ele><time>2026-04-18T13:45:15.894Z</time></trkpt><trkpt lat="43.704792949774834" lon="10.984145406274235"><ele>37.16666666666667</ele><time>2026-04-18T13:45:16.894Z</time></trkpt><trkpt lat="43.70482045131157" lon="10.984061766381817"><ele>37.0</ele><time>2026-04-18T13:45:19.894Z</time></trkpt><trkpt lat="43.70486944834881" lon="10.983906070134115"><ele>36.800000000000004</ele><time>2026-04-18T13:45:20.894Z</time></trkpt><trkpt lat="43.70491267244417" lon="10.98375067355747"><ele>36.6</ele><time>2026-04-18T13:45:22.894Z</time></trkpt><trkpt lat="43.70495007023069" lon="10.983592537951244"><ele>36.400000000000006</ele><time>2026-04-18T13:45:24.894Z</time></trkpt><trkpt lat="43.70498859133715" lon="10.983428363727798"><ele>36.2</ele><time>2026-04-18T13:45:26.894Z</time></trkpt><trkpt lat="43.70500736079349" lon="10.983344887251683"><ele>36.0</ele><time>2026-04-18T13:45:27.894Z</time></trkpt><trkpt lat="43.70502757929939" lon="10.983254966110684"><ele>35.85714285714286</ele><time>2026-04-18T13:45:28.894Z</time></trkpt><trkpt lat="43.70504484857614" lon="10.983165022814434"><ele>35.714285714285715</ele><time>2026-04-18T13:45:29.894Z</time></trkpt><trkpt lat="43.705061600421104" lon="10.983073446611876"><ele>35.57142857142857</ele><time>2026-04-18T13:45:30.894Z</time></trkpt><trkpt lat="43.70507607411963" lon="10.982978353268752"><ele>35.42857142857143</ele><time>2026-04-18T13:45:31.894Z</time></trkpt><trkpt lat="43.70508691477696" lon="10.98288197184972"><ele>35.285714285714285</ele><time>2026-04-18T13:45:32.894Z</time></trkpt><trkpt lat="43.70509628613433" lon="10.982788823016833"><ele>35.142857142857146</ele><time>2026-04-18T13:45:33.894Z</time></trkpt><trkpt lat="43.705098497047494" lon="10.982692597769262"><ele>35.0</ele><time>2026-04-18T13:45:34.894Z</time></trkpt><trkpt lat="43.70510005252057" lon="10.982596885893562"><ele>34.714285714285715</ele><time>2026-04-18T13:45:35.894Z</time></trkpt><trkpt lat="43.7051010103846" lon="10.982501661003786"><ele>34.42857142857143</ele><time>2026-04-18T13:45:36.894Z</time></trkpt><trkpt lat="43.70510195269465" lon="10.982407982421291"><ele>34.14285714285714</ele><time>2026-04-18T13:45:37.894Z</time></trkpt><trkpt lat="43.705103204404715" lon="10.982311387397154"><ele>33.85714285714286</ele><time>2026-04-18T13:45:38.894Z</time></trkpt><trkpt lat="43.70510557712415" lon="10.98221977136777"><ele>33.57142857142857</ele><time>2026-04-18T13:45:39.894Z</time></trkpt><trkpt lat="43.70510802995574" lon="10.9821323375358"><ele>33.285714285714285</ele><time>2026-04-18T13:45:40.894Z</time></trkpt><trkpt lat="43.70511258489559" lon="10.982039435642172"><ele>33.0</ele><time>2026-04-18T13:45:41.894Z</time></trkpt><trkpt lat="43.705120178745226" lon="10.9819461257172"><ele>33.0</ele><time>2026-04-18T13:45:42.894Z</time></trkpt><trkpt lat="43.70514413912213" lon="10.981789431675558"><ele>33.0</ele><time>2026-04-18T13:45:44.894Z</time></trkpt><trkpt lat="43.70517553933001" lon="10.981625698324422"><ele>33.0</ele><time>2026-04-18T13:45:46.894Z</time></trkpt><trkpt lat="43.70520723267326" lon="10.981476696599541"><ele>33.0</ele><time>2026-04-18T13:45:48.894Z</time></trkpt><trkpt lat="43.705239724802745" lon="10.981332625595492"><ele>32.8</ele><time>2026-04-18T13:45:50.894Z</time></trkpt><trkpt lat="43.7052748143157" lon="10.981196785824123"><ele>32.599999999999994</ele><time>2026-04-18T13:45:52.894Z</time></trkpt><trkpt lat="43.70531549874223" lon="10.981060747680672"><ele>32.400000000000006</ele><time>2026-04-18T13:45:54.891Z</time></trkpt><trkpt lat="43.70535760603586" lon="10.98092341507919"><ele>32.2</ele><time>2026-04-18T13:45:56.891Z</time></trkpt><trkpt lat="43.705398797496315" lon="10.980785274786532"><ele>32.0</ele><time>2026-04-18T13:45:58.891Z</time></trkpt><trkpt lat="43.70544007914753" lon="10.980634929877878"><ele>31.75</ele><time>2026-04-18T13:46:00.891Z</time></trkpt><trkpt lat="43.705477033734326" lon="10.980491725845773"><ele>31.5</ele><time>2026-04-18T13:46:02.891Z</time></trkpt><trkpt lat="43.705513509638465" lon="10.980339128924998"><ele>31.25</ele><time>2026-04-18T13:46:04.891Z</time></trkpt><trkpt lat="43.705544719919224" lon="10.980191781575503"><ele>31.0</ele><time>2026-04-18T13:46:06.891Z</time></trkpt><trkpt lat="43.705577794806835" lon="10.980037214131695"><ele>31.200000000000003</ele><time>2026-04-18T13:46:08.891Z</time></trkpt><trkpt lat="43.70559209521701" lon="10.979882746214768"><ele>31.400000000000002</ele><time>2026-04-18T13:46:10.891Z</time></trkpt><trkpt lat="43.70563483719848" lon="10.97981447696938"><ele>31.6</ele><time>2026-04-18T13:46:11.891Z</time></trkpt><trkpt lat="43.705643522235725" lon="10.979638143843177"><ele>31.8</ele><time>2026-04-18T13:46:13.891Z</time></trkpt><trkpt lat="43.70567163445566" lon="10.979486094417451"><ele>32.0</ele><time>2026-04-18T13:46:15.891Z</time></trkpt><trkpt lat="43.7057140066209" lon="10.97933137324911"><ele>31.25</ele><time>2026-04-18T13:46:17.891Z</time></trkpt><trkpt lat="43.70576498948968" lon="10.979179219692073"><ele>30.5</ele><time>2026-04-18T13:46:19.891Z</time></trkpt><trkpt lat="43.70581910769022" lon="10.979026740601972"><ele>29.75</ele><time>2026-04-18T13:46:21.891Z</time></trkpt><trkpt lat="43.705871462447824" lon="10.978879229882546"><ele>29.0</ele><time>2026-04-18T13:46:23.891Z</time></trkpt><trkpt lat="43.705924323148814" lon="10.978730293691921"><ele>29.0</ele><time>2026-04-18T13:46:25.891Z</time></trkpt><trkpt lat="43.705979369668064" lon="10.978583113267838"><ele>29.0</ele><time>2026-04-18T13:46:27.891Z</time></trkpt><trkpt lat="43.70603192308891" lon="10.978434195382581"><ele>29.0</ele><time>2026-04-18T13:46:29.891Z</time></trkpt><trkpt lat="43.70606193969099" lon="10.978268422391109"><ele>29.0</ele><time>2026-04-18T13:46:31.891Z</time></trkpt><trkpt lat="43.706119865486585" lon="10.97812486576828"><ele>28.999999999999996</ele><time>2026-04-18T13:46:33.891Z</time></trkpt><trkpt lat="43.706143783187514" lon="10.978043907841764"><ele>29.0</ele><time>2026-04-18T13:46:34.891Z</time></trkpt><trkpt lat="43.706191382618115" lon="10.977882790465042"><ele>29.0</ele><time>2026-04-18T13:46:36.891Z</time></trkpt><trkpt lat="43.70621609313041" lon="10.97779914881406"><ele>29.0</ele><time>2026-04-18T13:46:37.891Z</time></trkpt><trkpt lat="43.70625585143684" lon="10.977664572636975"><ele>28.999999999999996</ele><time>2026-04-18T13:46:39.891Z</time></trkpt><trkpt lat="43.706280202469934" lon="10.977582147795609"><ele>29.0</ele><time>2026-04-18T13:46:40.891Z</time></trkpt><trkpt lat="43.70632375591057" lon="10.977434725663299"><ele>29.0</ele><time>2026-04-18T13:46:42.891Z</time></trkpt><trkpt lat="43.70636716278409" lon="10.977287799490048"><ele>29.0</ele><time>2026-04-18T13:46:44.891Z</time></trkpt><trkpt lat="43.70640815919668" lon="10.977150336098047"><ele>29.0</ele><time>2026-04-18T13:46:46.891Z</time></trkpt><trkpt lat="43.706453961395916" lon="10.977002418084469"><ele>29.0</ele><time>2026-04-18T13:46:48.891Z</time></trkpt><trkpt lat="43.706486980245224" lon="10.976883814872915"><ele>29.0</ele><time>2026-04-18T13:46:50.891Z</time></trkpt><trkpt lat="43.70656589866591" lon="10.976643172591249"><ele>28.799999999999997</ele><time>2026-04-18T13:46:53.891Z</time></trkpt><trkpt lat="43.70660984850957" lon="10.976505449013162"><ele>28.599999999999998</ele><time>2026-04-18T13:46:55.891Z</time></trkpt><trkpt lat="43.70665688478609" lon="10.976366979284512"><ele>28.4</ele><time>2026-04-18T13:46:57.891Z</time></trkpt><trkpt lat="43.70670390612701" lon="10.976228553368438"><ele>28.2</ele><time>2026-04-18T13:46:59.891Z</time></trkpt><trkpt lat="43.70675236698198" lon="10.976084643510696"><ele>28.0</ele><time>2026-04-18T13:47:01.891Z</time></trkpt><trkpt lat="43.706798703798" lon="10.975946098931384"><ele>27.75</ele><time>2026-04-18T13:47:03.891Z</time></trkpt><trkpt lat="43.70684776265304" lon="10.975798928444283"><ele>27.5</ele><time>2026-04-18T13:47:05.891Z</time></trkpt><trkpt lat="43.70688675839905" lon="10.975676149162036"><ele>27.25</ele><time>2026-04-18T13:47:07.891Z</time></trkpt><trkpt lat="43.7069244879325" lon="10.97555735693094"><ele>27.0</ele><time>2026-04-18T13:47:09.891Z</time></trkpt><trkpt lat="43.70679611237556" lon="10.975457125836368"><ele>27.0</ele><time>2026-04-18T13:47:12.891Z</time></trkpt><trkpt lat="43.706697638891335" lon="10.97544809925354"><ele>27.000000000000004</ele><time>2026-04-18T13:47:14.891Z</time></trkpt><trkpt lat="43.706595117764294" lon="10.975394502166518"><ele>27.000000000000004</ele><time>2026-04-18T13:47:16.891Z</time></trkpt><trkpt lat="43.706499265406364" lon="10.975361790691938"><ele>27.0</ele><time>2026-04-18T13:47:18.891Z</time></trkpt><trkpt lat="43.706407267748006" lon="10.975327640054212"><ele>27.0</ele><time>2026-04-18T13:47:20.891Z</time></trkpt><trkpt lat="43.70631361817001" lon="10.975291915307439"><ele>27.0</ele><time>2026-04-18T13:47:22.891Z</time></trkpt><trkpt lat="43.706224317966445" lon="10.975257966028488"><ele>27.000000000000004</ele><time>2026-04-18T13:47:24.891Z</time></trkpt><trkpt lat="43.7061363375785" lon="10.975227169891497"><ele>27.000000000000004</ele><time>2026-04-18T13:47:26.891Z</time></trkpt><trkpt lat="43.706039460554024" lon="10.975195109263703"><ele>27.0</ele><time>2026-04-18T13:47:28.891Z</time></trkpt><trkpt lat="43.705949149449395" lon="10.975165221541907"><ele>27.0</ele><time>2026-04-18T13:47:30.891Z</time></trkpt><trkpt lat="43.70584370420982" lon="10.97513367531809"><ele>27.333333333333332</ele><time>2026-04-18T13:47:32.891Z</time></trkpt><trkpt lat="43.705749875091506" lon="10.975103988374453"><ele>27.666666666666664</ele><time>2026-04-18T13:47:34.891Z</time></trkpt><trkpt lat="43.705678059733465" lon="10.975057195774992"><ele>28.0</ele><time>2026-04-18T13:47:36.891Z</time></trkpt><trkpt lat="43.70572803794739" lon="10.974956759765416"><ele>28.333333333333332</ele><time>2026-04-18T13:47:38.891Z</time></trkpt><trkpt lat="43.7057774092703" lon="10.974844868862448"><ele>28.666666666666664</ele><time>2026-04-18T13:47:40.891Z</time></trkpt><trkpt lat="43.70581717593956" lon="10.974739457801105"><ele>29.0</ele><time>2026-04-18T13:47:42.891Z</time></trkpt><trkpt lat="43.70585694207859" lon="10.974634002707976"><ele>29.0</ele><time>2026-04-18T13:47:44.891Z</time></trkpt><trkpt lat="43.70588431560734" lon="10.974518235699867"><ele>29.0</ele><time>2026-04-18T13:47:46.891Z</time></trkpt><trkpt lat="43.70592681062407" lon="10.974402730630175"><ele>29.0</ele><time>2026-04-18T13:47:48.891Z</time></trkpt><trkpt lat="43.705983587688934" lon="10.97429175361533"><ele>29.0</ele><time>2026-04-18T13:47:50.891Z</time></trkpt><trkpt lat="43.70603170916724" lon="10.974163001079761"><ele>29.0</ele><time>2026-04-18T13:47:52.891Z</time></trkpt><trkpt lat="43.70607539176" lon="10.974051952956446"><ele>29.2</ele><time>2026-04-18T13:47:54.891Z</time></trkpt><trkpt lat="43.70612977245628" lon="10.97392480838027"><ele>29.4</ele><time>2026-04-18T13:47:56.891Z</time></trkpt><trkpt lat="43.70619627773606" lon="10.97382116715423"><ele>29.6</ele><time>2026-04-18T13:47:58.891Z</time></trkpt><trkpt lat="43.70628476087231" lon="10.973748232424311"><ele>29.8</ele><time>2026-04-18T13:48:00.888Z</time></trkpt><trkpt lat="43.706373738139845" lon="10.97366525204857"><ele>30.0</ele><time>2026-04-18T13:48:02.888Z</time></trkpt><trkpt lat="43.70643107126624" lon="10.973555083169318"><ele>30.0</ele><time>2026-04-18T13:48:04.888Z</time></trkpt><trkpt lat="43.706472464512856" lon="10.973432297751874"><ele>30.0</ele><time>2026-04-18T13:48:06.888Z</time></trkpt><trkpt lat="43.70649742504407" lon="10.973314090113327"><ele>30.0</ele><time>2026-04-18T13:48:08.888Z</time></trkpt><trkpt lat="43.70645449653624" lon="10.973216452031467"><ele>30.0</ele><time>2026-04-18T13:48:10.888Z</time></trkpt><trkpt lat="43.70634994072395" lon="10.973258817990521"><ele>30.0</ele><time>2026-04-18T13:48:14.888Z</time></trkpt><trkpt lat="43.70630399417602" lon="10.973321507636271"><ele>30.0</ele><time>2026-04-18T13:48:25.888Z</time></trkpt><trkpt lat="43.70624323460677" lon="10.973375811931165"><ele>30.0</ele><time>2026-04-18T13:48:31.888Z</time></trkpt><trkpt lat="43.70618118936306" lon="10.97341251437406"><ele>30.0</ele><time>2026-04-18T13:48:36.888Z</time></trkpt><trkpt lat="43.706154435562155" lon="10.973499810897602"><ele>30.0</ele><time>2026-04-18T13:48:39.888Z</time></trkpt><trkpt lat="43.7061079573059" lon="10.97356709830762"><ele>30.0</ele><time>2026-04-18T13:48:41.888Z</time></trkpt><trkpt lat="43.70607018263789" lon="10.973662423707927"><ele>30.0</ele><time>2026-04-18T13:48:43.888Z</time></trkpt><trkpt lat="43.706050243517105" lon="10.973758680250565"><ele>30.0</ele><time>2026-04-18T13:48:45.888Z</time></trkpt><trkpt lat="43.70601273038189" lon="10.973857878918661"><ele>30.0</ele><time>2026-04-18T13:48:47.888Z</time></trkpt><trkpt lat="43.70595273567368" lon="10.973967108982222"><ele>30.0</ele><time>2026-04-18T13:48:49.888Z</time></trkpt><trkpt lat="43.70590846119586" lon="10.97408247741352"><ele>30.0</ele><time>2026-04-18T13:48:51.888Z</time></trkpt><trkpt lat="43.70587615091395" lon="10.97420369454528"><ele>30.0</ele><time>2026-04-18T13:48:53.888Z</time></trkpt><trkpt lat="43.70581681964678" lon="10.974315045957466"><ele>30.0</ele><time>2026-04-18T13:48:55.888Z</time></trkpt><trkpt lat="43.70578078505643" lon="10.974446034434337"><ele>30.0</ele><time>2026-04-18T13:48:57.888Z</time></trkpt><trkpt lat="43.705719746557236" lon="10.97454679043979"><ele>29.833333333333332</ele><time>2026-04-18T13:48:59.888Z</time></trkpt><trkpt lat="43.70567762800293" lon="10.974656483836403"><ele>29.666666666666664</ele><time>2026-04-18T13:49:01.888Z</time></trkpt><trkpt lat="43.705648754257986" lon="10.97478431185767"><ele>29.5</ele><time>2026-04-18T13:49:03.888Z</time></trkpt><trkpt lat="43.70559854125731" lon="10.974867734307068"><ele>29.333333333333332</ele><time>2026-04-18T13:49:05.888Z</time></trkpt><trkpt lat="43.705554399055806" lon="10.974953028497291"><ele>29.166666666666664</ele><time>2026-04-18T13:49:08.888Z</time></trkpt><trkpt lat="43.70549070083124" lon="10.974908167221262"><ele>29.0</ele><time>2026-04-18T13:49:11.888Z</time></trkpt><trkpt lat="43.705426435240334" lon="10.974882804887885"><ele>28.999999999999996</ele><time>2026-04-18T13:49:47.888Z</time></trkpt><trkpt lat="43.70534841213098" lon="10.974863563532436"><ele>29.0</ele><time>2026-04-18T13:50:35.885Z</time></trkpt><trkpt lat="43.70528112728636" lon="10.974819621564912"><ele>29.0</ele><time>2026-04-18T13:50:38.885Z</time></trkpt><trkpt lat="43.705200148349974" lon="10.974781984886574"><ele>29.0</ele><time>2026-04-18T13:50:41.885Z</time></trkpt><trkpt lat="43.70512840850698" lon="10.974717828601012"><ele>28.999999999999996</ele><time>2026-04-18T13:50:44.885Z</time></trkpt><trkpt lat="43.70505990476806" lon="10.974675153222904"><ele>29.0</ele><time>2026-04-18T13:50:46.885Z</time></trkpt><trkpt lat="43.70498890687465" lon="10.974623196401852"><ele>29.0</ele><time>2026-04-18T13:50:49.885Z</time></trkpt><trkpt lat="43.70491417893007" lon="10.974579610383543"><ele>29.0</ele><time>2026-04-18T13:50:53.885Z</time></trkpt><trkpt lat="43.704833952877614" lon="10.974537271554356"><ele>29.0</ele><time>2026-04-18T13:50:55.885Z</time></trkpt><trkpt lat="43.70473404804896" lon="10.974507927310485"><ele>29.0</ele><time>2026-04-18T13:50:57.885Z</time></trkpt><trkpt lat="43.70462627950941" lon="10.974457548467225"><ele>29.0</ele><time>2026-04-18T13:50:59.885Z</time></trkpt><trkpt lat="43.70453227462778" lon="10.974399503623317"><ele>28.999999999999996</ele><time>2026-04-18T13:51:01.885Z</time></trkpt><trkpt lat="43.70445388120668" lon="10.974343327872155"><ele>29.0</ele><time>2026-04-18T13:51:03.885Z</time></trkpt><trkpt lat="43.704356206741075" lon="10.974302162465591"><ele>29.0</ele><time>2026-04-18T13:51:05.885Z</time></trkpt><trkpt lat="43.70428292041366" lon="10.97424541155377"><ele>29.0</ele><time>2026-04-18T13:51:07.885Z</time></trkpt><trkpt lat="43.704205216679426" lon="10.974220256365589"><ele>28.999999999999996</ele><time>2026-04-18T13:51:09.885Z</time></trkpt><trkpt lat="43.70413410103871" lon="10.974188178522994"><ele>29.0</ele><time>2026-04-18T13:51:11.885Z</time></trkpt><trkpt lat="43.70406361297126" lon="10.974148426564987"><ele>29.000000000000004</ele><time>2026-04-18T13:51:13.885Z</time></trkpt><trkpt lat="43.703994730104185" lon="10.974106179543814"><ele>29.0</ele><time>2026-04-18T13:51:15.885Z</time></trkpt><trkpt lat="43.703922652726675" lon="10.974074942056113"><ele>29.000000000000004</ele><time>2026-04-18T13:51:17.885Z</time></trkpt><trkpt lat="43.70385745964542" lon="10.974037546607834"><ele>29.000000000000004</ele><time>2026-04-18T13:51:19.885Z</time></trkpt><trkpt lat="43.703782044486424" lon="10.973992936989612"><ele>29.0</ele><time>2026-04-18T13:51:21.885Z</time></trkpt><trkpt lat="43.70371557899762" lon="10.973965456725129"><ele>29.000000000000004</ele><time>2026-04-18T13:51:23.885Z</time></trkpt><trkpt lat="43.703660273252495" lon="10.973918896895709"><ele>29.000000000000004</ele><time>2026-04-18T13:51:25.885Z</time></trkpt><trkpt lat="43.70369385758015" lon="10.97381095284383"><ele>28.999999999999996</ele><time>2026-04-18T13:51:29.885Z</time></trkpt><trkpt lat="43.70374102993967" lon="10.973725416457237"><ele>29.0</ele><time>2026-04-18T13:51:31.885Z</time></trkpt><trkpt lat="43.703782156611894" lon="10.973636380589541"><ele>29.0</ele><time>2026-04-18T13:51:33.885Z</time></trkpt><trkpt lat="43.70382539536893" lon="10.973541225163732"><ele>29.0</ele><time>2026-04-18T13:51:35.885Z</time></trkpt><trkpt lat="43.70387652426869" lon="10.973445536784498"><ele>28.999999999999996</ele><time>2026-04-18T13:51:37.885Z</time></trkpt><trkpt lat="43.703923685346105" lon="10.9733414106666"><ele>29.0</ele><time>2026-04-18T13:51:39.885Z</time></trkpt><trkpt lat="43.703973803871236" lon="10.973238213290815"><ele>29.0</ele><time>2026-04-18T13:51:41.885Z</time></trkpt><trkpt lat="43.704019479061614" lon="10.973126453015954"><ele>29.0</ele><time>2026-04-18T13:51:43.885Z</time></trkpt><trkpt lat="43.70406734399725" lon="10.973022186831267"><ele>29.0</ele><time>2026-04-18T13:51:45.885Z</time></trkpt><trkpt lat="43.704112055768675" lon="10.972914964175255"><ele>29.0</ele><time>2026-04-18T13:51:47.885Z</time></trkpt><trkpt lat="43.70415630251689" lon="10.972799212233735"><ele>29.0</ele><time>2026-04-18T13:51:49.885Z</time></trkpt><trkpt lat="43.7042048189946" lon="10.972687620427536"><ele>29.0</ele><time>2026-04-18T13:51:51.885Z</time></trkpt><trkpt lat="43.70426205082505" lon="10.972582574143132"><ele>29.0</ele><time>2026-04-18T13:51:53.885Z</time></trkpt><trkpt lat="43.70431016344459" lon="10.972464287360806"><ele>29.0</ele><time>2026-04-18T13:51:55.885Z</time></trkpt><trkpt lat="43.704357614005445" lon="10.972348328902259"><ele>29.0</ele><time>2026-04-18T13:51:57.885Z</time></trkpt><trkpt lat="43.70440350060608" lon="10.972236463015326"><ele>29.0</ele><time>2026-04-18T13:51:59.885Z</time></trkpt><trkpt lat="43.704448286800925" lon="10.972125380388782"><ele>28.833333333333332</ele><time>2026-04-18T13:52:01.885Z</time></trkpt><trkpt lat="43.70449715059849" lon="10.972021822230694"><ele>28.666666666666664</ele><time>2026-04-18T13:52:03.885Z</time></trkpt><trkpt lat="43.70455369969318" lon="10.971932643664902"><ele>28.5</ele><time>2026-04-18T13:52:05.885Z</time></trkpt><trkpt lat="43.70460020196887" lon="10.971840805207306"><ele>28.333333333333336</ele><time>2026-04-18T13:52:07.885Z</time></trkpt><trkpt lat="43.704663482231574" lon="10.971771889778598"><ele>28.166666666666668</ele><time>2026-04-18T13:52:09.885Z</time></trkpt><trkpt lat="43.7047100772916" lon="10.971668950777277"><ele>28.0</ele><time>2026-04-18T13:52:11.885Z</time></trkpt><trkpt lat="43.70477294534783" lon="10.97157878468483"><ele>28.0</ele><time>2026-04-18T13:52:13.882Z</time></trkpt><trkpt lat="43.70482840819732" lon="10.971481660278636"><ele>27.999999999999996</ele><time>2026-04-18T13:52:15.882Z</time></trkpt><trkpt lat="43.704882180692344" lon="10.971385380398935"><ele>27.999999999999996</ele><time>2026-04-18T13:52:17.882Z</time></trkpt><trkpt lat="43.70493611046683" lon="10.971283256609304"><ele>28.0</ele><time>2026-04-18T13:52:19.882Z</time></trkpt><trkpt lat="43.70498715358129" lon="10.97117370689398"><ele>28.0</ele><time>2026-04-18T13:52:21.882Z</time></trkpt><trkpt lat="43.70503956058187" lon="10.971067900304137"><ele>28.0</ele><time>2026-04-18T13:52:23.882Z</time></trkpt><trkpt lat="43.705091028943855" lon="10.970961443260318"><ele>27.999999999999996</ele><time>2026-04-18T13:52:25.882Z</time></trkpt><trkpt lat="43.70513767615407" lon="10.97085083941256"><ele>27.999999999999996</ele><time>2026-04-18T13:52:27.882Z</time></trkpt><trkpt lat="43.70518634135436" lon="10.97074014133411"><ele>28.0</ele><time>2026-04-18T13:52:29.882Z</time></trkpt><trkpt lat="43.70523532337064" lon="10.97062930070548"><ele>28.0</ele><time>2026-04-18T13:52:31.882Z</time></trkpt><trkpt lat="43.70528882890144" lon="10.97051582049673"><ele>28.0</ele><time>2026-04-18T13:52:33.882Z</time></trkpt><trkpt lat="43.705343968211395" lon="10.97039744455028"><ele>27.999999999999996</ele><time>2026-04-18T13:52:35.882Z</time></trkpt><trkpt lat="43.705395913387655" lon="10.970273113680928"><ele>27.999999999999996</ele><time>2026-04-18T13:52:37.882Z</time></trkpt><trkpt lat="43.70545010658496" lon="10.970155109641695"><ele>28.0</ele><time>2026-04-18T13:52:39.882Z</time></trkpt><trkpt lat="43.70550087107819" lon="10.970031202624916"><ele>28.0</ele><time>2026-04-18T13:52:41.882Z</time></trkpt><trkpt lat="43.70555204272692" lon="10.96990891336384"><ele>28.0</ele><time>2026-04-18T13:52:43.882Z</time></trkpt><trkpt lat="43.70560663402097" lon="10.969789238460777"><ele>27.999999999999996</ele><time>2026-04-18T13:52:45.882Z</time></trkpt><trkpt lat="43.70566850724556" lon="10.969654964020155"><ele>27.999999999999996</ele><time>2026-04-18T13:52:47.882Z</time></trkpt><trkpt lat="43.705728742665976" lon="10.969520915365287"><ele>28.0</ele><time>2026-04-18T13:52:49.882Z</time></trkpt><trkpt lat="43.705787489578725" lon="10.969385513380521"><ele>28.0</ele><time>2026-04-18T13:52:51.882Z</time></trkpt><trkpt lat="43.70584198034859" lon="10.969252277545095"><ele>27.799999999999997</ele><time>2026-04-18T13:52:53.882Z</time></trkpt><trkpt lat="43.70590272000432" lon="10.969133758831601"><ele>27.599999999999998</ele><time>2026-04-18T13:52:55.882Z</time></trkpt><trkpt lat="43.70595361527547" lon="10.969010986112334"><ele>27.400000000000002</ele><time>2026-04-18T13:52:57.882Z</time></trkpt><trkpt lat="43.70600761590057" lon="10.96888835732903"><ele>27.200000000000003</ele><time>2026-04-18T13:52:59.882Z</time></trkpt><trkpt lat="43.70606131098146" lon="10.968761354485391"><ele>27.0</ele><time>2026-04-18T13:53:01.882Z</time></trkpt><trkpt lat="43.70612187417212" lon="10.968642326689602"><ele>27.0</ele><time>2026-04-18T13:53:03.882Z</time></trkpt><trkpt lat="43.70617844715522" lon="10.968515714479818"><ele>27.000000000000004</ele><time>2026-04-18T13:53:05.882Z</time></trkpt><trkpt lat="43.70623145282958" lon="10.968390013263331"><ele>27.000000000000004</ele><time>2026-04-18T13:53:07.882Z</time></trkpt><trkpt lat="43.70629110535681" lon="10.968262176067569"><ele>27.0</ele><time>2026-04-18T13:53:09.882Z</time></trkpt><trkpt lat="43.70635248846443" lon="10.968134112432143"><ele>27.0</ele><time>2026-04-18T13:53:11.882Z</time></trkpt><trkpt lat="43.7064063398313" lon="10.96800466948243"><ele>27.200000000000003</ele><time>2026-04-18T13:53:13.882Z</time></trkpt><trkpt lat="43.70646555790731" lon="10.967874706920115"><ele>27.400000000000002</ele><time>2026-04-18T13:53:15.882Z</time></trkpt><trkpt lat="43.70652506975545" lon="10.967741894886064"><ele>27.599999999999998</ele><time>2026-04-18T13:53:17.882Z</time></trkpt><trkpt lat="43.706584210798454" lon="10.967612992047606"><ele>27.799999999999997</ele><time>2026-04-18T13:53:19.882Z</time></trkpt><trkpt lat="43.70664371998777" lon="10.967483400647707"><ele>28.0</ele><time>2026-04-18T13:53:21.882Z</time></trkpt><trkpt lat="43.70670226934413" lon="10.96735063130704"><ele>27.5</ele><time>2026-04-18T13:53:23.882Z</time></trkpt><trkpt lat="43.706760535178596" lon="10.96722000270162"><ele>27.0</ele><time>2026-04-18T13:53:25.882Z</time></trkpt><trkpt lat="43.706824814162886" lon="10.96709319328954"><ele>26.5</ele><time>2026-04-18T13:53:27.882Z</time></trkpt><trkpt lat="43.70688343675341" lon="10.966959575380256"><ele>26.0</ele><time>2026-04-18T13:53:29.882Z</time></trkpt><trkpt lat="43.70694562423496" lon="10.966821699007081"><ele>26.0</ele><time>2026-04-18T13:53:31.882Z</time></trkpt><trkpt lat="43.70700756463165" lon="10.966687324116595"><ele>26.0</ele><time>2026-04-18T13:53:33.882Z</time></trkpt><trkpt lat="43.707065253660204" lon="10.966548530144802"><ele>26.0</ele><time>2026-04-18T13:53:35.882Z</time></trkpt><trkpt lat="43.707125744830684" lon="10.966421013763828"><ele>26.0</ele><time>2026-04-18T13:53:37.882Z</time></trkpt><trkpt lat="43.707185967166325" lon="10.966292068887636"><ele>26.0</ele><time>2026-04-18T13:53:39.882Z</time></trkpt><trkpt lat="43.70724280242323" lon="10.966174164048178"><ele>26.0</ele><time>2026-04-18T13:53:41.882Z</time></trkpt><trkpt lat="43.70729942399491" lon="10.966059199279883"><ele>26.0</ele><time>2026-04-18T13:53:43.882Z</time></trkpt><trkpt lat="43.70737405528385" lon="10.9659383578673"><ele>26.0</ele><time>2026-04-18T13:53:45.882Z</time></trkpt><trkpt lat="43.70743415470482" lon="10.965807038964"><ele>26.0</ele><time>2026-04-18T13:53:47.882Z</time></trkpt><trkpt lat="43.70749559743374" lon="10.965672784817064"><ele>26.25</ele><time>2026-04-18T13:53:49.882Z</time></trkpt><trkpt lat="43.707556033893965" lon="10.965539322805231"><ele>26.5</ele><time>2026-04-18T13:53:51.882Z</time></trkpt><trkpt lat="43.70761734796458" lon="10.965401543588637"><ele>26.75</ele><time>2026-04-18T13:53:53.882Z</time></trkpt><trkpt lat="43.707677066201015" lon="10.965268821066191"><ele>27.0</ele><time>2026-04-18T13:53:55.882Z</time></trkpt><trkpt lat="43.70773741872105" lon="10.965142801905998"><ele>27.25</ele><time>2026-04-18T13:53:57.882Z</time></trkpt><trkpt lat="43.707801466726785" lon="10.965012365174244"><ele>27.5</ele><time>2026-04-18T13:53:59.882Z</time></trkpt><trkpt lat="43.707867432349566" lon="10.964886660906874"><ele>27.75</ele><time>2026-04-18T13:54:01.882Z</time></trkpt><trkpt lat="43.70793374863703" lon="10.96476375071127"><ele>28.0</ele><time>2026-04-18T13:54:03.882Z</time></trkpt><trkpt lat="43.708004134068986" lon="10.964633887819181"><ele>28.0</ele><time>2026-04-18T13:54:05.882Z</time></trkpt><trkpt lat="43.70807335656033" lon="10.964506170568137"><ele>28.0</ele><time>2026-04-18T13:54:07.882Z</time></trkpt><trkpt lat="43.70814399593306" lon="10.964371087427262"><ele>28.0</ele><time>2026-04-18T13:54:09.882Z</time></trkpt><trkpt lat="43.70820544570892" lon="10.964242086715554"><ele>28.0</ele><time>2026-04-18T13:54:11.882Z</time></trkpt><trkpt lat="43.70826878825333" lon="10.964106805685002"><ele>27.75</ele><time>2026-04-18T13:54:13.882Z</time></trkpt><trkpt lat="43.70833250021893" lon="10.963970735636233"><ele>27.5</ele><time>2026-04-18T13:54:15.882Z</time></trkpt><trkpt lat="43.708395587291605" lon="10.963836000246754"><ele>27.25</ele><time>2026-04-18T13:54:17.882Z</time></trkpt><trkpt lat="43.70846048000612" lon="10.96369740849211"><ele>27.0</ele><time>2026-04-18T13:54:19.88Z</time></trkpt><trkpt lat="43.70852600536844" lon="10.963559867550762"><ele>27.0</ele><time>2026-04-18T13:54:21.88Z</time></trkpt><trkpt lat="43.708577547051775" lon="10.96341203648461"><ele>27.0</ele><time>2026-04-18T13:54:23.879Z</time></trkpt><trkpt lat="43.70864326193125" lon="10.96327886962583"><ele>27.0</ele><time>2026-04-18T13:54:25.879Z</time></trkpt><trkpt lat="43.708708071211184" lon="10.96314447789546"><ele>27.0</ele><time>2026-04-18T13:54:27.879Z</time></trkpt><trkpt lat="43.70877432859426" lon="10.963008282789085"><ele>27.166666666666668</ele><time>2026-04-18T13:54:29.879Z</time></trkpt><trkpt lat="43.70884121818971" lon="10.962866602024398"><ele>27.333333333333336</ele><time>2026-04-18T13:54:31.879Z</time></trkpt><trkpt lat="43.7089206421563" lon="10.962742464104483"><ele>27.5</ele><time>2026-04-18T13:54:33.879Z</time></trkpt><trkpt lat="43.70894542932749" lon="10.962658486883587"><ele>27.666666666666668</ele><time>2026-04-18T13:54:34.879Z</time></trkpt><trkpt lat="43.70898347475613" lon="10.962584244280363"><ele>27.833333333333336</ele><time>2026-04-18T13:54:35.879Z</time></trkpt><trkpt lat="43.70902217351042" lon="10.96251005616099"><ele>28.0</ele><time>2026-04-18T13:54:36.879Z</time></trkpt><trkpt lat="43.70906116429021" lon="10.962437517847885"><ele>28.166666666666668</ele><time>2026-04-18T13:54:37.879Z</time></trkpt><trkpt lat="43.709099249121124" lon="10.962365902218734"><ele>28.333333333333336</ele><time>2026-04-18T13:54:38.879Z</time></trkpt><trkpt lat="43.70913668438525" lon="10.962295164706173"><ele>28.5</ele><time>2026-04-18T13:54:39.879Z</time></trkpt><trkpt lat="43.70917780599439" lon="10.962225644869728"><ele>28.666666666666664</ele><time>2026-04-18T13:54:40.879Z</time></trkpt><trkpt lat="43.7092095879521" lon="10.962147345063311"><ele>28.833333333333332</ele><time>2026-04-18T13:54:41.879Z</time></trkpt><trkpt lat="43.7092752006446" lon="10.962012077674325"><ele>29.0</ele><time>2026-04-18T13:54:43.879Z</time></trkpt><trkpt lat="43.70933314651829" lon="10.96188949806556"><ele>29.0</ele><time>2026-04-18T13:54:45.879Z</time></trkpt><trkpt lat="43.70939310959087" lon="10.96175880281258"><ele>29.0</ele><time>2026-04-18T13:54:47.879Z</time></trkpt><trkpt lat="43.7094451249508" lon="10.961616237877056"><ele>29.0</ele><time>2026-04-18T13:54:49.879Z</time></trkpt><trkpt lat="43.70948942661072" lon="10.961472137845568"><ele>29.0</ele><time>2026-04-18T13:54:51.879Z</time></trkpt><trkpt lat="43.7095328643201" lon="10.961328498819645"><ele>28.799999999999997</ele><time>2026-04-18T13:54:53.879Z</time></trkpt><trkpt lat="43.709576490159385" lon="10.961187184906297"><ele>28.599999999999998</ele><time>2026-04-18T13:54:55.879Z</time></trkpt><trkpt lat="43.70961767369794" lon="10.961042191887142"><ele>28.4</ele><time>2026-04-18T13:54:57.879Z</time></trkpt><trkpt lat="43.70965467254531" lon="10.960902955935834"><ele>28.2</ele><time>2026-04-18T13:54:59.879Z</time></trkpt><trkpt lat="43.709691441560636" lon="10.960778490058667"><ele>28.0</ele><time>2026-04-18T13:55:01.879Z</time></trkpt><trkpt lat="43.70980366313705" lon="10.960823434798527"><ele>27.799999999999997</ele><time>2026-04-18T13:55:04.879Z</time></trkpt><trkpt lat="43.709878799640194" lon="10.96088087430533"><ele>27.599999999999998</ele><time>2026-04-18T13:55:06.879Z</time></trkpt><trkpt lat="43.709965600112064" lon="10.960917453077457"><ele>27.400000000000002</ele><time>2026-04-18T13:55:08.879Z</time></trkpt><trkpt lat="43.71004785559362" lon="10.96097403577607"><ele>27.200000000000003</ele><time>2026-04-18T13:55:10.879Z</time></trkpt><trkpt lat="43.7101382819558" lon="10.960998286251161"><ele>27.0</ele><time>2026-04-18T13:55:12.879Z</time></trkpt><trkpt lat="43.71022947887655" lon="10.960947714580316"><ele>26.8</ele><time>2026-04-18T13:55:14.879Z</time></trkpt><trkpt lat="43.71026339736556" lon="10.960811387343172"><ele>26.6</ele><time>2026-04-18T13:55:16.879Z</time></trkpt><trkpt lat="43.710302650065636" lon="10.960701805956583"><ele>26.400000000000002</ele><time>2026-04-18T13:55:18.879Z</time></trkpt><trkpt lat="43.7103515899349" lon="10.960596111763657"><ele>26.200000000000003</ele><time>2026-04-18T13:55:20.879Z</time></trkpt><trkpt lat="43.7104342354505" lon="10.960562008370133"><ele>26.0</ele><time>2026-04-18T13:55:22.879Z</time></trkpt><trkpt lat="43.710525249447905" lon="10.960614055912867"><ele>26.0</ele><time>2026-04-18T13:55:24.879Z</time></trkpt><trkpt lat="43.71061450669107" lon="10.960682740795187"><ele>26.0</ele><time>2026-04-18T13:55:26.879Z</time></trkpt><trkpt lat="43.71071012544963" lon="10.96071597662961"><ele>26.0</ele><time>2026-04-18T13:55:28.879Z</time></trkpt><trkpt lat="43.710794027174785" lon="10.96078813623397"><ele>26.0</ele><time>2026-04-18T13:55:30.879Z</time></trkpt><trkpt lat="43.71088127691287" lon="10.960823779877709"><ele>26.0</ele><time>2026-04-18T13:55:32.879Z</time></trkpt><trkpt lat="43.71095067379839" lon="10.960710901518292"><ele>26.0</ele><time>2026-04-18T13:55:34.879Z</time></trkpt><trkpt lat="43.710986766075685" lon="10.960597617012207"><ele>26.0</ele><time>2026-04-18T13:55:36.879Z</time></trkpt><trkpt lat="43.71101508486905" lon="10.960473898391074"><ele>26.0</ele><time>2026-04-18T13:55:38.879Z</time></trkpt><trkpt lat="43.711044720518" lon="10.960357464499543"><ele>26.0</ele><time>2026-04-18T13:55:40.879Z</time></trkpt><trkpt lat="43.71108167697882" lon="10.960231455423907"><ele>26.0</ele><time>2026-04-18T13:55:42.879Z</time></trkpt><trkpt lat="43.7111148550448" lon="10.960107253979379"><ele>26.4</ele><time>2026-04-18T13:55:44.879Z</time></trkpt><trkpt lat="43.711147017804294" lon="10.960011107330693"><ele>26.8</ele><time>2026-04-18T13:55:46.879Z</time></trkpt><trkpt lat="43.7112286182122" lon="10.959865175015167"><ele>27.199999999999996</ele><time>2026-04-18T13:55:48.879Z</time></trkpt><trkpt lat="43.71129922861427" lon="10.959882317792486"><ele>27.599999999999998</ele><time>2026-04-18T13:55:50.879Z</time></trkpt><trkpt lat="43.71139950902967" lon="10.959898887852734"><ele>28.0</ele><time>2026-04-18T13:55:52.879Z</time></trkpt><trkpt lat="43.71149782628084" lon="10.959941914713081"><ele>28.0</ele><time>2026-04-18T13:55:54.879Z</time></trkpt><trkpt lat="43.71160559032123" lon="10.959987630987118"><ele>27.999999999999996</ele><time>2026-04-18T13:55:56.879Z</time></trkpt><trkpt lat="43.71171141548034" lon="10.960029969313075"><ele>27.999999999999996</ele><time>2026-04-18T13:55:58.879Z</time></trkpt><trkpt lat="43.71182060742841" lon="10.960053580438325"><ele>28.0</ele><time>2026-04-18T13:56:00.879Z</time></trkpt><trkpt lat="43.71192313611827" lon="10.960078690444744"><ele>28.0</ele><time>2026-04-18T13:56:02.879Z</time></trkpt><trkpt lat="43.71202541953681" lon="10.960090595045738"><ele>27.599999999999998</ele><time>2026-04-18T13:56:04.879Z</time></trkpt><trkpt lat="43.71212831339046" lon="10.960119569759264"><ele>27.199999999999996</ele><time>2026-04-18T13:56:06.879Z</time></trkpt><trkpt lat="43.71222499402056" lon="10.96013642275181"><ele>26.8</ele><time>2026-04-18T13:56:08.879Z</time></trkpt><trkpt lat="43.7123235831582" lon="10.960151818392472"><ele>26.4</ele><time>2026-04-18T13:56:10.879Z</time></trkpt><trkpt lat="43.7124255170368" lon="10.96014010595108"><ele>26.0</ele><time>2026-04-18T13:56:12.879Z</time></trkpt><trkpt lat="43.712531224238674" lon="10.960164560014608"><ele>26.0</ele><time>2026-04-18T13:56:14.879Z</time></trkpt><trkpt lat="43.712631016773706" lon="10.960163259060709"><ele>26.0</ele><time>2026-04-18T13:56:16.879Z</time></trkpt><trkpt lat="43.712735850270455" lon="10.96014334011803"><ele>26.0</ele><time>2026-04-18T13:56:18.879Z</time></trkpt><trkpt lat="43.71284137465854" lon="10.96008983589109"><ele>26.0</ele><time>2026-04-18T13:56:20.879Z</time></trkpt><trkpt lat="43.71294299059068" lon="10.96008369887004"><ele>26.0</ele><time>2026-04-18T13:56:22.879Z</time></trkpt><trkpt lat="43.71304561048994" lon="10.960057435663792"><ele>26.4</ele><time>2026-04-18T13:56:24.877Z</time></trkpt><trkpt lat="43.71314297683345" lon="10.960021620435882"><ele>26.8</ele><time>2026-04-18T13:56:26.877Z</time></trkpt><trkpt lat="43.71323083775198" lon="10.960000555016782"><ele>27.199999999999996</ele><time>2026-04-18T13:56:28.877Z</time></trkpt><trkpt lat="43.7133302656154" lon="10.959990815861625"><ele>27.599999999999998</ele><time>2026-04-18T13:56:30.877Z</time></trkpt><trkpt lat="43.7134244473618" lon="10.95996885982129"><ele>28.0</ele><time>2026-04-18T13:56:32.877Z</time></trkpt><trkpt lat="43.71351100130991" lon="10.95995630784878"><ele>28.2</ele><time>2026-04-18T13:56:34.877Z</time></trkpt><trkpt lat="43.71361177310084" lon="10.959953899126305"><ele>28.4</ele><time>2026-04-18T13:56:36.876Z</time></trkpt><trkpt lat="43.713714090039936" lon="10.959986494070755"><ele>28.599999999999998</ele><time>2026-04-18T13:56:38.876Z</time></trkpt><trkpt lat="43.713796906243395" lon="10.96004514486914"><ele>28.799999999999997</ele><time>2026-04-18T13:56:40.876Z</time></trkpt><trkpt lat="43.71388701424431" lon="10.960105190592339"><ele>29.0</ele><time>2026-04-18T13:56:42.876Z</time></trkpt><trkpt lat="43.71394842069576" lon="10.960179449519703"><ele>28.999999999999996</ele><time>2026-04-18T13:56:44.876Z</time></trkpt><trkpt lat="43.71401262614244" lon="10.960247904056764"><ele>29.0</ele><time>2026-04-18T13:56:46.876Z</time></trkpt><trkpt lat="43.7140804354402" lon="10.96029975210934"><ele>29.0</ele><time>2026-04-18T13:56:48.876Z</time></trkpt><trkpt lat="43.71415626148577" lon="10.96033812110569"><ele>29.0</ele><time>2026-04-18T13:56:50.876Z</time></trkpt><trkpt lat="43.714253962322935" lon="10.960369894434555"><ele>28.999999999999996</ele><time>2026-04-18T13:56:52.876Z</time></trkpt><trkpt lat="43.7143394979175" lon="10.960403741377082"><ele>29.0</ele><time>2026-04-18T13:56:54.876Z</time></trkpt><trkpt lat="43.714435018184595" lon="10.96038689588047"><ele>28.666666666666664</ele><time>2026-04-18T13:56:56.876Z</time></trkpt><trkpt lat="43.714460911811926" lon="10.960248728182368"><ele>28.333333333333332</ele><time>2026-04-18T13:56:58.876Z</time></trkpt><trkpt lat="43.71448589254361" lon="10.9601264564742"><ele>28.0</ele><time>2026-04-18T13:57:00.876Z</time></trkpt><trkpt lat="43.714510839899035" lon="10.960006880838717"><ele>27.666666666666664</ele><time>2026-04-18T13:57:02.876Z</time></trkpt><trkpt lat="43.71453793492131" lon="10.959921627920027"><ele>27.333333333333332</ele><time>2026-04-18T13:57:04.876Z</time></trkpt><trkpt lat="43.71461545014201" lon="10.959937870035771"><ele>27.0</ele><time>2026-04-18T13:57:06.876Z</time></trkpt><trkpt lat="43.71470036939885" lon="10.959980041252884"><ele>27.0</ele><time>2026-04-18T13:57:08.876Z</time></trkpt><trkpt lat="43.71480715220032" lon="10.960025762160049"><ele>27.000000000000004</ele><time>2026-04-18T13:57:10.876Z</time></trkpt><trkpt lat="43.714914113943436" lon="10.960068375016055"><ele>27.000000000000004</ele><time>2026-04-18T13:57:12.876Z</time></trkpt><trkpt lat="43.714978727026306" lon="10.960086610969846"><ele>27.0</ele><time>2026-04-18T13:57:13.876Z</time></trkpt><trkpt lat="43.71508442949641" lon="10.960146774594559"><ele>27.0</ele><time>2026-04-18T13:57:15.876Z</time></trkpt><trkpt lat="43.71520289498985" lon="10.960161167773048"><ele>27.0</ele><time>2026-04-18T13:57:17.876Z</time></trkpt><trkpt lat="43.715323309883416" lon="10.960202350084112"><ele>27.0</ele><time>2026-04-18T13:57:19.876Z</time></trkpt><trkpt lat="43.71538824891183" lon="10.960228463041876"><ele>27.0</ele><time>2026-04-18T13:57:21.876Z</time></trkpt><trkpt lat="43.71544931743749" lon="10.960273109781207"><ele>27.0</ele><time>2026-04-18T13:57:23.876Z</time></trkpt><trkpt lat="43.71551668754577" lon="10.960304531822164"><ele>27.0</ele><time>2026-04-18T13:57:25.876Z</time></trkpt><trkpt lat="43.71558446158615" lon="10.960313880348274"><ele>27.0</ele><time>2026-04-18T13:57:27.876Z</time></trkpt><trkpt lat="43.71564381372702" lon="10.960349156604654"><ele>27.0</ele><time>2026-04-18T13:57:29.876Z</time></trkpt><trkpt lat="43.71572108643961" lon="10.960395436890433"><ele>27.0</ele><time>2026-04-18T13:57:32.876Z</time></trkpt><trkpt lat="43.71579717172399" lon="10.960417848078917"><ele>27.0</ele><time>2026-04-18T13:57:35.876Z</time></trkpt><trkpt lat="43.715869512855015" lon="10.960462147287297"><ele>27.0</ele><time>2026-04-18T13:57:38.876Z</time></trkpt><trkpt lat="43.71594810259992" lon="10.960477093580012"><ele>27.0</ele><time>2026-04-18T13:57:41.876Z</time></trkpt><trkpt lat="43.71601946132221" lon="10.960484978881285"><ele>27.0</ele><time>2026-04-18T13:57:44.876Z</time></trkpt><trkpt lat="43.71608793946262" lon="10.960475716050318"><ele>27.0</ele><time>2026-04-18T13:57:47.876Z</time></trkpt><trkpt lat="43.716150483771166" lon="10.96049392366031"><ele>27.0</ele><time>2026-04-18T13:57:50.876Z</time></trkpt><trkpt lat="43.716077682291164" lon="10.96046780366856"><ele>27.0</ele><time>2026-04-18T13:57:59.876Z</time></trkpt><trkpt lat="43.71601231751943" lon="10.960470316983102"><ele>27.0</ele><time>2026-04-18T13:58:01.876Z</time></trkpt><trkpt lat="43.71593028546969" lon="10.960475124725274"><ele>27.0</ele><time>2026-04-18T13:58:04.876Z</time></trkpt><trkpt lat="43.71585779389018" lon="10.960438259030951"><ele>27.0</ele><time>2026-04-18T13:58:07.876Z</time></trkpt><trkpt lat="43.71578893475215" lon="10.960438023884157"><ele>27.0</ele><time>2026-04-18T13:58:11.876Z</time></trkpt><trkpt lat="43.715858856467094" lon="10.960449620672696"><ele>27.0</ele><time>2026-04-18T13:58:16.876Z</time></trkpt><trkpt lat="43.7159426621399" lon="10.960476492394564"><ele>27.0</ele><time>2026-04-18T13:58:19.876Z</time></trkpt><trkpt lat="43.71603551848745" lon="10.960486753236074"><ele>27.0</ele><time>2026-04-18T13:58:22.876Z</time></trkpt><trkpt lat="43.71610361029158" lon="10.960491413248821"><ele>27.0</ele><time>2026-04-18T13:58:24.876Z</time></trkpt><trkpt lat="43.716174335147024" lon="10.960495201072254"><ele>27.0</ele><time>2026-04-18T13:58:26.876Z</time></trkpt><trkpt lat="43.71624756259823" lon="10.960497658310969"><ele>27.0</ele><time>2026-04-18T13:58:28.876Z</time></trkpt><trkpt lat="43.716322016581884" lon="10.960480805419424"><ele>26.666666666666668</ele><time>2026-04-18T13:58:30.873Z</time></trkpt><trkpt lat="43.71639477807856" lon="10.960490234656794"><ele>26.333333333333336</ele><time>2026-04-18T13:58:32.873Z</time></trkpt><trkpt lat="43.71647199979529" lon="10.96049441554034"><ele>26.0</ele><time>2026-04-18T13:58:34.873Z</time></trkpt><trkpt lat="43.71655027655215" lon="10.960499172731243"><ele>25.666666666666668</ele><time>2026-04-18T13:58:36.873Z</time></trkpt><trkpt lat="43.71661527226352" lon="10.9605194178052"><ele>25.333333333333336</ele><time>2026-04-18T13:58:38.873Z</time></trkpt><trkpt lat="43.716705283162476" lon="10.960528994439898"><ele>25.0</ele><time>2026-04-18T13:58:41.873Z</time></trkpt><trkpt lat="43.71678771357078" lon="10.960527883756114"><ele>25.000000000000004</ele><time>2026-04-18T13:58:44.873Z</time></trkpt><trkpt lat="43.71684508190981" lon="10.960566672818352"><ele>25.0</ele><time>2026-04-18T13:58:47.873Z</time></trkpt><trkpt lat="43.71677995330255" lon="10.960579900153496"><ele>25.0</ele><time>2026-04-18T13:58:52.873Z</time></trkpt><trkpt lat="43.716764562225755" lon="10.960744033660706"><ele>25.0</ele><time>2026-04-18T13:58:53.873Z</time></trkpt><trkpt lat="43.71678594038345" lon="10.960834454518835"><ele>25.0</ele><time>2026-04-18T13:59:43.873Z</time></trkpt><trkpt lat="43.71672212053183" lon="10.96082085686782"><ele>25.000000000000004</ele><time>2026-04-18T14:00:10.873Z</time></trkpt><trkpt lat="43.716786102300134" lon="10.960823392418567"><ele>25.0</ele><time>2026-04-18T15:17:33.752Z</time></trkpt><trkpt lat="43.716844661333226" lon="10.960779350355653"><ele>25.000000000000004</ele><time>2026-04-18T15:18:09.752Z</time></trkpt><trkpt lat="43.71678379395186" lon="10.960728018908144"><ele>25.0</ele><time>2026-04-18T15:20:03.749Z</time></trkpt><trkpt lat="43.716806158122466" lon="10.960623812521424"><ele>25.0</ele><time>2026-04-18T15:21:08.745Z</time></trkpt><trkpt lat="43.71685907063064" lon="10.960522192314084"><ele>25.0</ele><time>2026-04-18T15:21:11.745Z</time></trkpt><trkpt lat="43.71693821869875" lon="10.960483754825738"><ele>25.000000000000004</ele><time>2026-04-18T15:21:14.745Z</time></trkpt><trkpt lat="43.717008078706925" lon="10.960477942072606"><ele>25.0</ele><time>2026-04-18T15:21:16.745Z</time></trkpt><trkpt lat="43.71707885493755" lon="10.960466303433526"><ele>25.500000000000004</ele><time>2026-04-18T15:21:18.745Z</time></trkpt><trkpt lat="43.71714974028672" lon="10.960506574331378"><ele>26.0</ele><time>2026-04-18T15:21:21.745Z</time></trkpt><trkpt lat="43.71723185084217" lon="10.960518865011679"><ele>26.5</ele><time>2026-04-18T15:21:23.745Z</time></trkpt><trkpt lat="43.7172991175813" lon="10.960511756212446"><ele>27.0</ele><time>2026-04-18T15:21:25.745Z</time></trkpt><trkpt lat="43.717396384933295" lon="10.960531802541222"><ele>27.500000000000004</ele><time>2026-04-18T15:21:28.745Z</time></trkpt><trkpt lat="43.71746446101378" lon="10.960544255451085"><ele>28.0</ele><time>2026-04-18T15:21:30.745Z</time></trkpt><trkpt lat="43.717537142591574" lon="10.960544000866136"><ele>28.0</ele><time>2026-04-18T15:21:32.745Z</time></trkpt><trkpt lat="43.7176117142378" lon="10.960548020020644"><ele>28.0</ele><time>2026-04-18T15:21:34.745Z</time></trkpt><trkpt lat="43.71768562567526" lon="10.96054828634989"><ele>28.0</ele><time>2026-04-18T15:21:36.745Z</time></trkpt><trkpt lat="43.717760070139896" lon="10.960551869433516"><ele>28.0</ele><time>2026-04-18T15:21:38.745Z</time></trkpt><trkpt lat="43.71783626404761" lon="10.960555904418968"><ele>28.0</ele><time>2026-04-18T15:21:40.745Z</time></trkpt><trkpt lat="43.71791040021088" lon="10.960560896423797"><ele>28.0</ele><time>2026-04-18T15:21:42.745Z</time></trkpt><trkpt lat="43.717984603954754" lon="10.96055486927699"><ele>28.0</ele><time>2026-04-18T15:21:44.745Z</time></trkpt><trkpt lat="43.71805623949399" lon="10.960566845143529"><ele>27.857142857142858</ele><time>2026-04-18T15:21:46.745Z</time></trkpt><trkpt lat="43.718115351947006" lon="10.96061442421585"><ele>27.714285714285715</ele><time>2026-04-18T15:21:48.745Z</time></trkpt><trkpt lat="43.71813289518538" lon="10.960699668315897"><ele>27.57142857142857</ele><time>2026-04-18T15:21:50.745Z</time></trkpt><trkpt lat="43.71815966327369" lon="10.960809648604242"><ele>27.42857142857143</ele><time>2026-04-18T15:21:53.745Z</time></trkpt><trkpt lat="43.71821847464777" lon="10.960752321385895"><ele>27.285714285714285</ele><time>2026-04-18T15:21:59.745Z</time></trkpt><trkpt lat="43.718217759880034" lon="10.960662467456974"><ele>27.142857142857142</ele><time>2026-04-18T15:22:02.745Z</time></trkpt><trkpt lat="43.71825048356992" lon="10.960569836244884"><ele>27.0</ele><time>2026-04-18T15:22:05.745Z</time></trkpt><trkpt lat="43.71828011523098" lon="10.960453406158543"><ele>27.0</ele><time>2026-04-18T15:22:08.745Z</time></trkpt><trkpt lat="43.71828344899248" lon="10.960362205481445"><ele>27.0</ele><time>2026-04-18T15:22:10.745Z</time></trkpt><trkpt lat="43.7182849016045" lon="10.960262862419105"><ele>27.0</ele><time>2026-04-18T15:22:12.745Z</time></trkpt><trkpt lat="43.71828799618417" lon="10.960159674548871"><ele>27.0</ele><time>2026-04-18T15:22:14.745Z</time></trkpt><trkpt lat="43.718299370636686" lon="10.960053396808773"><ele>27.0</ele><time>2026-04-18T15:22:16.745Z</time></trkpt><trkpt lat="43.7183270477578" lon="10.959904478658165"><ele>27.0</ele><time>2026-04-18T15:22:18.745Z</time></trkpt><trkpt lat="43.718377009405096" lon="10.959796649119"><ele>27.200000000000003</ele><time>2026-04-18T15:22:20.745Z</time></trkpt><trkpt lat="43.71843523190524" lon="10.959687733960493"><ele>27.400000000000002</ele><time>2026-04-18T15:22:22.745Z</time></trkpt><trkpt lat="43.71848254465017" lon="10.959574658234208"><ele>27.599999999999998</ele><time>2026-04-18T15:22:24.745Z</time></trkpt><trkpt lat="43.718523948120165" lon="10.959452242156669"><ele>27.799999999999997</ele><time>2026-04-18T15:22:26.745Z</time></trkpt><trkpt lat="43.718549612251415" lon="10.95931880315516"><ele>28.0</ele><time>2026-04-18T15:22:28.745Z</time></trkpt><trkpt lat="43.71855785311516" lon="10.959173460353266"><ele>28.0</ele><time>2026-04-18T15:22:30.741Z</time></trkpt><trkpt lat="43.718556423314475" lon="10.959027665478674"><ele>27.999999999999996</ele><time>2026-04-18T15:22:32.741Z</time></trkpt><trkpt lat="43.71854988251774" lon="10.958881788292663"><ele>27.999999999999996</ele><time>2026-04-18T15:22:34.741Z</time></trkpt><trkpt lat="43.71855103246455" lon="10.958727610421839"><ele>28.0</ele><time>2026-04-18T15:22:36.741Z</time></trkpt><trkpt lat="43.718545582192874" lon="10.958579033276196"><ele>28.0</ele><time>2026-04-18T15:22:38.741Z</time></trkpt><trkpt lat="43.718543628705625" lon="10.95843442865483"><ele>28.2</ele><time>2026-04-18T15:22:40.741Z</time></trkpt><trkpt lat="43.718535305749015" lon="10.958292731023864"><ele>28.4</ele><time>2026-04-18T15:22:42.741Z</time></trkpt><trkpt lat="43.71852705548544" lon="10.958150722905026"><ele>28.599999999999998</ele><time>2026-04-18T15:22:44.741Z</time></trkpt><trkpt lat="43.718524332722154" lon="10.958005983532729"><ele>28.799999999999997</ele><time>2026-04-18T15:22:46.741Z</time></trkpt><trkpt lat="43.71852529438998" lon="10.957860664860215"><ele>29.0</ele><time>2026-04-18T15:22:48.741Z</time></trkpt><trkpt lat="43.71851333183231" lon="10.957717849715259"><ele>29.0</ele><time>2026-04-18T15:22:50.741Z</time></trkpt><trkpt lat="43.7185037377039" lon="10.957570067693744"><ele>29.0</ele><time>2026-04-18T15:22:52.741Z</time></trkpt><trkpt lat="43.71848758305417" lon="10.957433642349784"><ele>29.0</ele><time>2026-04-18T15:22:54.741Z</time></trkpt><trkpt lat="43.7184662548131" lon="10.957298420927552"><ele>29.0</ele><time>2026-04-18T15:22:56.741Z</time></trkpt><trkpt lat="43.71844640395338" lon="10.95715798253458"><ele>29.0</ele><time>2026-04-18T15:22:58.741Z</time></trkpt><trkpt lat="43.71842568796871" lon="10.957023737795646"><ele>29.0</ele><time>2026-04-18T15:23:00.741Z</time></trkpt><trkpt lat="43.718398483185474" lon="10.9568870483018"><ele>29.0</ele><time>2026-04-18T15:23:02.741Z</time></trkpt><trkpt lat="43.71837806160759" lon="10.956748681426665"><ele>29.0</ele><time>2026-04-18T15:23:04.741Z</time></trkpt><trkpt lat="43.7183606869617" lon="10.956625447792053"><ele>29.0</ele><time>2026-04-18T15:23:06.741Z</time></trkpt><trkpt lat="43.71833817011662" lon="10.956493155641363"><ele>29.0</ele><time>2026-04-18T15:23:08.741Z</time></trkpt><trkpt lat="43.718322634879065" lon="10.956359597019837"><ele>29.0</ele><time>2026-04-18T15:23:10.741Z</time></trkpt><trkpt lat="43.718304254293564" lon="10.956225224204486"><ele>29.0</ele><time>2026-04-18T15:23:12.741Z</time></trkpt><trkpt lat="43.718278400661724" lon="10.956091426032247"><ele>29.0</ele><time>2026-04-18T15:23:14.741Z</time></trkpt><trkpt lat="43.71825710499653" lon="10.955958811195874"><ele>29.0</ele><time>2026-04-18T15:23:16.741Z</time></trkpt><trkpt lat="43.71823945487192" lon="10.955823177714652"><ele>29.0</ele><time>2026-04-18T15:23:18.741Z</time></trkpt><trkpt lat="43.71822320683149" lon="10.955683247798268"><ele>29.0</ele><time>2026-04-18T15:23:20.741Z</time></trkpt><trkpt lat="43.718214583200215" lon="10.955542862664071"><ele>29.0</ele><time>2026-04-18T15:23:22.741Z</time></trkpt><trkpt lat="43.718209039625236" lon="10.955403238270263"><ele>29.0</ele><time>2026-04-18T15:23:24.741Z</time></trkpt><trkpt lat="43.71819720166046" lon="10.95526364194497"><ele>29.0</ele><time>2026-04-18T15:23:26.741Z</time></trkpt><trkpt lat="43.7181859533668" lon="10.955121990191278"><ele>29.0</ele><time>2026-04-18T15:23:28.741Z</time></trkpt><trkpt lat="43.71818302523528" lon="10.954981470999025"><ele>29.0</ele><time>2026-04-18T15:23:30.741Z</time></trkpt><trkpt lat="43.71818408213615" lon="10.954842752800232"><ele>29.0</ele><time>2026-04-18T15:23:32.741Z</time></trkpt><trkpt lat="43.7181761395458" lon="10.954702449019715"><ele>29.0</ele><time>2026-04-18T15:23:34.741Z</time></trkpt><trkpt lat="43.718164626286914" lon="10.954557762071843"><ele>29.0</ele><time>2026-04-18T15:23:36.741Z</time></trkpt><trkpt lat="43.718155581152494" lon="10.95441402169447"><ele>29.0</ele><time>2026-04-18T15:23:38.741Z</time></trkpt><trkpt lat="43.71814890251339" lon="10.95426651157124"><ele>28.6</ele><time>2026-04-18T15:23:40.741Z</time></trkpt><trkpt lat="43.7181425124133" lon="10.954126770322587"><ele>28.2</ele><time>2026-04-18T15:23:42.741Z</time></trkpt><trkpt lat="43.718132134746185" lon="10.95398605502034"><ele>27.800000000000004</ele><time>2026-04-18T15:23:44.741Z</time></trkpt><trkpt lat="43.71812898491299" lon="10.953837782111258"><ele>27.400000000000002</ele><time>2026-04-18T15:23:46.741Z</time></trkpt><trkpt lat="43.7181149230435" lon="10.95369217440045"><ele>27.0</ele><time>2026-04-18T15:23:48.741Z</time></trkpt><trkpt lat="43.718107867611636" lon="10.953548531964394"><ele>27.0</ele><time>2026-04-18T15:23:50.741Z</time></trkpt><trkpt lat="43.718102881591676" lon="10.953404487572612"><ele>27.000000000000004</ele><time>2026-04-18T15:23:52.741Z</time></trkpt><trkpt lat="43.71809100863754" lon="10.953260082433577"><ele>27.000000000000004</ele><time>2026-04-18T15:23:54.741Z</time></trkpt><trkpt lat="43.71808220565575" lon="10.953119357217137"><ele>27.0</ele><time>2026-04-18T15:23:56.741Z</time></trkpt><trkpt lat="43.71806956777047" lon="10.952972174916319"><ele>27.0</ele><time>2026-04-18T15:23:58.741Z</time></trkpt><trkpt lat="43.71806218301867" lon="10.952828155677274"><ele>26.8</ele><time>2026-04-18T15:24:00.741Z</time></trkpt><trkpt lat="43.71805872838662" lon="10.952682017851233"><ele>26.6</ele><time>2026-04-18T15:24:02.741Z</time></trkpt><trkpt lat="43.71804831239439" lon="10.952535789149952"><ele>26.400000000000002</ele><time>2026-04-18T15:24:04.741Z</time></trkpt><trkpt lat="43.71803951540777" lon="10.952391892447604"><ele>26.200000000000003</ele><time>2026-04-18T15:24:06.741Z</time></trkpt><trkpt lat="43.71803371117519" lon="10.952250772314416"><ele>26.0</ele><time>2026-04-18T15:24:08.741Z</time></trkpt><trkpt lat="43.71802544829169" lon="10.95210941551172"><ele>26.4</ele><time>2026-04-18T15:24:10.741Z</time></trkpt><trkpt lat="43.71801932865556" lon="10.95196536714688"><ele>26.8</ele><time>2026-04-18T15:24:12.741Z</time></trkpt><trkpt lat="43.71801099979413" lon="10.951821226303547"><ele>27.199999999999996</ele><time>2026-04-18T15:24:14.741Z</time></trkpt><trkpt lat="43.7179997318911" lon="10.951680896239651"><ele>27.599999999999998</ele><time>2026-04-18T15:24:16.741Z</time></trkpt><trkpt lat="43.71799071449595" lon="10.951538221550775"><ele>28.0</ele><time>2026-04-18T15:24:18.741Z</time></trkpt><trkpt lat="43.7179840150578" lon="10.951395102213143"><ele>28.2</ele><time>2026-04-18T15:24:20.741Z</time></trkpt><trkpt lat="43.717978196876935" lon="10.951252315057717"><ele>28.4</ele><time>2026-04-18T15:24:22.741Z</time></trkpt><trkpt lat="43.71796739870872" lon="10.95111133409998"><ele>28.599999999999998</ele><time>2026-04-18T15:24:24.741Z</time></trkpt><trkpt lat="43.71795719104918" lon="10.950967052627572"><ele>28.799999999999997</ele><time>2026-04-18T15:24:26.741Z</time></trkpt><trkpt lat="43.7179518287756" lon="10.95082471031608"><ele>29.0</ele><time>2026-04-18T15:24:28.741Z</time></trkpt><trkpt lat="43.717948402617075" lon="10.950678921856717"><ele>29.2</ele><time>2026-04-18T15:24:30.741Z</time></trkpt><trkpt lat="43.71794459262971" lon="10.95053366620422"><ele>29.4</ele><time>2026-04-18T15:24:32.741Z</time></trkpt><trkpt lat="43.71793509122767" lon="10.95038317898921"><ele>29.6</ele><time>2026-04-18T15:24:34.741Z</time></trkpt><trkpt lat="43.71792928930258" lon="10.950234607599043"><ele>29.8</ele><time>2026-04-18T15:24:36.738Z</time></trkpt><trkpt lat="43.71792171651992" lon="10.950084492766674"><ele>30.0</ele><time>2026-04-18T15:24:38.737Z</time></trkpt><trkpt lat="43.717908559672225" lon="10.949933233017424"><ele>30.0</ele><time>2026-04-18T15:24:40.737Z</time></trkpt><trkpt lat="43.71789998189486" lon="10.949776394324903"><ele>30.0</ele><time>2026-04-18T15:24:42.737Z</time></trkpt><trkpt lat="43.717886885933424" lon="10.949621366964164"><ele>30.0</ele><time>2026-04-18T15:24:44.737Z</time></trkpt><trkpt lat="43.71787933649267" lon="10.949470590940889"><ele>30.0</ele><time>2026-04-18T15:24:46.737Z</time></trkpt><trkpt lat="43.71787087876256" lon="10.949309625461376"><ele>30.0</ele><time>2026-04-18T15:24:48.737Z</time></trkpt><trkpt lat="43.71786551685399" lon="10.9491580618649"><ele>30.0</ele><time>2026-04-18T15:24:50.737Z</time></trkpt><trkpt lat="43.7178618452701" lon="10.949069113518876"><ele>30.0</ele><time>2026-04-18T15:24:51.737Z</time></trkpt><trkpt lat="43.71784535691752" lon="10.948910738011573"><ele>30.0</ele><time>2026-04-18T15:24:53.737Z</time></trkpt><trkpt lat="43.71784076463697" lon="10.94875769598831"><ele>30.0</ele><time>2026-04-18T15:24:55.737Z</time></trkpt><trkpt lat="43.717834029198656" lon="10.948608837547306"><ele>30.0</ele><time>2026-04-18T15:24:57.737Z</time></trkpt><trkpt lat="43.7178284972159" lon="10.948476476731368"><ele>30.0</ele><time>2026-04-18T15:24:59.737Z</time></trkpt><trkpt lat="43.717821396747674" lon="10.948354389147406"><ele>30.0</ele><time>2026-04-18T15:25:01.737Z</time></trkpt><trkpt lat="43.71781264883288" lon="10.948238240549273"><ele>30.0</ele><time>2026-04-18T15:25:03.737Z</time></trkpt><trkpt lat="43.717814583307934" lon="10.948120669565974"><ele>30.0</ele><time>2026-04-18T15:25:06.737Z</time></trkpt><trkpt lat="43.71781597367108" lon="10.948030818258097"><ele>30.0</ele><time>2026-04-18T15:25:09.737Z</time></trkpt><trkpt lat="43.71786891687303" lon="10.947953277340856"><ele>30.0</ele><time>2026-04-18T15:25:58.737Z</time></trkpt><trkpt lat="43.71791182730274" lon="10.947861664767423"><ele>30.0</ele><time>2026-04-18T15:26:02.737Z</time></trkpt><trkpt lat="43.71795379219126" lon="10.94773509787453"><ele>30.0</ele><time>2026-04-18T15:26:05.737Z</time></trkpt><trkpt lat="43.71800195745576" lon="10.947642528477209"><ele>30.0</ele><time>2026-04-18T15:26:07.737Z</time></trkpt><trkpt lat="43.718015038212584" lon="10.947513008860513"><ele>30.0</ele><time>2026-04-18T15:26:09.737Z</time></trkpt><trkpt lat="43.71802778504846" lon="10.947389094623665"><ele>30.0</ele><time>2026-04-18T15:26:11.737Z</time></trkpt><trkpt lat="43.71803472439668" lon="10.947263385603456"><ele>30.2</ele><time>2026-04-18T15:26:13.737Z</time></trkpt><trkpt lat="43.71803451429616" lon="10.947109557219077"><ele>30.4</ele><time>2026-04-18T15:26:15.737Z</time></trkpt><trkpt lat="43.718021403079355" lon="10.946963349389494"><ele>30.6</ele><time>2026-04-18T15:26:17.737Z</time></trkpt><trkpt lat="43.718021917700106" lon="10.946811209267521"><ele>30.8</ele><time>2026-04-18T15:26:19.737Z</time></trkpt><trkpt lat="43.71801116729469" lon="10.946661093497177"><ele>31.0</ele><time>2026-04-18T15:26:21.737Z</time></trkpt><trkpt lat="43.71800277564079" lon="10.946512661559343"><ele>31.0</ele><time>2026-04-18T15:26:23.737Z</time></trkpt><trkpt lat="43.718005289488836" lon="10.946366761412609"><ele>31.0</ele><time>2026-04-18T15:26:25.737Z</time></trkpt><trkpt lat="43.71800033302433" lon="10.946223377754766"><ele>31.0</ele><time>2026-04-18T15:26:27.737Z</time></trkpt><trkpt lat="43.71799503431564" lon="10.946077636971083"><ele>31.0</ele><time>2026-04-18T15:26:29.737Z</time></trkpt><trkpt lat="43.71798786169539" lon="10.945931060258223"><ele>31.0</ele><time>2026-04-18T15:26:31.737Z</time></trkpt><trkpt lat="43.71798341178159" lon="10.945786183727572"><ele>31.0</ele><time>2026-04-18T15:26:33.737Z</time></trkpt><trkpt lat="43.7179639806227" lon="10.945644131956287"><ele>31.0</ele><time>2026-04-18T15:26:35.737Z</time></trkpt><trkpt lat="43.71794628666968" lon="10.945505096530711"><ele>31.0</ele><time>2026-04-18T15:26:37.737Z</time></trkpt><trkpt lat="43.71792083194203" lon="10.945367482331367"><ele>31.0</ele><time>2026-04-18T15:26:39.737Z</time></trkpt><trkpt lat="43.71790450185453" lon="10.94521849823611"><ele>31.0</ele><time>2026-04-18T15:26:41.737Z</time></trkpt><trkpt lat="43.71789085023401" lon="10.945069532914797"><ele>30.8</ele><time>2026-04-18T15:26:43.734Z</time></trkpt><trkpt lat="43.71786492317533" lon="10.944930883914267"><ele>30.6</ele><time>2026-04-18T15:26:45.734Z</time></trkpt><trkpt lat="43.71787049679729" lon="10.944787639091638"><ele>30.4</ele><time>2026-04-18T15:26:47.734Z</time></trkpt><trkpt lat="43.717856996991735" lon="10.944646464450912"><ele>30.2</ele><time>2026-04-18T15:26:49.734Z</time></trkpt><trkpt lat="43.717838020744374" lon="10.94450717195297"><ele>30.0</ele><time>2026-04-18T15:26:51.734Z</time></trkpt><trkpt lat="43.71782226886918" lon="10.944361843641701"><ele>30.0</ele><time>2026-04-18T15:26:53.734Z</time></trkpt><trkpt lat="43.71781907500188" lon="10.944226571994626"><ele>30.0</ele><time>2026-04-18T15:26:55.734Z</time></trkpt><trkpt lat="43.717806078596674" lon="10.944087990243768"><ele>30.0</ele><time>2026-04-18T15:26:57.734Z</time></trkpt><trkpt lat="43.71781377134903" lon="10.943961605340698"><ele>30.0</ele><time>2026-04-18T15:26:59.734Z</time></trkpt><trkpt lat="43.7179450740979" lon="10.943934286930983"><ele>30.0</ele><time>2026-04-18T15:27:01.734Z</time></trkpt><trkpt lat="43.718045833593386" lon="10.943924624506442"><ele>29.6</ele><time>2026-04-18T15:27:03.734Z</time></trkpt><trkpt lat="43.71814334061789" lon="10.94391618606628"><ele>29.2</ele><time>2026-04-18T15:27:05.734Z</time></trkpt><trkpt lat="43.71824287074544" lon="10.943931544754264"><ele>28.799999999999997</ele><time>2026-04-18T15:27:07.734Z</time></trkpt><trkpt lat="43.71834160216016" lon="10.943956539556025"><ele>28.4</ele><time>2026-04-18T15:27:09.734Z</time></trkpt><trkpt lat="43.71843423798562" lon="10.943981547252136"><ele>28.0</ele><time>2026-04-18T15:27:11.734Z</time></trkpt><trkpt lat="43.71852068991885" lon="10.94403862679409"><ele>28.4</ele><time>2026-04-18T15:27:13.734Z</time></trkpt><trkpt lat="43.71859765416096" lon="10.944108045409072"><ele>28.799999999999997</ele><time>2026-04-18T15:27:15.734Z</time></trkpt><trkpt lat="43.718671120071896" lon="10.944181487435797"><ele>29.2</ele><time>2026-04-18T15:27:17.734Z</time></trkpt><trkpt lat="43.71875137519534" lon="10.944234976123111"><ele>29.6</ele><time>2026-04-18T15:27:19.734Z</time></trkpt><trkpt lat="43.7188456349766" lon="10.944257943410978"><ele>30.0</ele><time>2026-04-18T15:27:21.734Z</time></trkpt><trkpt lat="43.71893513546326" lon="10.944266185327745"><ele>30.4</ele><time>2026-04-18T15:27:23.734Z</time></trkpt><trkpt lat="43.71903048381682" lon="10.944274355132936"><ele>30.8</ele><time>2026-04-18T15:27:25.734Z</time></trkpt><trkpt lat="43.719128378464056" lon="10.944275583141172"><ele>31.200000000000003</ele><time>2026-04-18T15:27:27.734Z</time></trkpt><trkpt lat="43.7192275755423" lon="10.944281107941897"><ele>31.6</ele><time>2026-04-18T15:27:29.734Z</time></trkpt><trkpt lat="43.71932320204103" lon="10.944288172582622"><ele>32.0</ele><time>2026-04-18T15:27:31.734Z</time></trkpt><trkpt lat="43.71942364618078" lon="10.944290920242775"><ele>32.0</ele><time>2026-04-18T15:27:33.734Z</time></trkpt><trkpt lat="43.719519905556645" lon="10.944297797059246"><ele>32.0</ele><time>2026-04-18T15:27:35.734Z</time></trkpt><trkpt lat="43.719621678665746" lon="10.944299552003457"><ele>32.0</ele><time>2026-04-18T15:27:37.734Z</time></trkpt><trkpt lat="43.71971395140243" lon="10.944275720211445"><ele>32.0</ele><time>2026-04-18T15:27:39.734Z</time></trkpt><trkpt lat="43.71981080339148" lon="10.944264484797237"><ele>32.0</ele><time>2026-04-18T15:27:41.734Z</time></trkpt><trkpt lat="43.719865985618064" lon="10.944112174603191"><ele>31.6</ele><time>2026-04-18T15:27:43.734Z</time></trkpt><trkpt lat="43.719867286931" lon="10.944023201407242"><ele>31.200000000000003</ele><time>2026-04-18T15:27:44.734Z</time></trkpt><trkpt lat="43.71986341639075" lon="10.943885093563456"><ele>30.8</ele><time>2026-04-18T15:27:46.734Z</time></trkpt><trkpt lat="43.71985677460369" lon="10.94374741482975"><ele>30.4</ele><time>2026-04-18T15:27:48.734Z</time></trkpt><trkpt lat="43.71985844850497" lon="10.943591282911656"><ele>30.0</ele><time>2026-04-18T15:27:50.734Z</time></trkpt><trkpt lat="43.71985792697669" lon="10.943447835077677"><ele>29.8</ele><time>2026-04-18T15:27:52.734Z</time></trkpt><trkpt lat="43.719857300499974" lon="10.943309676140556"><ele>29.6</ele><time>2026-04-18T15:27:54.734Z</time></trkpt><trkpt lat="43.719855097500016" lon="10.943165255055229"><ele>29.4</ele><time>2026-04-18T15:27:56.734Z</time></trkpt><trkpt lat="43.71985489679291" lon="10.943026326209187"><ele>29.2</ele><time>2026-04-18T15:27:58.734Z</time></trkpt><trkpt lat="43.71985809443117" lon="10.94287733462395"><ele>29.0</ele><time>2026-04-18T15:28:00.734Z</time></trkpt><trkpt lat="43.719858538771874" lon="10.94274142692624"><ele>29.0</ele><time>2026-04-18T15:28:02.734Z</time></trkpt><trkpt lat="43.71985904804298" lon="10.942601514618783"><ele>29.0</ele><time>2026-04-18T15:28:04.734Z</time></trkpt><trkpt lat="43.71986178666824" lon="10.942466748967266"><ele>29.0</ele><time>2026-04-18T15:28:06.734Z</time></trkpt><trkpt lat="43.71986269382181" lon="10.942338205892824"><ele>29.0</ele><time>2026-04-18T15:28:08.734Z</time></trkpt><trkpt lat="43.71998703876668" lon="10.942310352382986"><ele>29.0</ele><time>2026-04-18T15:28:12.734Z</time></trkpt><trkpt lat="43.720102966879715" lon="10.942298776105869"><ele>28.6</ele><time>2026-04-18T15:28:14.734Z</time></trkpt><trkpt lat="43.720217133498394" lon="10.942295194086519"><ele>28.2</ele><time>2026-04-18T15:28:16.734Z</time></trkpt><trkpt lat="43.720281834919916" lon="10.942316980286993"><ele>27.800000000000004</ele><time>2026-04-18T15:28:17.734Z</time></trkpt><trkpt lat="43.720399400496106" lon="10.942326361496882"><ele>27.400000000000002</ele><time>2026-04-18T15:28:19.734Z</time></trkpt><trkpt lat="43.720497047778856" lon="10.942314078683125"><ele>27.0</ele><time>2026-04-18T15:28:21.734Z</time></trkpt><trkpt lat="43.72059286784646" lon="10.94230505057814"><ele>26.8</ele><time>2026-04-18T15:28:23.734Z</time></trkpt><trkpt lat="43.72069183124495" lon="10.942302466500525"><ele>26.6</ele><time>2026-04-18T15:28:25.734Z</time></trkpt><trkpt lat="43.7207849832423" lon="10.942296161180867"><ele>26.400000000000002</ele><time>2026-04-18T15:28:27.734Z</time></trkpt><trkpt lat="43.7208771733191" lon="10.942306433276489"><ele>26.200000000000003</ele><time>2026-04-18T15:28:29.734Z</time></trkpt><trkpt lat="43.720974160443134" lon="10.942318378256326"><ele>26.0</ele><time>2026-04-18T15:28:31.734Z</time></trkpt><trkpt lat="43.72104567111684" lon="10.942324680581233"><ele>26.714285714285715</ele><time>2026-04-18T15:28:33.734Z</time></trkpt><trkpt lat="43.7211222626191" lon="10.942345258938861"><ele>27.42857142857143</ele><time>2026-04-18T15:28:35.734Z</time></trkpt><trkpt lat="43.72119385941077" lon="10.942340459171731"><ele>28.142857142857146</ele><time>2026-04-18T15:28:37.734Z</time></trkpt><trkpt lat="43.72125949064982" lon="10.942371811363248"><ele>28.857142857142858</ele><time>2026-04-18T15:28:39.734Z</time></trkpt><trkpt lat="43.721332357875376" lon="10.942405118253664"><ele>29.571428571428577</ele><time>2026-04-18T15:28:41.734Z</time></trkpt><trkpt lat="43.721398380718014" lon="10.942404274859962"><ele>30.28571428571429</ele><time>2026-04-18T15:28:43.734Z</time></trkpt><trkpt lat="43.72147988934822" lon="10.94242996581518"><ele>31.0</ele><time>2026-04-18T15:28:45.734Z</time></trkpt><trkpt lat="43.72152641531267" lon="10.942251651280541"><ele>31.0</ele><time>2026-04-18T15:28:51.73Z</time></trkpt><trkpt lat="43.72153723827242" lon="10.942162248954812"><ele>31.000000000000004</ele><time>2026-04-18T15:28:53.73Z</time></trkpt><trkpt lat="43.721532196617815" lon="10.942069687336474"><ele>31.0</ele><time>2026-04-18T15:28:55.73Z</time></trkpt><trkpt lat="43.72151170317175" lon="10.941969156759537"><ele>31.0</ele><time>2026-04-18T15:28:57.73Z</time></trkpt><trkpt lat="43.72151454846465" lon="10.941862196500457"><ele>31.000000000000004</ele><time>2026-04-18T15:28:59.73Z</time></trkpt><trkpt lat="43.72151007483337" lon="10.941750718693825"><ele>31.0</ele><time>2026-04-18T15:29:01.73Z</time></trkpt><trkpt lat="43.7215137324495" lon="10.941640582029457"><ele>31.0</ele><time>2026-04-18T15:29:03.73Z</time></trkpt><trkpt lat="43.72150168395868" lon="10.941520656205684"><ele>30.0</ele><time>2026-04-18T15:29:05.73Z</time></trkpt><trkpt lat="43.721500563026666" lon="10.94139473274865"><ele>29.0</ele><time>2026-04-18T15:29:07.73Z</time></trkpt><trkpt lat="43.72148675828101" lon="10.941273432543626"><ele>28.0</ele><time>2026-04-18T15:29:09.73Z</time></trkpt><trkpt lat="43.72148266259859" lon="10.941145868711818"><ele>27.0</ele><time>2026-04-18T15:29:11.73Z</time></trkpt><trkpt lat="43.72146916911116" lon="10.941014568688434"><ele>26.0</ele><time>2026-04-18T15:29:13.73Z</time></trkpt><trkpt lat="43.72147190696273" lon="10.940890786703427"><ele>25.6</ele><time>2026-04-18T15:29:15.73Z</time></trkpt><trkpt lat="43.72147276274796" lon="10.940765298889167"><ele>25.200000000000003</ele><time>2026-04-18T15:29:17.73Z</time></trkpt><trkpt lat="43.72145676700991" lon="10.940636620973502"><ele>24.799999999999997</ele><time>2026-04-18T15:29:19.73Z</time></trkpt><trkpt lat="43.72159579658597" lon="10.940507528519714"><ele>24.4</ele><time>2026-04-18T15:29:22.73Z</time></trkpt><trkpt lat="43.72161909588805" lon="10.940396612456487"><ele>24.0</ele><time>2026-04-18T15:29:24.73Z</time></trkpt><trkpt lat="43.721623039396896" lon="10.94026022856836"><ele>24.0</ele><time>2026-04-18T15:29:26.73Z</time></trkpt><trkpt lat="43.721638102992266" lon="10.940143454894585"><ele>24.0</ele><time>2026-04-18T15:29:28.73Z</time></trkpt><trkpt lat="43.7216663549373" lon="10.940024989920031"><ele>24.0</ele><time>2026-04-18T15:29:30.73Z</time></trkpt><trkpt lat="43.72169648424828" lon="10.939910706175892"><ele>24.0</ele><time>2026-04-18T15:29:32.73Z</time></trkpt><trkpt lat="43.72172981247582" lon="10.939796371872376"><ele>24.0</ele><time>2026-04-18T15:29:34.73Z</time></trkpt><trkpt lat="43.721760514369684" lon="10.939681843544365"><ele>24.0</ele><time>2026-04-18T15:29:36.73Z</time></trkpt><trkpt lat="43.72178998256564" lon="10.93957452885215"><ele>24.166666666666668</ele><time>2026-04-18T15:29:38.73Z</time></trkpt><trkpt lat="43.72181828354875" lon="10.93946581355666"><ele>24.333333333333336</ele><time>2026-04-18T15:29:40.73Z</time></trkpt><trkpt lat="43.72184828869383" lon="10.939356181847204"><ele>24.5</ele><time>2026-04-18T15:29:42.73Z</time></trkpt><trkpt lat="43.72189158300078" lon="10.939252169158433"><ele>24.666666666666668</ele><time>2026-04-18T15:29:44.73Z</time></trkpt><trkpt lat="43.721942811249136" lon="10.93914755703917"><ele>24.833333333333336</ele><time>2026-04-18T15:29:46.73Z</time></trkpt><trkpt lat="43.72198557698643" lon="10.939048285592074"><ele>25.0</ele><time>2026-04-18T15:29:48.73Z</time></trkpt><trkpt lat="43.722032048045044" lon="10.938960336792537"><ele>24.166666666666668</ele><time>2026-04-18T15:29:50.73Z</time></trkpt><trkpt lat="43.72207762988881" lon="10.938869494273359"><ele>23.333333333333336</ele><time>2026-04-18T15:29:52.73Z</time></trkpt><trkpt lat="43.72212390108982" lon="10.93877396287334"><ele>22.5</ele><time>2026-04-18T15:29:54.73Z</time></trkpt><trkpt lat="43.722167629669286" lon="10.938682565921022"><ele>21.666666666666668</ele><time>2026-04-18T15:29:56.73Z</time></trkpt><trkpt lat="43.72220712961454" lon="10.938591853704333"><ele>20.833333333333336</ele><time>2026-04-18T15:29:58.73Z</time></trkpt><trkpt lat="43.722251169237325" lon="10.938512162977693"><ele>20.0</ele><time>2026-04-18T15:30:00.73Z</time></trkpt><trkpt lat="43.72229264583759" lon="10.93843289010549"><ele>20.428571428571427</ele><time>2026-04-18T15:30:02.73Z</time></trkpt><trkpt lat="43.72233513982096" lon="10.938356162249116"><ele>20.857142857142858</ele><time>2026-04-18T15:30:04.73Z</time></trkpt><trkpt lat="43.72237219628124" lon="10.93827325431875"><ele>21.285714285714285</ele><time>2026-04-18T15:30:06.73Z</time></trkpt><trkpt lat="43.72240997934544" lon="10.938183309215132"><ele>21.714285714285715</ele><time>2026-04-18T15:30:08.73Z</time></trkpt><trkpt lat="43.7224350670655" lon="10.938093131583779"><ele>22.142857142857142</ele><time>2026-04-18T15:30:10.73Z</time></trkpt><trkpt lat="43.72246411838551" lon="10.937999372416453"><ele>22.571428571428573</ele><time>2026-04-18T15:30:12.73Z</time></trkpt><trkpt lat="43.72248874335374" lon="10.93790381434418"><ele>23.0</ele><time>2026-04-18T15:30:14.73Z</time></trkpt><trkpt lat="43.722510721905806" lon="10.937803362272465"><ele>23.0</ele><time>2026-04-18T15:30:16.73Z</time></trkpt><trkpt lat="43.722530687874446" lon="10.937714579257078"><ele>23.0</ele><time>2026-04-18T15:30:18.73Z</time></trkpt><trkpt lat="43.72254707491702" lon="10.937617470444474"><ele>23.0</ele><time>2026-04-18T15:30:20.73Z</time></trkpt><trkpt lat="43.72257322627569" lon="10.937493033246312"><ele>23.0</ele><time>2026-04-18T15:30:23.73Z</time></trkpt><trkpt lat="43.72258252767706" lon="10.937401293424825"><ele>23.0</ele><time>2026-04-18T15:30:25.73Z</time></trkpt><trkpt lat="43.7225849866338" lon="10.937312344253623"><ele>23.0</ele><time>2026-04-18T15:30:27.73Z</time></trkpt><trkpt lat="43.7226041693052" lon="10.937218777417964"><ele>23.0</ele><time>2026-04-18T15:30:29.73Z</time></trkpt><trkpt lat="43.72262017569046" lon="10.937120469707981"><ele>23.166666666666668</ele><time>2026-04-18T15:30:31.73Z</time></trkpt><trkpt lat="43.722633700522884" lon="10.937018374154098"><ele>23.333333333333336</ele><time>2026-04-18T15:30:33.73Z</time></trkpt><trkpt lat="43.72264860107235" lon="10.93691064616892"><ele>23.5</ele><time>2026-04-18T15:30:35.73Z</time></trkpt><trkpt lat="43.72266645671049" lon="10.936794453248236"><ele>23.666666666666668</ele><time>2026-04-18T15:30:37.73Z</time></trkpt><trkpt lat="43.72266874398892" lon="10.936673878020462"><ele>23.833333333333332</ele><time>2026-04-18T15:30:39.73Z</time></trkpt><trkpt lat="43.72270365722447" lon="10.936565712560418"><ele>24.0</ele><time>2026-04-18T15:30:41.73Z</time></trkpt><trkpt lat="43.72272570714074" lon="10.93644253135079"><ele>22.8</ele><time>2026-04-18T15:30:43.73Z</time></trkpt><trkpt lat="43.72274875333165" lon="10.936325007572055"><ele>21.599999999999998</ele><time>2026-04-18T15:30:45.73Z</time></trkpt><trkpt lat="43.722773086210985" lon="10.936205692553518"><ele>20.4</ele><time>2026-04-18T15:30:47.73Z</time></trkpt><trkpt lat="43.722798807286125" lon="10.936085633628018"><ele>19.2</ele><time>2026-04-18T15:30:49.73Z</time></trkpt><trkpt lat="43.722824832018716" lon="10.935964791518439"><ele>18.0</ele><time>2026-04-18T15:30:51.73Z</time></trkpt><trkpt lat="43.72284893030109" lon="10.935844355316357"><ele>17.6</ele><time>2026-04-18T15:30:53.727Z</time></trkpt><trkpt lat="43.722870603206204" lon="10.935712301455135"><ele>17.200000000000003</ele><time>2026-04-18T15:30:55.727Z</time></trkpt><trkpt lat="43.72287994270454" lon="10.935579390051192"><ele>16.8</ele><time>2026-04-18T15:30:57.727Z</time></trkpt><trkpt lat="43.72289985702522" lon="10.935439841586641"><ele>16.400000000000002</ele><time>2026-04-18T15:30:59.727Z</time></trkpt><trkpt lat="43.72294255372079" lon="10.935312254402152"><ele>16.0</ele><time>2026-04-18T15:31:01.727Z</time></trkpt><trkpt lat="43.7229599543925" lon="10.935168867269054"><ele>16.8</ele><time>2026-04-18T15:31:03.727Z</time></trkpt><trkpt lat="43.722990725668396" lon="10.935029436232824"><ele>17.6</ele><time>2026-04-18T15:31:05.727Z</time></trkpt><trkpt lat="43.72302483167478" lon="10.934898135582573"><ele>18.4</ele><time>2026-04-18T15:31:07.727Z</time></trkpt><trkpt lat="43.72306279263477" lon="10.934757070647994"><ele>19.2</ele><time>2026-04-18T15:31:09.727Z</time></trkpt><trkpt lat="43.72310149902397" lon="10.934624775286698"><ele>20.0</ele><time>2026-04-18T15:31:11.727Z</time></trkpt><trkpt lat="43.72314425623356" lon="10.934488908141631"><ele>20.0</ele><time>2026-04-18T15:31:13.727Z</time></trkpt><trkpt lat="43.72319006675556" lon="10.934354632272862"><ele>20.0</ele><time>2026-04-18T15:31:15.727Z</time></trkpt><trkpt lat="43.7232390553178" lon="10.9342278980826"><ele>20.0</ele><time>2026-04-18T15:31:17.727Z</time></trkpt><trkpt lat="43.723272466007984" lon="10.934151512321876"><ele>20.0</ele><time>2026-04-18T15:31:18.727Z</time></trkpt><trkpt lat="43.723322282484695" lon="10.93404485037166"><ele>20.0</ele><time>2026-04-18T15:31:20.727Z</time></trkpt><trkpt lat="43.72337795957626" lon="10.933927009448949"><ele>19.75</ele><time>2026-04-18T15:31:22.727Z</time></trkpt><trkpt lat="43.7234307630519" lon="10.93381525021784"><ele>19.5</ele><time>2026-04-18T15:31:24.727Z</time></trkpt><trkpt lat="43.72348311728126" lon="10.933704441821204"><ele>19.25</ele><time>2026-04-18T15:31:26.727Z</time></trkpt><trkpt lat="43.72364083538573" lon="10.9337613852631"><ele>19.0</ele><time>2026-04-18T15:31:27.727Z</time></trkpt><trkpt lat="43.723693606803494" lon="10.933640863508336"><ele>19.0</ele><time>2026-04-18T15:31:29.727Z</time></trkpt><trkpt lat="43.723748276467376" lon="10.93352222469644"><ele>19.0</ele><time>2026-04-18T15:31:31.727Z</time></trkpt><trkpt lat="43.72380771200181" lon="10.933399711988104"><ele>19.0</ele><time>2026-04-18T15:31:33.727Z</time></trkpt><trkpt lat="43.72385413892711" lon="10.933275170692177"><ele>19.0</ele><time>2026-04-18T15:31:35.727Z</time></trkpt><trkpt lat="43.723909660576005" lon="10.933154942793504"><ele>19.0</ele><time>2026-04-18T15:31:37.727Z</time></trkpt><trkpt lat="43.72396470188058" lon="10.933030694564694"><ele>19.6</ele><time>2026-04-18T15:31:39.727Z</time></trkpt><trkpt lat="43.72401404090266" lon="10.932904935092742"><ele>20.2</ele><time>2026-04-18T15:31:41.727Z</time></trkpt><trkpt lat="43.72407051770124" lon="10.932776639518423"><ele>20.8</ele><time>2026-04-18T15:31:43.727Z</time></trkpt><trkpt lat="43.72412578828912" lon="10.932647427664659"><ele>21.400000000000002</ele><time>2026-04-18T15:31:45.727Z</time></trkpt><trkpt lat="43.72417741443818" lon="10.932514565460918"><ele>22.0</ele><time>2026-04-18T15:31:47.727Z</time></trkpt><trkpt lat="43.724225089673965" lon="10.93238292025572"><ele>22.0</ele><time>2026-04-18T15:31:49.727Z</time></trkpt><trkpt lat="43.7242722120277" lon="10.932255937128726"><ele>22.0</ele><time>2026-04-18T15:31:51.727Z</time></trkpt><trkpt lat="43.72432256668781" lon="10.932126956884106"><ele>22.0</ele><time>2026-04-18T15:31:53.727Z</time></trkpt><trkpt lat="43.72437810453211" lon="10.932001513887567"><ele>22.0</ele><time>2026-04-18T15:31:55.727Z</time></trkpt><trkpt lat="43.72442604575926" lon="10.93188068573897"><ele>22.0</ele><time>2026-04-18T15:31:57.727Z</time></trkpt><trkpt lat="43.72448043705501" lon="10.931748851448573"><ele>22.0</ele><time>2026-04-18T15:31:59.727Z</time></trkpt><trkpt lat="43.72453182926044" lon="10.931623970212593"><ele>22.0</ele><time>2026-04-18T15:32:01.727Z</time></trkpt><trkpt lat="43.72458087161079" lon="10.931498714520824"><ele>22.0</ele><time>2026-04-18T15:32:03.727Z</time></trkpt><trkpt lat="43.724636182945396" lon="10.931379969875954"><ele>22.0</ele><time>2026-04-18T15:32:05.727Z</time></trkpt><trkpt lat="43.72468175915237" lon="10.93126280956815"><ele>22.0</ele><time>2026-04-18T15:32:07.727Z</time></trkpt><trkpt lat="43.72472495748108" lon="10.931157369699106"><ele>22.0</ele><time>2026-04-18T15:32:09.727Z</time></trkpt><trkpt lat="43.72475272454891" lon="10.931051035142586"><ele>22.0</ele><time>2026-04-18T15:32:11.727Z</time></trkpt><trkpt lat="43.72479206745671" lon="10.930962070043998"><ele>22.0</ele><time>2026-04-18T15:32:13.727Z</time></trkpt><trkpt lat="43.72483620773671" lon="10.930856313724261"><ele>22.0</ele><time>2026-04-18T15:32:15.727Z</time></trkpt><trkpt lat="43.724869636951226" lon="10.93074384063243"><ele>22.0</ele><time>2026-04-18T15:32:17.727Z</time></trkpt><trkpt lat="43.724903584913044" lon="10.930627085801802"><ele>22.0</ele><time>2026-04-18T15:32:19.727Z</time></trkpt><trkpt lat="43.7249348933995" lon="10.930514777742289"><ele>22.0</ele><time>2026-04-18T15:32:21.727Z</time></trkpt><trkpt lat="43.72496980981574" lon="10.930405537671358"><ele>22.0</ele><time>2026-04-18T15:32:23.727Z</time></trkpt><trkpt lat="43.724999180908576" lon="10.930296720261007"><ele>22.0</ele><time>2026-04-18T15:32:25.727Z</time></trkpt><trkpt lat="43.72502946550701" lon="10.93018909382379"><ele>22.0</ele><time>2026-04-18T15:32:27.727Z</time></trkpt><trkpt lat="43.72508315735328" lon="10.93011134721403"><ele>22.0</ele><time>2026-04-18T15:32:29.727Z</time></trkpt><trkpt lat="43.72512051323726" lon="10.93000988731913"><ele>22.0</ele><time>2026-04-18T15:32:31.727Z</time></trkpt><trkpt lat="43.72516007498915" lon="10.929907245969959"><ele>22.5</ele><time>2026-04-18T15:32:33.727Z</time></trkpt><trkpt lat="43.725172503066396" lon="10.92979220995451"><ele>23.0</ele><time>2026-04-18T15:32:35.727Z</time></trkpt><trkpt lat="43.725178661474814" lon="10.929668630746137"><ele>23.5</ele><time>2026-04-18T15:32:37.727Z</time></trkpt><trkpt lat="43.725170301629696" lon="10.92954840943503"><ele>24.0</ele><time>2026-04-18T15:32:39.727Z</time></trkpt><trkpt lat="43.72511718590121" lon="10.929441893729194"><ele>24.500000000000004</ele><time>2026-04-18T15:32:41.727Z</time></trkpt><trkpt lat="43.72504998629966" lon="10.929373217961734"><ele>25.0</ele><time>2026-04-18T15:32:43.727Z</time></trkpt><trkpt lat="43.725061233327665" lon="10.929264305055847"><ele>25.000000000000004</ele><time>2026-04-18T15:32:46.727Z</time></trkpt><trkpt lat="43.72510737152362" lon="10.929184853377595"><ele>25.0</ele><time>2026-04-18T15:32:48.727Z</time></trkpt><trkpt lat="43.72515977490812" lon="10.929107631758164"><ele>25.0</ele><time>2026-04-18T15:32:50.727Z</time></trkpt><trkpt lat="43.72522832181877" lon="10.929057110145733"><ele>25.0</ele><time>2026-04-18T15:32:52.727Z</time></trkpt><trkpt lat="43.725273664517225" lon="10.928950468634232"><ele>25.000000000000004</ele><time>2026-04-18T15:32:54.727Z</time></trkpt><trkpt lat="43.7253318210752" lon="10.928848083633131"><ele>25.0</ele><time>2026-04-18T15:32:56.727Z</time></trkpt><trkpt lat="43.72539683426483" lon="10.928742125655488"><ele>24.2</ele><time>2026-04-18T15:32:58.727Z</time></trkpt><trkpt lat="43.725463206759116" lon="10.928633090515742"><ele>23.4</ele><time>2026-04-18T15:33:00.724Z</time></trkpt><trkpt lat="43.72552342197686" lon="10.928522857853785"><ele>22.6</ele><time>2026-04-18T15:33:02.724Z</time></trkpt><trkpt lat="43.72558464488861" lon="10.928405948994357"><ele>21.8</ele><time>2026-04-18T15:33:04.724Z</time></trkpt><trkpt lat="43.72564251028815" lon="10.92829460850789"><ele>21.0</ele><time>2026-04-18T15:33:06.724Z</time></trkpt><trkpt lat="43.725703117906924" lon="10.928182177285715"><ele>21.0</ele><time>2026-04-18T15:33:08.724Z</time></trkpt><trkpt lat="43.72575981270627" lon="10.928071338391229"><ele>21.0</ele><time>2026-04-18T15:33:10.724Z</time></trkpt><trkpt lat="43.7258148751187" lon="10.927960923696311"><ele>21.0</ele><time>2026-04-18T15:33:12.724Z</time></trkpt><trkpt lat="43.725872325287185" lon="10.927852800460277"><ele>21.0</ele><time>2026-04-18T15:33:14.724Z</time></trkpt><trkpt lat="43.7259280768855" lon="10.927737669739905"><ele>21.0</ele><time>2026-04-18T15:33:16.724Z</time></trkpt><trkpt lat="43.72598237721458" lon="10.927625805574674"><ele>21.4</ele><time>2026-04-18T15:33:18.724Z</time></trkpt><trkpt lat="43.726044041450706" lon="10.927506957432254"><ele>21.8</ele><time>2026-04-18T15:33:20.724Z</time></trkpt><trkpt lat="43.72609811574924" lon="10.927399544858286"><ele>22.2</ele><time>2026-04-18T15:33:22.724Z</time></trkpt><trkpt lat="43.72616148617664" lon="10.927291398558529"><ele>22.599999999999998</ele><time>2026-04-18T15:33:24.724Z</time></trkpt><trkpt lat="43.72623148771371" lon="10.927218066560922"><ele>23.0</ele><time>2026-04-18T15:33:26.724Z</time></trkpt><trkpt lat="43.7262804867032" lon="10.927091539801149"><ele>22.599999999999998</ele><time>2026-04-18T15:33:28.724Z</time></trkpt><trkpt lat="43.72628893260646" lon="10.926953000410558"><ele>22.2</ele><time>2026-04-18T15:33:30.724Z</time></trkpt><trkpt lat="43.72634014934209" lon="10.926844749811323"><ele>21.8</ele><time>2026-04-18T15:33:32.724Z</time></trkpt><trkpt lat="43.72641147611178" lon="10.926753654296734"><ele>21.4</ele><time>2026-04-18T15:33:34.724Z</time></trkpt><trkpt lat="43.72650107208152" lon="10.926675256297758"><ele>21.0</ele><time>2026-04-18T15:33:36.724Z</time></trkpt><trkpt lat="43.72656336250418" lon="10.92654704506064"><ele>21.0</ele><time>2026-04-18T15:33:38.724Z</time></trkpt><trkpt lat="43.7265844198624" lon="10.926400437177525"><ele>21.0</ele><time>2026-04-18T15:33:40.724Z</time></trkpt><trkpt lat="43.72657712814982" lon="10.926286269571104"><ele>21.0</ele><time>2026-04-18T15:33:42.724Z</time></trkpt><trkpt lat="43.72661212746093" lon="10.926188828834734"><ele>21.0</ele><time>2026-04-18T15:33:44.724Z</time></trkpt><trkpt lat="43.72665827343713" lon="10.926088339887436"><ele>21.0</ele><time>2026-04-18T15:33:46.724Z</time></trkpt><trkpt lat="43.72671190372637" lon="10.925988643156316"><ele>21.0</ele><time>2026-04-18T15:33:48.724Z</time></trkpt><trkpt lat="43.72676543092823" lon="10.92588731520854"><ele>20.8</ele><time>2026-04-18T15:33:50.724Z</time></trkpt><trkpt lat="43.72681866959851" lon="10.925778563928002"><ele>20.6</ele><time>2026-04-18T15:33:52.724Z</time></trkpt><trkpt lat="43.72687520633441" lon="10.925675953360763"><ele>20.4</ele><time>2026-04-18T15:33:54.724Z</time></trkpt><trkpt lat="43.72693070523621" lon="10.925571661133919"><ele>20.2</ele><time>2026-04-18T15:33:56.724Z</time></trkpt><trkpt lat="43.72699389077121" lon="10.925474125571263"><ele>20.0</ele><time>2026-04-18T15:33:58.724Z</time></trkpt><trkpt lat="43.727053387583915" lon="10.92537243148803"><ele>20.0</ele><time>2026-04-18T15:34:00.724Z</time></trkpt><trkpt lat="43.72711919821129" lon="10.925271625769277"><ele>20.0</ele><time>2026-04-18T15:34:02.724Z</time></trkpt><trkpt lat="43.727179770614526" lon="10.925171049867773"><ele>20.0</ele><time>2026-04-18T15:34:04.724Z</time></trkpt><trkpt lat="43.72724744157896" lon="10.925069003918878"><ele>20.0</ele><time>2026-04-18T15:34:06.724Z</time></trkpt><trkpt lat="43.727312790743596" lon="10.924966897175223"><ele>20.0</ele><time>2026-04-18T15:34:08.724Z</time></trkpt><trkpt lat="43.72736551982355" lon="10.92484499339937"><ele>20.6</ele><time>2026-04-18T15:34:10.724Z</time></trkpt><trkpt lat="43.72740487773855" lon="10.924715643387373"><ele>21.2</ele><time>2026-04-18T15:34:12.724Z</time></trkpt><trkpt lat="43.727448918530314" lon="10.924599322625768"><ele>21.799999999999997</ele><time>2026-04-18T15:34:14.724Z</time></trkpt><trkpt lat="43.72748964005475" lon="10.924475872637828"><ele>22.4</ele><time>2026-04-18T15:34:16.724Z</time></trkpt><trkpt lat="43.72753531275866" lon="10.92435156920282"><ele>23.0</ele><time>2026-04-18T15:34:18.724Z</time></trkpt><trkpt lat="43.72758332811511" lon="10.92422627970915"><ele>23.0</ele><time>2026-04-18T15:34:20.724Z</time></trkpt><trkpt lat="43.72762924449667" lon="10.924101439094333"><ele>23.0</ele><time>2026-04-18T15:34:22.724Z</time></trkpt><trkpt lat="43.72767471984395" lon="10.923972451581749"><ele>23.0</ele><time>2026-04-18T15:34:24.724Z</time></trkpt><trkpt lat="43.72771678628252" lon="10.92384996778906"><ele>23.0</ele><time>2026-04-18T15:34:26.724Z</time></trkpt><trkpt lat="43.72776021625936" lon="10.923728394289538"><ele>23.0</ele><time>2026-04-18T15:34:28.724Z</time></trkpt><trkpt lat="43.727801776521936" lon="10.92360567780662"><ele>22.2</ele><time>2026-04-18T15:34:30.724Z</time></trkpt><trkpt lat="43.72784521073317" lon="10.92348663318619"><ele>21.4</ele><time>2026-04-18T15:34:32.724Z</time></trkpt><trkpt lat="43.72788861258674" lon="10.923353984407502"><ele>20.599999999999998</ele><time>2026-04-18T15:34:34.724Z</time></trkpt><trkpt lat="43.72792106817315" lon="10.923221476017238"><ele>19.799999999999997</ele><time>2026-04-18T15:34:36.724Z</time></trkpt><trkpt lat="43.727938417644985" lon="10.923088698353322"><ele>19.0</ele><time>2026-04-18T15:34:38.724Z</time></trkpt><trkpt lat="43.72796384697431" lon="10.92295434214038"><ele>19.0</ele><time>2026-04-18T15:34:40.724Z</time></trkpt><trkpt lat="43.727996605881536" lon="10.922826336030528"><ele>19.0</ele><time>2026-04-18T15:34:42.724Z</time></trkpt><trkpt lat="43.728022183808854" lon="10.922694439534606"><ele>19.0</ele><time>2026-04-18T15:34:44.724Z</time></trkpt><trkpt lat="43.72804623819488" lon="10.9225577777762"><ele>19.0</ele><time>2026-04-18T15:34:46.724Z</time></trkpt><trkpt lat="43.728074965821776" lon="10.92242596044414"><ele>19.0</ele><time>2026-04-18T15:34:48.724Z</time></trkpt><trkpt lat="43.728097896869876" lon="10.92230259882324"><ele>19.5</ele><time>2026-04-18T15:34:50.724Z</time></trkpt><trkpt lat="43.728131423210534" lon="10.922186791494022"><ele>20.0</ele><time>2026-04-18T15:34:52.724Z</time></trkpt><trkpt lat="43.728151778682715" lon="10.92209449091894"><ele>20.5</ele><time>2026-04-18T15:34:54.724Z</time></trkpt><trkpt lat="43.72807253840718" lon="10.922045351198074"><ele>21.0</ele><time>2026-04-18T15:34:57.724Z</time></trkpt><trkpt lat="43.72804530540401" lon="10.921955747222038"><ele>21.5</ele><time>2026-04-18T15:34:59.724Z</time></trkpt><trkpt lat="43.72808660555969" lon="10.921822019236515"><ele>22.0</ele><time>2026-04-18T15:35:01.724Z</time></trkpt><trkpt lat="43.72814224775159" lon="10.92169721561435"><ele>22.5</ele><time>2026-04-18T15:35:03.724Z</time></trkpt><trkpt lat="43.728158125578396" lon="10.921563742704762"><ele>23.0</ele><time>2026-04-18T15:35:05.721Z</time></trkpt><trkpt lat="43.728168459952585" lon="10.921444401504026"><ele>23.5</ele><time>2026-04-18T15:35:07.721Z</time></trkpt><trkpt lat="43.72817851096793" lon="10.921326310763297"><ele>24.0</ele><time>2026-04-18T15:35:09.721Z</time></trkpt><trkpt lat="43.72818000500646" lon="10.921203926335304"><ele>24.500000000000004</ele><time>2026-04-18T15:35:11.721Z</time></trkpt><trkpt lat="43.728190953852256" lon="10.921088692378397"><ele>25.0</ele><time>2026-04-18T15:35:13.721Z</time></trkpt><trkpt lat="43.72819093078394" lon="10.920973087921508"><ele>24.666666666666668</ele><time>2026-04-18T15:35:15.721Z</time></trkpt><trkpt lat="43.72819510234587" lon="10.920855331200672"><ele>24.333333333333336</ele><time>2026-04-18T15:35:17.721Z</time></trkpt><trkpt lat="43.728197359852025" lon="10.920739563377312"><ele>24.0</ele><time>2026-04-18T15:35:19.721Z</time></trkpt><trkpt lat="43.728192804495954" lon="10.920627860591601"><ele>23.666666666666668</ele><time>2026-04-18T15:35:21.721Z</time></trkpt><trkpt lat="43.72819624936789" lon="10.920513669292479"><ele>23.333333333333336</ele><time>2026-04-18T15:35:23.721Z</time></trkpt><trkpt lat="43.72819132816107" lon="10.920399742404264"><ele>23.0</ele><time>2026-04-18T15:35:25.721Z</time></trkpt><trkpt lat="43.72819575999817" lon="10.920279504884164"><ele>23.0</ele><time>2026-04-18T15:35:27.721Z</time></trkpt><trkpt lat="43.728193894359144" lon="10.920161793000572"><ele>23.0</ele><time>2026-04-18T15:35:29.721Z</time></trkpt><trkpt lat="43.7281841988215" lon="10.92004596584103"><ele>23.0</ele><time>2026-04-18T15:35:31.721Z</time></trkpt><trkpt lat="43.728191227477545" lon="10.919919949003477"><ele>23.0</ele><time>2026-04-18T15:35:33.721Z</time></trkpt><trkpt lat="43.72821229608596" lon="10.919805283324898"><ele>23.0</ele><time>2026-04-18T15:35:35.721Z</time></trkpt><trkpt lat="43.72822831458291" lon="10.91969542432646"><ele>23.0</ele><time>2026-04-18T15:35:37.721Z</time></trkpt><trkpt lat="43.728238769596835" lon="10.919580421530533"><ele>22.799999999999997</ele><time>2026-04-18T15:35:39.721Z</time></trkpt><trkpt lat="43.72825371132782" lon="10.91945405773394"><ele>22.6</ele><time>2026-04-18T15:35:41.721Z</time></trkpt><trkpt lat="43.72826980291029" lon="10.919333884847854"><ele>22.4</ele><time>2026-04-18T15:35:43.721Z</time></trkpt><trkpt lat="43.728282308139455" lon="10.919207352082381"><ele>22.200000000000003</ele><time>2026-04-18T15:35:45.721Z</time></trkpt><trkpt lat="43.7282985307348" lon="10.919087801576927"><ele>22.0</ele><time>2026-04-18T15:35:47.721Z</time></trkpt><trkpt lat="43.7283161751716" lon="10.918963800582025"><ele>22.400000000000002</ele><time>2026-04-18T15:35:49.721Z</time></trkpt><trkpt lat="43.72833802842734" lon="10.918835289243312"><ele>22.8</ele><time>2026-04-18T15:35:51.721Z</time></trkpt><trkpt lat="43.72835590418172" lon="10.918713118305183"><ele>23.2</ele><time>2026-04-18T15:35:53.721Z</time></trkpt><trkpt lat="43.72838137994163" lon="10.918593228778146"><ele>23.6</ele><time>2026-04-18T15:35:55.721Z</time></trkpt><trkpt lat="43.7283978450834" lon="10.918467044595287"><ele>24.0</ele><time>2026-04-18T15:35:57.721Z</time></trkpt><trkpt lat="43.728414003334045" lon="10.918343719096768"><ele>24.0</ele><time>2026-04-18T15:35:59.721Z</time></trkpt><trkpt lat="43.72843811416706" lon="10.918227917691146"><ele>24.0</ele><time>2026-04-18T15:36:01.721Z</time></trkpt><trkpt lat="43.72845825336439" lon="10.918110614502167"><ele>24.0</ele><time>2026-04-18T15:36:03.721Z</time></trkpt><trkpt lat="43.72848083342338" lon="10.9179883015438"><ele>24.0</ele><time>2026-04-18T15:36:05.721Z</time></trkpt><trkpt lat="43.728513367249086" lon="10.91787353858095"><ele>24.0</ele><time>2026-04-18T15:36:07.721Z</time></trkpt><trkpt lat="43.72854724993048" lon="10.917758910047613"><ele>24.0</ele><time>2026-04-18T15:36:09.721Z</time></trkpt><trkpt lat="43.728576699392065" lon="10.917644199609557"><ele>23.833333333333332</ele><time>2026-04-18T15:36:11.721Z</time></trkpt><trkpt lat="43.72860865591902" lon="10.917530465474877"><ele>23.666666666666668</ele><time>2026-04-18T15:36:13.721Z</time></trkpt><trkpt lat="43.72863865309189" lon="10.917424604391071"><ele>23.5</ele><time>2026-04-18T15:36:15.721Z</time></trkpt><trkpt lat="43.72866467819234" lon="10.917312769681985"><ele>23.333333333333336</ele><time>2026-04-18T15:36:17.721Z</time></trkpt><trkpt lat="43.728690281006585" lon="10.917195373849651"><ele>23.166666666666668</ele><time>2026-04-18T15:36:19.721Z</time></trkpt><trkpt lat="43.72871999529544" lon="10.917088834182415"><ele>23.0</ele><time>2026-04-18T15:36:21.721Z</time></trkpt><trkpt lat="43.72875179038782" lon="10.916980197295478"><ele>23.0</ele><time>2026-04-18T15:36:23.721Z</time></trkpt><trkpt lat="43.72877228191194" lon="10.916861623238141"><ele>23.0</ele><time>2026-04-18T15:36:25.721Z</time></trkpt><trkpt lat="43.72879780121204" lon="10.916741073215606"><ele>23.0</ele><time>2026-04-18T15:36:27.721Z</time></trkpt><trkpt lat="43.72882535052924" lon="10.91663316038576"><ele>23.0</ele><time>2026-04-18T15:36:29.721Z</time></trkpt><trkpt lat="43.72884303657644" lon="10.916512833822843"><ele>23.0</ele><time>2026-04-18T15:36:31.721Z</time></trkpt><trkpt lat="43.72886514554335" lon="10.916392284590275"><ele>23.0</ele><time>2026-04-18T15:36:33.721Z</time></trkpt><trkpt lat="43.72888109426803" lon="10.916266448510436"><ele>23.166666666666668</ele><time>2026-04-18T15:36:35.721Z</time></trkpt><trkpt lat="43.72889365491228" lon="10.916141186444076"><ele>23.333333333333336</ele><time>2026-04-18T15:36:37.721Z</time></trkpt><trkpt lat="43.728890568549" lon="10.916008130196017"><ele>23.5</ele><time>2026-04-18T15:36:39.721Z</time></trkpt><trkpt lat="43.728924296144655" lon="10.91591298297127"><ele>23.666666666666668</ele><time>2026-04-18T15:36:41.721Z</time></trkpt><trkpt lat="43.72897141314858" lon="10.915816033027886"><ele>23.833333333333332</ele><time>2026-04-18T15:36:45.721Z</time></trkpt><trkpt lat="43.72899274849205" lon="10.915687601140966"><ele>24.0</ele><time>2026-04-18T15:36:47.721Z</time></trkpt><trkpt lat="43.729027470855286" lon="10.915555587533596"><ele>24.4</ele><time>2026-04-18T15:36:49.721Z</time></trkpt><trkpt lat="43.72909058018748" lon="10.91544560815146"><ele>24.799999999999997</ele><time>2026-04-18T15:36:51.721Z</time></trkpt><trkpt lat="43.72915500655103" lon="10.915354834820507"><ele>25.200000000000003</ele><time>2026-04-18T15:36:53.721Z</time></trkpt><trkpt lat="43.72921930089726" lon="10.915260109166772"><ele>25.6</ele><time>2026-04-18T15:36:55.721Z</time></trkpt><trkpt lat="43.72928024597506" lon="10.915168591627292"><ele>26.0</ele><time>2026-04-18T15:36:57.721Z</time></trkpt><trkpt lat="43.72934618777969" lon="10.915074913416113"><ele>25.200000000000003</ele><time>2026-04-18T15:36:59.721Z</time></trkpt><trkpt lat="43.72941222108054" lon="10.914974824135443"><ele>24.400000000000002</ele><time>2026-04-18T15:37:01.721Z</time></trkpt><trkpt lat="43.72947644964573" lon="10.914884306552866"><ele>23.6</ele><time>2026-04-18T15:37:03.721Z</time></trkpt><trkpt lat="43.72954022552058" lon="10.914780793295469"><ele>22.8</ele><time>2026-04-18T15:37:05.721Z</time></trkpt><trkpt lat="43.729573957678184" lon="10.914658439827624"><ele>22.0</ele><time>2026-04-18T15:37:07.721Z</time></trkpt><trkpt lat="43.72959562099745" lon="10.914536691935798"><ele>22.0</ele><time>2026-04-18T15:37:09.721Z</time></trkpt><trkpt lat="43.729608430647446" lon="10.914414518150867"><ele>22.0</ele><time>2026-04-18T15:37:11.718Z</time></trkpt><trkpt lat="43.729620221237184" lon="10.914287967966667"><ele>22.0</ele><time>2026-04-18T15:37:13.718Z</time></trkpt><trkpt lat="43.7296345267871" lon="10.914159168775933"><ele>22.0</ele><time>2026-04-18T15:37:15.718Z</time></trkpt><trkpt lat="43.72964981062654" lon="10.914028274595315"><ele>22.0</ele><time>2026-04-18T15:37:17.718Z</time></trkpt><trkpt lat="43.72966464445022" lon="10.913901246146505"><ele>22.200000000000003</ele><time>2026-04-18T15:37:19.718Z</time></trkpt><trkpt lat="43.72967987485929" lon="10.91376794700866"><ele>22.4</ele><time>2026-04-18T15:37:21.718Z</time></trkpt><trkpt lat="43.72969364061933" lon="10.913641073697807"><ele>22.6</ele><time>2026-04-18T15:37:23.718Z</time></trkpt><trkpt lat="43.729704668770744" lon="10.913505073518067"><ele>22.799999999999997</ele><time>2026-04-18T15:37:25.718Z</time></trkpt><trkpt lat="43.729719627801" lon="10.913372266478962"><ele>23.0</ele><time>2026-04-18T15:37:27.718Z</time></trkpt><trkpt lat="43.729733452866135" lon="10.91323437128497"><ele>22.599999999999998</ele><time>2026-04-18T15:37:29.718Z</time></trkpt><trkpt lat="43.72973864813623" lon="10.913104967987632"><ele>22.2</ele><time>2026-04-18T15:37:31.718Z</time></trkpt><trkpt lat="43.729762054571324" lon="10.912970667208553"><ele>21.8</ele><time>2026-04-18T15:37:33.718Z</time></trkpt><trkpt lat="43.72977693680144" lon="10.91282983823395"><ele>21.4</ele><time>2026-04-18T15:37:35.718Z</time></trkpt><trkpt lat="43.72983207183004" lon="10.912710622434073"><ele>21.0</ele><time>2026-04-18T15:37:37.718Z</time></trkpt><trkpt lat="43.72986958859975" lon="10.912613459986597"><ele>21.666666666666668</ele><time>2026-04-18T15:37:42.718Z</time></trkpt><trkpt lat="43.72991965126346" lon="10.912544029799681"><ele>22.333333333333336</ele><time>2026-04-18T15:37:45.718Z</time></trkpt><trkpt lat="43.72995516701678" lon="10.912417666554797"><ele>23.0</ele><time>2026-04-18T15:37:48.718Z</time></trkpt><trkpt lat="43.72996350373924" lon="10.912315742933222"><ele>23.666666666666668</ele><time>2026-04-18T15:37:50.718Z</time></trkpt><trkpt lat="43.7299655438788" lon="10.912219374484142"><ele>24.333333333333336</ele><time>2026-04-18T15:37:52.718Z</time></trkpt><trkpt lat="43.72996587804611" lon="10.912113170682536"><ele>25.0</ele><time>2026-04-18T15:37:54.718Z</time></trkpt><trkpt lat="43.729965386680895" lon="10.912014308344823"><ele>25.000000000000004</ele><time>2026-04-18T15:37:56.718Z</time></trkpt><trkpt lat="43.729965872767686" lon="10.911906982689228"><ele>25.0</ele><time>2026-04-18T15:37:58.718Z</time></trkpt><trkpt lat="43.72996790745546" lon="10.911790741112144"><ele>25.0</ele><time>2026-04-18T15:38:00.718Z</time></trkpt><trkpt lat="43.729977562590435" lon="10.911659901065372"><ele>25.0</ele><time>2026-04-18T15:38:02.718Z</time></trkpt><trkpt lat="43.72999354633946" lon="10.911531603464995"><ele>25.000000000000004</ele><time>2026-04-18T15:38:04.718Z</time></trkpt><trkpt lat="43.73001253963965" lon="10.91141479447286"><ele>25.0</ele><time>2026-04-18T15:38:06.718Z</time></trkpt><trkpt lat="43.73003303710285" lon="10.911293365043438"><ele>24.833333333333336</ele><time>2026-04-18T15:38:08.718Z</time></trkpt><trkpt lat="43.73004854248761" lon="10.911181913011072"><ele>24.666666666666668</ele><time>2026-04-18T15:38:10.718Z</time></trkpt><trkpt lat="43.73005701707968" lon="10.911084344421392"><ele>24.5</ele><time>2026-04-18T15:38:12.718Z</time></trkpt><trkpt lat="43.7300675863806" lon="10.910974461850346"><ele>24.333333333333336</ele><time>2026-04-18T15:38:14.718Z</time></trkpt><trkpt lat="43.7300278617418" lon="10.910838567469932"><ele>24.166666666666668</ele><time>2026-04-18T15:38:17.718Z</time></trkpt><trkpt lat="43.73002937813586" lon="10.910730752221461"><ele>24.0</ele><time>2026-04-18T15:38:19.718Z</time></trkpt><trkpt lat="43.73005294761021" lon="10.910628990089714"><ele>19.0</ele><time>2026-04-18T15:38:21.718Z</time></trkpt><trkpt lat="43.73050187348294" lon="10.910591545151513"><ele>19.0</ele><time>2026-04-18T15:38:22.718Z</time></trkpt><trkpt lat="43.73055536113554" lon="10.910487712711825"><ele>19.0</ele><time>2026-04-18T15:38:24.718Z</time></trkpt><trkpt lat="43.730604462931716" lon="10.910384121194102"><ele>19.0</ele><time>2026-04-18T15:38:26.718Z</time></trkpt><trkpt lat="43.73065960992058" lon="10.910275214362263"><ele>19.0</ele><time>2026-04-18T15:38:28.718Z</time></trkpt><trkpt lat="43.73071871609859" lon="10.91016910455487"><ele>19.0</ele><time>2026-04-18T15:38:30.718Z</time></trkpt><trkpt lat="43.73077427993811" lon="10.910062961848897"><ele>19.2</ele><time>2026-04-18T15:38:32.718Z</time></trkpt><trkpt lat="43.7308323056688" lon="10.909958944703952"><ele>19.4</ele><time>2026-04-18T15:38:34.718Z</time></trkpt><trkpt lat="43.73088514721424" lon="10.90985483144467"><ele>19.6</ele><time>2026-04-18T15:38:36.718Z</time></trkpt><trkpt lat="43.73094450161623" lon="10.909748192352087"><ele>19.8</ele><time>2026-04-18T15:38:38.718Z</time></trkpt><trkpt lat="43.73100457286049" lon="10.909643294595858"><ele>20.0</ele><time>2026-04-18T15:38:40.718Z</time></trkpt><trkpt lat="43.73106345372004" lon="10.909534331654356"><ele>20.0</ele><time>2026-04-18T15:38:42.718Z</time></trkpt><trkpt lat="43.731126405906195" lon="10.90942661097372"><ele>20.0</ele><time>2026-04-18T15:38:44.718Z</time></trkpt><trkpt lat="43.73116497893576" lon="10.9093046179778"><ele>20.0</ele><time>2026-04-18T15:38:46.718Z</time></trkpt><trkpt lat="43.731190266513494" lon="10.909171543315379"><ele>20.0</ele><time>2026-04-18T15:38:48.718Z</time></trkpt><trkpt lat="43.7312118602689" lon="10.909047366012572"><ele>20.0</ele><time>2026-04-18T15:38:50.718Z</time></trkpt><trkpt lat="43.73124568988141" lon="10.908927780968424"><ele>20.0</ele><time>2026-04-18T15:38:52.718Z</time></trkpt><trkpt lat="43.731283284224396" lon="10.908800648978076"><ele>20.0</ele><time>2026-04-18T15:38:54.718Z</time></trkpt><trkpt lat="43.73132358898391" lon="10.908683002837842"><ele>20.0</ele><time>2026-04-18T15:38:56.718Z</time></trkpt><trkpt lat="43.731362952596115" lon="10.908560101921843"><ele>20.0</ele><time>2026-04-18T15:38:58.718Z</time></trkpt><trkpt lat="43.7314046013437" lon="10.908437448144225"><ele>20.0</ele><time>2026-04-18T15:39:00.718Z</time></trkpt><trkpt lat="43.73144383799746" lon="10.908318428745881"><ele>20.2</ele><time>2026-04-18T15:39:02.718Z</time></trkpt><trkpt lat="43.731483000145595" lon="10.90819867764157"><ele>20.4</ele><time>2026-04-18T15:39:04.718Z</time></trkpt><trkpt lat="43.73152029961169" lon="10.908084663064177"><ele>20.6</ele><time>2026-04-18T15:39:06.718Z</time></trkpt><trkpt lat="43.73155983362317" lon="10.907966416609625"><ele>20.8</ele><time>2026-04-18T15:39:08.718Z</time></trkpt><trkpt lat="43.731603432837545" lon="10.907850523005079"><ele>21.0</ele><time>2026-04-18T15:39:10.718Z</time></trkpt><trkpt lat="43.73164254398692" lon="10.907727986349247"><ele>21.0</ele><time>2026-04-18T15:39:12.718Z</time></trkpt><trkpt lat="43.731682334223315" lon="10.907597725059604"><ele>21.0</ele><time>2026-04-18T15:39:14.718Z</time></trkpt><trkpt lat="43.73172165409224" lon="10.907480552357628"><ele>21.0</ele><time>2026-04-18T15:39:16.718Z</time></trkpt><trkpt lat="43.73176076727419" lon="10.90735852641083"><ele>21.0</ele><time>2026-04-18T15:39:18.715Z</time></trkpt><trkpt lat="43.731802854852624" lon="10.907245153254099"><ele>21.0</ele><time>2026-04-18T15:39:20.715Z</time></trkpt><trkpt lat="43.73183930120355" lon="10.907124657545083"><ele>20.8</ele><time>2026-04-18T15:39:22.715Z</time></trkpt><trkpt lat="43.73187685198581" lon="10.907007175880825"><ele>20.6</ele><time>2026-04-18T15:39:24.715Z</time></trkpt><trkpt lat="43.731919026163055" lon="10.906900566316605"><ele>20.4</ele><time>2026-04-18T15:39:26.715Z</time></trkpt><trkpt lat="43.73195854003391" lon="10.906784021658716"><ele>20.2</ele><time>2026-04-18T15:39:28.715Z</time></trkpt><trkpt lat="43.73200089946315" lon="10.906674350577807"><ele>20.0</ele><time>2026-04-18T15:39:30.715Z</time></trkpt><trkpt lat="43.73203675590514" lon="10.906553100471108"><ele>20.0</ele><time>2026-04-18T15:39:32.715Z</time></trkpt><trkpt lat="43.73207374281362" lon="10.906433596131604"><ele>20.0</ele><time>2026-04-18T15:39:34.715Z</time></trkpt><trkpt lat="43.73211618015723" lon="10.906320162947402"><ele>20.0</ele><time>2026-04-18T15:39:36.715Z</time></trkpt><trkpt lat="43.73215768843079" lon="10.906203281937916"><ele>20.0</ele><time>2026-04-18T15:39:38.715Z</time></trkpt><trkpt lat="43.732198389466944" lon="10.906088001520109"><ele>20.0</ele><time>2026-04-18T15:39:40.715Z</time></trkpt><trkpt lat="43.732239347196305" lon="10.90596156302811"><ele>20.6</ele><time>2026-04-18T15:39:42.715Z</time></trkpt><trkpt lat="43.73228010358166" lon="10.905843490834254"><ele>21.2</ele><time>2026-04-18T15:39:44.715Z</time></trkpt><trkpt lat="43.732323888305366" lon="10.9057242424052"><ele>21.799999999999997</ele><time>2026-04-18T15:39:46.715Z</time></trkpt><trkpt lat="43.73237029186152" lon="10.90560796503864"><ele>22.4</ele><time>2026-04-18T15:39:48.715Z</time></trkpt><trkpt lat="43.73242305685388" lon="10.905495278913142"><ele>23.0</ele><time>2026-04-18T15:39:50.715Z</time></trkpt><trkpt lat="43.73248681517612" lon="10.905392439452084"><ele>23.0</ele><time>2026-04-18T15:39:52.715Z</time></trkpt><trkpt lat="43.732555796117765" lon="10.905291692259489"><ele>23.0</ele><time>2026-04-18T15:39:54.715Z</time></trkpt><trkpt lat="43.732617434424306" lon="10.905186490251387"><ele>23.0</ele><time>2026-04-18T15:39:56.715Z</time></trkpt><trkpt lat="43.73266524369129" lon="10.905085349437591"><ele>23.0</ele><time>2026-04-18T15:39:58.715Z</time></trkpt><trkpt lat="43.73271058006403" lon="10.904949404351788"><ele>23.0</ele><time>2026-04-18T15:40:00.715Z</time></trkpt><trkpt lat="43.732763398230155" lon="10.904836814554377"><ele>22.799999999999997</ele><time>2026-04-18T15:40:02.715Z</time></trkpt><trkpt lat="43.73282451293877" lon="10.90472690849695"><ele>22.6</ele><time>2026-04-18T15:40:04.715Z</time></trkpt><trkpt lat="43.73276753140207" lon="10.904606396844533"><ele>22.4</ele><time>2026-04-18T15:40:05.715Z</time></trkpt><trkpt lat="43.73281697649154" lon="10.904475518843444"><ele>22.200000000000003</ele><time>2026-04-18T15:40:07.715Z</time></trkpt><trkpt lat="43.732854442318164" lon="10.904367795239207"><ele>22.0</ele><time>2026-04-18T15:40:09.715Z</time></trkpt><trkpt lat="43.73289106872784" lon="10.904244694806579"><ele>22.0</ele><time>2026-04-18T15:40:11.715Z</time></trkpt><trkpt lat="43.73292647191955" lon="10.904122470801566"><ele>22.0</ele><time>2026-04-18T15:40:13.715Z</time></trkpt><trkpt lat="43.73296304854988" lon="10.90399379217611"><ele>22.0</ele><time>2026-04-18T15:40:15.715Z</time></trkpt><trkpt lat="43.73299919158816" lon="10.903866638818046"><ele>22.0</ele><time>2026-04-18T15:40:17.715Z</time></trkpt><trkpt lat="43.73303417974826" lon="10.90374354886505"><ele>22.0</ele><time>2026-04-18T15:40:19.715Z</time></trkpt><trkpt lat="43.73306871606809" lon="10.903622408135387"><ele>22.0</ele><time>2026-04-18T15:40:21.715Z</time></trkpt><trkpt lat="43.73310420286593" lon="10.903498552487433"><ele>22.0</ele><time>2026-04-18T15:40:23.715Z</time></trkpt><trkpt lat="43.73314139967387" lon="10.90336908330661"><ele>22.0</ele><time>2026-04-18T15:40:25.715Z</time></trkpt><trkpt lat="43.73317829683446" lon="10.903241742527548"><ele>22.0</ele><time>2026-04-18T15:40:27.715Z</time></trkpt><trkpt lat="43.73321667906286" lon="10.90310927533857"><ele>22.0</ele><time>2026-04-18T15:40:29.715Z</time></trkpt><trkpt lat="43.73325274253116" lon="10.902983565707489"><ele>22.200000000000003</ele><time>2026-04-18T15:40:31.715Z</time></trkpt><trkpt lat="43.73328793609625" lon="10.902859651271077"><ele>22.4</ele><time>2026-04-18T15:40:33.715Z</time></trkpt><trkpt lat="43.7333222682612" lon="10.902735264295698"><ele>22.6</ele><time>2026-04-18T15:40:35.715Z</time></trkpt><trkpt lat="43.73335825208674" lon="10.902604892874074"><ele>22.799999999999997</ele><time>2026-04-18T15:40:37.715Z</time></trkpt><trkpt lat="43.73339427403228" lon="10.902484027727802"><ele>23.0</ele><time>2026-04-18T15:40:39.715Z</time></trkpt><trkpt lat="43.73343112140878" lon="10.902361879553647"><ele>23.25</ele><time>2026-04-18T15:40:41.715Z</time></trkpt><trkpt lat="43.73346817207445" lon="10.902243701750448"><ele>23.5</ele><time>2026-04-18T15:40:43.715Z</time></trkpt><trkpt lat="43.733499403450544" lon="10.902113743361683"><ele>23.75</ele><time>2026-04-18T15:40:45.715Z</time></trkpt><trkpt lat="43.733499859961874" lon="10.901990972895312"><ele>24.0</ele><time>2026-04-18T15:40:47.715Z</time></trkpt><trkpt lat="43.73365389849354" lon="10.901893166758883"><ele>23.2</ele><time>2026-04-18T15:40:49.715Z</time></trkpt><trkpt lat="43.73369430821681" lon="10.901760954911655"><ele>22.4</ele><time>2026-04-18T15:40:51.715Z</time></trkpt><trkpt lat="43.733736964507095" lon="10.901627128906874"><ele>21.6</ele><time>2026-04-18T15:40:53.715Z</time></trkpt><trkpt lat="43.73377762991386" lon="10.90149986579513"><ele>20.8</ele><time>2026-04-18T15:40:55.715Z</time></trkpt><trkpt lat="43.73382428290873" lon="10.90138325187654"><ele>20.0</ele><time>2026-04-18T15:40:57.715Z</time></trkpt><trkpt lat="43.733872667585985" lon="10.901265372794676"><ele>20.0</ele><time>2026-04-18T15:40:59.715Z</time></trkpt><trkpt lat="43.733927098951035" lon="10.901145567042017"><ele>20.0</ele><time>2026-04-18T15:41:01.715Z</time></trkpt><trkpt lat="43.73398478170158" lon="10.901034832696356"><ele>20.0</ele><time>2026-04-18T15:41:03.715Z</time></trkpt><trkpt lat="43.73404162716366" lon="10.900913516653363"><ele>20.0</ele><time>2026-04-18T15:41:05.715Z</time></trkpt><trkpt lat="43.73407546528216" lon="10.900787524790543"><ele>20.0</ele><time>2026-04-18T15:41:07.715Z</time></trkpt><trkpt lat="43.73410123114191" lon="10.900649174028304"><ele>20.4</ele><time>2026-04-18T15:41:09.715Z</time></trkpt><trkpt lat="43.73414542681035" lon="10.900524714018665"><ele>20.8</ele><time>2026-04-18T15:41:11.715Z</time></trkpt><trkpt lat="43.734195049619" lon="10.900396122262396"><ele>21.200000000000003</ele><time>2026-04-18T15:41:13.715Z</time></trkpt><trkpt lat="43.7342382904759" lon="10.90027604631115"><ele>21.6</ele><time>2026-04-18T15:41:15.715Z</time></trkpt><trkpt lat="43.734282945645575" lon="10.900155109070772"><ele>22.0</ele><time>2026-04-18T15:41:17.715Z</time></trkpt><trkpt lat="43.73432149714808" lon="10.900023141072566"><ele>22.200000000000003</ele><time>2026-04-18T15:41:19.715Z</time></trkpt><trkpt lat="43.73434850808668" lon="10.899882152980783"><ele>22.4</ele><time>2026-04-18T15:41:21.715Z</time></trkpt><trkpt lat="43.73435877322133" lon="10.899756714775505"><ele>22.6</ele><time>2026-04-18T15:41:23.712Z</time></trkpt><trkpt lat="43.734360370976965" lon="10.899628738404648"><ele>22.799999999999997</ele><time>2026-04-18T15:41:25.712Z</time></trkpt><trkpt lat="43.73434998820316" lon="10.899501294188171"><ele>23.0</ele><time>2026-04-18T15:41:27.712Z</time></trkpt><trkpt lat="43.73434243136334" lon="10.899371778441536"><ele>23.2</ele><time>2026-04-18T15:41:29.712Z</time></trkpt><trkpt lat="43.734339656187366" lon="10.899242193708087"><ele>23.4</ele><time>2026-04-18T15:41:31.712Z</time></trkpt><trkpt lat="43.73432984742875" lon="10.899110602047209"><ele>23.599999999999998</ele><time>2026-04-18T15:41:33.712Z</time></trkpt><trkpt lat="43.73431874482062" lon="10.898978948728933"><ele>23.799999999999997</ele><time>2026-04-18T15:41:35.712Z</time></trkpt><trkpt lat="43.73431384033901" lon="10.898847681088219"><ele>24.0</ele><time>2026-04-18T15:41:37.712Z</time></trkpt><trkpt lat="43.73429681830644" lon="10.898711418045083"><ele>24.0</ele><time>2026-04-18T15:41:39.712Z</time></trkpt><trkpt lat="43.73428116247372" lon="10.898578718780481"><ele>24.0</ele><time>2026-04-18T15:41:41.712Z</time></trkpt><trkpt lat="43.73425074400389" lon="10.898445983871135"><ele>24.0</ele><time>2026-04-18T15:41:43.712Z</time></trkpt><trkpt lat="43.73421151166806" lon="10.898319625495727"><ele>24.0</ele><time>2026-04-18T15:41:45.712Z</time></trkpt><trkpt lat="43.734171496820125" lon="10.898193878306891"><ele>24.0</ele><time>2026-04-18T15:41:47.712Z</time></trkpt><trkpt lat="43.73412602292341" lon="10.898062475817358"><ele>23.799999999999997</ele><time>2026-04-18T15:41:49.712Z</time></trkpt><trkpt lat="43.7340828909085" lon="10.897939612680867"><ele>23.599999999999998</ele><time>2026-04-18T15:41:51.712Z</time></trkpt><trkpt lat="43.73403925553191" lon="10.897818567687557"><ele>23.4</ele><time>2026-04-18T15:41:53.712Z</time></trkpt><trkpt lat="43.73398956619697" lon="10.8976947027424"><ele>23.2</ele><time>2026-04-18T15:41:55.712Z</time></trkpt><trkpt lat="43.73394019077502" lon="10.897571609006857"><ele>23.0</ele><time>2026-04-18T15:41:57.712Z</time></trkpt><trkpt lat="43.73388863924669" lon="10.897454253572793"><ele>22.599999999999998</ele><time>2026-04-18T15:41:59.712Z</time></trkpt><trkpt lat="43.73383760264407" lon="10.89734347792294"><ele>22.2</ele><time>2026-04-18T15:42:01.712Z</time></trkpt><trkpt lat="43.733782481817514" lon="10.897221249406304"><ele>21.8</ele><time>2026-04-18T15:42:03.712Z</time></trkpt><trkpt lat="43.73373094063571" lon="10.897102324118455"><ele>21.4</ele><time>2026-04-18T15:42:05.712Z</time></trkpt><trkpt lat="43.733673436376066" lon="10.896991168951821"><ele>21.0</ele><time>2026-04-18T15:42:07.712Z</time></trkpt><trkpt lat="43.733610297080006" lon="10.896874443466801"><ele>21.200000000000003</ele><time>2026-04-18T15:42:09.712Z</time></trkpt><trkpt lat="43.73354554002992" lon="10.896758393455602"><ele>21.400000000000002</ele><time>2026-04-18T15:42:11.712Z</time></trkpt><trkpt lat="43.733479434931596" lon="10.896644923073017"><ele>21.6</ele><time>2026-04-18T15:42:13.712Z</time></trkpt><trkpt lat="43.73341287911958" lon="10.896530929622676"><ele>21.8</ele><time>2026-04-18T15:42:15.712Z</time></trkpt><trkpt lat="43.733344110055484" lon="10.896420813714002"><ele>22.0</ele><time>2026-04-18T15:42:17.712Z</time></trkpt><trkpt lat="43.73326939662726" lon="10.896316602450005"><ele>22.0</ele><time>2026-04-18T15:42:19.712Z</time></trkpt><trkpt lat="43.73319911316824" lon="10.896216861376441"><ele>22.0</ele><time>2026-04-18T15:42:21.712Z</time></trkpt><trkpt lat="43.73312235216763" lon="10.896117270418364"><ele>22.0</ele><time>2026-04-18T15:42:23.712Z</time></trkpt><trkpt lat="43.73305159119345" lon="10.896020926086573"><ele>22.0</ele><time>2026-04-18T15:42:25.712Z</time></trkpt><trkpt lat="43.732978561428055" lon="10.895923189774809"><ele>22.0</ele><time>2026-04-18T15:42:27.712Z</time></trkpt><trkpt lat="43.732903070724966" lon="10.89583536940619"><ele>22.200000000000003</ele><time>2026-04-18T15:42:29.712Z</time></trkpt><trkpt lat="43.73282618253219" lon="10.895758239796995"><ele>22.4</ele><time>2026-04-18T15:42:31.712Z</time></trkpt><trkpt lat="43.73274739690873" lon="10.89567813592445"><ele>22.6</ele><time>2026-04-18T15:42:33.712Z</time></trkpt><trkpt lat="43.7326674905563" lon="10.895600601382444"><ele>22.799999999999997</ele><time>2026-04-18T15:42:35.712Z</time></trkpt><trkpt lat="43.73258841345291" lon="10.895522192479008"><ele>23.0</ele><time>2026-04-18T15:42:37.712Z</time></trkpt><trkpt lat="43.73250783302289" lon="10.89544267334808"><ele>23.0</ele><time>2026-04-18T15:42:39.712Z</time></trkpt><trkpt lat="43.732431765352494" lon="10.89536106658974"><ele>23.0</ele><time>2026-04-18T15:42:41.712Z</time></trkpt><trkpt lat="43.7323476004162" lon="10.89528848291775"><ele>23.0</ele><time>2026-04-18T15:42:43.712Z</time></trkpt><trkpt lat="43.732276888005295" lon="10.895204271010217"><ele>23.0</ele><time>2026-04-18T15:42:45.712Z</time></trkpt><trkpt lat="43.73219872324043" lon="10.89512839133083"><ele>23.0</ele><time>2026-04-18T15:42:47.712Z</time></trkpt><trkpt lat="43.73213363752188" lon="10.895067417789273"><ele>23.0</ele><time>2026-04-18T15:42:49.712Z</time></trkpt><trkpt lat="43.732060727903054" lon="10.895041612939233"><ele>23.0</ele><time>2026-04-18T15:42:51.712Z</time></trkpt><trkpt lat="43.73199519706783" lon="10.895008984626058"><ele>23.0</ele><time>2026-04-18T15:42:54.712Z</time></trkpt><trkpt lat="43.73191595394796" lon="10.894924232359442"><ele>23.0</ele><time>2026-04-18T15:42:57.712Z</time></trkpt><trkpt lat="43.73186030578571" lon="10.894868833844495"><ele>23.0</ele><time>2026-04-18T15:42:59.712Z</time></trkpt><trkpt lat="43.731792952218484" lon="10.894798930273362"><ele>23.0</ele><time>2026-04-18T15:43:02.712Z</time></trkpt><trkpt lat="43.7317229303071" lon="10.894784041623824"><ele>23.0</ele><time>2026-04-18T15:43:05.712Z</time></trkpt><trkpt lat="43.73164968408641" lon="10.894708168558724"><ele>23.0</ele><time>2026-04-18T15:43:08.712Z</time></trkpt><trkpt lat="43.731597128415714" lon="10.894646601673108"><ele>23.0</ele><time>2026-04-18T15:43:10.712Z</time></trkpt><trkpt lat="43.7315211716993" lon="10.894607113484403"><ele>23.0</ele><time>2026-04-18T15:43:13.712Z</time></trkpt><trkpt lat="43.73143861446785" lon="10.894567668854187"><ele>23.0</ele><time>2026-04-18T15:43:15.712Z</time></trkpt><trkpt lat="43.73132864935983" lon="10.894476994403014"><ele>23.0</ele><time>2026-04-18T15:43:17.712Z</time></trkpt><trkpt lat="43.731235929487895" lon="10.894394609875148"><ele>23.0</ele><time>2026-04-18T15:43:18.712Z</time></trkpt><trkpt lat="43.73113741413015" lon="10.894326786709366"><ele>23.0</ele><time>2026-04-18T15:43:19.712Z</time></trkpt><trkpt lat="43.73110828754504" lon="10.894227769679615"><ele>23.0</ele><time>2026-04-18T15:43:22.712Z</time></trkpt><trkpt lat="43.73102665823685" lon="10.894159624735432"><ele>23.0</ele><time>2026-04-18T15:43:24.712Z</time></trkpt><trkpt lat="43.73095860448957" lon="10.894079713925125"><ele>23.142857142857142</ele><time>2026-04-18T15:43:26.712Z</time></trkpt><trkpt lat="43.73089796043253" lon="10.894008644731285"><ele>23.285714285714285</ele><time>2026-04-18T15:43:28.712Z</time></trkpt><trkpt lat="43.73084087012881" lon="10.893952193965161"><ele>23.428571428571427</ele><time>2026-04-18T15:43:30.709Z</time></trkpt><trkpt lat="43.73077648026823" lon="10.893901572185996"><ele>23.57142857142857</ele><time>2026-04-18T15:43:32.709Z</time></trkpt><trkpt lat="43.73071911793698" lon="10.89384086071587"><ele>23.714285714285715</ele><time>2026-04-18T15:43:34.709Z</time></trkpt><trkpt lat="43.73065985110551" lon="10.89378972173555"><ele>23.857142857142854</ele><time>2026-04-18T15:43:36.709Z</time></trkpt><trkpt lat="43.73059551201936" lon="10.893742995709973"><ele>24.0</ele><time>2026-04-18T15:43:38.709Z</time></trkpt><trkpt lat="43.7305314890283" lon="10.89368712303544"><ele>24.0</ele><time>2026-04-18T15:43:40.709Z</time></trkpt><trkpt lat="43.73046993757844" lon="10.893641132866616"><ele>24.0</ele><time>2026-04-18T15:43:42.709Z</time></trkpt><trkpt lat="43.73040295782339" lon="10.893583132874843"><ele>24.0</ele><time>2026-04-18T15:43:44.709Z</time></trkpt><trkpt lat="43.73033412289191" lon="10.893531494065709"><ele>24.0</ele><time>2026-04-18T15:43:46.709Z</time></trkpt><trkpt lat="43.73025469802542" lon="10.8934937548442"><ele>24.0</ele><time>2026-04-18T15:43:48.709Z</time></trkpt><trkpt lat="43.73017642800808" lon="10.89347430743727"><ele>24.0</ele><time>2026-04-18T15:43:50.709Z</time></trkpt><trkpt lat="43.73011066096909" lon="10.893435413368682"><ele>23.833333333333332</ele><time>2026-04-18T15:43:52.709Z</time></trkpt><trkpt lat="43.73005452915264" lon="10.893365612520714"><ele>23.666666666666668</ele><time>2026-04-18T15:43:54.709Z</time></trkpt><trkpt lat="43.72999317146122" lon="10.89329415340611"><ele>23.5</ele><time>2026-04-18T15:43:56.709Z</time></trkpt><trkpt lat="43.729929802565565" lon="10.893229845483363"><ele>23.333333333333336</ele><time>2026-04-18T15:43:58.709Z</time></trkpt><trkpt lat="43.729859033646484" lon="10.893168576355547"><ele>23.166666666666668</ele><time>2026-04-18T15:44:00.709Z</time></trkpt><trkpt lat="43.72979152161825" lon="10.893117197044742"><ele>23.0</ele><time>2026-04-18T15:44:02.709Z</time></trkpt><trkpt lat="43.72973169605787" lon="10.893066994639927"><ele>23.0</ele><time>2026-04-18T15:44:04.709Z</time></trkpt><trkpt lat="43.729646109674974" lon="10.893013246476222"><ele>23.0</ele><time>2026-04-18T15:44:07.709Z</time></trkpt><trkpt lat="43.729579657708605" lon="10.892961621746357"><ele>23.0</ele><time>2026-04-18T15:44:09.709Z</time></trkpt><trkpt lat="43.729514211427656" lon="10.892906040609253"><ele>23.0</ele><time>2026-04-18T15:44:11.709Z</time></trkpt><trkpt lat="43.72944522303165" lon="10.892861776724043"><ele>23.0</ele><time>2026-04-18T15:44:13.709Z</time></trkpt><trkpt lat="43.729383056884394" lon="10.892817665001388"><ele>23.0</ele><time>2026-04-18T15:44:15.709Z</time></trkpt><trkpt lat="43.729326981682554" lon="10.892762895528914"><ele>23.0</ele><time>2026-04-18T15:44:17.709Z</time></trkpt><trkpt lat="43.729268008649655" lon="10.89272743611655"><ele>23.0</ele><time>2026-04-18T15:44:19.709Z</time></trkpt><trkpt lat="43.72918630541268" lon="10.89267501108879"><ele>23.0</ele><time>2026-04-18T15:44:22.709Z</time></trkpt><trkpt lat="43.729114564267014" lon="10.892617465382909"><ele>23.0</ele><time>2026-04-18T15:44:25.709Z</time></trkpt><trkpt lat="43.72904648750155" lon="10.892564487863444"><ele>23.0</ele><time>2026-04-18T15:44:28.709Z</time></trkpt><trkpt lat="43.72897913827995" lon="10.892510487092684"><ele>23.0</ele><time>2026-04-18T15:44:31.709Z</time></trkpt><trkpt lat="43.7288951875673" lon="10.892450881713222"><ele>23.0</ele><time>2026-04-18T15:44:34.709Z</time></trkpt><trkpt lat="43.72883337708113" lon="10.892409125421363"><ele>23.0</ele><time>2026-04-18T15:44:36.709Z</time></trkpt><trkpt lat="43.728769627264555" lon="10.892359538749835"><ele>23.0</ele><time>2026-04-18T15:44:38.709Z</time></trkpt><trkpt lat="43.72870467491222" lon="10.892315369669468"><ele>23.0</ele><time>2026-04-18T15:44:40.709Z</time></trkpt><trkpt lat="43.728649181257055" lon="10.892263710676712"><ele>23.0</ele><time>2026-04-18T15:44:42.709Z</time></trkpt><trkpt lat="43.72858574473596" lon="10.892225655549828"><ele>23.0</ele><time>2026-04-18T15:44:44.709Z</time></trkpt><trkpt lat="43.72852761049469" lon="10.892181525654435"><ele>23.0</ele><time>2026-04-18T15:44:46.709Z</time></trkpt><trkpt lat="43.72845964534336" lon="10.89213750770685"><ele>23.5</ele><time>2026-04-18T15:44:48.709Z</time></trkpt><trkpt lat="43.72839580334454" lon="10.892094477011556"><ele>24.0</ele><time>2026-04-18T15:44:50.709Z</time></trkpt><trkpt lat="43.72832563009581" lon="10.892049296832866"><ele>24.5</ele><time>2026-04-18T15:44:52.709Z</time></trkpt><trkpt lat="43.72824923997498" lon="10.89200759561447"><ele>25.0</ele><time>2026-04-18T15:44:54.709Z</time></trkpt><trkpt lat="43.728178746330535" lon="10.891969718177954"><ele>25.499999999999996</ele><time>2026-04-18T15:44:56.709Z</time></trkpt><trkpt lat="43.72810222338419" lon="10.891937904122903"><ele>26.0</ele><time>2026-04-18T15:44:58.709Z</time></trkpt><trkpt lat="43.728029966978816" lon="10.891886204658828"><ele>26.0</ele><time>2026-04-18T15:45:00.709Z</time></trkpt><trkpt lat="43.727962098408874" lon="10.891839127900308"><ele>26.0</ele><time>2026-04-18T15:45:02.709Z</time></trkpt><trkpt lat="43.727894350171084" lon="10.89180079596325"><ele>26.0</ele><time>2026-04-18T15:45:04.709Z</time></trkpt><trkpt lat="43.727825941357864" lon="10.89176103523247"><ele>26.0</ele><time>2026-04-18T15:45:06.709Z</time></trkpt><trkpt lat="43.72775894780289" lon="10.89172282149422"><ele>26.0</ele><time>2026-04-18T15:45:08.709Z</time></trkpt><trkpt lat="43.72768609789837" lon="10.891682406620896"><ele>26.0</ele><time>2026-04-18T15:45:10.709Z</time></trkpt><trkpt lat="43.727619902049376" lon="10.891648074272961"><ele>26.0</ele><time>2026-04-18T15:45:12.709Z</time></trkpt><trkpt lat="43.72756703102337" lon="10.891592519189242"><ele>25.666666666666664</ele><time>2026-04-18T15:45:14.709Z</time></trkpt><trkpt lat="43.72748381973018" lon="10.891539591736825"><ele>25.333333333333332</ele><time>2026-04-18T15:45:17.709Z</time></trkpt><trkpt lat="43.727406964460144" lon="10.891479383191694"><ele>25.0</ele><time>2026-04-18T15:45:20.709Z</time></trkpt><trkpt lat="43.72733851761017" lon="10.891430239829505"><ele>24.666666666666664</ele><time>2026-04-18T15:45:23.709Z</time></trkpt><trkpt lat="43.727271208168446" lon="10.89136203272934"><ele>24.333333333333332</ele><time>2026-04-18T15:45:26.709Z</time></trkpt><trkpt lat="43.727210615173476" lon="10.891291767642391"><ele>24.0</ele><time>2026-04-18T15:45:29.709Z</time></trkpt><trkpt lat="43.727129697320954" lon="10.891233792242582"><ele>24.0</ele><time>2026-04-18T15:45:32.709Z</time></trkpt><trkpt lat="43.72704515955174" lon="10.891191261124982"><ele>24.0</ele><time>2026-04-18T15:45:35.707Z</time></trkpt><trkpt lat="43.72696583848686" lon="10.891150365306565"><ele>24.0</ele><time>2026-04-18T15:45:38.707Z</time></trkpt><trkpt lat="43.726893205772534" lon="10.891099122289917"><ele>24.0</ele><time>2026-04-18T15:45:41.706Z</time></trkpt><trkpt lat="43.72681543872552" lon="10.891019244347406"><ele>24.0</ele><time>2026-04-18T15:45:44.706Z</time></trkpt><trkpt lat="43.72671664752408" lon="10.891114827204722"><ele>24.25</ele><time>2026-04-18T15:45:45.706Z</time></trkpt><trkpt lat="43.72663205569865" lon="10.891041555511705"><ele>24.5</ele><time>2026-04-18T15:45:47.706Z</time></trkpt><trkpt lat="43.72652889528702" lon="10.890961283278589"><ele>24.75</ele><time>2026-04-18T15:45:49.706Z</time></trkpt><trkpt lat="43.72642497164686" lon="10.890884740535563"><ele>25.0</ele><time>2026-04-18T15:45:51.706Z</time></trkpt><trkpt lat="43.72632328480892" lon="10.890811060886458"><ele>25.0</ele><time>2026-04-18T15:45:53.706Z</time></trkpt><trkpt lat="43.7262256505454" lon="10.890728119502473"><ele>25.0</ele><time>2026-04-18T15:45:55.706Z</time></trkpt><trkpt lat="43.72613409946799" lon="10.890635426768608"><ele>25.0</ele><time>2026-04-18T15:45:57.706Z</time></trkpt><trkpt lat="43.72605826392804" lon="10.890554640963028"><ele>25.0</ele><time>2026-04-18T15:45:59.706Z</time></trkpt><trkpt lat="43.725978983476004" lon="10.890470185343311"><ele>25.0</ele><time>2026-04-18T15:46:01.706Z</time></trkpt><trkpt lat="43.725907836547655" lon="10.89039439418647"><ele>25.000000000000004</ele><time>2026-04-18T15:46:03.706Z</time></trkpt><trkpt lat="43.72583643829945" lon="10.890318335318069"><ele>25.0</ele><time>2026-04-18T15:46:05.706Z</time></trkpt><trkpt lat="43.72577028561801" lon="10.890247864409426"><ele>25.0</ele><time>2026-04-18T15:46:07.706Z</time></trkpt><trkpt lat="43.72571381382952" lon="10.890187706352036"><ele>25.0</ele><time>2026-04-18T15:46:09.706Z</time></trkpt><trkpt lat="43.72565946704624" lon="10.890129811992285"><ele>25.0</ele><time>2026-04-18T15:46:11.706Z</time></trkpt><trkpt lat="43.72560689734378" lon="10.890073703359697"><ele>25.000000000000004</ele><time>2026-04-18T15:46:13.706Z</time></trkpt><trkpt lat="43.72555405827237" lon="10.890016946792674"><ele>25.0</ele><time>2026-04-18T15:46:15.706Z</time></trkpt><trkpt lat="43.72550301851811" lon="10.889962122950905"><ele>24.857142857142858</ele><time>2026-04-18T15:46:17.706Z</time></trkpt><trkpt lat="43.725450742066734" lon="10.889905970732398"><ele>24.714285714285715</ele><time>2026-04-18T15:46:19.706Z</time></trkpt><trkpt lat="43.72539894377599" lon="10.889854289262638"><ele>24.57142857142857</ele><time>2026-04-18T15:46:21.706Z</time></trkpt><trkpt lat="43.72531598585789" lon="10.889780254072205"><ele>24.42857142857143</ele><time>2026-04-18T15:46:24.706Z</time></trkpt><trkpt lat="43.72524096013439" lon="10.889738029035435"><ele>24.285714285714285</ele><time>2026-04-18T15:46:27.706Z</time></trkpt><trkpt lat="43.72517520755534" lon="10.889698834106213"><ele>24.142857142857142</ele><time>2026-04-18T15:46:29.706Z</time></trkpt><trkpt lat="43.72511283737633" lon="10.889710793033311"><ele>24.0</ele><time>2026-04-18T15:46:32.706Z</time></trkpt><trkpt lat="43.72503157113753" lon="10.889704893802358"><ele>24.0</ele><time>2026-04-18T15:46:35.706Z</time></trkpt><trkpt lat="43.724961351439795" lon="10.889712626886324"><ele>24.0</ele><time>2026-04-18T15:46:38.706Z</time></trkpt><trkpt lat="43.72485821668793" lon="10.889069823523293"><ele>23.857142857142854</ele><time>2026-04-18T15:46:42.706Z</time></trkpt><trkpt lat="43.72480355592036" lon="10.889004520271568"><ele>23.714285714285715</ele><time>2026-04-18T15:46:44.706Z</time></trkpt><trkpt lat="43.72474521116944" lon="10.888934201109533"><ele>23.57142857142857</ele><time>2026-04-18T15:46:46.706Z</time></trkpt><trkpt lat="43.72469309300394" lon="10.888865412914033"><ele>23.428571428571427</ele><time>2026-04-18T15:46:48.706Z</time></trkpt><trkpt lat="43.72463233571094" lon="10.8887995545101"><ele>23.285714285714285</ele><time>2026-04-18T15:46:50.706Z</time></trkpt><trkpt lat="43.72458056298487" lon="10.888739697521995"><ele>23.142857142857142</ele><time>2026-04-18T15:46:52.706Z</time></trkpt><trkpt lat="43.72452445912221" lon="10.888673217211059"><ele>23.0</ele><time>2026-04-18T15:46:54.706Z</time></trkpt><trkpt lat="43.72446436095663" lon="10.888605744356711"><ele>23.0</ele><time>2026-04-18T15:46:56.706Z</time></trkpt><trkpt lat="43.72441039453368" lon="10.888535157946118"><ele>23.0</ele><time>2026-04-18T15:46:58.706Z</time></trkpt><trkpt lat="43.724352606809276" lon="10.888465889385044"><ele>23.0</ele><time>2026-04-18T15:47:00.706Z</time></trkpt><trkpt lat="43.72429618169399" lon="10.888398835557323"><ele>23.0</ele><time>2026-04-18T15:47:02.706Z</time></trkpt><trkpt lat="43.724240688731" lon="10.888333513994858"><ele>23.0</ele><time>2026-04-18T15:47:04.706Z</time></trkpt><trkpt lat="43.72418330112091" lon="10.888263120887675"><ele>23.0</ele><time>2026-04-18T15:47:06.706Z</time></trkpt><trkpt lat="43.72412818494882" lon="10.888194708657734"><ele>23.0</ele><time>2026-04-18T15:47:08.706Z</time></trkpt><trkpt lat="43.72407206839579" lon="10.888125419089969"><ele>22.833333333333336</ele><time>2026-04-18T15:47:10.706Z</time></trkpt><trkpt lat="43.72400684340113" lon="10.8880550880299"><ele>22.666666666666668</ele><time>2026-04-18T15:47:12.706Z</time></trkpt><trkpt lat="43.723944619863566" lon="10.887973140037252"><ele>22.5</ele><time>2026-04-18T15:47:14.706Z</time></trkpt><trkpt lat="43.72388984790986" lon="10.887892690632253"><ele>22.333333333333332</ele><time>2026-04-18T15:47:16.706Z</time></trkpt><trkpt lat="43.72382961735973" lon="10.887811005544178"><ele>22.166666666666664</ele><time>2026-04-18T15:47:18.706Z</time></trkpt><trkpt lat="43.72377609265877" lon="10.8877226639169"><ele>22.0</ele><time>2026-04-18T15:47:20.706Z</time></trkpt><trkpt lat="43.72371964740622" lon="10.887634574214701"><ele>22.0</ele><time>2026-04-18T15:47:22.706Z</time></trkpt><trkpt lat="43.723664669913624" lon="10.887549250337743"><ele>22.0</ele><time>2026-04-18T15:47:24.706Z</time></trkpt><trkpt lat="43.72361346733698" lon="10.887467866303824"><ele>22.0</ele><time>2026-04-18T15:47:26.706Z</time></trkpt><trkpt lat="43.72356595765944" lon="10.887390904499181"><ele>22.0</ele><time>2026-04-18T15:47:28.706Z</time></trkpt><trkpt lat="43.723525790655025" lon="10.887313400489205"><ele>22.0</ele><time>2026-04-18T15:47:30.706Z</time></trkpt><trkpt lat="43.72348484764002" lon="10.887222114019115"><ele>22.0</ele><time>2026-04-18T15:47:32.706Z</time></trkpt><trkpt lat="43.72344096167117" lon="10.887109850367157"><ele>22.0</ele><time>2026-04-18T15:47:34.706Z</time></trkpt><trkpt lat="43.723379500656904" lon="10.886997835285188"><ele>22.0</ele><time>2026-04-18T15:47:36.706Z</time></trkpt><trkpt lat="43.72330050839908" lon="10.886913466344692"><ele>22.0</ele><time>2026-04-18T15:47:38.706Z</time></trkpt><trkpt lat="43.72323348877942" lon="10.886857806486114"><ele>22.0</ele><time>2026-04-18T15:47:40.704Z</time></trkpt><trkpt lat="43.72317141542256" lon="10.886811716873703"><ele>22.0</ele><time>2026-04-18T15:47:43.704Z</time></trkpt><trkpt lat="43.72310790871472" lon="10.886763500333867"><ele>22.0</ele><time>2026-04-18T15:47:47.704Z</time></trkpt><trkpt lat="43.72305312821437" lon="10.886719895249216"><ele>22.333333333333332</ele><time>2026-04-18T15:47:50.704Z</time></trkpt><trkpt lat="43.722997724689975" lon="10.886642014377987"><ele>22.666666666666664</ele><time>2026-04-18T15:47:54.704Z</time></trkpt><trkpt lat="43.72294680852293" lon="10.886561167326857"><ele>23.0</ele><time>2026-04-18T15:47:59.704Z</time></trkpt><trkpt lat="43.72288893598895" lon="10.88645119073331"><ele>23.333333333333332</ele><time>2026-04-18T15:48:02.704Z</time></trkpt><trkpt lat="43.7228358125387" lon="10.886351406982222"><ele>23.666666666666668</ele><time>2026-04-18T15:48:04.704Z</time></trkpt><trkpt lat="43.722777194619454" lon="10.88625325100837"><ele>24.0</ele><time>2026-04-18T15:48:06.704Z</time></trkpt><trkpt lat="43.72271883914977" lon="10.886169677051308"><ele>24.0</ele><time>2026-04-18T15:48:08.704Z</time></trkpt><trkpt lat="43.72266390990085" lon="10.886081106998393"><ele>24.0</ele><time>2026-04-18T15:48:10.704Z</time></trkpt><trkpt lat="43.7226117089635" lon="10.886003090982287"><ele>24.0</ele><time>2026-04-18T15:48:12.704Z</time></trkpt><trkpt lat="43.72256016481511" lon="10.885927927780623"><ele>24.0</ele><time>2026-04-18T15:48:14.704Z</time></trkpt><trkpt lat="43.72249992870385" lon="10.885836431488444"><ele>24.0</ele><time>2026-04-18T15:48:17.704Z</time></trkpt><trkpt lat="43.722445267086506" lon="10.885756961780281"><ele>24.0</ele><time>2026-04-18T15:48:20.704Z</time></trkpt><trkpt lat="43.7223918382557" lon="10.88566423983963"><ele>23.666666666666668</ele><time>2026-04-18T15:48:23.704Z</time></trkpt><trkpt lat="43.722326749114664" lon="10.885571922107864"><ele>23.333333333333332</ele><time>2026-04-18T15:48:26.704Z</time></trkpt><trkpt lat="43.722262529756804" lon="10.88549148470052"><ele>23.0</ele><time>2026-04-18T15:48:29.704Z</time></trkpt><trkpt lat="43.722207454671974" lon="10.885396476530673"><ele>22.666666666666664</ele><time>2026-04-18T15:48:32.704Z</time></trkpt><trkpt lat="43.72214457349011" lon="10.885311001891095"><ele>22.333333333333332</ele><time>2026-04-18T15:48:35.704Z</time></trkpt><trkpt lat="43.72208319307095" lon="10.88522917932535"><ele>22.0</ele><time>2026-04-18T15:48:38.704Z</time></trkpt><trkpt lat="43.722021136073415" lon="10.885140584811127"><ele>22.333333333333332</ele><time>2026-04-18T15:48:41.704Z</time></trkpt><trkpt lat="43.7219784704585" lon="10.88507334310989"><ele>22.666666666666664</ele><time>2026-04-18T15:48:43.704Z</time></trkpt><trkpt lat="43.721918028809576" lon="10.884981369937787"><ele>23.0</ele><time>2026-04-18T15:48:46.704Z</time></trkpt><trkpt lat="43.7218507631431" lon="10.88488894200635"><ele>23.333333333333332</ele><time>2026-04-18T15:48:49.704Z</time></trkpt><trkpt lat="43.721789031404846" lon="10.884796821792802"><ele>23.666666666666668</ele><time>2026-04-18T15:48:52.704Z</time></trkpt><trkpt lat="43.72172728187016" lon="10.884708864568836"><ele>24.0</ele><time>2026-04-18T15:48:55.704Z</time></trkpt><trkpt lat="43.721685947076736" lon="10.884642266366019"><ele>24.0</ele><time>2026-04-18T15:48:57.704Z</time></trkpt><trkpt lat="43.72162794520755" lon="10.884547195723014"><ele>24.0</ele><time>2026-04-18T15:49:00.704Z</time></trkpt><trkpt lat="43.72156725657549" lon="10.884472089155594"><ele>24.0</ele><time>2026-04-18T15:49:03.704Z</time></trkpt><trkpt lat="43.721513067729234" lon="10.884388583158575"><ele>24.0</ele><time>2026-04-18T15:49:06.704Z</time></trkpt><trkpt lat="43.721456883765526" lon="10.884311729056348"><ele>24.0</ele><time>2026-04-18T15:49:09.704Z</time></trkpt><trkpt lat="43.72139482688312" lon="10.884241394730948"><ele>24.0</ele><time>2026-04-18T15:49:13.704Z</time></trkpt><trkpt lat="43.721328508497535" lon="10.884179697614456"><ele>23.285714285714285</ele><time>2026-04-18T15:49:17.704Z</time></trkpt><trkpt lat="43.72127790169412" lon="10.884125596237837"><ele>22.57142857142857</ele><time>2026-04-18T15:49:20.704Z</time></trkpt><trkpt lat="43.72129107054648" lon="10.884035088275798"><ele>21.857142857142854</ele><time>2026-04-18T15:49:25.704Z</time></trkpt><trkpt lat="43.7213493853961" lon="10.883988531097442"><ele>21.142857142857142</ele><time>2026-04-18T15:49:28.704Z</time></trkpt><trkpt lat="43.72140738057593" lon="10.88392257373267"><ele>20.42857142857143</ele><time>2026-04-18T15:49:31.704Z</time></trkpt><trkpt lat="43.721467940045294" lon="10.883853307320258"><ele>19.71428571428571</ele><time>2026-04-18T15:49:34.704Z</time></trkpt><trkpt lat="43.721531017360356" lon="10.883779487111243"><ele>19.0</ele><time>2026-04-18T15:49:37.704Z</time></trkpt><trkpt lat="43.721596359449556" lon="10.883706543210565"><ele>19.0</ele><time>2026-04-18T15:49:40.704Z</time></trkpt><trkpt lat="43.72166249859469" lon="10.883642911017096"><ele>19.0</ele><time>2026-04-18T15:49:43.704Z</time></trkpt><trkpt lat="43.72172828530561" lon="10.883572031420101"><ele>19.0</ele><time>2026-04-18T15:49:46.701Z</time></trkpt><trkpt lat="43.72180210386582" lon="10.883500562798515"><ele>19.0</ele><time>2026-04-18T15:49:49.701Z</time></trkpt><trkpt lat="43.72187174058255" lon="10.883427040341797"><ele>19.0</ele><time>2026-04-18T15:49:52.701Z</time></trkpt><trkpt lat="43.721942795950824" lon="10.883351672283682"><ele>19.0</ele><time>2026-04-18T15:49:55.701Z</time></trkpt><trkpt lat="43.722018456917844" lon="10.883275839953889"><ele>19.666666666666664</ele><time>2026-04-18T15:49:58.701Z</time></trkpt><trkpt lat="43.72207107078248" lon="10.883221293526033"><ele>20.333333333333332</ele><time>2026-04-18T15:50:00.701Z</time></trkpt><trkpt lat="43.7221229237025" lon="10.883166783571582"><ele>21.0</ele><time>2026-04-18T15:50:02.701Z</time></trkpt><trkpt lat="43.72219678736115" lon="10.883089562799407"><ele>21.666666666666668</ele><time>2026-04-18T15:50:05.701Z</time></trkpt><trkpt lat="43.722250598838784" lon="10.883036178158068"><ele>22.333333333333336</ele><time>2026-04-18T15:50:07.701Z</time></trkpt><trkpt lat="43.72230306479477" lon="10.88297941791109"><ele>23.0</ele><time>2026-04-18T15:50:09.701Z</time></trkpt><trkpt lat="43.72238058770589" lon="10.882899927433495"><ele>23.0</ele><time>2026-04-18T15:50:12.701Z</time></trkpt><trkpt lat="43.72243813653534" lon="10.88284208986414"><ele>23.0</ele><time>2026-04-18T15:50:14.701Z</time></trkpt><trkpt lat="43.72250066733869" lon="10.882781446014016"><ele>23.0</ele><time>2026-04-18T15:50:16.701Z</time></trkpt><trkpt lat="43.722565399576176" lon="10.882715119287855"><ele>23.0</ele><time>2026-04-18T15:50:18.701Z</time></trkpt><trkpt lat="43.72263366310941" lon="10.882641473309462"><ele>23.0</ele><time>2026-04-18T15:50:20.701Z</time></trkpt><trkpt lat="43.722708021245815" lon="10.882570945404995"><ele>23.0</ele><time>2026-04-18T15:50:22.701Z</time></trkpt><trkpt lat="43.722788098984275" lon="10.882490745760105"><ele>23.25</ele><time>2026-04-18T15:50:24.701Z</time></trkpt><trkpt lat="43.7228724239833" lon="10.882397804743142"><ele>23.5</ele><time>2026-04-18T15:50:26.701Z</time></trkpt><trkpt lat="43.72296082713414" lon="10.882303288281985"><ele>23.75</ele><time>2026-04-18T15:50:28.701Z</time></trkpt><trkpt lat="43.723055815403804" lon="10.88220822562684"><ele>24.0</ele><time>2026-04-18T15:50:30.701Z</time></trkpt><trkpt lat="43.72315388743239" lon="10.882105468871663"><ele>24.0</ele><time>2026-04-18T15:50:32.701Z</time></trkpt><trkpt lat="43.723203546391794" lon="10.882049667036068"><ele>24.0</ele><time>2026-04-18T15:50:33.701Z</time></trkpt><trkpt lat="43.72330332255856" lon="10.88194623328028"><ele>24.0</ele><time>2026-04-18T15:50:35.701Z</time></trkpt><trkpt lat="43.723396802958256" lon="10.881844675133012"><ele>24.0</ele><time>2026-04-18T15:50:37.701Z</time></trkpt><trkpt lat="43.723487564091464" lon="10.881754586797983"><ele>24.0</ele><time>2026-04-18T15:50:39.701Z</time></trkpt><trkpt lat="43.72357175020212" lon="10.881667856551003"><ele>24.2</ele><time>2026-04-18T15:50:41.701Z</time></trkpt><trkpt lat="43.72365157318583" lon="10.881582303830315"><ele>24.4</ele><time>2026-04-18T15:50:43.701Z</time></trkpt><trkpt lat="43.7237283868737" lon="10.881501798688092"><ele>24.6</ele><time>2026-04-18T15:50:45.701Z</time></trkpt><trkpt lat="43.72379937905587" lon="10.881425310306273"><ele>24.8</ele><time>2026-04-18T15:50:47.701Z</time></trkpt><trkpt lat="43.723872178646964" lon="10.881348920867735"><ele>25.0</ele><time>2026-04-18T15:50:49.701Z</time></trkpt><trkpt lat="43.72394760434851" lon="10.881272242675099"><ele>25.0</ele><time>2026-04-18T15:50:51.701Z</time></trkpt><trkpt lat="43.72402285450539" lon="10.881196986219223"><ele>25.0</ele><time>2026-04-18T15:50:53.701Z</time></trkpt><trkpt lat="43.7241000735305" lon="10.881121520996537"><ele>25.0</ele><time>2026-04-18T15:50:55.701Z</time></trkpt><trkpt lat="43.72417822564324" lon="10.881058790215576"><ele>25.0</ele><time>2026-04-18T15:50:57.701Z</time></trkpt><trkpt lat="43.724262085858555" lon="10.881009981928829"><ele>25.0</ele><time>2026-04-18T15:50:59.701Z</time></trkpt><trkpt lat="43.72435444212523" lon="10.880982840383037"><ele>25.000000000000004</ele><time>2026-04-18T15:51:01.701Z</time></trkpt><trkpt lat="43.72444245677114" lon="10.880992505542366"><ele>25.0</ele><time>2026-04-18T15:51:03.701Z</time></trkpt><trkpt lat="43.7245275734833" lon="10.881029802685582"><ele>25.0</ele><time>2026-04-18T15:51:05.701Z</time></trkpt><trkpt lat="43.72461090598078" lon="10.881055230384453"><ele>25.0</ele><time>2026-04-18T15:51:07.701Z</time></trkpt><trkpt lat="43.72467231062915" lon="10.881143241929589"><ele>25.000000000000004</ele><time>2026-04-18T15:51:09.701Z</time></trkpt><trkpt lat="43.72475031734098" lon="10.881179919759978"><ele>25.0</ele><time>2026-04-18T15:51:11.701Z</time></trkpt><trkpt lat="43.724834212413555" lon="10.88119602462699"><ele>25.000000000000004</ele><time>2026-04-18T15:51:13.701Z</time></trkpt><trkpt lat="43.72491418702185" lon="10.881172834549448"><ele>25.0</ele><time>2026-04-18T15:51:15.701Z</time></trkpt><trkpt lat="43.72498975745027" lon="10.881108805438132"><ele>25.0</ele><time>2026-04-18T15:51:17.701Z</time></trkpt><trkpt lat="43.72505086901073" lon="10.881010450466846"><ele>25.0</ele><time>2026-04-18T15:51:19.701Z</time></trkpt><trkpt lat="43.7250967310782" lon="10.880901744211494"><ele>25.000000000000004</ele><time>2026-04-18T15:51:21.701Z</time></trkpt><trkpt lat="43.72511923549545" lon="10.880784922377684"><ele>25.0</ele><time>2026-04-18T15:51:23.701Z</time></trkpt><trkpt lat="43.72511330604391" lon="10.880670798806518"><ele>25.0</ele><time>2026-04-18T15:51:25.701Z</time></trkpt><trkpt lat="43.725179948887096" lon="10.880629491787777"><ele>25.0</ele><time>2026-04-18T15:51:26.701Z</time></trkpt><trkpt lat="43.72525558867513" lon="10.880555540220898"><ele>25.0</ele><time>2026-04-18T15:51:28.701Z</time></trkpt><trkpt lat="43.72524797239917" lon="10.880321503065266"><ele>25.0</ele><time>2026-04-18T15:51:31.701Z</time></trkpt><trkpt lat="43.72520996567029" lon="10.88020566618977"><ele>25.0</ele><time>2026-04-18T15:51:33.701Z</time></trkpt><trkpt lat="43.725191342765925" lon="10.8800872874922"><ele>25.000000000000004</ele><time>2026-04-18T15:51:35.701Z</time></trkpt><trkpt lat="43.725211686723135" lon="10.879972124886176"><ele>25.0</ele><time>2026-04-18T15:51:37.701Z</time></trkpt><trkpt lat="43.72526913612577" lon="10.879890082624065"><ele>25.0</ele><time>2026-04-18T15:51:39.701Z</time></trkpt><trkpt lat="43.72534345007969" lon="10.879834863313798"><ele>25.0</ele><time>2026-04-18T15:51:41.701Z</time></trkpt><trkpt lat="43.72541152562967" lon="10.879767568109019"><ele>25.000000000000004</ele><time>2026-04-18T15:51:43.701Z</time></trkpt><trkpt lat="43.7254756672962" lon="10.879705077467445"><ele>25.0</ele><time>2026-04-18T15:51:45.701Z</time></trkpt><trkpt lat="43.72554473954725" lon="10.879641050980057"><ele>25.166666666666668</ele><time>2026-04-18T15:51:47.701Z</time></trkpt><trkpt lat="43.72561361157702" lon="10.879577210069144"><ele>25.333333333333336</ele><time>2026-04-18T15:51:49.701Z</time></trkpt><trkpt lat="43.725672964681756" lon="10.879495709596224"><ele>25.5</ele><time>2026-04-18T15:51:51.701Z</time></trkpt><trkpt lat="43.72574902885389" lon="10.879455532544519"><ele>25.666666666666664</ele><time>2026-04-18T15:51:53.698Z</time></trkpt><trkpt lat="43.72581491162711" lon="10.879397175399994"><ele>25.833333333333332</ele><time>2026-04-18T15:51:55.698Z</time></trkpt><trkpt lat="43.72587999348285" lon="10.879339231126982"><ele>26.0</ele><time>2026-04-18T15:51:57.698Z</time></trkpt><trkpt lat="43.72593983442197" lon="10.879285952982523"><ele>25.833333333333332</ele><time>2026-04-18T15:51:59.698Z</time></trkpt><trkpt lat="43.726002500536865" lon="10.879230159502994"><ele>25.666666666666664</ele><time>2026-04-18T15:52:01.698Z</time></trkpt><trkpt lat="43.726068816716726" lon="10.879171116266894"><ele>25.5</ele><time>2026-04-18T15:52:03.698Z</time></trkpt><trkpt lat="43.72612692343532" lon="10.879096110844687"><ele>25.333333333333336</ele><time>2026-04-18T15:52:05.698Z</time></trkpt><trkpt lat="43.72619562429199" lon="10.879037398571535"><ele>25.166666666666668</ele><time>2026-04-18T15:52:07.698Z</time></trkpt><trkpt lat="43.72625805498036" lon="10.878982090973887"><ele>25.0</ele><time>2026-04-18T15:52:09.698Z</time></trkpt><trkpt lat="43.726319445957564" lon="10.878927516537138"><ele>25.714285714285715</ele><time>2026-04-18T15:52:11.698Z</time></trkpt><trkpt lat="43.72638487243683" lon="10.878883031065094"><ele>26.42857142857143</ele><time>2026-04-18T15:52:13.698Z</time></trkpt><trkpt lat="43.72644166245774" lon="10.878825238275038"><ele>27.142857142857146</ele><time>2026-04-18T15:52:15.698Z</time></trkpt><trkpt lat="43.72650885929099" lon="10.878792139588356"><ele>27.857142857142858</ele><time>2026-04-18T15:52:17.698Z</time></trkpt><trkpt lat="43.726562538018" lon="10.878746386044966"><ele>28.57142857142857</ele><time>2026-04-18T15:52:19.698Z</time></trkpt><trkpt lat="43.72661732570351" lon="10.878700408297357"><ele>29.28571428571429</ele><time>2026-04-18T15:52:21.698Z</time></trkpt><trkpt lat="43.72666522278918" lon="10.878638766565388"><ele>30.0</ele><time>2026-04-18T15:52:23.698Z</time></trkpt><trkpt lat="43.7267235952161" lon="10.878590504032745"><ele>30.0</ele><time>2026-04-18T15:52:25.698Z</time></trkpt><trkpt lat="43.72678299122602" lon="10.878546660742161"><ele>30.0</ele><time>2026-04-18T15:52:27.698Z</time></trkpt><trkpt lat="43.7268608326404" lon="10.878480318183819"><ele>30.0</ele><time>2026-04-18T15:52:30.698Z</time></trkpt><trkpt lat="43.726914590314756" lon="10.878433455199552"><ele>30.0</ele><time>2026-04-18T15:52:32.698Z</time></trkpt><trkpt lat="43.72699299352887" lon="10.878373860869674"><ele>30.0</ele><time>2026-04-18T15:52:35.698Z</time></trkpt><trkpt lat="43.72705196564548" lon="10.878324971328146"><ele>30.0</ele><time>2026-04-18T15:52:37.698Z</time></trkpt><trkpt lat="43.72710861233207" lon="10.878271386532049"><ele>30.0</ele><time>2026-04-18T15:52:39.698Z</time></trkpt><trkpt lat="43.727192504180564" lon="10.878206479725515"><ele>30.285714285714285</ele><time>2026-04-18T15:52:42.698Z</time></trkpt><trkpt lat="43.72724940774413" lon="10.878163633199586"><ele>30.57142857142857</ele><time>2026-04-18T15:52:44.698Z</time></trkpt><trkpt lat="43.72730795840052" lon="10.87811450923096"><ele>30.857142857142854</ele><time>2026-04-18T15:52:46.698Z</time></trkpt><trkpt lat="43.72737324333334" lon="10.878082313129678"><ele>31.142857142857142</ele><time>2026-04-18T15:52:48.698Z</time></trkpt><trkpt lat="43.727425371201335" lon="10.878017003925718"><ele>31.428571428571423</ele><time>2026-04-18T15:52:50.698Z</time></trkpt><trkpt lat="43.72748988004222" lon="10.877975334393593"><ele>31.71428571428571</ele><time>2026-04-18T15:52:52.698Z</time></trkpt><trkpt lat="43.72755224513815" lon="10.877921465730156"><ele>32.0</ele><time>2026-04-18T15:52:54.698Z</time></trkpt><trkpt lat="43.7276169700636" lon="10.877870181186658"><ele>31.999999999999996</ele><time>2026-04-18T15:52:56.698Z</time></trkpt><trkpt lat="43.727687672283594" lon="10.877824865894036"><ele>32.0</ele><time>2026-04-18T15:52:58.698Z</time></trkpt><trkpt lat="43.727757996776766" lon="10.877774079582627"><ele>32.0</ele><time>2026-04-18T15:53:00.698Z</time></trkpt><trkpt lat="43.72783003354913" lon="10.877720371096881"><ele>32.0</ele><time>2026-04-18T15:53:02.698Z</time></trkpt><trkpt lat="43.727901871395275" lon="10.877667023645007"><ele>31.999999999999996</ele><time>2026-04-18T15:53:04.698Z</time></trkpt><trkpt lat="43.7279733569089" lon="10.877617437181003"><ele>32.0</ele><time>2026-04-18T15:53:06.698Z</time></trkpt><trkpt lat="43.72804041361425" lon="10.87756637791788"><ele>31.999999999999996</ele><time>2026-04-18T15:53:08.698Z</time></trkpt><trkpt lat="43.72810706308835" lon="10.877518041738345"><ele>32.0</ele><time>2026-04-18T15:53:10.698Z</time></trkpt><trkpt lat="43.728175807568974" lon="10.877471955306184"><ele>32.0</ele><time>2026-04-18T15:53:12.698Z</time></trkpt><trkpt lat="43.728245245624805" lon="10.877423613635337"><ele>32.0</ele><time>2026-04-18T15:53:14.698Z</time></trkpt><trkpt lat="43.72831510572111" lon="10.877383106186606"><ele>31.999999999999996</ele><time>2026-04-18T15:53:16.698Z</time></trkpt><trkpt lat="43.72838090045122" lon="10.877339998026278"><ele>32.0</ele><time>2026-04-18T15:53:18.698Z</time></trkpt><trkpt lat="43.728450771831966" lon="10.877298127663426"><ele>31.999999999999996</ele><time>2026-04-18T15:53:20.698Z</time></trkpt><trkpt lat="43.72851853561411" lon="10.87725733377669"><ele>32.0</ele><time>2026-04-18T15:53:22.698Z</time></trkpt><trkpt lat="43.72858798843635" lon="10.877201885283862"><ele>32.0</ele><time>2026-04-18T15:53:24.698Z</time></trkpt><trkpt lat="43.728658161599974" lon="10.877159675356664"><ele>32.0</ele><time>2026-04-18T15:53:26.698Z</time></trkpt><trkpt lat="43.728725125694716" lon="10.87711490192052"><ele>31.999999999999996</ele><time>2026-04-18T15:53:28.698Z</time></trkpt><trkpt lat="43.728792363940116" lon="10.877067220198832"><ele>32.0</ele><time>2026-04-18T15:53:30.698Z</time></trkpt><trkpt lat="43.728866428006505" lon="10.877028852168404"><ele>31.833333333333332</ele><time>2026-04-18T15:53:32.698Z</time></trkpt><trkpt lat="43.72893971879829" lon="10.87697464052476"><ele>31.666666666666664</ele><time>2026-04-18T15:53:34.698Z</time></trkpt><trkpt lat="43.72901386600983" lon="10.876930123708714"><ele>31.5</ele><time>2026-04-18T15:53:36.698Z</time></trkpt><trkpt lat="43.72908901971414" lon="10.876880355556352"><ele>31.333333333333336</ele><time>2026-04-18T15:53:38.698Z</time></trkpt><trkpt lat="43.72917175004921" lon="10.87685039391161"><ele>31.166666666666668</ele><time>2026-04-18T15:53:40.698Z</time></trkpt><trkpt lat="43.72925297509758" lon="10.876798336442214"><ele>31.0</ele><time>2026-04-18T15:53:42.698Z</time></trkpt><trkpt lat="43.72932660725573" lon="10.8767380926176"><ele>31.000000000000004</ele><time>2026-04-18T15:53:44.698Z</time></trkpt><trkpt lat="43.7294037112109" lon="10.876690554658072"><ele>31.0</ele><time>2026-04-18T15:53:46.698Z</time></trkpt><trkpt lat="43.72949261488981" lon="10.876664125658037"><ele>31.0</ele><time>2026-04-18T15:53:48.698Z</time></trkpt><trkpt lat="43.729560365004005" lon="10.87661043418131"><ele>31.0</ele><time>2026-04-18T15:53:50.698Z</time></trkpt><trkpt lat="43.729634141883764" lon="10.876592333620792"><ele>31.000000000000004</ele><time>2026-04-18T15:53:52.698Z</time></trkpt><trkpt lat="43.72970522480578" lon="10.876536018283097"><ele>31.0</ele><time>2026-04-18T15:53:54.698Z</time></trkpt><trkpt lat="43.72978580616795" lon="10.876529751820312"><ele>31.000000000000004</ele><time>2026-04-18T15:53:56.698Z</time></trkpt><trkpt lat="43.72986610835014" lon="10.87650621343493"><ele>31.0</ele><time>2026-04-18T15:53:58.695Z</time></trkpt><trkpt lat="43.72994507415995" lon="10.876484350157062"><ele>31.0</ele><time>2026-04-18T15:54:00.695Z</time></trkpt><trkpt lat="43.73002365552298" lon="10.876469523363603"><ele>31.0</ele><time>2026-04-18T15:54:02.695Z</time></trkpt><trkpt lat="43.73009744459595" lon="10.876457655577385"><ele>31.000000000000004</ele><time>2026-04-18T15:54:04.695Z</time></trkpt><trkpt lat="43.73017307794323" lon="10.87644641382016"><ele>31.0</ele><time>2026-04-18T15:54:06.695Z</time></trkpt><trkpt lat="43.730243488104264" lon="10.876444647000817"><ele>31.166666666666668</ele><time>2026-04-18T15:54:08.695Z</time></trkpt><trkpt lat="43.7303295545209" lon="10.876424278018758"><ele>31.333333333333336</ele><time>2026-04-18T15:54:10.695Z</time></trkpt><trkpt lat="43.73042264167588" lon="10.876429511022165"><ele>31.5</ele><time>2026-04-18T15:54:12.695Z</time></trkpt><trkpt lat="43.73050354925551" lon="10.876434779360201"><ele>31.666666666666664</ele><time>2026-04-18T15:54:14.695Z</time></trkpt><trkpt lat="43.73058550995529" lon="10.87644912030054"><ele>31.833333333333332</ele><time>2026-04-18T15:54:16.695Z</time></trkpt><trkpt lat="43.7306619000083" lon="10.876459189289193"><ele>32.0</ele><time>2026-04-18T15:54:18.695Z</time></trkpt><trkpt lat="43.730743363083995" lon="10.876475370244645"><ele>31.999999999999996</ele><time>2026-04-18T15:54:20.695Z</time></trkpt><trkpt lat="43.730819766530715" lon="10.876516245882057"><ele>32.0</ele><time>2026-04-18T15:54:22.695Z</time></trkpt><trkpt lat="43.73089734604774" lon="10.876546947508876"><ele>32.0</ele><time>2026-04-18T15:54:24.695Z</time></trkpt><trkpt lat="43.73097787346715" lon="10.87657898471816"><ele>32.0</ele><time>2026-04-18T15:54:26.695Z</time></trkpt><trkpt lat="43.731046548141435" lon="10.876610646119412"><ele>31.999999999999996</ele><time>2026-04-18T15:54:28.695Z</time></trkpt><trkpt lat="43.73112265468819" lon="10.87662386926816"><ele>32.0</ele><time>2026-04-18T15:54:30.695Z</time></trkpt><trkpt lat="43.731194433847904" lon="10.876665443266853"><ele>31.666666666666664</ele><time>2026-04-18T15:54:32.695Z</time></trkpt><trkpt lat="43.73126652618129" lon="10.876702177178991"><ele>31.333333333333332</ele><time>2026-04-18T15:54:34.695Z</time></trkpt><trkpt lat="43.731346854876676" lon="10.876759830401236"><ele>31.0</ele><time>2026-04-18T15:54:36.695Z</time></trkpt><trkpt lat="43.731423743698095" lon="10.876809753147448"><ele>30.666666666666664</ele><time>2026-04-18T15:54:38.695Z</time></trkpt><trkpt lat="43.73150249690373" lon="10.87685911533871"><ele>30.333333333333332</ele><time>2026-04-18T15:54:40.695Z</time></trkpt><trkpt lat="43.7315760922558" lon="10.876913633139063"><ele>30.0</ele><time>2026-04-18T15:54:42.695Z</time></trkpt><trkpt lat="43.73165044715503" lon="10.87696568224445"><ele>30.2</ele><time>2026-04-18T15:54:44.695Z</time></trkpt><trkpt lat="43.73173325636219" lon="10.877014322108268"><ele>30.4</ele><time>2026-04-18T15:54:46.695Z</time></trkpt><trkpt lat="43.73180237303407" lon="10.877056662623385"><ele>30.6</ele><time>2026-04-18T15:54:48.695Z</time></trkpt><trkpt lat="43.7319161977697" lon="10.877125857695852"><ele>30.8</ele><time>2026-04-18T15:54:50.695Z</time></trkpt><trkpt lat="43.73198910241096" lon="10.877199185559757"><ele>31.0</ele><time>2026-04-18T15:54:53.695Z</time></trkpt><trkpt lat="43.73206369163224" lon="10.877248208555127"><ele>31.000000000000004</ele><time>2026-04-18T15:54:55.695Z</time></trkpt><trkpt lat="43.73213773433795" lon="10.877295458659285"><ele>31.0</ele><time>2026-04-18T15:54:57.695Z</time></trkpt><trkpt lat="43.73221187496657" lon="10.877342318924219"><ele>31.0</ele><time>2026-04-18T15:54:59.695Z</time></trkpt><trkpt lat="43.73228660559448" lon="10.87738982427255"><ele>31.0</ele><time>2026-04-18T15:55:01.695Z</time></trkpt><trkpt lat="43.732361604310206" lon="10.877440163801136"><ele>31.000000000000004</ele><time>2026-04-18T15:55:03.695Z</time></trkpt><trkpt lat="43.732420115662954" lon="10.877479686677963"><ele>31.0</ele><time>2026-04-18T15:55:05.695Z</time></trkpt><trkpt lat="43.73252807896088" lon="10.877553159220295"><ele>31.000000000000004</ele><time>2026-04-18T15:55:07.695Z</time></trkpt><trkpt lat="43.73259033316036" lon="10.877596238298468"><ele>31.0</ele><time>2026-04-18T15:55:09.695Z</time></trkpt><trkpt lat="43.73266058438479" lon="10.87764485122193"><ele>31.0</ele><time>2026-04-18T15:55:11.695Z</time></trkpt><trkpt lat="43.7327328986025" lon="10.877694891705795"><ele>31.0</ele><time>2026-04-18T15:55:13.695Z</time></trkpt><trkpt lat="43.73280640884406" lon="10.877745759824295"><ele>31.000000000000004</ele><time>2026-04-18T15:55:15.695Z</time></trkpt><trkpt lat="43.73287394288089" lon="10.87779249249062"><ele>31.0</ele><time>2026-04-18T15:55:17.695Z</time></trkpt><trkpt lat="43.732936160216866" lon="10.877836263536537"><ele>31.42857142857143</ele><time>2026-04-18T15:55:19.695Z</time></trkpt><trkpt lat="43.73299799386579" lon="10.877875993143535"><ele>31.85714285714286</ele><time>2026-04-18T15:55:21.695Z</time></trkpt><trkpt lat="43.73305798590515" lon="10.877913497021794"><ele>32.285714285714285</ele><time>2026-04-18T15:55:23.695Z</time></trkpt><trkpt lat="43.73312659738332" lon="10.877954781868196"><ele>32.714285714285715</ele><time>2026-04-18T15:55:25.695Z</time></trkpt><trkpt lat="43.733196987504755" lon="10.877973796955711"><ele>33.14285714285714</ele><time>2026-04-18T15:55:27.695Z</time></trkpt><trkpt lat="43.73326593560925" lon="10.878010817910262"><ele>33.57142857142857</ele><time>2026-04-18T15:55:29.695Z</time></trkpt><trkpt lat="43.733329570066715" lon="10.878053469830839"><ele>34.0</ele><time>2026-04-18T15:55:31.695Z</time></trkpt><trkpt lat="43.7333969976472" lon="10.878099824875553"><ele>34.0</ele><time>2026-04-18T15:55:33.695Z</time></trkpt><trkpt lat="43.73347866311339" lon="10.878116166912228"><ele>34.0</ele><time>2026-04-18T15:55:35.695Z</time></trkpt><trkpt lat="43.73355402140211" lon="10.878152395705214"><ele>34.0</ele><time>2026-04-18T15:55:37.695Z</time></trkpt><trkpt lat="43.73362131817701" lon="10.878199871168581"><ele>34.0</ele><time>2026-04-18T15:55:39.695Z</time></trkpt><trkpt lat="43.73369689502862" lon="10.878227951213178"><ele>34.0</ele><time>2026-04-18T15:55:41.695Z</time></trkpt><trkpt lat="43.73376643887854" lon="10.878248703950153"><ele>34.0</ele><time>2026-04-18T15:55:43.695Z</time></trkpt><trkpt lat="43.73384806796837" lon="10.878268111581457"><ele>33.833333333333336</ele><time>2026-04-18T15:55:45.695Z</time></trkpt><trkpt lat="43.733925221263945" lon="10.878282735997196"><ele>33.66666666666667</ele><time>2026-04-18T15:55:47.695Z</time></trkpt><trkpt lat="43.733998531085476" lon="10.878293017163537"><ele>33.5</ele><time>2026-04-18T15:55:49.695Z</time></trkpt><trkpt lat="43.734079800126274" lon="10.878301514938558"><ele>33.333333333333336</ele><time>2026-04-18T15:55:51.695Z</time></trkpt><trkpt lat="43.73415366047551" lon="10.878306323028653"><ele>33.166666666666664</ele><time>2026-04-18T15:55:53.695Z</time></trkpt><trkpt lat="43.73424040804075" lon="10.878304379254155"><ele>33.0</ele><time>2026-04-18T15:55:55.695Z</time></trkpt><trkpt lat="43.73432361998954" lon="10.878299919093465"><ele>32.833333333333336</ele><time>2026-04-18T15:55:57.695Z</time></trkpt><trkpt lat="43.7344051386649" lon="10.87827302964791"><ele>32.666666666666664</ele><time>2026-04-18T15:55:59.695Z</time></trkpt><trkpt lat="43.73448799382346" lon="10.878287720894267"><ele>32.5</ele><time>2026-04-18T15:56:01.695Z</time></trkpt><trkpt lat="43.73456847938643" lon="10.878277269496689"><ele>32.33333333333333</ele><time>2026-04-18T15:56:03.695Z</time></trkpt><trkpt lat="43.73465134257485" lon="10.87826431678361"><ele>32.166666666666664</ele><time>2026-04-18T15:56:05.692Z</time></trkpt><trkpt lat="43.7347311246029" lon="10.878246959995844"><ele>32.0</ele><time>2026-04-18T15:56:07.692Z</time></trkpt><trkpt lat="43.73480200834317" lon="10.878230017328121"><ele>31.999999999999996</ele><time>2026-04-18T15:56:09.692Z</time></trkpt><trkpt lat="43.73488936320788" lon="10.878204496542915"><ele>32.0</ele><time>2026-04-18T15:56:11.692Z</time></trkpt><trkpt lat="43.73496378102742" lon="10.878182499112471"><ele>32.0</ele><time>2026-04-18T15:56:13.692Z</time></trkpt><trkpt lat="43.73503888377786" lon="10.87815724314603"><ele>32.0</ele><time>2026-04-18T15:56:15.692Z</time></trkpt><trkpt lat="43.735111624493136" lon="10.878128908151945"><ele>31.999999999999996</ele><time>2026-04-18T15:56:17.692Z</time></trkpt><trkpt lat="43.735178432811566" lon="10.878094480577433"><ele>32.0</ele><time>2026-04-18T15:56:19.692Z</time></trkpt><trkpt lat="43.73524805547475" lon="10.878057673737384"><ele>31.999999999999996</ele><time>2026-04-18T15:56:21.692Z</time></trkpt><trkpt lat="43.73531844448223" lon="10.878020461947724"><ele>32.0</ele><time>2026-04-18T15:56:23.692Z</time></trkpt><trkpt lat="43.73538061790875" lon="10.877987593397009"><ele>32.0</ele><time>2026-04-18T15:56:25.692Z</time></trkpt><trkpt lat="43.73547188724404" lon="10.87793934303529"><ele>32.0</ele><time>2026-04-18T15:56:28.692Z</time></trkpt><trkpt lat="43.735511214840265" lon="10.877853050036482"><ele>31.999999999999996</ele><time>2026-04-18T15:56:30.692Z</time></trkpt><trkpt lat="43.73559012333096" lon="10.877806906727795"><ele>32.0</ele><time>2026-04-18T15:56:33.692Z</time></trkpt><trkpt lat="43.73566583002015" lon="10.877745276789781"><ele>31.999999999999996</ele><time>2026-04-18T15:56:36.692Z</time></trkpt><trkpt lat="43.7357321804348" lon="10.87768821595971"><ele>32.0</ele><time>2026-04-18T15:56:39.692Z</time></trkpt><trkpt lat="43.735801442315385" lon="10.877631606778126"><ele>32.0</ele><time>2026-04-18T15:56:42.692Z</time></trkpt><trkpt lat="43.73586405439631" lon="10.877577007967538"><ele>32.0</ele><time>2026-04-18T15:56:45.692Z</time></trkpt><trkpt lat="43.735919641385365" lon="10.877519793001676"><ele>31.999999999999996</ele><time>2026-04-18T15:56:48.692Z</time></trkpt><trkpt lat="43.7359771619146" lon="10.87746209369761"><ele>32.0</ele><time>2026-04-18T15:56:51.692Z</time></trkpt><trkpt lat="43.736046940696745" lon="10.877391764843939"><ele>32.42857142857143</ele><time>2026-04-18T15:56:55.692Z</time></trkpt><trkpt lat="43.73609942554168" lon="10.877332204838234"><ele>32.857142857142854</ele><time>2026-04-18T15:56:58.692Z</time></trkpt><trkpt lat="43.73615035902514" lon="10.877267525683406"><ele>33.285714285714285</ele><time>2026-04-18T15:57:01.692Z</time></trkpt><trkpt lat="43.7362033601221" lon="10.877210376512672"><ele>33.714285714285715</ele><time>2026-04-18T15:57:04.692Z</time></trkpt><trkpt lat="43.736252991822454" lon="10.8771509275863"><ele>34.14285714285714</ele><time>2026-04-18T15:57:07.692Z</time></trkpt><trkpt lat="43.736309312512674" lon="10.87709244271245"><ele>34.57142857142857</ele><time>2026-04-18T15:57:10.692Z</time></trkpt><trkpt lat="43.736368801026686" lon="10.877043165931292"><ele>35.0</ele><time>2026-04-18T15:57:13.692Z</time></trkpt><trkpt lat="43.73642808501684" lon="10.876986890338902"><ele>35.0</ele><time>2026-04-18T15:57:16.692Z</time></trkpt><trkpt lat="43.736487544615116" lon="10.876928549422052"><ele>35.0</ele><time>2026-04-18T15:57:19.692Z</time></trkpt><trkpt lat="43.73654291760763" lon="10.876880518054246"><ele>35.0</ele><time>2026-04-18T15:57:22.692Z</time></trkpt><trkpt lat="43.73659959173728" lon="10.876819679859906"><ele>35.0</ele><time>2026-04-18T15:57:25.692Z</time></trkpt><trkpt lat="43.736655854131996" lon="10.876772514416071"><ele>35.0</ele><time>2026-04-18T15:57:28.692Z</time></trkpt><trkpt lat="43.736709756359055" lon="10.876726340778006"><ele>35.0</ele><time>2026-04-18T15:57:31.692Z</time></trkpt><trkpt lat="43.73676629375702" lon="10.87668105697353"><ele>35.0</ele><time>2026-04-18T15:57:34.692Z</time></trkpt><trkpt lat="43.736841855758954" lon="10.876636921634914"><ele>36.42857142857143</ele><time>2026-04-18T15:57:38.692Z</time></trkpt><trkpt lat="43.73690650941616" lon="10.87660729036942"><ele>37.85714285714286</ele><time>2026-04-18T15:57:41.692Z</time></trkpt><trkpt lat="43.73697054198527" lon="10.876566730824734"><ele>39.285714285714285</ele><time>2026-04-18T15:57:44.692Z</time></trkpt><trkpt lat="43.73703586610042" lon="10.876536403555242"><ele>40.714285714285715</ele><time>2026-04-18T15:57:47.692Z</time></trkpt><trkpt lat="43.7371032281501" lon="10.876508493634807"><ele>42.142857142857146</ele><time>2026-04-18T15:57:50.692Z</time></trkpt><trkpt lat="43.73717395294991" lon="10.87648759481851"><ele>43.57142857142857</ele><time>2026-04-18T15:57:53.692Z</time></trkpt><trkpt lat="43.73724271484013" lon="10.876458895944774"><ele>45.0</ele><time>2026-04-18T15:57:56.692Z</time></trkpt><trkpt lat="43.73731038265697" lon="10.876429428015584"><ele>45.0</ele><time>2026-04-18T15:57:59.692Z</time></trkpt><trkpt lat="43.73738584090403" lon="10.87639913194674"><ele>45.0</ele><time>2026-04-18T15:58:02.692Z</time></trkpt><trkpt lat="43.73745389219898" lon="10.876366110095205"><ele>45.0</ele><time>2026-04-18T15:58:05.692Z</time></trkpt><trkpt lat="43.73753970104868" lon="10.876347060815169"><ele>45.0</ele><time>2026-04-18T15:58:09.692Z</time></trkpt><trkpt lat="43.737626513173744" lon="10.876327865822406"><ele>45.0</ele><time>2026-04-18T15:58:12.69Z</time></trkpt><trkpt lat="43.737699728629295" lon="10.876308336404561"><ele>45.0</ele><time>2026-04-18T15:58:15.69Z</time></trkpt><trkpt lat="43.737778339771275" lon="10.87629297361947"><ele>45.0</ele><time>2026-04-18T15:58:18.689Z</time></trkpt><trkpt lat="43.73784976287561" lon="10.876286552892665"><ele>45.0</ele><time>2026-04-18T15:58:21.689Z</time></trkpt><trkpt lat="43.737934577870206" lon="10.876280864385805"><ele>45.0</ele><time>2026-04-18T15:58:24.689Z</time></trkpt><trkpt lat="43.73801132105818" lon="10.876269099837414"><ele>45.0</ele><time>2026-04-18T15:58:27.689Z</time></trkpt><trkpt lat="43.73807920930704" lon="10.876262979158177"><ele>45.0</ele><time>2026-04-18T15:58:30.689Z</time></trkpt><trkpt lat="43.7381486870699" lon="10.876255841758017"><ele>45.0</ele><time>2026-04-18T15:58:33.689Z</time></trkpt><trkpt lat="43.73821967711725" lon="10.876265655190988"><ele>45.0</ele><time>2026-04-18T15:58:36.689Z</time></trkpt><trkpt lat="43.73829984681085" lon="10.876238618329735"><ele>45.0</ele><time>2026-04-18T15:58:39.689Z</time></trkpt><trkpt lat="43.738372403859536" lon="10.876235552230687"><ele>45.0</ele><time>2026-04-18T15:58:42.689Z</time></trkpt><trkpt lat="43.73844043075062" lon="10.876240379719754"><ele>45.0</ele><time>2026-04-18T15:58:45.689Z</time></trkpt><trkpt lat="43.73851473019746" lon="10.876222335443835"><ele>45.0</ele><time>2026-04-18T15:58:48.689Z</time></trkpt><trkpt lat="43.73858655910239" lon="10.876218680121797"><ele>45.0</ele><time>2026-04-18T15:58:51.689Z</time></trkpt><trkpt lat="43.73866098204271" lon="10.87620988922611"><ele>45.0</ele><time>2026-04-18T15:58:54.689Z</time></trkpt><trkpt lat="43.73873267664343" lon="10.87619561304637"><ele>45.0</ele><time>2026-04-18T15:58:57.689Z</time></trkpt><trkpt lat="43.73879702143558" lon="10.876195297076206"><ele>45.714285714285715</ele><time>2026-04-18T15:59:00.689Z</time></trkpt><trkpt lat="43.738865100947145" lon="10.876198354901272"><ele>46.42857142857143</ele><time>2026-04-18T15:59:03.689Z</time></trkpt><trkpt lat="43.738930093117155" lon="10.876177199147868"><ele>47.142857142857146</ele><time>2026-04-18T15:59:06.689Z</time></trkpt><trkpt lat="43.739001237072124" lon="10.876164191627096"><ele>47.85714285714286</ele><time>2026-04-18T15:59:09.689Z</time></trkpt><trkpt lat="43.73906803238406" lon="10.87615959937135"><ele>48.57142857142857</ele><time>2026-04-18T15:59:12.689Z</time></trkpt><trkpt lat="43.73913169323344" lon="10.876150741632717"><ele>49.28571428571429</ele><time>2026-04-18T15:59:15.689Z</time></trkpt><trkpt lat="43.739194859890404" lon="10.876144096965433"><ele>50.0</ele><time>2026-04-18T15:59:18.689Z</time></trkpt><trkpt lat="43.73926136952267" lon="10.87613656754487"><ele>50.00000000000001</ele><time>2026-04-18T15:59:21.689Z</time></trkpt><trkpt lat="43.7393333459283" lon="10.876132021688361"><ele>50.0</ele><time>2026-04-18T15:59:24.689Z</time></trkpt><trkpt lat="43.73940630468737" lon="10.87612545290567"><ele>50.0</ele><time>2026-04-18T15:59:27.689Z</time></trkpt><trkpt lat="43.73948112633548" lon="10.876116998913371"><ele>50.0</ele><time>2026-04-18T15:59:30.689Z</time></trkpt><trkpt lat="43.739554749923904" lon="10.87610901476804"><ele>50.0</ele><time>2026-04-18T15:59:33.689Z</time></trkpt><trkpt lat="43.7396306970361" lon="10.876094326061995"><ele>50.00000000000001</ele><time>2026-04-18T15:59:36.689Z</time></trkpt><trkpt lat="43.73970379828421" lon="10.876081728446229"><ele>50.0</ele><time>2026-04-18T15:59:39.689Z</time></trkpt><trkpt lat="43.73978129389452" lon="10.876073882875257"><ele>49.85714285714286</ele><time>2026-04-18T15:59:42.689Z</time></trkpt><trkpt lat="43.73985057167254" lon="10.876092860101814"><ele>49.714285714285715</ele><time>2026-04-18T15:59:45.689Z</time></trkpt><trkpt lat="43.73992525045408" lon="10.876084586244474"><ele>49.57142857142857</ele><time>2026-04-18T15:59:48.689Z</time></trkpt><trkpt lat="43.73999786459729" lon="10.876075321261023"><ele>49.42857142857143</ele><time>2026-04-18T15:59:51.689Z</time></trkpt><trkpt lat="43.740069752132925" lon="10.876072281149295"><ele>49.285714285714285</ele><time>2026-04-18T15:59:54.689Z</time></trkpt><trkpt lat="43.74013594990066" lon="10.87606673239077"><ele>49.142857142857146</ele><time>2026-04-18T15:59:57.689Z</time></trkpt><trkpt lat="43.740217180115565" lon="10.876054237151939"><ele>49.0</ele><time>2026-04-18T16:00:00.689Z</time></trkpt><trkpt lat="43.74028670733916" lon="10.876045216947833"><ele>49.857142857142854</ele><time>2026-04-18T16:00:03.689Z</time></trkpt><trkpt lat="43.740361855561396" lon="10.876010629506133"><ele>50.714285714285715</ele><time>2026-04-18T16:00:06.689Z</time></trkpt><trkpt lat="43.7404382741172" lon="10.875996907415999"><ele>51.57142857142857</ele><time>2026-04-18T16:00:09.689Z</time></trkpt><trkpt lat="43.740508339274704" lon="10.875982014154335"><ele>52.42857142857143</ele><time>2026-04-18T16:00:12.689Z</time></trkpt><trkpt lat="43.74058551542304" lon="10.875972866740591"><ele>53.285714285714285</ele><time>2026-04-18T16:00:15.689Z</time></trkpt><trkpt lat="43.74065904707155" lon="10.87596804179538"><ele>54.14285714285714</ele><time>2026-04-18T16:00:18.687Z</time></trkpt><trkpt lat="43.74072935343173" lon="10.87595243045927"><ele>55.0</ele><time>2026-04-18T16:00:21.687Z</time></trkpt><trkpt lat="43.74080555772977" lon="10.875951637196893"><ele>54.99999999999999</ele><time>2026-04-18T16:00:24.687Z</time></trkpt><trkpt lat="43.74087105636477" lon="10.875948535885998"><ele>55.0</ele><time>2026-04-18T16:00:27.687Z</time></trkpt><trkpt lat="43.74094545293291" lon="10.875935527473398"><ele>55.0</ele><time>2026-04-18T16:00:30.687Z</time></trkpt><trkpt lat="43.74101239693002" lon="10.875933936415764"><ele>55.0</ele><time>2026-04-18T16:00:33.687Z</time></trkpt><trkpt lat="43.74108947561659" lon="10.875931587869447"><ele>55.0</ele><time>2026-04-18T16:00:36.687Z</time></trkpt><trkpt lat="43.7411593369409" lon="10.87593326581672"><ele>54.99999999999999</ele><time>2026-04-18T16:00:39.687Z</time></trkpt><trkpt lat="43.74122388473109" lon="10.875925614539865"><ele>55.0</ele><time>2026-04-18T16:00:42.687Z</time></trkpt><trkpt lat="43.74131045615524" lon="10.875924091448786"><ele>57.42857142857142</ele><time>2026-04-18T16:00:46.687Z</time></trkpt><trkpt lat="43.74138090575699" lon="10.87591811451578"><ele>59.85714285714286</ele><time>2026-04-18T16:00:50.687Z</time></trkpt><trkpt lat="43.74145433687354" lon="10.875925022671629"><ele>62.28571428571429</ele><time>2026-04-18T16:00:54.687Z</time></trkpt><trkpt lat="43.74151732877404" lon="10.875919995842006"><ele>64.71428571428572</ele><time>2026-04-18T16:00:57.687Z</time></trkpt><trkpt lat="43.741602244598326" lon="10.87592865138354"><ele>67.14285714285714</ele><time>2026-04-18T16:01:01.687Z</time></trkpt><trkpt lat="43.741667830360676" lon="10.875920048863458"><ele>69.57142857142858</ele><time>2026-04-18T16:01:04.687Z</time></trkpt><trkpt lat="43.74174961919552" lon="10.875925640698474"><ele>72.0</ele><time>2026-04-18T16:01:08.687Z</time></trkpt><trkpt lat="43.741832569436966" lon="10.875921394655405"><ele>71.57142857142858</ele><time>2026-04-18T16:01:12.687Z</time></trkpt><trkpt lat="43.741902544717185" lon="10.875926639550682"><ele>71.14285714285714</ele><time>2026-04-18T16:01:15.687Z</time></trkpt><trkpt lat="43.74196778843312" lon="10.875938617444387"><ele>70.71428571428572</ele><time>2026-04-18T16:01:18.687Z</time></trkpt><trkpt lat="43.742046486293695" lon="10.875948705129023"><ele>70.28571428571429</ele><time>2026-04-18T16:01:22.687Z</time></trkpt><trkpt lat="43.74212841271436" lon="10.875959535726468"><ele>69.85714285714286</ele><time>2026-04-18T16:01:26.687Z</time></trkpt><trkpt lat="43.74220707431908" lon="10.875958516272394"><ele>69.42857142857143</ele><time>2026-04-18T16:01:30.687Z</time></trkpt><trkpt lat="43.74227505558751" lon="10.875970569054264"><ele>69.0</ele><time>2026-04-18T16:01:33.687Z</time></trkpt><trkpt lat="43.742348428759485" lon="10.875990436859292"><ele>69.0</ele><time>2026-04-18T16:01:37.687Z</time></trkpt><trkpt lat="43.74241880399067" lon="10.876014922773441"><ele>69.0</ele><time>2026-04-18T16:01:41.687Z</time></trkpt><trkpt lat="43.74248507425081" lon="10.87603161211806"><ele>69.0</ele><time>2026-04-18T16:01:44.687Z</time></trkpt><trkpt lat="43.7425598951261" lon="10.876056119832638"><ele>69.0</ele><time>2026-04-18T16:01:48.687Z</time></trkpt><trkpt lat="43.74263086667179" lon="10.876077619551802"><ele>69.0</ele><time>2026-04-18T16:01:52.687Z</time></trkpt><trkpt lat="43.742711516226606" lon="10.876101077858692"><ele>69.0</ele><time>2026-04-18T16:01:56.687Z</time></trkpt><trkpt lat="43.74278471519426" lon="10.876131418866603"><ele>69.0</ele><time>2026-04-18T16:02:00.687Z</time></trkpt><trkpt lat="43.74284501497143" lon="10.876161431808491"><ele>70.16666666666667</ele><time>2026-04-18T16:02:04.687Z</time></trkpt><trkpt lat="43.74291868541948" lon="10.876189621059108"><ele>71.33333333333333</ele><time>2026-04-18T16:03:57.684Z</time></trkpt><trkpt lat="43.74298795072093" lon="10.876209295351266"><ele>72.5</ele><time>2026-04-18T16:04:00.684Z</time></trkpt><trkpt lat="43.74306466650391" lon="10.876233003405263"><ele>73.66666666666666</ele><time>2026-04-18T16:04:03.684Z</time></trkpt><trkpt lat="43.74313711053718" lon="10.876259849357819"><ele>74.83333333333333</ele><time>2026-04-18T16:04:06.684Z</time></trkpt><trkpt lat="43.74321192722166" lon="10.876299795544943"><ele>76.0</ele><time>2026-04-18T16:04:09.684Z</time></trkpt><trkpt lat="43.743286650406425" lon="10.876340378840741"><ele>76.0</ele><time>2026-04-18T16:04:12.684Z</time></trkpt><trkpt lat="43.743368492277746" lon="10.876386260128768"><ele>76.0</ele><time>2026-04-18T16:04:15.684Z</time></trkpt><trkpt lat="43.74345387792602" lon="10.876393591945094"><ele>76.0</ele><time>2026-04-18T16:04:18.684Z</time></trkpt><trkpt lat="43.743532314350034" lon="10.876424227838816"><ele>76.0</ele><time>2026-04-18T16:04:21.684Z</time></trkpt><trkpt lat="43.743607838853855" lon="10.876465733970843"><ele>76.0</ele><time>2026-04-18T16:04:24.684Z</time></trkpt><trkpt lat="43.743675252591046" lon="10.876527655364676"><ele>76.0</ele><time>2026-04-18T16:04:27.684Z</time></trkpt><trkpt lat="43.743746993389315" lon="10.87657141184526"><ele>76.0</ele><time>2026-04-18T16:04:30.682Z</time></trkpt><trkpt lat="43.74382344156722" lon="10.876598648625935"><ele>76.0</ele><time>2026-04-18T16:04:33.682Z</time></trkpt><trkpt lat="43.74388433827554" lon="10.87662416318435"><ele>76.0</ele><time>2026-04-18T16:04:36.682Z</time></trkpt><trkpt lat="43.74396040660309" lon="10.876673348861045"><ele>76.0</ele><time>2026-04-18T16:04:40.682Z</time></trkpt><trkpt lat="43.74403815939321" lon="10.876711736626968"><ele>76.0</ele><time>2026-04-18T16:04:44.681Z</time></trkpt><trkpt lat="43.744106697485954" lon="10.876757970821844"><ele>76.0</ele><time>2026-04-18T16:04:48.681Z</time></trkpt><trkpt lat="43.74418059024407" lon="10.876789385024292"><ele>77.6</ele><time>2026-04-18T16:04:52.681Z</time></trkpt><trkpt lat="43.744327984185645" lon="10.876584778828164"><ele>79.19999999999999</ele><time>2026-04-18T16:04:54.681Z</time></trkpt><trkpt lat="43.744391019042304" lon="10.876646736557662"><ele>80.80000000000001</ele><time>2026-04-18T16:04:58.681Z</time></trkpt><trkpt lat="43.74444795516846" lon="10.876704140000212"><ele>82.4</ele><time>2026-04-18T16:05:02.681Z</time></trkpt><trkpt lat="43.74451625056054" lon="10.876772995910226"><ele>84.0</ele><time>2026-04-18T16:05:06.681Z</time></trkpt><trkpt lat="43.74457212864653" lon="10.876829332584085"><ele>84.42857142857143</ele><time>2026-04-18T16:05:10.681Z</time></trkpt><trkpt lat="43.744628822682664" lon="10.876884863271194"><ele>84.85714285714286</ele><time>2026-04-18T16:05:14.681Z</time></trkpt><trkpt lat="43.74469083809981" lon="10.8769438437095"><ele>85.28571428571428</ele><time>2026-04-18T16:05:18.681Z</time></trkpt><trkpt lat="43.74475481107153" lon="10.877004686124149"><ele>85.71428571428572</ele><time>2026-04-18T16:05:22.681Z</time></trkpt><trkpt lat="43.74481877206222" lon="10.877065516937817"><ele>86.14285714285714</ele><time>2026-04-18T16:05:26.681Z</time></trkpt><trkpt lat="43.74489222331554" lon="10.877101373879624"><ele>86.57142857142857</ele><time>2026-04-18T16:05:30.681Z</time></trkpt><trkpt lat="43.74494939483741" lon="10.877138853860371"><ele>87.0</ele><time>2026-04-18T16:05:33.681Z</time></trkpt><trkpt lat="43.74500170153601" lon="10.877192876345267"><ele>87.0</ele><time>2026-04-18T16:05:36.681Z</time></trkpt><trkpt lat="43.74506393030188" lon="10.877225186302443"><ele>87.0</ele><time>2026-04-18T16:05:39.681Z</time></trkpt><trkpt lat="43.74512838233356" lon="10.877250670823361"><ele>87.0</ele><time>2026-04-18T16:05:42.681Z</time></trkpt><trkpt lat="43.7452119860601" lon="10.87727533687637"><ele>87.0</ele><time>2026-04-18T16:05:46.681Z</time></trkpt><trkpt lat="43.74527719305813" lon="10.877292746870014"><ele>87.0</ele><time>2026-04-18T16:05:49.681Z</time></trkpt><trkpt lat="43.7453397335849" lon="10.877311964142475"><ele>87.0</ele><time>2026-04-18T16:05:52.681Z</time></trkpt><trkpt lat="43.74540336456235" lon="10.8773360455816"><ele>87.0</ele><time>2026-04-18T16:05:55.681Z</time></trkpt><trkpt lat="43.74546549816962" lon="10.877359560321757"><ele>87.57142857142857</ele><time>2026-04-18T16:05:58.681Z</time></trkpt><trkpt lat="43.745530358135646" lon="10.877385104643455"><ele>88.14285714285714</ele><time>2026-04-18T16:06:01.681Z</time></trkpt><trkpt lat="43.745595484416675" lon="10.877413170491204"><ele>88.71428571428572</ele><time>2026-04-18T16:06:04.681Z</time></trkpt><trkpt lat="43.74566014837242" lon="10.877442642326928"><ele>89.28571428571428</ele><time>2026-04-18T16:06:07.681Z</time></trkpt><trkpt lat="43.745724471291865" lon="10.877471958732196"><ele>89.85714285714286</ele><time>2026-04-18T16:06:10.681Z</time></trkpt><trkpt lat="43.745791617550346" lon="10.877501080068408"><ele>90.42857142857143</ele><time>2026-04-18T16:06:13.681Z</time></trkpt><trkpt lat="43.745856296547444" lon="10.87752868277743"><ele>91.0</ele><time>2026-04-18T16:06:16.681Z</time></trkpt><trkpt lat="43.74591824061006" lon="10.87755511830693"><ele>91.0</ele><time>2026-04-18T16:06:19.681Z</time></trkpt><trkpt lat="43.74598465479553" lon="10.877583488125595"><ele>91.0</ele><time>2026-04-18T16:06:22.681Z</time></trkpt><trkpt lat="43.7460547615131" lon="10.877611900153386"><ele>91.0</ele><time>2026-04-18T16:06:25.681Z</time></trkpt><trkpt lat="43.74614327396624" lon="10.877647771444732"><ele>91.0</ele><time>2026-04-18T16:06:28.681Z</time></trkpt><trkpt lat="43.7462108664746" lon="10.877675164540365"><ele>91.0</ele><time>2026-04-18T16:06:30.681Z</time></trkpt><trkpt lat="43.74628798025752" lon="10.877706416307916"><ele>91.0</ele><time>2026-04-18T16:06:32.681Z</time></trkpt><trkpt lat="43.74637205284569" lon="10.877740488262905"><ele>90.0</ele><time>2026-04-18T16:06:34.679Z</time></trkpt><trkpt lat="43.74645465874581" lon="10.8777749235555"><ele>89.0</ele><time>2026-04-18T16:06:36.679Z</time></trkpt><trkpt lat="43.74653593511545" lon="10.877809279014633"><ele>88.0</ele><time>2026-04-18T16:06:38.679Z</time></trkpt><trkpt lat="43.746613927245434" lon="10.877842246229116"><ele>87.0</ele><time>2026-04-18T16:06:40.679Z</time></trkpt><trkpt lat="43.746686831428605" lon="10.877873062770934"><ele>86.0</ele><time>2026-04-18T16:06:42.679Z</time></trkpt><trkpt lat="43.74675255863232" lon="10.877900845611645"><ele>85.0</ele><time>2026-04-18T16:06:44.679Z</time></trkpt><trkpt lat="43.746818564356964" lon="10.877928746179201"><ele>85.66666666666666</ele><time>2026-04-18T16:06:46.679Z</time></trkpt><trkpt lat="43.746909635832615" lon="10.877966852181014"><ele>86.33333333333333</ele><time>2026-04-18T16:06:49.679Z</time></trkpt><trkpt lat="43.74697280038138" lon="10.877993210174854"><ele>87.0</ele><time>2026-04-18T16:06:51.679Z</time></trkpt><trkpt lat="43.7470394783225" lon="10.878021537231355"><ele>87.66666666666667</ele><time>2026-04-18T16:06:53.679Z</time></trkpt><trkpt lat="43.74711080901942" lon="10.87805256200761"><ele>88.33333333333334</ele><time>2026-04-18T16:06:55.679Z</time></trkpt><trkpt lat="43.74718783819121" lon="10.878086065296952"><ele>89.0</ele><time>2026-04-18T16:06:57.679Z</time></trkpt><trkpt lat="43.747267353680826" lon="10.878120649984725"><ele>89.0</ele><time>2026-04-18T16:06:59.679Z</time></trkpt><trkpt lat="43.747344256957135" lon="10.878152897023712"><ele>89.0</ele><time>2026-04-18T16:07:01.679Z</time></trkpt><trkpt lat="43.74742555846581" lon="10.878185853550248"><ele>89.0</ele><time>2026-04-18T16:07:03.679Z</time></trkpt><trkpt lat="43.747506515445764" lon="10.878218670413819"><ele>89.0</ele><time>2026-04-18T16:07:05.679Z</time></trkpt><trkpt lat="43.747588563741154" lon="10.878251929668332"><ele>89.0</ele><time>2026-04-18T16:07:07.679Z</time></trkpt><trkpt lat="43.74767198364613" lon="10.878285744911468"><ele>89.0</ele><time>2026-04-18T16:07:09.679Z</time></trkpt><trkpt lat="43.74775031160118" lon="10.878317496070705"><ele>89.5</ele><time>2026-04-18T16:07:11.679Z</time></trkpt><trkpt lat="43.747832206898764" lon="10.878350598181783"><ele>90.0</ele><time>2026-04-18T16:07:13.679Z</time></trkpt><trkpt lat="43.74791168493059" lon="10.878382669283557"><ele>90.5</ele><time>2026-04-18T16:07:15.679Z</time></trkpt><trkpt lat="43.7479918258154" lon="10.878415007865899"><ele>91.0</ele><time>2026-04-18T16:07:17.679Z</time></trkpt><trkpt lat="43.74806996210502" lon="10.878426526910111"><ele>91.5</ele><time>2026-04-18T16:07:19.679Z</time></trkpt><trkpt lat="43.74814363548563" lon="10.878455975272747"><ele>92.0</ele><time>2026-04-18T16:07:21.679Z</time></trkpt><trkpt lat="43.74821684626382" lon="10.878486341945962"><ele>92.0</ele><time>2026-04-18T16:07:23.679Z</time></trkpt><trkpt lat="43.74829265979309" lon="10.878519075261476"><ele>92.0</ele><time>2026-04-18T16:07:25.679Z</time></trkpt><trkpt lat="43.748373252228994" lon="10.878551337477488"><ele>92.0</ele><time>2026-04-18T16:07:27.679Z</time></trkpt><trkpt lat="43.748458506875096" lon="10.878581854362155"><ele>92.0</ele><time>2026-04-18T16:07:29.679Z</time></trkpt><trkpt lat="43.74853678145675" lon="10.878614085130302"><ele>92.0</ele><time>2026-04-18T16:07:31.679Z</time></trkpt><trkpt lat="43.748613655691706" lon="10.878644682119381"><ele>92.0</ele><time>2026-04-18T16:07:33.679Z</time></trkpt><trkpt lat="43.748689576370786" lon="10.878677465284676"><ele>93.16666666666667</ele><time>2026-04-18T16:07:35.679Z</time></trkpt><trkpt lat="43.74876515270288" lon="10.878712728516016"><ele>94.33333333333334</ele><time>2026-04-18T16:07:37.679Z</time></trkpt><trkpt lat="43.74884587971606" lon="10.87873894922884"><ele>95.5</ele><time>2026-04-18T16:07:39.679Z</time></trkpt><trkpt lat="43.748924037035586" lon="10.878777385398832"><ele>96.66666666666667</ele><time>2026-04-18T16:07:41.679Z</time></trkpt><trkpt lat="43.74899715228039" lon="10.878816052830606"><ele>97.83333333333333</ele><time>2026-04-18T16:07:43.679Z</time></trkpt><trkpt lat="43.7490669719919" lon="10.878843900024824"><ele>99.0</ele><time>2026-04-18T16:07:45.679Z</time></trkpt><trkpt lat="43.749124601576945" lon="10.878904653189949"><ele>99.0</ele><time>2026-04-18T16:07:47.679Z</time></trkpt><trkpt lat="43.74917930538378" lon="10.878955968646471"><ele>99.0</ele><time>2026-04-18T16:07:49.679Z</time></trkpt><trkpt lat="43.74923009986031" lon="10.879013157929476"><ele>99.0</ele><time>2026-04-18T16:07:51.679Z</time></trkpt><trkpt lat="43.74926374450486" lon="10.879099305364312"><ele>99.0</ele><time>2026-04-18T16:07:53.679Z</time></trkpt><trkpt lat="43.74932294199076" lon="10.879178945602463"><ele>99.0</ele><time>2026-04-18T16:07:55.679Z</time></trkpt><trkpt lat="43.74937408671625" lon="10.879268179761986"><ele>99.0</ele><time>2026-04-18T16:07:57.679Z</time></trkpt><trkpt lat="43.74941790161819" lon="10.879362681769884"><ele>99.0</ele><time>2026-04-18T16:07:59.679Z</time></trkpt><trkpt lat="43.749452978767906" lon="10.87945832870181"><ele>99.16666666666667</ele><time>2026-04-18T16:08:01.679Z</time></trkpt><trkpt lat="43.74948641378445" lon="10.879557124677078"><ele>99.33333333333334</ele><time>2026-04-18T16:08:03.679Z</time></trkpt><trkpt lat="43.74951727468554" lon="10.879659085378876"><ele>99.5</ele><time>2026-04-18T16:08:05.679Z</time></trkpt><trkpt lat="43.74954798007328" lon="10.879760760711498"><ele>99.66666666666667</ele><time>2026-04-18T16:08:07.679Z</time></trkpt><trkpt lat="43.74957966163107" lon="10.8798620911895"><ele>99.83333333333334</ele><time>2026-04-18T16:08:09.679Z</time></trkpt><trkpt lat="43.74959877727008" lon="10.87997617473272"><ele>100.0</ele><time>2026-04-18T16:08:11.679Z</time></trkpt><trkpt lat="43.749629354492406" lon="10.880078726086568"><ele>100.28571428571429</ele><time>2026-04-18T16:08:13.679Z</time></trkpt><trkpt lat="43.74967212052017" lon="10.880171540306794"><ele>100.57142857142857</ele><time>2026-04-18T16:08:15.679Z</time></trkpt><trkpt lat="43.74968641715562" lon="10.880269729875481"><ele>100.85714285714286</ele><time>2026-04-18T16:08:17.679Z</time></trkpt><trkpt lat="43.74971278024473" lon="10.880355435656556"><ele>101.14285714285714</ele><time>2026-04-18T16:08:19.679Z</time></trkpt><trkpt lat="43.7497404535143" lon="10.88044540083827"><ele>101.42857142857143</ele><time>2026-04-18T16:08:21.679Z</time></trkpt><trkpt lat="43.74976981263672" lon="10.880540846677098"><ele>101.71428571428572</ele><time>2026-04-18T16:08:23.679Z</time></trkpt><trkpt lat="43.74979886553374" lon="10.880635297000723"><ele>102.0</ele><time>2026-04-18T16:08:25.679Z</time></trkpt><trkpt lat="43.74982445429688" lon="10.88073051267832"><ele>102.0</ele><time>2026-04-18T16:08:27.679Z</time></trkpt><trkpt lat="43.749847874157574" lon="10.88082374227191"><ele>102.0</ele><time>2026-04-18T16:08:29.679Z</time></trkpt><trkpt lat="43.74986816295389" lon="10.880911546293301"><ele>102.0</ele><time>2026-04-18T16:08:31.679Z</time></trkpt><trkpt lat="43.749902102028436" lon="10.88099418288504"><ele>102.0</ele><time>2026-04-18T16:08:33.679Z</time></trkpt><trkpt lat="43.7499049047963" lon="10.881094038128598"><ele>102.0</ele><time>2026-04-18T16:08:35.679Z</time></trkpt><trkpt lat="43.74993159884118" lon="10.8811775424469"><ele>102.0</ele><time>2026-04-18T16:08:37.679Z</time></trkpt><trkpt lat="43.74996169545259" lon="10.88125806713021"><ele>102.0</ele><time>2026-04-18T16:08:39.679Z</time></trkpt><trkpt lat="43.749990441268444" lon="10.881335888906099"><ele>101.66666666666667</ele><time>2026-04-18T16:08:41.676Z</time></trkpt><trkpt lat="43.750024213757264" lon="10.881415799817047"><ele>101.33333333333334</ele><time>2026-04-18T16:08:43.676Z</time></trkpt><trkpt lat="43.75006250133242" lon="10.88149245141482"><ele>101.0</ele><time>2026-04-18T16:08:45.676Z</time></trkpt><trkpt lat="43.750103478493614" lon="10.88156252919887"><ele>100.66666666666667</ele><time>2026-04-18T16:08:47.676Z</time></trkpt><trkpt lat="43.75016572031952" lon="10.881663879596331"><ele>100.33333333333334</ele><time>2026-04-18T16:08:50.676Z</time></trkpt><trkpt lat="43.75022963549993" lon="10.881755038101215"><ele>100.0</ele><time>2026-04-18T16:08:53.676Z</time></trkpt><trkpt lat="43.7503036857111" lon="10.881824634439498"><ele>101.00000000000001</ele><time>2026-04-18T16:08:56.676Z</time></trkpt><trkpt lat="43.750343452884465" lon="10.881918525201932"><ele>102.0</ele><time>2026-04-18T16:08:59.676Z</time></trkpt><trkpt lat="43.750400384612824" lon="10.88198954043348"><ele>103.0</ele><time>2026-04-18T16:09:02.676Z</time></trkpt><trkpt lat="43.750427804860045" lon="10.882081948071827"><ele>104.0</ele><time>2026-04-18T16:09:05.676Z</time></trkpt><trkpt lat="43.750466262121236" lon="10.882159910550628"><ele>105.0</ele><time>2026-04-18T16:09:08.676Z</time></trkpt><trkpt lat="43.75050238727526" lon="10.882233086069931"><ele>106.00000000000001</ele><time>2026-04-18T16:09:11.676Z</time></trkpt><trkpt lat="43.75055537494324" lon="10.882299162324136"><ele>107.0</ele><time>2026-04-18T16:09:14.676Z</time></trkpt><trkpt lat="43.75058965768178" lon="10.882375266023477"><ele>107.00000000000001</ele><time>2026-04-18T16:09:17.676Z</time></trkpt><trkpt lat="43.75061471967055" lon="10.882463219742352"><ele>107.0</ele><time>2026-04-18T16:09:21.676Z</time></trkpt><trkpt lat="43.750660216116756" lon="10.882530017915679"><ele>107.0</ele><time>2026-04-18T16:09:25.676Z</time></trkpt><trkpt lat="43.750679837212424" lon="10.882624867135632"><ele>107.0</ele><time>2026-04-18T16:09:29.676Z</time></trkpt><trkpt lat="43.750734509061935" lon="10.88269713146143"><ele>107.0</ele><time>2026-04-18T16:09:33.676Z</time></trkpt><trkpt lat="43.75080148886381" lon="10.882690923911717"><ele>107.00000000000001</ele><time>2026-04-18T16:09:37.676Z</time></trkpt><trkpt lat="43.750750187890844" lon="10.882614866249492"><ele>107.0</ele><time>2026-04-18T16:09:40.676Z</time></trkpt><trkpt lat="43.75068243424769" lon="10.882673883623095"><ele>106.39999999999999</ele><time>2026-04-18T16:09:45.676Z</time></trkpt><trkpt lat="43.750748309632485" lon="10.882735319059881"><ele>105.79999999999998</ele><time>2026-04-18T16:09:49.676Z</time></trkpt><trkpt lat="43.750836509420694" lon="10.882718704512437"><ele>105.2</ele><time>2026-04-18T16:09:52.676Z</time></trkpt><trkpt lat="43.75091186709987" lon="10.882693246652993"><ele>104.6</ele><time>2026-04-18T16:09:54.676Z</time></trkpt><trkpt lat="43.75099653176152" lon="10.882647729267383"><ele>104.0</ele><time>2026-04-18T16:09:56.676Z</time></trkpt><trkpt lat="43.751113817261356" lon="10.882620130235164"><ele>103.99999999999999</ele><time>2026-04-18T16:09:58.676Z</time></trkpt><trkpt lat="43.75118392755363" lon="10.882601191741518"><ele>104.0</ele><time>2026-04-18T16:09:59.676Z</time></trkpt><trkpt lat="43.75126016028816" lon="10.882577381600209"><ele>104.0</ele><time>2026-04-18T16:10:00.676Z</time></trkpt><trkpt lat="43.75134289986253" lon="10.882549510934101"><ele>104.0</ele><time>2026-04-18T16:10:01.676Z</time></trkpt><trkpt lat="43.75143293472087" lon="10.882515332648328"><ele>103.99999999999999</ele><time>2026-04-18T16:10:02.676Z</time></trkpt><trkpt lat="43.75153000981043" lon="10.88248972341905"><ele>104.0</ele><time>2026-04-18T16:10:03.676Z</time></trkpt><trkpt lat="43.7516345083907" lon="10.882460616974898"><ele>103.25</ele><time>2026-04-18T16:10:04.676Z</time></trkpt><trkpt lat="43.751746318494654" lon="10.882430783560824"><ele>102.5</ele><time>2026-04-18T16:10:05.676Z</time></trkpt><trkpt lat="43.751862370545176" lon="10.882396345355005"><ele>101.75</ele><time>2026-04-18T16:10:06.676Z</time></trkpt><trkpt lat="43.75198391141394" lon="10.88235610246895"><ele>101.0</ele><time>2026-04-18T16:10:07.676Z</time></trkpt><trkpt lat="43.75209795940611" lon="10.882317432942767"><ele>99.0</ele><time>2026-04-18T16:10:08.676Z</time></trkpt><trkpt lat="43.75219787412446" lon="10.882288420198693"><ele>97.0</ele><time>2026-04-18T16:10:09.676Z</time></trkpt><trkpt lat="43.75228997191476" lon="10.882279092070991"><ele>95.0</ele><time>2026-04-18T16:10:10.676Z</time></trkpt><trkpt lat="43.75237645858774" lon="10.882291070158482"><ele>93.0</ele><time>2026-04-18T16:10:11.676Z</time></trkpt><trkpt lat="43.752451462914976" lon="10.88234849403338"><ele>91.0</ele><time>2026-04-18T16:10:12.676Z</time></trkpt><trkpt lat="43.752522901871686" lon="10.882433018041382"><ele>91.0</ele><time>2026-04-18T16:10:13.676Z</time></trkpt><trkpt lat="43.752607510538255" lon="10.882493304107049"><ele>91.0</ele><time>2026-04-18T16:10:14.676Z</time></trkpt><trkpt lat="43.75269749642031" lon="10.882516306099127"><ele>91.0</ele><time>2026-04-18T16:10:15.676Z</time></trkpt><trkpt lat="43.752784130460704" lon="10.882472033553764"><ele>91.0</ele><time>2026-04-18T16:10:16.676Z</time></trkpt><trkpt lat="43.7528560422275" lon="10.882376989218795"><ele>91.0</ele><time>2026-04-18T16:10:17.676Z</time></trkpt><trkpt lat="43.752906547806624" lon="10.882271824862507"><ele>89.4</ele><time>2026-04-18T16:10:18.676Z</time></trkpt><trkpt lat="43.75296718943586" lon="10.882177369819123"><ele>87.8</ele><time>2026-04-18T16:10:19.676Z</time></trkpt><trkpt lat="43.7530425770845" lon="10.882107536460968"><ele>86.2</ele><time>2026-04-18T16:10:20.676Z</time></trkpt><trkpt lat="43.75312936695045" lon="10.882070889843382"><ele>84.60000000000001</ele><time>2026-04-18T16:10:21.676Z</time></trkpt><trkpt lat="43.75321997256332" lon="10.88206362836761"><ele>83.0</ele><time>2026-04-18T16:10:22.676Z</time></trkpt><trkpt lat="43.75330919741785" lon="10.88205574026656"><ele>83.0</ele><time>2026-04-18T16:10:23.676Z</time></trkpt><trkpt lat="43.75340774942614" lon="10.88205664413707"><ele>83.0</ele><time>2026-04-18T16:10:24.676Z</time></trkpt><trkpt lat="43.753495876014526" lon="10.88206122445692"><ele>83.0</ele><time>2026-04-18T16:10:25.676Z</time></trkpt><trkpt lat="43.75359112268074" lon="10.88206433855029"><ele>83.0</ele><time>2026-04-18T16:10:26.676Z</time></trkpt><trkpt lat="43.75368336380744" lon="10.882065351613734"><ele>83.0</ele><time>2026-04-18T16:10:27.676Z</time></trkpt><trkpt lat="43.75377970017345" lon="10.882072171695947"><ele>83.2</ele><time>2026-04-18T16:10:28.676Z</time></trkpt><trkpt lat="43.75387833275009" lon="10.882076144604005"><ele>83.4</ele><time>2026-04-18T16:10:29.676Z</time></trkpt><trkpt lat="43.753977474572956" lon="10.882083642639353"><ele>83.60000000000001</ele><time>2026-04-18T16:10:30.676Z</time></trkpt><trkpt lat="43.75407424984199" lon="10.882084774765136"><ele>83.80000000000001</ele><time>2026-04-18T16:10:31.676Z</time></trkpt><trkpt lat="43.75417416616167" lon="10.882093038902719"><ele>84.0</ele><time>2026-04-18T16:10:32.676Z</time></trkpt><trkpt lat="43.754275073195714" lon="10.882089115289189"><ele>84.4</ele><time>2026-04-18T16:10:33.676Z</time></trkpt><trkpt lat="43.75437409264274" lon="10.882110808997307"><ele>84.80000000000001</ele><time>2026-04-18T16:10:34.676Z</time></trkpt><trkpt lat="43.75446487893255" lon="10.882134590281916"><ele>85.19999999999999</ele><time>2026-04-18T16:10:35.676Z</time></trkpt><trkpt lat="43.75455316696666" lon="10.882167486200219"><ele>85.6</ele><time>2026-04-18T16:10:36.676Z</time></trkpt><trkpt lat="43.75464177859833" lon="10.882209915799091"><ele>86.0</ele><time>2026-04-18T16:10:37.676Z</time></trkpt><trkpt lat="43.75471968527048" lon="10.882259049549287"><ele>86.00000000000001</ele><time>2026-04-18T16:10:38.676Z</time></trkpt><trkpt lat="43.75479267512562" lon="10.882306608476757"><ele>86.0</ele><time>2026-04-18T16:10:39.676Z</time></trkpt><trkpt lat="43.754862572101246" lon="10.882358141600063"><ele>86.0</ele><time>2026-04-18T16:10:40.676Z</time></trkpt><trkpt lat="43.75492762484902" lon="10.882408841610207"><ele>86.0</ele><time>2026-04-18T16:10:41.676Z</time></trkpt><trkpt lat="43.754988304311816" lon="10.88245769266504"><ele>86.0</ele><time>2026-04-18T16:10:42.676Z</time></trkpt><trkpt lat="43.75504790855281" lon="10.882502869996843"><ele>86.00000000000001</ele><time>2026-04-18T16:10:43.676Z</time></trkpt><trkpt lat="43.755103851503996" lon="10.882546397672726"><ele>86.0</ele><time>2026-04-18T16:10:44.676Z</time></trkpt><trkpt lat="43.755158795008356" lon="10.882589448225692"><ele>87.0</ele><time>2026-04-18T16:10:45.676Z</time></trkpt><trkpt lat="43.755264799423315" lon="10.882668116984622"><ele>88.0</ele><time>2026-04-18T16:10:47.673Z</time></trkpt><trkpt lat="43.755356188554074" lon="10.882729497968747"><ele>89.0</ele><time>2026-04-18T16:10:49.673Z</time></trkpt><trkpt lat="43.75544426689518" lon="10.882771468958087"><ele>90.0</ele><time>2026-04-18T16:10:51.673Z</time></trkpt><trkpt lat="43.75552697856709" lon="10.882798133537129"><ele>91.0</ele><time>2026-04-18T16:10:53.673Z</time></trkpt><trkpt lat="43.755601277184006" lon="10.882814522493215"><ele>91.0</ele><time>2026-04-18T16:10:55.673Z</time></trkpt><trkpt lat="43.755664751418415" lon="10.88281957173983"><ele>91.0</ele><time>2026-04-18T16:10:57.673Z</time></trkpt><trkpt lat="43.75575286343814" lon="10.882830102032996"><ele>91.0</ele><time>2026-04-18T16:11:00.673Z</time></trkpt><trkpt lat="43.7558282845984" lon="10.882829273929454"><ele>91.0</ele><time>2026-04-18T16:11:03.673Z</time></trkpt><trkpt lat="43.755903644790905" lon="10.882818986437897"><ele>91.0</ele><time>2026-04-18T16:11:06.673Z</time></trkpt><trkpt lat="43.75597317503939" lon="10.882818577348338"><ele>91.0</ele><time>2026-04-18T16:11:09.673Z</time></trkpt><trkpt lat="43.756055823832845" lon="10.882811957267764"><ele>90.83333333333333</ele><time>2026-04-18T16:11:12.673Z</time></trkpt><trkpt lat="43.75613554056673" lon="10.882803849646258"><ele>90.66666666666666</ele><time>2026-04-18T16:11:15.673Z</time></trkpt><trkpt lat="43.7562146010077" lon="10.882788249554418"><ele>90.5</ele><time>2026-04-18T16:11:18.673Z</time></trkpt><trkpt lat="43.75629448518052" lon="10.882764290890908"><ele>90.33333333333333</ele><time>2026-04-18T16:11:21.673Z</time></trkpt><trkpt lat="43.75637297868366" lon="10.882744468665736"><ele>90.16666666666667</ele><time>2026-04-18T16:11:24.673Z</time></trkpt><trkpt lat="43.75645228683218" lon="10.882715216745249"><ele>90.0</ele><time>2026-04-18T16:11:27.673Z</time></trkpt><trkpt lat="43.756530389407956" lon="10.882686126271794"><ele>90.0</ele><time>2026-04-18T16:11:30.673Z</time></trkpt><trkpt lat="43.756605873089725" lon="10.882643579946956"><ele>90.0</ele><time>2026-04-18T16:11:33.673Z</time></trkpt><trkpt lat="43.75668421544714" lon="10.882594533160455"><ele>90.0</ele><time>2026-04-18T16:11:36.673Z</time></trkpt><trkpt lat="43.75676052445929" lon="10.882532250399146"><ele>90.0</ele><time>2026-04-18T16:11:39.673Z</time></trkpt><trkpt lat="43.75683502550803" lon="10.88247423379876"><ele>90.0</ele><time>2026-04-18T16:11:42.673Z</time></trkpt><trkpt lat="43.756905891314304" lon="10.882411440490632"><ele>90.0</ele><time>2026-04-18T16:11:45.673Z</time></trkpt><trkpt lat="43.756975167778805" lon="10.882357507835438"><ele>92.28571428571428</ele><time>2026-04-18T16:11:48.673Z</time></trkpt><trkpt lat="43.75703913426368" lon="10.882295899245031"><ele>94.57142857142858</ele><time>2026-04-18T16:11:51.673Z</time></trkpt><trkpt lat="43.75710188075856" lon="10.882238865041629"><ele>96.85714285714286</ele><time>2026-04-18T16:11:54.673Z</time></trkpt><trkpt lat="43.75716020474834" lon="10.882183115811404"><ele>99.14285714285714</ele><time>2026-04-18T16:11:57.673Z</time></trkpt><trkpt lat="43.757216328200414" lon="10.88214094788214"><ele>101.42857142857142</ele><time>2026-04-18T16:12:00.673Z</time></trkpt><trkpt lat="43.75727269607659" lon="10.882091862742284"><ele>103.71428571428572</ele><time>2026-04-18T16:12:03.673Z</time></trkpt><trkpt lat="43.75732986352518" lon="10.882042285633801"><ele>106.0</ele><time>2026-04-18T16:12:06.673Z</time></trkpt><trkpt lat="43.757386061515604" lon="10.881987409147671"><ele>106.0</ele><time>2026-04-18T16:12:09.673Z</time></trkpt><trkpt lat="43.757457230552795" lon="10.88192571769183"><ele>106.0</ele><time>2026-04-18T16:12:13.673Z</time></trkpt><trkpt lat="43.75751506278309" lon="10.88186788187418"><ele>106.0</ele><time>2026-04-18T16:12:16.673Z</time></trkpt><trkpt lat="43.757570037946905" lon="10.881820437517304"><ele>106.0</ele><time>2026-04-18T16:12:19.673Z</time></trkpt><trkpt lat="43.75762867881192" lon="10.881769548195173"><ele>106.0</ele><time>2026-04-18T16:12:22.673Z</time></trkpt><trkpt lat="43.75768261281473" lon="10.881710601873449"><ele>106.0</ele><time>2026-04-18T16:12:25.673Z</time></trkpt><trkpt lat="43.75773897025526" lon="10.881659721540565"><ele>106.0</ele><time>2026-04-18T16:12:28.673Z</time></trkpt><trkpt lat="43.757789645614444" lon="10.881587957506884"><ele>106.42857142857143</ele><time>2026-04-18T16:12:31.673Z</time></trkpt><trkpt lat="43.7578354154153" lon="10.881518125270267"><ele>106.85714285714285</ele><time>2026-04-18T16:12:34.673Z</time></trkpt><trkpt lat="43.757890262784336" lon="10.88145538593436"><ele>107.28571428571428</ele><time>2026-04-18T16:12:38.673Z</time></trkpt><trkpt lat="43.75795793372402" lon="10.88145193915412"><ele>107.71428571428572</ele><time>2026-04-18T16:12:42.673Z</time></trkpt><trkpt lat="43.75801730627502" lon="10.88150315371587"><ele>108.14285714285714</ele><time>2026-04-18T16:12:46.673Z</time></trkpt><trkpt lat="43.75807862805339" lon="10.881524140564345"><ele>108.57142857142857</ele><time>2026-04-18T16:12:50.673Z</time></trkpt><trkpt lat="43.75815369454218" lon="10.881494038127547"><ele>109.0</ele><time>2026-04-18T16:12:55.67Z</time></trkpt><trkpt lat="43.758176876925" lon="10.881408255024043"><ele>109.00000000000001</ele><time>2026-04-18T16:20:13.661Z</time></trkpt><trkpt lat="43.75823300406297" lon="10.881345040418179"><ele>109.0</ele><time>2026-04-18T16:20:18.661Z</time></trkpt><trkpt lat="43.7583087632448" lon="10.881312258505949"><ele>109.0</ele><time>2026-04-18T16:20:22.661Z</time></trkpt><trkpt lat="43.758396412893816" lon="10.881293564662954"><ele>109.0</ele><time>2026-04-18T16:20:25.661Z</time></trkpt><trkpt lat="43.75846991036323" lon="10.881275442922075"><ele>109.00000000000001</ele><time>2026-04-18T16:20:27.661Z</time></trkpt><trkpt lat="43.75855291793753" lon="10.88124357358758"><ele>109.0</ele><time>2026-04-18T16:20:29.661Z</time></trkpt><trkpt lat="43.7586463573082" lon="10.881203805812234"><ele>107.25</ele><time>2026-04-18T16:20:31.661Z</time></trkpt><trkpt lat="43.75875103585806" lon="10.88115175242926"><ele>105.5</ele><time>2026-04-18T16:20:33.661Z</time></trkpt><trkpt lat="43.75885540180683" lon="10.881088413515327"><ele>103.75</ele><time>2026-04-18T16:20:35.661Z</time></trkpt><trkpt lat="43.75896532427574" lon="10.88101817033388"><ele>102.0</ele><time>2026-04-18T16:20:37.661Z</time></trkpt><trkpt lat="43.759071374302465" lon="10.88095070405137"><ele>101.25</ele><time>2026-04-18T16:20:39.661Z</time></trkpt><trkpt lat="43.75916956527514" lon="10.880865511158012"><ele>100.5</ele><time>2026-04-18T16:20:41.661Z</time></trkpt><trkpt lat="43.759265400052996" lon="10.880771031488438"><ele>99.75</ele><time>2026-04-18T16:20:43.661Z</time></trkpt><trkpt lat="43.7593734896385" lon="10.880697851917814"><ele>99.0</ele><time>2026-04-18T16:20:45.661Z</time></trkpt><trkpt lat="43.759465705185654" lon="10.880598542872933"><ele>99.0</ele><time>2026-04-18T16:20:47.661Z</time></trkpt><trkpt lat="43.75955309125232" lon="10.880505183091634"><ele>99.0</ele><time>2026-04-18T16:20:49.661Z</time></trkpt><trkpt lat="43.75963907859994" lon="10.88041344783686"><ele>99.0</ele><time>2026-04-18T16:20:51.661Z</time></trkpt><trkpt lat="43.75971093063039" lon="10.880309421395534"><ele>99.0</ele><time>2026-04-18T16:20:53.661Z</time></trkpt><trkpt lat="43.75978626518366" lon="10.880255158133538"><ele>99.0</ele><time>2026-04-18T16:20:55.661Z</time></trkpt><trkpt lat="43.759866772507046" lon="10.88020956531068"><ele>99.0</ele><time>2026-04-18T16:20:58.661Z</time></trkpt><trkpt lat="43.75999313862141" lon="10.88031913858168"><ele>99.0</ele><time>2026-04-18T16:20:59.661Z</time></trkpt><trkpt lat="43.760060466595405" lon="10.880356520062538"><ele>99.0</ele><time>2026-04-18T16:21:00.661Z</time></trkpt><trkpt lat="43.76013476044068" lon="10.880401725196302"><ele>99.0</ele><time>2026-04-18T16:21:01.661Z</time></trkpt><trkpt lat="43.76021261803236" lon="10.880452168589045"><ele>99.0</ele><time>2026-04-18T16:21:02.661Z</time></trkpt><trkpt lat="43.76029822892581" lon="10.880504266139198"><ele>97.80000000000001</ele><time>2026-04-18T16:21:03.661Z</time></trkpt><trkpt lat="43.76038447194808" lon="10.880561411581882"><ele>96.60000000000001</ele><time>2026-04-18T16:21:04.661Z</time></trkpt><trkpt lat="43.760471819125364" lon="10.880622161149399"><ele>95.4</ele><time>2026-04-18T16:21:05.661Z</time></trkpt><trkpt lat="43.760557711901164" lon="10.880684924218825"><ele>94.2</ele><time>2026-04-18T16:21:06.661Z</time></trkpt><trkpt lat="43.76064781519012" lon="10.88075209003112"><ele>93.0</ele><time>2026-04-18T16:21:07.661Z</time></trkpt><trkpt lat="43.76073888733927" lon="10.88081707904907"><ele>93.0</ele><time>2026-04-18T16:21:08.661Z</time></trkpt><trkpt lat="43.76083471419831" lon="10.88088126766295"><ele>93.0</ele><time>2026-04-18T16:21:09.661Z</time></trkpt><trkpt lat="43.76092951248653" lon="10.88094290567106"><ele>93.0</ele><time>2026-04-18T16:21:10.661Z</time></trkpt><trkpt lat="43.76102090304071" lon="10.88101578774037"><ele>93.0</ele><time>2026-04-18T16:21:11.661Z</time></trkpt><trkpt lat="43.761112732180386" lon="10.88109071079473"><ele>93.0</ele><time>2026-04-18T16:21:12.661Z</time></trkpt><trkpt lat="43.76120513966574" lon="10.881163023122173"><ele>91.80000000000001</ele><time>2026-04-18T16:21:13.661Z</time></trkpt><trkpt lat="43.76129774416098" lon="10.881241037939084"><ele>90.6</ele><time>2026-04-18T16:21:14.661Z</time></trkpt><trkpt lat="43.76137853707802" lon="10.881332463964217"><ele>89.4</ele><time>2026-04-18T16:21:15.661Z</time></trkpt><trkpt lat="43.761453232329664" lon="10.881429772554014"><ele>88.19999999999999</ele><time>2026-04-18T16:21:16.658Z</time></trkpt><trkpt lat="43.76152920493715" lon="10.881527785620131"><ele>87.0</ele><time>2026-04-18T16:21:17.658Z</time></trkpt><trkpt lat="43.76160138059575" lon="10.881620157100205"><ele>87.0</ele><time>2026-04-18T16:21:18.658Z</time></trkpt><trkpt lat="43.76167241776154" lon="10.881718690142757"><ele>87.0</ele><time>2026-04-18T16:21:19.658Z</time></trkpt><trkpt lat="43.76174001888922" lon="10.881813648630933"><ele>87.0</ele><time>2026-04-18T16:21:20.657Z</time></trkpt><trkpt lat="43.76180894881642" lon="10.881904226499687"><ele>87.0</ele><time>2026-04-18T16:21:21.657Z</time></trkpt><trkpt lat="43.76187652362366" lon="10.881992891393649"><ele>87.0</ele><time>2026-04-18T16:21:22.657Z</time></trkpt><trkpt lat="43.76193891143308" lon="10.882080510931853"><ele>87.5</ele><time>2026-04-18T16:21:23.657Z</time></trkpt><trkpt lat="43.762001320349846" lon="10.882165849737081"><ele>88.0</ele><time>2026-04-18T16:21:24.657Z</time></trkpt><trkpt lat="43.76206305567229" lon="10.8822460931846"><ele>88.5</ele><time>2026-04-18T16:21:25.657Z</time></trkpt><trkpt lat="43.762119408431644" lon="10.882325465416978"><ele>89.0</ele><time>2026-04-18T16:21:26.657Z</time></trkpt><trkpt lat="43.76217481447246" lon="10.882399010195481"><ele>89.5</ele><time>2026-04-18T16:21:27.657Z</time></trkpt><trkpt lat="43.76222835550788" lon="10.882469678089022"><ele>90.0</ele><time>2026-04-18T16:21:28.657Z</time></trkpt><trkpt lat="43.762280554036764" lon="10.882540442674582"><ele>89.6</ele><time>2026-04-18T16:21:29.657Z</time></trkpt><trkpt lat="43.76232830915597" lon="10.882606817174624"><ele>89.2</ele><time>2026-04-18T16:21:30.657Z</time></trkpt><trkpt lat="43.76237621579086" lon="10.882666325601772"><ele>88.80000000000001</ele><time>2026-04-18T16:21:31.657Z</time></trkpt><trkpt lat="43.76246693121021" lon="10.882785362025928"><ele>88.4</ele><time>2026-04-18T16:21:33.657Z</time></trkpt><trkpt lat="43.76254522154242" lon="10.88289162118367"><ele>88.0</ele><time>2026-04-18T16:21:35.657Z</time></trkpt><trkpt lat="43.76262554439951" lon="10.88298898561216"><ele>88.0</ele><time>2026-04-18T16:21:37.657Z</time></trkpt><trkpt lat="43.76269079385605" lon="10.88308887151859"><ele>88.0</ele><time>2026-04-18T16:21:39.657Z</time></trkpt><trkpt lat="43.76275664246086" lon="10.883188394583506"><ele>88.0</ele><time>2026-04-18T16:21:41.657Z</time></trkpt><trkpt lat="43.76282649708509" lon="10.883283856440185"><ele>88.0</ele><time>2026-04-18T16:21:43.657Z</time></trkpt><trkpt lat="43.762896559332496" lon="10.883381039658442"><ele>88.0</ele><time>2026-04-18T16:21:45.657Z</time></trkpt><trkpt lat="43.762966268908954" lon="10.883475345681164"><ele>88.83333333333333</ele><time>2026-04-18T16:21:47.657Z</time></trkpt><trkpt lat="43.763032517123236" lon="10.883561391014307"><ele>89.66666666666666</ele><time>2026-04-18T16:21:49.657Z</time></trkpt><trkpt lat="43.763098305046476" lon="10.88364159400989"><ele>90.5</ele><time>2026-04-18T16:21:51.657Z</time></trkpt><trkpt lat="43.763156810862206" lon="10.883726164452607"><ele>91.33333333333333</ele><time>2026-04-18T16:21:53.657Z</time></trkpt><trkpt lat="43.76321589519351" lon="10.883808452368038"><ele>92.16666666666667</ele><time>2026-04-18T16:21:55.657Z</time></trkpt><trkpt lat="43.76327340359522" lon="10.883889145567075"><ele>93.0</ele><time>2026-04-18T16:21:57.657Z</time></trkpt><trkpt lat="43.763327580981226" lon="10.8839703731161"><ele>93.0</ele><time>2026-04-18T16:21:59.657Z</time></trkpt><trkpt lat="43.76337830644717" lon="10.884054901050453"><ele>93.0</ele><time>2026-04-18T16:22:01.657Z</time></trkpt><trkpt lat="43.763425557389304" lon="10.884145054982843"><ele>93.0</ele><time>2026-04-18T16:22:03.657Z</time></trkpt><trkpt lat="43.76346978842783" lon="10.884237316153708"><ele>93.0</ele><time>2026-04-18T16:22:05.657Z</time></trkpt><trkpt lat="43.76351460715655" lon="10.884327893268656"><ele>93.0</ele><time>2026-04-18T16:22:07.657Z</time></trkpt><trkpt lat="43.763556897231915" lon="10.884420660918467"><ele>93.0</ele><time>2026-04-18T16:22:09.657Z</time></trkpt><trkpt lat="43.76359937956266" lon="10.884515640120524"><ele>92.83333333333333</ele><time>2026-04-18T16:22:11.657Z</time></trkpt><trkpt lat="43.76364567048898" lon="10.884609641673297"><ele>92.66666666666667</ele><time>2026-04-18T16:22:13.657Z</time></trkpt><trkpt lat="43.763681134404166" lon="10.884712982836144"><ele>92.5</ele><time>2026-04-18T16:22:15.657Z</time></trkpt><trkpt lat="43.76372009131221" lon="10.88481568821984"><ele>92.33333333333334</ele><time>2026-04-18T16:22:17.657Z</time></trkpt><trkpt lat="43.76376234596072" lon="10.884916704915922"><ele>92.16666666666667</ele><time>2026-04-18T16:22:19.657Z</time></trkpt><trkpt lat="43.763805723891124" lon="10.885017553883204"><ele>92.0</ele><time>2026-04-18T16:22:21.657Z</time></trkpt><trkpt lat="43.76385054842043" lon="10.885122375857417"><ele>92.0</ele><time>2026-04-18T16:22:23.657Z</time></trkpt><trkpt lat="43.76389426855465" lon="10.885232437018182"><ele>92.0</ele><time>2026-04-18T16:22:25.657Z</time></trkpt><trkpt lat="43.76394117800816" lon="10.885342040952192"><ele>92.0</ele><time>2026-04-18T16:22:27.657Z</time></trkpt><trkpt lat="43.76398496672319" lon="10.885447349499426"><ele>92.0</ele><time>2026-04-18T16:22:29.657Z</time></trkpt><trkpt lat="43.76403023441925" lon="10.885554436995864"><ele>92.0</ele><time>2026-04-18T16:22:31.657Z</time></trkpt><trkpt lat="43.76407424245283" lon="10.885665079990801"><ele>92.0</ele><time>2026-04-18T16:22:33.657Z</time></trkpt><trkpt lat="43.76411954623074" lon="10.885772389591162"><ele>92.0</ele><time>2026-04-18T16:22:35.657Z</time></trkpt><trkpt lat="43.7641656747485" lon="10.885872324632606"><ele>92.0</ele><time>2026-04-18T16:22:37.657Z</time></trkpt><trkpt lat="43.764214365611764" lon="10.885983301253388"><ele>92.0</ele><time>2026-04-18T16:22:39.657Z</time></trkpt><trkpt lat="43.76426175450991" lon="10.886089972021244"><ele>92.0</ele><time>2026-04-18T16:22:41.657Z</time></trkpt><trkpt lat="43.764303072486314" lon="10.886207500469391"><ele>91.8</ele><time>2026-04-18T16:22:43.657Z</time></trkpt><trkpt lat="43.76434892031371" lon="10.886319623787612"><ele>91.6</ele><time>2026-04-18T16:22:45.657Z</time></trkpt><trkpt lat="43.76439683845497" lon="10.886429441238894"><ele>91.39999999999999</ele><time>2026-04-18T16:22:47.657Z</time></trkpt><trkpt lat="43.76444450001688" lon="10.886547350522491"><ele>91.19999999999999</ele><time>2026-04-18T16:22:49.657Z</time></trkpt><trkpt lat="43.76448644957112" lon="10.886666482111817"><ele>91.0</ele><time>2026-04-18T16:22:51.657Z</time></trkpt><trkpt lat="43.764535553570084" lon="10.886774929576962"><ele>91.6</ele><time>2026-04-18T16:22:53.657Z</time></trkpt><trkpt lat="43.764581241703816" lon="10.886886510022261"><ele>92.19999999999999</ele><time>2026-04-18T16:22:55.657Z</time></trkpt><trkpt lat="43.764633579868466" lon="10.887012904683363"><ele>92.80000000000001</ele><time>2026-04-18T16:22:57.657Z</time></trkpt><trkpt lat="43.76468028219873" lon="10.887131178960978"><ele>93.4</ele><time>2026-04-18T16:22:59.657Z</time></trkpt><trkpt lat="43.76472803514483" lon="10.887250224135451"><ele>94.0</ele><time>2026-04-18T16:23:01.657Z</time></trkpt><trkpt lat="43.76477869295103" lon="10.887369960052569"><ele>94.0</ele><time>2026-04-18T16:23:03.657Z</time></trkpt><trkpt lat="43.764831195086735" lon="10.88749430478194"><ele>94.0</ele><time>2026-04-18T16:23:05.657Z</time></trkpt><trkpt lat="43.7648806229053" lon="10.887620945948553"><ele>94.0</ele><time>2026-04-18T16:23:07.657Z</time></trkpt><trkpt lat="43.764936780130576" lon="10.88774851650212"><ele>94.0</ele><time>2026-04-18T16:23:09.657Z</time></trkpt><trkpt lat="43.76499613824003" lon="10.887878065865022"><ele>94.0</ele><time>2026-04-18T16:23:11.657Z</time></trkpt><trkpt lat="43.76506543029814" lon="10.88800665430137"><ele>93.75</ele><time>2026-04-18T16:23:13.657Z</time></trkpt><trkpt lat="43.76513839513147" lon="10.888137010969126"><ele>93.5</ele><time>2026-04-18T16:23:15.657Z</time></trkpt><trkpt lat="43.7652182075249" lon="10.888259485715135"><ele>93.25</ele><time>2026-04-18T16:23:17.657Z</time></trkpt><trkpt lat="43.76530299240337" lon="10.888385113885123"><ele>93.0</ele><time>2026-04-18T16:23:19.657Z</time></trkpt><trkpt lat="43.765395679101665" lon="10.888498894709787"><ele>93.0</ele><time>2026-04-18T16:23:21.657Z</time></trkpt><trkpt lat="43.76544537212151" lon="10.88855728950339"><ele>93.0</ele><time>2026-04-18T16:23:22.654Z</time></trkpt><trkpt lat="43.76549848250279" lon="10.888611476363915"><ele>93.0</ele><time>2026-04-18T16:23:23.654Z</time></trkpt><trkpt lat="43.76560455758809" lon="10.88871731145252"><ele>93.0</ele><time>2026-04-18T16:23:25.654Z</time></trkpt><trkpt lat="43.76565973190839" lon="10.888763413503805"><ele>93.0</ele><time>2026-04-18T16:23:26.654Z</time></trkpt><trkpt lat="43.76572013742776" lon="10.888816116186604"><ele>93.0</ele><time>2026-04-18T16:23:27.654Z</time></trkpt><trkpt lat="43.7657783417592" lon="10.888858468935243"><ele>93.00000000000001</ele><time>2026-04-18T16:23:28.654Z</time></trkpt><trkpt lat="43.765838905443225" lon="10.888898337306266"><ele>93.0</ele><time>2026-04-18T16:23:29.654Z</time></trkpt><trkpt lat="43.76589994045172" lon="10.88893388627554"><ele>93.0</ele><time>2026-04-18T16:23:30.654Z</time></trkpt><trkpt lat="43.76596236495603" lon="10.888971120956654"><ele>93.0</ele><time>2026-04-18T16:23:31.654Z</time></trkpt><trkpt lat="43.76602474376897" lon="10.889005045383"><ele>93.0</ele><time>2026-04-18T16:23:32.654Z</time></trkpt><trkpt lat="43.76608530236168" lon="10.88903786572424"><ele>93.00000000000001</ele><time>2026-04-18T16:23:33.654Z</time></trkpt><trkpt lat="43.7661455987886" lon="10.889069032035126"><ele>93.0</ele><time>2026-04-18T16:23:34.654Z</time></trkpt><trkpt lat="43.76620552413502" lon="10.889099348556572"><ele>93.0</ele><time>2026-04-18T16:23:35.654Z</time></trkpt><trkpt lat="43.766266353045275" lon="10.889128920656976"><ele>93.0</ele><time>2026-04-18T16:23:36.654Z</time></trkpt><trkpt lat="43.76638517939665" lon="10.88918728924422"><ele>93.0</ele><time>2026-04-18T16:23:38.654Z</time></trkpt><trkpt lat="43.766502120555224" lon="10.889247692138948"><ele>93.0</ele><time>2026-04-18T16:23:40.654Z</time></trkpt><trkpt lat="43.76661771393232" lon="10.889305261137904"><ele>93.0</ele><time>2026-04-18T16:23:42.654Z</time></trkpt><trkpt lat="43.76673474814064" lon="10.889365109812381"><ele>93.28571428571429</ele><time>2026-04-18T16:23:44.654Z</time></trkpt><trkpt lat="43.76679499498749" lon="10.889393944421387"><ele>93.57142857142857</ele><time>2026-04-18T16:23:45.654Z</time></trkpt><trkpt lat="43.766857820037266" lon="10.889426121908203"><ele>93.85714285714286</ele><time>2026-04-18T16:23:46.654Z</time></trkpt><trkpt lat="43.76692082694776" lon="10.889454232297867"><ele>94.14285714285714</ele><time>2026-04-18T16:23:47.654Z</time></trkpt><trkpt lat="43.76698256699683" lon="10.889485964416307"><ele>94.42857142857143</ele><time>2026-04-18T16:23:48.654Z</time></trkpt><trkpt lat="43.76704660940704" lon="10.889516433926094"><ele>94.71428571428572</ele><time>2026-04-18T16:23:49.654Z</time></trkpt><trkpt lat="43.76711599942336" lon="10.88954210625055"><ele>95.0</ele><time>2026-04-18T16:23:50.654Z</time></trkpt><trkpt lat="43.76718187339286" lon="10.88957862957346"><ele>94.33333333333334</ele><time>2026-04-18T16:23:51.654Z</time></trkpt><trkpt lat="43.767250073450825" lon="10.889615058814568"><ele>93.66666666666667</ele><time>2026-04-18T16:23:52.654Z</time></trkpt><trkpt lat="43.76732205322619" lon="10.889649397225321"><ele>93.0</ele><time>2026-04-18T16:23:53.654Z</time></trkpt><trkpt lat="43.76739397547076" lon="10.889687364486209"><ele>92.33333333333333</ele><time>2026-04-18T16:23:54.654Z</time></trkpt><trkpt lat="43.76746740833762" lon="10.889723646394442"><ele>91.66666666666666</ele><time>2026-04-18T16:23:55.654Z</time></trkpt><trkpt lat="43.76754114277648" lon="10.889758486284551"><ele>91.0</ele><time>2026-04-18T16:23:56.654Z</time></trkpt><trkpt lat="43.767617089597266" lon="10.889796296842034"><ele>91.0</ele><time>2026-04-18T16:23:57.654Z</time></trkpt><trkpt lat="43.76769202330021" lon="10.889831277300386"><ele>91.0</ele><time>2026-04-18T16:23:58.654Z</time></trkpt><trkpt lat="43.76777039072285" lon="10.889870665377165"><ele>91.0</ele><time>2026-04-18T16:23:59.654Z</time></trkpt><trkpt lat="43.767845561023066" lon="10.889909120838668"><ele>91.0</ele><time>2026-04-18T16:24:00.654Z</time></trkpt><trkpt lat="43.767917527214976" lon="10.88994619341418"><ele>91.0</ele><time>2026-04-18T16:24:01.654Z</time></trkpt><trkpt lat="43.76799303714531" lon="10.88998334544672"><ele>91.0</ele><time>2026-04-18T16:24:02.654Z</time></trkpt><trkpt lat="43.768065360617975" lon="10.890020149226032"><ele>90.57142857142857</ele><time>2026-04-18T16:24:03.654Z</time></trkpt><trkpt lat="43.768137242543645" lon="10.89005615476517"><ele>90.14285714285714</ele><time>2026-04-18T16:24:04.654Z</time></trkpt><trkpt lat="43.768205512138195" lon="10.89009320087485"><ele>89.71428571428572</ele><time>2026-04-18T16:24:05.654Z</time></trkpt><trkpt lat="43.76827468360989" lon="10.890126735832903"><ele>89.28571428571428</ele><time>2026-04-18T16:24:06.654Z</time></trkpt><trkpt lat="43.76834202627856" lon="10.890162375362184"><ele>88.85714285714286</ele><time>2026-04-18T16:24:07.654Z</time></trkpt><trkpt lat="43.76840996451194" lon="10.890192118600314"><ele>88.42857142857143</ele><time>2026-04-18T16:24:08.654Z</time></trkpt><trkpt lat="43.76847148861018" lon="10.89021984402507"><ele>88.0</ele><time>2026-04-18T16:24:09.654Z</time></trkpt><trkpt lat="43.76853621747325" lon="10.89025474966753"><ele>88.0</ele><time>2026-04-18T16:24:10.654Z</time></trkpt><trkpt lat="43.768599417027794" lon="10.890288761530984"><ele>88.0</ele><time>2026-04-18T16:24:11.654Z</time></trkpt><trkpt lat="43.76866084936437" lon="10.890320395621599"><ele>88.0</ele><time>2026-04-18T16:24:12.654Z</time></trkpt><trkpt lat="43.768780654729376" lon="10.890375960370468"><ele>88.0</ele><time>2026-04-18T16:24:14.654Z</time></trkpt><trkpt lat="43.7688987969467" lon="10.890442845045259"><ele>88.0</ele><time>2026-04-18T16:24:16.654Z</time></trkpt><trkpt lat="43.769007596312605" lon="10.890495111616676"><ele>88.0</ele><time>2026-04-18T16:24:18.654Z</time></trkpt><trkpt lat="43.76911706308948" lon="10.890548079972033"><ele>88.0</ele><time>2026-04-18T16:24:20.654Z</time></trkpt><trkpt lat="43.7692244579938" lon="10.890604208049632"><ele>88.0</ele><time>2026-04-18T16:24:22.654Z</time></trkpt><trkpt lat="43.76932165796694" lon="10.890648512512078"><ele>88.0</ele><time>2026-04-18T16:24:24.654Z</time></trkpt><trkpt lat="43.76940882663078" lon="10.890703880116057"><ele>88.0</ele><time>2026-04-18T16:24:26.654Z</time></trkpt><trkpt lat="43.769504238543746" lon="10.89076888689246"><ele>87.80000000000001</ele><time>2026-04-18T16:24:28.654Z</time></trkpt><trkpt lat="43.76959412277572" lon="10.890845011889644"><ele>87.6</ele><time>2026-04-18T16:24:30.654Z</time></trkpt><trkpt lat="43.76967580428465" lon="10.890942260476487"><ele>87.4</ele><time>2026-04-18T16:24:32.654Z</time></trkpt><trkpt lat="43.76974787847686" lon="10.891055897955493"><ele>87.19999999999999</ele><time>2026-04-18T16:24:34.654Z</time></trkpt><trkpt lat="43.76981792294939" lon="10.891181847607344"><ele>87.0</ele><time>2026-04-18T16:24:36.654Z</time></trkpt><trkpt lat="43.769885621370285" lon="10.89131257514289"><ele>87.0</ele><time>2026-04-18T16:24:38.654Z</time></trkpt><trkpt lat="43.76994332764797" lon="10.89145275003728"><ele>87.0</ele><time>2026-04-18T16:24:40.654Z</time></trkpt><trkpt lat="43.770004717592904" lon="10.891598471450088"><ele>87.0</ele><time>2026-04-18T16:24:42.654Z</time></trkpt><trkpt lat="43.770060131148654" lon="10.89175225143089"><ele>87.0</ele><time>2026-04-18T16:24:44.654Z</time></trkpt><trkpt lat="43.77009412784904" lon="10.891830171482631"><ele>87.0</ele><time>2026-04-18T16:24:45.654Z</time></trkpt><trkpt lat="43.770128821870486" lon="10.89190782711201"><ele>87.28571428571428</ele><time>2026-04-18T16:24:46.654Z</time></trkpt><trkpt lat="43.77016046172389" lon="10.891983852031192"><ele>87.57142857142857</ele><time>2026-04-18T16:24:47.654Z</time></trkpt><trkpt lat="43.770192055102804" lon="10.892061934867312"><ele>87.85714285714286</ele><time>2026-04-18T16:24:48.654Z</time></trkpt><trkpt lat="43.77022350560364" lon="10.892137634816558"><ele>88.14285714285714</ele><time>2026-04-18T16:24:49.654Z</time></trkpt><trkpt lat="43.77025103970406" lon="10.892222108337487"><ele>88.42857142857143</ele><time>2026-04-18T16:24:50.654Z</time></trkpt><trkpt lat="43.770275009876535" lon="10.892309973586368"><ele>88.71428571428571</ele><time>2026-04-18T16:24:51.654Z</time></trkpt><trkpt lat="43.770293473084365" lon="10.892403950761882"><ele>89.0</ele><time>2026-04-18T16:24:52.654Z</time></trkpt><trkpt lat="43.7703016995911" lon="10.892502927168701"><ele>89.16666666666667</ele><time>2026-04-18T16:24:53.654Z</time></trkpt><trkpt lat="43.77030243735425" lon="10.89260672158372"><ele>89.33333333333334</ele><time>2026-04-18T16:24:54.654Z</time></trkpt><trkpt lat="43.77030777425958" lon="10.892714220793346"><ele>89.5</ele><time>2026-04-18T16:24:55.654Z</time></trkpt><trkpt lat="43.77030683245527" lon="10.892814403681708"><ele>89.66666666666667</ele><time>2026-04-18T16:24:56.654Z</time></trkpt><trkpt lat="43.77029569317692" lon="10.892923258559243"><ele>89.83333333333333</ele><time>2026-04-18T16:24:57.654Z</time></trkpt><trkpt lat="43.770277544195594" lon="10.893035174309901"><ele>90.0</ele><time>2026-04-18T16:24:58.654Z</time></trkpt><trkpt lat="43.77025964083728" lon="10.893150788913458"><ele>90.0</ele><time>2026-04-18T16:24:59.654Z</time></trkpt><trkpt lat="43.77024497650211" lon="10.893264626683303"><ele>90.0</ele><time>2026-04-18T16:25:00.654Z</time></trkpt><trkpt lat="43.770231138947125" lon="10.893384637176375"><ele>90.0</ele><time>2026-04-18T16:25:01.654Z</time></trkpt><trkpt lat="43.77021383504602" lon="10.893508968618681"><ele>90.0</ele><time>2026-04-18T16:25:02.654Z</time></trkpt><trkpt lat="43.77019323325205" lon="10.89363638956124"><ele>90.0</ele><time>2026-04-18T16:25:03.654Z</time></trkpt><trkpt lat="43.770175893722055" lon="10.89375810555783"><ele>90.0</ele><time>2026-04-18T16:25:04.654Z</time></trkpt><trkpt lat="43.77015722892312" lon="10.893887999759317"><ele>88.4</ele><time>2026-04-18T16:25:05.654Z</time></trkpt><trkpt lat="43.77013976008318" lon="10.89401136500667"><ele>86.8</ele><time>2026-04-18T16:25:06.654Z</time></trkpt><trkpt lat="43.77011891773064" lon="10.894142003529646"><ele>85.19999999999999</ele><time>2026-04-18T16:25:07.654Z</time></trkpt><trkpt lat="43.77010127439119" lon="10.89427702111291"><ele>83.6</ele><time>2026-04-18T16:25:08.654Z</time></trkpt><trkpt lat="43.77008467362283" lon="10.894406734764459"><ele>82.0</ele><time>2026-04-18T16:25:09.654Z</time></trkpt><trkpt lat="43.77006703985011" lon="10.894532939751413"><ele>82.0</ele><time>2026-04-18T16:25:10.654Z</time></trkpt><trkpt lat="43.77004535933316" lon="10.894660983087386"><ele>82.0</ele><time>2026-04-18T16:25:11.654Z</time></trkpt><trkpt lat="43.77002835543334" lon="10.894787436222295"><ele>82.0</ele><time>2026-04-18T16:25:12.654Z</time></trkpt><trkpt lat="43.77001340449322" lon="10.894917635380198"><ele>82.0</ele><time>2026-04-18T16:25:13.654Z</time></trkpt><trkpt lat="43.77000001236478" lon="10.895037122980574"><ele>82.0</ele><time>2026-04-18T16:25:14.654Z</time></trkpt><trkpt lat="43.769975449365965" lon="10.895160715874832"><ele>82.16666666666666</ele><time>2026-04-18T16:25:15.654Z</time></trkpt><trkpt lat="43.769963669576946" lon="10.895269277276684"><ele>82.33333333333333</ele><time>2026-04-18T16:25:16.654Z</time></trkpt><trkpt lat="43.76995472178029" lon="10.895385123861619"><ele>82.5</ele><time>2026-04-18T16:25:17.654Z</time></trkpt><trkpt lat="43.76994902734144" lon="10.895487525376403"><ele>82.66666666666667</ele><time>2026-04-18T16:25:18.654Z</time></trkpt><trkpt lat="43.7699329704316" lon="10.895592023307916"><ele>82.83333333333334</ele><time>2026-04-18T16:25:19.654Z</time></trkpt><trkpt lat="43.769915674830365" lon="10.89568816695707"><ele>83.0</ele><time>2026-04-18T16:25:20.654Z</time></trkpt><trkpt lat="43.7699044261071" lon="10.895783719179715"><ele>83.0</ele><time>2026-04-18T16:25:21.654Z</time></trkpt><trkpt lat="43.76989701283883" lon="10.895879973353454"><ele>83.0</ele><time>2026-04-18T16:25:22.654Z</time></trkpt><trkpt lat="43.76988811170258" lon="10.8959699860193"><ele>83.0</ele><time>2026-04-18T16:25:23.654Z</time></trkpt><trkpt lat="43.76988097122129" lon="10.896060630422332"><ele>83.0</ele><time>2026-04-18T16:25:24.654Z</time></trkpt><trkpt lat="43.76987741454217" lon="10.896149530147946"><ele>83.0</ele><time>2026-04-18T16:25:25.654Z</time></trkpt><trkpt lat="43.76987152222516" lon="10.896237467902653"><ele>83.0</ele><time>2026-04-18T16:25:26.654Z</time></trkpt><trkpt lat="43.76986069659743" lon="10.896324619260552"><ele>83.0</ele><time>2026-04-18T16:25:27.654Z</time></trkpt><trkpt lat="43.76983407575092" lon="10.896486100407445"><ele>83.2</ele><time>2026-04-18T16:25:29.651Z</time></trkpt><trkpt lat="43.76979954643662" lon="10.896643100518869"><ele>83.4</ele><time>2026-04-18T16:25:31.651Z</time></trkpt><trkpt lat="43.769763216853725" lon="10.896789665831871"><ele>83.60000000000001</ele><time>2026-04-18T16:25:33.651Z</time></trkpt><trkpt lat="43.769719644256526" lon="10.896924676979841"><ele>83.80000000000001</ele><time>2026-04-18T16:25:35.651Z</time></trkpt><trkpt lat="43.769698171206606" lon="10.89706824117299"><ele>84.0</ele><time>2026-04-18T16:25:37.651Z</time></trkpt><trkpt lat="43.769689816493205" lon="10.897214071731646"><ele>84.2</ele><time>2026-04-18T16:25:39.651Z</time></trkpt><trkpt lat="43.76967347157615" lon="10.89735058060458"><ele>84.4</ele><time>2026-04-18T16:25:41.651Z</time></trkpt><trkpt lat="43.76966580738405" lon="10.897491123861887"><ele>84.6</ele><time>2026-04-18T16:25:43.651Z</time></trkpt><trkpt lat="43.76964877642223" lon="10.897628558673594"><ele>84.8</ele><time>2026-04-18T16:25:45.651Z</time></trkpt><trkpt lat="43.769647787777615" lon="10.89779653980148"><ele>85.0</ele><time>2026-04-18T16:25:47.651Z</time></trkpt><trkpt lat="43.769640495550036" lon="10.897960091858732"><ele>85.0</ele><time>2026-04-18T16:25:49.651Z</time></trkpt><trkpt lat="43.76964171211031" lon="10.898047965063643"><ele>85.0</ele><time>2026-04-18T16:25:50.651Z</time></trkpt><trkpt lat="43.76964337975958" lon="10.89822452113562"><ele>85.0</ele><time>2026-04-18T16:25:52.651Z</time></trkpt><trkpt lat="43.7696562016448" lon="10.898388305416649"><ele>85.0</ele><time>2026-04-18T16:25:54.651Z</time></trkpt><trkpt lat="43.76966940832883" lon="10.898544940914185"><ele>85.0</ele><time>2026-04-18T16:25:56.651Z</time></trkpt><trkpt lat="43.76969497535091" lon="10.898692239645467"><ele>85.2</ele><time>2026-04-18T16:25:58.651Z</time></trkpt><trkpt lat="43.769711713859905" lon="10.898827460388329"><ele>85.4</ele><time>2026-04-18T16:26:00.651Z</time></trkpt><trkpt lat="43.76971731539893" lon="10.898957771114883"><ele>85.6</ele><time>2026-04-18T16:26:02.651Z</time></trkpt><trkpt lat="43.769733174107536" lon="10.899085972996252"><ele>85.8</ele><time>2026-04-18T16:26:04.651Z</time></trkpt><trkpt lat="43.76974579326751" lon="10.899209001463053"><ele>86.0</ele><time>2026-04-18T16:26:06.651Z</time></trkpt><trkpt lat="43.76978022026834" lon="10.89932075784605"><ele>86.0</ele><time>2026-04-18T16:26:08.651Z</time></trkpt><trkpt lat="43.76982353051116" lon="10.899430523656612"><ele>86.0</ele><time>2026-04-18T16:26:10.651Z</time></trkpt><trkpt lat="43.76986898791992" lon="10.899540522145568"><ele>86.0</ele><time>2026-04-18T16:26:12.651Z</time></trkpt><trkpt lat="43.7699010572823" lon="10.899616004747516"><ele>86.0</ele><time>2026-04-18T16:26:14.651Z</time></trkpt><trkpt lat="43.770000881695026" lon="10.899596643094254"><ele>86.0</ele><time>2026-04-18T16:26:15.651Z</time></trkpt><trkpt lat="43.76993168197504" lon="10.899647418959429"><ele>86.0</ele><time>2026-04-18T16:26:17.651Z</time></trkpt><trkpt lat="43.770058819689886" lon="10.899600933182862"><ele>86.0</ele><time>2026-04-18T16:26:18.651Z</time></trkpt><trkpt lat="43.76990925993606" lon="10.899635311045447"><ele>86.0</ele><time>2026-04-18T16:29:07.648Z</time></trkpt><trkpt lat="43.76994589579773" lon="10.899712470152158"><ele>86.0</ele><time>2026-04-18T16:31:35.646Z</time></trkpt><trkpt lat="43.7699888434466" lon="10.899807012283636"><ele>86.0</ele><time>2026-04-18T16:31:38.646Z</time></trkpt><trkpt lat="43.77004067594679" lon="10.899888642181224"><ele>86.0</ele><time>2026-04-18T16:31:41.646Z</time></trkpt><trkpt lat="43.77008798961216" lon="10.89999799702965"><ele>85.0</ele><time>2026-04-18T16:31:44.646Z</time></trkpt><trkpt lat="43.77011942337645" lon="10.900097291483688"><ele>84.0</ele><time>2026-04-18T16:31:46.643Z</time></trkpt><trkpt lat="43.77017453555202" lon="10.900194232352774"><ele>83.0</ele><time>2026-04-18T16:31:48.643Z</time></trkpt><trkpt lat="43.77023071741723" lon="10.900307811098429"><ele>82.0</ele><time>2026-04-18T16:31:50.643Z</time></trkpt><trkpt lat="43.77027991817109" lon="10.900434451176059"><ele>81.0</ele><time>2026-04-18T16:31:52.643Z</time></trkpt><trkpt lat="43.77033585191817" lon="10.90054929647318"><ele>81.0</ele><time>2026-04-18T16:31:54.643Z</time></trkpt><trkpt lat="43.77030673368028" lon="10.90065566700381"><ele>81.0</ele><time>2026-04-18T16:31:57.643Z</time></trkpt><trkpt lat="43.77023327800335" lon="10.900710560603587"><ele>81.0</ele><time>2026-04-18T16:32:00.643Z</time></trkpt><trkpt lat="43.770152632430005" lon="10.900745597447408"><ele>81.0</ele><time>2026-04-18T16:32:04.643Z</time></trkpt><trkpt lat="43.770072733134064" lon="10.900851645839198"><ele>81.0</ele><time>2026-04-18T16:32:06.643Z</time></trkpt><trkpt lat="43.77030670594456" lon="10.9008196583981"><ele>81.0</ele><time>2026-04-18T16:32:09.643Z</time></trkpt></trkseg></trk></gpx>